<?xml version='1.0' encoding='UTF-8'?><gpx version="1.1" creator="JPX - https://github.com/jenetics/jpx" xmlns="http://www.topografix.com/GPX/1/1"><trk><trkseg><trkpt lat="43.1251983" lon="12.351656"><ele>361.0</ele><time>2026-04-09T13:32:58.993Z</time></trkpt><trkpt lat="43.125185" lon="12.3517456"><ele>361.0</ele><time>2026-04-09T13:33:08.002Z</time></trkpt><trkpt lat="43.1251426" lon="12.3516512"><ele>361.0</ele><time>2026-04-09T13:33:12.992Z</time></trkpt><trkpt lat="43.1252123" lon="12.3517066"><ele>361.0</ele><time>2026-04-09T13:34:13.993Z</time></trkpt><trkpt lat="43.1251608" lon="12.3517724"><ele>361.0</ele><time>2026-04-09T13:34:50.993Z</time></trkpt><trkpt lat="43.125116" lon="12.3518473"><ele>361.0</ele><time>2026-04-09T13:44:01.993Z</time></trkpt><trkpt lat="43.1250342" lon="12.3518994"><ele>361.0</ele><time>2026-04-09T13:44:04.993Z</time></trkpt><trkpt lat="43.1249403" lon="12.3518955"><ele>361.0</ele><time>2026-04-09T13:44:06.993Z</time></trkpt><trkpt lat="43.1248987" lon="12.3517876"><ele>361.0</ele><time>2026-04-09T13:44:07.993Z</time></trkpt><trkpt lat="43.1248654" lon="12.3516415"><ele>361.0</ele><time>2026-04-09T13:44:09.993Z</time></trkpt><trkpt lat="43.1248472" lon="12.3515164"><ele>361.0</ele><time>2026-04-09T13:44:11.993Z</time></trkpt><trkpt lat="43.1248531" lon="12.3514087"><ele>359.66666666666663</ele><time>2026-04-09T13:44:13.993Z</time></trkpt><trkpt lat="43.1248609" lon="12.3512933"><ele>358.3333333333333</ele><time>2026-04-09T13:44:16.993Z</time></trkpt><trkpt lat="43.1248701" lon="12.3512035"><ele>357.0</ele><time>2026-04-09T13:44:50.994Z</time></trkpt><trkpt lat="43.1248932" lon="12.3511212"><ele>355.6666666666667</ele><time>2026-04-09T13:44:53.993Z</time></trkpt><trkpt lat="43.1249278" lon="12.3510437"><ele>354.33333333333337</ele><time>2026-04-09T13:44:55.993Z</time></trkpt><trkpt lat="43.1250146" lon="12.3509773"><ele>353.0</ele><time>2026-04-09T13:44:57.993Z</time></trkpt><trkpt lat="43.1251305" lon="12.350909"><ele>353.0</ele><time>2026-04-09T13:44:59.993Z</time></trkpt><trkpt lat="43.1251974" lon="12.3508888"><ele>353.0</ele><time>2026-04-09T13:45:00.993Z</time></trkpt><trkpt lat="43.1252923" lon="12.3508747"><ele>353.0</ele><time>2026-04-09T13:45:01.994Z</time></trkpt><trkpt lat="43.1253718" lon="12.3508607"><ele>353.0</ele><time>2026-04-09T13:45:02.993Z</time></trkpt><trkpt lat="43.1254692" lon="12.3508587"><ele>353.0</ele><time>2026-04-09T13:45:03.994Z</time></trkpt><trkpt lat="43.125552" lon="12.350847"><ele>353.0</ele><time>2026-04-09T13:45:04.993Z</time></trkpt><trkpt lat="43.1256323" lon="12.3508365"><ele>353.2</ele><time>2026-04-09T13:45:05.993Z</time></trkpt><trkpt lat="43.1257313" lon="12.3508234"><ele>353.4</ele><time>2026-04-09T13:45:06.994Z</time></trkpt><trkpt lat="43.1258355" lon="12.3508168"><ele>353.59999999999997</ele><time>2026-04-09T13:45:07.993Z</time></trkpt><trkpt lat="43.1259468" lon="12.3508259"><ele>353.79999999999995</ele><time>2026-04-09T13:45:08.993Z</time></trkpt><trkpt lat="43.1260446" lon="12.3508495"><ele>354.0</ele><time>2026-04-09T13:45:09.993Z</time></trkpt><trkpt lat="43.1261451" lon="12.3508818"><ele>354.0</ele><time>2026-04-09T13:45:10.993Z</time></trkpt><trkpt lat="43.126262" lon="12.3509166"><ele>354.0</ele><time>2026-04-09T13:45:11.993Z</time></trkpt><trkpt lat="43.1263838" lon="12.3509503"><ele>354.0</ele><time>2026-04-09T13:45:12.993Z</time></trkpt><trkpt lat="43.1264906" lon="12.3509882"><ele>354.0</ele><time>2026-04-09T13:45:13.993Z</time></trkpt><trkpt lat="43.1266087" lon="12.3510201"><ele>353.0</ele><time>2026-04-09T13:45:14.993Z</time></trkpt><trkpt lat="43.1267164" lon="12.3510487"><ele>352.0</ele><time>2026-04-09T13:45:15.993Z</time></trkpt><trkpt lat="43.1268172" lon="12.3510762"><ele>351.0</ele><time>2026-04-09T13:45:16.993Z</time></trkpt><trkpt lat="43.1268831" lon="12.3510732"><ele>350.0</ele><time>2026-04-09T13:45:17.994Z</time></trkpt><trkpt lat="43.1269774" lon="12.351067"><ele>349.0</ele><time>2026-04-09T13:45:19.994Z</time></trkpt><trkpt lat="43.1270396" lon="12.3510295"><ele>348.0</ele><time>2026-04-09T13:45:20.994Z</time></trkpt><trkpt lat="43.1270821" lon="12.3509383"><ele>348.0</ele><time>2026-04-09T13:45:21.993Z</time></trkpt><trkpt lat="43.1271287" lon="12.3508452"><ele>348.0</ele><time>2026-04-09T13:45:22.992Z</time></trkpt><trkpt lat="43.1271719" lon="12.350748"><ele>348.0</ele><time>2026-04-09T13:45:23.993Z</time></trkpt><trkpt lat="43.1272175" lon="12.3506417"><ele>348.0</ele><time>2026-04-09T13:45:24.993Z</time></trkpt><trkpt lat="43.1272658" lon="12.3505282"><ele>348.0</ele><time>2026-04-09T13:45:25.994Z</time></trkpt><trkpt lat="43.1273254" lon="12.3504056"><ele>347.6666666666667</ele><time>2026-04-09T13:45:26.994Z</time></trkpt><trkpt lat="43.1273807" lon="12.3502938"><ele>347.3333333333333</ele><time>2026-04-09T13:45:27.993Z</time></trkpt><trkpt lat="43.1274444" lon="12.3501856"><ele>347.0</ele><time>2026-04-09T13:45:28.993Z</time></trkpt><trkpt lat="43.1274814" lon="12.3500999"><ele>346.66666666666663</ele><time>2026-04-09T13:45:29.993Z</time></trkpt><trkpt lat="43.127516" lon="12.3500256"><ele>346.3333333333333</ele><time>2026-04-09T13:45:30.993Z</time></trkpt><trkpt lat="43.1275056" lon="12.3499076"><ele>346.0</ele><time>2026-04-09T13:45:32.993Z</time></trkpt><trkpt lat="43.1274129" lon="12.349824"><ele>346.0</ele><time>2026-04-09T13:45:34.993Z</time></trkpt><trkpt lat="43.1273469" lon="12.3497822"><ele>346.0</ele><time>2026-04-09T13:45:35.993Z</time></trkpt><trkpt lat="43.1272698" lon="12.3497178"><ele>346.0</ele><time>2026-04-09T13:45:36.992Z</time></trkpt><trkpt lat="43.1271748" lon="12.3496439"><ele>346.0</ele><time>2026-04-09T13:45:37.994Z</time></trkpt><trkpt lat="43.127084" lon="12.3495677"><ele>346.0</ele><time>2026-04-09T13:45:38.993Z</time></trkpt><trkpt lat="43.126993" lon="12.3494963"><ele>346.6</ele><time>2026-04-09T13:45:39.993Z</time></trkpt><trkpt lat="43.1269024" lon="12.3494214"><ele>347.20000000000005</ele><time>2026-04-09T13:45:40.993Z</time></trkpt><trkpt lat="43.1268009" lon="12.3493329"><ele>347.79999999999995</ele><time>2026-04-09T13:45:41.993Z</time></trkpt><trkpt lat="43.126708" lon="12.349254"><ele>348.4</ele><time>2026-04-09T13:45:42.993Z</time></trkpt><trkpt lat="43.1266144" lon="12.3491748"><ele>349.0</ele><time>2026-04-09T13:45:43.993Z</time></trkpt><trkpt lat="43.1265292" lon="12.3491056"><ele>347.3333333333333</ele><time>2026-04-09T13:45:44.992Z</time></trkpt><trkpt lat="43.1264456" lon="12.3490376"><ele>345.66666666666663</ele><time>2026-04-09T13:45:45.993Z</time></trkpt><trkpt lat="43.1263627" lon="12.3489655"><ele>344.0</ele><time>2026-04-09T13:45:46.994Z</time></trkpt><trkpt lat="43.1262932" lon="12.3488684"><ele>342.3333333333333</ele><time>2026-04-09T13:45:47.993Z</time></trkpt><trkpt lat="43.1262412" lon="12.3487797"><ele>340.6666666666667</ele><time>2026-04-09T13:45:48.993Z</time></trkpt><trkpt lat="43.1261965" lon="12.3487063"><ele>339.0</ele><time>2026-04-09T13:45:49.993Z</time></trkpt><trkpt lat="43.1260982" lon="12.3486795"><ele>339.0</ele><time>2026-04-09T13:45:51.993Z</time></trkpt><trkpt lat="43.1260409" lon="12.3487462"><ele>339.0</ele><time>2026-04-09T13:45:52.993Z</time></trkpt><trkpt lat="43.1259663" lon="12.3488122"><ele>339.0</ele><time>2026-04-09T13:45:53.993Z</time></trkpt><trkpt lat="43.1258705" lon="12.3488853"><ele>339.0</ele><time>2026-04-09T13:45:54.993Z</time></trkpt><trkpt lat="43.1257955" lon="12.3489682"><ele>339.0</ele><time>2026-04-09T13:45:55.993Z</time></trkpt><trkpt lat="43.1257135" lon="12.3490431"><ele>336.25</ele><time>2026-04-09T13:45:56.993Z</time></trkpt><trkpt lat="43.1256102" lon="12.3491646"><ele>333.5</ele><time>2026-04-09T13:45:57.994Z</time></trkpt><trkpt lat="43.1255155" lon="12.3492852"><ele>330.75</ele><time>2026-04-09T13:45:58.993Z</time></trkpt><trkpt lat="43.1254351" lon="12.349411"><ele>328.0</ele><time>2026-04-09T13:45:59.993Z</time></trkpt><trkpt lat="43.1253197" lon="12.3495104"><ele>328.0</ele><time>2026-04-09T13:46:00.993Z</time></trkpt><trkpt lat="43.1252202" lon="12.3495844"><ele>328.0</ele><time>2026-04-09T13:46:01.992Z</time></trkpt><trkpt lat="43.125114" lon="12.3496561"><ele>328.0</ele><time>2026-04-09T13:46:02.993Z</time></trkpt><trkpt lat="43.1249758" lon="12.349715"><ele>328.0</ele><time>2026-04-09T13:46:03.994Z</time></trkpt><trkpt lat="43.1248544" lon="12.3498029"><ele>327.75</ele><time>2026-04-09T13:46:04.993Z</time></trkpt><trkpt lat="43.1247362" lon="12.3498679"><ele>327.5</ele><time>2026-04-09T13:46:05.994Z</time></trkpt><trkpt lat="43.1246258" lon="12.3499684"><ele>327.25</ele><time>2026-04-09T13:46:06.994Z</time></trkpt><trkpt lat="43.1245122" lon="12.3500432"><ele>327.0</ele><time>2026-04-09T13:46:07.993Z</time></trkpt><trkpt lat="43.1244144" lon="12.3501189"><ele>327.0</ele><time>2026-04-09T13:46:08.993Z</time></trkpt><trkpt lat="43.1243178" lon="12.3501913"><ele>327.0</ele><time>2026-04-09T13:46:09.992Z</time></trkpt><trkpt lat="43.1242148" lon="12.3502769"><ele>327.0</ele><time>2026-04-09T13:46:10.993Z</time></trkpt><trkpt lat="43.1241133" lon="12.3503633"><ele>327.0</ele><time>2026-04-09T13:46:11.993Z</time></trkpt><trkpt lat="43.1240208" lon="12.3504309"><ele>326.20000000000005</ele><time>2026-04-09T13:46:12.993Z</time></trkpt><trkpt lat="43.1239269" lon="12.350513"><ele>325.4</ele><time>2026-04-09T13:46:13.993Z</time></trkpt><trkpt lat="43.123833" lon="12.3505832"><ele>324.6</ele><time>2026-04-09T13:46:14.993Z</time></trkpt><trkpt lat="43.1237569" lon="12.3506621"><ele>323.79999999999995</ele><time>2026-04-09T13:46:15.994Z</time></trkpt><trkpt lat="43.1236812" lon="12.3507491"><ele>323.0</ele><time>2026-04-09T13:46:16.994Z</time></trkpt><trkpt lat="43.1236361" lon="12.3508341"><ele>323.0</ele><time>2026-04-09T13:46:17.994Z</time></trkpt><trkpt lat="43.1235646" lon="12.3509299"><ele>323.0</ele><time>2026-04-09T13:46:18.993Z</time></trkpt><trkpt lat="43.1234626" lon="12.3510154"><ele>323.0</ele><time>2026-04-09T13:46:19.994Z</time></trkpt><trkpt lat="43.1233836" lon="12.3510885"><ele>323.0</ele><time>2026-04-09T13:46:20.993Z</time></trkpt><trkpt lat="43.1233181" lon="12.3511755"><ele>323.0</ele><time>2026-04-09T13:46:21.993Z</time></trkpt><trkpt lat="43.1232327" lon="12.3512811"><ele>321.79999999999995</ele><time>2026-04-09T13:46:22.994Z</time></trkpt><trkpt lat="43.1231561" lon="12.3513779"><ele>320.59999999999997</ele><time>2026-04-09T13:46:23.993Z</time></trkpt><trkpt lat="43.1230939" lon="12.3514567"><ele>319.4</ele><time>2026-04-09T13:46:24.994Z</time></trkpt><trkpt lat="43.1230168" lon="12.3515514"><ele>318.2</ele><time>2026-04-09T13:46:25.993Z</time></trkpt><trkpt lat="43.1229408" lon="12.3516483"><ele>317.0</ele><time>2026-04-09T13:46:26.993Z</time></trkpt><trkpt lat="43.122863" lon="12.3517491"><ele>317.0</ele><time>2026-04-09T13:46:27.994Z</time></trkpt><trkpt lat="43.1227854" lon="12.3518499"><ele>317.0</ele><time>2026-04-09T13:46:28.993Z</time></trkpt><trkpt lat="43.1227182" lon="12.3519551"><ele>317.0</ele><time>2026-04-09T13:46:29.993Z</time></trkpt><trkpt lat="43.1226483" lon="12.3520496"><ele>317.0</ele><time>2026-04-09T13:46:30.993Z</time></trkpt><trkpt lat="43.1225663" lon="12.352187"><ele>317.0</ele><time>2026-04-09T13:46:31.994Z</time></trkpt><trkpt lat="43.122514" lon="12.3523123"><ele>317.83333333333337</ele><time>2026-04-09T13:46:32.993Z</time></trkpt><trkpt lat="43.1224685" lon="12.3524048"><ele>318.6666666666667</ele><time>2026-04-09T13:46:33.993Z</time></trkpt><trkpt lat="43.1224217" lon="12.3525179"><ele>319.5</ele><time>2026-04-09T13:46:34.994Z</time></trkpt><trkpt lat="43.1223709" lon="12.3526268"><ele>320.3333333333333</ele><time>2026-04-09T13:46:35.993Z</time></trkpt><trkpt lat="43.1223302" lon="12.3526937"><ele>321.16666666666663</ele><time>2026-04-09T13:46:36.994Z</time></trkpt><trkpt lat="43.1222832" lon="12.3527749"><ele>322.0</ele><time>2026-04-09T13:46:37.993Z</time></trkpt><trkpt lat="43.1222444" lon="12.3528557"><ele>318.8</ele><time>2026-04-09T13:46:38.994Z</time></trkpt><trkpt lat="43.1222033" lon="12.3529307"><ele>315.6</ele><time>2026-04-09T13:46:39.994Z</time></trkpt><trkpt lat="43.1221147" lon="12.3530266"><ele>312.40000000000003</ele><time>2026-04-09T13:46:41.994Z</time></trkpt><trkpt lat="43.1220435" lon="12.3529784"><ele>309.20000000000005</ele><time>2026-04-09T13:46:43.994Z</time></trkpt><trkpt lat="43.1219298" lon="12.3529052"><ele>306.0</ele><time>2026-04-09T13:46:44.994Z</time></trkpt><trkpt lat="43.1218624" lon="12.3528796"><ele>306.0</ele><time>2026-04-09T13:46:45.994Z</time></trkpt><trkpt lat="43.1217898" lon="12.3528596"><ele>306.0</ele><time>2026-04-09T13:46:46.994Z</time></trkpt><trkpt lat="43.1217112" lon="12.3528353"><ele>306.0</ele><time>2026-04-09T13:46:47.994Z</time></trkpt><trkpt lat="43.1216408" lon="12.3528296"><ele>306.0</ele><time>2026-04-09T13:46:48.994Z</time></trkpt><trkpt lat="43.1215359" lon="12.3527728"><ele>306.0</ele><time>2026-04-09T13:46:49.993Z</time></trkpt><trkpt lat="43.1214458" lon="12.3527232"><ele>306.0</ele><time>2026-04-09T13:46:50.993Z</time></trkpt><trkpt lat="43.12136" lon="12.3526595"><ele>303.0</ele><time>2026-04-09T13:46:51.994Z</time></trkpt><trkpt lat="43.1212425" lon="12.3525823"><ele>300.0</ele><time>2026-04-09T13:46:52.993Z</time></trkpt><trkpt lat="43.1211247" lon="12.3525159"><ele>297.0</ele><time>2026-04-09T13:46:53.994Z</time></trkpt><trkpt lat="43.120991" lon="12.3524328"><ele>294.0</ele><time>2026-04-09T13:46:54.993Z</time></trkpt><trkpt lat="43.1208594" lon="12.3523461"><ele>294.0</ele><time>2026-04-09T13:46:55.993Z</time></trkpt><trkpt lat="43.1207346" lon="12.3522639"><ele>294.0</ele><time>2026-04-09T13:46:56.993Z</time></trkpt><trkpt lat="43.1206051" lon="12.3521766"><ele>294.0</ele><time>2026-04-09T13:46:57.993Z</time></trkpt><trkpt lat="43.1204749" lon="12.3520984"><ele>294.0</ele><time>2026-04-09T13:46:58.993Z</time></trkpt><trkpt lat="43.1203334" lon="12.3520136"><ele>293.25</ele><time>2026-04-09T13:46:59.993Z</time></trkpt><trkpt lat="43.1202047" lon="12.3519361"><ele>292.5</ele><time>2026-04-09T13:47:00.994Z</time></trkpt><trkpt lat="43.1200783" lon="12.3518589"><ele>291.75</ele><time>2026-04-09T13:47:01.993Z</time></trkpt><trkpt lat="43.1199615" lon="12.3518032"><ele>291.0</ele><time>2026-04-09T13:47:02.993Z</time></trkpt><trkpt lat="43.1198311" lon="12.3517759"><ele>290.25</ele><time>2026-04-09T13:47:03.992Z</time></trkpt><trkpt lat="43.1196982" lon="12.3517685"><ele>289.5</ele><time>2026-04-09T13:47:04.993Z</time></trkpt><trkpt lat="43.1195537" lon="12.3518255"><ele>288.75</ele><time>2026-04-09T13:47:05.994Z</time></trkpt><trkpt lat="43.1194011" lon="12.3518939"><ele>288.0</ele><time>2026-04-09T13:47:06.993Z</time></trkpt><trkpt lat="43.1192484" lon="12.3519679"><ele>288.0</ele><time>2026-04-09T13:47:07.993Z</time></trkpt><trkpt lat="43.11909" lon="12.3520373"><ele>288.0</ele><time>2026-04-09T13:47:08.993Z</time></trkpt><trkpt lat="43.1189283" lon="12.3521128"><ele>288.0</ele><time>2026-04-09T13:47:09.993Z</time></trkpt><trkpt lat="43.1187652" lon="12.3521862"><ele>287.3333333333333</ele><time>2026-04-09T13:47:10.993Z</time></trkpt><trkpt lat="43.1186008" lon="12.3522625"><ele>286.66666666666663</ele><time>2026-04-09T13:47:11.993Z</time></trkpt><trkpt lat="43.1184457" lon="12.3523396"><ele>286.0</ele><time>2026-04-09T13:47:12.993Z</time></trkpt><trkpt lat="43.1182908" lon="12.3524125"><ele>284.3333333333333</ele><time>2026-04-09T13:47:13.993Z</time></trkpt><trkpt lat="43.1181348" lon="12.3524807"><ele>282.6666666666667</ele><time>2026-04-09T13:47:14.993Z</time></trkpt><trkpt lat="43.1179861" lon="12.3525512"><ele>281.0</ele><time>2026-04-09T13:47:15.993Z</time></trkpt><trkpt lat="43.1178358" lon="12.3526234"><ele>281.0</ele><time>2026-04-09T13:47:16.994Z</time></trkpt><trkpt lat="43.1176782" lon="12.3526903"><ele>281.0</ele><time>2026-04-09T13:47:17.993Z</time></trkpt><trkpt lat="43.1175256" lon="12.3527576"><ele>281.0</ele><time>2026-04-09T13:47:18.993Z</time></trkpt><trkpt lat="43.1173766" lon="12.3528284"><ele>281.25</ele><time>2026-04-09T13:47:19.993Z</time></trkpt><trkpt lat="43.1172578" lon="12.3528834"><ele>281.5</ele><time>2026-04-09T13:47:20.994Z</time></trkpt><trkpt lat="43.1171355" lon="12.3529383"><ele>281.75</ele><time>2026-04-09T13:47:21.992Z</time></trkpt><trkpt lat="43.1170298" lon="12.352993"><ele>282.0</ele><time>2026-04-09T13:47:22.994Z</time></trkpt><trkpt lat="43.116948" lon="12.3530303"><ele>282.4</ele><time>2026-04-09T13:47:23.993Z</time></trkpt><trkpt lat="43.1168603" lon="12.353067"><ele>282.79999999999995</ele><time>2026-04-09T13:47:24.993Z</time></trkpt><trkpt lat="43.1167753" lon="12.3530917"><ele>283.2</ele><time>2026-04-09T13:47:25.993Z</time></trkpt><trkpt lat="43.1166982" lon="12.3531206"><ele>283.59999999999997</ele><time>2026-04-09T13:47:26.994Z</time></trkpt><trkpt lat="43.1166175" lon="12.3531978"><ele>284.0</ele><time>2026-04-09T13:47:27.993Z</time></trkpt><trkpt lat="43.1165473" lon="12.3532948"><ele>284.0</ele><time>2026-04-09T13:47:28.994Z</time></trkpt><trkpt lat="43.1164656" lon="12.3533925"><ele>284.0</ele><time>2026-04-09T13:47:29.993Z</time></trkpt><trkpt lat="43.1163777" lon="12.3535023"><ele>284.0</ele><time>2026-04-09T13:47:30.993Z</time></trkpt><trkpt lat="43.1162413" lon="12.3536043"><ele>284.0</ele><time>2026-04-09T13:47:31.994Z</time></trkpt><trkpt lat="43.1161026" lon="12.3537085"><ele>284.0</ele><time>2026-04-09T13:47:32.993Z</time></trkpt><trkpt lat="43.1159526" lon="12.3538068"><ele>284.0</ele><time>2026-04-09T13:47:33.993Z</time></trkpt><trkpt lat="43.1158099" lon="12.3539073"><ele>284.0</ele><time>2026-04-09T13:47:34.993Z</time></trkpt><trkpt lat="43.1156598" lon="12.3540337"><ele>282.6666666666667</ele><time>2026-04-09T13:47:35.993Z</time></trkpt><trkpt lat="43.1155169" lon="12.3541493"><ele>281.3333333333333</ele><time>2026-04-09T13:47:36.993Z</time></trkpt><trkpt lat="43.1153719" lon="12.3542663"><ele>280.0</ele><time>2026-04-09T13:47:37.993Z</time></trkpt><trkpt lat="43.1152313" lon="12.3544102"><ele>280.0</ele><time>2026-04-09T13:47:38.994Z</time></trkpt><trkpt lat="43.1150999" lon="12.35456"><ele>280.0</ele><time>2026-04-09T13:47:39.993Z</time></trkpt><trkpt lat="43.1149779" lon="12.3547096"><ele>280.0</ele><time>2026-04-09T13:47:40.993Z</time></trkpt><trkpt lat="43.114849" lon="12.3548744"><ele>279.3333333333333</ele><time>2026-04-09T13:47:41.993Z</time></trkpt><trkpt lat="43.1147393" lon="12.3550551"><ele>278.6666666666667</ele><time>2026-04-09T13:47:42.994Z</time></trkpt><trkpt lat="43.1146502" lon="12.3552634"><ele>278.0</ele><time>2026-04-09T13:47:43.994Z</time></trkpt><trkpt lat="43.1145747" lon="12.3554795"><ele>278.33333333333337</ele><time>2026-04-09T13:47:44.992Z</time></trkpt><trkpt lat="43.1145031" lon="12.3556981"><ele>278.6666666666667</ele><time>2026-04-09T13:47:45.993Z</time></trkpt><trkpt lat="43.1144363" lon="12.355914"><ele>279.0</ele><time>2026-04-09T13:47:46.993Z</time></trkpt><trkpt lat="43.1143741" lon="12.3561236"><ele>279.0</ele><time>2026-04-09T13:47:47.993Z</time></trkpt><trkpt lat="43.114301" lon="12.356334"><ele>279.0</ele><time>2026-04-09T13:47:48.993Z</time></trkpt><trkpt lat="43.114241" lon="12.3565548"><ele>279.0</ele><time>2026-04-09T13:47:49.992Z</time></trkpt><trkpt lat="43.1141686" lon="12.356796"><ele>279.0</ele><time>2026-04-09T13:47:50.992Z</time></trkpt><trkpt lat="43.1140877" lon="12.3570279"><ele>279.0</ele><time>2026-04-09T13:47:51.993Z</time></trkpt><trkpt lat="43.1140108" lon="12.3572745"><ele>279.0</ele><time>2026-04-09T13:47:52.992Z</time></trkpt><trkpt lat="43.1139281" lon="12.3575369"><ele>278.6666666666667</ele><time>2026-04-09T13:47:53.993Z</time></trkpt><trkpt lat="43.1138455" lon="12.3578036"><ele>278.33333333333337</ele><time>2026-04-09T13:47:54.993Z</time></trkpt><trkpt lat="43.1137654" lon="12.3580666"><ele>278.0</ele><time>2026-04-09T13:47:55.993Z</time></trkpt><trkpt lat="43.113691" lon="12.3583325"><ele>279.0</ele><time>2026-04-09T13:47:56.993Z</time></trkpt><trkpt lat="43.1136221" lon="12.3585916"><ele>280.0</ele><time>2026-04-09T13:47:57.993Z</time></trkpt><trkpt lat="43.113555" lon="12.3588309"><ele>281.0</ele><time>2026-04-09T13:47:58.993Z</time></trkpt><trkpt lat="43.1134962" lon="12.3590574"><ele>281.0</ele><time>2026-04-09T13:47:59.993Z</time></trkpt><trkpt lat="43.1134461" lon="12.3592899"><ele>281.0</ele><time>2026-04-09T13:48:00.992Z</time></trkpt><trkpt lat="43.1134028" lon="12.3595136"><ele>281.0</ele><time>2026-04-09T13:48:01.993Z</time></trkpt><trkpt lat="43.1133596" lon="12.3597529"><ele>281.6666666666667</ele><time>2026-04-09T13:48:02.993Z</time></trkpt><trkpt lat="43.1133188" lon="12.3599813"><ele>282.3333333333333</ele><time>2026-04-09T13:48:03.993Z</time></trkpt><trkpt lat="43.1132748" lon="12.3602102"><ele>283.0</ele><time>2026-04-09T13:48:04.993Z</time></trkpt><trkpt lat="43.1132339" lon="12.3604294"><ele>281.66666666666663</ele><time>2026-04-09T13:48:05.994Z</time></trkpt><trkpt lat="43.1131979" lon="12.3606368"><ele>280.3333333333333</ele><time>2026-04-09T13:48:06.993Z</time></trkpt><trkpt lat="43.1131603" lon="12.3608396"><ele>279.0</ele><time>2026-04-09T13:48:07.993Z</time></trkpt><trkpt lat="43.1131208" lon="12.3610265"><ele>279.0</ele><time>2026-04-09T13:48:08.994Z</time></trkpt><trkpt lat="43.1130884" lon="12.3612068"><ele>279.0</ele><time>2026-04-09T13:48:09.993Z</time></trkpt><trkpt lat="43.1130479" lon="12.3613679"><ele>279.0</ele><time>2026-04-09T13:48:10.993Z</time></trkpt><trkpt lat="43.1130055" lon="12.3615029"><ele>279.0</ele><time>2026-04-09T13:48:11.992Z</time></trkpt><trkpt lat="43.1129433" lon="12.3616045"><ele>279.2</ele><time>2026-04-09T13:48:12.994Z</time></trkpt><trkpt lat="43.1128613" lon="12.3616544"><ele>279.4</ele><time>2026-04-09T13:48:13.993Z</time></trkpt><trkpt lat="43.1127705" lon="12.3616535"><ele>279.6</ele><time>2026-04-09T13:48:14.993Z</time></trkpt><trkpt lat="43.1126666" lon="12.3615958"><ele>279.8</ele><time>2026-04-09T13:48:15.993Z</time></trkpt><trkpt lat="43.1125851" lon="12.3615298"><ele>280.0</ele><time>2026-04-09T13:48:16.994Z</time></trkpt><trkpt lat="43.1125014" lon="12.361438"><ele>279.8</ele><time>2026-04-09T13:48:17.994Z</time></trkpt><trkpt lat="43.1124223" lon="12.361337"><ele>279.6</ele><time>2026-04-09T13:48:18.993Z</time></trkpt><trkpt lat="43.1123476" lon="12.3612272"><ele>279.4</ele><time>2026-04-09T13:48:19.993Z</time></trkpt><trkpt lat="43.1122782" lon="12.361117"><ele>279.2</ele><time>2026-04-09T13:48:20.993Z</time></trkpt><trkpt lat="43.1122004" lon="12.3610169"><ele>279.0</ele><time>2026-04-09T13:48:21.993Z</time></trkpt><trkpt lat="43.1121208" lon="12.3609229"><ele>278.8</ele><time>2026-04-09T13:48:22.993Z</time></trkpt><trkpt lat="43.1120399" lon="12.3608334"><ele>278.59999999999997</ele><time>2026-04-09T13:48:23.993Z</time></trkpt><trkpt lat="43.1119609" lon="12.3607476"><ele>278.4</ele><time>2026-04-09T13:48:24.993Z</time></trkpt><trkpt lat="43.1118932" lon="12.3606635"><ele>278.2</ele><time>2026-04-09T13:48:25.993Z</time></trkpt><trkpt lat="43.1118226" lon="12.3605785"><ele>278.0</ele><time>2026-04-09T13:48:26.993Z</time></trkpt><trkpt lat="43.1117528" lon="12.360495"><ele>278.0</ele><time>2026-04-09T13:48:27.993Z</time></trkpt><trkpt lat="43.1116771" lon="12.3604241"><ele>278.0</ele><time>2026-04-09T13:48:28.994Z</time></trkpt><trkpt lat="43.1116054" lon="12.3603698"><ele>278.0</ele><time>2026-04-09T13:48:29.993Z</time></trkpt><trkpt lat="43.111545" lon="12.3603435"><ele>278.0</ele><time>2026-04-09T13:48:30.993Z</time></trkpt><trkpt lat="43.1114554" lon="12.3602999"><ele>278.0</ele><time>2026-04-09T13:48:32.992Z</time></trkpt><trkpt lat="43.1113796" lon="12.3602382"><ele>278.0</ele><time>2026-04-09T13:48:34.993Z</time></trkpt><trkpt lat="43.1112882" lon="12.3601426"><ele>277.33333333333337</ele><time>2026-04-09T13:48:36.993Z</time></trkpt><trkpt lat="43.1112219" lon="12.3601017"><ele>276.6666666666667</ele><time>2026-04-09T13:48:37.993Z</time></trkpt><trkpt lat="43.1111447" lon="12.3600774"><ele>276.0</ele><time>2026-04-09T13:48:38.993Z</time></trkpt><trkpt lat="43.1110547" lon="12.3600693"><ele>275.3333333333333</ele><time>2026-04-09T13:48:39.993Z</time></trkpt><trkpt lat="43.1109676" lon="12.3600553"><ele>274.66666666666663</ele><time>2026-04-09T13:48:40.993Z</time></trkpt><trkpt lat="43.1108754" lon="12.3600121"><ele>274.0</ele><time>2026-04-09T13:48:41.994Z</time></trkpt><trkpt lat="43.1107848" lon="12.3599388"><ele>274.0</ele><time>2026-04-09T13:48:42.993Z</time></trkpt><trkpt lat="43.1106768" lon="12.3598213"><ele>274.0</ele><time>2026-04-09T13:48:43.993Z</time></trkpt><trkpt lat="43.1105456" lon="12.3597012"><ele>274.0</ele><time>2026-04-09T13:48:44.994Z</time></trkpt><trkpt lat="43.1104009" lon="12.3595726"><ele>274.0</ele><time>2026-04-09T13:48:45.993Z</time></trkpt><trkpt lat="43.1102465" lon="12.3594279"><ele>274.0</ele><time>2026-04-09T13:48:46.993Z</time></trkpt><trkpt lat="43.1101062" lon="12.3592787"><ele>274.0</ele><time>2026-04-09T13:48:47.993Z</time></trkpt><trkpt lat="43.1099858" lon="12.3591387"><ele>273.75</ele><time>2026-04-09T13:48:48.993Z</time></trkpt><trkpt lat="43.1098748" lon="12.3590027"><ele>273.5</ele><time>2026-04-09T13:48:49.994Z</time></trkpt><trkpt lat="43.1097808" lon="12.3588919"><ele>273.25</ele><time>2026-04-09T13:48:50.993Z</time></trkpt><trkpt lat="43.1096933" lon="12.3587708"><ele>273.0</ele><time>2026-04-09T13:48:51.993Z</time></trkpt><trkpt lat="43.1096142" lon="12.358664"><ele>273.0</ele><time>2026-04-09T13:48:52.993Z</time></trkpt><trkpt lat="43.1095418" lon="12.3585459"><ele>273.0</ele><time>2026-04-09T13:48:53.992Z</time></trkpt><trkpt lat="43.1094709" lon="12.3584343"><ele>273.0</ele><time>2026-04-09T13:48:54.993Z</time></trkpt><trkpt lat="43.1093993" lon="12.3583306"><ele>273.0</ele><time>2026-04-09T13:48:55.993Z</time></trkpt><trkpt lat="43.1093492" lon="12.3582314"><ele>273.0</ele><time>2026-04-09T13:48:56.993Z</time></trkpt><trkpt lat="43.1093146" lon="12.3581312"><ele>272.5</ele><time>2026-04-09T13:48:57.993Z</time></trkpt><trkpt lat="43.1093009" lon="12.3580248"><ele>272.0</ele><time>2026-04-09T13:48:58.993Z</time></trkpt><trkpt lat="43.1093013" lon="12.3579066"><ele>271.5</ele><time>2026-04-09T13:48:59.992Z</time></trkpt><trkpt lat="43.1092866" lon="12.3578213"><ele>271.0</ele><time>2026-04-09T13:49:00.993Z</time></trkpt><trkpt lat="43.1092511" lon="12.3577401"><ele>270.5</ele><time>2026-04-09T13:49:01.993Z</time></trkpt><trkpt lat="43.1091915" lon="12.3576857"><ele>270.0</ele><time>2026-04-09T13:49:02.993Z</time></trkpt><trkpt lat="43.109066" lon="12.3576803"><ele>269.6666666666667</ele><time>2026-04-09T13:49:04.993Z</time></trkpt><trkpt lat="43.1090031" lon="12.357715"><ele>269.3333333333333</ele><time>2026-04-09T13:49:05.993Z</time></trkpt><trkpt lat="43.1089364" lon="12.3577694"><ele>269.0</ele><time>2026-04-09T13:49:06.993Z</time></trkpt><trkpt lat="43.1088514" lon="12.3578159"><ele>268.66666666666663</ele><time>2026-04-09T13:49:07.993Z</time></trkpt><trkpt lat="43.1087643" lon="12.3578405"><ele>268.3333333333333</ele><time>2026-04-09T13:49:08.993Z</time></trkpt><trkpt lat="43.1086742" lon="12.3578612"><ele>268.0</ele><time>2026-04-09T13:49:09.993Z</time></trkpt><trkpt lat="43.1085783" lon="12.3578827"><ele>268.0</ele><time>2026-04-09T13:49:10.993Z</time></trkpt><trkpt lat="43.1084716" lon="12.3579104"><ele>268.0</ele><time>2026-04-09T13:49:11.993Z</time></trkpt><trkpt lat="43.1083609" lon="12.3579513"><ele>268.0</ele><time>2026-04-09T13:49:12.993Z</time></trkpt><trkpt lat="43.1082423" lon="12.3580063"><ele>268.0</ele><time>2026-04-09T13:49:13.993Z</time></trkpt><trkpt lat="43.1081349" lon="12.3580833"><ele>268.0</ele><time>2026-04-09T13:49:14.993Z</time></trkpt><trkpt lat="43.1080191" lon="12.3581517"><ele>268.0</ele><time>2026-04-09T13:49:15.993Z</time></trkpt><trkpt lat="43.1079022" lon="12.3582152"><ele>268.0</ele><time>2026-04-09T13:49:16.993Z</time></trkpt><trkpt lat="43.1077848" lon="12.3582934"><ele>268.0</ele><time>2026-04-09T13:49:17.993Z</time></trkpt><trkpt lat="43.1076628" lon="12.3583689"><ele>268.0</ele><time>2026-04-09T13:49:18.993Z</time></trkpt><trkpt lat="43.1075326" lon="12.3584521"><ele>268.0</ele><time>2026-04-09T13:49:19.993Z</time></trkpt><trkpt lat="43.1073971" lon="12.3585369"><ele>268.0</ele><time>2026-04-09T13:49:20.993Z</time></trkpt><trkpt lat="43.1072476" lon="12.358628"><ele>268.0</ele><time>2026-04-09T13:49:21.993Z</time></trkpt><trkpt lat="43.1070817" lon="12.3587232"><ele>268.0</ele><time>2026-04-09T13:49:22.993Z</time></trkpt><trkpt lat="43.1069206" lon="12.3588154"><ele>268.0</ele><time>2026-04-09T13:49:23.993Z</time></trkpt><trkpt lat="43.106761" lon="12.3589104"><ele>267.3333333333333</ele><time>2026-04-09T13:49:24.993Z</time></trkpt><trkpt lat="43.1066007" lon="12.3589947"><ele>266.6666666666667</ele><time>2026-04-09T13:49:25.993Z</time></trkpt><trkpt lat="43.1064347" lon="12.3590727"><ele>266.0</ele><time>2026-04-09T13:49:26.993Z</time></trkpt><trkpt lat="43.1062602" lon="12.3591535"><ele>266.0</ele><time>2026-04-09T13:49:27.993Z</time></trkpt><trkpt lat="43.1060723" lon="12.3592383"><ele>266.0</ele><time>2026-04-09T13:49:28.993Z</time></trkpt><trkpt lat="43.1058796" lon="12.3593279"><ele>266.0</ele><time>2026-04-09T13:49:29.993Z</time></trkpt><trkpt lat="43.1056947" lon="12.3594162"><ele>266.0</ele><time>2026-04-09T13:49:30.993Z</time></trkpt><trkpt lat="43.1055087" lon="12.359491"><ele>266.0</ele><time>2026-04-09T13:49:31.993Z</time></trkpt><trkpt lat="43.1053228" lon="12.3595702"><ele>266.0</ele><time>2026-04-09T13:49:32.993Z</time></trkpt><trkpt lat="43.1051421" lon="12.35965"><ele>266.33333333333337</ele><time>2026-04-09T13:49:33.993Z</time></trkpt><trkpt lat="43.1049754" lon="12.3597244"><ele>266.6666666666667</ele><time>2026-04-09T13:49:34.993Z</time></trkpt><trkpt lat="43.1048096" lon="12.359777"><ele>267.0</ele><time>2026-04-09T13:49:35.993Z</time></trkpt><trkpt lat="43.104645" lon="12.3598246"><ele>267.0</ele><time>2026-04-09T13:49:36.993Z</time></trkpt><trkpt lat="43.1044719" lon="12.3598499"><ele>267.0</ele><time>2026-04-09T13:49:37.994Z</time></trkpt><trkpt lat="43.1043027" lon="12.3598647"><ele>267.0</ele><time>2026-04-09T13:49:38.993Z</time></trkpt><trkpt lat="43.1041279" lon="12.3598657"><ele>266.3333333333333</ele><time>2026-04-09T13:49:39.993Z</time></trkpt><trkpt lat="43.1039521" lon="12.3598413"><ele>265.66666666666663</ele><time>2026-04-09T13:49:40.993Z</time></trkpt><trkpt lat="43.1037883" lon="12.3597944"><ele>265.0</ele><time>2026-04-09T13:49:41.993Z</time></trkpt><trkpt lat="43.1036098" lon="12.3597333"><ele>265.3333333333333</ele><time>2026-04-09T13:49:42.993Z</time></trkpt><trkpt lat="43.1034468" lon="12.3596432"><ele>265.6666666666667</ele><time>2026-04-09T13:49:43.993Z</time></trkpt><trkpt lat="43.1032962" lon="12.3595485"><ele>266.0</ele><time>2026-04-09T13:49:44.993Z</time></trkpt><trkpt lat="43.1031521" lon="12.3594674"><ele>266.0</ele><time>2026-04-09T13:49:45.993Z</time></trkpt><trkpt lat="43.1030142" lon="12.3593474"><ele>266.0</ele><time>2026-04-09T13:49:46.992Z</time></trkpt><trkpt lat="43.1028819" lon="12.3592613"><ele>266.0</ele><time>2026-04-09T13:49:47.993Z</time></trkpt><trkpt lat="43.1027611" lon="12.3591764"><ele>266.0</ele><time>2026-04-09T13:49:48.992Z</time></trkpt><trkpt lat="43.1026471" lon="12.3590804"><ele>266.0</ele><time>2026-04-09T13:49:49.994Z</time></trkpt><trkpt lat="43.1025374" lon="12.3590023"><ele>266.0</ele><time>2026-04-09T13:49:50.993Z</time></trkpt><trkpt lat="43.1024281" lon="12.3589274"><ele>266.0</ele><time>2026-04-09T13:49:51.993Z</time></trkpt><trkpt lat="43.1023269" lon="12.3588545"><ele>266.0</ele><time>2026-04-09T13:49:52.993Z</time></trkpt><trkpt lat="43.1022381" lon="12.3587701"><ele>266.0</ele><time>2026-04-09T13:49:53.993Z</time></trkpt><trkpt lat="43.1021428" lon="12.3586938"><ele>266.0</ele><time>2026-04-09T13:49:54.993Z</time></trkpt><trkpt lat="43.1020533" lon="12.3586208"><ele>266.0</ele><time>2026-04-09T13:49:55.993Z</time></trkpt><trkpt lat="43.1019643" lon="12.3585545"><ele>266.0</ele><time>2026-04-09T13:49:56.993Z</time></trkpt><trkpt lat="43.1018687" lon="12.3584847"><ele>266.0</ele><time>2026-04-09T13:49:57.993Z</time></trkpt><trkpt lat="43.1017865" lon="12.3584131"><ele>266.0</ele><time>2026-04-09T13:49:58.993Z</time></trkpt><trkpt lat="43.1016906" lon="12.3583407"><ele>266.0</ele><time>2026-04-09T13:49:59.993Z</time></trkpt><trkpt lat="43.1016029" lon="12.3582774"><ele>266.0</ele><time>2026-04-09T13:50:00.993Z</time></trkpt><trkpt lat="43.1015101" lon="12.3581964"><ele>266.0</ele><time>2026-04-09T13:50:01.993Z</time></trkpt><trkpt lat="43.101419" lon="12.3581057"><ele>266.0</ele><time>2026-04-09T13:50:02.994Z</time></trkpt><trkpt lat="43.1013358" lon="12.3580102"><ele>265.8</ele><time>2026-04-09T13:50:03.993Z</time></trkpt><trkpt lat="43.101253" lon="12.3579232"><ele>265.6</ele><time>2026-04-09T13:50:04.993Z</time></trkpt><trkpt lat="43.1011707" lon="12.3578466"><ele>265.4</ele><time>2026-04-09T13:50:05.993Z</time></trkpt><trkpt lat="43.1010879" lon="12.3577763"><ele>265.2</ele><time>2026-04-09T13:50:06.993Z</time></trkpt><trkpt lat="43.1010254" lon="12.3577213"><ele>265.0</ele><time>2026-04-09T13:50:07.993Z</time></trkpt><trkpt lat="43.1009613" lon="12.3576662"><ele>265.0</ele><time>2026-04-09T13:50:08.993Z</time></trkpt><trkpt lat="43.1009118" lon="12.3575893"><ele>265.0</ele><time>2026-04-09T13:50:09.993Z</time></trkpt><trkpt lat="43.1008676" lon="12.3575162"><ele>265.0</ele><time>2026-04-09T13:50:10.993Z</time></trkpt><trkpt lat="43.1007763" lon="12.3574058"><ele>265.0</ele><time>2026-04-09T13:50:12.993Z</time></trkpt><trkpt lat="43.1006544" lon="12.3573414"><ele>265.0</ele><time>2026-04-09T13:50:14.993Z</time></trkpt><trkpt lat="43.1005854" lon="12.3573067"><ele>264.2</ele><time>2026-04-09T13:50:15.993Z</time></trkpt><trkpt lat="43.1005097" lon="12.3572513"><ele>263.4</ele><time>2026-04-09T13:50:16.993Z</time></trkpt><trkpt lat="43.100429" lon="12.3571996"><ele>262.6</ele><time>2026-04-09T13:50:17.993Z</time></trkpt><trkpt lat="43.100336" lon="12.3571409"><ele>261.8</ele><time>2026-04-09T13:50:18.992Z</time></trkpt><trkpt lat="43.1002259" lon="12.3570863"><ele>261.0</ele><time>2026-04-09T13:50:19.993Z</time></trkpt><trkpt lat="43.1001302" lon="12.3570407"><ele>261.0</ele><time>2026-04-09T13:50:20.993Z</time></trkpt><trkpt lat="43.1000459" lon="12.3569957"><ele>261.0</ele><time>2026-04-09T13:50:21.993Z</time></trkpt><trkpt lat="43.099978" lon="12.3569654"><ele>261.0</ele><time>2026-04-09T13:50:22.993Z</time></trkpt><trkpt lat="43.0999083" lon="12.3569402"><ele>261.0</ele><time>2026-04-09T13:50:23.993Z</time></trkpt><trkpt lat="43.0998296" lon="12.3569017"><ele>261.0</ele><time>2026-04-09T13:50:24.993Z</time></trkpt><trkpt lat="43.099741" lon="12.3568546"><ele>261.0</ele><time>2026-04-09T13:50:25.993Z</time></trkpt><trkpt lat="43.099653" lon="12.3568034"><ele>261.0</ele><time>2026-04-09T13:50:26.993Z</time></trkpt><trkpt lat="43.0995571" lon="12.3567576"><ele>261.0</ele><time>2026-04-09T13:50:27.993Z</time></trkpt><trkpt lat="43.0994635" lon="12.3567083"><ele>261.0</ele><time>2026-04-09T13:50:28.992Z</time></trkpt><trkpt lat="43.0993689" lon="12.3566646"><ele>261.0</ele><time>2026-04-09T13:50:29.993Z</time></trkpt><trkpt lat="43.099286" lon="12.3566339"><ele>261.0</ele><time>2026-04-09T13:50:30.993Z</time></trkpt><trkpt lat="43.099203" lon="12.3566064"><ele>261.0</ele><time>2026-04-09T13:50:31.993Z</time></trkpt><trkpt lat="43.0991239" lon="12.3565728"><ele>261.0</ele><time>2026-04-09T13:50:32.993Z</time></trkpt><trkpt lat="43.0990476" lon="12.3565474"><ele>261.0</ele><time>2026-04-09T13:50:33.993Z</time></trkpt><trkpt lat="43.0989668" lon="12.3565232"><ele>261.0</ele><time>2026-04-09T13:50:34.993Z</time></trkpt><trkpt lat="43.0988876" lon="12.3565006"><ele>261.0</ele><time>2026-04-09T13:50:35.992Z</time></trkpt><trkpt lat="43.0988018" lon="12.3564892"><ele>261.0</ele><time>2026-04-09T13:50:36.993Z</time></trkpt><trkpt lat="43.0987264" lon="12.3564772"><ele>261.0</ele><time>2026-04-09T13:50:37.993Z</time></trkpt><trkpt lat="43.0986486" lon="12.3564494"><ele>261.0</ele><time>2026-04-09T13:50:38.993Z</time></trkpt><trkpt lat="43.098572" lon="12.3564407"><ele>261.0</ele><time>2026-04-09T13:50:39.993Z</time></trkpt><trkpt lat="43.098452" lon="12.35643"><ele>261.0</ele><time>2026-04-09T13:50:41.993Z</time></trkpt><trkpt lat="43.0983378" lon="12.3563864"><ele>261.0</ele><time>2026-04-09T13:50:43.993Z</time></trkpt><trkpt lat="43.0982813" lon="12.3563387"><ele>261.0</ele><time>2026-04-09T13:50:44.993Z</time></trkpt><trkpt lat="43.0981857" lon="12.3562301"><ele>261.0</ele><time>2026-04-09T13:50:46.993Z</time></trkpt><trkpt lat="43.0980761" lon="12.3561564"><ele>261.0</ele><time>2026-04-09T13:50:48.993Z</time></trkpt><trkpt lat="43.0980025" lon="12.3561478"><ele>261.0</ele><time>2026-04-09T13:50:49.993Z</time></trkpt><trkpt lat="43.0979221" lon="12.3561733"><ele>261.0</ele><time>2026-04-09T13:50:50.993Z</time></trkpt><trkpt lat="43.0978409" lon="12.3562304"><ele>261.0</ele><time>2026-04-09T13:50:51.992Z</time></trkpt><trkpt lat="43.0977599" lon="12.3562928"><ele>261.0</ele><time>2026-04-09T13:50:52.993Z</time></trkpt><trkpt lat="43.0976797" lon="12.35637"><ele>261.0</ele><time>2026-04-09T13:50:53.993Z</time></trkpt><trkpt lat="43.0975933" lon="12.3564294"><ele>261.0</ele><time>2026-04-09T13:50:54.993Z</time></trkpt><trkpt lat="43.0975071" lon="12.3564733"><ele>261.0</ele><time>2026-04-09T13:50:55.993Z</time></trkpt><trkpt lat="43.0974155" lon="12.3565001"><ele>261.5</ele><time>2026-04-09T13:50:56.993Z</time></trkpt><trkpt lat="43.097322" lon="12.3565199"><ele>262.0</ele><time>2026-04-09T13:50:57.993Z</time></trkpt><trkpt lat="43.0972059" lon="12.3565343"><ele>262.5</ele><time>2026-04-09T13:50:58.994Z</time></trkpt><trkpt lat="43.0970849" lon="12.3565536"><ele>263.0</ele><time>2026-04-09T13:50:59.992Z</time></trkpt><trkpt lat="43.0969436" lon="12.3565717"><ele>263.0</ele><time>2026-04-09T13:51:00.993Z</time></trkpt><trkpt lat="43.0967858" lon="12.3565838"><ele>263.0</ele><time>2026-04-09T13:51:01.993Z</time></trkpt><trkpt lat="43.0966166" lon="12.3565778"><ele>263.0</ele><time>2026-04-09T13:51:02.992Z</time></trkpt><trkpt lat="43.0964487" lon="12.3565612"><ele>262.5</ele><time>2026-04-09T13:51:03.993Z</time></trkpt><trkpt lat="43.0963028" lon="12.3565537"><ele>262.0</ele><time>2026-04-09T13:51:04.993Z</time></trkpt><trkpt lat="43.096174" lon="12.3565472"><ele>261.5</ele><time>2026-04-09T13:51:05.993Z</time></trkpt><trkpt lat="43.096048" lon="12.3565514"><ele>261.0</ele><time>2026-04-09T13:51:06.993Z</time></trkpt><trkpt lat="43.0959312" lon="12.3565636"><ele>261.0</ele><time>2026-04-09T13:51:07.993Z</time></trkpt><trkpt lat="43.0958121" lon="12.3565673"><ele>261.0</ele><time>2026-04-09T13:51:08.992Z</time></trkpt><trkpt lat="43.0956952" lon="12.3565711"><ele>261.0</ele><time>2026-04-09T13:51:09.993Z</time></trkpt><trkpt lat="43.0955753" lon="12.3565705"><ele>261.0</ele><time>2026-04-09T13:51:10.993Z</time></trkpt><trkpt lat="43.0954616" lon="12.3565815"><ele>260.5</ele><time>2026-04-09T13:51:11.993Z</time></trkpt><trkpt lat="43.0953417" lon="12.3565912"><ele>260.0</ele><time>2026-04-09T13:51:12.993Z</time></trkpt><trkpt lat="43.095222" lon="12.3566008"><ele>259.5</ele><time>2026-04-09T13:51:13.992Z</time></trkpt><trkpt lat="43.0951163" lon="12.3566204"><ele>259.0</ele><time>2026-04-09T13:51:14.993Z</time></trkpt><trkpt lat="43.0949909" lon="12.3566121"><ele>258.4</ele><time>2026-04-09T13:51:15.992Z</time></trkpt><trkpt lat="43.0948812" lon="12.3566195"><ele>257.79999999999995</ele><time>2026-04-09T13:51:16.993Z</time></trkpt><trkpt lat="43.0947748" lon="12.356616"><ele>257.20000000000005</ele><time>2026-04-09T13:51:17.993Z</time></trkpt><trkpt lat="43.094685" lon="12.3566107"><ele>256.6</ele><time>2026-04-09T13:51:18.992Z</time></trkpt><trkpt lat="43.0945894" lon="12.3566175"><ele>256.0</ele><time>2026-04-09T13:51:19.992Z</time></trkpt><trkpt lat="43.0945036" lon="12.3566284"><ele>255.99999999999997</ele><time>2026-04-09T13:51:20.993Z</time></trkpt><trkpt lat="43.0944205" lon="12.3566427"><ele>256.0</ele><time>2026-04-09T13:51:21.993Z</time></trkpt><trkpt lat="43.0943485" lon="12.3566487"><ele>256.0</ele><time>2026-04-09T13:51:22.993Z</time></trkpt><trkpt lat="43.0942776" lon="12.3566637"><ele>256.0</ele><time>2026-04-09T13:51:23.993Z</time></trkpt><trkpt lat="43.0942105" lon="12.3566664"><ele>255.99999999999997</ele><time>2026-04-09T13:51:24.993Z</time></trkpt><trkpt lat="43.0941266" lon="12.3566569"><ele>256.0</ele><time>2026-04-09T13:51:25.992Z</time></trkpt><trkpt lat="43.0940444" lon="12.3566292"><ele>255.83333333333331</ele><time>2026-04-09T13:51:26.993Z</time></trkpt><trkpt lat="43.093979" lon="12.356621"><ele>255.66666666666666</ele><time>2026-04-09T13:51:27.993Z</time></trkpt><trkpt lat="43.0939025" lon="12.356622"><ele>255.5</ele><time>2026-04-09T13:51:28.993Z</time></trkpt><trkpt lat="43.0938277" lon="12.3566559"><ele>255.33333333333331</ele><time>2026-04-09T13:51:29.993Z</time></trkpt><trkpt lat="43.0937498" lon="12.3567213"><ele>255.16666666666666</ele><time>2026-04-09T13:51:30.993Z</time></trkpt><trkpt lat="43.0936871" lon="12.3568321"><ele>255.0</ele><time>2026-04-09T13:51:31.993Z</time></trkpt><trkpt lat="43.0936025" lon="12.3569328"><ele>255.0</ele><time>2026-04-09T13:51:32.993Z</time></trkpt><trkpt lat="43.0934941" lon="12.3570194"><ele>255.0</ele><time>2026-04-09T13:51:33.993Z</time></trkpt><trkpt lat="43.093368" lon="12.3571032"><ele>255.0</ele><time>2026-04-09T13:51:34.993Z</time></trkpt><trkpt lat="43.0932409" lon="12.3571989"><ele>255.0</ele><time>2026-04-09T13:51:35.992Z</time></trkpt><trkpt lat="43.0931155" lon="12.3572742"><ele>255.0</ele><time>2026-04-09T13:51:36.993Z</time></trkpt><trkpt lat="43.0930034" lon="12.3573475"><ele>255.0</ele><time>2026-04-09T13:51:37.993Z</time></trkpt><trkpt lat="43.0929088" lon="12.3573945"><ele>255.0</ele><time>2026-04-09T13:51:38.993Z</time></trkpt><trkpt lat="43.0928145" lon="12.3574665"><ele>255.0</ele><time>2026-04-09T13:51:39.993Z</time></trkpt><trkpt lat="43.0926998" lon="12.3575363"><ele>255.0</ele><time>2026-04-09T13:51:40.993Z</time></trkpt><trkpt lat="43.0925881" lon="12.3575955"><ele>255.0</ele><time>2026-04-09T13:51:41.993Z</time></trkpt><trkpt lat="43.0924714" lon="12.3576634"><ele>255.0</ele><time>2026-04-09T13:51:42.992Z</time></trkpt><trkpt lat="43.0923564" lon="12.3577281"><ele>255.0</ele><time>2026-04-09T13:51:43.993Z</time></trkpt><trkpt lat="43.0922423" lon="12.357796"><ele>255.0</ele><time>2026-04-09T13:51:44.993Z</time></trkpt><trkpt lat="43.0921435" lon="12.3578632"><ele>255.0</ele><time>2026-04-09T13:51:45.993Z</time></trkpt><trkpt lat="43.0920487" lon="12.3579117"><ele>255.0</ele><time>2026-04-09T13:51:46.993Z</time></trkpt><trkpt lat="43.0919521" lon="12.3579619"><ele>255.0</ele><time>2026-04-09T13:51:47.993Z</time></trkpt><trkpt lat="43.0918472" lon="12.3580165"><ele>255.0</ele><time>2026-04-09T13:51:48.993Z</time></trkpt><trkpt lat="43.0917306" lon="12.3580851"><ele>255.0</ele><time>2026-04-09T13:51:49.993Z</time></trkpt><trkpt lat="43.091614" lon="12.3581536"><ele>255.0</ele><time>2026-04-09T13:51:50.993Z</time></trkpt><trkpt lat="43.0914942" lon="12.3582275"><ele>255.0</ele><time>2026-04-09T13:51:51.993Z</time></trkpt><trkpt lat="43.0913758" lon="12.3582856"><ele>255.0</ele><time>2026-04-09T13:51:52.993Z</time></trkpt><trkpt lat="43.0912546" lon="12.3583553"><ele>254.75</ele><time>2026-04-09T13:51:53.991Z</time></trkpt><trkpt lat="43.0911317" lon="12.3584258"><ele>254.5</ele><time>2026-04-09T13:51:54.993Z</time></trkpt><trkpt lat="43.0910014" lon="12.358498"><ele>254.25</ele><time>2026-04-09T13:51:55.993Z</time></trkpt><trkpt lat="43.0908803" lon="12.3585653"><ele>254.0</ele><time>2026-04-09T13:51:56.993Z</time></trkpt><trkpt lat="43.0907619" lon="12.3586146"><ele>253.0</ele><time>2026-04-09T13:51:57.993Z</time></trkpt><trkpt lat="43.0906408" lon="12.358692"><ele>252.0</ele><time>2026-04-09T13:51:58.992Z</time></trkpt><trkpt lat="43.0905199" lon="12.3587329"><ele>251.0</ele><time>2026-04-09T13:51:59.993Z</time></trkpt><trkpt lat="43.0904195" lon="12.358779"><ele>250.0</ele><time>2026-04-09T13:52:00.993Z</time></trkpt><trkpt lat="43.0903098" lon="12.358816"><ele>250.0</ele><time>2026-04-09T13:52:01.992Z</time></trkpt><trkpt lat="43.090206" lon="12.3588567"><ele>250.0</ele><time>2026-04-09T13:52:02.992Z</time></trkpt><trkpt lat="43.0900957" lon="12.3589"><ele>250.0</ele><time>2026-04-09T13:52:03.992Z</time></trkpt><trkpt lat="43.0900028" lon="12.3589343"><ele>250.0</ele><time>2026-04-09T13:52:04.992Z</time></trkpt><trkpt lat="43.0898761" lon="12.3589661"><ele>250.0</ele><time>2026-04-09T13:52:05.993Z</time></trkpt><trkpt lat="43.0897512" lon="12.3590006"><ele>252.0</ele><time>2026-04-09T13:52:06.993Z</time></trkpt><trkpt lat="43.0896138" lon="12.3590425"><ele>254.0</ele><time>2026-04-09T13:52:07.993Z</time></trkpt><trkpt lat="43.0894569" lon="12.3590838"><ele>256.0</ele><time>2026-04-09T13:52:08.993Z</time></trkpt><trkpt lat="43.0893113" lon="12.3591236"><ele>258.0</ele><time>2026-04-09T13:52:09.993Z</time></trkpt><trkpt lat="43.08915" lon="12.3591668"><ele>256.5</ele><time>2026-04-09T13:52:10.993Z</time></trkpt><trkpt lat="43.0890251" lon="12.3591804"><ele>255.0</ele><time>2026-04-09T13:52:11.993Z</time></trkpt><trkpt lat="43.0888943" lon="12.3592166"><ele>253.5</ele><time>2026-04-09T13:52:12.993Z</time></trkpt><trkpt lat="43.0887446" lon="12.3592578"><ele>252.0</ele><time>2026-04-09T13:52:13.993Z</time></trkpt><trkpt lat="43.0886003" lon="12.3592997"><ele>252.0</ele><time>2026-04-09T13:52:14.993Z</time></trkpt><trkpt lat="43.0884565" lon="12.3593448"><ele>252.0</ele><time>2026-04-09T13:52:15.993Z</time></trkpt><trkpt lat="43.0883132" lon="12.3593864"><ele>252.0</ele><time>2026-04-09T13:52:16.993Z</time></trkpt><trkpt lat="43.0881652" lon="12.3594174"><ele>252.0</ele><time>2026-04-09T13:52:17.992Z</time></trkpt><trkpt lat="43.0880169" lon="12.3594558"><ele>251.25</ele><time>2026-04-09T13:52:18.993Z</time></trkpt><trkpt lat="43.0878748" lon="12.359476"><ele>250.5</ele><time>2026-04-09T13:52:19.993Z</time></trkpt><trkpt lat="43.0877346" lon="12.3595227"><ele>249.75</ele><time>2026-04-09T13:52:20.993Z</time></trkpt><trkpt lat="43.0875891" lon="12.3595615"><ele>249.0</ele><time>2026-04-09T13:52:21.992Z</time></trkpt><trkpt lat="43.0874495" lon="12.3595969"><ele>248.5</ele><time>2026-04-09T13:52:22.993Z</time></trkpt><trkpt lat="43.087321" lon="12.3596356"><ele>248.0</ele><time>2026-04-09T13:52:23.993Z</time></trkpt><trkpt lat="43.0872027" lon="12.359674"><ele>247.5</ele><time>2026-04-09T13:52:24.993Z</time></trkpt><trkpt lat="43.0870803" lon="12.3597043"><ele>247.0</ele><time>2026-04-09T13:52:25.993Z</time></trkpt><trkpt lat="43.0869505" lon="12.3597413"><ele>247.75</ele><time>2026-04-09T13:52:26.992Z</time></trkpt><trkpt lat="43.0868401" lon="12.359777"><ele>248.5</ele><time>2026-04-09T13:52:27.993Z</time></trkpt><trkpt lat="43.0867235" lon="12.3597974"><ele>249.25</ele><time>2026-04-09T13:52:28.993Z</time></trkpt><trkpt lat="43.0866129" lon="12.3598288"><ele>250.0</ele><time>2026-04-09T13:52:29.993Z</time></trkpt><trkpt lat="43.0864961" lon="12.3598612"><ele>250.0</ele><time>2026-04-09T13:52:30.993Z</time></trkpt><trkpt lat="43.0863797" lon="12.3598964"><ele>250.0</ele><time>2026-04-09T13:52:31.992Z</time></trkpt><trkpt lat="43.0862647" lon="12.3599319"><ele>250.0</ele><time>2026-04-09T13:52:32.993Z</time></trkpt><trkpt lat="43.0861455" lon="12.3599679"><ele>250.0</ele><time>2026-04-09T13:52:33.992Z</time></trkpt><trkpt lat="43.086021" lon="12.359985"><ele>250.0</ele><time>2026-04-09T13:52:34.991Z</time></trkpt><trkpt lat="43.0859129" lon="12.3599896"><ele>250.0</ele><time>2026-04-09T13:52:35.993Z</time></trkpt><trkpt lat="43.0858023" lon="12.3600123"><ele>250.0</ele><time>2026-04-09T13:52:36.993Z</time></trkpt><trkpt lat="43.085693" lon="12.3600371"><ele>250.0</ele><time>2026-04-09T13:52:37.993Z</time></trkpt><trkpt lat="43.0855782" lon="12.3600721"><ele>250.0</ele><time>2026-04-09T13:52:38.993Z</time></trkpt><trkpt lat="43.085475" lon="12.360092"><ele>249.6</ele><time>2026-04-09T13:52:39.992Z</time></trkpt><trkpt lat="43.085371" lon="12.3600939"><ele>249.2</ele><time>2026-04-09T13:52:40.993Z</time></trkpt><trkpt lat="43.0852722" lon="12.3600808"><ele>248.8</ele><time>2026-04-09T13:52:41.993Z</time></trkpt><trkpt lat="43.0851622" lon="12.3600263"><ele>248.4</ele><time>2026-04-09T13:52:42.993Z</time></trkpt><trkpt lat="43.085065" lon="12.3599467"><ele>248.0</ele><time>2026-04-09T13:52:43.992Z</time></trkpt><trkpt lat="43.0849635" lon="12.3598387"><ele>247.75</ele><time>2026-04-09T13:52:44.993Z</time></trkpt><trkpt lat="43.0848809" lon="12.3597128"><ele>247.5</ele><time>2026-04-09T13:52:45.993Z</time></trkpt><trkpt lat="43.084807" lon="12.3595716"><ele>247.25</ele><time>2026-04-09T13:52:46.993Z</time></trkpt><trkpt lat="43.0847455" lon="12.3593936"><ele>247.0</ele><time>2026-04-09T13:52:47.993Z</time></trkpt><trkpt lat="43.0846742" lon="12.35919"><ele>247.66666666666666</ele><time>2026-04-09T13:52:48.993Z</time></trkpt><trkpt lat="43.0845868" lon="12.3589691"><ele>248.33333333333331</ele><time>2026-04-09T13:52:49.993Z</time></trkpt><trkpt lat="43.0844699" lon="12.3586929"><ele>249.0</ele><time>2026-04-09T13:52:50.993Z</time></trkpt><trkpt lat="43.0843471" lon="12.3583722"><ele>251.5</ele><time>2026-04-09T13:52:51.991Z</time></trkpt><trkpt lat="43.0842388" lon="12.3580573"><ele>254.0</ele><time>2026-04-09T13:52:52.993Z</time></trkpt><trkpt lat="43.0841351" lon="12.3577486"><ele>257.0</ele><time>2026-04-09T13:52:53.993Z</time></trkpt><trkpt lat="43.0840325" lon="12.3574637"><ele>260.0</ele><time>2026-04-09T13:52:54.993Z</time></trkpt><trkpt lat="43.083934" lon="12.3572082"><ele>263.0</ele><time>2026-04-09T13:52:55.993Z</time></trkpt><trkpt lat="43.0838355" lon="12.3569651"><ele>264.6666666666667</ele><time>2026-04-09T13:52:56.992Z</time></trkpt><trkpt lat="43.083727" lon="12.3567258"><ele>266.3333333333333</ele><time>2026-04-09T13:52:57.993Z</time></trkpt><trkpt lat="43.0836289" lon="12.3564988"><ele>268.0</ele><time>2026-04-09T13:52:58.993Z</time></trkpt><trkpt lat="43.0835257" lon="12.3562761"><ele>269.0</ele><time>2026-04-09T13:52:59.993Z</time></trkpt><trkpt lat="43.0834296" lon="12.3560562"><ele>270.0</ele><time>2026-04-09T13:53:00.993Z</time></trkpt><trkpt lat="43.0833343" lon="12.3558472"><ele>271.0</ele><time>2026-04-09T13:53:01.993Z</time></trkpt><trkpt lat="43.0832362" lon="12.3556503"><ele>273.66666666666663</ele><time>2026-04-09T13:53:02.993Z</time></trkpt><trkpt lat="43.0831438" lon="12.3554531"><ele>276.3333333333333</ele><time>2026-04-09T13:53:03.993Z</time></trkpt><trkpt lat="43.0830501" lon="12.3552709"><ele>279.0</ele><time>2026-04-09T13:53:04.993Z</time></trkpt><trkpt lat="43.0829633" lon="12.3551076"><ele>279.0</ele><time>2026-04-09T13:53:05.993Z</time></trkpt><trkpt lat="43.0828733" lon="12.3549497"><ele>279.0</ele><time>2026-04-09T13:53:06.992Z</time></trkpt><trkpt lat="43.0827736" lon="12.354793"><ele>279.0</ele><time>2026-04-09T13:53:07.993Z</time></trkpt><trkpt lat="43.0826583" lon="12.3546354"><ele>279.0</ele><time>2026-04-09T13:53:08.993Z</time></trkpt><trkpt lat="43.0825474" lon="12.3544603"><ele>279.0</ele><time>2026-04-09T13:53:09.993Z</time></trkpt><trkpt lat="43.0824318" lon="12.3542822"><ele>279.0</ele><time>2026-04-09T13:53:10.993Z</time></trkpt><trkpt lat="43.0823279" lon="12.3541199"><ele>279.0</ele><time>2026-04-09T13:53:11.993Z</time></trkpt><trkpt lat="43.0822247" lon="12.3539656"><ele>279.0</ele><time>2026-04-09T13:53:12.993Z</time></trkpt><trkpt lat="43.0821134" lon="12.3537937"><ele>279.0</ele><time>2026-04-09T13:53:13.993Z</time></trkpt><trkpt lat="43.082" lon="12.3536303"><ele>278.6666666666667</ele><time>2026-04-09T13:53:14.992Z</time></trkpt><trkpt lat="43.0818879" lon="12.3534591"><ele>278.33333333333337</ele><time>2026-04-09T13:53:15.993Z</time></trkpt><trkpt lat="43.0817617" lon="12.3532747"><ele>278.0</ele><time>2026-04-09T13:53:16.993Z</time></trkpt><trkpt lat="43.0816358" lon="12.3530817"><ele>277.6666666666667</ele><time>2026-04-09T13:53:17.993Z</time></trkpt><trkpt lat="43.0815166" lon="12.3528908"><ele>277.3333333333333</ele><time>2026-04-09T13:53:18.993Z</time></trkpt><trkpt lat="43.0814015" lon="12.352715"><ele>277.0</ele><time>2026-04-09T13:53:19.993Z</time></trkpt><trkpt lat="43.08129" lon="12.3525448"><ele>277.0</ele><time>2026-04-09T13:53:20.993Z</time></trkpt><trkpt lat="43.0811806" lon="12.352377"><ele>277.0</ele><time>2026-04-09T13:53:21.994Z</time></trkpt><trkpt lat="43.0810731" lon="12.3522113"><ele>277.0</ele><time>2026-04-09T13:53:22.993Z</time></trkpt><trkpt lat="43.0809641" lon="12.3520414"><ele>277.66666666666663</ele><time>2026-04-09T13:53:23.993Z</time></trkpt><trkpt lat="43.0808588" lon="12.3518681"><ele>278.3333333333333</ele><time>2026-04-09T13:53:24.993Z</time></trkpt><trkpt lat="43.0807733" lon="12.3517111"><ele>279.0</ele><time>2026-04-09T13:53:25.993Z</time></trkpt><trkpt lat="43.0806749" lon="12.3515335"><ele>276.3333333333333</ele><time>2026-04-09T13:53:26.993Z</time></trkpt><trkpt lat="43.0805761" lon="12.35136"><ele>273.66666666666663</ele><time>2026-04-09T13:53:27.992Z</time></trkpt><trkpt lat="43.0804794" lon="12.3511827"><ele>271.0</ele><time>2026-04-09T13:53:28.993Z</time></trkpt><trkpt lat="43.0803895" lon="12.3509989"><ele>271.0</ele><time>2026-04-09T13:53:29.993Z</time></trkpt><trkpt lat="43.0802987" lon="12.3508241"><ele>271.0</ele><time>2026-04-09T13:53:30.993Z</time></trkpt><trkpt lat="43.0802226" lon="12.3506633"><ele>271.0</ele><time>2026-04-09T13:53:31.993Z</time></trkpt><trkpt lat="43.0801427" lon="12.3505"><ele>271.0</ele><time>2026-04-09T13:53:32.993Z</time></trkpt><trkpt lat="43.0800648" lon="12.3503349"><ele>270.5</ele><time>2026-04-09T13:53:33.993Z</time></trkpt><trkpt lat="43.0799983" lon="12.3501839"><ele>270.0</ele><time>2026-04-09T13:53:34.993Z</time></trkpt><trkpt lat="43.0799247" lon="12.3500203"><ele>269.5</ele><time>2026-04-09T13:53:35.992Z</time></trkpt><trkpt lat="43.0798468" lon="12.3498513"><ele>269.0</ele><time>2026-04-09T13:53:36.993Z</time></trkpt><trkpt lat="43.0797722" lon="12.3496851"><ele>268.25</ele><time>2026-04-09T13:53:37.993Z</time></trkpt><trkpt lat="43.0796998" lon="12.3495053"><ele>267.5</ele><time>2026-04-09T13:53:38.993Z</time></trkpt><trkpt lat="43.0796274" lon="12.3493202"><ele>266.75</ele><time>2026-04-09T13:53:39.993Z</time></trkpt><trkpt lat="43.0795612" lon="12.3491504"><ele>266.0</ele><time>2026-04-09T13:53:40.993Z</time></trkpt><trkpt lat="43.0794976" lon="12.3489715"><ele>266.0</ele><time>2026-04-09T13:53:41.993Z</time></trkpt><trkpt lat="43.0794331" lon="12.3487951"><ele>266.0</ele><time>2026-04-09T13:53:42.993Z</time></trkpt><trkpt lat="43.0793856" lon="12.3486234"><ele>266.0</ele><time>2026-04-09T13:53:43.993Z</time></trkpt><trkpt lat="43.0793462" lon="12.3484666"><ele>266.0</ele><time>2026-04-09T13:53:44.992Z</time></trkpt><trkpt lat="43.0793084" lon="12.3483163"><ele>266.0</ele><time>2026-04-09T13:53:45.993Z</time></trkpt><trkpt lat="43.07927" lon="12.3481717"><ele>266.0</ele><time>2026-04-09T13:53:46.993Z</time></trkpt><trkpt lat="43.0792388" lon="12.3480333"><ele>266.0</ele><time>2026-04-09T13:53:47.993Z</time></trkpt><trkpt lat="43.0792034" lon="12.3478868"><ele>266.0</ele><time>2026-04-09T13:53:48.993Z</time></trkpt><trkpt lat="43.0791835" lon="12.3477385"><ele>266.0</ele><time>2026-04-09T13:53:49.993Z</time></trkpt><trkpt lat="43.0791601" lon="12.3475827"><ele>265.0</ele><time>2026-04-09T13:53:50.993Z</time></trkpt><trkpt lat="43.079139" lon="12.3474179"><ele>264.0</ele><time>2026-04-09T13:53:51.993Z</time></trkpt><trkpt lat="43.0791171" lon="12.347251"><ele>263.0</ele><time>2026-04-09T13:53:52.993Z</time></trkpt><trkpt lat="43.0790913" lon="12.3470768"><ele>262.0</ele><time>2026-04-09T13:53:53.993Z</time></trkpt><trkpt lat="43.079068" lon="12.3468956"><ele>261.75</ele><time>2026-04-09T13:53:54.992Z</time></trkpt><trkpt lat="43.0790455" lon="12.3467073"><ele>261.5</ele><time>2026-04-09T13:53:55.993Z</time></trkpt><trkpt lat="43.079022" lon="12.346526"><ele>261.25</ele><time>2026-04-09T13:53:56.993Z</time></trkpt><trkpt lat="43.0790017" lon="12.3463409"><ele>261.0</ele><time>2026-04-09T13:53:57.992Z</time></trkpt><trkpt lat="43.0789717" lon="12.3461774"><ele>260.6</ele><time>2026-04-09T13:53:58.993Z</time></trkpt><trkpt lat="43.0789358" lon="12.3460464"><ele>260.20000000000005</ele><time>2026-04-09T13:53:59.992Z</time></trkpt><trkpt lat="43.078902" lon="12.3459227"><ele>259.79999999999995</ele><time>2026-04-09T13:54:00.993Z</time></trkpt><trkpt lat="43.0788903" lon="12.3457917"><ele>259.4</ele><time>2026-04-09T13:54:01.993Z</time></trkpt><trkpt lat="43.078897" lon="12.345653"><ele>259.0</ele><time>2026-04-09T13:54:02.993Z</time></trkpt><trkpt lat="43.078904" lon="12.3454981"><ele>259.0</ele><time>2026-04-09T13:54:03.993Z</time></trkpt><trkpt lat="43.0788889" lon="12.3453438"><ele>259.0</ele><time>2026-04-09T13:54:04.993Z</time></trkpt><trkpt lat="43.0788684" lon="12.3451823"><ele>259.0</ele><time>2026-04-09T13:54:05.993Z</time></trkpt><trkpt lat="43.0788413" lon="12.3450097"><ele>259.0</ele><time>2026-04-09T13:54:06.992Z</time></trkpt><trkpt lat="43.0788212" lon="12.3448333"><ele>258.5</ele><time>2026-04-09T13:54:07.992Z</time></trkpt><trkpt lat="43.0788015" lon="12.34466"><ele>258.0</ele><time>2026-04-09T13:54:08.993Z</time></trkpt><trkpt lat="43.0787771" lon="12.3444785"><ele>257.5</ele><time>2026-04-09T13:54:09.993Z</time></trkpt><trkpt lat="43.0787657" lon="12.3442915"><ele>257.0</ele><time>2026-04-09T13:54:10.993Z</time></trkpt><trkpt lat="43.0787418" lon="12.3440982"><ele>257.0</ele><time>2026-04-09T13:54:11.993Z</time></trkpt><trkpt lat="43.0787159" lon="12.3439058"><ele>257.0</ele><time>2026-04-09T13:54:12.993Z</time></trkpt><trkpt lat="43.0786862" lon="12.3437168"><ele>257.0</ele><time>2026-04-09T13:54:13.993Z</time></trkpt><trkpt lat="43.0786623" lon="12.343531"><ele>257.0</ele><time>2026-04-09T13:54:14.993Z</time></trkpt><trkpt lat="43.0786411" lon="12.343332"><ele>256.6666666666667</ele><time>2026-04-09T13:54:15.993Z</time></trkpt><trkpt lat="43.0786092" lon="12.3431403"><ele>256.3333333333333</ele><time>2026-04-09T13:54:16.993Z</time></trkpt><trkpt lat="43.078581" lon="12.3429373"><ele>256.0</ele><time>2026-04-09T13:54:17.993Z</time></trkpt><trkpt lat="43.0785496" lon="12.3427291"><ele>256.0</ele><time>2026-04-09T13:54:18.993Z</time></trkpt><trkpt lat="43.078516" lon="12.3425107"><ele>256.0</ele><time>2026-04-09T13:54:19.992Z</time></trkpt><trkpt lat="43.0784822" lon="12.3422539"><ele>256.0</ele><time>2026-04-09T13:54:20.993Z</time></trkpt><trkpt lat="43.078458" lon="12.3419867"><ele>255.33333333333331</ele><time>2026-04-09T13:54:21.993Z</time></trkpt><trkpt lat="43.078433" lon="12.3417237"><ele>254.66666666666669</ele><time>2026-04-09T13:54:22.993Z</time></trkpt><trkpt lat="43.0784173" lon="12.3414546"><ele>254.0</ele><time>2026-04-09T13:54:23.992Z</time></trkpt><trkpt lat="43.0784177" lon="12.3412053"><ele>254.0</ele><time>2026-04-09T13:54:24.993Z</time></trkpt><trkpt lat="43.0784229" lon="12.3409611"><ele>254.0</ele><time>2026-04-09T13:54:25.993Z</time></trkpt><trkpt lat="43.0784367" lon="12.3407469"><ele>254.0</ele><time>2026-04-09T13:54:26.993Z</time></trkpt><trkpt lat="43.0784615" lon="12.3405383"><ele>253.66666666666669</ele><time>2026-04-09T13:54:27.993Z</time></trkpt><trkpt lat="43.0784856" lon="12.3403331"><ele>253.33333333333331</ele><time>2026-04-09T13:54:28.991Z</time></trkpt><trkpt lat="43.0785103" lon="12.3401282"><ele>253.0</ele><time>2026-04-09T13:54:29.993Z</time></trkpt><trkpt lat="43.0785493" lon="12.3399312"><ele>253.0</ele><time>2026-04-09T13:54:30.993Z</time></trkpt><trkpt lat="43.078598" lon="12.3397515"><ele>253.0</ele><time>2026-04-09T13:54:31.993Z</time></trkpt><trkpt lat="43.0786646" lon="12.3395858"><ele>253.0</ele><time>2026-04-09T13:54:32.993Z</time></trkpt><trkpt lat="43.0787435" lon="12.3394679"><ele>253.0</ele><time>2026-04-09T13:54:33.992Z</time></trkpt><trkpt lat="43.078842" lon="12.339362"><ele>252.75</ele><time>2026-04-09T13:54:34.992Z</time></trkpt><trkpt lat="43.0789535" lon="12.3392821"><ele>252.5</ele><time>2026-04-09T13:54:35.992Z</time></trkpt><trkpt lat="43.0790691" lon="12.3392117"><ele>252.25</ele><time>2026-04-09T13:54:36.993Z</time></trkpt><trkpt lat="43.0791823" lon="12.3391487"><ele>252.0</ele><time>2026-04-09T13:54:37.993Z</time></trkpt><trkpt lat="43.0793069" lon="12.3390877"><ele>252.5</ele><time>2026-04-09T13:54:38.993Z</time></trkpt><trkpt lat="43.0794361" lon="12.3390269"><ele>253.0</ele><time>2026-04-09T13:54:39.992Z</time></trkpt><trkpt lat="43.0795646" lon="12.3389682"><ele>253.5</ele><time>2026-04-09T13:54:40.993Z</time></trkpt><trkpt lat="43.0796918" lon="12.3389101"><ele>254.0</ele><time>2026-04-09T13:54:41.993Z</time></trkpt><trkpt lat="43.0798065" lon="12.3388545"><ele>254.0</ele><time>2026-04-09T13:54:42.992Z</time></trkpt><trkpt lat="43.0799146" lon="12.3388068"><ele>253.99999999999997</ele><time>2026-04-09T13:54:43.993Z</time></trkpt><trkpt lat="43.0800123" lon="12.3387685"><ele>253.99999999999997</ele><time>2026-04-09T13:54:44.993Z</time></trkpt><trkpt lat="43.080107" lon="12.3387216"><ele>254.0</ele><time>2026-04-09T13:54:45.993Z</time></trkpt><trkpt lat="43.0802082" lon="12.3386764"><ele>254.0</ele><time>2026-04-09T13:54:46.992Z</time></trkpt><trkpt lat="43.0803094" lon="12.3386308"><ele>254.25</ele><time>2026-04-09T13:54:47.993Z</time></trkpt><trkpt lat="43.0804157" lon="12.3385494"><ele>254.5</ele><time>2026-04-09T13:54:48.993Z</time></trkpt><trkpt lat="43.0805073" lon="12.3384653"><ele>254.75</ele><time>2026-04-09T13:54:49.993Z</time></trkpt><trkpt lat="43.0805974" lon="12.3383706"><ele>255.0</ele><time>2026-04-09T13:54:50.993Z</time></trkpt><trkpt lat="43.0806679" lon="12.3382619"><ele>255.0</ele><time>2026-04-09T13:54:51.993Z</time></trkpt><trkpt lat="43.0807165" lon="12.3381257"><ele>255.0</ele><time>2026-04-09T13:54:52.992Z</time></trkpt><trkpt lat="43.080748" lon="12.3379914"><ele>255.0</ele><time>2026-04-09T13:54:53.992Z</time></trkpt><trkpt lat="43.0807361" lon="12.3378623"><ele>255.0</ele><time>2026-04-09T13:54:54.993Z</time></trkpt><trkpt lat="43.0807363" lon="12.3377138"><ele>255.0</ele><time>2026-04-09T13:54:55.992Z</time></trkpt><trkpt lat="43.0807152" lon="12.337588"><ele>255.0</ele><time>2026-04-09T13:54:56.993Z</time></trkpt><trkpt lat="43.0806678" lon="12.337473"><ele>255.0</ele><time>2026-04-09T13:54:57.993Z</time></trkpt><trkpt lat="43.0806231" lon="12.3373551"><ele>255.0</ele><time>2026-04-09T13:54:58.993Z</time></trkpt><trkpt lat="43.0805623" lon="12.3372335"><ele>255.0</ele><time>2026-04-09T13:54:59.993Z</time></trkpt><trkpt lat="43.0805108" lon="12.3371123"><ele>255.0</ele><time>2026-04-09T13:55:00.993Z</time></trkpt><trkpt lat="43.0804629" lon="12.3369922"><ele>254.85714285714286</ele><time>2026-04-09T13:55:01.993Z</time></trkpt><trkpt lat="43.0804162" lon="12.336896"><ele>254.71428571428572</ele><time>2026-04-09T13:55:02.992Z</time></trkpt><trkpt lat="43.080377" lon="12.3368093"><ele>254.57142857142858</ele><time>2026-04-09T13:55:03.992Z</time></trkpt><trkpt lat="43.0803451" lon="12.3367207"><ele>254.42857142857144</ele><time>2026-04-09T13:55:04.993Z</time></trkpt><trkpt lat="43.0803102" lon="12.3366466"><ele>254.28571428571428</ele><time>2026-04-09T13:55:05.993Z</time></trkpt><trkpt lat="43.0802735" lon="12.3365734"><ele>254.14285714285717</ele><time>2026-04-09T13:55:06.993Z</time></trkpt><trkpt lat="43.0802366" lon="12.3364909"><ele>254.0</ele><time>2026-04-09T13:55:07.993Z</time></trkpt><trkpt lat="43.0801928" lon="12.3364032"><ele>253.39999999999998</ele><time>2026-04-09T13:55:08.993Z</time></trkpt><trkpt lat="43.0801472" lon="12.3362968"><ele>252.79999999999998</ele><time>2026-04-09T13:55:09.993Z</time></trkpt><trkpt lat="43.0800894" lon="12.3361787"><ele>252.20000000000002</ele><time>2026-04-09T13:55:10.993Z</time></trkpt><trkpt lat="43.0800333" lon="12.3360554"><ele>251.60000000000002</ele><time>2026-04-09T13:55:11.993Z</time></trkpt><trkpt lat="43.0799764" lon="12.3359306"><ele>251.0</ele><time>2026-04-09T13:55:12.992Z</time></trkpt><trkpt lat="43.0799192" lon="12.3357965"><ele>250.75</ele><time>2026-04-09T13:55:13.993Z</time></trkpt><trkpt lat="43.0798527" lon="12.3356605"><ele>250.5</ele><time>2026-04-09T13:55:14.993Z</time></trkpt><trkpt lat="43.0797886" lon="12.3355196"><ele>250.25</ele><time>2026-04-09T13:55:15.993Z</time></trkpt><trkpt lat="43.0797183" lon="12.335366"><ele>250.0</ele><time>2026-04-09T13:55:16.991Z</time></trkpt><trkpt lat="43.0796428" lon="12.335199"><ele>249.25</ele><time>2026-04-09T13:55:17.992Z</time></trkpt><trkpt lat="43.0795652" lon="12.3350298"><ele>248.5</ele><time>2026-04-09T13:55:18.993Z</time></trkpt><trkpt lat="43.0794892" lon="12.3348592"><ele>247.75</ele><time>2026-04-09T13:55:19.993Z</time></trkpt><trkpt lat="43.0794284" lon="12.3346762"><ele>247.0</ele><time>2026-04-09T13:55:20.993Z</time></trkpt><trkpt lat="43.0793623" lon="12.3345074"><ele>246.75</ele><time>2026-04-09T13:55:21.992Z</time></trkpt><trkpt lat="43.079288" lon="12.3343538"><ele>246.5</ele><time>2026-04-09T13:55:22.991Z</time></trkpt><trkpt lat="43.0792164" lon="12.3342114"><ele>246.25</ele><time>2026-04-09T13:55:23.993Z</time></trkpt><trkpt lat="43.0791573" lon="12.3340832"><ele>246.0</ele><time>2026-04-09T13:55:24.993Z</time></trkpt><trkpt lat="43.0790921" lon="12.3339513"><ele>247.25</ele><time>2026-04-09T13:55:25.993Z</time></trkpt><trkpt lat="43.0790367" lon="12.3338198"><ele>248.5</ele><time>2026-04-09T13:55:26.993Z</time></trkpt><trkpt lat="43.078985" lon="12.3336701"><ele>249.75</ele><time>2026-04-09T13:55:27.993Z</time></trkpt><trkpt lat="43.078934" lon="12.3335199"><ele>251.0</ele><time>2026-04-09T13:55:28.993Z</time></trkpt><trkpt lat="43.0788875" lon="12.3333691"><ele>251.0</ele><time>2026-04-09T13:55:29.993Z</time></trkpt><trkpt lat="43.0788297" lon="12.3332277"><ele>251.0</ele><time>2026-04-09T13:55:30.993Z</time></trkpt><trkpt lat="43.0787675" lon="12.3330929"><ele>251.0</ele><time>2026-04-09T13:55:31.992Z</time></trkpt><trkpt lat="43.0787063" lon="12.3329664"><ele>251.0</ele><time>2026-04-09T13:55:32.993Z</time></trkpt><trkpt lat="43.0786479" lon="12.3328468"><ele>250.60000000000002</ele><time>2026-04-09T13:55:33.993Z</time></trkpt><trkpt lat="43.078594" lon="12.3327263"><ele>250.20000000000002</ele><time>2026-04-09T13:55:34.993Z</time></trkpt><trkpt lat="43.0785375" lon="12.3325988"><ele>249.79999999999998</ele><time>2026-04-09T13:55:35.993Z</time></trkpt><trkpt lat="43.0784784" lon="12.3324566"><ele>249.39999999999998</ele><time>2026-04-09T13:55:36.993Z</time></trkpt><trkpt lat="43.0784159" lon="12.3323266"><ele>249.0</ele><time>2026-04-09T13:55:37.993Z</time></trkpt><trkpt lat="43.0783636" lon="12.3322056"><ele>248.6</ele><time>2026-04-09T13:55:38.993Z</time></trkpt><trkpt lat="43.0783105" lon="12.3320901"><ele>248.2</ele><time>2026-04-09T13:55:39.993Z</time></trkpt><trkpt lat="43.0782619" lon="12.3319733"><ele>247.79999999999998</ele><time>2026-04-09T13:55:40.993Z</time></trkpt><trkpt lat="43.0782303" lon="12.3318527"><ele>247.39999999999998</ele><time>2026-04-09T13:55:41.993Z</time></trkpt><trkpt lat="43.0782139" lon="12.3317281"><ele>247.0</ele><time>2026-04-09T13:55:42.993Z</time></trkpt><trkpt lat="43.0782021" lon="12.3316014"><ele>246.49999999999997</ele><time>2026-04-09T13:55:43.992Z</time></trkpt><trkpt lat="43.0781995" lon="12.3314786"><ele>246.0</ele><time>2026-04-09T13:55:44.993Z</time></trkpt><trkpt lat="43.0782076" lon="12.3313713"><ele>245.5</ele><time>2026-04-09T13:55:45.993Z</time></trkpt><trkpt lat="43.0782271" lon="12.3312707"><ele>245.0</ele><time>2026-04-09T13:55:46.993Z</time></trkpt><trkpt lat="43.0782624" lon="12.3311782"><ele>244.49999999999997</ele><time>2026-04-09T13:55:47.993Z</time></trkpt><trkpt lat="43.0783155" lon="12.3311003"><ele>244.0</ele><time>2026-04-09T13:55:48.992Z</time></trkpt><trkpt lat="43.0783642" lon="12.3310128"><ele>243.83333333333331</ele><time>2026-04-09T13:55:49.993Z</time></trkpt><trkpt lat="43.0784063" lon="12.3309401"><ele>243.66666666666666</ele><time>2026-04-09T13:55:50.993Z</time></trkpt><trkpt lat="43.0784488" lon="12.3308559"><ele>243.5</ele><time>2026-04-09T13:55:51.993Z</time></trkpt><trkpt lat="43.0784719" lon="12.3307626"><ele>243.33333333333331</ele><time>2026-04-09T13:55:52.993Z</time></trkpt><trkpt lat="43.0784715" lon="12.33064"><ele>243.16666666666666</ele><time>2026-04-09T13:55:53.992Z</time></trkpt><trkpt lat="43.0784602" lon="12.3305321"><ele>243.0</ele><time>2026-04-09T13:55:54.993Z</time></trkpt><trkpt lat="43.0784177" lon="12.3304374"><ele>242.8</ele><time>2026-04-09T13:55:55.993Z</time></trkpt><trkpt lat="43.078363" lon="12.3303461"><ele>242.60000000000002</ele><time>2026-04-09T13:55:56.991Z</time></trkpt><trkpt lat="43.0782821" lon="12.3302813"><ele>242.39999999999998</ele><time>2026-04-09T13:55:57.993Z</time></trkpt><trkpt lat="43.0781909" lon="12.330248"><ele>242.2</ele><time>2026-04-09T13:55:58.993Z</time></trkpt><trkpt lat="43.0780937" lon="12.3302494"><ele>242.0</ele><time>2026-04-09T13:55:59.993Z</time></trkpt><trkpt lat="43.0779951" lon="12.3302886"><ele>242.0</ele><time>2026-04-09T13:56:00.992Z</time></trkpt><trkpt lat="43.0779101" lon="12.3303392"><ele>242.0</ele><time>2026-04-09T13:56:01.993Z</time></trkpt><trkpt lat="43.0778255" lon="12.3303845"><ele>242.0</ele><time>2026-04-09T13:56:02.993Z</time></trkpt><trkpt lat="43.0777352" lon="12.3304042"><ele>242.0</ele><time>2026-04-09T13:56:03.993Z</time></trkpt><trkpt lat="43.0776524" lon="12.3303945"><ele>242.0</ele><time>2026-04-09T13:56:04.993Z</time></trkpt><trkpt lat="43.0775615" lon="12.3303489"><ele>242.0</ele><time>2026-04-09T13:56:05.993Z</time></trkpt><trkpt lat="43.0774826" lon="12.3302724"><ele>242.0</ele><time>2026-04-09T13:56:06.992Z</time></trkpt><trkpt lat="43.077406" lon="12.3301912"><ele>242.0</ele><time>2026-04-09T13:56:07.992Z</time></trkpt><trkpt lat="43.0773434" lon="12.3300954"><ele>242.0</ele><time>2026-04-09T13:56:08.993Z</time></trkpt><trkpt lat="43.0772773" lon="12.3299835"><ele>242.0</ele><time>2026-04-09T13:56:09.992Z</time></trkpt><trkpt lat="43.0772129" lon="12.3298589"><ele>242.5</ele><time>2026-04-09T13:56:10.992Z</time></trkpt><trkpt lat="43.0771502" lon="12.329725"><ele>243.0</ele><time>2026-04-09T13:56:11.993Z</time></trkpt><trkpt lat="43.0770771" lon="12.3295824"><ele>243.5</ele><time>2026-04-09T13:56:12.993Z</time></trkpt><trkpt lat="43.0770018" lon="12.3294223"><ele>244.0</ele><time>2026-04-09T13:56:13.993Z</time></trkpt><trkpt lat="43.076925" lon="12.3292516"><ele>244.0</ele><time>2026-04-09T13:56:14.993Z</time></trkpt><trkpt lat="43.0768449" lon="12.3290802"><ele>244.0</ele><time>2026-04-09T13:56:15.993Z</time></trkpt><trkpt lat="43.0767663" lon="12.3289076"><ele>244.0</ele><time>2026-04-09T13:56:16.992Z</time></trkpt><trkpt lat="43.0766827" lon="12.3287229"><ele>243.0</ele><time>2026-04-09T13:56:17.993Z</time></trkpt><trkpt lat="43.0766066" lon="12.3285432"><ele>242.0</ele><time>2026-04-09T13:56:18.993Z</time></trkpt><trkpt lat="43.0765255" lon="12.3283825"><ele>241.0</ele><time>2026-04-09T13:56:19.993Z</time></trkpt><trkpt lat="43.076448" lon="12.3282269"><ele>240.0</ele><time>2026-04-09T13:56:20.993Z</time></trkpt><trkpt lat="43.0763754" lon="12.3280638"><ele>241.75</ele><time>2026-04-09T13:56:21.993Z</time></trkpt><trkpt lat="43.0763059" lon="12.3279025"><ele>243.5</ele><time>2026-04-09T13:56:22.993Z</time></trkpt><trkpt lat="43.0762339" lon="12.3277386"><ele>245.25</ele><time>2026-04-09T13:56:23.993Z</time></trkpt><trkpt lat="43.0761624" lon="12.3275721"><ele>247.0</ele><time>2026-04-09T13:56:24.993Z</time></trkpt><trkpt lat="43.0760916" lon="12.327413"><ele>247.0</ele><time>2026-04-09T13:56:25.993Z</time></trkpt><trkpt lat="43.0760172" lon="12.3272486"><ele>247.0</ele><time>2026-04-09T13:56:26.993Z</time></trkpt><trkpt lat="43.0759418" lon="12.3270826"><ele>247.0</ele><time>2026-04-09T13:56:27.993Z</time></trkpt><trkpt lat="43.0758642" lon="12.3269249"><ele>247.0</ele><time>2026-04-09T13:56:28.993Z</time></trkpt><trkpt lat="43.0757911" lon="12.3267612"><ele>247.25</ele><time>2026-04-09T13:56:29.993Z</time></trkpt><trkpt lat="43.0757142" lon="12.3266074"><ele>247.5</ele><time>2026-04-09T13:56:30.992Z</time></trkpt><trkpt lat="43.0756337" lon="12.3264404"><ele>247.75</ele><time>2026-04-09T13:56:31.992Z</time></trkpt><trkpt lat="43.0755561" lon="12.3262729"><ele>248.0</ele><time>2026-04-09T13:56:32.993Z</time></trkpt><trkpt lat="43.0754754" lon="12.3260942"><ele>248.0</ele><time>2026-04-09T13:56:33.993Z</time></trkpt><trkpt lat="43.0753799" lon="12.325924"><ele>248.0</ele><time>2026-04-09T13:56:34.993Z</time></trkpt><trkpt lat="43.0753007" lon="12.325749"><ele>248.0</ele><time>2026-04-09T13:56:35.993Z</time></trkpt><trkpt lat="43.0752173" lon="12.3255767"><ele>248.25</ele><time>2026-04-09T13:56:36.992Z</time></trkpt><trkpt lat="43.0751293" lon="12.3253995"><ele>248.5</ele><time>2026-04-09T13:56:37.992Z</time></trkpt><trkpt lat="43.0750495" lon="12.325234"><ele>248.75</ele><time>2026-04-09T13:56:38.993Z</time></trkpt><trkpt lat="43.0749709" lon="12.3250706"><ele>249.0</ele><time>2026-04-09T13:56:39.992Z</time></trkpt><trkpt lat="43.0748943" lon="12.3249097"><ele>249.5</ele><time>2026-04-09T13:56:40.992Z</time></trkpt><trkpt lat="43.0748197" lon="12.3247461"><ele>250.0</ele><time>2026-04-09T13:56:41.993Z</time></trkpt><trkpt lat="43.0747471" lon="12.3245803"><ele>250.5</ele><time>2026-04-09T13:56:42.993Z</time></trkpt><trkpt lat="43.0746729" lon="12.3244173"><ele>251.0</ele><time>2026-04-09T13:56:43.993Z</time></trkpt><trkpt lat="43.0745993" lon="12.3242574"><ele>251.0</ele><time>2026-04-09T13:56:44.993Z</time></trkpt><trkpt lat="43.0745457" lon="12.3241025"><ele>251.0</ele><time>2026-04-09T13:56:45.994Z</time></trkpt><trkpt lat="43.0744847" lon="12.3239449"><ele>251.0</ele><time>2026-04-09T13:56:46.993Z</time></trkpt><trkpt lat="43.0744215" lon="12.32379"><ele>251.0</ele><time>2026-04-09T13:56:47.992Z</time></trkpt><trkpt lat="43.0743507" lon="12.323628"><ele>251.25</ele><time>2026-04-09T13:56:48.993Z</time></trkpt><trkpt lat="43.0742797" lon="12.3234804"><ele>251.5</ele><time>2026-04-09T13:56:49.993Z</time></trkpt><trkpt lat="43.0742159" lon="12.3233384"><ele>251.75</ele><time>2026-04-09T13:56:50.993Z</time></trkpt><trkpt lat="43.0741487" lon="12.3232037"><ele>252.0</ele><time>2026-04-09T13:56:51.993Z</time></trkpt><trkpt lat="43.0740862" lon="12.3230571"><ele>251.25</ele><time>2026-04-09T13:56:52.992Z</time></trkpt><trkpt lat="43.0740149" lon="12.3229097"><ele>250.5</ele><time>2026-04-09T13:56:53.993Z</time></trkpt><trkpt lat="43.0739428" lon="12.3227586"><ele>249.75</ele><time>2026-04-09T13:56:54.992Z</time></trkpt><trkpt lat="43.0738727" lon="12.3226146"><ele>249.0</ele><time>2026-04-09T13:56:55.993Z</time></trkpt><trkpt lat="43.0738065" lon="12.3224696"><ele>249.0</ele><time>2026-04-09T13:56:56.993Z</time></trkpt><trkpt lat="43.073746" lon="12.3223362"><ele>248.99999999999997</ele><time>2026-04-09T13:56:57.992Z</time></trkpt><trkpt lat="43.0736872" lon="12.3222093"><ele>248.99999999999997</ele><time>2026-04-09T13:56:58.992Z</time></trkpt><trkpt lat="43.0736337" lon="12.3220944"><ele>249.0</ele><time>2026-04-09T13:56:59.992Z</time></trkpt><trkpt lat="43.0735768" lon="12.3219831"><ele>249.0</ele><time>2026-04-09T13:57:00.993Z</time></trkpt><trkpt lat="43.0735128" lon="12.3218575"><ele>249.0</ele><time>2026-04-09T13:57:01.993Z</time></trkpt><trkpt lat="43.0734487" lon="12.3217161"><ele>249.0</ele><time>2026-04-09T13:57:02.993Z</time></trkpt><trkpt lat="43.0733735" lon="12.3215632"><ele>249.0</ele><time>2026-04-09T13:57:03.993Z</time></trkpt><trkpt lat="43.0732982" lon="12.3214136"><ele>249.0</ele><time>2026-04-09T13:57:04.993Z</time></trkpt><trkpt lat="43.0732275" lon="12.3212765"><ele>248.0</ele><time>2026-04-09T13:57:05.993Z</time></trkpt><trkpt lat="43.0731668" lon="12.3211377"><ele>247.0</ele><time>2026-04-09T13:57:06.993Z</time></trkpt><trkpt lat="43.0731053" lon="12.3210065"><ele>246.0</ele><time>2026-04-09T13:57:07.993Z</time></trkpt><trkpt lat="43.0730436" lon="12.3208691"><ele>245.0</ele><time>2026-04-09T13:57:08.992Z</time></trkpt><trkpt lat="43.0729806" lon="12.3207292"><ele>245.0</ele><time>2026-04-09T13:57:09.993Z</time></trkpt><trkpt lat="43.0729195" lon="12.3205936"><ele>245.0</ele><time>2026-04-09T13:57:10.993Z</time></trkpt><trkpt lat="43.072869" lon="12.3204642"><ele>245.0</ele><time>2026-04-09T13:57:11.993Z</time></trkpt><trkpt lat="43.0728194" lon="12.3203549"><ele>245.0</ele><time>2026-04-09T13:57:12.992Z</time></trkpt><trkpt lat="43.0727779" lon="12.3202637"><ele>245.0</ele><time>2026-04-09T13:57:13.993Z</time></trkpt><trkpt lat="43.0727369" lon="12.3201851"><ele>244.66666666666669</ele><time>2026-04-09T13:57:14.993Z</time></trkpt><trkpt lat="43.0726971" lon="12.3201101"><ele>244.33333333333334</ele><time>2026-04-09T13:57:15.993Z</time></trkpt><trkpt lat="43.0726467" lon="12.3200131"><ele>244.0</ele><time>2026-04-09T13:57:16.993Z</time></trkpt><trkpt lat="43.0726016" lon="12.3199061"><ele>243.66666666666669</ele><time>2026-04-09T13:57:17.993Z</time></trkpt><trkpt lat="43.0725535" lon="12.3197972"><ele>243.33333333333334</ele><time>2026-04-09T13:57:18.991Z</time></trkpt><trkpt lat="43.0725014" lon="12.3196786"><ele>243.0</ele><time>2026-04-09T13:57:19.993Z</time></trkpt><trkpt lat="43.0724454" lon="12.3195552"><ele>242.75</ele><time>2026-04-09T13:57:20.993Z</time></trkpt><trkpt lat="43.07239" lon="12.3194281"><ele>242.5</ele><time>2026-04-09T13:57:21.993Z</time></trkpt><trkpt lat="43.0723337" lon="12.3192937"><ele>242.25</ele><time>2026-04-09T13:57:22.993Z</time></trkpt><trkpt lat="43.0722701" lon="12.3191572"><ele>242.0</ele><time>2026-04-09T13:57:23.993Z</time></trkpt><trkpt lat="43.0722182" lon="12.3190096"><ele>241.75</ele><time>2026-04-09T13:57:24.992Z</time></trkpt><trkpt lat="43.0721529" lon="12.3188656"><ele>241.5</ele><time>2026-04-09T13:57:25.993Z</time></trkpt><trkpt lat="43.0720902" lon="12.3187275"><ele>241.25</ele><time>2026-04-09T13:57:26.992Z</time></trkpt><trkpt lat="43.0720286" lon="12.318594"><ele>241.0</ele><time>2026-04-09T13:57:27.992Z</time></trkpt><trkpt lat="43.0719612" lon="12.3184611"><ele>241.0</ele><time>2026-04-09T13:57:28.993Z</time></trkpt><trkpt lat="43.0718979" lon="12.3183275"><ele>241.0</ele><time>2026-04-09T13:57:29.993Z</time></trkpt><trkpt lat="43.0718362" lon="12.3181921"><ele>241.0</ele><time>2026-04-09T13:57:30.993Z</time></trkpt><trkpt lat="43.071776" lon="12.3180572"><ele>241.0</ele><time>2026-04-09T13:57:31.993Z</time></trkpt><trkpt lat="43.0717111" lon="12.3179268"><ele>240.83333333333331</ele><time>2026-04-09T13:57:32.992Z</time></trkpt><trkpt lat="43.0716624" lon="12.3178145"><ele>240.66666666666666</ele><time>2026-04-09T13:57:33.991Z</time></trkpt><trkpt lat="43.0716225" lon="12.3177138"><ele>240.5</ele><time>2026-04-09T13:57:34.993Z</time></trkpt><trkpt lat="43.071588" lon="12.3176139"><ele>240.33333333333331</ele><time>2026-04-09T13:57:35.993Z</time></trkpt><trkpt lat="43.0715619" lon="12.3175043"><ele>240.16666666666666</ele><time>2026-04-09T13:57:36.993Z</time></trkpt><trkpt lat="43.0715413" lon="12.3174045"><ele>240.0</ele><time>2026-04-09T13:57:37.993Z</time></trkpt><trkpt lat="43.0715154" lon="12.3173058"><ele>239.83333333333334</ele><time>2026-04-09T13:57:38.993Z</time></trkpt><trkpt lat="43.0714754" lon="12.317207"><ele>239.66666666666669</ele><time>2026-04-09T13:57:39.993Z</time></trkpt><trkpt lat="43.0714329" lon="12.3171246"><ele>239.5</ele><time>2026-04-09T13:57:40.993Z</time></trkpt><trkpt lat="43.0713871" lon="12.3170603"><ele>239.33333333333334</ele><time>2026-04-09T13:57:41.991Z</time></trkpt><trkpt lat="43.0713354" lon="12.3170068"><ele>239.16666666666669</ele><time>2026-04-09T13:57:42.992Z</time></trkpt><trkpt lat="43.0712816" lon="12.3169577"><ele>239.0</ele><time>2026-04-09T13:57:43.993Z</time></trkpt><trkpt lat="43.0711907" lon="12.3168604"><ele>239.0</ele><time>2026-04-09T13:57:45.992Z</time></trkpt><trkpt lat="43.0711492" lon="12.3167828"><ele>238.99999999999997</ele><time>2026-04-09T13:57:46.993Z</time></trkpt><trkpt lat="43.0711105" lon="12.3166782"><ele>238.99999999999997</ele><time>2026-04-09T13:57:47.993Z</time></trkpt><trkpt lat="43.0710551" lon="12.3165552"><ele>239.0</ele><time>2026-04-09T13:57:48.993Z</time></trkpt><trkpt lat="43.0709861" lon="12.3164179"><ele>239.0</ele><time>2026-04-09T13:57:49.993Z</time></trkpt><trkpt lat="43.0709053" lon="12.3162689"><ele>238.75</ele><time>2026-04-09T13:57:50.992Z</time></trkpt><trkpt lat="43.0708258" lon="12.3161065"><ele>238.5</ele><time>2026-04-09T13:57:51.992Z</time></trkpt><trkpt lat="43.0707457" lon="12.3159371"><ele>238.25</ele><time>2026-04-09T13:57:52.992Z</time></trkpt><trkpt lat="43.0706576" lon="12.3157624"><ele>238.0</ele><time>2026-04-09T13:57:53.993Z</time></trkpt><trkpt lat="43.0705826" lon="12.3155895"><ele>237.75</ele><time>2026-04-09T13:57:54.992Z</time></trkpt><trkpt lat="43.0705061" lon="12.3154261"><ele>237.5</ele><time>2026-04-09T13:57:55.992Z</time></trkpt><trkpt lat="43.0704369" lon="12.3152788"><ele>237.25</ele><time>2026-04-09T13:57:56.993Z</time></trkpt><trkpt lat="43.0703637" lon="12.3151302"><ele>237.0</ele><time>2026-04-09T13:57:57.993Z</time></trkpt><trkpt lat="43.070287" lon="12.3149769"><ele>237.0</ele><time>2026-04-09T13:57:58.992Z</time></trkpt><trkpt lat="43.070216" lon="12.3148272"><ele>237.0</ele><time>2026-04-09T13:57:59.993Z</time></trkpt><trkpt lat="43.0701524" lon="12.3146783"><ele>237.0</ele><time>2026-04-09T13:58:00.992Z</time></trkpt><trkpt lat="43.0700881" lon="12.3145269"><ele>237.0</ele><time>2026-04-09T13:58:01.993Z</time></trkpt><trkpt lat="43.0700241" lon="12.3143855"><ele>236.5</ele><time>2026-04-09T13:58:02.993Z</time></trkpt><trkpt lat="43.0699583" lon="12.314251"><ele>236.0</ele><time>2026-04-09T13:58:03.993Z</time></trkpt><trkpt lat="43.0698947" lon="12.3141201"><ele>235.5</ele><time>2026-04-09T13:58:04.993Z</time></trkpt><trkpt lat="43.0698297" lon="12.3139898"><ele>235.0</ele><time>2026-04-09T13:58:05.993Z</time></trkpt><trkpt lat="43.0697603" lon="12.3138537"><ele>234.5</ele><time>2026-04-09T13:58:06.993Z</time></trkpt><trkpt lat="43.0697093" lon="12.3136933"><ele>234.0</ele><time>2026-04-09T13:58:07.993Z</time></trkpt><trkpt lat="43.0696281" lon="12.3135357"><ele>233.5</ele><time>2026-04-09T13:58:08.992Z</time></trkpt><trkpt lat="43.0695435" lon="12.3133543"><ele>233.0</ele><time>2026-04-09T13:58:09.993Z</time></trkpt><trkpt lat="43.0694649" lon="12.3131854"><ele>234.5</ele><time>2026-04-09T13:58:10.992Z</time></trkpt><trkpt lat="43.0693928" lon="12.3130275"><ele>236.0</ele><time>2026-04-09T13:58:11.993Z</time></trkpt><trkpt lat="43.0693255" lon="12.3128682"><ele>237.5</ele><time>2026-04-09T13:58:12.992Z</time></trkpt><trkpt lat="43.0692593" lon="12.3127359"><ele>239.0</ele><time>2026-04-09T13:58:13.993Z</time></trkpt><trkpt lat="43.0691946" lon="12.3126076"><ele>239.0</ele><time>2026-04-09T13:58:14.993Z</time></trkpt><trkpt lat="43.069143" lon="12.3124936"><ele>238.99999999999997</ele><time>2026-04-09T13:58:15.992Z</time></trkpt><trkpt lat="43.0690853" lon="12.3123747"><ele>238.99999999999997</ele><time>2026-04-09T13:58:16.992Z</time></trkpt><trkpt lat="43.0690276" lon="12.3122648"><ele>239.0</ele><time>2026-04-09T13:58:17.992Z</time></trkpt><trkpt lat="43.0689783" lon="12.3121826"><ele>239.0</ele><time>2026-04-09T13:58:18.993Z</time></trkpt><trkpt lat="43.0689193" lon="12.3121097"><ele>239.00000000000003</ele><time>2026-04-09T13:58:19.993Z</time></trkpt><trkpt lat="43.0688725" lon="12.3120399"><ele>239.0</ele><time>2026-04-09T13:58:20.993Z</time></trkpt><trkpt lat="43.0688332" lon="12.3119567"><ele>239.00000000000003</ele><time>2026-04-09T13:58:21.992Z</time></trkpt><trkpt lat="43.068802" lon="12.3118711"><ele>239.00000000000003</ele><time>2026-04-09T13:58:22.992Z</time></trkpt><trkpt lat="43.0687831" lon="12.3117755"><ele>239.0</ele><time>2026-04-09T13:58:23.992Z</time></trkpt><trkpt lat="43.068773" lon="12.3116753"><ele>239.00000000000003</ele><time>2026-04-09T13:58:24.993Z</time></trkpt><trkpt lat="43.0687349" lon="12.3115925"><ele>239.00000000000003</ele><time>2026-04-09T13:58:25.993Z</time></trkpt><trkpt lat="43.0686785" lon="12.3115079"><ele>239.25</ele><time>2026-04-09T13:58:26.993Z</time></trkpt><trkpt lat="43.068603" lon="12.3113985"><ele>239.5</ele><time>2026-04-09T13:58:27.992Z</time></trkpt><trkpt lat="43.0685329" lon="12.3112282"><ele>239.75</ele><time>2026-04-09T13:58:28.993Z</time></trkpt><trkpt lat="43.0684674" lon="12.3110236"><ele>240.0</ele><time>2026-04-09T13:58:29.993Z</time></trkpt><trkpt lat="43.0683779" lon="12.310808"><ele>240.0</ele><time>2026-04-09T13:58:30.993Z</time></trkpt><trkpt lat="43.0682699" lon="12.3105758"><ele>240.0</ele><time>2026-04-09T13:58:31.993Z</time></trkpt><trkpt lat="43.0681568" lon="12.31033"><ele>240.0</ele><time>2026-04-09T13:58:32.992Z</time></trkpt><trkpt lat="43.0680442" lon="12.3100895"><ele>240.0</ele><time>2026-04-09T13:58:33.993Z</time></trkpt><trkpt lat="43.0679376" lon="12.3098514"><ele>240.0</ele><time>2026-04-09T13:58:34.992Z</time></trkpt><trkpt lat="43.0678325" lon="12.3096215"><ele>240.0</ele><time>2026-04-09T13:58:35.993Z</time></trkpt><trkpt lat="43.0677289" lon="12.3094019"><ele>242.0</ele><time>2026-04-09T13:58:36.992Z</time></trkpt><trkpt lat="43.067626" lon="12.3091827"><ele>244.0</ele><time>2026-04-09T13:58:37.993Z</time></trkpt><trkpt lat="43.0675278" lon="12.3089616"><ele>246.0</ele><time>2026-04-09T13:58:38.993Z</time></trkpt><trkpt lat="43.0674218" lon="12.3087415"><ele>246.33333333333331</ele><time>2026-04-09T13:58:39.993Z</time></trkpt><trkpt lat="43.0673225" lon="12.3085273"><ele>246.66666666666666</ele><time>2026-04-09T13:58:40.991Z</time></trkpt><trkpt lat="43.067223" lon="12.3083128"><ele>247.0</ele><time>2026-04-09T13:58:41.992Z</time></trkpt><trkpt lat="43.0671307" lon="12.3081098"><ele>246.0</ele><time>2026-04-09T13:58:42.993Z</time></trkpt><trkpt lat="43.0670461" lon="12.3079046"><ele>245.0</ele><time>2026-04-09T13:58:43.993Z</time></trkpt><trkpt lat="43.0669527" lon="12.3077089"><ele>244.0</ele><time>2026-04-09T13:58:44.993Z</time></trkpt><trkpt lat="43.0668665" lon="12.3075221"><ele>244.0</ele><time>2026-04-09T13:58:45.992Z</time></trkpt><trkpt lat="43.0667778" lon="12.3073309"><ele>244.0</ele><time>2026-04-09T13:58:46.993Z</time></trkpt><trkpt lat="43.0666855" lon="12.307135"><ele>244.0</ele><time>2026-04-09T13:58:47.993Z</time></trkpt><trkpt lat="43.0665964" lon="12.3069483"><ele>243.33333333333331</ele><time>2026-04-09T13:58:48.992Z</time></trkpt><trkpt lat="43.0665152" lon="12.306759"><ele>242.66666666666669</ele><time>2026-04-09T13:58:49.993Z</time></trkpt><trkpt lat="43.0664303" lon="12.3065861"><ele>242.0</ele><time>2026-04-09T13:58:50.993Z</time></trkpt><trkpt lat="43.0663652" lon="12.3064122"><ele>241.39999999999998</ele><time>2026-04-09T13:58:51.993Z</time></trkpt><trkpt lat="43.0663131" lon="12.3062675"><ele>240.79999999999998</ele><time>2026-04-09T13:58:52.993Z</time></trkpt><trkpt lat="43.0662869" lon="12.3061367"><ele>240.2</ele><time>2026-04-09T13:58:53.993Z</time></trkpt><trkpt lat="43.0662572" lon="12.3060067"><ele>239.6</ele><time>2026-04-09T13:58:54.993Z</time></trkpt><trkpt lat="43.0662145" lon="12.3058829"><ele>239.0</ele><time>2026-04-09T13:58:55.992Z</time></trkpt><trkpt lat="43.0661629" lon="12.305761"><ele>239.00000000000003</ele><time>2026-04-09T13:58:56.993Z</time></trkpt><trkpt lat="43.0661153" lon="12.3056492"><ele>239.0</ele><time>2026-04-09T13:58:57.993Z</time></trkpt><trkpt lat="43.066068" lon="12.305538"><ele>239.0</ele><time>2026-04-09T13:58:58.993Z</time></trkpt><trkpt lat="43.0660331" lon="12.3054411"><ele>239.0</ele><time>2026-04-09T13:58:59.993Z</time></trkpt><trkpt lat="43.0660119" lon="12.305345"><ele>239.00000000000003</ele><time>2026-04-09T13:59:00.993Z</time></trkpt><trkpt lat="43.0659932" lon="12.3052457"><ele>239.0</ele><time>2026-04-09T13:59:01.992Z</time></trkpt><trkpt lat="43.0659335" lon="12.3051687"><ele>239.00000000000003</ele><time>2026-04-09T13:59:03.993Z</time></trkpt><trkpt lat="43.0658721" lon="12.3052206"><ele>239.0</ele><time>2026-04-09T13:59:06.992Z</time></trkpt><trkpt lat="43.065882" lon="12.3053353"><ele>239.0</ele><time>2026-04-09T13:59:08.993Z</time></trkpt><trkpt lat="43.065924" lon="12.3054179"><ele>239.0</ele><time>2026-04-09T13:59:09.993Z</time></trkpt><trkpt lat="43.0659603" lon="12.3055112"><ele>239.00000000000003</ele><time>2026-04-09T13:59:10.993Z</time></trkpt><trkpt lat="43.0659987" lon="12.3056291"><ele>239.0</ele><time>2026-04-09T13:59:11.993Z</time></trkpt><trkpt lat="43.0660512" lon="12.3057335"><ele>239.0</ele><time>2026-04-09T13:59:12.993Z</time></trkpt><trkpt lat="43.0661047" lon="12.3058548"><ele>238.99999999999997</ele><time>2026-04-09T13:59:13.993Z</time></trkpt><trkpt lat="43.0661608" lon="12.3059738"><ele>238.99999999999997</ele><time>2026-04-09T13:59:14.993Z</time></trkpt><trkpt lat="43.0662156" lon="12.3060986"><ele>239.0</ele><time>2026-04-09T13:59:15.993Z</time></trkpt><trkpt lat="43.0662733" lon="12.30623"><ele>239.0</ele><time>2026-04-09T13:59:16.993Z</time></trkpt><trkpt lat="43.0663347" lon="12.3063725"><ele>239.75</ele><time>2026-04-09T13:59:17.993Z</time></trkpt><trkpt lat="43.0663945" lon="12.3065258"><ele>240.5</ele><time>2026-04-09T13:59:18.993Z</time></trkpt><trkpt lat="43.0664643" lon="12.3066707"><ele>241.25</ele><time>2026-04-09T13:59:19.993Z</time></trkpt><trkpt lat="43.0665328" lon="12.3068152"><ele>242.0</ele><time>2026-04-09T13:59:20.993Z</time></trkpt><trkpt lat="43.0665973" lon="12.3069631"><ele>242.25</ele><time>2026-04-09T13:59:21.992Z</time></trkpt><trkpt lat="43.0666578" lon="12.3071037"><ele>242.5</ele><time>2026-04-09T13:59:22.993Z</time></trkpt><trkpt lat="43.0667179" lon="12.3072366"><ele>242.75</ele><time>2026-04-09T13:59:23.993Z</time></trkpt><trkpt lat="43.066778" lon="12.3073722"><ele>243.0</ele><time>2026-04-09T13:59:24.992Z</time></trkpt><trkpt lat="43.0668435" lon="12.3075092"><ele>243.25</ele><time>2026-04-09T13:59:25.993Z</time></trkpt><trkpt lat="43.0669103" lon="12.3076489"><ele>243.5</ele><time>2026-04-09T13:59:26.993Z</time></trkpt><trkpt lat="43.0669689" lon="12.3077928"><ele>243.75</ele><time>2026-04-09T13:59:27.993Z</time></trkpt><trkpt lat="43.067024" lon="12.3079447"><ele>244.0</ele><time>2026-04-09T13:59:28.993Z</time></trkpt><trkpt lat="43.0670643" lon="12.3081"><ele>244.75</ele><time>2026-04-09T13:59:29.992Z</time></trkpt><trkpt lat="43.0671331" lon="12.3082438"><ele>245.5</ele><time>2026-04-09T13:59:30.993Z</time></trkpt><trkpt lat="43.0672065" lon="12.3083936"><ele>246.25</ele><time>2026-04-09T13:59:31.992Z</time></trkpt><trkpt lat="43.0672786" lon="12.3085524"><ele>247.0</ele><time>2026-04-09T13:59:32.993Z</time></trkpt><trkpt lat="43.0673549" lon="12.3087283"><ele>246.66666666666666</ele><time>2026-04-09T13:59:33.992Z</time></trkpt><trkpt lat="43.0674454" lon="12.3089141"><ele>246.33333333333331</ele><time>2026-04-09T13:59:34.993Z</time></trkpt><trkpt lat="43.0675326" lon="12.3090968"><ele>246.0</ele><time>2026-04-09T13:59:35.993Z</time></trkpt><trkpt lat="43.0676146" lon="12.3092753"><ele>246.0</ele><time>2026-04-09T13:59:36.993Z</time></trkpt><trkpt lat="43.0677015" lon="12.3094415"><ele>246.0</ele><time>2026-04-09T13:59:37.993Z</time></trkpt><trkpt lat="43.0677872" lon="12.3096149"><ele>246.0</ele><time>2026-04-09T13:59:38.993Z</time></trkpt><trkpt lat="43.0678815" lon="12.3097889"><ele>244.0</ele><time>2026-04-09T13:59:39.992Z</time></trkpt><trkpt lat="43.0679649" lon="12.3099716"><ele>242.0</ele><time>2026-04-09T13:59:40.993Z</time></trkpt><trkpt lat="43.068052" lon="12.3101527"><ele>240.0</ele><time>2026-04-09T13:59:41.993Z</time></trkpt><trkpt lat="43.0681416" lon="12.3103361"><ele>240.0</ele><time>2026-04-09T13:59:42.993Z</time></trkpt><trkpt lat="43.0682192" lon="12.310509"><ele>240.0</ele><time>2026-04-09T13:59:43.993Z</time></trkpt><trkpt lat="43.0682896" lon="12.3106663"><ele>240.0</ele><time>2026-04-09T13:59:44.993Z</time></trkpt><trkpt lat="43.0683578" lon="12.3108151"><ele>240.0</ele><time>2026-04-09T13:59:45.993Z</time></trkpt><trkpt lat="43.0684192" lon="12.3109583"><ele>240.0</ele><time>2026-04-09T13:59:46.993Z</time></trkpt><trkpt lat="43.0684683" lon="12.3111024"><ele>240.0</ele><time>2026-04-09T13:59:47.993Z</time></trkpt><trkpt lat="43.0685061" lon="12.3112559"><ele>240.0</ele><time>2026-04-09T13:59:48.993Z</time></trkpt><trkpt lat="43.0685214" lon="12.3113921"><ele>240.0</ele><time>2026-04-09T13:59:49.993Z</time></trkpt><trkpt lat="43.0685173" lon="12.3114942"><ele>240.0</ele><time>2026-04-09T13:59:50.993Z</time></trkpt><trkpt lat="43.0684981" lon="12.3115786"><ele>239.83333333333334</ele><time>2026-04-09T13:59:51.993Z</time></trkpt><trkpt lat="43.0684804" lon="12.3116658"><ele>239.66666666666669</ele><time>2026-04-09T13:59:52.992Z</time></trkpt><trkpt lat="43.0684634" lon="12.3117552"><ele>239.5</ele><time>2026-04-09T13:59:53.993Z</time></trkpt><trkpt lat="43.0684456" lon="12.3118519"><ele>239.33333333333334</ele><time>2026-04-09T13:59:54.992Z</time></trkpt><trkpt lat="43.0684138" lon="12.3119566"><ele>239.16666666666669</ele><time>2026-04-09T13:59:55.993Z</time></trkpt><trkpt lat="43.0683475" lon="12.3120611"><ele>239.0</ele><time>2026-04-09T13:59:56.991Z</time></trkpt><trkpt lat="43.0682891" lon="12.3121451"><ele>238.83333333333334</ele><time>2026-04-09T13:59:57.992Z</time></trkpt><trkpt lat="43.0682125" lon="12.3122164"><ele>238.66666666666669</ele><time>2026-04-09T13:59:58.993Z</time></trkpt><trkpt lat="43.0681308" lon="12.3122966"><ele>238.5</ele><time>2026-04-09T13:59:59.993Z</time></trkpt><trkpt lat="43.0680554" lon="12.312365"><ele>238.33333333333331</ele><time>2026-04-09T14:00:00.992Z</time></trkpt><trkpt lat="43.067978" lon="12.3124276"><ele>238.16666666666666</ele><time>2026-04-09T14:00:01.993Z</time></trkpt><trkpt lat="43.0679076" lon="12.3124557"><ele>238.0</ele><time>2026-04-09T14:00:02.992Z</time></trkpt><trkpt lat="43.0678371" lon="12.3124552"><ele>237.83333333333331</ele><time>2026-04-09T14:00:03.993Z</time></trkpt><trkpt lat="43.0677602" lon="12.312448"><ele>237.66666666666666</ele><time>2026-04-09T14:00:04.993Z</time></trkpt><trkpt lat="43.0676953" lon="12.3124501"><ele>237.5</ele><time>2026-04-09T14:00:05.993Z</time></trkpt><trkpt lat="43.067635" lon="12.3124818"><ele>237.33333333333331</ele><time>2026-04-09T14:00:06.993Z</time></trkpt><trkpt lat="43.0675816" lon="12.3125501"><ele>237.16666666666666</ele><time>2026-04-09T14:00:07.993Z</time></trkpt><trkpt lat="43.0675424" lon="12.3126195"><ele>237.0</ele><time>2026-04-09T14:00:08.993Z</time></trkpt><trkpt lat="43.0674452" lon="12.3127191"><ele>237.8</ele><time>2026-04-09T14:00:10.993Z</time></trkpt><trkpt lat="43.0673745" lon="12.3127402"><ele>238.6</ele><time>2026-04-09T14:00:11.992Z</time></trkpt><trkpt lat="43.0672947" lon="12.3127356"><ele>239.40000000000003</ele><time>2026-04-09T14:00:12.992Z</time></trkpt><trkpt lat="43.0672077" lon="12.3127152"><ele>240.20000000000002</ele><time>2026-04-09T14:00:13.993Z</time></trkpt><trkpt lat="43.0670554" lon="12.3126668"><ele>241.0</ele><time>2026-04-09T14:00:14.992Z</time></trkpt><trkpt lat="43.0668651" lon="12.3125834"><ele>241.0</ele><time>2026-04-09T14:00:15.992Z</time></trkpt><trkpt lat="43.0666911" lon="12.3125037"><ele>241.0</ele><time>2026-04-09T14:00:16.993Z</time></trkpt><trkpt lat="43.066528" lon="12.3124165"><ele>241.0</ele><time>2026-04-09T14:00:17.993Z</time></trkpt><trkpt lat="43.0663709" lon="12.3123275"><ele>241.0</ele><time>2026-04-09T14:00:18.993Z</time></trkpt><trkpt lat="43.0662156" lon="12.3122548"><ele>241.0</ele><time>2026-04-09T14:00:19.993Z</time></trkpt><trkpt lat="43.0660709" lon="12.3121733"><ele>241.0</ele><time>2026-04-09T14:00:20.993Z</time></trkpt><trkpt lat="43.065935" lon="12.3120939"><ele>241.0</ele><time>2026-04-09T14:00:21.991Z</time></trkpt><trkpt lat="43.0657968" lon="12.312031"><ele>241.0</ele><time>2026-04-09T14:00:22.992Z</time></trkpt><trkpt lat="43.0656779" lon="12.3119719"><ele>241.0</ele><time>2026-04-09T14:00:23.993Z</time></trkpt><trkpt lat="43.0655604" lon="12.3119109"><ele>241.0</ele><time>2026-04-09T14:00:24.993Z</time></trkpt><trkpt lat="43.0654776" lon="12.31187"><ele>241.0</ele><time>2026-04-09T14:00:25.994Z</time></trkpt><trkpt lat="43.0653629" lon="12.311798"><ele>241.0</ele><time>2026-04-09T14:00:26.993Z</time></trkpt><trkpt lat="43.0652627" lon="12.311718"><ele>241.0</ele><time>2026-04-09T14:00:27.992Z</time></trkpt><trkpt lat="43.0651657" lon="12.3116451"><ele>241.0</ele><time>2026-04-09T14:00:28.992Z</time></trkpt><trkpt lat="43.0650574" lon="12.3115639"><ele>241.0</ele><time>2026-04-09T14:00:29.992Z</time></trkpt><trkpt lat="43.0649683" lon="12.3114767"><ele>241.0</ele><time>2026-04-09T14:00:30.992Z</time></trkpt><trkpt lat="43.0648669" lon="12.311378"><ele>241.0</ele><time>2026-04-09T14:00:31.993Z</time></trkpt><trkpt lat="43.0647695" lon="12.3112494"><ele>241.0</ele><time>2026-04-09T14:00:32.992Z</time></trkpt><trkpt lat="43.0646548" lon="12.3111344"><ele>241.33333333333331</ele><time>2026-04-09T14:00:33.993Z</time></trkpt><trkpt lat="43.064526" lon="12.3110094"><ele>241.66666666666669</ele><time>2026-04-09T14:00:34.993Z</time></trkpt><trkpt lat="43.0643818" lon="12.3108868"><ele>242.0</ele><time>2026-04-09T14:00:35.993Z</time></trkpt><trkpt lat="43.0642347" lon="12.310743"><ele>241.66666666666669</ele><time>2026-04-09T14:00:36.993Z</time></trkpt><trkpt lat="43.0640896" lon="12.3105985"><ele>241.33333333333331</ele><time>2026-04-09T14:00:37.993Z</time></trkpt><trkpt lat="43.0639587" lon="12.3104705"><ele>241.0</ele><time>2026-04-09T14:00:38.992Z</time></trkpt><trkpt lat="43.0638348" lon="12.3103587"><ele>241.0</ele><time>2026-04-09T14:00:39.992Z</time></trkpt><trkpt lat="43.0637209" lon="12.3102545"><ele>241.0</ele><time>2026-04-09T14:00:40.991Z</time></trkpt><trkpt lat="43.0635951" lon="12.3101647"><ele>241.0</ele><time>2026-04-09T14:00:41.993Z</time></trkpt><trkpt lat="43.0634655" lon="12.3100726"><ele>241.0</ele><time>2026-04-09T14:00:42.992Z</time></trkpt><trkpt lat="43.0633496" lon="12.3099907"><ele>241.0</ele><time>2026-04-09T14:00:43.993Z</time></trkpt><trkpt lat="43.0632358" lon="12.309923"><ele>241.0</ele><time>2026-04-09T14:00:44.993Z</time></trkpt><trkpt lat="43.0631205" lon="12.3098619"><ele>241.0</ele><time>2026-04-09T14:00:45.992Z</time></trkpt><trkpt lat="43.0630163" lon="12.3097882"><ele>241.0</ele><time>2026-04-09T14:00:46.992Z</time></trkpt><trkpt lat="43.0629141" lon="12.3097306"><ele>241.0</ele><time>2026-04-09T14:00:47.993Z</time></trkpt><trkpt lat="43.0628044" lon="12.3096511"><ele>241.0</ele><time>2026-04-09T14:00:48.993Z</time></trkpt><trkpt lat="43.0626962" lon="12.309574"><ele>241.0</ele><time>2026-04-09T14:00:49.993Z</time></trkpt><trkpt lat="43.0625882" lon="12.309494"><ele>241.0</ele><time>2026-04-09T14:00:50.993Z</time></trkpt><trkpt lat="43.062495" lon="12.3094259"><ele>241.25</ele><time>2026-04-09T14:00:51.992Z</time></trkpt><trkpt lat="43.0623873" lon="12.3093443"><ele>241.5</ele><time>2026-04-09T14:00:52.993Z</time></trkpt><trkpt lat="43.0622868" lon="12.3092492"><ele>241.75</ele><time>2026-04-09T14:00:53.992Z</time></trkpt><trkpt lat="43.0621912" lon="12.3091332"><ele>242.0</ele><time>2026-04-09T14:00:54.993Z</time></trkpt><trkpt lat="43.0620909" lon="12.3090341"><ele>242.0</ele><time>2026-04-09T14:00:55.993Z</time></trkpt><trkpt lat="43.0619948" lon="12.3089295"><ele>242.0</ele><time>2026-04-09T14:00:56.992Z</time></trkpt><trkpt lat="43.0619149" lon="12.3088335"><ele>242.0</ele><time>2026-04-09T14:00:57.992Z</time></trkpt><trkpt lat="43.0618416" lon="12.3087442"><ele>242.0</ele><time>2026-04-09T14:00:58.992Z</time></trkpt><trkpt lat="43.0617596" lon="12.3086416"><ele>242.0</ele><time>2026-04-09T14:00:59.992Z</time></trkpt><trkpt lat="43.0616581" lon="12.3085461"><ele>241.75</ele><time>2026-04-09T14:01:00.993Z</time></trkpt><trkpt lat="43.0615661" lon="12.3084477"><ele>241.5</ele><time>2026-04-09T14:01:01.993Z</time></trkpt><trkpt lat="43.0614693" lon="12.3083589"><ele>241.25</ele><time>2026-04-09T14:01:02.993Z</time></trkpt><trkpt lat="43.0613796" lon="12.3082682"><ele>241.0</ele><time>2026-04-09T14:01:03.993Z</time></trkpt><trkpt lat="43.0612762" lon="12.3081844"><ele>241.0</ele><time>2026-04-09T14:01:04.992Z</time></trkpt><trkpt lat="43.0611716" lon="12.3081019"><ele>241.0</ele><time>2026-04-09T14:01:05.993Z</time></trkpt><trkpt lat="43.0610663" lon="12.3080001"><ele>241.0</ele><time>2026-04-09T14:01:06.993Z</time></trkpt><trkpt lat="43.0609485" lon="12.307898"><ele>241.0</ele><time>2026-04-09T14:01:07.993Z</time></trkpt><trkpt lat="43.0608256" lon="12.3077742"><ele>240.75</ele><time>2026-04-09T14:01:08.993Z</time></trkpt><trkpt lat="43.0607054" lon="12.307663"><ele>240.5</ele><time>2026-04-09T14:01:09.993Z</time></trkpt><trkpt lat="43.0605872" lon="12.3075714"><ele>240.25</ele><time>2026-04-09T14:01:10.993Z</time></trkpt><trkpt lat="43.0604845" lon="12.3074762"><ele>240.0</ele><time>2026-04-09T14:01:11.992Z</time></trkpt><trkpt lat="43.0603868" lon="12.3073952"><ele>240.0</ele><time>2026-04-09T14:01:12.993Z</time></trkpt><trkpt lat="43.060295" lon="12.3073128"><ele>240.0</ele><time>2026-04-09T14:01:13.993Z</time></trkpt><trkpt lat="43.0602064" lon="12.3072323"><ele>240.0</ele><time>2026-04-09T14:01:14.992Z</time></trkpt><trkpt lat="43.0601216" lon="12.3071528"><ele>240.0</ele><time>2026-04-09T14:01:15.992Z</time></trkpt><trkpt lat="43.0600481" lon="12.307085"><ele>240.0</ele><time>2026-04-09T14:01:16.994Z</time></trkpt><trkpt lat="43.0599717" lon="12.3070198"><ele>240.16666666666666</ele><time>2026-04-09T14:01:17.992Z</time></trkpt><trkpt lat="43.0598973" lon="12.3069475"><ele>240.33333333333331</ele><time>2026-04-09T14:01:18.993Z</time></trkpt><trkpt lat="43.059839" lon="12.3068766"><ele>240.5</ele><time>2026-04-09T14:01:19.993Z</time></trkpt><trkpt lat="43.0597675" lon="12.3068094"><ele>240.66666666666666</ele><time>2026-04-09T14:01:20.993Z</time></trkpt><trkpt lat="43.0597137" lon="12.3067376"><ele>240.83333333333331</ele><time>2026-04-09T14:01:21.993Z</time></trkpt><trkpt lat="43.0596541" lon="12.3066818"><ele>241.0</ele><time>2026-04-09T14:01:22.993Z</time></trkpt><trkpt lat="43.0595724" lon="12.3065667"><ele>240.99999999999997</ele><time>2026-04-09T14:01:24.993Z</time></trkpt><trkpt lat="43.0595432" lon="12.3064731"><ele>241.0</ele><time>2026-04-09T14:01:25.992Z</time></trkpt><trkpt lat="43.0595056" lon="12.3063956"><ele>241.0</ele><time>2026-04-09T14:01:26.992Z</time></trkpt><trkpt lat="43.0594545" lon="12.3062703"><ele>241.0</ele><time>2026-04-09T14:01:28.993Z</time></trkpt><trkpt lat="43.0594353" lon="12.3061799"><ele>240.99999999999997</ele><time>2026-04-09T14:01:30.992Z</time></trkpt><trkpt lat="43.059417" lon="12.3060246"><ele>241.0</ele><time>2026-04-09T14:01:33.994Z</time></trkpt><trkpt lat="43.0593928" lon="12.3058494"><ele>240.99999999999997</ele><time>2026-04-09T14:01:35.993Z</time></trkpt><trkpt lat="43.0593798" lon="12.3057525"><ele>241.0</ele><time>2026-04-09T14:01:36.992Z</time></trkpt><trkpt lat="43.0593858" lon="12.305631"><ele>241.0</ele><time>2026-04-09T14:01:37.993Z</time></trkpt><trkpt lat="43.0593675" lon="12.3055181"><ele>241.0</ele><time>2026-04-09T14:01:38.993Z</time></trkpt><trkpt lat="43.059348" lon="12.3054017"><ele>240.99999999999997</ele><time>2026-04-09T14:01:39.993Z</time></trkpt><trkpt lat="43.0593457" lon="12.3052859"><ele>241.0</ele><time>2026-04-09T14:01:40.992Z</time></trkpt><trkpt lat="43.0593376" lon="12.3051793"><ele>240.60000000000002</ele><time>2026-04-09T14:01:41.992Z</time></trkpt><trkpt lat="43.0593399" lon="12.305056"><ele>240.20000000000002</ele><time>2026-04-09T14:01:43.992Z</time></trkpt><trkpt lat="43.0592347" lon="12.3050449"><ele>239.79999999999998</ele><time>2026-04-09T14:01:45.993Z</time></trkpt><trkpt lat="43.0591255" lon="12.305106"><ele>239.39999999999998</ele><time>2026-04-09T14:01:47.993Z</time></trkpt><trkpt lat="43.0590391" lon="12.3051918"><ele>239.0</ele><time>2026-04-09T14:01:49.992Z</time></trkpt><trkpt lat="43.0589744" lon="12.305305"><ele>238.79999999999998</ele><time>2026-04-09T14:01:51.993Z</time></trkpt><trkpt lat="43.0589372" lon="12.3053782"><ele>238.59999999999997</ele><time>2026-04-09T14:01:52.993Z</time></trkpt><trkpt lat="43.058874" lon="12.3055091"><ele>238.4</ele><time>2026-04-09T14:01:54.992Z</time></trkpt><trkpt lat="43.0587964" lon="12.3056"><ele>238.2</ele><time>2026-04-09T14:01:56.992Z</time></trkpt><trkpt lat="43.058729" lon="12.30562"><ele>238.0</ele><time>2026-04-09T14:01:57.994Z</time></trkpt><trkpt lat="43.0586017" lon="12.3055068"><ele>237.0</ele><time>2026-04-09T14:02:00.993Z</time></trkpt><trkpt lat="43.0585478" lon="12.3054571"><ele>236.0</ele><time>2026-04-09T14:02:01.993Z</time></trkpt><trkpt lat="43.0584467" lon="12.3054004"><ele>235.0</ele><time>2026-04-09T14:02:02.993Z</time></trkpt><trkpt lat="43.0583753" lon="12.3053906"><ele>234.0</ele><time>2026-04-09T14:02:03.992Z</time></trkpt><trkpt lat="43.0581021" lon="12.3052981"><ele>232.0</ele><time>2026-04-09T14:02:04.994Z</time></trkpt><trkpt lat="43.0578447" lon="12.3052209"><ele>230.0</ele><time>2026-04-09T14:02:05.992Z</time></trkpt><trkpt lat="43.0576697" lon="12.3051535"><ele>228.0</ele><time>2026-04-09T14:02:06.993Z</time></trkpt><trkpt lat="43.0574493" lon="12.3050734"><ele>226.33333333333331</ele><time>2026-04-09T14:02:07.993Z</time></trkpt><trkpt lat="43.0572642" lon="12.3049739"><ele>224.66666666666666</ele><time>2026-04-09T14:02:08.993Z</time></trkpt><trkpt lat="43.0570497" lon="12.3048502"><ele>223.0</ele><time>2026-04-09T14:02:09.994Z</time></trkpt><trkpt lat="43.0568543" lon="12.304701"><ele>223.5</ele><time>2026-04-09T14:02:10.992Z</time></trkpt><trkpt lat="43.0566599" lon="12.3045485"><ele>224.0</ele><time>2026-04-09T14:02:11.993Z</time></trkpt><trkpt lat="43.056474" lon="12.3043694"><ele>224.0</ele><time>2026-04-09T14:02:12.993Z</time></trkpt><trkpt lat="43.0562809" lon="12.3041871"><ele>224.0</ele><time>2026-04-09T14:02:13.993Z</time></trkpt><trkpt lat="43.0560917" lon="12.3039829"><ele>223.5</ele><time>2026-04-09T14:02:14.992Z</time></trkpt><trkpt lat="43.0558991" lon="12.3037651"><ele>223.0</ele><time>2026-04-09T14:02:15.993Z</time></trkpt><trkpt lat="43.055709" lon="12.3035306"><ele>226.0</ele><time>2026-04-09T14:02:16.992Z</time></trkpt><trkpt lat="43.05552" lon="12.3032985"><ele>229.0</ele><time>2026-04-09T14:02:17.993Z</time></trkpt><trkpt lat="43.0553326" lon="12.3030762"><ele>229.0</ele><time>2026-04-09T14:02:18.993Z</time></trkpt><trkpt lat="43.0551559" lon="12.3028727"><ele>229.0</ele><time>2026-04-09T14:02:19.992Z</time></trkpt><trkpt lat="43.0549952" lon="12.3026831"><ele>229.0</ele><time>2026-04-09T14:02:20.993Z</time></trkpt><trkpt lat="43.0548377" lon="12.3025002"><ele>232.33333333333331</ele><time>2026-04-09T14:02:21.993Z</time></trkpt><trkpt lat="43.0546848" lon="12.3023272"><ele>235.66666666666669</ele><time>2026-04-09T14:02:22.991Z</time></trkpt><trkpt lat="43.0545396" lon="12.3021584"><ele>239.0</ele><time>2026-04-09T14:02:23.992Z</time></trkpt><trkpt lat="43.054389" lon="12.3020132"><ele>239.33333333333334</ele><time>2026-04-09T14:02:24.993Z</time></trkpt><trkpt lat="43.054242" lon="12.3018687"><ele>239.66666666666669</ele><time>2026-04-09T14:02:25.993Z</time></trkpt><trkpt lat="43.0540889" lon="12.3017295"><ele>240.0</ele><time>2026-04-09T14:02:26.993Z</time></trkpt><trkpt lat="43.0539878" lon="12.3015684"><ele>242.0</ele><time>2026-04-09T14:02:27.994Z</time></trkpt><trkpt lat="43.0538799" lon="12.3013914"><ele>244.0</ele><time>2026-04-09T14:02:28.993Z</time></trkpt><trkpt lat="43.0537823" lon="12.3012035"><ele>246.0</ele><time>2026-04-09T14:02:29.993Z</time></trkpt><trkpt lat="43.0536934" lon="12.3010262"><ele>246.0</ele><time>2026-04-09T14:02:30.992Z</time></trkpt><trkpt lat="43.0535937" lon="12.3008543"><ele>246.0</ele><time>2026-04-09T14:02:31.992Z</time></trkpt><trkpt lat="43.0535035" lon="12.3006986"><ele>246.0</ele><time>2026-04-09T14:02:32.992Z</time></trkpt><trkpt lat="43.0534003" lon="12.3005473"><ele>245.5</ele><time>2026-04-09T14:02:33.993Z</time></trkpt><trkpt lat="43.0532934" lon="12.3004006"><ele>245.0</ele><time>2026-04-09T14:02:34.993Z</time></trkpt><trkpt lat="43.0531916" lon="12.3002619"><ele>244.5</ele><time>2026-04-09T14:02:35.993Z</time></trkpt><trkpt lat="43.0530929" lon="12.3001312"><ele>244.0</ele><time>2026-04-09T14:02:36.993Z</time></trkpt><trkpt lat="43.0530073" lon="12.2999898"><ele>246.75</ele><time>2026-04-09T14:02:37.993Z</time></trkpt><trkpt lat="43.0529264" lon="12.2998433"><ele>249.5</ele><time>2026-04-09T14:02:38.993Z</time></trkpt><trkpt lat="43.0528471" lon="12.2996971"><ele>252.25</ele><time>2026-04-09T14:02:39.992Z</time></trkpt><trkpt lat="43.0527668" lon="12.2995514"><ele>255.0</ele><time>2026-04-09T14:02:40.992Z</time></trkpt><trkpt lat="43.0526834" lon="12.299389"><ele>255.33333333333331</ele><time>2026-04-09T14:02:41.992Z</time></trkpt><trkpt lat="43.0526002" lon="12.2992156"><ele>255.66666666666666</ele><time>2026-04-09T14:02:42.993Z</time></trkpt><trkpt lat="43.0525257" lon="12.2990176"><ele>256.0</ele><time>2026-04-09T14:02:43.993Z</time></trkpt><trkpt lat="43.0524444" lon="12.2988043"><ele>257.0</ele><time>2026-04-09T14:02:44.993Z</time></trkpt><trkpt lat="43.0523682" lon="12.2985806"><ele>258.0</ele><time>2026-04-09T14:02:45.992Z</time></trkpt><trkpt lat="43.0522977" lon="12.2983357"><ele>259.0</ele><time>2026-04-09T14:02:46.993Z</time></trkpt><trkpt lat="43.0522246" lon="12.2981068"><ele>259.66666666666663</ele><time>2026-04-09T14:02:47.993Z</time></trkpt><trkpt lat="43.0521533" lon="12.29789"><ele>260.3333333333333</ele><time>2026-04-09T14:02:48.993Z</time></trkpt><trkpt lat="43.0520807" lon="12.2976855"><ele>261.0</ele><time>2026-04-09T14:02:49.992Z</time></trkpt><trkpt lat="43.0520299" lon="12.2974686"><ele>261.0</ele><time>2026-04-09T14:02:50.992Z</time></trkpt><trkpt lat="43.0519583" lon="12.2972614"><ele>261.0</ele><time>2026-04-09T14:02:51.993Z</time></trkpt><trkpt lat="43.0518736" lon="12.2970364"><ele>261.0</ele><time>2026-04-09T14:02:52.992Z</time></trkpt><trkpt lat="43.0517894" lon="12.2967942"><ele>261.0</ele><time>2026-04-09T14:02:53.993Z</time></trkpt><trkpt lat="43.051701" lon="12.2965569"><ele>261.0</ele><time>2026-04-09T14:02:54.993Z</time></trkpt><trkpt lat="43.0516104" lon="12.2963345"><ele>261.0</ele><time>2026-04-09T14:02:55.992Z</time></trkpt><trkpt lat="43.0515291" lon="12.2961306"><ele>260.3333333333333</ele><time>2026-04-09T14:02:56.993Z</time></trkpt><trkpt lat="43.0514521" lon="12.2959237"><ele>259.66666666666663</ele><time>2026-04-09T14:02:57.992Z</time></trkpt><trkpt lat="43.051393" lon="12.295707"><ele>259.0</ele><time>2026-04-09T14:02:58.993Z</time></trkpt><trkpt lat="43.0513626" lon="12.2954718"><ele>259.0</ele><time>2026-04-09T14:02:59.993Z</time></trkpt><trkpt lat="43.0513424" lon="12.2952332"><ele>259.0</ele><time>2026-04-09T14:03:00.992Z</time></trkpt><trkpt lat="43.0513309" lon="12.2949632"><ele>259.0</ele><time>2026-04-09T14:03:01.993Z</time></trkpt><trkpt lat="43.0513222" lon="12.2947249"><ele>258.66666666666663</ele><time>2026-04-09T14:03:02.993Z</time></trkpt><trkpt lat="43.0513055" lon="12.2944548"><ele>258.3333333333333</ele><time>2026-04-09T14:03:03.992Z</time></trkpt><trkpt lat="43.0512613" lon="12.2941907"><ele>258.0</ele><time>2026-04-09T14:03:04.993Z</time></trkpt><trkpt lat="43.0511972" lon="12.2939266"><ele>255.66666666666669</ele><time>2026-04-09T14:03:05.992Z</time></trkpt><trkpt lat="43.0511114" lon="12.2936622"><ele>253.33333333333334</ele><time>2026-04-09T14:03:06.993Z</time></trkpt><trkpt lat="43.0510524" lon="12.2934157"><ele>251.0</ele><time>2026-04-09T14:03:07.993Z</time></trkpt><trkpt lat="43.0509993" lon="12.2931803"><ele>251.33333333333334</ele><time>2026-04-09T14:03:08.992Z</time></trkpt><trkpt lat="43.050939" lon="12.2929526"><ele>251.66666666666669</ele><time>2026-04-09T14:03:09.993Z</time></trkpt><trkpt lat="43.0508294" lon="12.2927489"><ele>252.0</ele><time>2026-04-09T14:03:10.992Z</time></trkpt><trkpt lat="43.0507311" lon="12.2925303"><ele>252.0</ele><time>2026-04-09T14:03:11.993Z</time></trkpt><trkpt lat="43.0506102" lon="12.2923292"><ele>252.0</ele><time>2026-04-09T14:03:12.993Z</time></trkpt><trkpt lat="43.050451" lon="12.292138"><ele>252.0</ele><time>2026-04-09T14:03:13.992Z</time></trkpt><trkpt lat="43.0503072" lon="12.2919296"><ele>250.0</ele><time>2026-04-09T14:03:14.992Z</time></trkpt><trkpt lat="43.050171" lon="12.291729"><ele>248.0</ele><time>2026-04-09T14:03:15.993Z</time></trkpt><trkpt lat="43.0500479" lon="12.2915198"><ele>246.0</ele><time>2026-04-09T14:03:16.992Z</time></trkpt><trkpt lat="43.0499298" lon="12.2913326"><ele>246.0</ele><time>2026-04-09T14:03:17.993Z</time></trkpt><trkpt lat="43.0498246" lon="12.2911734"><ele>246.0</ele><time>2026-04-09T14:03:18.992Z</time></trkpt><trkpt lat="43.0497137" lon="12.2910175"><ele>246.0</ele><time>2026-04-09T14:03:19.992Z</time></trkpt><trkpt lat="43.0495936" lon="12.2909489"><ele>246.0</ele><time>2026-04-09T14:03:20.994Z</time></trkpt><trkpt lat="43.0494721" lon="12.2908974"><ele>246.0</ele><time>2026-04-09T14:03:21.993Z</time></trkpt><trkpt lat="43.0493547" lon="12.2908799"><ele>246.0</ele><time>2026-04-09T14:03:22.993Z</time></trkpt><trkpt lat="43.0492497" lon="12.2909037"><ele>246.0</ele><time>2026-04-09T14:03:23.993Z</time></trkpt><trkpt lat="43.0491225" lon="12.2909265"><ele>246.0</ele><time>2026-04-09T14:03:24.992Z</time></trkpt><trkpt lat="43.0490009" lon="12.290946"><ele>244.66666666666669</ele><time>2026-04-09T14:03:25.992Z</time></trkpt><trkpt lat="43.0488578" lon="12.2909629"><ele>243.33333333333334</ele><time>2026-04-09T14:03:26.993Z</time></trkpt><trkpt lat="43.0487068" lon="12.2909799"><ele>242.0</ele><time>2026-04-09T14:03:27.992Z</time></trkpt><trkpt lat="43.0485397" lon="12.2909975"><ele>242.0</ele><time>2026-04-09T14:03:28.993Z</time></trkpt><trkpt lat="43.0483594" lon="12.2910197"><ele>242.0</ele><time>2026-04-09T14:03:29.993Z</time></trkpt><trkpt lat="43.0481688" lon="12.2910503"><ele>242.0</ele><time>2026-04-09T14:03:30.992Z</time></trkpt><trkpt lat="43.047969" lon="12.2910736"><ele>239.33333333333334</ele><time>2026-04-09T14:03:31.992Z</time></trkpt><trkpt lat="43.0477698" lon="12.2911006"><ele>236.66666666666669</ele><time>2026-04-09T14:03:32.992Z</time></trkpt><trkpt lat="43.0475752" lon="12.2911276"><ele>234.0</ele><time>2026-04-09T14:03:33.993Z</time></trkpt><trkpt lat="43.0473899" lon="12.291151"><ele>233.0</ele><time>2026-04-09T14:03:34.993Z</time></trkpt><trkpt lat="43.0472124" lon="12.2911757"><ele>232.0</ele><time>2026-04-09T14:03:35.992Z</time></trkpt><trkpt lat="43.0470455" lon="12.2911973"><ele>231.0</ele><time>2026-04-09T14:03:36.992Z</time></trkpt><trkpt lat="43.0468736" lon="12.2912296"><ele>231.0</ele><time>2026-04-09T14:03:37.992Z</time></trkpt><trkpt lat="43.0466837" lon="12.2912581"><ele>231.0</ele><time>2026-04-09T14:03:38.992Z</time></trkpt><trkpt lat="43.0464926" lon="12.2912615"><ele>231.0</ele><time>2026-04-09T14:03:39.992Z</time></trkpt><trkpt lat="43.0463109" lon="12.2912169"><ele>231.33333333333331</ele><time>2026-04-09T14:03:40.992Z</time></trkpt><trkpt lat="43.0461319" lon="12.2911117"><ele>231.66666666666666</ele><time>2026-04-09T14:03:41.993Z</time></trkpt><trkpt lat="43.0459627" lon="12.2909612"><ele>232.0</ele><time>2026-04-09T14:03:42.992Z</time></trkpt><trkpt lat="43.0458186" lon="12.2908062"><ele>232.33333333333331</ele><time>2026-04-09T14:03:43.993Z</time></trkpt><trkpt lat="43.0456835" lon="12.2906629"><ele>232.66666666666669</ele><time>2026-04-09T14:03:44.993Z</time></trkpt><trkpt lat="43.0455456" lon="12.2905289"><ele>233.0</ele><time>2026-04-09T14:03:45.992Z</time></trkpt><trkpt lat="43.0453998" lon="12.2903984"><ele>233.0</ele><time>2026-04-09T14:03:46.993Z</time></trkpt><trkpt lat="43.0452543" lon="12.2902585"><ele>233.0</ele><time>2026-04-09T14:03:47.993Z</time></trkpt><trkpt lat="43.0451069" lon="12.2901085"><ele>233.0</ele><time>2026-04-09T14:03:48.992Z</time></trkpt><trkpt lat="43.0449712" lon="12.2899578"><ele>232.0</ele><time>2026-04-09T14:03:49.993Z</time></trkpt><trkpt lat="43.0448339" lon="12.2897977"><ele>231.0</ele><time>2026-04-09T14:03:50.992Z</time></trkpt><trkpt lat="43.0447048" lon="12.2896214"><ele>230.0</ele><time>2026-04-09T14:03:51.992Z</time></trkpt><trkpt lat="43.0445789" lon="12.2894412"><ele>230.0</ele><time>2026-04-09T14:03:52.993Z</time></trkpt><trkpt lat="43.0444565" lon="12.2892547"><ele>230.0</ele><time>2026-04-09T14:03:53.992Z</time></trkpt><trkpt lat="43.0443347" lon="12.2890631"><ele>230.0</ele><time>2026-04-09T14:03:54.992Z</time></trkpt><trkpt lat="43.0442039" lon="12.2888773"><ele>229.66666666666669</ele><time>2026-04-09T14:03:55.992Z</time></trkpt><trkpt lat="43.0440682" lon="12.2886924"><ele>229.33333333333331</ele><time>2026-04-09T14:03:56.992Z</time></trkpt><trkpt lat="43.0439301" lon="12.2885062"><ele>229.0</ele><time>2026-04-09T14:03:57.993Z</time></trkpt><trkpt lat="43.0437829" lon="12.2883304"><ele>229.0</ele><time>2026-04-09T14:03:58.993Z</time></trkpt><trkpt lat="43.0436404" lon="12.2881661"><ele>229.0</ele><time>2026-04-09T14:03:59.993Z</time></trkpt><trkpt lat="43.0434891" lon="12.2880101"><ele>229.0</ele><time>2026-04-09T14:04:00.992Z</time></trkpt><trkpt lat="43.043344" lon="12.2878877"><ele>228.66666666666666</ele><time>2026-04-09T14:04:01.993Z</time></trkpt><trkpt lat="43.043179" lon="12.2877726"><ele>228.33333333333331</ele><time>2026-04-09T14:04:02.992Z</time></trkpt><trkpt lat="43.0430085" lon="12.2876687"><ele>228.0</ele><time>2026-04-09T14:04:03.993Z</time></trkpt><trkpt lat="43.0428403" lon="12.2875654"><ele>228.0</ele><time>2026-04-09T14:04:04.993Z</time></trkpt><trkpt lat="43.0426759" lon="12.2874621"><ele>228.0</ele><time>2026-04-09T14:04:05.993Z</time></trkpt><trkpt lat="43.0425137" lon="12.2873669"><ele>228.0</ele><time>2026-04-09T14:04:06.992Z</time></trkpt><trkpt lat="43.0423554" lon="12.2872657"><ele>228.66666666666669</ele><time>2026-04-09T14:04:07.992Z</time></trkpt><trkpt lat="43.0421948" lon="12.2871701"><ele>229.33333333333334</ele><time>2026-04-09T14:04:08.993Z</time></trkpt><trkpt lat="43.0420441" lon="12.2870627"><ele>230.0</ele><time>2026-04-09T14:04:09.993Z</time></trkpt><trkpt lat="43.041892" lon="12.2869444"><ele>230.0</ele><time>2026-04-09T14:04:10.993Z</time></trkpt><trkpt lat="43.0417443" lon="12.2868118"><ele>230.0</ele><time>2026-04-09T14:04:11.993Z</time></trkpt><trkpt lat="43.0415894" lon="12.2866803"><ele>230.0</ele><time>2026-04-09T14:04:12.993Z</time></trkpt><trkpt lat="43.0414591" lon="12.2865298"><ele>229.0</ele><time>2026-04-09T14:04:13.992Z</time></trkpt><trkpt lat="43.0413391" lon="12.2863626"><ele>228.0</ele><time>2026-04-09T14:04:14.993Z</time></trkpt><trkpt lat="43.0412231" lon="12.2861887"><ele>227.0</ele><time>2026-04-09T14:04:15.993Z</time></trkpt><trkpt lat="43.0411001" lon="12.286008"><ele>227.0</ele><time>2026-04-09T14:04:16.992Z</time></trkpt><trkpt lat="43.0409864" lon="12.2858152"><ele>227.0</ele><time>2026-04-09T14:04:17.993Z</time></trkpt><trkpt lat="43.0408674" lon="12.2856293"><ele>227.0</ele><time>2026-04-09T14:04:18.993Z</time></trkpt><trkpt lat="43.0407433" lon="12.2854384"><ele>228.33333333333334</ele><time>2026-04-09T14:04:19.993Z</time></trkpt><trkpt lat="43.0406213" lon="12.2852537"><ele>229.66666666666669</ele><time>2026-04-09T14:04:20.993Z</time></trkpt><trkpt lat="43.0405109" lon="12.2850709"><ele>231.0</ele><time>2026-04-09T14:04:21.993Z</time></trkpt><trkpt lat="43.0403835" lon="12.2848846"><ele>233.0</ele><time>2026-04-09T14:04:22.993Z</time></trkpt><trkpt lat="43.0402623" lon="12.2846987"><ele>235.0</ele><time>2026-04-09T14:04:23.993Z</time></trkpt><trkpt lat="43.0401341" lon="12.2845127"><ele>237.0</ele><time>2026-04-09T14:04:24.993Z</time></trkpt><trkpt lat="43.0400077" lon="12.2843292"><ele>237.0</ele><time>2026-04-09T14:04:25.992Z</time></trkpt><trkpt lat="43.039882" lon="12.2841457"><ele>237.0</ele><time>2026-04-09T14:04:26.992Z</time></trkpt><trkpt lat="43.0397558" lon="12.2839708"><ele>237.0</ele><time>2026-04-09T14:04:27.992Z</time></trkpt><trkpt lat="43.0396307" lon="12.2837953"><ele>237.0</ele><time>2026-04-09T14:04:28.992Z</time></trkpt><trkpt lat="43.0395083" lon="12.2836142"><ele>237.0</ele><time>2026-04-09T14:04:29.993Z</time></trkpt><trkpt lat="43.0393831" lon="12.2834189"><ele>237.0</ele><time>2026-04-09T14:04:30.993Z</time></trkpt><trkpt lat="43.0392644" lon="12.2832208"><ele>237.0</ele><time>2026-04-09T14:04:31.992Z</time></trkpt><trkpt lat="43.0391522" lon="12.2830136"><ele>237.0</ele><time>2026-04-09T14:04:32.993Z</time></trkpt><trkpt lat="43.0390451" lon="12.2827885"><ele>237.0</ele><time>2026-04-09T14:04:33.992Z</time></trkpt><trkpt lat="43.0389403" lon="12.2825566"><ele>234.0</ele><time>2026-04-09T14:04:34.993Z</time></trkpt><trkpt lat="43.0388388" lon="12.2823293"><ele>231.0</ele><time>2026-04-09T14:04:35.992Z</time></trkpt><trkpt lat="43.0387307" lon="12.2820951"><ele>228.0</ele><time>2026-04-09T14:04:36.992Z</time></trkpt><trkpt lat="43.0386229" lon="12.2818708"><ele>228.0</ele><time>2026-04-09T14:04:37.992Z</time></trkpt><trkpt lat="43.038512" lon="12.2816509"><ele>228.0</ele><time>2026-04-09T14:04:38.992Z</time></trkpt><trkpt lat="43.0383915" lon="12.2814306"><ele>228.0</ele><time>2026-04-09T14:04:39.992Z</time></trkpt><trkpt lat="43.0382761" lon="12.281208"><ele>227.33333333333331</ele><time>2026-04-09T14:04:40.993Z</time></trkpt><trkpt lat="43.0381669" lon="12.2809964"><ele>226.66666666666666</ele><time>2026-04-09T14:04:41.992Z</time></trkpt><trkpt lat="43.0380404" lon="12.2807971"><ele>226.0</ele><time>2026-04-09T14:04:42.992Z</time></trkpt><trkpt lat="43.0378974" lon="12.2806143"><ele>226.66666666666666</ele><time>2026-04-09T14:04:43.992Z</time></trkpt><trkpt lat="43.0377409" lon="12.280455"><ele>227.33333333333331</ele><time>2026-04-09T14:04:44.993Z</time></trkpt><trkpt lat="43.0375679" lon="12.2803013"><ele>228.0</ele><time>2026-04-09T14:04:45.992Z</time></trkpt><trkpt lat="43.0373963" lon="12.2801564"><ele>228.0</ele><time>2026-04-09T14:04:46.992Z</time></trkpt><trkpt lat="43.0372206" lon="12.280003"><ele>228.0</ele><time>2026-04-09T14:04:47.993Z</time></trkpt><trkpt lat="43.0370369" lon="12.2798494"><ele>228.0</ele><time>2026-04-09T14:04:48.993Z</time></trkpt><trkpt lat="43.0368554" lon="12.2797014"><ele>228.33333333333331</ele><time>2026-04-09T14:04:49.993Z</time></trkpt><trkpt lat="43.0366718" lon="12.2795581"><ele>228.66666666666666</ele><time>2026-04-09T14:04:50.992Z</time></trkpt><trkpt lat="43.0364887" lon="12.2794225"><ele>229.0</ele><time>2026-04-09T14:04:51.992Z</time></trkpt><trkpt lat="43.0363186" lon="12.2792767"><ele>229.66666666666666</ele><time>2026-04-09T14:04:52.992Z</time></trkpt><trkpt lat="43.0361708" lon="12.2791085"><ele>230.33333333333331</ele><time>2026-04-09T14:04:53.993Z</time></trkpt><trkpt lat="43.0360343" lon="12.2789374"><ele>231.0</ele><time>2026-04-09T14:04:54.993Z</time></trkpt><trkpt lat="43.0359064" lon="12.2787562"><ele>231.0</ele><time>2026-04-09T14:04:55.993Z</time></trkpt><trkpt lat="43.0357713" lon="12.2785889"><ele>231.0</ele><time>2026-04-09T14:04:56.993Z</time></trkpt><trkpt lat="43.0356154" lon="12.2784261"><ele>231.0</ele><time>2026-04-09T14:04:57.993Z</time></trkpt><trkpt lat="43.0354548" lon="12.2782732"><ele>231.0</ele><time>2026-04-09T14:04:58.992Z</time></trkpt><trkpt lat="43.0352993" lon="12.2781294"><ele>231.0</ele><time>2026-04-09T14:04:59.993Z</time></trkpt><trkpt lat="43.0351408" lon="12.2779922"><ele>231.0</ele><time>2026-04-09T14:05:00.993Z</time></trkpt><trkpt lat="43.0349898" lon="12.2778559"><ele>230.66666666666669</ele><time>2026-04-09T14:05:01.993Z</time></trkpt><trkpt lat="43.0348417" lon="12.2777124"><ele>230.33333333333334</ele><time>2026-04-09T14:05:02.993Z</time></trkpt><trkpt lat="43.0347007" lon="12.2775551"><ele>230.0</ele><time>2026-04-09T14:05:03.992Z</time></trkpt><trkpt lat="43.0345588" lon="12.2773877"><ele>229.66666666666669</ele><time>2026-04-09T14:05:04.993Z</time></trkpt><trkpt lat="43.0344213" lon="12.2772099"><ele>229.33333333333331</ele><time>2026-04-09T14:05:05.992Z</time></trkpt><trkpt lat="43.0342964" lon="12.2770311"><ele>229.0</ele><time>2026-04-09T14:05:06.993Z</time></trkpt><trkpt lat="43.034176" lon="12.2768655"><ele>228.33333333333331</ele><time>2026-04-09T14:05:07.992Z</time></trkpt><trkpt lat="43.0340551" lon="12.2767061"><ele>227.66666666666669</ele><time>2026-04-09T14:05:08.993Z</time></trkpt><trkpt lat="43.0339334" lon="12.2765602"><ele>227.0</ele><time>2026-04-09T14:05:09.993Z</time></trkpt><trkpt lat="43.0338055" lon="12.2764223"><ele>227.0</ele><time>2026-04-09T14:05:10.991Z</time></trkpt><trkpt lat="43.0336773" lon="12.2762831"><ele>227.0</ele><time>2026-04-09T14:05:11.992Z</time></trkpt><trkpt lat="43.0335479" lon="12.2761446"><ele>227.0</ele><time>2026-04-09T14:05:12.993Z</time></trkpt><trkpt lat="43.0334139" lon="12.275997"><ele>227.0</ele><time>2026-04-09T14:05:13.992Z</time></trkpt><trkpt lat="43.0332913" lon="12.2758479"><ele>227.0</ele><time>2026-04-09T14:05:14.992Z</time></trkpt><trkpt lat="43.0331699" lon="12.2756724"><ele>227.0</ele><time>2026-04-09T14:05:15.993Z</time></trkpt><trkpt lat="43.0330598" lon="12.275469"><ele>227.0</ele><time>2026-04-09T14:05:16.992Z</time></trkpt><trkpt lat="43.0329534" lon="12.2752608"><ele>227.0</ele><time>2026-04-09T14:05:17.993Z</time></trkpt><trkpt lat="43.0328545" lon="12.2750555"><ele>227.0</ele><time>2026-04-09T14:05:18.993Z</time></trkpt><trkpt lat="43.0327529" lon="12.274865"><ele>226.0</ele><time>2026-04-09T14:05:19.993Z</time></trkpt><trkpt lat="43.0326559" lon="12.2746902"><ele>225.0</ele><time>2026-04-09T14:05:20.993Z</time></trkpt><trkpt lat="43.0325588" lon="12.2745187"><ele>224.0</ele><time>2026-04-09T14:05:21.993Z</time></trkpt><trkpt lat="43.0324756" lon="12.2743542"><ele>224.0</ele><time>2026-04-09T14:05:22.993Z</time></trkpt><trkpt lat="43.0323847" lon="12.2742091"><ele>224.0</ele><time>2026-04-09T14:05:23.992Z</time></trkpt><trkpt lat="43.032287" lon="12.2740976"><ele>224.0</ele><time>2026-04-09T14:05:24.993Z</time></trkpt><trkpt lat="43.0321851" lon="12.2739952"><ele>224.0</ele><time>2026-04-09T14:05:25.993Z</time></trkpt><trkpt lat="43.0320815" lon="12.2739049"><ele>224.39999999999998</ele><time>2026-04-09T14:05:26.992Z</time></trkpt><trkpt lat="43.031976" lon="12.273809"><ele>224.79999999999998</ele><time>2026-04-09T14:05:27.992Z</time></trkpt><trkpt lat="43.0319024" lon="12.2737026"><ele>225.20000000000002</ele><time>2026-04-09T14:05:28.993Z</time></trkpt><trkpt lat="43.0318531" lon="12.2735875"><ele>225.60000000000002</ele><time>2026-04-09T14:05:29.993Z</time></trkpt><trkpt lat="43.0318097" lon="12.2734906"><ele>226.0</ele><time>2026-04-09T14:05:30.992Z</time></trkpt><trkpt lat="43.0317707" lon="12.2733964"><ele>225.99999999999997</ele><time>2026-04-09T14:05:31.993Z</time></trkpt><trkpt lat="43.0317509" lon="12.2732962"><ele>226.0</ele><time>2026-04-09T14:05:32.993Z</time></trkpt><trkpt lat="43.0317333" lon="12.2731875"><ele>226.0</ele><time>2026-04-09T14:05:33.993Z</time></trkpt><trkpt lat="43.0317522" lon="12.2730669"><ele>226.0</ele><time>2026-04-09T14:05:34.994Z</time></trkpt><trkpt lat="43.0318169" lon="12.2729786"><ele>225.99999999999997</ele><time>2026-04-09T14:05:35.993Z</time></trkpt><trkpt lat="43.0318831" lon="12.2728816"><ele>226.0</ele><time>2026-04-09T14:05:36.992Z</time></trkpt><trkpt lat="43.0319921" lon="12.2727863"><ele>224.75</ele><time>2026-04-09T14:05:37.993Z</time></trkpt><trkpt lat="43.0320811" lon="12.2726788"><ele>223.5</ele><time>2026-04-09T14:05:38.992Z</time></trkpt><trkpt lat="43.03214" lon="12.2725347"><ele>222.25</ele><time>2026-04-09T14:05:39.993Z</time></trkpt><trkpt lat="43.032201" lon="12.2723696"><ele>221.0</ele><time>2026-04-09T14:05:40.993Z</time></trkpt><trkpt lat="43.0322357" lon="12.2721884"><ele>219.5</ele><time>2026-04-09T14:05:41.993Z</time></trkpt><trkpt lat="43.0322748" lon="12.2720244"><ele>218.0</ele><time>2026-04-09T14:05:42.993Z</time></trkpt><trkpt lat="43.032312" lon="12.2718723"><ele>216.5</ele><time>2026-04-09T14:05:43.992Z</time></trkpt><trkpt lat="43.0323542" lon="12.2717147"><ele>215.0</ele><time>2026-04-09T14:05:44.992Z</time></trkpt><trkpt lat="43.0323759" lon="12.2715601"><ele>215.0</ele><time>2026-04-09T14:05:45.993Z</time></trkpt><trkpt lat="43.0324127" lon="12.2714155"><ele>215.0</ele><time>2026-04-09T14:05:46.993Z</time></trkpt><trkpt lat="43.032435" lon="12.2712772"><ele>215.0</ele><time>2026-04-09T14:05:47.992Z</time></trkpt><trkpt lat="43.0324575" lon="12.271152"><ele>215.0</ele><time>2026-04-09T14:05:48.992Z</time></trkpt><trkpt lat="43.0324997" lon="12.2710246"><ele>215.0</ele><time>2026-04-09T14:05:49.993Z</time></trkpt><trkpt lat="43.0326117" lon="12.2709529"><ele>215.0</ele><time>2026-04-09T14:05:50.993Z</time></trkpt><trkpt lat="43.0327181" lon="12.2708573"><ele>215.0</ele><time>2026-04-09T14:05:51.993Z</time></trkpt><trkpt lat="43.032817" lon="12.2707569"><ele>215.0</ele><time>2026-04-09T14:05:52.993Z</time></trkpt><trkpt lat="43.0328995" lon="12.2706162"><ele>215.0</ele><time>2026-04-09T14:05:53.992Z</time></trkpt><trkpt lat="43.0329911" lon="12.2704687"><ele>214.0</ele><time>2026-04-09T14:05:54.992Z</time></trkpt><trkpt lat="43.0330596" lon="12.2703042"><ele>213.0</ele><time>2026-04-09T14:05:55.993Z</time></trkpt><trkpt lat="43.0331168" lon="12.2701509"><ele>212.0</ele><time>2026-04-09T14:05:56.992Z</time></trkpt><trkpt lat="43.0332063" lon="12.2700117"><ele>211.0</ele><time>2026-04-09T14:05:57.993Z</time></trkpt><trkpt lat="43.0332748" lon="12.2698648"><ele>210.75</ele><time>2026-04-09T14:05:58.993Z</time></trkpt><trkpt lat="43.0333506" lon="12.2697169"><ele>210.5</ele><time>2026-04-09T14:05:59.992Z</time></trkpt><trkpt lat="43.033419" lon="12.2695695"><ele>210.25</ele><time>2026-04-09T14:06:00.993Z</time></trkpt><trkpt lat="43.0334912" lon="12.2694175"><ele>210.0</ele><time>2026-04-09T14:06:01.993Z</time></trkpt><trkpt lat="43.0335496" lon="12.2692728"><ele>210.0</ele><time>2026-04-09T14:06:02.992Z</time></trkpt><trkpt lat="43.0336021" lon="12.2691388"><ele>210.0</ele><time>2026-04-09T14:06:03.993Z</time></trkpt><trkpt lat="43.0336482" lon="12.2690135"><ele>210.0</ele><time>2026-04-09T14:06:04.991Z</time></trkpt><trkpt lat="43.0336885" lon="12.2688976"><ele>210.0</ele><time>2026-04-09T14:06:05.993Z</time></trkpt><trkpt lat="43.0337302" lon="12.2687891"><ele>210.0</ele><time>2026-04-09T14:06:06.993Z</time></trkpt><trkpt lat="43.033767" lon="12.26865"><ele>209.0</ele><time>2026-04-09T14:06:07.993Z</time></trkpt><trkpt lat="43.0338145" lon="12.2684751"><ele>208.0</ele><time>2026-04-09T14:06:08.992Z</time></trkpt><trkpt lat="43.033863" lon="12.2682609"><ele>207.0</ele><time>2026-04-09T14:06:09.993Z</time></trkpt><trkpt lat="43.0339107" lon="12.2679978"><ele>207.0</ele><time>2026-04-09T14:06:10.992Z</time></trkpt><trkpt lat="43.0339553" lon="12.2677512"><ele>207.0</ele><time>2026-04-09T14:06:11.992Z</time></trkpt><trkpt lat="43.0339897" lon="12.2675213"><ele>207.0</ele><time>2026-04-09T14:06:12.993Z</time></trkpt><trkpt lat="43.0340265" lon="12.2673075"><ele>207.0</ele><time>2026-04-09T14:06:13.992Z</time></trkpt><trkpt lat="43.0340424" lon="12.2670853"><ele>207.0</ele><time>2026-04-09T14:06:14.993Z</time></trkpt><trkpt lat="43.0340268" lon="12.2668432"><ele>207.0</ele><time>2026-04-09T14:06:15.993Z</time></trkpt><trkpt lat="43.0339833" lon="12.2665771"><ele>207.5</ele><time>2026-04-09T14:06:16.992Z</time></trkpt><trkpt lat="43.0339245" lon="12.2662721"><ele>208.0</ele><time>2026-04-09T14:06:17.992Z</time></trkpt><trkpt lat="43.0338721" lon="12.2659636"><ele>208.0</ele><time>2026-04-09T14:06:18.992Z</time></trkpt><trkpt lat="43.0338269" lon="12.2656546"><ele>208.0</ele><time>2026-04-09T14:06:19.992Z</time></trkpt><trkpt lat="43.0337858" lon="12.2653561"><ele>207.66666666666666</ele><time>2026-04-09T14:06:20.993Z</time></trkpt><trkpt lat="43.0337489" lon="12.2650609"><ele>207.33333333333331</ele><time>2026-04-09T14:06:21.992Z</time></trkpt><trkpt lat="43.0337056" lon="12.264779"><ele>207.0</ele><time>2026-04-09T14:06:22.993Z</time></trkpt><trkpt lat="43.0336623" lon="12.2644959"><ele>206.66666666666669</ele><time>2026-04-09T14:06:23.993Z</time></trkpt><trkpt lat="43.033616" lon="12.2642252"><ele>206.33333333333334</ele><time>2026-04-09T14:06:24.993Z</time></trkpt><trkpt lat="43.0335635" lon="12.2639584"><ele>206.0</ele><time>2026-04-09T14:06:25.993Z</time></trkpt><trkpt lat="43.0334917" lon="12.2637028"><ele>206.66666666666669</ele><time>2026-04-09T14:06:26.991Z</time></trkpt><trkpt lat="43.0334231" lon="12.2634576"><ele>207.33333333333331</ele><time>2026-04-09T14:06:27.992Z</time></trkpt><trkpt lat="43.0333663" lon="12.2632081"><ele>208.0</ele><time>2026-04-09T14:06:28.993Z</time></trkpt><trkpt lat="43.0333008" lon="12.2629542"><ele>208.33333333333331</ele><time>2026-04-09T14:06:29.993Z</time></trkpt><trkpt lat="43.0332133" lon="12.2627196"><ele>208.66666666666669</ele><time>2026-04-09T14:06:30.992Z</time></trkpt><trkpt lat="43.0330918" lon="12.2624934"><ele>209.0</ele><time>2026-04-09T14:06:31.992Z</time></trkpt><trkpt lat="43.032942" lon="12.2623067"><ele>209.0</ele><time>2026-04-09T14:06:32.992Z</time></trkpt><trkpt lat="43.0327529" lon="12.2621433"><ele>209.0</ele><time>2026-04-09T14:06:33.993Z</time></trkpt><trkpt lat="43.0325705" lon="12.2619905"><ele>209.0</ele><time>2026-04-09T14:06:34.993Z</time></trkpt><trkpt lat="43.0323831" lon="12.2618234"><ele>209.0</ele><time>2026-04-09T14:06:35.992Z</time></trkpt><trkpt lat="43.032198" lon="12.2616762"><ele>209.0</ele><time>2026-04-09T14:06:36.993Z</time></trkpt><trkpt lat="43.0320025" lon="12.2615459"><ele>209.0</ele><time>2026-04-09T14:06:37.993Z</time></trkpt><trkpt lat="43.0318036" lon="12.2614319"><ele>209.0</ele><time>2026-04-09T14:06:38.993Z</time></trkpt><trkpt lat="43.0316164" lon="12.2612943"><ele>209.0</ele><time>2026-04-09T14:06:39.993Z</time></trkpt><trkpt lat="43.0314326" lon="12.2611409"><ele>209.0</ele><time>2026-04-09T14:06:40.993Z</time></trkpt><trkpt lat="43.0312793" lon="12.2609399"><ele>209.0</ele><time>2026-04-09T14:06:41.992Z</time></trkpt><trkpt lat="43.0311398" lon="12.2607378"><ele>209.0</ele><time>2026-04-09T14:06:42.992Z</time></trkpt><trkpt lat="43.0310224" lon="12.2605414"><ele>209.0</ele><time>2026-04-09T14:06:43.993Z</time></trkpt><trkpt lat="43.0309255" lon="12.2603471"><ele>209.0</ele><time>2026-04-09T14:06:44.992Z</time></trkpt><trkpt lat="43.0308233" lon="12.2601505"><ele>209.0</ele><time>2026-04-09T14:06:45.993Z</time></trkpt><trkpt lat="43.0307283" lon="12.2599625"><ele>209.0</ele><time>2026-04-09T14:06:46.993Z</time></trkpt><trkpt lat="43.030625" lon="12.2597744"><ele>210.33333333333334</ele><time>2026-04-09T14:06:47.993Z</time></trkpt><trkpt lat="43.0305352" lon="12.259592"><ele>211.66666666666669</ele><time>2026-04-09T14:06:48.993Z</time></trkpt><trkpt lat="43.0304373" lon="12.2594274"><ele>213.0</ele><time>2026-04-09T14:06:49.992Z</time></trkpt><trkpt lat="43.0303251" lon="12.2592668"><ele>213.0</ele><time>2026-04-09T14:06:50.992Z</time></trkpt><trkpt lat="43.0301978" lon="12.2591309"><ele>213.0</ele><time>2026-04-09T14:06:51.992Z</time></trkpt><trkpt lat="43.0300607" lon="12.2590216"><ele>213.0</ele><time>2026-04-09T14:06:52.992Z</time></trkpt><trkpt lat="43.0298961" lon="12.258944"><ele>213.0</ele><time>2026-04-09T14:06:53.993Z</time></trkpt><trkpt lat="43.0297227" lon="12.2588787"><ele>213.0</ele><time>2026-04-09T14:06:54.993Z</time></trkpt><trkpt lat="43.0295272" lon="12.2588342"><ele>213.0</ele><time>2026-04-09T14:06:55.993Z</time></trkpt><trkpt lat="43.0293309" lon="12.2587668"><ele>211.66666666666669</ele><time>2026-04-09T14:06:56.993Z</time></trkpt><trkpt lat="43.0291355" lon="12.2586625"><ele>210.33333333333334</ele><time>2026-04-09T14:06:57.992Z</time></trkpt><trkpt lat="43.0289366" lon="12.2585014"><ele>209.0</ele><time>2026-04-09T14:06:58.991Z</time></trkpt><trkpt lat="43.0287536" lon="12.2583067"><ele>211.0</ele><time>2026-04-09T14:06:59.993Z</time></trkpt><trkpt lat="43.0285878" lon="12.258095"><ele>213.0</ele><time>2026-04-09T14:07:00.993Z</time></trkpt><trkpt lat="43.0284177" lon="12.2578854"><ele>212.0</ele><time>2026-04-09T14:07:01.993Z</time></trkpt><trkpt lat="43.0282447" lon="12.2576812"><ele>211.0</ele><time>2026-04-09T14:07:02.993Z</time></trkpt><trkpt lat="43.028075" lon="12.2574649"><ele>211.0</ele><time>2026-04-09T14:07:03.993Z</time></trkpt><trkpt lat="43.0278893" lon="12.2572997"><ele>211.0</ele><time>2026-04-09T14:07:04.993Z</time></trkpt><trkpt lat="43.0276929" lon="12.2571432"><ele>211.0</ele><time>2026-04-09T14:07:05.992Z</time></trkpt><trkpt lat="43.0274839" lon="12.2569795"><ele>210.0</ele><time>2026-04-09T14:07:06.991Z</time></trkpt><trkpt lat="43.0272762" lon="12.2568247"><ele>209.0</ele><time>2026-04-09T14:07:07.992Z</time></trkpt><trkpt lat="43.0270626" lon="12.2566798"><ele>209.0</ele><time>2026-04-09T14:07:08.993Z</time></trkpt><trkpt lat="43.0268445" lon="12.2565584"><ele>209.0</ele><time>2026-04-09T14:07:09.992Z</time></trkpt><trkpt lat="43.0266416" lon="12.2564591"><ele>209.66666666666669</ele><time>2026-04-09T14:07:10.993Z</time></trkpt><trkpt lat="43.0264482" lon="12.2563651"><ele>210.33333333333331</ele><time>2026-04-09T14:07:11.993Z</time></trkpt><trkpt lat="43.0262642" lon="12.2562819"><ele>211.0</ele><time>2026-04-09T14:07:12.992Z</time></trkpt><trkpt lat="43.0260921" lon="12.2561992"><ele>211.0</ele><time>2026-04-09T14:07:13.993Z</time></trkpt><trkpt lat="43.0259435" lon="12.2561146"><ele>211.0</ele><time>2026-04-09T14:07:14.992Z</time></trkpt><trkpt lat="43.0258056" lon="12.2560244"><ele>211.0</ele><time>2026-04-09T14:07:15.992Z</time></trkpt><trkpt lat="43.0256807" lon="12.2559147"><ele>211.0</ele><time>2026-04-09T14:07:16.992Z</time></trkpt><trkpt lat="43.0255614" lon="12.2558004"><ele>211.0</ele><time>2026-04-09T14:07:17.992Z</time></trkpt><trkpt lat="43.025452" lon="12.2556717"><ele>211.0</ele><time>2026-04-09T14:07:18.992Z</time></trkpt><trkpt lat="43.0253431" lon="12.2555464"><ele>211.0</ele><time>2026-04-09T14:07:19.993Z</time></trkpt><trkpt lat="43.0252344" lon="12.2554214"><ele>211.0</ele><time>2026-04-09T14:07:20.993Z</time></trkpt><trkpt lat="43.0251258" lon="12.255284"><ele>211.0</ele><time>2026-04-09T14:07:21.993Z</time></trkpt><trkpt lat="43.0250344" lon="12.2551675"><ele>211.0</ele><time>2026-04-09T14:07:22.993Z</time></trkpt><trkpt lat="43.0249426" lon="12.2550479"><ele>211.0</ele><time>2026-04-09T14:07:23.992Z</time></trkpt><trkpt lat="43.0248576" lon="12.2549389"><ele>211.0</ele><time>2026-04-09T14:07:24.993Z</time></trkpt><trkpt lat="43.0247699" lon="12.2548185"><ele>211.0</ele><time>2026-04-09T14:07:25.992Z</time></trkpt><trkpt lat="43.0246787" lon="12.2547229"><ele>211.0</ele><time>2026-04-09T14:07:26.992Z</time></trkpt><trkpt lat="43.0245871" lon="12.2546507"><ele>211.0</ele><time>2026-04-09T14:07:27.993Z</time></trkpt><trkpt lat="43.0244829" lon="12.2545799"><ele>211.0</ele><time>2026-04-09T14:07:28.993Z</time></trkpt><trkpt lat="43.024373" lon="12.2545205"><ele>211.0</ele><time>2026-04-09T14:07:29.993Z</time></trkpt><trkpt lat="43.0242649" lon="12.2544557"><ele>211.0</ele><time>2026-04-09T14:07:30.993Z</time></trkpt><trkpt lat="43.0241403" lon="12.2543909"><ele>211.0</ele><time>2026-04-09T14:07:31.992Z</time></trkpt><trkpt lat="43.0240052" lon="12.2543155"><ele>211.25</ele><time>2026-04-09T14:07:32.992Z</time></trkpt><trkpt lat="43.023864" lon="12.2542451"><ele>211.5</ele><time>2026-04-09T14:07:33.993Z</time></trkpt><trkpt lat="43.0237235" lon="12.2541786"><ele>211.75</ele><time>2026-04-09T14:07:34.992Z</time></trkpt><trkpt lat="43.0235954" lon="12.2541295"><ele>212.0</ele><time>2026-04-09T14:07:35.992Z</time></trkpt><trkpt lat="43.0234588" lon="12.2540617"><ele>212.0</ele><time>2026-04-09T14:07:36.993Z</time></trkpt><trkpt lat="43.0233225" lon="12.2539921"><ele>212.0</ele><time>2026-04-09T14:07:37.993Z</time></trkpt><trkpt lat="43.0232118" lon="12.2539396"><ele>212.0</ele><time>2026-04-09T14:07:38.992Z</time></trkpt><trkpt lat="43.0230918" lon="12.2538784"><ele>212.0</ele><time>2026-04-09T14:07:39.993Z</time></trkpt><trkpt lat="43.0229771" lon="12.2538169"><ele>211.8</ele><time>2026-04-09T14:07:40.992Z</time></trkpt><trkpt lat="43.022876" lon="12.2537636"><ele>211.6</ele><time>2026-04-09T14:07:41.993Z</time></trkpt><trkpt lat="43.0227722" lon="12.2536854"><ele>211.4</ele><time>2026-04-09T14:07:42.992Z</time></trkpt><trkpt lat="43.0226785" lon="12.25362"><ele>211.20000000000002</ele><time>2026-04-09T14:07:43.993Z</time></trkpt><trkpt lat="43.0225909" lon="12.2535389"><ele>211.0</ele><time>2026-04-09T14:07:44.992Z</time></trkpt><trkpt lat="43.0224997" lon="12.2534629"><ele>211.20000000000002</ele><time>2026-04-09T14:07:45.993Z</time></trkpt><trkpt lat="43.0224076" lon="12.2533924"><ele>211.4</ele><time>2026-04-09T14:07:46.993Z</time></trkpt><trkpt lat="43.0223166" lon="12.2533159"><ele>211.6</ele><time>2026-04-09T14:07:47.992Z</time></trkpt><trkpt lat="43.022222" lon="12.2532448"><ele>211.8</ele><time>2026-04-09T14:07:48.992Z</time></trkpt><trkpt lat="43.0221345" lon="12.2531772"><ele>212.0</ele><time>2026-04-09T14:07:49.993Z</time></trkpt><trkpt lat="43.0220542" lon="12.2531179"><ele>212.2</ele><time>2026-04-09T14:07:50.993Z</time></trkpt><trkpt lat="43.021978" lon="12.2530498"><ele>212.39999999999998</ele><time>2026-04-09T14:07:51.993Z</time></trkpt><trkpt lat="43.0219019" lon="12.2529748"><ele>212.60000000000002</ele><time>2026-04-09T14:07:52.993Z</time></trkpt><trkpt lat="43.02183" lon="12.2529112"><ele>212.8</ele><time>2026-04-09T14:07:53.993Z</time></trkpt><trkpt lat="43.0217513" lon="12.2528478"><ele>213.0</ele><time>2026-04-09T14:07:54.993Z</time></trkpt><trkpt lat="43.0216837" lon="12.2527666"><ele>213.0</ele><time>2026-04-09T14:07:56.993Z</time></trkpt><trkpt lat="43.0216733" lon="12.2526614"><ele>213.0</ele><time>2026-04-09T14:07:59.993Z</time></trkpt><trkpt lat="43.0217332" lon="12.2525303"><ele>213.0</ele><time>2026-04-09T14:08:01.992Z</time></trkpt><trkpt lat="43.0217868" lon="12.2524541"><ele>213.0</ele><time>2026-04-09T14:08:02.993Z</time></trkpt><trkpt lat="43.0218511" lon="12.2523654"><ele>213.0</ele><time>2026-04-09T14:08:03.993Z</time></trkpt><trkpt lat="43.0219343" lon="12.2522579"><ele>213.5</ele><time>2026-04-09T14:08:04.992Z</time></trkpt><trkpt lat="43.0220218" lon="12.252141"><ele>214.0</ele><time>2026-04-09T14:08:05.993Z</time></trkpt><trkpt lat="43.0221235" lon="12.2520209"><ele>214.5</ele><time>2026-04-09T14:08:06.993Z</time></trkpt><trkpt lat="43.0222266" lon="12.2518921"><ele>215.0</ele><time>2026-04-09T14:08:07.992Z</time></trkpt><trkpt lat="43.0223063" lon="12.2517966"><ele>215.00000000000003</ele><time>2026-04-09T14:08:08.992Z</time></trkpt><trkpt lat="43.0223755" lon="12.2517185"><ele>215.0</ele><time>2026-04-09T14:08:09.992Z</time></trkpt><trkpt lat="43.02244" lon="12.2516322"><ele>215.0</ele><time>2026-04-09T14:08:10.992Z</time></trkpt><trkpt lat="43.0224992" lon="12.2515536"><ele>215.0</ele><time>2026-04-09T14:08:11.993Z</time></trkpt><trkpt lat="43.0225412" lon="12.2514804"><ele>215.00000000000003</ele><time>2026-04-09T14:08:12.992Z</time></trkpt><trkpt lat="43.0225528" lon="12.2513797"><ele>215.0</ele><time>2026-04-09T14:08:13.993Z</time></trkpt><trkpt lat="43.0224836" lon="12.2512581"><ele>215.8</ele><time>2026-04-09T14:08:15.992Z</time></trkpt><trkpt lat="43.0224061" lon="12.251238"><ele>216.6</ele><time>2026-04-09T14:08:16.993Z</time></trkpt><trkpt lat="43.0223126" lon="12.251243"><ele>217.39999999999998</ele><time>2026-04-09T14:08:17.992Z</time></trkpt><trkpt lat="43.0221967" lon="12.2512836"><ele>218.2</ele><time>2026-04-09T14:08:18.993Z</time></trkpt><trkpt lat="43.0220828" lon="12.2513254"><ele>219.0</ele><time>2026-04-09T14:08:19.993Z</time></trkpt><trkpt lat="43.021962" lon="12.251361"><ele>219.0</ele><time>2026-04-09T14:08:20.992Z</time></trkpt><trkpt lat="43.021824" lon="12.2514045"><ele>219.0</ele><time>2026-04-09T14:08:21.992Z</time></trkpt><trkpt lat="43.0216887" lon="12.2514448"><ele>219.0</ele><time>2026-04-09T14:08:22.993Z</time></trkpt><trkpt lat="43.0215592" lon="12.251479"><ele>219.0</ele><time>2026-04-09T14:08:23.992Z</time></trkpt><trkpt lat="43.0214323" lon="12.2515166"><ele>217.75</ele><time>2026-04-09T14:08:24.993Z</time></trkpt><trkpt lat="43.0213035" lon="12.2515398"><ele>216.5</ele><time>2026-04-09T14:08:25.993Z</time></trkpt><trkpt lat="43.0211728" lon="12.2515734"><ele>215.25</ele><time>2026-04-09T14:08:26.993Z</time></trkpt><trkpt lat="43.0210411" lon="12.2516096"><ele>214.0</ele><time>2026-04-09T14:08:27.992Z</time></trkpt><trkpt lat="43.0209133" lon="12.251652"><ele>214.2</ele><time>2026-04-09T14:08:28.992Z</time></trkpt><trkpt lat="43.0208041" lon="12.2516937"><ele>214.39999999999998</ele><time>2026-04-09T14:08:29.992Z</time></trkpt><trkpt lat="43.0207115" lon="12.2517185"><ele>214.6</ele><time>2026-04-09T14:08:30.993Z</time></trkpt><trkpt lat="43.0206306" lon="12.2517424"><ele>214.8</ele><time>2026-04-09T14:08:31.993Z</time></trkpt><trkpt lat="43.0205287" lon="12.2517605"><ele>215.0</ele><time>2026-04-09T14:08:33.992Z</time></trkpt><trkpt lat="43.0204619" lon="12.2517688"><ele>215.00000000000003</ele><time>2026-04-09T14:08:35.992Z</time></trkpt><trkpt lat="43.0203987" lon="12.2517889"><ele>215.0</ele><time>2026-04-09T14:08:37.992Z</time></trkpt><trkpt lat="43.0203302" lon="12.2517858"><ele>215.0</ele><time>2026-04-09T14:08:39.992Z</time></trkpt><trkpt lat="43.0202472" lon="12.251831"><ele>215.0</ele><time>2026-04-09T14:08:42.992Z</time></trkpt><trkpt lat="43.0202754" lon="12.2519228"><ele>215.00000000000003</ele><time>2026-04-09T14:08:45.993Z</time></trkpt><trkpt lat="43.020365" lon="12.2518618"><ele>215.0</ele><time>2026-04-09T14:08:47.993Z</time></trkpt><trkpt lat="43.0204713" lon="12.251817"><ele>215.00000000000003</ele><time>2026-04-09T14:08:49.993Z</time></trkpt><trkpt lat="43.0205791" lon="12.2517851"><ele>215.0</ele><time>2026-04-09T14:08:51.993Z</time></trkpt><trkpt lat="43.0206392" lon="12.2517584"><ele>215.0</ele><time>2026-04-09T14:08:52.992Z</time></trkpt><trkpt lat="43.0207026" lon="12.2517369"><ele>215.0</ele><time>2026-04-09T14:08:53.993Z</time></trkpt><trkpt lat="43.0207761" lon="12.2517255"><ele>215.00000000000003</ele><time>2026-04-09T14:08:54.991Z</time></trkpt><trkpt lat="43.0208518" lon="12.2516989"><ele>215.0</ele><time>2026-04-09T14:08:55.993Z</time></trkpt><trkpt lat="43.0209251" lon="12.251685"><ele>214.8</ele><time>2026-04-09T14:08:56.993Z</time></trkpt><trkpt lat="43.0210064" lon="12.2516602"><ele>214.6</ele><time>2026-04-09T14:08:57.992Z</time></trkpt><trkpt lat="43.0210955" lon="12.2516298"><ele>214.39999999999998</ele><time>2026-04-09T14:08:58.993Z</time></trkpt><trkpt lat="43.0211869" lon="12.2516019"><ele>214.2</ele><time>2026-04-09T14:08:59.992Z</time></trkpt><trkpt lat="43.0212752" lon="12.2515809"><ele>214.0</ele><time>2026-04-09T14:09:00.993Z</time></trkpt><trkpt lat="43.0213646" lon="12.2515522"><ele>213.99999999999997</ele><time>2026-04-09T14:09:01.992Z</time></trkpt><trkpt lat="43.0214388" lon="12.2515346"><ele>214.0</ele><time>2026-04-09T14:09:02.993Z</time></trkpt><trkpt lat="43.0215075" lon="12.2515227"><ele>214.0</ele><time>2026-04-09T14:09:03.992Z</time></trkpt><trkpt lat="43.021583" lon="12.2514035"><ele>214.0</ele><time>2026-04-09T14:09:05.993Z</time></trkpt><trkpt lat="43.0215858" lon="12.2513162"><ele>213.99999999999997</ele><time>2026-04-09T14:09:06.992Z</time></trkpt><trkpt lat="43.0215803" lon="12.2511931"><ele>214.0</ele><time>2026-04-09T14:09:07.992Z</time></trkpt><trkpt lat="43.0215751" lon="12.2510461"><ele>215.25</ele><time>2026-04-09T14:09:08.993Z</time></trkpt><trkpt lat="43.0215833" lon="12.2509009"><ele>216.5</ele><time>2026-04-09T14:09:09.992Z</time></trkpt><trkpt lat="43.0215708" lon="12.2507142"><ele>217.75</ele><time>2026-04-09T14:09:10.992Z</time></trkpt><trkpt lat="43.0215629" lon="12.2505219"><ele>219.0</ele><time>2026-04-09T14:09:11.992Z</time></trkpt><trkpt lat="43.0215573" lon="12.2503534"><ele>220.75</ele><time>2026-04-09T14:09:12.993Z</time></trkpt><trkpt lat="43.0215493" lon="12.2501908"><ele>222.5</ele><time>2026-04-09T14:09:13.992Z</time></trkpt><trkpt lat="43.0215358" lon="12.2500276"><ele>224.25</ele><time>2026-04-09T14:09:14.992Z</time></trkpt><trkpt lat="43.0215264" lon="12.2498715"><ele>226.0</ele><time>2026-04-09T14:09:15.992Z</time></trkpt><trkpt lat="43.0215126" lon="12.2497179"><ele>228.0</ele><time>2026-04-09T14:09:16.993Z</time></trkpt><trkpt lat="43.0215047" lon="12.2495489"><ele>230.0</ele><time>2026-04-09T14:09:17.993Z</time></trkpt><trkpt lat="43.0214981" lon="12.2493907"><ele>232.0</ele><time>2026-04-09T14:09:18.993Z</time></trkpt><trkpt lat="43.0214913" lon="12.2492357"><ele>234.0</ele><time>2026-04-09T14:09:19.992Z</time></trkpt><trkpt lat="43.0214598" lon="12.2490725"><ele>236.75</ele><time>2026-04-09T14:09:20.992Z</time></trkpt><trkpt lat="43.0214111" lon="12.2489078"><ele>239.5</ele><time>2026-04-09T14:09:21.993Z</time></trkpt><trkpt lat="43.0213555" lon="12.2487581"><ele>242.25</ele><time>2026-04-09T14:09:22.993Z</time></trkpt><trkpt lat="43.0212936" lon="12.2486153"><ele>245.0</ele><time>2026-04-09T14:09:23.992Z</time></trkpt><trkpt lat="43.0212249" lon="12.248475"><ele>245.0</ele><time>2026-04-09T14:09:24.992Z</time></trkpt><trkpt lat="43.0211546" lon="12.2483536"><ele>245.0</ele><time>2026-04-09T14:09:25.993Z</time></trkpt><trkpt lat="43.0210837" lon="12.2482327"><ele>245.0</ele><time>2026-04-09T14:09:26.992Z</time></trkpt><trkpt lat="43.0210137" lon="12.2481103"><ele>245.0</ele><time>2026-04-09T14:09:27.992Z</time></trkpt><trkpt lat="43.0209412" lon="12.2479915"><ele>246.2</ele><time>2026-04-09T14:09:28.992Z</time></trkpt><trkpt lat="43.0208732" lon="12.2478771"><ele>247.4</ele><time>2026-04-09T14:09:29.991Z</time></trkpt><trkpt lat="43.0208073" lon="12.247765"><ele>248.60000000000002</ele><time>2026-04-09T14:09:30.992Z</time></trkpt><trkpt lat="43.0207272" lon="12.2476666"><ele>249.8</ele><time>2026-04-09T14:09:31.992Z</time></trkpt><trkpt lat="43.0206324" lon="12.247593"><ele>251.0</ele><time>2026-04-09T14:09:32.993Z</time></trkpt><trkpt lat="43.0205446" lon="12.2475192"><ele>251.20000000000002</ele><time>2026-04-09T14:09:33.991Z</time></trkpt><trkpt lat="43.0204572" lon="12.2474521"><ele>251.40000000000003</ele><time>2026-04-09T14:09:34.993Z</time></trkpt><trkpt lat="43.0203756" lon="12.2473913"><ele>251.6</ele><time>2026-04-09T14:09:35.991Z</time></trkpt><trkpt lat="43.0202991" lon="12.2473608"><ele>251.8</ele><time>2026-04-09T14:09:36.993Z</time></trkpt><trkpt lat="43.0202326" lon="12.2473738"><ele>252.0</ele><time>2026-04-09T14:09:37.992Z</time></trkpt><trkpt lat="43.0201431" lon="12.2474722"><ele>252.0</ele><time>2026-04-09T14:09:39.993Z</time></trkpt><trkpt lat="43.0200365" lon="12.2475067"><ele>252.0</ele><time>2026-04-09T14:09:41.992Z</time></trkpt><trkpt lat="43.0199248" lon="12.2474396"><ele>252.0</ele><time>2026-04-09T14:09:43.993Z</time></trkpt><trkpt lat="43.0198748" lon="12.247384"><ele>252.0</ele><time>2026-04-09T14:09:44.992Z</time></trkpt><trkpt lat="43.0197568" lon="12.2473871"><ele>252.0</ele><time>2026-04-09T14:09:46.993Z</time></trkpt><trkpt lat="43.0196947" lon="12.2474325"><ele>249.39999999999998</ele><time>2026-04-09T14:09:47.991Z</time></trkpt><trkpt lat="43.0196251" lon="12.2474971"><ele>246.79999999999998</ele><time>2026-04-09T14:09:48.992Z</time></trkpt><trkpt lat="43.0195531" lon="12.2475759"><ele>244.2</ele><time>2026-04-09T14:09:49.993Z</time></trkpt><trkpt lat="43.0194833" lon="12.2476535"><ele>241.6</ele><time>2026-04-09T14:09:50.993Z</time></trkpt><trkpt lat="43.019409" lon="12.2477302"><ele>239.0</ele><time>2026-04-09T14:09:51.993Z</time></trkpt><trkpt lat="43.019335" lon="12.2478091"><ele>239.0</ele><time>2026-04-09T14:09:52.992Z</time></trkpt><trkpt lat="43.0192651" lon="12.2478866"><ele>238.99999999999997</ele><time>2026-04-09T14:09:53.993Z</time></trkpt><trkpt lat="43.0192007" lon="12.247956"><ele>238.99999999999997</ele><time>2026-04-09T14:09:54.993Z</time></trkpt><trkpt lat="43.019133" lon="12.2480333"><ele>239.0</ele><time>2026-04-09T14:09:55.992Z</time></trkpt><trkpt lat="43.0190783" lon="12.2481086"><ele>239.0</ele><time>2026-04-09T14:09:56.994Z</time></trkpt><trkpt lat="43.0189938" lon="12.2482089"><ele>237.00000000000003</ele><time>2026-04-09T14:09:57.993Z</time></trkpt><trkpt lat="43.018926" lon="12.2482829"><ele>235.0</ele><time>2026-04-09T14:09:58.991Z</time></trkpt><trkpt lat="43.0188692" lon="12.2483516"><ele>233.0</ele><time>2026-04-09T14:09:59.993Z</time></trkpt><trkpt lat="43.0187911" lon="12.2484476"><ele>231.0</ele><time>2026-04-09T14:10:01.992Z</time></trkpt><trkpt lat="43.018745" lon="12.2485146"><ele>229.00000000000003</ele><time>2026-04-09T14:10:02.993Z</time></trkpt><trkpt lat="43.0187014" lon="12.2485846"><ele>227.0</ele><time>2026-04-09T14:10:03.992Z</time></trkpt><trkpt lat="43.0186498" lon="12.2486495"><ele>227.00000000000003</ele><time>2026-04-09T14:10:04.993Z</time></trkpt><trkpt lat="43.0185997" lon="12.2487189"><ele>227.0</ele><time>2026-04-09T14:10:05.993Z</time></trkpt><trkpt lat="43.0185498" lon="12.2487902"><ele>227.0</ele><time>2026-04-09T14:10:06.993Z</time></trkpt><trkpt lat="43.0184836" lon="12.2488767"><ele>227.0</ele><time>2026-04-09T14:10:07.993Z</time></trkpt><trkpt lat="43.018447" lon="12.248957"><ele>227.00000000000003</ele><time>2026-04-09T14:10:08.993Z</time></trkpt><trkpt lat="43.0184129" lon="12.2490387"><ele>227.0</ele><time>2026-04-09T14:10:09.992Z</time></trkpt><trkpt lat="43.0183847" lon="12.2491998"><ele>226.66666666666669</ele><time>2026-04-09T14:10:11.993Z</time></trkpt><trkpt lat="43.0183692" lon="12.2492958"><ele>226.33333333333334</ele><time>2026-04-09T14:10:12.993Z</time></trkpt><trkpt lat="43.0183533" lon="12.2493833"><ele>226.0</ele><time>2026-04-09T14:10:13.994Z</time></trkpt><trkpt lat="43.0183319" lon="12.2495171"><ele>225.66666666666669</ele><time>2026-04-09T14:10:15.993Z</time></trkpt><trkpt lat="43.0183166" lon="12.2496482"><ele>225.33333333333334</ele><time>2026-04-09T14:10:18.992Z</time></trkpt><trkpt lat="43.0182887" lon="12.2497741"><ele>225.0</ele><time>2026-04-09T14:10:20.993Z</time></trkpt><trkpt lat="43.0182892" lon="12.2499341"><ele>222.83333333333334</ele><time>2026-04-09T14:10:22.993Z</time></trkpt><trkpt lat="43.0182827" lon="12.2500296"><ele>220.66666666666669</ele><time>2026-04-09T14:10:23.993Z</time></trkpt><trkpt lat="43.0182745" lon="12.2501316"><ele>218.5</ele><time>2026-04-09T14:10:24.993Z</time></trkpt><trkpt lat="43.0182696" lon="12.2502345"><ele>216.33333333333334</ele><time>2026-04-09T14:10:25.993Z</time></trkpt><trkpt lat="43.0182595" lon="12.2503398"><ele>214.16666666666669</ele><time>2026-04-09T14:10:26.993Z</time></trkpt><trkpt lat="43.0182301" lon="12.2504738"><ele>212.0</ele><time>2026-04-09T14:10:28.992Z</time></trkpt><trkpt lat="43.0181528" lon="12.2505023"><ele>212.0</ele><time>2026-04-09T14:10:31.992Z</time></trkpt><trkpt lat="43.018101" lon="12.2504076"><ele>212.0</ele><time>2026-04-09T14:10:33.993Z</time></trkpt><trkpt lat="43.0180616" lon="12.2502516"><ele>212.0</ele><time>2026-04-09T14:10:35.992Z</time></trkpt><trkpt lat="43.0180419" lon="12.2501654"><ele>212.0</ele><time>2026-04-09T14:10:36.991Z</time></trkpt><trkpt lat="43.0180076" lon="12.2500416"><ele>212.0</ele><time>2026-04-09T14:10:37.992Z</time></trkpt><trkpt lat="43.0179669" lon="12.2498961"><ele>212.0</ele><time>2026-04-09T14:10:38.993Z</time></trkpt><trkpt lat="43.0179233" lon="12.2497263"><ele>212.0</ele><time>2026-04-09T14:10:39.993Z</time></trkpt><trkpt lat="43.0178782" lon="12.2495419"><ele>212.0</ele><time>2026-04-09T14:10:40.992Z</time></trkpt><trkpt lat="43.0178316" lon="12.2493724"><ele>212.0</ele><time>2026-04-09T14:10:41.992Z</time></trkpt><trkpt lat="43.017793" lon="12.2492201"><ele>212.0</ele><time>2026-04-09T14:10:42.992Z</time></trkpt><trkpt lat="43.0177531" lon="12.2490695"><ele>212.0</ele><time>2026-04-09T14:10:43.993Z</time></trkpt><trkpt lat="43.0177209" lon="12.2489253"><ele>212.0</ele><time>2026-04-09T14:10:44.993Z</time></trkpt><trkpt lat="43.0176848" lon="12.2487929"><ele>212.0</ele><time>2026-04-09T14:10:45.993Z</time></trkpt><trkpt lat="43.0176326" lon="12.2486638"><ele>212.0</ele><time>2026-04-09T14:10:46.992Z</time></trkpt><trkpt lat="43.0175699" lon="12.2485437"><ele>212.25</ele><time>2026-04-09T14:10:47.992Z</time></trkpt><trkpt lat="43.0175095" lon="12.2484299"><ele>212.5</ele><time>2026-04-09T14:10:48.993Z</time></trkpt><trkpt lat="43.0174567" lon="12.2482976"><ele>212.75</ele><time>2026-04-09T14:10:49.992Z</time></trkpt><trkpt lat="43.0174109" lon="12.2481421"><ele>213.0</ele><time>2026-04-09T14:10:50.992Z</time></trkpt><trkpt lat="43.0173968" lon="12.2479648"><ele>212.75</ele><time>2026-04-09T14:10:51.993Z</time></trkpt><trkpt lat="43.0173798" lon="12.2477866"><ele>212.5</ele><time>2026-04-09T14:10:52.992Z</time></trkpt><trkpt lat="43.0173461" lon="12.2475842"><ele>212.25</ele><time>2026-04-09T14:10:53.993Z</time></trkpt><trkpt lat="43.0173091" lon="12.2473649"><ele>212.0</ele><time>2026-04-09T14:10:54.993Z</time></trkpt><trkpt lat="43.0172621" lon="12.2471365"><ele>212.0</ele><time>2026-04-09T14:10:55.992Z</time></trkpt><trkpt lat="43.017207" lon="12.2468873"><ele>212.0</ele><time>2026-04-09T14:10:56.992Z</time></trkpt><trkpt lat="43.0171456" lon="12.2466576"><ele>212.0</ele><time>2026-04-09T14:10:57.993Z</time></trkpt><trkpt lat="43.0170722" lon="12.2464419"><ele>212.66666666666669</ele><time>2026-04-09T14:10:58.992Z</time></trkpt><trkpt lat="43.0170003" lon="12.2462311"><ele>213.33333333333331</ele><time>2026-04-09T14:10:59.992Z</time></trkpt><trkpt lat="43.0169111" lon="12.2460508"><ele>214.0</ele><time>2026-04-09T14:11:00.994Z</time></trkpt><trkpt lat="43.0167952" lon="12.2458636"><ele>214.0</ele><time>2026-04-09T14:11:01.992Z</time></trkpt><trkpt lat="43.0166729" lon="12.2456739"><ele>214.0</ele><time>2026-04-09T14:11:02.993Z</time></trkpt><trkpt lat="43.0165427" lon="12.2454877"><ele>214.0</ele><time>2026-04-09T14:11:03.992Z</time></trkpt><trkpt lat="43.0164098" lon="12.2452937"><ele>213.66666666666666</ele><time>2026-04-09T14:11:04.993Z</time></trkpt><trkpt lat="43.0162764" lon="12.245101"><ele>213.33333333333331</ele><time>2026-04-09T14:11:05.993Z</time></trkpt><trkpt lat="43.0161444" lon="12.244897"><ele>213.0</ele><time>2026-04-09T14:11:06.992Z</time></trkpt><trkpt lat="43.016008" lon="12.2446862"><ele>213.0</ele><time>2026-04-09T14:11:07.993Z</time></trkpt><trkpt lat="43.0158745" lon="12.2444702"><ele>213.0</ele><time>2026-04-09T14:11:08.993Z</time></trkpt><trkpt lat="43.0157393" lon="12.2442589"><ele>213.0</ele><time>2026-04-09T14:11:09.993Z</time></trkpt><trkpt lat="43.0156035" lon="12.2440523"><ele>215.33333333333331</ele><time>2026-04-09T14:11:10.993Z</time></trkpt><trkpt lat="43.0154674" lon="12.243857"><ele>217.66666666666666</ele><time>2026-04-09T14:11:11.991Z</time></trkpt><trkpt lat="43.0153327" lon="12.2436644"><ele>220.0</ele><time>2026-04-09T14:11:12.992Z</time></trkpt><trkpt lat="43.0152008" lon="12.2434609"><ele>220.0</ele><time>2026-04-09T14:11:13.993Z</time></trkpt><trkpt lat="43.0151002" lon="12.2432601"><ele>220.0</ele><time>2026-04-09T14:11:14.993Z</time></trkpt><trkpt lat="43.0149966" lon="12.2430348"><ele>220.0</ele><time>2026-04-09T14:11:15.992Z</time></trkpt><trkpt lat="43.0149405" lon="12.2427822"><ele>218.66666666666666</ele><time>2026-04-09T14:11:16.993Z</time></trkpt><trkpt lat="43.0148883" lon="12.2425281"><ele>217.33333333333331</ele><time>2026-04-09T14:11:17.993Z</time></trkpt><trkpt lat="43.0148282" lon="12.2422626"><ele>216.0</ele><time>2026-04-09T14:11:18.993Z</time></trkpt><trkpt lat="43.0147646" lon="12.2419965"><ele>216.0</ele><time>2026-04-09T14:11:19.993Z</time></trkpt><trkpt lat="43.0147043" lon="12.2417124"><ele>216.0</ele><time>2026-04-09T14:11:20.992Z</time></trkpt><trkpt lat="43.0146451" lon="12.2414435"><ele>216.0</ele><time>2026-04-09T14:11:21.992Z</time></trkpt><trkpt lat="43.0145861" lon="12.2411605"><ele>215.33333333333331</ele><time>2026-04-09T14:11:22.993Z</time></trkpt><trkpt lat="43.0145277" lon="12.2408749"><ele>214.66666666666666</ele><time>2026-04-09T14:11:23.993Z</time></trkpt><trkpt lat="43.0144657" lon="12.2405744"><ele>214.0</ele><time>2026-04-09T14:11:24.992Z</time></trkpt><trkpt lat="43.0144023" lon="12.2402671"><ele>214.0</ele><time>2026-04-09T14:11:25.993Z</time></trkpt><trkpt lat="43.0143331" lon="12.2399478"><ele>214.0</ele><time>2026-04-09T14:11:26.993Z</time></trkpt><trkpt lat="43.0142573" lon="12.2396306"><ele>213.5</ele><time>2026-04-09T14:11:27.992Z</time></trkpt><trkpt lat="43.0141839" lon="12.2393053"><ele>213.0</ele><time>2026-04-09T14:11:28.992Z</time></trkpt><trkpt lat="43.0141072" lon="12.238983"><ele>213.5</ele><time>2026-04-09T14:11:29.993Z</time></trkpt><trkpt lat="43.0140387" lon="12.2386513"><ele>214.0</ele><time>2026-04-09T14:11:30.993Z</time></trkpt><trkpt lat="43.013968" lon="12.238319"><ele>214.5</ele><time>2026-04-09T14:11:31.992Z</time></trkpt><trkpt lat="43.0138927" lon="12.2379864"><ele>215.0</ele><time>2026-04-09T14:11:32.993Z</time></trkpt><trkpt lat="43.0138204" lon="12.237661"><ele>215.0</ele><time>2026-04-09T14:11:33.993Z</time></trkpt><trkpt lat="43.0137519" lon="12.2373475"><ele>215.0</ele><time>2026-04-09T14:11:34.992Z</time></trkpt><trkpt lat="43.0136938" lon="12.2370552"><ele>215.66666666666669</ele><time>2026-04-09T14:11:35.993Z</time></trkpt><trkpt lat="43.0136271" lon="12.2367751"><ele>216.33333333333331</ele><time>2026-04-09T14:11:36.993Z</time></trkpt><trkpt lat="43.0135566" lon="12.2365004"><ele>217.0</ele><time>2026-04-09T14:11:37.993Z</time></trkpt><trkpt lat="43.0134783" lon="12.2362432"><ele>216.33333333333331</ele><time>2026-04-09T14:11:38.993Z</time></trkpt><trkpt lat="43.0133566" lon="12.2360114"><ele>215.66666666666669</ele><time>2026-04-09T14:11:39.992Z</time></trkpt><trkpt lat="43.0132127" lon="12.2358148"><ele>215.0</ele><time>2026-04-09T14:11:40.992Z</time></trkpt><trkpt lat="43.0130426" lon="12.2356223"><ele>220.0</ele><time>2026-04-09T14:11:41.993Z</time></trkpt><trkpt lat="43.0128566" lon="12.2354455"><ele>225.0</ele><time>2026-04-09T14:11:42.992Z</time></trkpt><trkpt lat="43.0126612" lon="12.2352649"><ele>220.0</ele><time>2026-04-09T14:11:43.993Z</time></trkpt><trkpt lat="43.0124655" lon="12.2350759"><ele>215.0</ele><time>2026-04-09T14:11:44.992Z</time></trkpt><trkpt lat="43.0122607" lon="12.23489"><ele>222.0</ele><time>2026-04-09T14:11:45.993Z</time></trkpt><trkpt lat="43.0120503" lon="12.2347041"><ele>229.0</ele><time>2026-04-09T14:11:46.993Z</time></trkpt><trkpt lat="43.0118422" lon="12.2345209"><ele>224.0</ele><time>2026-04-09T14:11:47.993Z</time></trkpt><trkpt lat="43.0116479" lon="12.2343463"><ele>219.0</ele><time>2026-04-09T14:11:48.992Z</time></trkpt><trkpt lat="43.0114646" lon="12.2341862"><ele>219.0</ele><time>2026-04-09T14:11:49.992Z</time></trkpt><trkpt lat="43.0112915" lon="12.2340253"><ele>219.0</ele><time>2026-04-09T14:11:50.993Z</time></trkpt><trkpt lat="43.0111194" lon="12.2338708"><ele>219.0</ele><time>2026-04-09T14:11:51.993Z</time></trkpt><trkpt lat="43.0109413" lon="12.2336976"><ele>219.0</ele><time>2026-04-09T14:11:52.993Z</time></trkpt><trkpt lat="43.0107506" lon="12.2335482"><ele>219.0</ele><time>2026-04-09T14:11:53.992Z</time></trkpt><trkpt lat="43.0105594" lon="12.2334292"><ele>219.0</ele><time>2026-04-09T14:11:54.992Z</time></trkpt><trkpt lat="43.010378" lon="12.2333445"><ele>219.0</ele><time>2026-04-09T14:11:55.992Z</time></trkpt><trkpt lat="43.0101965" lon="12.2332575"><ele>219.0</ele><time>2026-04-09T14:11:56.992Z</time></trkpt><trkpt lat="43.0100206" lon="12.2331631"><ele>219.0</ele><time>2026-04-09T14:11:57.992Z</time></trkpt><trkpt lat="43.0098622" lon="12.233017"><ele>219.0</ele><time>2026-04-09T14:11:58.993Z</time></trkpt><trkpt lat="43.0097148" lon="12.2328604"><ele>219.0</ele><time>2026-04-09T14:11:59.992Z</time></trkpt><trkpt lat="43.0095788" lon="12.232707"><ele>219.0</ele><time>2026-04-09T14:12:00.993Z</time></trkpt><trkpt lat="43.0094419" lon="12.2325502"><ele>219.0</ele><time>2026-04-09T14:12:01.993Z</time></trkpt><trkpt lat="43.0093124" lon="12.232405"><ele>219.0</ele><time>2026-04-09T14:12:02.992Z</time></trkpt><trkpt lat="43.0091967" lon="12.2322721"><ele>219.0</ele><time>2026-04-09T14:12:03.992Z</time></trkpt><trkpt lat="43.0090827" lon="12.2321434"><ele>219.33333333333334</ele><time>2026-04-09T14:12:04.993Z</time></trkpt><trkpt lat="43.0089872" lon="12.2320251"><ele>219.66666666666669</ele><time>2026-04-09T14:12:05.992Z</time></trkpt><trkpt lat="43.0089223" lon="12.2319559"><ele>220.0</ele><time>2026-04-09T14:12:06.992Z</time></trkpt><trkpt lat="43.0088541" lon="12.2319238"><ele>220.33333333333334</ele><time>2026-04-09T14:12:07.992Z</time></trkpt><trkpt lat="43.0087802" lon="12.23192"><ele>220.66666666666669</ele><time>2026-04-09T14:12:08.992Z</time></trkpt><trkpt lat="43.0087269" lon="12.2319745"><ele>221.0</ele><time>2026-04-09T14:12:09.993Z</time></trkpt><trkpt lat="43.0086554" lon="12.2320251"><ele>221.0</ele><time>2026-04-09T14:12:10.992Z</time></trkpt><trkpt lat="43.0085782" lon="12.2320774"><ele>221.00000000000003</ele><time>2026-04-09T14:12:11.993Z</time></trkpt><trkpt lat="43.008494" lon="12.2320916"><ele>221.00000000000003</ele><time>2026-04-09T14:12:12.993Z</time></trkpt><trkpt lat="43.0083864" lon="12.2320812"><ele>221.0</ele><time>2026-04-09T14:12:13.993Z</time></trkpt><trkpt lat="43.0082758" lon="12.2320512"><ele>221.0</ele><time>2026-04-09T14:12:14.992Z</time></trkpt><trkpt lat="43.0081614" lon="12.2320082"><ele>220.0</ele><time>2026-04-09T14:12:15.992Z</time></trkpt><trkpt lat="43.0080457" lon="12.2319515"><ele>219.0</ele><time>2026-04-09T14:12:16.992Z</time></trkpt><trkpt lat="43.0079201" lon="12.231889"><ele>218.0</ele><time>2026-04-09T14:12:17.992Z</time></trkpt><trkpt lat="43.0077841" lon="12.2318015"><ele>217.0</ele><time>2026-04-09T14:12:18.993Z</time></trkpt><trkpt lat="43.0076393" lon="12.2317222"><ele>215.66666666666666</ele><time>2026-04-09T14:12:19.991Z</time></trkpt><trkpt lat="43.0074852" lon="12.2316399"><ele>214.33333333333331</ele><time>2026-04-09T14:12:20.993Z</time></trkpt><trkpt lat="43.0073291" lon="12.2315575"><ele>213.0</ele><time>2026-04-09T14:12:21.992Z</time></trkpt><trkpt lat="43.0071737" lon="12.2314695"><ele>216.66666666666669</ele><time>2026-04-09T14:12:22.993Z</time></trkpt><trkpt lat="43.0070162" lon="12.2313754"><ele>220.33333333333334</ele><time>2026-04-09T14:12:23.993Z</time></trkpt><trkpt lat="43.0068612" lon="12.2312772"><ele>224.0</ele><time>2026-04-09T14:12:24.993Z</time></trkpt><trkpt lat="43.006699" lon="12.2311955"><ele>220.66666666666669</ele><time>2026-04-09T14:12:25.992Z</time></trkpt><trkpt lat="43.0065357" lon="12.2311361"><ele>217.33333333333331</ele><time>2026-04-09T14:12:26.992Z</time></trkpt><trkpt lat="43.0063599" lon="12.2311216"><ele>214.0</ele><time>2026-04-09T14:12:27.992Z</time></trkpt><trkpt lat="43.0061886" lon="12.2311673"><ele>214.0</ele><time>2026-04-09T14:12:28.992Z</time></trkpt><trkpt lat="43.0060248" lon="12.2312461"><ele>214.0</ele><time>2026-04-09T14:12:29.993Z</time></trkpt><trkpt lat="43.0058666" lon="12.2313641"><ele>214.0</ele><time>2026-04-09T14:12:30.993Z</time></trkpt><trkpt lat="43.005718" lon="12.2314954"><ele>213.66666666666666</ele><time>2026-04-09T14:12:31.993Z</time></trkpt><trkpt lat="43.0055652" lon="12.2316336"><ele>213.33333333333331</ele><time>2026-04-09T14:12:32.992Z</time></trkpt><trkpt lat="43.005414" lon="12.2317848"><ele>213.0</ele><time>2026-04-09T14:12:33.993Z</time></trkpt><trkpt lat="43.0052437" lon="12.2319411"><ele>213.0</ele><time>2026-04-09T14:12:34.993Z</time></trkpt><trkpt lat="43.0050751" lon="12.2321018"><ele>213.0</ele><time>2026-04-09T14:12:35.992Z</time></trkpt><trkpt lat="43.0049076" lon="12.2322608"><ele>213.0</ele><time>2026-04-09T14:12:36.992Z</time></trkpt><trkpt lat="43.0047371" lon="12.2324232"><ele>213.0</ele><time>2026-04-09T14:12:37.992Z</time></trkpt><trkpt lat="43.0045646" lon="12.2325719"><ele>213.0</ele><time>2026-04-09T14:12:38.992Z</time></trkpt><trkpt lat="43.0043791" lon="12.232717"><ele>213.0</ele><time>2026-04-09T14:12:39.993Z</time></trkpt><trkpt lat="43.0041885" lon="12.2328553"><ele>213.0</ele><time>2026-04-09T14:12:40.992Z</time></trkpt><trkpt lat="43.0039952" lon="12.232978"><ele>213.0</ele><time>2026-04-09T14:12:41.993Z</time></trkpt><trkpt lat="43.0038024" lon="12.2330952"><ele>213.0</ele><time>2026-04-09T14:12:42.992Z</time></trkpt><trkpt lat="43.0035992" lon="12.2332131"><ele>213.0</ele><time>2026-04-09T14:12:43.992Z</time></trkpt><trkpt lat="43.0033991" lon="12.2333296"><ele>213.0</ele><time>2026-04-09T14:12:44.993Z</time></trkpt><trkpt lat="43.0031833" lon="12.2334669"><ele>212.5</ele><time>2026-04-09T14:12:45.992Z</time></trkpt><trkpt lat="43.002951" lon="12.233625"><ele>212.0</ele><time>2026-04-09T14:12:46.992Z</time></trkpt><trkpt lat="43.00272" lon="12.2337633"><ele>212.5</ele><time>2026-04-09T14:12:47.993Z</time></trkpt><trkpt lat="43.0024841" lon="12.2338517"><ele>213.0</ele><time>2026-04-09T14:12:48.993Z</time></trkpt><trkpt lat="43.0022341" lon="12.2338816"><ele>213.0</ele><time>2026-04-09T14:12:49.993Z</time></trkpt><trkpt lat="43.0019662" lon="12.2338333"><ele>213.0</ele><time>2026-04-09T14:12:50.993Z</time></trkpt><trkpt lat="43.0016822" lon="12.2337258"><ele>214.0</ele><time>2026-04-09T14:12:51.992Z</time></trkpt><trkpt lat="43.0013767" lon="12.2335824"><ele>215.0</ele><time>2026-04-09T14:12:52.993Z</time></trkpt><trkpt lat="43.0010465" lon="12.2334329"><ele>215.0</ele><time>2026-04-09T14:12:53.992Z</time></trkpt><trkpt lat="43.0007002" lon="12.2332705"><ele>215.0</ele><time>2026-04-09T14:12:54.993Z</time></trkpt><trkpt lat="43.0003462" lon="12.2331056"><ele>215.0</ele><time>2026-04-09T14:12:55.992Z</time></trkpt><trkpt lat="43.0000302" lon="12.2329618"><ele>215.0</ele><time>2026-04-09T14:12:56.992Z</time></trkpt><trkpt lat="42.9997438" lon="12.2328334"><ele>215.0</ele><time>2026-04-09T14:12:57.992Z</time></trkpt><trkpt lat="42.9994953" lon="12.2327187"><ele>215.0</ele><time>2026-04-09T14:12:58.992Z</time></trkpt><trkpt lat="42.999273" lon="12.2326186"><ele>215.33333333333334</ele><time>2026-04-09T14:12:59.993Z</time></trkpt><trkpt lat="42.9990799" lon="12.2325444"><ele>215.66666666666669</ele><time>2026-04-09T14:13:00.993Z</time></trkpt><trkpt lat="42.9989031" lon="12.2324993"><ele>216.0</ele><time>2026-04-09T14:13:01.992Z</time></trkpt><trkpt lat="42.998735" lon="12.2324752"><ele>216.0</ele><time>2026-04-09T14:13:02.992Z</time></trkpt><trkpt lat="42.9985811" lon="12.2324764"><ele>216.0</ele><time>2026-04-09T14:13:03.993Z</time></trkpt><trkpt lat="42.9984251" lon="12.2324877"><ele>216.0</ele><time>2026-04-09T14:13:04.993Z</time></trkpt><trkpt lat="42.9982934" lon="12.2324965"><ele>216.0</ele><time>2026-04-09T14:13:05.993Z</time></trkpt><trkpt lat="42.9981735" lon="12.2325029"><ele>216.4</ele><time>2026-04-09T14:13:06.992Z</time></trkpt><trkpt lat="42.9980573" lon="12.2325024"><ele>216.8</ele><time>2026-04-09T14:13:07.992Z</time></trkpt><trkpt lat="42.9979466" lon="12.2325084"><ele>217.20000000000002</ele><time>2026-04-09T14:13:08.992Z</time></trkpt><trkpt lat="42.9978472" lon="12.2325135"><ele>217.60000000000002</ele><time>2026-04-09T14:13:09.992Z</time></trkpt><trkpt lat="42.997756" lon="12.232513"><ele>218.0</ele><time>2026-04-09T14:13:10.992Z</time></trkpt><trkpt lat="42.9976736" lon="12.2325192"><ele>218.00000000000003</ele><time>2026-04-09T14:13:11.993Z</time></trkpt><trkpt lat="42.997598" lon="12.2325194"><ele>218.0</ele><time>2026-04-09T14:13:12.993Z</time></trkpt><trkpt lat="42.9975261" lon="12.2325134"><ele>218.0</ele><time>2026-04-09T14:13:13.993Z</time></trkpt><trkpt lat="42.9974607" lon="12.2324905"><ele>218.0</ele><time>2026-04-09T14:13:14.993Z</time></trkpt><trkpt lat="42.9973886" lon="12.2324664"><ele>218.00000000000003</ele><time>2026-04-09T14:13:15.992Z</time></trkpt><trkpt lat="42.997287" lon="12.2323575"><ele>218.0</ele><time>2026-04-09T14:13:17.993Z</time></trkpt><trkpt lat="42.9972389" lon="12.2322629"><ele>218.00000000000003</ele><time>2026-04-09T14:13:18.992Z</time></trkpt><trkpt lat="42.9972235" lon="12.2321601"><ele>218.0</ele><time>2026-04-09T14:13:19.992Z</time></trkpt><trkpt lat="42.997218" lon="12.2320498"><ele>218.0</ele><time>2026-04-09T14:13:20.992Z</time></trkpt><trkpt lat="42.9972253" lon="12.2319419"><ele>218.0</ele><time>2026-04-09T14:13:21.993Z</time></trkpt><trkpt lat="42.9972395" lon="12.2318339"><ele>218.00000000000003</ele><time>2026-04-09T14:13:22.993Z</time></trkpt><trkpt lat="42.9972553" lon="12.231698"><ele>218.0</ele><time>2026-04-09T14:13:23.993Z</time></trkpt><trkpt lat="42.9972789" lon="12.2315593"><ele>217.5</ele><time>2026-04-09T14:13:24.992Z</time></trkpt><trkpt lat="42.9973094" lon="12.2313911"><ele>217.0</ele><time>2026-04-09T14:13:25.993Z</time></trkpt><trkpt lat="42.9973379" lon="12.2312138"><ele>216.5</ele><time>2026-04-09T14:13:26.992Z</time></trkpt><trkpt lat="42.9973451" lon="12.2310231"><ele>216.0</ele><time>2026-04-09T14:13:27.992Z</time></trkpt><trkpt lat="42.9973754" lon="12.2308234"><ele>216.33333333333331</ele><time>2026-04-09T14:13:28.992Z</time></trkpt><trkpt lat="42.9974066" lon="12.230604"><ele>216.66666666666666</ele><time>2026-04-09T14:13:29.992Z</time></trkpt><trkpt lat="42.9974436" lon="12.2303717"><ele>217.0</ele><time>2026-04-09T14:13:30.992Z</time></trkpt><trkpt lat="42.9974871" lon="12.2301325"><ele>217.0</ele><time>2026-04-09T14:13:31.992Z</time></trkpt><trkpt lat="42.9975253" lon="12.2298926"><ele>217.0</ele><time>2026-04-09T14:13:32.992Z</time></trkpt><trkpt lat="42.9975585" lon="12.2296561"><ele>217.0</ele><time>2026-04-09T14:13:33.992Z</time></trkpt><trkpt lat="42.9975934" lon="12.2294084"><ele>216.66666666666666</ele><time>2026-04-09T14:13:34.993Z</time></trkpt><trkpt lat="42.9976305" lon="12.229157"><ele>216.33333333333331</ele><time>2026-04-09T14:13:35.993Z</time></trkpt><trkpt lat="42.9976721" lon="12.2288921"><ele>216.0</ele><time>2026-04-09T14:13:36.992Z</time></trkpt><trkpt lat="42.9977099" lon="12.2286256"><ele>216.0</ele><time>2026-04-09T14:13:37.993Z</time></trkpt><trkpt lat="42.9977506" lon="12.2283532"><ele>216.0</ele><time>2026-04-09T14:13:38.992Z</time></trkpt><trkpt lat="42.9977931" lon="12.2280865"><ele>216.0</ele><time>2026-04-09T14:13:39.992Z</time></trkpt><trkpt lat="42.9978341" lon="12.227836"><ele>215.33333333333331</ele><time>2026-04-09T14:13:40.992Z</time></trkpt><trkpt lat="42.9978689" lon="12.2275873"><ele>214.66666666666666</ele><time>2026-04-09T14:13:41.991Z</time></trkpt><trkpt lat="42.9979127" lon="12.2273381"><ele>214.0</ele><time>2026-04-09T14:13:42.992Z</time></trkpt><trkpt lat="42.9979423" lon="12.2270898"><ele>214.0</ele><time>2026-04-09T14:13:43.993Z</time></trkpt><trkpt lat="42.9979705" lon="12.2268353"><ele>214.0</ele><time>2026-04-09T14:13:44.993Z</time></trkpt><trkpt lat="42.997989" lon="12.2265614"><ele>214.0</ele><time>2026-04-09T14:13:45.993Z</time></trkpt><trkpt lat="42.9979978" lon="12.2262757"><ele>214.33333333333331</ele><time>2026-04-09T14:13:46.992Z</time></trkpt><trkpt lat="42.9980115" lon="12.2259951"><ele>214.66666666666669</ele><time>2026-04-09T14:13:47.992Z</time></trkpt><trkpt lat="42.9980186" lon="12.2257046"><ele>215.0</ele><time>2026-04-09T14:13:48.992Z</time></trkpt><trkpt lat="42.9980247" lon="12.2254173"><ele>215.66666666666669</ele><time>2026-04-09T14:13:49.992Z</time></trkpt><trkpt lat="42.998029" lon="12.2251367"><ele>216.33333333333331</ele><time>2026-04-09T14:13:50.992Z</time></trkpt><trkpt lat="42.9980364" lon="12.2248543"><ele>217.0</ele><time>2026-04-09T14:13:51.992Z</time></trkpt><trkpt lat="42.9980381" lon="12.2245741"><ele>217.0</ele><time>2026-04-09T14:13:52.992Z</time></trkpt><trkpt lat="42.9980136" lon="12.2242842"><ele>217.0</ele><time>2026-04-09T14:13:53.992Z</time></trkpt><trkpt lat="42.9979719" lon="12.2239886"><ele>217.0</ele><time>2026-04-09T14:13:54.992Z</time></trkpt><trkpt lat="42.9978646" lon="12.2237056"><ele>216.5</ele><time>2026-04-09T14:13:55.993Z</time></trkpt><trkpt lat="42.9977552" lon="12.2234209"><ele>216.0</ele><time>2026-04-09T14:13:56.992Z</time></trkpt><trkpt lat="42.9976385" lon="12.2231242"><ele>215.5</ele><time>2026-04-09T14:13:57.993Z</time></trkpt><trkpt lat="42.997522" lon="12.2228275"><ele>215.0</ele><time>2026-04-09T14:13:58.992Z</time></trkpt><trkpt lat="42.9974216" lon="12.2225334"><ele>216.66666666666669</ele><time>2026-04-09T14:13:59.993Z</time></trkpt><trkpt lat="42.9973419" lon="12.2222468"><ele>218.33333333333331</ele><time>2026-04-09T14:14:00.992Z</time></trkpt><trkpt lat="42.9972602" lon="12.2219711"><ele>220.0</ele><time>2026-04-09T14:14:01.993Z</time></trkpt><trkpt lat="42.9971631" lon="12.2217325"><ele>220.0</ele><time>2026-04-09T14:14:02.992Z</time></trkpt><trkpt lat="42.997034" lon="12.2215354"><ele>220.0</ele><time>2026-04-09T14:14:03.992Z</time></trkpt><trkpt lat="42.9968646" lon="12.2214024"><ele>220.0</ele><time>2026-04-09T14:14:04.993Z</time></trkpt><trkpt lat="42.9966565" lon="12.2213005"><ele>223.0</ele><time>2026-04-09T14:14:05.993Z</time></trkpt><trkpt lat="42.9964102" lon="12.2212018"><ele>226.0</ele><time>2026-04-09T14:14:06.991Z</time></trkpt><trkpt lat="42.9961659" lon="12.2211183"><ele>226.0</ele><time>2026-04-09T14:14:07.992Z</time></trkpt><trkpt lat="42.9959386" lon="12.2210496"><ele>226.0</ele><time>2026-04-09T14:14:08.992Z</time></trkpt><trkpt lat="42.9957368" lon="12.2209855"><ele>226.0</ele><time>2026-04-09T14:14:09.993Z</time></trkpt><trkpt lat="42.9955762" lon="12.2209401"><ele>228.25</ele><time>2026-04-09T14:14:10.992Z</time></trkpt><trkpt lat="42.9954496" lon="12.2209552"><ele>230.5</ele><time>2026-04-09T14:14:11.993Z</time></trkpt><trkpt lat="42.9953404" lon="12.2210297"><ele>232.75</ele><time>2026-04-09T14:14:12.992Z</time></trkpt><trkpt lat="42.9952835" lon="12.221159"><ele>235.0</ele><time>2026-04-09T14:14:13.993Z</time></trkpt><trkpt lat="42.9952558" lon="12.2213601"><ele>235.66666666666666</ele><time>2026-04-09T14:14:14.992Z</time></trkpt><trkpt lat="42.9952433" lon="12.2216161"><ele>236.33333333333331</ele><time>2026-04-09T14:14:15.993Z</time></trkpt><trkpt lat="42.9952228" lon="12.2219052"><ele>237.0</ele><time>2026-04-09T14:14:16.993Z</time></trkpt><trkpt lat="42.9951786" lon="12.2221573"><ele>237.0</ele><time>2026-04-09T14:14:17.993Z</time></trkpt><trkpt lat="42.9951229" lon="12.2223265"><ele>237.0</ele><time>2026-04-09T14:14:18.992Z</time></trkpt><trkpt lat="42.995047" lon="12.222456"><ele>237.0</ele><time>2026-04-09T14:14:19.992Z</time></trkpt><trkpt lat="42.9949571" lon="12.2225607"><ele>237.0</ele><time>2026-04-09T14:14:20.993Z</time></trkpt><trkpt lat="42.9948296" lon="12.2225519"><ele>241.5</ele><time>2026-04-09T14:14:21.992Z</time></trkpt><trkpt lat="42.9946966" lon="12.2224991"><ele>246.0</ele><time>2026-04-09T14:14:22.991Z</time></trkpt><trkpt lat="42.9945682" lon="12.2223937"><ele>250.5</ele><time>2026-04-09T14:14:23.993Z</time></trkpt><trkpt lat="42.9944696" lon="12.2222765"><ele>255.0</ele><time>2026-04-09T14:14:24.992Z</time></trkpt><trkpt lat="42.9943932" lon="12.2221589"><ele>255.0</ele><time>2026-04-09T14:14:25.993Z</time></trkpt><trkpt lat="42.9943383" lon="12.2220597"><ele>255.0</ele><time>2026-04-09T14:14:26.992Z</time></trkpt><trkpt lat="42.9942972" lon="12.2219695"><ele>255.0</ele><time>2026-04-09T14:14:27.992Z</time></trkpt><trkpt lat="42.9942553" lon="12.2218852"><ele>255.0</ele><time>2026-04-09T14:14:28.992Z</time></trkpt><trkpt lat="42.9942197" lon="12.2217923"><ele>255.0</ele><time>2026-04-09T14:14:29.992Z</time></trkpt><trkpt lat="42.9941782" lon="12.2217029"><ele>255.0</ele><time>2026-04-09T14:14:30.992Z</time></trkpt><trkpt lat="42.9941318" lon="12.2216155"><ele>256.5</ele><time>2026-04-09T14:14:31.993Z</time></trkpt><trkpt lat="42.994081" lon="12.2215294"><ele>258.0</ele><time>2026-04-09T14:14:32.992Z</time></trkpt><trkpt lat="42.9940163" lon="12.2214527"><ele>259.5</ele><time>2026-04-09T14:14:33.992Z</time></trkpt><trkpt lat="42.9939582" lon="12.2214075"><ele>261.0</ele><time>2026-04-09T14:14:34.992Z</time></trkpt><trkpt lat="42.9938836" lon="12.2213685"><ele>262.5</ele><time>2026-04-09T14:14:35.992Z</time></trkpt><trkpt lat="42.9938189" lon="12.2213406"><ele>264.0</ele><time>2026-04-09T14:14:36.993Z</time></trkpt><trkpt lat="42.9937509" lon="12.221318"><ele>264.0</ele><time>2026-04-09T14:14:37.993Z</time></trkpt><trkpt lat="42.9936212" lon="12.2212861"><ele>264.0</ele><time>2026-04-09T14:14:39.992Z</time></trkpt><trkpt lat="42.9935449" lon="12.2212705"><ele>264.0</ele><time>2026-04-09T14:14:40.992Z</time></trkpt><trkpt lat="42.9934752" lon="12.2212544"><ele>264.0</ele><time>2026-04-09T14:14:41.993Z</time></trkpt><trkpt lat="42.9934019" lon="12.2212362"><ele>264.0</ele><time>2026-04-09T14:14:42.992Z</time></trkpt><trkpt lat="42.9933326" lon="12.2212061"><ele>264.0</ele><time>2026-04-09T14:14:43.992Z</time></trkpt><trkpt lat="42.9932667" lon="12.2211695"><ele>267.59999999999997</ele><time>2026-04-09T14:14:44.993Z</time></trkpt><trkpt lat="42.9932026" lon="12.2211223"><ele>271.2</ele><time>2026-04-09T14:14:45.993Z</time></trkpt><trkpt lat="42.9931292" lon="12.2210669"><ele>274.79999999999995</ele><time>2026-04-09T14:14:46.993Z</time></trkpt><trkpt lat="42.9930604" lon="12.2209958"><ele>278.4</ele><time>2026-04-09T14:14:47.992Z</time></trkpt><trkpt lat="42.9929761" lon="12.2209091"><ele>282.0</ele><time>2026-04-09T14:14:48.993Z</time></trkpt><trkpt lat="42.992884" lon="12.2208182"><ele>282.0</ele><time>2026-04-09T14:14:49.992Z</time></trkpt><trkpt lat="42.992787" lon="12.2207151"><ele>282.0</ele><time>2026-04-09T14:14:50.993Z</time></trkpt><trkpt lat="42.9926727" lon="12.2205995"><ele>282.0</ele><time>2026-04-09T14:14:51.993Z</time></trkpt><trkpt lat="42.9925588" lon="12.22049"><ele>282.0</ele><time>2026-04-09T14:14:52.993Z</time></trkpt><trkpt lat="42.9924645" lon="12.2203906"><ele>285.2</ele><time>2026-04-09T14:14:53.993Z</time></trkpt><trkpt lat="42.9923917" lon="12.2202723"><ele>288.4</ele><time>2026-04-09T14:14:54.992Z</time></trkpt><trkpt lat="42.9923507" lon="12.2201283"><ele>291.6</ele><time>2026-04-09T14:14:55.992Z</time></trkpt><trkpt lat="42.992342" lon="12.2199794"><ele>294.8</ele><time>2026-04-09T14:14:56.992Z</time></trkpt><trkpt lat="42.9923415" lon="12.2198253"><ele>298.0</ele><time>2026-04-09T14:14:57.993Z</time></trkpt><trkpt lat="42.992326" lon="12.2196626"><ele>299.0</ele><time>2026-04-09T14:14:58.992Z</time></trkpt><trkpt lat="42.9922886" lon="12.2195027"><ele>300.0</ele><time>2026-04-09T14:14:59.992Z</time></trkpt><trkpt lat="42.9922412" lon="12.2193467"><ele>301.0</ele><time>2026-04-09T14:15:00.993Z</time></trkpt><trkpt lat="42.9921971" lon="12.2191793"><ele>302.0</ele><time>2026-04-09T14:15:01.992Z</time></trkpt><trkpt lat="42.9921487" lon="12.219016"><ele>301.5</ele><time>2026-04-09T14:15:02.992Z</time></trkpt><trkpt lat="42.9921046" lon="12.2188471"><ele>301.0</ele><time>2026-04-09T14:15:03.991Z</time></trkpt><trkpt lat="42.9920505" lon="12.2186696"><ele>300.5</ele><time>2026-04-09T14:15:04.993Z</time></trkpt><trkpt lat="42.9919926" lon="12.2184769"><ele>300.0</ele><time>2026-04-09T14:15:05.991Z</time></trkpt><trkpt lat="42.9919568" lon="12.2182816"><ele>298.25</ele><time>2026-04-09T14:15:06.993Z</time></trkpt><trkpt lat="42.991912" lon="12.2180826"><ele>296.5</ele><time>2026-04-09T14:15:07.993Z</time></trkpt><trkpt lat="42.9918898" lon="12.2178899"><ele>294.75</ele><time>2026-04-09T14:15:08.993Z</time></trkpt><trkpt lat="42.9918818" lon="12.2176991"><ele>293.0</ele><time>2026-04-09T14:15:09.992Z</time></trkpt><trkpt lat="42.9918766" lon="12.2175184"><ele>293.0</ele><time>2026-04-09T14:15:10.992Z</time></trkpt><trkpt lat="42.9918809" lon="12.2173313"><ele>293.0</ele><time>2026-04-09T14:15:11.992Z</time></trkpt><trkpt lat="42.9918801" lon="12.2171476"><ele>293.0</ele><time>2026-04-09T14:15:12.993Z</time></trkpt><trkpt lat="42.991874" lon="12.2169632"><ele>293.0</ele><time>2026-04-09T14:15:13.992Z</time></trkpt><trkpt lat="42.9918713" lon="12.2167715"><ele>292.0</ele><time>2026-04-09T14:15:14.992Z</time></trkpt><trkpt lat="42.9918694" lon="12.2165894"><ele>291.0</ele><time>2026-04-09T14:15:15.992Z</time></trkpt><trkpt lat="42.9918393" lon="12.2163926"><ele>290.0</ele><time>2026-04-09T14:15:16.993Z</time></trkpt><trkpt lat="42.9918052" lon="12.2161843"><ele>289.0</ele><time>2026-04-09T14:15:17.992Z</time></trkpt><trkpt lat="42.9917861" lon="12.2159856"><ele>288.25</ele><time>2026-04-09T14:15:18.993Z</time></trkpt><trkpt lat="42.9917678" lon="12.2157944"><ele>287.5</ele><time>2026-04-09T14:15:19.993Z</time></trkpt><trkpt lat="42.9917477" lon="12.2156091"><ele>286.75</ele><time>2026-04-09T14:15:20.993Z</time></trkpt><trkpt lat="42.991746" lon="12.2154175"><ele>286.0</ele><time>2026-04-09T14:15:21.992Z</time></trkpt><trkpt lat="42.9917675" lon="12.2152124"><ele>284.3333333333333</ele><time>2026-04-09T14:15:22.992Z</time></trkpt><trkpt lat="42.9917853" lon="12.2149871"><ele>282.6666666666667</ele><time>2026-04-09T14:15:23.992Z</time></trkpt><trkpt lat="42.9918242" lon="12.2147632"><ele>281.0</ele><time>2026-04-09T14:15:24.992Z</time></trkpt><trkpt lat="42.9918533" lon="12.2145278"><ele>280.33333333333337</ele><time>2026-04-09T14:15:25.992Z</time></trkpt><trkpt lat="42.9918908" lon="12.2143067"><ele>279.6666666666667</ele><time>2026-04-09T14:15:26.992Z</time></trkpt><trkpt lat="42.9919394" lon="12.21409"><ele>279.0</ele><time>2026-04-09T14:15:27.992Z</time></trkpt><trkpt lat="42.9919838" lon="12.2138849"><ele>278.3333333333333</ele><time>2026-04-09T14:15:28.992Z</time></trkpt><trkpt lat="42.9920135" lon="12.2136639"><ele>277.66666666666663</ele><time>2026-04-09T14:15:29.992Z</time></trkpt><trkpt lat="42.9920125" lon="12.2134569"><ele>277.0</ele><time>2026-04-09T14:15:30.993Z</time></trkpt><trkpt lat="42.991982" lon="12.2132523"><ele>277.2</ele><time>2026-04-09T14:15:31.992Z</time></trkpt><trkpt lat="42.9919491" lon="12.2130954"><ele>277.4</ele><time>2026-04-09T14:15:32.992Z</time></trkpt><trkpt lat="42.9919103" lon="12.2129682"><ele>277.6</ele><time>2026-04-09T14:15:33.992Z</time></trkpt><trkpt lat="42.9918655" lon="12.2128766"><ele>277.8</ele><time>2026-04-09T14:15:36.992Z</time></trkpt><trkpt lat="42.9918374" lon="12.212763"><ele>278.0</ele><time>2026-04-09T14:16:01.992Z</time></trkpt><trkpt lat="42.9918785" lon="12.2126743"><ele>278.0</ele><time>2026-04-09T14:16:03.994Z</time></trkpt><trkpt lat="42.9919445" lon="12.2125788"><ele>278.0</ele><time>2026-04-09T14:16:04.993Z</time></trkpt><trkpt lat="42.991998" lon="12.2124936"><ele>278.0</ele><time>2026-04-09T14:16:05.992Z</time></trkpt><trkpt lat="42.992024" lon="12.2124009"><ele>278.0</ele><time>2026-04-09T14:16:06.992Z</time></trkpt><trkpt lat="42.9920696" lon="12.2122803"><ele>278.0</ele><time>2026-04-09T14:16:07.992Z</time></trkpt><trkpt lat="42.9921013" lon="12.2121757"><ele>278.0</ele><time>2026-04-09T14:16:08.992Z</time></trkpt><trkpt lat="42.9921375" lon="12.2120651"><ele>278.33333333333337</ele><time>2026-04-09T14:16:09.992Z</time></trkpt><trkpt lat="42.99217" lon="12.2119561"><ele>278.6666666666667</ele><time>2026-04-09T14:16:10.992Z</time></trkpt><trkpt lat="42.9922057" lon="12.2118595"><ele>279.0</ele><time>2026-04-09T14:16:11.992Z</time></trkpt><trkpt lat="42.9922194" lon="12.2117583"><ele>279.3333333333333</ele><time>2026-04-09T14:16:12.992Z</time></trkpt><trkpt lat="42.9922366" lon="12.2116667"><ele>279.66666666666663</ele><time>2026-04-09T14:16:13.992Z</time></trkpt><trkpt lat="42.9922648" lon="12.2115823"><ele>280.0</ele><time>2026-04-09T14:16:14.992Z</time></trkpt><trkpt lat="42.9922457" lon="12.2114127"><ele>279.0</ele><time>2026-04-09T14:16:16.992Z</time></trkpt><trkpt lat="42.9921982" lon="12.211343"><ele>278.0</ele><time>2026-04-09T14:16:17.991Z</time></trkpt><trkpt lat="42.9921244" lon="12.2112978"><ele>277.0</ele><time>2026-04-09T14:16:18.992Z</time></trkpt><trkpt lat="42.9920337" lon="12.2112825"><ele>276.0</ele><time>2026-04-09T14:16:19.992Z</time></trkpt><trkpt lat="42.9919315" lon="12.2112845"><ele>275.0</ele><time>2026-04-09T14:16:20.992Z</time></trkpt><trkpt lat="42.9918196" lon="12.2112833"><ele>275.0</ele><time>2026-04-09T14:16:21.992Z</time></trkpt><trkpt lat="42.9917016" lon="12.2112538"><ele>275.0</ele><time>2026-04-09T14:16:22.993Z</time></trkpt><trkpt lat="42.9915925" lon="12.2111966"><ele>275.0</ele><time>2026-04-09T14:16:23.993Z</time></trkpt><trkpt lat="42.9914931" lon="12.2111134"><ele>275.0</ele><time>2026-04-09T14:16:24.991Z</time></trkpt><trkpt lat="42.9913974" lon="12.211001"><ele>273.75</ele><time>2026-04-09T14:16:25.993Z</time></trkpt><trkpt lat="42.991299" lon="12.2108829"><ele>272.5</ele><time>2026-04-09T14:16:26.992Z</time></trkpt><trkpt lat="42.9911906" lon="12.2107836"><ele>271.25</ele><time>2026-04-09T14:16:27.993Z</time></trkpt><trkpt lat="42.9910736" lon="12.2106968"><ele>270.0</ele><time>2026-04-09T14:16:28.992Z</time></trkpt><trkpt lat="42.9909599" lon="12.2106178"><ele>269.0</ele><time>2026-04-09T14:16:29.992Z</time></trkpt><trkpt lat="42.9908449" lon="12.2105104"><ele>268.0</ele><time>2026-04-09T14:16:30.992Z</time></trkpt><trkpt lat="42.9907401" lon="12.2103881"><ele>267.0</ele><time>2026-04-09T14:16:31.992Z</time></trkpt><trkpt lat="42.9906308" lon="12.2102837"><ele>266.0</ele><time>2026-04-09T14:16:32.993Z</time></trkpt><trkpt lat="42.9905185" lon="12.2101848"><ele>266.0</ele><time>2026-04-09T14:16:33.992Z</time></trkpt><trkpt lat="42.9904008" lon="12.2101038"><ele>266.0</ele><time>2026-04-09T14:16:34.992Z</time></trkpt><trkpt lat="42.9902927" lon="12.210032"><ele>266.0</ele><time>2026-04-09T14:16:35.993Z</time></trkpt><trkpt lat="42.9902043" lon="12.2099501"><ele>266.0</ele><time>2026-04-09T14:16:36.993Z</time></trkpt><trkpt lat="42.9901438" lon="12.2098636"><ele>266.0</ele><time>2026-04-09T14:16:37.992Z</time></trkpt><trkpt lat="42.9901191" lon="12.2097543"><ele>264.6</ele><time>2026-04-09T14:16:38.992Z</time></trkpt><trkpt lat="42.9901382" lon="12.2096273"><ele>263.20000000000005</ele><time>2026-04-09T14:16:39.993Z</time></trkpt><trkpt lat="42.9901593" lon="12.2094867"><ele>261.79999999999995</ele><time>2026-04-09T14:16:40.992Z</time></trkpt><trkpt lat="42.9901874" lon="12.209345"><ele>260.4</ele><time>2026-04-09T14:16:41.993Z</time></trkpt><trkpt lat="42.9902254" lon="12.209193"><ele>259.0</ele><time>2026-04-09T14:16:42.992Z</time></trkpt><trkpt lat="42.9902881" lon="12.2090199"><ele>257.25</ele><time>2026-04-09T14:16:43.993Z</time></trkpt><trkpt lat="42.9903599" lon="12.2088627"><ele>255.5</ele><time>2026-04-09T14:16:44.993Z</time></trkpt><trkpt lat="42.9904527" lon="12.2087216"><ele>253.75</ele><time>2026-04-09T14:16:45.992Z</time></trkpt><trkpt lat="42.990556" lon="12.2086005"><ele>252.0</ele><time>2026-04-09T14:16:46.992Z</time></trkpt><trkpt lat="42.9906489" lon="12.2084779"><ele>252.0</ele><time>2026-04-09T14:16:47.992Z</time></trkpt><trkpt lat="42.9907171" lon="12.2083486"><ele>252.0</ele><time>2026-04-09T14:16:48.993Z</time></trkpt><trkpt lat="42.9907766" lon="12.2082258"><ele>252.0</ele><time>2026-04-09T14:16:49.992Z</time></trkpt><trkpt lat="42.9908308" lon="12.2080779"><ele>252.0</ele><time>2026-04-09T14:16:50.992Z</time></trkpt><trkpt lat="42.9908629" lon="12.2079094"><ele>248.75</ele><time>2026-04-09T14:16:51.992Z</time></trkpt><trkpt lat="42.9908978" lon="12.2077209"><ele>245.5</ele><time>2026-04-09T14:16:52.991Z</time></trkpt><trkpt lat="42.9909512" lon="12.2075268"><ele>242.25</ele><time>2026-04-09T14:16:53.991Z</time></trkpt><trkpt lat="42.9910109" lon="12.2073344"><ele>239.0</ele><time>2026-04-09T14:16:54.992Z</time></trkpt><trkpt lat="42.9910682" lon="12.2071377"><ele>237.75</ele><time>2026-04-09T14:16:55.992Z</time></trkpt><trkpt lat="42.9911089" lon="12.2069526"><ele>236.5</ele><time>2026-04-09T14:16:56.993Z</time></trkpt><trkpt lat="42.9911536" lon="12.2067769"><ele>235.25</ele><time>2026-04-09T14:16:57.992Z</time></trkpt><trkpt lat="42.9912014" lon="12.2066059"><ele>234.0</ele><time>2026-04-09T14:16:58.992Z</time></trkpt><trkpt lat="42.9912614" lon="12.2064335"><ele>233.39999999999998</ele><time>2026-04-09T14:16:59.992Z</time></trkpt><trkpt lat="42.991297" lon="12.2062869"><ele>232.79999999999998</ele><time>2026-04-09T14:17:00.992Z</time></trkpt><trkpt lat="42.9913349" lon="12.2061454"><ele>232.20000000000002</ele><time>2026-04-09T14:17:01.992Z</time></trkpt><trkpt lat="42.9913711" lon="12.2060311"><ele>231.60000000000002</ele><time>2026-04-09T14:17:02.992Z</time></trkpt><trkpt lat="42.991406" lon="12.2059322"><ele>231.0</ele><time>2026-04-09T14:17:03.993Z</time></trkpt><trkpt lat="42.991418" lon="12.2058398"><ele>231.0</ele><time>2026-04-09T14:17:04.993Z</time></trkpt><trkpt lat="42.9913702" lon="12.2057076"><ele>231.00000000000003</ele><time>2026-04-09T14:17:06.992Z</time></trkpt><trkpt lat="42.9912913" lon="12.2057065"><ele>231.00000000000003</ele><time>2026-04-09T14:17:08.991Z</time></trkpt><trkpt lat="42.9911573" lon="12.205656"><ele>231.0</ele><time>2026-04-09T14:17:10.992Z</time></trkpt><trkpt lat="42.9910796" lon="12.2056056"><ele>231.0</ele><time>2026-04-09T14:17:11.992Z</time></trkpt><trkpt lat="42.9909973" lon="12.2055535"><ele>231.0</ele><time>2026-04-09T14:17:12.992Z</time></trkpt><trkpt lat="42.990908" lon="12.2054905"><ele>231.00000000000003</ele><time>2026-04-09T14:17:13.992Z</time></trkpt><trkpt lat="42.9908146" lon="12.2054221"><ele>231.00000000000003</ele><time>2026-04-09T14:17:14.993Z</time></trkpt><trkpt lat="42.9907247" lon="12.2053582"><ele>231.0</ele><time>2026-04-09T14:17:15.992Z</time></trkpt><trkpt lat="42.9906252" lon="12.2052844"><ele>231.0</ele><time>2026-04-09T14:17:16.993Z</time></trkpt><trkpt lat="42.9905202" lon="12.2052149"><ele>231.25</ele><time>2026-04-09T14:17:17.992Z</time></trkpt><trkpt lat="42.9904092" lon="12.2051413"><ele>231.5</ele><time>2026-04-09T14:17:18.992Z</time></trkpt><trkpt lat="42.9902898" lon="12.2050695"><ele>231.75</ele><time>2026-04-09T14:17:19.992Z</time></trkpt><trkpt lat="42.9901717" lon="12.2049957"><ele>232.0</ele><time>2026-04-09T14:17:20.992Z</time></trkpt><trkpt lat="42.9900602" lon="12.2049167"><ele>231.8</ele><time>2026-04-09T14:17:21.991Z</time></trkpt><trkpt lat="42.9899597" lon="12.2048178"><ele>231.6</ele><time>2026-04-09T14:17:22.993Z</time></trkpt><trkpt lat="42.9898769" lon="12.2047192"><ele>231.40000000000003</ele><time>2026-04-09T14:17:23.992Z</time></trkpt><trkpt lat="42.9898111" lon="12.2046184"><ele>231.20000000000002</ele><time>2026-04-09T14:17:24.992Z</time></trkpt><trkpt lat="42.9897399" lon="12.2045191"><ele>231.0</ele><time>2026-04-09T14:17:25.992Z</time></trkpt><trkpt lat="42.989665" lon="12.2044285"><ele>231.0</ele><time>2026-04-09T14:17:26.993Z</time></trkpt><trkpt lat="42.9895936" lon="12.2043588"><ele>231.00000000000003</ele><time>2026-04-09T14:17:27.991Z</time></trkpt><trkpt lat="42.989483" lon="12.204302"><ele>231.00000000000003</ele><time>2026-04-09T14:17:28.992Z</time></trkpt><trkpt lat="42.9893785" lon="12.2042558"><ele>231.0</ele><time>2026-04-09T14:17:29.992Z</time></trkpt><trkpt lat="42.9892605" lon="12.2041971"><ele>231.0</ele><time>2026-04-09T14:17:30.993Z</time></trkpt><trkpt lat="42.9891491" lon="12.2041307"><ele>231.0</ele><time>2026-04-09T14:17:31.992Z</time></trkpt><trkpt lat="42.9890198" lon="12.2040668"><ele>231.0</ele><time>2026-04-09T14:17:32.993Z</time></trkpt><trkpt lat="42.9888806" lon="12.2039942"><ele>231.0</ele><time>2026-04-09T14:17:33.993Z</time></trkpt><trkpt lat="42.988713" lon="12.2039033"><ele>231.33333333333331</ele><time>2026-04-09T14:17:34.993Z</time></trkpt><trkpt lat="42.9885337" lon="12.2038033"><ele>231.66666666666666</ele><time>2026-04-09T14:17:35.993Z</time></trkpt><trkpt lat="42.9883434" lon="12.2037013"><ele>232.0</ele><time>2026-04-09T14:17:36.992Z</time></trkpt><trkpt lat="42.9881452" lon="12.2035853"><ele>232.0</ele><time>2026-04-09T14:17:37.992Z</time></trkpt><trkpt lat="42.9879578" lon="12.2034741"><ele>232.0</ele><time>2026-04-09T14:17:38.993Z</time></trkpt><trkpt lat="42.9877804" lon="12.2033753"><ele>232.0</ele><time>2026-04-09T14:17:39.993Z</time></trkpt><trkpt lat="42.9876045" lon="12.2032738"><ele>232.0</ele><time>2026-04-09T14:17:40.993Z</time></trkpt><trkpt lat="42.9874305" lon="12.2031698"><ele>232.0</ele><time>2026-04-09T14:17:41.993Z</time></trkpt><trkpt lat="42.9872564" lon="12.2030403"><ele>232.0</ele><time>2026-04-09T14:17:42.993Z</time></trkpt><trkpt lat="42.9870778" lon="12.2029141"><ele>232.0</ele><time>2026-04-09T14:17:43.992Z</time></trkpt><trkpt lat="42.9868821" lon="12.2027908"><ele>232.0</ele><time>2026-04-09T14:17:44.993Z</time></trkpt><trkpt lat="42.9866829" lon="12.2026721"><ele>232.0</ele><time>2026-04-09T14:17:45.992Z</time></trkpt><trkpt lat="42.9864834" lon="12.2025574"><ele>232.33333333333331</ele><time>2026-04-09T14:17:46.992Z</time></trkpt><trkpt lat="42.9862837" lon="12.202419"><ele>232.66666666666669</ele><time>2026-04-09T14:17:47.993Z</time></trkpt><trkpt lat="42.9861056" lon="12.2022485"><ele>233.0</ele><time>2026-04-09T14:17:48.993Z</time></trkpt><trkpt lat="42.9859437" lon="12.2020365"><ele>233.33333333333334</ele><time>2026-04-09T14:17:49.992Z</time></trkpt><trkpt lat="42.9857989" lon="12.2018037"><ele>233.66666666666669</ele><time>2026-04-09T14:17:50.993Z</time></trkpt><trkpt lat="42.9856536" lon="12.2015708"><ele>234.0</ele><time>2026-04-09T14:17:51.993Z</time></trkpt><trkpt lat="42.9855019" lon="12.2013585"><ele>234.0</ele><time>2026-04-09T14:17:52.991Z</time></trkpt><trkpt lat="42.9853417" lon="12.2011299"><ele>234.0</ele><time>2026-04-09T14:17:53.991Z</time></trkpt><trkpt lat="42.9851827" lon="12.2008862"><ele>234.0</ele><time>2026-04-09T14:17:54.993Z</time></trkpt><trkpt lat="42.9850432" lon="12.2006193"><ele>234.0</ele><time>2026-04-09T14:17:55.993Z</time></trkpt><trkpt lat="42.9849033" lon="12.2003472"><ele>234.0</ele><time>2026-04-09T14:17:56.992Z</time></trkpt><trkpt lat="42.9847775" lon="12.2000521"><ele>234.0</ele><time>2026-04-09T14:17:57.993Z</time></trkpt><trkpt lat="42.9846587" lon="12.1997499"><ele>234.0</ele><time>2026-04-09T14:17:58.992Z</time></trkpt><trkpt lat="42.9845392" lon="12.1994489"><ele>234.0</ele><time>2026-04-09T14:17:59.993Z</time></trkpt><trkpt lat="42.9844327" lon="12.1991497"><ele>234.0</ele><time>2026-04-09T14:18:00.993Z</time></trkpt><trkpt lat="42.9843482" lon="12.1988599"><ele>234.0</ele><time>2026-04-09T14:18:01.993Z</time></trkpt><trkpt lat="42.9842809" lon="12.198595"><ele>234.0</ele><time>2026-04-09T14:18:02.991Z</time></trkpt><trkpt lat="42.9841947" lon="12.1983485"><ele>235.33333333333331</ele><time>2026-04-09T14:18:03.993Z</time></trkpt><trkpt lat="42.9840929" lon="12.1981106"><ele>236.66666666666666</ele><time>2026-04-09T14:18:04.993Z</time></trkpt><trkpt lat="42.983954" lon="12.1978863"><ele>238.0</ele><time>2026-04-09T14:18:05.992Z</time></trkpt><trkpt lat="42.9838037" lon="12.1976731"><ele>238.0</ele><time>2026-04-09T14:18:06.992Z</time></trkpt><trkpt lat="42.9836552" lon="12.1974695"><ele>238.0</ele><time>2026-04-09T14:18:07.993Z</time></trkpt><trkpt lat="42.9835148" lon="12.197282"><ele>238.0</ele><time>2026-04-09T14:18:08.992Z</time></trkpt><trkpt lat="42.9833731" lon="12.1971053"><ele>240.33333333333331</ele><time>2026-04-09T14:18:09.992Z</time></trkpt><trkpt lat="42.9832106" lon="12.1969265"><ele>242.66666666666669</ele><time>2026-04-09T14:18:10.993Z</time></trkpt><trkpt lat="42.9830293" lon="12.1967577"><ele>245.0</ele><time>2026-04-09T14:18:11.993Z</time></trkpt><trkpt lat="42.9828456" lon="12.1966024"><ele>245.33333333333334</ele><time>2026-04-09T14:18:12.992Z</time></trkpt><trkpt lat="42.9826601" lon="12.1964632"><ele>245.66666666666669</ele><time>2026-04-09T14:18:13.992Z</time></trkpt><trkpt lat="42.9824747" lon="12.1963443"><ele>246.0</ele><time>2026-04-09T14:18:14.992Z</time></trkpt><trkpt lat="42.9823" lon="12.1962698"><ele>246.66666666666669</ele><time>2026-04-09T14:18:15.993Z</time></trkpt><trkpt lat="42.9821325" lon="12.1961917"><ele>247.33333333333334</ele><time>2026-04-09T14:18:16.992Z</time></trkpt><trkpt lat="42.9819671" lon="12.1961021"><ele>248.0</ele><time>2026-04-09T14:18:17.992Z</time></trkpt><trkpt lat="42.981813" lon="12.1959604"><ele>248.33333333333334</ele><time>2026-04-09T14:18:18.992Z</time></trkpt><trkpt lat="42.9816796" lon="12.1957978"><ele>248.66666666666669</ele><time>2026-04-09T14:18:19.992Z</time></trkpt><trkpt lat="42.9815633" lon="12.1956302"><ele>249.0</ele><time>2026-04-09T14:18:20.993Z</time></trkpt><trkpt lat="42.9814688" lon="12.1954821"><ele>249.0</ele><time>2026-04-09T14:18:21.993Z</time></trkpt><trkpt lat="42.9813856" lon="12.1953567"><ele>248.99999999999997</ele><time>2026-04-09T14:18:22.993Z</time></trkpt><trkpt lat="42.9813231" lon="12.1952586"><ele>248.99999999999997</ele><time>2026-04-09T14:18:23.993Z</time></trkpt><trkpt lat="42.9812835" lon="12.1951774"><ele>249.0</ele><time>2026-04-09T14:18:24.992Z</time></trkpt><trkpt lat="42.9812528" lon="12.1950997"><ele>249.0</ele><time>2026-04-09T14:18:25.992Z</time></trkpt><trkpt lat="42.9812378" lon="12.1949678"><ele>248.79999999999998</ele><time>2026-04-09T14:18:27.993Z</time></trkpt><trkpt lat="42.9812017" lon="12.1947809"><ele>248.59999999999997</ele><time>2026-04-09T14:18:29.993Z</time></trkpt><trkpt lat="42.981179" lon="12.1946727"><ele>248.4</ele><time>2026-04-09T14:18:30.992Z</time></trkpt><trkpt lat="42.9811473" lon="12.1945449"><ele>248.2</ele><time>2026-04-09T14:18:31.991Z</time></trkpt><trkpt lat="42.9811087" lon="12.1944124"><ele>248.0</ele><time>2026-04-09T14:18:32.993Z</time></trkpt><trkpt lat="42.9810688" lon="12.1942626"><ele>248.0</ele><time>2026-04-09T14:18:33.992Z</time></trkpt><trkpt lat="42.9810243" lon="12.1941254"><ele>248.0</ele><time>2026-04-09T14:18:34.992Z</time></trkpt><trkpt lat="42.9809826" lon="12.1939873"><ele>248.0</ele><time>2026-04-09T14:18:35.992Z</time></trkpt><trkpt lat="42.9809409" lon="12.1938522"><ele>248.0</ele><time>2026-04-09T14:18:36.992Z</time></trkpt><trkpt lat="42.9808997" lon="12.1936928"><ele>248.0</ele><time>2026-04-09T14:18:37.993Z</time></trkpt><trkpt lat="42.9808618" lon="12.1935296"><ele>248.0</ele><time>2026-04-09T14:18:38.992Z</time></trkpt><trkpt lat="42.980834" lon="12.1933602"><ele>248.0</ele><time>2026-04-09T14:18:39.992Z</time></trkpt><trkpt lat="42.9807961" lon="12.1931765"><ele>248.0</ele><time>2026-04-09T14:18:40.992Z</time></trkpt><trkpt lat="42.980764" lon="12.1930043"><ele>248.0</ele><time>2026-04-09T14:18:41.992Z</time></trkpt><trkpt lat="42.9807168" lon="12.1928231"><ele>248.0</ele><time>2026-04-09T14:18:42.992Z</time></trkpt><trkpt lat="42.9806657" lon="12.1926315"><ele>248.0</ele><time>2026-04-09T14:18:43.993Z</time></trkpt><trkpt lat="42.9806067" lon="12.1924327"><ele>248.0</ele><time>2026-04-09T14:18:44.992Z</time></trkpt><trkpt lat="42.9805444" lon="12.192243"><ele>248.0</ele><time>2026-04-09T14:18:45.992Z</time></trkpt><trkpt lat="42.980485" lon="12.1920517"><ele>248.0</ele><time>2026-04-09T14:18:46.992Z</time></trkpt><trkpt lat="42.9804373" lon="12.1918622"><ele>248.0</ele><time>2026-04-09T14:18:47.992Z</time></trkpt><trkpt lat="42.9803998" lon="12.1916721"><ele>248.0</ele><time>2026-04-09T14:18:48.993Z</time></trkpt><trkpt lat="42.9803608" lon="12.1915012"><ele>248.25</ele><time>2026-04-09T14:18:49.992Z</time></trkpt><trkpt lat="42.9802981" lon="12.1913461"><ele>248.5</ele><time>2026-04-09T14:18:50.992Z</time></trkpt><trkpt lat="42.9802249" lon="12.1911886"><ele>248.75</ele><time>2026-04-09T14:18:51.991Z</time></trkpt><trkpt lat="42.9801017" lon="12.1910537"><ele>249.0</ele><time>2026-04-09T14:18:52.992Z</time></trkpt><trkpt lat="42.9799885" lon="12.1909331"><ele>249.33333333333331</ele><time>2026-04-09T14:18:53.992Z</time></trkpt><trkpt lat="42.9798647" lon="12.1907974"><ele>249.66666666666666</ele><time>2026-04-09T14:18:54.992Z</time></trkpt><trkpt lat="42.979747" lon="12.1906554"><ele>250.0</ele><time>2026-04-09T14:18:55.993Z</time></trkpt><trkpt lat="42.9796397" lon="12.1904942"><ele>250.0</ele><time>2026-04-09T14:18:56.992Z</time></trkpt><trkpt lat="42.9795727" lon="12.1902475"><ele>250.0</ele><time>2026-04-09T14:18:57.992Z</time></trkpt><trkpt lat="42.9794905" lon="12.1900343"><ele>250.0</ele><time>2026-04-09T14:18:58.993Z</time></trkpt><trkpt lat="42.9794099" lon="12.189834"><ele>250.33333333333331</ele><time>2026-04-09T14:18:59.992Z</time></trkpt><trkpt lat="42.9793364" lon="12.1896238"><ele>250.66666666666669</ele><time>2026-04-09T14:19:00.992Z</time></trkpt><trkpt lat="42.9792551" lon="12.1893974"><ele>251.0</ele><time>2026-04-09T14:19:01.992Z</time></trkpt><trkpt lat="42.979172" lon="12.1891754"><ele>252.66666666666669</ele><time>2026-04-09T14:19:02.992Z</time></trkpt><trkpt lat="42.9791003" lon="12.1889436"><ele>254.33333333333331</ele><time>2026-04-09T14:19:03.992Z</time></trkpt><trkpt lat="42.9790382" lon="12.1887231"><ele>256.0</ele><time>2026-04-09T14:19:04.992Z</time></trkpt><trkpt lat="42.9789991" lon="12.1885084"><ele>256.0</ele><time>2026-04-09T14:19:05.993Z</time></trkpt><trkpt lat="42.9789508" lon="12.1883005"><ele>256.0</ele><time>2026-04-09T14:19:06.992Z</time></trkpt><trkpt lat="42.9788918" lon="12.1880994"><ele>256.0</ele><time>2026-04-09T14:19:07.992Z</time></trkpt><trkpt lat="42.978827" lon="12.1879116"><ele>255.66666666666666</ele><time>2026-04-09T14:19:08.993Z</time></trkpt><trkpt lat="42.9787558" lon="12.1877243"><ele>255.33333333333331</ele><time>2026-04-09T14:19:09.992Z</time></trkpt><trkpt lat="42.9786607" lon="12.1875614"><ele>255.0</ele><time>2026-04-09T14:19:10.993Z</time></trkpt><trkpt lat="42.9785441" lon="12.1874062"><ele>256.0</ele><time>2026-04-09T14:19:11.992Z</time></trkpt><trkpt lat="42.9784416" lon="12.187252"><ele>257.0</ele><time>2026-04-09T14:19:12.992Z</time></trkpt><trkpt lat="42.9783227" lon="12.1870997"><ele>258.0</ele><time>2026-04-09T14:19:13.992Z</time></trkpt><trkpt lat="42.9782196" lon="12.186955"><ele>258.0</ele><time>2026-04-09T14:19:14.993Z</time></trkpt><trkpt lat="42.9781074" lon="12.1868059"><ele>258.0</ele><time>2026-04-09T14:19:15.992Z</time></trkpt><trkpt lat="42.9780002" lon="12.1866542"><ele>258.0</ele><time>2026-04-09T14:19:16.993Z</time></trkpt><trkpt lat="42.977897" lon="12.1864867"><ele>259.3333333333333</ele><time>2026-04-09T14:19:17.992Z</time></trkpt><trkpt lat="42.9778034" lon="12.1863205"><ele>260.66666666666663</ele><time>2026-04-09T14:19:18.992Z</time></trkpt><trkpt lat="42.977711" lon="12.1861503"><ele>262.0</ele><time>2026-04-09T14:19:19.992Z</time></trkpt><trkpt lat="42.9776304" lon="12.1859817"><ele>262.0</ele><time>2026-04-09T14:19:20.993Z</time></trkpt><trkpt lat="42.9775726" lon="12.1858218"><ele>262.0</ele><time>2026-04-09T14:19:21.992Z</time></trkpt><trkpt lat="42.9775127" lon="12.1856619"><ele>262.0</ele><time>2026-04-09T14:19:22.992Z</time></trkpt><trkpt lat="42.977459" lon="12.185503"><ele>262.0</ele><time>2026-04-09T14:19:23.992Z</time></trkpt><trkpt lat="42.977414" lon="12.1853441"><ele>261.8</ele><time>2026-04-09T14:19:24.992Z</time></trkpt><trkpt lat="42.9773799" lon="12.1851906"><ele>261.6</ele><time>2026-04-09T14:19:25.992Z</time></trkpt><trkpt lat="42.9773678" lon="12.1850471"><ele>261.40000000000003</ele><time>2026-04-09T14:19:26.993Z</time></trkpt><trkpt lat="42.9773684" lon="12.1849069"><ele>261.2</ele><time>2026-04-09T14:19:27.992Z</time></trkpt><trkpt lat="42.9773952" lon="12.1847562"><ele>261.0</ele><time>2026-04-09T14:19:28.993Z</time></trkpt><trkpt lat="42.977422" lon="12.1845914"><ele>261.5</ele><time>2026-04-09T14:19:29.991Z</time></trkpt><trkpt lat="42.9774512" lon="12.184408"><ele>262.0</ele><time>2026-04-09T14:19:30.992Z</time></trkpt><trkpt lat="42.977466" lon="12.1842045"><ele>262.5</ele><time>2026-04-09T14:19:31.992Z</time></trkpt><trkpt lat="42.9774766" lon="12.1839874"><ele>263.0</ele><time>2026-04-09T14:19:32.993Z</time></trkpt><trkpt lat="42.9774776" lon="12.1837584"><ele>263.6666666666667</ele><time>2026-04-09T14:19:33.992Z</time></trkpt><trkpt lat="42.9774826" lon="12.1835172"><ele>264.3333333333333</ele><time>2026-04-09T14:19:34.993Z</time></trkpt><trkpt lat="42.9774903" lon="12.1832794"><ele>265.0</ele><time>2026-04-09T14:19:35.992Z</time></trkpt><trkpt lat="42.9774973" lon="12.183042"><ele>266.3333333333333</ele><time>2026-04-09T14:19:36.993Z</time></trkpt><trkpt lat="42.9774859" lon="12.1828261"><ele>267.6666666666667</ele><time>2026-04-09T14:19:37.993Z</time></trkpt><trkpt lat="42.9774851" lon="12.1825985"><ele>269.0</ele><time>2026-04-09T14:19:38.993Z</time></trkpt><trkpt lat="42.9774884" lon="12.182368"><ele>270.6666666666667</ele><time>2026-04-09T14:19:39.993Z</time></trkpt><trkpt lat="42.9774896" lon="12.1821336"><ele>272.3333333333333</ele><time>2026-04-09T14:19:40.993Z</time></trkpt><trkpt lat="42.97751" lon="12.1819062"><ele>274.0</ele><time>2026-04-09T14:19:41.992Z</time></trkpt><trkpt lat="42.9775336" lon="12.1816808"><ele>278.66666666666663</ele><time>2026-04-09T14:19:42.993Z</time></trkpt><trkpt lat="42.9775705" lon="12.181472"><ele>283.3333333333333</ele><time>2026-04-09T14:19:43.992Z</time></trkpt><trkpt lat="42.9776161" lon="12.1812824"><ele>288.0</ele><time>2026-04-09T14:19:44.993Z</time></trkpt><trkpt lat="42.9776934" lon="12.1810353"><ele>288.0</ele><time>2026-04-09T14:19:45.992Z</time></trkpt><trkpt lat="42.9777884" lon="12.1808638"><ele>288.0</ele><time>2026-04-09T14:19:46.992Z</time></trkpt><trkpt lat="42.9778817" lon="12.1806936"><ele>288.0</ele><time>2026-04-09T14:19:47.992Z</time></trkpt><trkpt lat="42.9779789" lon="12.1805244"><ele>287.75</ele><time>2026-04-09T14:19:48.994Z</time></trkpt><trkpt lat="42.9780584" lon="12.1803642"><ele>287.5</ele><time>2026-04-09T14:19:49.992Z</time></trkpt><trkpt lat="42.9781419" lon="12.180204"><ele>287.25</ele><time>2026-04-09T14:19:50.993Z</time></trkpt><trkpt lat="42.9781728" lon="12.1800964"><ele>287.0</ele><time>2026-04-09T14:19:51.993Z</time></trkpt><trkpt lat="42.9781925" lon="12.1799821"><ele>288.75</ele><time>2026-04-09T14:19:52.992Z</time></trkpt><trkpt lat="42.9781449" lon="12.17982"><ele>290.5</ele><time>2026-04-09T14:19:53.993Z</time></trkpt><trkpt lat="42.9780815" lon="12.1796821"><ele>292.25</ele><time>2026-04-09T14:19:54.992Z</time></trkpt><trkpt lat="42.9780032" lon="12.1795349"><ele>294.0</ele><time>2026-04-09T14:19:55.992Z</time></trkpt><trkpt lat="42.9779573" lon="12.1793528"><ele>294.0</ele><time>2026-04-09T14:19:56.992Z</time></trkpt><trkpt lat="42.9779227" lon="12.1791248"><ele>294.0</ele><time>2026-04-09T14:19:57.992Z</time></trkpt><trkpt lat="42.9779011" lon="12.1788815"><ele>294.0</ele><time>2026-04-09T14:19:58.993Z</time></trkpt><trkpt lat="42.9778896" lon="12.1786303"><ele>299.3333333333333</ele><time>2026-04-09T14:19:59.993Z</time></trkpt><trkpt lat="42.9778961" lon="12.1783632"><ele>304.66666666666663</ele><time>2026-04-09T14:20:00.992Z</time></trkpt><trkpt lat="42.9779118" lon="12.1780893"><ele>310.0</ele><time>2026-04-09T14:20:01.992Z</time></trkpt><trkpt lat="42.9779405" lon="12.1778248"><ele>314.0</ele><time>2026-04-09T14:20:02.993Z</time></trkpt><trkpt lat="42.977969" lon="12.1775839"><ele>318.0</ele><time>2026-04-09T14:20:03.992Z</time></trkpt><trkpt lat="42.9780076" lon="12.1773739"><ele>322.0</ele><time>2026-04-09T14:20:04.992Z</time></trkpt><trkpt lat="42.9780724" lon="12.1771857"><ele>320.75</ele><time>2026-04-09T14:20:05.993Z</time></trkpt><trkpt lat="42.9781602" lon="12.1770169"><ele>319.5</ele><time>2026-04-09T14:20:06.993Z</time></trkpt><trkpt lat="42.9782477" lon="12.1768719"><ele>318.25</ele><time>2026-04-09T14:20:07.993Z</time></trkpt><trkpt lat="42.978356" lon="12.1767399"><ele>317.0</ele><time>2026-04-09T14:20:08.992Z</time></trkpt><trkpt lat="42.97846" lon="12.1765976"><ele>321.5</ele><time>2026-04-09T14:20:09.993Z</time></trkpt><trkpt lat="42.9785275" lon="12.1764384"><ele>326.0</ele><time>2026-04-09T14:20:10.993Z</time></trkpt><trkpt lat="42.9786044" lon="12.1763039"><ele>330.5</ele><time>2026-04-09T14:20:11.992Z</time></trkpt><trkpt lat="42.9786744" lon="12.1761919"><ele>335.0</ele><time>2026-04-09T14:20:12.992Z</time></trkpt><trkpt lat="42.9787322" lon="12.1760972"><ele>335.0</ele><time>2026-04-09T14:20:13.992Z</time></trkpt><trkpt lat="42.9787858" lon="12.1759981"><ele>335.0</ele><time>2026-04-09T14:20:14.991Z</time></trkpt><trkpt lat="42.9788245" lon="12.1759151"><ele>335.0</ele><time>2026-04-09T14:20:15.992Z</time></trkpt><trkpt lat="42.9788582" lon="12.1758261"><ele>335.0</ele><time>2026-04-09T14:20:16.992Z</time></trkpt><trkpt lat="42.9788967" lon="12.175742"><ele>335.0</ele><time>2026-04-09T14:20:17.994Z</time></trkpt><trkpt lat="42.9789562" lon="12.1755977"><ele>335.0</ele><time>2026-04-09T14:20:19.992Z</time></trkpt><trkpt lat="42.9790144" lon="12.1754784"><ele>334.6666666666667</ele><time>2026-04-09T14:20:21.993Z</time></trkpt><trkpt lat="42.9790381" lon="12.1753819"><ele>334.33333333333337</ele><time>2026-04-09T14:20:25.993Z</time></trkpt><trkpt lat="42.9790265" lon="12.1752776"><ele>334.0</ele><time>2026-04-09T14:20:28.993Z</time></trkpt><trkpt lat="42.978969" lon="12.1751875"><ele>333.6666666666667</ele><time>2026-04-09T14:20:30.992Z</time></trkpt><trkpt lat="42.9789506" lon="12.1751024"><ele>333.3333333333333</ele><time>2026-04-09T14:20:32.992Z</time></trkpt><trkpt lat="42.9789178" lon="12.175019"><ele>333.0</ele><time>2026-04-09T14:20:34.992Z</time></trkpt><trkpt lat="42.9788797" lon="12.1749154"><ele>332.2</ele><time>2026-04-09T14:20:37.992Z</time></trkpt><trkpt lat="42.9788262" lon="12.174769"><ele>331.4</ele><time>2026-04-09T14:20:39.993Z</time></trkpt><trkpt lat="42.9787941" lon="12.1746816"><ele>330.59999999999997</ele><time>2026-04-09T14:20:40.992Z</time></trkpt><trkpt lat="42.9787549" lon="12.1745057"><ele>329.79999999999995</ele><time>2026-04-09T14:20:42.992Z</time></trkpt><trkpt lat="42.9787424" lon="12.1744131"><ele>329.0</ele><time>2026-04-09T14:20:43.991Z</time></trkpt><trkpt lat="42.9787362" lon="12.1743153"><ele>329.0</ele><time>2026-04-09T14:20:44.991Z</time></trkpt><trkpt lat="42.9787295" lon="12.1742156"><ele>329.0</ele><time>2026-04-09T14:20:45.992Z</time></trkpt><trkpt lat="42.9787227" lon="12.1741099"><ele>329.0</ele><time>2026-04-09T14:20:46.992Z</time></trkpt><trkpt lat="42.9787199" lon="12.1740073"><ele>329.0</ele><time>2026-04-09T14:20:47.992Z</time></trkpt><trkpt lat="42.9787238" lon="12.1739012"><ele>329.0</ele><time>2026-04-09T14:20:48.992Z</time></trkpt><trkpt lat="42.9786583" lon="12.173695"><ele>330.0</ele><time>2026-04-09T14:20:50.993Z</time></trkpt><trkpt lat="42.978626" lon="12.173607"><ele>331.0</ele><time>2026-04-09T14:20:51.992Z</time></trkpt><trkpt lat="42.9785535" lon="12.1735616"><ele>332.0</ele><time>2026-04-09T14:20:52.993Z</time></trkpt><trkpt lat="42.978484" lon="12.1734853"><ele>333.0</ele><time>2026-04-09T14:20:53.993Z</time></trkpt><trkpt lat="42.9784022" lon="12.1733984"><ele>334.0</ele><time>2026-04-09T14:20:54.992Z</time></trkpt><trkpt lat="42.9783065" lon="12.173316"><ele>334.0</ele><time>2026-04-09T14:20:55.993Z</time></trkpt><trkpt lat="42.9781992" lon="12.1732545"><ele>334.0</ele><time>2026-04-09T14:20:56.991Z</time></trkpt><trkpt lat="42.9780823" lon="12.1731947"><ele>334.0</ele><time>2026-04-09T14:20:57.993Z</time></trkpt><trkpt lat="42.9779568" lon="12.1731409"><ele>334.0</ele><time>2026-04-09T14:20:58.991Z</time></trkpt><trkpt lat="42.9778247" lon="12.1730961"><ele>334.66666666666663</ele><time>2026-04-09T14:20:59.992Z</time></trkpt><trkpt lat="42.9776801" lon="12.1730455"><ele>335.3333333333333</ele><time>2026-04-09T14:21:00.993Z</time></trkpt><trkpt lat="42.9775271" lon="12.1729945"><ele>336.0</ele><time>2026-04-09T14:21:01.992Z</time></trkpt><trkpt lat="42.9773722" lon="12.1729509"><ele>336.0</ele><time>2026-04-09T14:21:02.992Z</time></trkpt><trkpt lat="42.9772262" lon="12.1729323"><ele>336.0</ele><time>2026-04-09T14:21:03.993Z</time></trkpt><trkpt lat="42.9770845" lon="12.1729079"><ele>336.0</ele><time>2026-04-09T14:21:04.992Z</time></trkpt><trkpt lat="42.976945" lon="12.172863"><ele>336.0</ele><time>2026-04-09T14:21:05.992Z</time></trkpt><trkpt lat="42.9768143" lon="12.1728056"><ele>336.0</ele><time>2026-04-09T14:21:06.991Z</time></trkpt><trkpt lat="42.9766978" lon="12.1727389"><ele>336.0</ele><time>2026-04-09T14:21:07.992Z</time></trkpt><trkpt lat="42.9765956" lon="12.1726744"><ele>336.0</ele><time>2026-04-09T14:21:08.992Z</time></trkpt><trkpt lat="42.9765045" lon="12.1725968"><ele>336.0</ele><time>2026-04-09T14:21:09.993Z</time></trkpt><trkpt lat="42.9764421" lon="12.1725034"><ele>336.0</ele><time>2026-04-09T14:21:10.993Z</time></trkpt><trkpt lat="42.9764093" lon="12.172395"><ele>338.6</ele><time>2026-04-09T14:21:11.993Z</time></trkpt><trkpt lat="42.9764298" lon="12.1722618"><ele>341.20000000000005</ele><time>2026-04-09T14:21:12.993Z</time></trkpt><trkpt lat="42.9764821" lon="12.1721443"><ele>343.79999999999995</ele><time>2026-04-09T14:21:13.992Z</time></trkpt><trkpt lat="42.9765699" lon="12.1720465"><ele>346.4</ele><time>2026-04-09T14:21:14.993Z</time></trkpt><trkpt lat="42.9766948" lon="12.1719832"><ele>349.0</ele><time>2026-04-09T14:21:15.993Z</time></trkpt><trkpt lat="42.9768258" lon="12.1719213"><ele>349.0</ele><time>2026-04-09T14:21:16.993Z</time></trkpt><trkpt lat="42.9769464" lon="12.1719035"><ele>349.0</ele><time>2026-04-09T14:21:17.993Z</time></trkpt><trkpt lat="42.9770654" lon="12.1718441"><ele>349.0</ele><time>2026-04-09T14:21:18.991Z</time></trkpt><trkpt lat="42.9771623" lon="12.1717481"><ele>349.0</ele><time>2026-04-09T14:21:19.993Z</time></trkpt><trkpt lat="42.977272" lon="12.1716335"><ele>349.75</ele><time>2026-04-09T14:21:20.993Z</time></trkpt><trkpt lat="42.9773612" lon="12.171509"><ele>350.5</ele><time>2026-04-09T14:21:21.993Z</time></trkpt><trkpt lat="42.977457" lon="12.171393"><ele>351.25</ele><time>2026-04-09T14:21:22.992Z</time></trkpt><trkpt lat="42.9775676" lon="12.1713079"><ele>352.0</ele><time>2026-04-09T14:21:23.992Z</time></trkpt><trkpt lat="42.9776724" lon="12.1712274"><ele>352.0</ele><time>2026-04-09T14:21:24.992Z</time></trkpt><trkpt lat="42.9777807" lon="12.1711377"><ele>352.0</ele><time>2026-04-09T14:21:25.993Z</time></trkpt><trkpt lat="42.977881" lon="12.1710224"><ele>352.0</ele><time>2026-04-09T14:21:26.992Z</time></trkpt><trkpt lat="42.977932" lon="12.1708997"><ele>352.0</ele><time>2026-04-09T14:21:27.992Z</time></trkpt><trkpt lat="42.9780079" lon="12.1707675"><ele>353.8</ele><time>2026-04-09T14:21:28.992Z</time></trkpt><trkpt lat="42.9780724" lon="12.1706263"><ele>355.6</ele><time>2026-04-09T14:21:29.993Z</time></trkpt><trkpt lat="42.9781617" lon="12.170553"><ele>357.40000000000003</ele><time>2026-04-09T14:21:30.992Z</time></trkpt><trkpt lat="42.9782545" lon="12.1705471"><ele>359.20000000000005</ele><time>2026-04-09T14:21:31.993Z</time></trkpt><trkpt lat="42.9783622" lon="12.1705285"><ele>361.0</ele><time>2026-04-09T14:21:32.992Z</time></trkpt><trkpt lat="42.9784483" lon="12.1704748"><ele>361.0</ele><time>2026-04-09T14:21:33.992Z</time></trkpt><trkpt lat="42.9785462" lon="12.1704402"><ele>361.0</ele><time>2026-04-09T14:21:34.993Z</time></trkpt><trkpt lat="42.978642" lon="12.1703957"><ele>361.0</ele><time>2026-04-09T14:21:35.993Z</time></trkpt><trkpt lat="42.9787296" lon="12.170342"><ele>361.0</ele><time>2026-04-09T14:21:36.993Z</time></trkpt><trkpt lat="42.9788383" lon="12.1703034"><ele>361.0</ele><time>2026-04-09T14:21:37.992Z</time></trkpt><trkpt lat="42.9789392" lon="12.1702811"><ele>361.0</ele><time>2026-04-09T14:21:38.993Z</time></trkpt><trkpt lat="42.9790326" lon="12.1702553"><ele>361.0</ele><time>2026-04-09T14:21:39.992Z</time></trkpt><trkpt lat="42.9791124" lon="12.1702459"><ele>361.0</ele><time>2026-04-09T14:21:40.992Z</time></trkpt><trkpt lat="42.9791824" lon="12.1702438"><ele>361.0</ele><time>2026-04-09T14:21:41.993Z</time></trkpt><trkpt lat="42.9792683" lon="12.1702706"><ele>361.0</ele><time>2026-04-09T14:21:43.993Z</time></trkpt><trkpt lat="42.9793423" lon="12.1702682"><ele>361.0</ele><time>2026-04-09T14:21:46.992Z</time></trkpt><trkpt lat="42.9794035" lon="12.1701938"><ele>359.8333333333333</ele><time>2026-04-09T14:21:48.993Z</time></trkpt><trkpt lat="42.9794541" lon="12.1700802"><ele>358.66666666666663</ele><time>2026-04-09T14:21:49.993Z</time></trkpt><trkpt lat="42.9795039" lon="12.1700102"><ele>357.5</ele><time>2026-04-09T14:21:50.992Z</time></trkpt><trkpt lat="42.979527" lon="12.1699097"><ele>356.3333333333333</ele><time>2026-04-09T14:21:51.992Z</time></trkpt><trkpt lat="42.9795578" lon="12.1698122"><ele>355.1666666666667</ele><time>2026-04-09T14:21:52.993Z</time></trkpt><trkpt lat="42.9795669" lon="12.1696915"><ele>354.0</ele><time>2026-04-09T14:21:53.992Z</time></trkpt><trkpt lat="42.9795922" lon="12.1695732"><ele>354.0</ele><time>2026-04-09T14:21:54.992Z</time></trkpt><trkpt lat="42.9795998" lon="12.169451"><ele>354.0</ele><time>2026-04-09T14:21:55.992Z</time></trkpt><trkpt lat="42.9796028" lon="12.1693162"><ele>354.0</ele><time>2026-04-09T14:21:56.992Z</time></trkpt><trkpt lat="42.9796307" lon="12.1691839"><ele>354.0</ele><time>2026-04-09T14:21:57.992Z</time></trkpt><trkpt lat="42.9796889" lon="12.1690536"><ele>354.0</ele><time>2026-04-09T14:21:58.992Z</time></trkpt><trkpt lat="42.9797735" lon="12.1689432"><ele>356.25</ele><time>2026-04-09T14:21:59.992Z</time></trkpt><trkpt lat="42.9798681" lon="12.1688351"><ele>358.5</ele><time>2026-04-09T14:22:00.992Z</time></trkpt><trkpt lat="42.9799456" lon="12.1687208"><ele>360.75</ele><time>2026-04-09T14:22:01.993Z</time></trkpt><trkpt lat="42.9800405" lon="12.1685878"><ele>363.0</ele><time>2026-04-09T14:22:02.992Z</time></trkpt><trkpt lat="42.9801179" lon="12.1684372"><ele>359.5</ele><time>2026-04-09T14:22:03.993Z</time></trkpt><trkpt lat="42.9801832" lon="12.1682807"><ele>356.0</ele><time>2026-04-09T14:22:04.992Z</time></trkpt><trkpt lat="42.9802107" lon="12.1680995"><ele>352.5</ele><time>2026-04-09T14:22:05.992Z</time></trkpt><trkpt lat="42.9802311" lon="12.1679039"><ele>349.0</ele><time>2026-04-09T14:22:06.993Z</time></trkpt><trkpt lat="42.9802422" lon="12.1677354"><ele>349.0</ele><time>2026-04-09T14:22:07.992Z</time></trkpt><trkpt lat="42.98027" lon="12.1675811"><ele>349.0</ele><time>2026-04-09T14:22:08.992Z</time></trkpt><trkpt lat="42.9802945" lon="12.1674269"><ele>349.0</ele><time>2026-04-09T14:22:09.993Z</time></trkpt><trkpt lat="42.9803207" lon="12.1673065"><ele>349.0</ele><time>2026-04-09T14:22:10.994Z</time></trkpt><trkpt lat="42.9803832" lon="12.1672479"><ele>349.0</ele><time>2026-04-09T14:22:11.993Z</time></trkpt><trkpt lat="42.9804439" lon="12.1671821"><ele>349.8333333333333</ele><time>2026-04-09T14:22:12.992Z</time></trkpt><trkpt lat="42.980506" lon="12.1671047"><ele>350.66666666666663</ele><time>2026-04-09T14:22:13.993Z</time></trkpt><trkpt lat="42.9805627" lon="12.1670516"><ele>351.5</ele><time>2026-04-09T14:22:14.992Z</time></trkpt><trkpt lat="42.9805942" lon="12.1668974"><ele>352.3333333333333</ele><time>2026-04-09T14:22:16.992Z</time></trkpt><trkpt lat="42.9805854" lon="12.1668095"><ele>353.1666666666667</ele><time>2026-04-09T14:22:17.992Z</time></trkpt><trkpt lat="42.9805793" lon="12.1667094"><ele>354.0</ele><time>2026-04-09T14:22:18.993Z</time></trkpt><trkpt lat="42.9805799" lon="12.1665943"><ele>354.5</ele><time>2026-04-09T14:22:19.992Z</time></trkpt><trkpt lat="42.9805872" lon="12.1664796"><ele>355.0</ele><time>2026-04-09T14:22:20.992Z</time></trkpt><trkpt lat="42.9806038" lon="12.1663817"><ele>355.5</ele><time>2026-04-09T14:22:21.993Z</time></trkpt><trkpt lat="42.9806047" lon="12.166267"><ele>356.0</ele><time>2026-04-09T14:22:22.991Z</time></trkpt><trkpt lat="42.9805934" lon="12.166151"><ele>356.5</ele><time>2026-04-09T14:22:23.992Z</time></trkpt><trkpt lat="42.9805701" lon="12.1660398"><ele>357.0</ele><time>2026-04-09T14:22:24.993Z</time></trkpt><trkpt lat="42.9805449" lon="12.1659332"><ele>357.0</ele><time>2026-04-09T14:22:25.993Z</time></trkpt><trkpt lat="42.9804775" lon="12.16586"><ele>357.0</ele><time>2026-04-09T14:22:26.992Z</time></trkpt><trkpt lat="42.9804015" lon="12.1657941"><ele>357.0</ele><time>2026-04-09T14:22:27.992Z</time></trkpt><trkpt lat="42.9803119" lon="12.1657669"><ele>357.0</ele><time>2026-04-09T14:22:28.993Z</time></trkpt><trkpt lat="42.9802157" lon="12.1657667"><ele>357.0</ele><time>2026-04-09T14:22:29.993Z</time></trkpt><trkpt lat="42.9801123" lon="12.1657733"><ele>362.0</ele><time>2026-04-09T14:22:30.992Z</time></trkpt><trkpt lat="42.9800066" lon="12.165779"><ele>367.0</ele><time>2026-04-09T14:22:31.993Z</time></trkpt><trkpt lat="42.9799113" lon="12.1657704"><ele>372.0</ele><time>2026-04-09T14:22:32.992Z</time></trkpt><trkpt lat="42.9798198" lon="12.1657786"><ele>377.0</ele><time>2026-04-09T14:22:33.992Z</time></trkpt><trkpt lat="42.9797304" lon="12.1657653"><ele>382.0</ele><time>2026-04-09T14:22:34.993Z</time></trkpt><trkpt lat="42.979668" lon="12.1656975"><ele>383.0</ele><time>2026-04-09T14:22:35.993Z</time></trkpt><trkpt lat="42.979654" lon="12.1655839"><ele>384.0</ele><time>2026-04-09T14:22:36.992Z</time></trkpt><trkpt lat="42.9796518" lon="12.1654517"><ele>385.0</ele><time>2026-04-09T14:22:37.992Z</time></trkpt><trkpt lat="42.9796809" lon="12.1653195"><ele>386.0</ele><time>2026-04-09T14:22:38.992Z</time></trkpt><trkpt lat="42.9797094" lon="12.1651863"><ele>387.0</ele><time>2026-04-09T14:22:39.992Z</time></trkpt><trkpt lat="42.9797606" lon="12.1650676"><ele>387.0</ele><time>2026-04-09T14:22:40.992Z</time></trkpt><trkpt lat="42.9797941" lon="12.1649471"><ele>387.0</ele><time>2026-04-09T14:22:41.992Z</time></trkpt><trkpt lat="42.9797652" lon="12.1648198"><ele>387.0</ele><time>2026-04-09T14:22:42.992Z</time></trkpt><trkpt lat="42.9797293" lon="12.1646788"><ele>387.0</ele><time>2026-04-09T14:22:43.992Z</time></trkpt><trkpt lat="42.9796837" lon="12.1645671"><ele>387.0</ele><time>2026-04-09T14:22:44.992Z</time></trkpt><trkpt lat="42.9796299" lon="12.1644392"><ele>386.8</ele><time>2026-04-09T14:22:45.992Z</time></trkpt><trkpt lat="42.9795702" lon="12.164324"><ele>386.6</ele><time>2026-04-09T14:22:46.993Z</time></trkpt><trkpt lat="42.9795073" lon="12.1642038"><ele>386.40000000000003</ele><time>2026-04-09T14:22:47.992Z</time></trkpt><trkpt lat="42.9794313" lon="12.1640924"><ele>386.20000000000005</ele><time>2026-04-09T14:22:48.993Z</time></trkpt><trkpt lat="42.9793376" lon="12.1640044"><ele>386.0</ele><time>2026-04-09T14:22:49.992Z</time></trkpt><trkpt lat="42.9792319" lon="12.1639259"><ele>390.5</ele><time>2026-04-09T14:22:50.992Z</time></trkpt><trkpt lat="42.9791254" lon="12.163847"><ele>395.0</ele><time>2026-04-09T14:22:51.992Z</time></trkpt><trkpt lat="42.9790272" lon="12.1637642"><ele>399.5</ele><time>2026-04-09T14:22:52.992Z</time></trkpt><trkpt lat="42.9789015" lon="12.1636961"><ele>404.0</ele><time>2026-04-09T14:22:53.992Z</time></trkpt><trkpt lat="42.9788034" lon="12.1636126"><ele>404.0</ele><time>2026-04-09T14:22:54.992Z</time></trkpt><trkpt lat="42.9787105" lon="12.1635377"><ele>404.0</ele><time>2026-04-09T14:22:55.992Z</time></trkpt><trkpt lat="42.9786155" lon="12.1634552"><ele>404.0</ele><time>2026-04-09T14:22:56.991Z</time></trkpt><trkpt lat="42.9785168" lon="12.1633883"><ele>404.0</ele><time>2026-04-09T14:22:57.992Z</time></trkpt><trkpt lat="42.9783878" lon="12.1633146"><ele>407.79999999999995</ele><time>2026-04-09T14:22:58.992Z</time></trkpt><trkpt lat="42.9782262" lon="12.1632365"><ele>411.59999999999997</ele><time>2026-04-09T14:23:00.744Z</time></trkpt><trkpt lat="42.9781256" lon="12.1632362"><ele>415.4</ele><time>2026-04-09T14:23:01.994Z</time></trkpt><trkpt lat="42.9780401" lon="12.1632415"><ele>419.2</ele><time>2026-04-09T14:23:02.992Z</time></trkpt><trkpt lat="42.9779749" lon="12.1632914"><ele>423.0</ele><time>2026-04-09T14:23:03.991Z</time></trkpt><trkpt lat="42.9780586" lon="12.1634706"><ele>423.0</ele><time>2026-04-09T14:23:04.992Z</time></trkpt><trkpt lat="42.9780687" lon="12.1635968"><ele>423.0</ele><time>2026-04-09T14:23:05.992Z</time></trkpt><trkpt lat="42.9780915" lon="12.1637278"><ele>423.0</ele><time>2026-04-09T14:23:06.992Z</time></trkpt><trkpt lat="42.9780732" lon="12.1638486"><ele>423.0</ele><time>2026-04-09T14:23:07.992Z</time></trkpt><trkpt lat="42.9780292" lon="12.1639556"><ele>423.0</ele><time>2026-04-09T14:23:08.992Z</time></trkpt><trkpt lat="42.977958" lon="12.1640253"><ele>423.0</ele><time>2026-04-09T14:23:09.992Z</time></trkpt><trkpt lat="42.9778668" lon="12.1640436"><ele>423.0</ele><time>2026-04-09T14:23:10.992Z</time></trkpt><trkpt lat="42.9777615" lon="12.1640304"><ele>423.0</ele><time>2026-04-09T14:23:11.992Z</time></trkpt><trkpt lat="42.9776679" lon="12.164023"><ele>423.0</ele><time>2026-04-09T14:23:12.992Z</time></trkpt><trkpt lat="42.9775734" lon="12.1640143"><ele>423.0</ele><time>2026-04-09T14:23:13.992Z</time></trkpt><trkpt lat="42.9774832" lon="12.1640076"><ele>424.6666666666667</ele><time>2026-04-09T14:23:14.992Z</time></trkpt><trkpt lat="42.9773921" lon="12.1640006"><ele>426.33333333333337</ele><time>2026-04-09T14:23:15.992Z</time></trkpt><trkpt lat="42.9772702" lon="12.1639648"><ele>428.0</ele><time>2026-04-09T14:23:16.992Z</time></trkpt><trkpt lat="42.977201" lon="12.1639611"><ele>429.6666666666667</ele><time>2026-04-09T14:23:17.992Z</time></trkpt><trkpt lat="42.9771313" lon="12.1639584"><ele>431.33333333333337</ele><time>2026-04-09T14:23:18.993Z</time></trkpt><trkpt lat="42.9770558" lon="12.1639378"><ele>433.0</ele><time>2026-04-09T14:23:19.992Z</time></trkpt><trkpt lat="42.9769939" lon="12.1639116"><ele>433.0</ele><time>2026-04-09T14:23:20.992Z</time></trkpt><trkpt lat="42.976906" lon="12.1639017"><ele>432.99999999999994</ele><time>2026-04-09T14:23:21.993Z</time></trkpt><trkpt lat="42.976837" lon="12.1639065"><ele>432.99999999999994</ele><time>2026-04-09T14:23:22.992Z</time></trkpt><trkpt lat="42.9767731" lon="12.1639267"><ele>433.0</ele><time>2026-04-09T14:23:23.992Z</time></trkpt><trkpt lat="42.9767281" lon="12.1640643"><ele>433.0</ele><time>2026-04-09T14:23:25.993Z</time></trkpt><trkpt lat="42.9768294" lon="12.1641903"><ele>436.00000000000006</ele><time>2026-04-09T14:23:27.993Z</time></trkpt><trkpt lat="42.9769002" lon="12.1642649"><ele>439.0</ele><time>2026-04-09T14:23:28.992Z</time></trkpt><trkpt lat="42.9769835" lon="12.1643323"><ele>442.0</ele><time>2026-04-09T14:23:29.992Z</time></trkpt><trkpt lat="42.9770427" lon="12.1644025"><ele>445.0</ele><time>2026-04-09T14:23:30.992Z</time></trkpt><trkpt lat="42.9771106" lon="12.1644729"><ele>448.00000000000006</ele><time>2026-04-09T14:23:31.992Z</time></trkpt><trkpt lat="42.9771698" lon="12.1645562"><ele>451.0</ele><time>2026-04-09T14:23:32.992Z</time></trkpt><trkpt lat="42.9772327" lon="12.1646362"><ele>451.00000000000006</ele><time>2026-04-09T14:23:33.992Z</time></trkpt><trkpt lat="42.9772888" lon="12.164713"><ele>451.0</ele><time>2026-04-09T14:23:34.993Z</time></trkpt><trkpt lat="42.9773365" lon="12.1647856"><ele>451.0</ele><time>2026-04-09T14:23:35.992Z</time></trkpt><trkpt lat="42.9773687" lon="12.1648667"><ele>451.0</ele><time>2026-04-09T14:23:36.991Z</time></trkpt><trkpt lat="42.9774017" lon="12.1649453"><ele>451.00000000000006</ele><time>2026-04-09T14:23:37.993Z</time></trkpt><trkpt lat="42.9774355" lon="12.165023"><ele>451.0</ele><time>2026-04-09T14:23:38.992Z</time></trkpt><trkpt lat="42.9774727" lon="12.1651483"><ele>453.6666666666667</ele><time>2026-04-09T14:23:40.993Z</time></trkpt><trkpt lat="42.9774817" lon="12.1652486"><ele>456.33333333333337</ele><time>2026-04-09T14:23:42.992Z</time></trkpt><trkpt lat="42.9774928" lon="12.1653469"><ele>459.0</ele><time>2026-04-09T14:23:44.992Z</time></trkpt><trkpt lat="42.9774922" lon="12.165445"><ele>461.66666666666663</ele><time>2026-04-09T14:23:46.993Z</time></trkpt><trkpt lat="42.9774759" lon="12.1655493"><ele>464.3333333333333</ele><time>2026-04-09T14:23:48.993Z</time></trkpt><trkpt lat="42.9774592" lon="12.1656674"><ele>467.0</ele><time>2026-04-09T14:23:50.992Z</time></trkpt><trkpt lat="42.977434" lon="12.1657696"><ele>467.20000000000005</ele><time>2026-04-09T14:23:52.992Z</time></trkpt><trkpt lat="42.9774009" lon="12.1658845"><ele>467.40000000000003</ele><time>2026-04-09T14:23:54.992Z</time></trkpt><trkpt lat="42.9773619" lon="12.1660317"><ele>467.59999999999997</ele><time>2026-04-09T14:23:56.992Z</time></trkpt><trkpt lat="42.9773088" lon="12.1660842"><ele>467.79999999999995</ele><time>2026-04-09T14:23:57.992Z</time></trkpt><trkpt lat="42.9772459" lon="12.1661087"><ele>468.0</ele><time>2026-04-09T14:23:58.992Z</time></trkpt><trkpt lat="42.9771516" lon="12.1659926"><ele>468.0</ele><time>2026-04-09T14:24:00.992Z</time></trkpt><trkpt lat="42.9771265" lon="12.1658625"><ele>468.0</ele><time>2026-04-09T14:24:01.991Z</time></trkpt><trkpt lat="42.9770835" lon="12.1657065"><ele>468.0</ele><time>2026-04-09T14:24:02.992Z</time></trkpt><trkpt lat="42.9770159" lon="12.1655497"><ele>468.0</ele><time>2026-04-09T14:24:03.993Z</time></trkpt><trkpt lat="42.9768875" lon="12.1653933"><ele>467.66666666666663</ele><time>2026-04-09T14:24:04.992Z</time></trkpt><trkpt lat="42.9767185" lon="12.165252"><ele>467.3333333333333</ele><time>2026-04-09T14:24:05.993Z</time></trkpt><trkpt lat="42.9765122" lon="12.1651067"><ele>467.0</ele><time>2026-04-09T14:24:06.992Z</time></trkpt><trkpt lat="42.9763053" lon="12.1649475"><ele>468.3333333333333</ele><time>2026-04-09T14:24:07.992Z</time></trkpt><trkpt lat="42.9761067" lon="12.1647931"><ele>469.66666666666663</ele><time>2026-04-09T14:24:08.992Z</time></trkpt><trkpt lat="42.9759325" lon="12.1646553"><ele>471.0</ele><time>2026-04-09T14:24:09.991Z</time></trkpt><trkpt lat="42.9757617" lon="12.1645176"><ele>476.33333333333337</ele><time>2026-04-09T14:24:10.991Z</time></trkpt><trkpt lat="42.9755987" lon="12.1643947"><ele>481.6666666666667</ele><time>2026-04-09T14:24:11.992Z</time></trkpt><trkpt lat="42.9754389" lon="12.1642752"><ele>487.0</ele><time>2026-04-09T14:24:12.993Z</time></trkpt><trkpt lat="42.9752877" lon="12.1641626"><ele>487.0</ele><time>2026-04-09T14:24:13.992Z</time></trkpt><trkpt lat="42.9751394" lon="12.1640486"><ele>487.0</ele><time>2026-04-09T14:24:14.993Z</time></trkpt><trkpt lat="42.9749947" lon="12.1639389"><ele>487.0</ele><time>2026-04-09T14:24:15.992Z</time></trkpt><trkpt lat="42.9748543" lon="12.1638225"><ele>489.33333333333337</ele><time>2026-04-09T14:24:16.991Z</time></trkpt><trkpt lat="42.9747136" lon="12.1637071"><ele>491.66666666666663</ele><time>2026-04-09T14:24:17.992Z</time></trkpt><trkpt lat="42.9745772" lon="12.1635859"><ele>494.0</ele><time>2026-04-09T14:24:18.993Z</time></trkpt><trkpt lat="42.9744445" lon="12.1634669"><ele>494.0</ele><time>2026-04-09T14:24:19.992Z</time></trkpt><trkpt lat="42.9743213" lon="12.1633497"><ele>494.0</ele><time>2026-04-09T14:24:20.991Z</time></trkpt><trkpt lat="42.9742103" lon="12.1632072"><ele>494.0</ele><time>2026-04-09T14:24:21.993Z</time></trkpt><trkpt lat="42.9741297" lon="12.1630569"><ele>494.0</ele><time>2026-04-09T14:24:22.992Z</time></trkpt><trkpt lat="42.9740528" lon="12.1628947"><ele>495.5</ele><time>2026-04-09T14:24:23.993Z</time></trkpt><trkpt lat="42.9739937" lon="12.1627361"><ele>497.0</ele><time>2026-04-09T14:24:24.992Z</time></trkpt><trkpt lat="42.97393" lon="12.162592"><ele>498.5</ele><time>2026-04-09T14:24:25.992Z</time></trkpt><trkpt lat="42.9738572" lon="12.1624608"><ele>500.0</ele><time>2026-04-09T14:24:26.993Z</time></trkpt><trkpt lat="42.9737293" lon="12.1623811"><ele>497.25</ele><time>2026-04-09T14:24:27.993Z</time></trkpt><trkpt lat="42.9736076" lon="12.162264"><ele>494.5</ele><time>2026-04-09T14:24:28.993Z</time></trkpt><trkpt lat="42.9735189" lon="12.1621365"><ele>491.75</ele><time>2026-04-09T14:24:29.992Z</time></trkpt><trkpt lat="42.9734429" lon="12.1619975"><ele>489.0</ele><time>2026-04-09T14:24:30.992Z</time></trkpt><trkpt lat="42.9733761" lon="12.1618644"><ele>494.0</ele><time>2026-04-09T14:24:31.992Z</time></trkpt><trkpt lat="42.9733209" lon="12.1617344"><ele>499.0</ele><time>2026-04-09T14:24:32.992Z</time></trkpt><trkpt lat="42.9732748" lon="12.1616055"><ele>504.0</ele><time>2026-04-09T14:24:33.992Z</time></trkpt><trkpt lat="42.9732494" lon="12.161477"><ele>509.0</ele><time>2026-04-09T14:24:34.992Z</time></trkpt><trkpt lat="42.973259" lon="12.1613508"><ele>514.0</ele><time>2026-04-09T14:24:35.993Z</time></trkpt><trkpt lat="42.9732714" lon="12.161226"><ele>515.6</ele><time>2026-04-09T14:24:36.992Z</time></trkpt><trkpt lat="42.9733045" lon="12.1611207"><ele>517.2</ele><time>2026-04-09T14:24:37.992Z</time></trkpt><trkpt lat="42.9733124" lon="12.1610256"><ele>518.8000000000001</ele><time>2026-04-09T14:24:38.993Z</time></trkpt><trkpt lat="42.9733049" lon="12.1608495"><ele>520.4</ele><time>2026-04-09T14:24:40.991Z</time></trkpt><trkpt lat="42.9732738" lon="12.1607318"><ele>522.0</ele><time>2026-04-09T14:24:41.993Z</time></trkpt><trkpt lat="42.9732235" lon="12.1606012"><ele>522.5</ele><time>2026-04-09T14:24:42.993Z</time></trkpt><trkpt lat="42.9731686" lon="12.1604687"><ele>523.0</ele><time>2026-04-09T14:24:43.993Z</time></trkpt><trkpt lat="42.9731217" lon="12.1603119"><ele>523.5</ele><time>2026-04-09T14:24:44.992Z</time></trkpt><trkpt lat="42.9730725" lon="12.1601386"><ele>524.0</ele><time>2026-04-09T14:24:45.992Z</time></trkpt><trkpt lat="42.9730191" lon="12.1599653"><ele>524.0</ele><time>2026-04-09T14:24:46.992Z</time></trkpt><trkpt lat="42.9729354" lon="12.1598024"><ele>524.0</ele><time>2026-04-09T14:24:47.993Z</time></trkpt><trkpt lat="42.9728417" lon="12.1596392"><ele>524.0</ele><time>2026-04-09T14:24:48.992Z</time></trkpt><trkpt lat="42.9727495" lon="12.1594891"><ele>524.0</ele><time>2026-04-09T14:24:49.992Z</time></trkpt><trkpt lat="42.9726541" lon="12.1593376"><ele>524.0</ele><time>2026-04-09T14:24:50.992Z</time></trkpt><trkpt lat="42.9725639" lon="12.1591833"><ele>524.0</ele><time>2026-04-09T14:24:51.993Z</time></trkpt><trkpt lat="42.9724767" lon="12.1590384"><ele>524.0</ele><time>2026-04-09T14:24:52.993Z</time></trkpt><trkpt lat="42.9723868" lon="12.1588812"><ele>524.0</ele><time>2026-04-09T14:24:53.993Z</time></trkpt><trkpt lat="42.9722949" lon="12.1587212"><ele>530.5</ele><time>2026-04-09T14:24:54.992Z</time></trkpt><trkpt lat="42.9721847" lon="12.1585797"><ele>537.0</ele><time>2026-04-09T14:24:55.993Z</time></trkpt><trkpt lat="42.9720765" lon="12.1584533"><ele>543.5</ele><time>2026-04-09T14:24:56.993Z</time></trkpt><trkpt lat="42.9719617" lon="12.158349"><ele>550.0</ele><time>2026-04-09T14:24:57.992Z</time></trkpt><trkpt lat="42.971843" lon="12.1582736"><ele>550.0</ele><time>2026-04-09T14:24:58.993Z</time></trkpt><trkpt lat="42.9717129" lon="12.1582281"><ele>550.0</ele><time>2026-04-09T14:24:59.992Z</time></trkpt><trkpt lat="42.971576" lon="12.1582238"><ele>550.0</ele><time>2026-04-09T14:25:00.993Z</time></trkpt><trkpt lat="42.9714348" lon="12.1582296"><ele>550.0</ele><time>2026-04-09T14:25:01.992Z</time></trkpt><trkpt lat="42.9713054" lon="12.1582531"><ele>551.5</ele><time>2026-04-09T14:25:02.993Z</time></trkpt><trkpt lat="42.9711713" lon="12.1582566"><ele>553.0</ele><time>2026-04-09T14:25:03.992Z</time></trkpt><trkpt lat="42.9710473" lon="12.1582122"><ele>554.5</ele><time>2026-04-09T14:25:04.992Z</time></trkpt><trkpt lat="42.9709301" lon="12.1580821"><ele>556.0</ele><time>2026-04-09T14:25:05.992Z</time></trkpt><trkpt lat="42.9708255" lon="12.1579765"><ele>562.6666666666667</ele><time>2026-04-09T14:25:06.992Z</time></trkpt><trkpt lat="42.9707342" lon="12.1578469"><ele>569.3333333333334</ele><time>2026-04-09T14:25:07.992Z</time></trkpt><trkpt lat="42.9707037" lon="12.1575677"><ele>576.0</ele><time>2026-04-09T14:25:08.992Z</time></trkpt><trkpt lat="42.9706478" lon="12.1573591"><ele>579.5</ele><time>2026-04-09T14:25:09.992Z</time></trkpt><trkpt lat="42.970594" lon="12.1571749"><ele>583.0</ele><time>2026-04-09T14:25:10.992Z</time></trkpt><trkpt lat="42.9705157" lon="12.1570033"><ele>586.5</ele><time>2026-04-09T14:25:11.993Z</time></trkpt><trkpt lat="42.970395" lon="12.1568825"><ele>590.0</ele><time>2026-04-09T14:25:12.992Z</time></trkpt><trkpt lat="42.9702584" lon="12.1567864"><ele>590.0</ele><time>2026-04-09T14:25:13.992Z</time></trkpt><trkpt lat="42.9701329" lon="12.1566748"><ele>590.0</ele><time>2026-04-09T14:25:14.993Z</time></trkpt><trkpt lat="42.9699992" lon="12.1565889"><ele>590.0</ele><time>2026-04-09T14:25:15.992Z</time></trkpt><trkpt lat="42.9698733" lon="12.1564926"><ele>590.0</ele><time>2026-04-09T14:25:16.993Z</time></trkpt><trkpt lat="42.9697614" lon="12.1564212"><ele>591.1666666666666</ele><time>2026-04-09T14:25:17.992Z</time></trkpt><trkpt lat="42.9696706" lon="12.1563698"><ele>592.3333333333333</ele><time>2026-04-09T14:25:18.993Z</time></trkpt><trkpt lat="42.9695881" lon="12.1563298"><ele>593.5</ele><time>2026-04-09T14:25:19.993Z</time></trkpt><trkpt lat="42.969508" lon="12.1562992"><ele>594.6666666666666</ele><time>2026-04-09T14:25:20.992Z</time></trkpt><trkpt lat="42.9694372" lon="12.1562912"><ele>595.8333333333334</ele><time>2026-04-09T14:25:21.992Z</time></trkpt><trkpt lat="42.9693329" lon="12.1562609"><ele>597.0</ele><time>2026-04-09T14:25:23.992Z</time></trkpt><trkpt lat="42.9693312" lon="12.1561436"><ele>597.0</ele><time>2026-04-09T14:25:26.993Z</time></trkpt><trkpt lat="42.9694226" lon="12.1560537"><ele>597.0</ele><time>2026-04-09T14:25:28.991Z</time></trkpt><trkpt lat="42.969485" lon="12.1560011"><ele>597.0</ele><time>2026-04-09T14:25:29.992Z</time></trkpt><trkpt lat="42.9695409" lon="12.1559381"><ele>597.0</ele><time>2026-04-09T14:25:30.993Z</time></trkpt><trkpt lat="42.9695999" lon="12.1558671"><ele>597.0</ele><time>2026-04-09T14:25:31.993Z</time></trkpt><trkpt lat="42.9696737" lon="12.1557848"><ele>597.0</ele><time>2026-04-09T14:25:32.993Z</time></trkpt><trkpt lat="42.9697575" lon="12.1556938"><ele>596.5</ele><time>2026-04-09T14:25:33.992Z</time></trkpt><trkpt lat="42.9698438" lon="12.1555903"><ele>596.0</ele><time>2026-04-09T14:25:34.992Z</time></trkpt><trkpt lat="42.9699335" lon="12.1554783"><ele>595.5</ele><time>2026-04-09T14:25:35.992Z</time></trkpt><trkpt lat="42.9700261" lon="12.1553693"><ele>595.0</ele><time>2026-04-09T14:25:36.992Z</time></trkpt><trkpt lat="42.970116" lon="12.1552525"><ele>596.5</ele><time>2026-04-09T14:25:37.992Z</time></trkpt><trkpt lat="42.9702073" lon="12.1551361"><ele>598.0</ele><time>2026-04-09T14:25:38.992Z</time></trkpt><trkpt lat="42.9703034" lon="12.1550198"><ele>599.5</ele><time>2026-04-09T14:25:39.993Z</time></trkpt><trkpt lat="42.9703968" lon="12.1549038"><ele>601.0</ele><time>2026-04-09T14:25:40.992Z</time></trkpt><trkpt lat="42.9704854" lon="12.1547805"><ele>601.0</ele><time>2026-04-09T14:25:41.992Z</time></trkpt><trkpt lat="42.9705604" lon="12.1546551"><ele>601.0</ele><time>2026-04-09T14:25:42.993Z</time></trkpt><trkpt lat="42.9706341" lon="12.1545184"><ele>601.0</ele><time>2026-04-09T14:25:43.992Z</time></trkpt><trkpt lat="42.9707006" lon="12.1544324"><ele>601.0</ele><time>2026-04-09T14:25:44.993Z</time></trkpt><trkpt lat="42.970765" lon="12.1543479"><ele>601.0</ele><time>2026-04-09T14:25:45.993Z</time></trkpt><trkpt lat="42.9708506" lon="12.1542456"><ele>600.0</ele><time>2026-04-09T14:25:46.992Z</time></trkpt><trkpt lat="42.9709393" lon="12.154148"><ele>599.0</ele><time>2026-04-09T14:25:47.992Z</time></trkpt><trkpt lat="42.9710257" lon="12.1540517"><ele>598.0</ele><time>2026-04-09T14:25:48.993Z</time></trkpt><trkpt lat="42.9710987" lon="12.1539408"><ele>597.0</ele><time>2026-04-09T14:25:49.993Z</time></trkpt><trkpt lat="42.9711662" lon="12.1538301"><ele>596.0</ele><time>2026-04-09T14:25:50.993Z</time></trkpt><trkpt lat="42.9712263" lon="12.1537265"><ele>596.0</ele><time>2026-04-09T14:25:51.992Z</time></trkpt><trkpt lat="42.9712963" lon="12.153604"><ele>596.0</ele><time>2026-04-09T14:25:52.993Z</time></trkpt><trkpt lat="42.9713663" lon="12.1534889"><ele>596.0</ele><time>2026-04-09T14:25:53.991Z</time></trkpt><trkpt lat="42.9714352" lon="12.1533702"><ele>596.0</ele><time>2026-04-09T14:25:54.992Z</time></trkpt><trkpt lat="42.9714958" lon="12.1532477"><ele>596.0</ele><time>2026-04-09T14:25:55.992Z</time></trkpt><trkpt lat="42.9715673" lon="12.1531173"><ele>596.5</ele><time>2026-04-09T14:25:56.992Z</time></trkpt><trkpt lat="42.9716311" lon="12.1529739"><ele>597.0</ele><time>2026-04-09T14:25:57.993Z</time></trkpt><trkpt lat="42.9716814" lon="12.1528153"><ele>597.5</ele><time>2026-04-09T14:25:58.993Z</time></trkpt><trkpt lat="42.9717281" lon="12.1526446"><ele>598.0</ele><time>2026-04-09T14:25:59.992Z</time></trkpt><trkpt lat="42.9717498" lon="12.1524794"><ele>596.75</ele><time>2026-04-09T14:26:00.992Z</time></trkpt><trkpt lat="42.9717736" lon="12.1523163"><ele>595.5</ele><time>2026-04-09T14:26:01.992Z</time></trkpt><trkpt lat="42.9717953" lon="12.152144"><ele>594.25</ele><time>2026-04-09T14:26:02.993Z</time></trkpt><trkpt lat="42.9718279" lon="12.1519889"><ele>593.0</ele><time>2026-04-09T14:26:03.993Z</time></trkpt><trkpt lat="42.9718594" lon="12.151846"><ele>593.0</ele><time>2026-04-09T14:26:04.992Z</time></trkpt><trkpt lat="42.9718888" lon="12.1516841"><ele>593.0</ele><time>2026-04-09T14:26:05.992Z</time></trkpt><trkpt lat="42.9719146" lon="12.1515212"><ele>593.0</ele><time>2026-04-09T14:26:06.992Z</time></trkpt><trkpt lat="42.9719262" lon="12.15134"><ele>593.0</ele><time>2026-04-09T14:26:07.993Z</time></trkpt><trkpt lat="42.9719341" lon="12.1511615"><ele>595.25</ele><time>2026-04-09T14:26:08.992Z</time></trkpt><trkpt lat="42.9719413" lon="12.1509889"><ele>597.5</ele><time>2026-04-09T14:26:09.992Z</time></trkpt><trkpt lat="42.9719475" lon="12.1508204"><ele>599.75</ele><time>2026-04-09T14:26:10.991Z</time></trkpt><trkpt lat="42.9719626" lon="12.1506512"><ele>602.0</ele><time>2026-04-09T14:26:11.993Z</time></trkpt><trkpt lat="42.9719683" lon="12.1504893"><ele>602.25</ele><time>2026-04-09T14:26:12.992Z</time></trkpt><trkpt lat="42.9719393" lon="12.1503352"><ele>602.5</ele><time>2026-04-09T14:26:13.992Z</time></trkpt><trkpt lat="42.9718661" lon="12.1501989"><ele>602.75</ele><time>2026-04-09T14:26:14.992Z</time></trkpt><trkpt lat="42.9717636" lon="12.1500688"><ele>603.0</ele><time>2026-04-09T14:26:15.99Z</time></trkpt><trkpt lat="42.9716519" lon="12.1499464"><ele>600.75</ele><time>2026-04-09T14:26:16.992Z</time></trkpt><trkpt lat="42.9715464" lon="12.1498316"><ele>598.5</ele><time>2026-04-09T14:26:17.992Z</time></trkpt><trkpt lat="42.9714423" lon="12.1497093"><ele>596.25</ele><time>2026-04-09T14:26:18.993Z</time></trkpt><trkpt lat="42.9713446" lon="12.1495846"><ele>594.0</ele><time>2026-04-09T14:26:19.993Z</time></trkpt><trkpt lat="42.9712527" lon="12.1494612"><ele>594.0</ele><time>2026-04-09T14:26:20.993Z</time></trkpt><trkpt lat="42.9711689" lon="12.1493256"><ele>594.0</ele><time>2026-04-09T14:26:21.992Z</time></trkpt><trkpt lat="42.971089" lon="12.1492121"><ele>594.0</ele><time>2026-04-09T14:26:22.992Z</time></trkpt><trkpt lat="42.9710117" lon="12.1490877"><ele>594.0</ele><time>2026-04-09T14:26:23.993Z</time></trkpt><trkpt lat="42.970933" lon="12.1489538"><ele>589.25</ele><time>2026-04-09T14:26:24.992Z</time></trkpt><trkpt lat="42.9708556" lon="12.1488121"><ele>584.5</ele><time>2026-04-09T14:26:25.992Z</time></trkpt><trkpt lat="42.9707762" lon="12.148681"><ele>579.75</ele><time>2026-04-09T14:26:26.993Z</time></trkpt><trkpt lat="42.9706962" lon="12.1485446"><ele>575.0</ele><time>2026-04-09T14:26:27.992Z</time></trkpt><trkpt lat="42.9706153" lon="12.1484097"><ele>575.0</ele><time>2026-04-09T14:26:28.992Z</time></trkpt><trkpt lat="42.9705383" lon="12.1482828"><ele>575.0</ele><time>2026-04-09T14:26:29.992Z</time></trkpt><trkpt lat="42.9704711" lon="12.148136"><ele>575.0</ele><time>2026-04-09T14:26:30.992Z</time></trkpt><trkpt lat="42.9704273" lon="12.1479839"><ele>575.0</ele><time>2026-04-09T14:26:31.992Z</time></trkpt><trkpt lat="42.9703825" lon="12.1478367"><ele>571.0</ele><time>2026-04-09T14:26:32.993Z</time></trkpt><trkpt lat="42.9703211" lon="12.147705"><ele>567.0</ele><time>2026-04-09T14:26:33.992Z</time></trkpt><trkpt lat="42.9702489" lon="12.1475824"><ele>563.0</ele><time>2026-04-09T14:26:34.992Z</time></trkpt><trkpt lat="42.9701585" lon="12.1474731"><ele>559.0</ele><time>2026-04-09T14:26:35.991Z</time></trkpt><trkpt lat="42.9700661" lon="12.1473685"><ele>557.2</ele><time>2026-04-09T14:26:36.993Z</time></trkpt><trkpt lat="42.9699733" lon="12.1472672"><ele>555.4</ele><time>2026-04-09T14:26:37.992Z</time></trkpt><trkpt lat="42.9698855" lon="12.1471727"><ele>553.6</ele><time>2026-04-09T14:26:38.992Z</time></trkpt><trkpt lat="42.9698048" lon="12.1470722"><ele>551.8</ele><time>2026-04-09T14:26:39.992Z</time></trkpt><trkpt lat="42.9697205" lon="12.1469828"><ele>550.0</ele><time>2026-04-09T14:26:40.993Z</time></trkpt><trkpt lat="42.969645" lon="12.1468984"><ele>550.0</ele><time>2026-04-09T14:26:41.992Z</time></trkpt><trkpt lat="42.9695737" lon="12.1468101"><ele>550.0</ele><time>2026-04-09T14:26:42.993Z</time></trkpt><trkpt lat="42.9695323" lon="12.1467005"><ele>550.0</ele><time>2026-04-09T14:26:43.992Z</time></trkpt><trkpt lat="42.9694947" lon="12.1465821"><ele>550.0</ele><time>2026-04-09T14:26:44.992Z</time></trkpt><trkpt lat="42.9694724" lon="12.1464168"><ele>550.0</ele><time>2026-04-09T14:26:45.992Z</time></trkpt><trkpt lat="42.969447" lon="12.1462211"><ele>545.5</ele><time>2026-04-09T14:26:46.992Z</time></trkpt><trkpt lat="42.9694122" lon="12.1460374"><ele>541.0</ele><time>2026-04-09T14:26:47.991Z</time></trkpt><trkpt lat="42.9693588" lon="12.1458582"><ele>536.5</ele><time>2026-04-09T14:26:48.992Z</time></trkpt><trkpt lat="42.9692902" lon="12.1456797"><ele>532.0</ele><time>2026-04-09T14:26:49.992Z</time></trkpt><trkpt lat="42.9692096" lon="12.1454821"><ele>532.0</ele><time>2026-04-09T14:26:50.993Z</time></trkpt><trkpt lat="42.9691305" lon="12.145291"><ele>532.0</ele><time>2026-04-09T14:26:51.993Z</time></trkpt><trkpt lat="42.9690478" lon="12.145126"><ele>532.0</ele><time>2026-04-09T14:26:52.993Z</time></trkpt><trkpt lat="42.9689695" lon="12.1449876"><ele>532.0</ele><time>2026-04-09T14:26:53.992Z</time></trkpt><trkpt lat="42.9689252" lon="12.1448629"><ele>530.4</ele><time>2026-04-09T14:26:54.992Z</time></trkpt><trkpt lat="42.9689175" lon="12.14474"><ele>528.8000000000001</ele><time>2026-04-09T14:26:55.992Z</time></trkpt><trkpt lat="42.9689538" lon="12.144605"><ele>527.2</ele><time>2026-04-09T14:26:56.991Z</time></trkpt><trkpt lat="42.9689985" lon="12.1444605"><ele>525.6</ele><time>2026-04-09T14:26:57.991Z</time></trkpt><trkpt lat="42.9690574" lon="12.1443032"><ele>524.0</ele><time>2026-04-09T14:26:58.993Z</time></trkpt><trkpt lat="42.9691202" lon="12.1441331"><ele>521.5</ele><time>2026-04-09T14:26:59.992Z</time></trkpt><trkpt lat="42.9691826" lon="12.143952"><ele>519.0</ele><time>2026-04-09T14:27:00.992Z</time></trkpt><trkpt lat="42.9692484" lon="12.1437748"><ele>516.5</ele><time>2026-04-09T14:27:01.992Z</time></trkpt><trkpt lat="42.9693157" lon="12.1436045"><ele>514.0</ele><time>2026-04-09T14:27:02.992Z</time></trkpt><trkpt lat="42.969383" lon="12.1434441"><ele>510.75</ele><time>2026-04-09T14:27:03.992Z</time></trkpt><trkpt lat="42.9694441" lon="12.1432892"><ele>507.5</ele><time>2026-04-09T14:27:04.993Z</time></trkpt><trkpt lat="42.9694881" lon="12.1431215"><ele>504.25</ele><time>2026-04-09T14:27:05.992Z</time></trkpt><trkpt lat="42.9695056" lon="12.1429396"><ele>501.0</ele><time>2026-04-09T14:27:06.992Z</time></trkpt><trkpt lat="42.9694915" lon="12.1427784"><ele>499.75</ele><time>2026-04-09T14:27:07.991Z</time></trkpt><trkpt lat="42.9694609" lon="12.1426093"><ele>498.5</ele><time>2026-04-09T14:27:08.992Z</time></trkpt><trkpt lat="42.9694175" lon="12.1424318"><ele>497.25</ele><time>2026-04-09T14:27:09.991Z</time></trkpt><trkpt lat="42.9693703" lon="12.1422366"><ele>496.0</ele><time>2026-04-09T14:27:10.992Z</time></trkpt><trkpt lat="42.9693321" lon="12.1420301"><ele>497.25</ele><time>2026-04-09T14:27:11.992Z</time></trkpt><trkpt lat="42.969304" lon="12.1418192"><ele>498.5</ele><time>2026-04-09T14:27:12.992Z</time></trkpt><trkpt lat="42.9692744" lon="12.1416293"><ele>499.75</ele><time>2026-04-09T14:27:13.992Z</time></trkpt><trkpt lat="42.9692325" lon="12.1414429"><ele>501.0</ele><time>2026-04-09T14:27:14.992Z</time></trkpt><trkpt lat="42.9691779" lon="12.1412551"><ele>501.0</ele><time>2026-04-09T14:27:15.993Z</time></trkpt><trkpt lat="42.9691184" lon="12.1410682"><ele>501.0</ele><time>2026-04-09T14:27:16.993Z</time></trkpt><trkpt lat="42.9690617" lon="12.1408714"><ele>501.0</ele><time>2026-04-09T14:27:17.992Z</time></trkpt><trkpt lat="42.9690206" lon="12.140669"><ele>499.5</ele><time>2026-04-09T14:27:18.992Z</time></trkpt><trkpt lat="42.968992" lon="12.1404646"><ele>498.0</ele><time>2026-04-09T14:27:19.992Z</time></trkpt><trkpt lat="42.9689849" lon="12.140295"><ele>496.5</ele><time>2026-04-09T14:27:20.993Z</time></trkpt><trkpt lat="42.9689751" lon="12.1401215"><ele>495.0</ele><time>2026-04-09T14:27:21.993Z</time></trkpt><trkpt lat="42.9689591" lon="12.1399794"><ele>493.8333333333333</ele><time>2026-04-09T14:27:22.992Z</time></trkpt><trkpt lat="42.9689239" lon="12.1398437"><ele>492.66666666666663</ele><time>2026-04-09T14:27:23.993Z</time></trkpt><trkpt lat="42.9688896" lon="12.1397455"><ele>491.5</ele><time>2026-04-09T14:27:24.993Z</time></trkpt><trkpt lat="42.9688318" lon="12.1396395"><ele>490.3333333333333</ele><time>2026-04-09T14:27:26.992Z</time></trkpt><trkpt lat="42.9687906" lon="12.1395526"><ele>489.16666666666663</ele><time>2026-04-09T14:27:28.993Z</time></trkpt><trkpt lat="42.9687711" lon="12.139469"><ele>488.0</ele><time>2026-04-09T14:27:30.992Z</time></trkpt><trkpt lat="42.9687449" lon="12.1393905"><ele>488.0</ele><time>2026-04-09T14:27:32.993Z</time></trkpt><trkpt lat="42.9687223" lon="12.1393095"><ele>487.99999999999994</ele><time>2026-04-09T14:27:33.992Z</time></trkpt><trkpt lat="42.9687002" lon="12.1392057"><ele>487.99999999999994</ele><time>2026-04-09T14:27:34.992Z</time></trkpt><trkpt lat="42.9686713" lon="12.1390587"><ele>488.0</ele><time>2026-04-09T14:27:35.993Z</time></trkpt><trkpt lat="42.9686522" lon="12.1389027"><ele>488.0</ele><time>2026-04-09T14:27:36.991Z</time></trkpt><trkpt lat="42.9686254" lon="12.1387382"><ele>484.5</ele><time>2026-04-09T14:27:37.993Z</time></trkpt><trkpt lat="42.968597" lon="12.1385792"><ele>481.0</ele><time>2026-04-09T14:27:38.992Z</time></trkpt><trkpt lat="42.9685619" lon="12.1384213"><ele>477.5</ele><time>2026-04-09T14:27:39.993Z</time></trkpt><trkpt lat="42.968535" lon="12.1382674"><ele>474.0</ele><time>2026-04-09T14:27:40.991Z</time></trkpt><trkpt lat="42.9685151" lon="12.1381232"><ele>475.2</ele><time>2026-04-09T14:27:41.992Z</time></trkpt><trkpt lat="42.9684767" lon="12.1379614"><ele>476.4</ele><time>2026-04-09T14:27:42.992Z</time></trkpt><trkpt lat="42.9684495" lon="12.1378145"><ele>477.6</ele><time>2026-04-09T14:27:43.992Z</time></trkpt><trkpt lat="42.968414" lon="12.1376824"><ele>478.8</ele><time>2026-04-09T14:27:44.993Z</time></trkpt><trkpt lat="42.9683887" lon="12.1375571"><ele>480.0</ele><time>2026-04-09T14:27:45.992Z</time></trkpt><trkpt lat="42.9683474" lon="12.1374326"><ele>477.75</ele><time>2026-04-09T14:27:46.992Z</time></trkpt><trkpt lat="42.9682996" lon="12.1372828"><ele>475.5</ele><time>2026-04-09T14:27:47.992Z</time></trkpt><trkpt lat="42.9682548" lon="12.1371353"><ele>473.25</ele><time>2026-04-09T14:27:48.992Z</time></trkpt><trkpt lat="42.9682178" lon="12.1369987"><ele>471.0</ele><time>2026-04-09T14:27:49.991Z</time></trkpt><trkpt lat="42.9681868" lon="12.1368513"><ele>471.0</ele><time>2026-04-09T14:27:50.992Z</time></trkpt><trkpt lat="42.9681582" lon="12.1367064"><ele>471.0</ele><time>2026-04-09T14:27:51.992Z</time></trkpt><trkpt lat="42.9681249" lon="12.1365647"><ele>471.0</ele><time>2026-04-09T14:27:52.992Z</time></trkpt><trkpt lat="42.968101" lon="12.1364296"><ele>471.0</ele><time>2026-04-09T14:27:53.992Z</time></trkpt><trkpt lat="42.9681042" lon="12.1362797"><ele>471.0</ele><time>2026-04-09T14:27:54.992Z</time></trkpt><trkpt lat="42.9681498" lon="12.136135"><ele>469.0</ele><time>2026-04-09T14:27:55.992Z</time></trkpt><trkpt lat="42.9682295" lon="12.1359705"><ele>467.0</ele><time>2026-04-09T14:27:56.993Z</time></trkpt><trkpt lat="42.9683273" lon="12.1357993"><ele>465.0</ele><time>2026-04-09T14:27:57.992Z</time></trkpt><trkpt lat="42.9684134" lon="12.135612"><ele>463.25</ele><time>2026-04-09T14:27:58.992Z</time></trkpt><trkpt lat="42.9684945" lon="12.1354346"><ele>461.5</ele><time>2026-04-09T14:27:59.992Z</time></trkpt><trkpt lat="42.9685602" lon="12.1352698"><ele>459.75</ele><time>2026-04-09T14:28:00.993Z</time></trkpt><trkpt lat="42.9686348" lon="12.1351224"><ele>458.0</ele><time>2026-04-09T14:28:01.993Z</time></trkpt><trkpt lat="42.9687076" lon="12.1350004"><ele>458.5</ele><time>2026-04-09T14:28:02.993Z</time></trkpt><trkpt lat="42.9687958" lon="12.1348732"><ele>459.0</ele><time>2026-04-09T14:28:03.992Z</time></trkpt><trkpt lat="42.9689045" lon="12.1347425"><ele>459.5</ele><time>2026-04-09T14:28:04.992Z</time></trkpt><trkpt lat="42.9690166" lon="12.1346186"><ele>460.0</ele><time>2026-04-09T14:28:05.991Z</time></trkpt><trkpt lat="42.9691538" lon="12.1345227"><ele>455.5</ele><time>2026-04-09T14:28:06.992Z</time></trkpt><trkpt lat="42.969285" lon="12.1344346"><ele>451.0</ele><time>2026-04-09T14:28:07.992Z</time></trkpt><trkpt lat="42.9694197" lon="12.1343461"><ele>446.5</ele><time>2026-04-09T14:28:08.993Z</time></trkpt><trkpt lat="42.9695521" lon="12.1343025"><ele>442.0</ele><time>2026-04-09T14:28:09.992Z</time></trkpt><trkpt lat="42.9696689" lon="12.1342517"><ele>442.0</ele><time>2026-04-09T14:28:10.992Z</time></trkpt><trkpt lat="42.9697698" lon="12.1341858"><ele>442.00000000000006</ele><time>2026-04-09T14:28:11.993Z</time></trkpt><trkpt lat="42.9698589" lon="12.1341109"><ele>442.00000000000006</ele><time>2026-04-09T14:28:12.992Z</time></trkpt><trkpt lat="42.9699175" lon="12.1340155"><ele>442.0</ele><time>2026-04-09T14:28:13.993Z</time></trkpt><trkpt lat="42.9699565" lon="12.1338841"><ele>442.0</ele><time>2026-04-09T14:28:14.993Z</time></trkpt><trkpt lat="42.9699649" lon="12.1337167"><ele>441.25</ele><time>2026-04-09T14:28:15.992Z</time></trkpt><trkpt lat="42.9699595" lon="12.1335318"><ele>440.5</ele><time>2026-04-09T14:28:16.992Z</time></trkpt><trkpt lat="42.969939" lon="12.1333353"><ele>439.75</ele><time>2026-04-09T14:28:17.991Z</time></trkpt><trkpt lat="42.9699022" lon="12.1331232"><ele>439.0</ele><time>2026-04-09T14:28:18.992Z</time></trkpt><trkpt lat="42.9698529" lon="12.1329228"><ele>436.5</ele><time>2026-04-09T14:28:19.992Z</time></trkpt><trkpt lat="42.9698053" lon="12.1327324"><ele>434.0</ele><time>2026-04-09T14:28:20.993Z</time></trkpt><trkpt lat="42.9697644" lon="12.1325369"><ele>431.5</ele><time>2026-04-09T14:28:21.992Z</time></trkpt><trkpt lat="42.9697595" lon="12.13234"><ele>429.0</ele><time>2026-04-09T14:28:22.993Z</time></trkpt><trkpt lat="42.9697561" lon="12.132144"><ele>427.0</ele><time>2026-04-09T14:28:23.992Z</time></trkpt><trkpt lat="42.969726" lon="12.1319512"><ele>425.0</ele><time>2026-04-09T14:28:24.991Z</time></trkpt><trkpt lat="42.9697095" lon="12.1317363"><ele>423.0</ele><time>2026-04-09T14:28:25.992Z</time></trkpt><trkpt lat="42.9696842" lon="12.1315439"><ele>421.0</ele><time>2026-04-09T14:28:26.993Z</time></trkpt><trkpt lat="42.9696827" lon="12.1313656"><ele>419.5</ele><time>2026-04-09T14:28:27.992Z</time></trkpt><trkpt lat="42.9696808" lon="12.131186"><ele>418.0</ele><time>2026-04-09T14:28:28.993Z</time></trkpt><trkpt lat="42.9696869" lon="12.1310053"><ele>416.5</ele><time>2026-04-09T14:28:29.992Z</time></trkpt><trkpt lat="42.9696891" lon="12.1308259"><ele>415.0</ele><time>2026-04-09T14:28:30.993Z</time></trkpt><trkpt lat="42.9697005" lon="12.1306588"><ele>415.0</ele><time>2026-04-09T14:28:31.992Z</time></trkpt><trkpt lat="42.969717" lon="12.1305007"><ele>415.0</ele><time>2026-04-09T14:28:32.992Z</time></trkpt><trkpt lat="42.9697358" lon="12.1303428"><ele>415.0</ele><time>2026-04-09T14:28:33.991Z</time></trkpt><trkpt lat="42.9697724" lon="12.1301701"><ele>415.0</ele><time>2026-04-09T14:28:34.992Z</time></trkpt><trkpt lat="42.9697985" lon="12.1299951"><ele>414.75</ele><time>2026-04-09T14:28:35.993Z</time></trkpt><trkpt lat="42.9698155" lon="12.1298269"><ele>414.5</ele><time>2026-04-09T14:28:36.993Z</time></trkpt><trkpt lat="42.9698446" lon="12.1296491"><ele>414.25</ele><time>2026-04-09T14:28:37.992Z</time></trkpt><trkpt lat="42.969883" lon="12.1294887"><ele>414.0</ele><time>2026-04-09T14:28:38.992Z</time></trkpt><trkpt lat="42.9699091" lon="12.1293277"><ele>414.0</ele><time>2026-04-09T14:28:39.992Z</time></trkpt><trkpt lat="42.9699218" lon="12.1291737"><ele>414.0</ele><time>2026-04-09T14:28:40.993Z</time></trkpt><trkpt lat="42.9699287" lon="12.1290194"><ele>414.0</ele><time>2026-04-09T14:28:41.992Z</time></trkpt><trkpt lat="42.9699047" lon="12.1288761"><ele>414.0</ele><time>2026-04-09T14:28:42.992Z</time></trkpt><trkpt lat="42.9698861" lon="12.1287244"><ele>414.0</ele><time>2026-04-09T14:28:43.993Z</time></trkpt><trkpt lat="42.96987" lon="12.1285208"><ele>413.25</ele><time>2026-04-09T14:28:44.992Z</time></trkpt><trkpt lat="42.9698706" lon="12.1283416"><ele>412.5</ele><time>2026-04-09T14:28:45.992Z</time></trkpt><trkpt lat="42.9698719" lon="12.1281747"><ele>411.75</ele><time>2026-04-09T14:28:46.993Z</time></trkpt><trkpt lat="42.9698774" lon="12.1280096"><ele>411.0</ele><time>2026-04-09T14:28:47.993Z</time></trkpt><trkpt lat="42.9698935" lon="12.1278781"><ele>409.5</ele><time>2026-04-09T14:28:48.993Z</time></trkpt><trkpt lat="42.9699279" lon="12.1277219"><ele>408.0</ele><time>2026-04-09T14:28:49.992Z</time></trkpt><trkpt lat="42.9699653" lon="12.1275653"><ele>406.5</ele><time>2026-04-09T14:28:50.992Z</time></trkpt><trkpt lat="42.9699998" lon="12.1274075"><ele>405.0</ele><time>2026-04-09T14:28:51.993Z</time></trkpt><trkpt lat="42.97002" lon="12.1272424"><ele>404.0</ele><time>2026-04-09T14:28:52.993Z</time></trkpt><trkpt lat="42.9700373" lon="12.1270817"><ele>403.0</ele><time>2026-04-09T14:28:53.992Z</time></trkpt><trkpt lat="42.9700494" lon="12.1269265"><ele>402.0</ele><time>2026-04-09T14:28:54.992Z</time></trkpt><trkpt lat="42.970021" lon="12.1267777"><ele>401.0</ele><time>2026-04-09T14:28:55.992Z</time></trkpt><trkpt lat="42.9700076" lon="12.1266173"><ele>399.6</ele><time>2026-04-09T14:28:56.992Z</time></trkpt><trkpt lat="42.9699907" lon="12.1264675"><ele>398.20000000000005</ele><time>2026-04-09T14:28:57.992Z</time></trkpt><trkpt lat="42.9699796" lon="12.1263146"><ele>396.79999999999995</ele><time>2026-04-09T14:28:58.992Z</time></trkpt><trkpt lat="42.969973" lon="12.1261712"><ele>395.4</ele><time>2026-04-09T14:28:59.992Z</time></trkpt><trkpt lat="42.9699565" lon="12.1260358"><ele>394.0</ele><time>2026-04-09T14:29:00.993Z</time></trkpt><trkpt lat="42.9699419" lon="12.1259218"><ele>394.00000000000006</ele><time>2026-04-09T14:29:01.992Z</time></trkpt><trkpt lat="42.9699842" lon="12.1257957"><ele>394.0</ele><time>2026-04-09T14:29:03.993Z</time></trkpt><trkpt lat="42.9700393" lon="12.1256439"><ele>394.0</ele><time>2026-04-09T14:29:05.993Z</time></trkpt><trkpt lat="42.9700916" lon="12.1255938"><ele>394.0</ele><time>2026-04-09T14:29:06.992Z</time></trkpt><trkpt lat="42.9701357" lon="12.1255248"><ele>394.00000000000006</ele><time>2026-04-09T14:29:07.993Z</time></trkpt><trkpt lat="42.9701981" lon="12.1254548"><ele>394.0</ele><time>2026-04-09T14:29:08.992Z</time></trkpt><trkpt lat="42.9702627" lon="12.1253917"><ele>390.6</ele><time>2026-04-09T14:29:09.992Z</time></trkpt><trkpt lat="42.9703526" lon="12.1253082"><ele>387.2</ele><time>2026-04-09T14:29:10.993Z</time></trkpt><trkpt lat="42.9704381" lon="12.1252454"><ele>383.8</ele><time>2026-04-09T14:29:11.992Z</time></trkpt><trkpt lat="42.9705236" lon="12.1251934"><ele>380.40000000000003</ele><time>2026-04-09T14:29:12.992Z</time></trkpt><trkpt lat="42.9706082" lon="12.1251365"><ele>377.0</ele><time>2026-04-09T14:29:13.992Z</time></trkpt><trkpt lat="42.9706914" lon="12.1250865"><ele>377.0</ele><time>2026-04-09T14:29:14.993Z</time></trkpt><trkpt lat="42.9707789" lon="12.125097"><ele>377.0</ele><time>2026-04-09T14:29:15.993Z</time></trkpt><trkpt lat="42.9708693" lon="12.1251238"><ele>377.0</ele><time>2026-04-09T14:29:16.992Z</time></trkpt><trkpt lat="42.9709525" lon="12.1252118"><ele>377.0</ele><time>2026-04-09T14:29:17.991Z</time></trkpt><trkpt lat="42.9710336" lon="12.1253235"><ele>377.0</ele><time>2026-04-09T14:29:18.993Z</time></trkpt><trkpt lat="42.9710995" lon="12.1254667"><ele>375.0</ele><time>2026-04-09T14:29:19.991Z</time></trkpt><trkpt lat="42.9711675" lon="12.1256084"><ele>373.0</ele><time>2026-04-09T14:29:20.992Z</time></trkpt><trkpt lat="42.9712273" lon="12.1257563"><ele>371.0</ele><time>2026-04-09T14:29:21.992Z</time></trkpt><trkpt lat="42.9712842" lon="12.1258596"><ele>369.0</ele><time>2026-04-09T14:29:22.992Z</time></trkpt><trkpt lat="42.971345" lon="12.1259646"><ele>367.0</ele><time>2026-04-09T14:29:23.992Z</time></trkpt><trkpt lat="42.9713952" lon="12.1260562"><ele>367.0</ele><time>2026-04-09T14:29:24.992Z</time></trkpt><trkpt lat="42.9714718" lon="12.1261585"><ele>367.0</ele><time>2026-04-09T14:29:26.992Z</time></trkpt><trkpt lat="42.9715406" lon="12.1261587"><ele>367.0</ele><time>2026-04-09T14:29:28.992Z</time></trkpt><trkpt lat="42.9715971" lon="12.1260466"><ele>367.0</ele><time>2026-04-09T14:29:31.992Z</time></trkpt><trkpt lat="42.9716224" lon="12.1258989"><ele>367.0</ele><time>2026-04-09T14:29:33.992Z</time></trkpt><trkpt lat="42.9716104" lon="12.1257782"><ele>365.8</ele><time>2026-04-09T14:29:34.992Z</time></trkpt><trkpt lat="42.9715993" lon="12.125668"><ele>364.6</ele><time>2026-04-09T14:29:35.993Z</time></trkpt><trkpt lat="42.9715839" lon="12.1255295"><ele>363.40000000000003</ele><time>2026-04-09T14:29:36.991Z</time></trkpt><trkpt lat="42.9715566" lon="12.1254"><ele>362.20000000000005</ele><time>2026-04-09T14:29:37.992Z</time></trkpt><trkpt lat="42.9715307" lon="12.1252429"><ele>361.0</ele><time>2026-04-09T14:29:38.992Z</time></trkpt><trkpt lat="42.9715304" lon="12.1250765"><ele>361.0</ele><time>2026-04-09T14:29:39.992Z</time></trkpt><trkpt lat="42.971539" lon="12.1249016"><ele>361.0</ele><time>2026-04-09T14:29:40.992Z</time></trkpt><trkpt lat="42.9715554" lon="12.124708"><ele>361.0</ele><time>2026-04-09T14:29:41.992Z</time></trkpt><trkpt lat="42.9715869" lon="12.1245281"><ele>361.0</ele><time>2026-04-09T14:29:42.992Z</time></trkpt><trkpt lat="42.9716049" lon="12.1243353"><ele>360.25</ele><time>2026-04-09T14:29:43.992Z</time></trkpt><trkpt lat="42.9716258" lon="12.1241528"><ele>359.5</ele><time>2026-04-09T14:29:44.992Z</time></trkpt><trkpt lat="42.9716489" lon="12.1239908"><ele>358.75</ele><time>2026-04-09T14:29:45.992Z</time></trkpt><trkpt lat="42.9716853" lon="12.123836"><ele>358.0</ele><time>2026-04-09T14:29:46.993Z</time></trkpt><trkpt lat="42.9717498" lon="12.1237172"><ele>355.4</ele><time>2026-04-09T14:29:47.992Z</time></trkpt><trkpt lat="42.9718192" lon="12.1236101"><ele>352.79999999999995</ele><time>2026-04-09T14:29:48.992Z</time></trkpt><trkpt lat="42.9719093" lon="12.1235391"><ele>350.2</ele><time>2026-04-09T14:29:49.992Z</time></trkpt><trkpt lat="42.9720049" lon="12.1234672"><ele>347.6</ele><time>2026-04-09T14:29:50.992Z</time></trkpt><trkpt lat="42.9721032" lon="12.1233985"><ele>345.0</ele><time>2026-04-09T14:29:51.993Z</time></trkpt><trkpt lat="42.9721879" lon="12.1233252"><ele>345.0</ele><time>2026-04-09T14:29:52.992Z</time></trkpt><trkpt lat="42.9722845" lon="12.1232517"><ele>345.0</ele><time>2026-04-09T14:29:53.993Z</time></trkpt><trkpt lat="42.9723608" lon="12.1231774"><ele>345.0</ele><time>2026-04-09T14:29:54.992Z</time></trkpt><trkpt lat="42.9724222" lon="12.1230872"><ele>345.0</ele><time>2026-04-09T14:29:55.992Z</time></trkpt><trkpt lat="42.9724489" lon="12.1229864"><ele>345.0</ele><time>2026-04-09T14:29:56.992Z</time></trkpt><trkpt lat="42.9724401" lon="12.1228708"><ele>343.4</ele><time>2026-04-09T14:29:57.993Z</time></trkpt><trkpt lat="42.9724165" lon="12.1227642"><ele>341.8</ele><time>2026-04-09T14:29:58.992Z</time></trkpt><trkpt lat="42.9723629" lon="12.1226536"><ele>340.20000000000005</ele><time>2026-04-09T14:29:59.993Z</time></trkpt><trkpt lat="42.9723425" lon="12.1225397"><ele>338.6</ele><time>2026-04-09T14:30:00.992Z</time></trkpt><trkpt lat="42.9723515" lon="12.1224146"><ele>337.0</ele><time>2026-04-09T14:30:01.991Z</time></trkpt><trkpt lat="42.9723895" lon="12.122295"><ele>335.75</ele><time>2026-04-09T14:30:02.993Z</time></trkpt><trkpt lat="42.9724472" lon="12.1221682"><ele>334.5</ele><time>2026-04-09T14:30:03.991Z</time></trkpt><trkpt lat="42.9725013" lon="12.1220068"><ele>333.25</ele><time>2026-04-09T14:30:04.993Z</time></trkpt><trkpt lat="42.9725442" lon="12.1218617"><ele>332.0</ele><time>2026-04-09T14:30:05.993Z</time></trkpt><trkpt lat="42.9725388" lon="12.1216951"><ele>329.5</ele><time>2026-04-09T14:30:06.994Z</time></trkpt><trkpt lat="42.9725407" lon="12.1215399"><ele>327.0</ele><time>2026-04-09T14:30:07.992Z</time></trkpt><trkpt lat="42.9725274" lon="12.1213704"><ele>324.5</ele><time>2026-04-09T14:30:08.993Z</time></trkpt><trkpt lat="42.9725062" lon="12.1211954"><ele>322.0</ele><time>2026-04-09T14:30:09.992Z</time></trkpt><trkpt lat="42.9724497" lon="12.1210409"><ele>322.0</ele><time>2026-04-09T14:30:10.993Z</time></trkpt><trkpt lat="42.9723967" lon="12.1208702"><ele>322.0</ele><time>2026-04-09T14:30:11.992Z</time></trkpt><trkpt lat="42.9723475" lon="12.1206953"><ele>322.0</ele><time>2026-04-09T14:30:12.993Z</time></trkpt><trkpt lat="42.9723286" lon="12.1204802"><ele>322.0</ele><time>2026-04-09T14:30:13.993Z</time></trkpt><trkpt lat="42.9723093" lon="12.1202542"><ele>319.0</ele><time>2026-04-09T14:30:14.992Z</time></trkpt><trkpt lat="42.9722987" lon="12.1200077"><ele>316.0</ele><time>2026-04-09T14:30:15.991Z</time></trkpt><trkpt lat="42.9723093" lon="12.1197979"><ele>313.0</ele><time>2026-04-09T14:30:16.993Z</time></trkpt><trkpt lat="42.9722834" lon="12.119564"><ele>311.66666666666663</ele><time>2026-04-09T14:30:17.992Z</time></trkpt><trkpt lat="42.972264" lon="12.1193375"><ele>310.3333333333333</ele><time>2026-04-09T14:30:18.993Z</time></trkpt><trkpt lat="42.9722446" lon="12.1191178"><ele>309.0</ele><time>2026-04-09T14:30:19.993Z</time></trkpt><trkpt lat="42.9722117" lon="12.1189072"><ele>308.0</ele><time>2026-04-09T14:30:20.992Z</time></trkpt><trkpt lat="42.9721767" lon="12.1187104"><ele>307.0</ele><time>2026-04-09T14:30:21.992Z</time></trkpt><trkpt lat="42.9721365" lon="12.1185453"><ele>306.0</ele><time>2026-04-09T14:30:22.992Z</time></trkpt><trkpt lat="42.9720896" lon="12.1184041"><ele>305.0</ele><time>2026-04-09T14:30:23.992Z</time></trkpt><trkpt lat="42.9720341" lon="12.1182744"><ele>304.25</ele><time>2026-04-09T14:30:24.991Z</time></trkpt><trkpt lat="42.971947" lon="12.1181835"><ele>303.5</ele><time>2026-04-09T14:30:25.992Z</time></trkpt><trkpt lat="42.9718438" lon="12.1181003"><ele>302.75</ele><time>2026-04-09T14:30:26.992Z</time></trkpt><trkpt lat="42.9717402" lon="12.1180193"><ele>302.0</ele><time>2026-04-09T14:30:27.992Z</time></trkpt><trkpt lat="42.9716404" lon="12.1179425"><ele>302.0</ele><time>2026-04-09T14:30:28.992Z</time></trkpt><trkpt lat="42.9715671" lon="12.1178357"><ele>302.0</ele><time>2026-04-09T14:30:29.992Z</time></trkpt><trkpt lat="42.9714976" lon="12.117672"><ele>302.0</ele><time>2026-04-09T14:30:30.993Z</time></trkpt><trkpt lat="42.9714711" lon="12.1175063"><ele>302.0</ele><time>2026-04-09T14:30:31.993Z</time></trkpt><trkpt lat="42.9714913" lon="12.117354"><ele>302.0</ele><time>2026-04-09T14:30:32.992Z</time></trkpt><trkpt lat="42.9715353" lon="12.1171927"><ele>302.0</ele><time>2026-04-09T14:30:33.992Z</time></trkpt><trkpt lat="42.9716012" lon="12.1170589"><ele>302.0</ele><time>2026-04-09T14:30:34.993Z</time></trkpt><trkpt lat="42.9716803" lon="12.1169425"><ele>302.0</ele><time>2026-04-09T14:30:35.992Z</time></trkpt><trkpt lat="42.9717747" lon="12.1168565"><ele>301.2</ele><time>2026-04-09T14:30:36.992Z</time></trkpt><trkpt lat="42.9718716" lon="12.1167824"><ele>300.4</ele><time>2026-04-09T14:30:37.992Z</time></trkpt><trkpt lat="42.9719727" lon="12.1167136"><ele>299.6</ele><time>2026-04-09T14:30:38.993Z</time></trkpt><trkpt lat="42.9720588" lon="12.1166643"><ele>298.8</ele><time>2026-04-09T14:30:39.992Z</time></trkpt><trkpt lat="42.972139" lon="12.1166387"><ele>298.0</ele><time>2026-04-09T14:30:40.991Z</time></trkpt><trkpt lat="42.9722039" lon="12.1166185"><ele>298.0</ele><time>2026-04-09T14:30:41.992Z</time></trkpt><trkpt lat="42.9722799" lon="12.1165925"><ele>298.0</ele><time>2026-04-09T14:30:43.992Z</time></trkpt><trkpt lat="42.9722134" lon="12.1165822"><ele>298.0</ele><time>2026-04-09T14:30:53.993Z</time></trkpt><trkpt lat="42.9721595" lon="12.1166394"><ele>298.0</ele><time>2026-04-09T14:31:26.992Z</time></trkpt><trkpt lat="42.9720384" lon="12.1167076"><ele>298.0</ele><time>2026-04-09T14:31:28.992Z</time></trkpt><trkpt lat="42.9719478" lon="12.116751"><ele>298.0</ele><time>2026-04-09T14:31:29.991Z</time></trkpt><trkpt lat="42.971848" lon="12.116799"><ele>298.0</ele><time>2026-04-09T14:31:30.992Z</time></trkpt><trkpt lat="42.9717529" lon="12.1168575"><ele>298.0</ele><time>2026-04-09T14:31:31.991Z</time></trkpt><trkpt lat="42.9716628" lon="12.1169421"><ele>298.0</ele><time>2026-04-09T14:31:32.992Z</time></trkpt><trkpt lat="42.971589" lon="12.1170416"><ele>298.0</ele><time>2026-04-09T14:31:33.992Z</time></trkpt><trkpt lat="42.9715377" lon="12.1171396"><ele>298.0</ele><time>2026-04-09T14:31:34.992Z</time></trkpt><trkpt lat="42.9715022" lon="12.1172306"><ele>298.66666666666663</ele><time>2026-04-09T14:31:35.992Z</time></trkpt><trkpt lat="42.9714749" lon="12.1173312"><ele>299.3333333333333</ele><time>2026-04-09T14:31:36.992Z</time></trkpt><trkpt lat="42.9714658" lon="12.1174234"><ele>300.0</ele><time>2026-04-09T14:31:37.993Z</time></trkpt><trkpt lat="42.9714619" lon="12.1175102"><ele>300.6666666666667</ele><time>2026-04-09T14:31:38.991Z</time></trkpt><trkpt lat="42.9714706" lon="12.1176478"><ele>301.33333333333337</ele><time>2026-04-09T14:31:40.992Z</time></trkpt><trkpt lat="42.9714802" lon="12.1177342"><ele>302.0</ele><time>2026-04-09T14:31:42.993Z</time></trkpt><trkpt lat="42.9715192" lon="12.1178237"><ele>302.0</ele><time>2026-04-09T14:32:30.992Z</time></trkpt><trkpt lat="42.9715917" lon="12.1178879"><ele>302.0</ele><time>2026-04-09T14:32:32.992Z</time></trkpt><trkpt lat="42.9717007" lon="12.1179614"><ele>302.0</ele><time>2026-04-09T14:32:34.992Z</time></trkpt><trkpt lat="42.9717571" lon="12.1180156"><ele>302.0</ele><time>2026-04-09T14:32:35.992Z</time></trkpt><trkpt lat="42.9718207" lon="12.118066"><ele>302.0</ele><time>2026-04-09T14:32:36.992Z</time></trkpt><trkpt lat="42.9719046" lon="12.1181439"><ele>301.6666666666667</ele><time>2026-04-09T14:32:38.992Z</time></trkpt><trkpt lat="42.9719596" lon="12.1182281"><ele>301.33333333333337</ele><time>2026-04-09T14:32:40.992Z</time></trkpt><trkpt lat="42.9720096" lon="12.1182946"><ele>301.0</ele><time>2026-04-09T14:32:43.993Z</time></trkpt><trkpt lat="42.9720599" lon="12.118236"><ele>300.6666666666667</ele><time>2026-04-09T14:32:47.992Z</time></trkpt><trkpt lat="42.9719974" lon="12.1181939"><ele>300.3333333333333</ele><time>2026-04-09T14:33:09.992Z</time></trkpt><trkpt lat="42.9719452" lon="12.1181396"><ele>300.0</ele><time>2026-04-09T14:33:20.991Z</time></trkpt><trkpt lat="42.971857" lon="12.1180583"><ele>300.0</ele><time>2026-04-09T14:33:23.992Z</time></trkpt><trkpt lat="42.9717538" lon="12.1179954"><ele>300.0</ele><time>2026-04-09T14:33:25.992Z</time></trkpt><trkpt lat="42.9716932" lon="12.1179547"><ele>300.0</ele><time>2026-04-09T14:33:26.992Z</time></trkpt><trkpt lat="42.9716273" lon="12.117897"><ele>300.0</ele><time>2026-04-09T14:33:27.992Z</time></trkpt><trkpt lat="42.9715563" lon="12.1178265"><ele>300.0</ele><time>2026-04-09T14:33:28.992Z</time></trkpt><trkpt lat="42.9715059" lon="12.1177324"><ele>300.0</ele><time>2026-04-09T14:33:29.992Z</time></trkpt><trkpt lat="42.9714788" lon="12.1176105"><ele>300.4</ele><time>2026-04-09T14:33:30.992Z</time></trkpt><trkpt lat="42.9714812" lon="12.1174895"><ele>300.8</ele><time>2026-04-09T14:33:31.992Z</time></trkpt><trkpt lat="42.9714889" lon="12.1173644"><ele>301.2</ele><time>2026-04-09T14:33:32.993Z</time></trkpt><trkpt lat="42.9715052" lon="12.1172394"><ele>301.6</ele><time>2026-04-09T14:33:33.992Z</time></trkpt><trkpt lat="42.9715485" lon="12.1171223"><ele>302.0</ele><time>2026-04-09T14:33:34.993Z</time></trkpt><trkpt lat="42.9716127" lon="12.1170281"><ele>302.0</ele><time>2026-04-09T14:33:35.992Z</time></trkpt><trkpt lat="42.9716725" lon="12.1169516"><ele>302.0</ele><time>2026-04-09T14:33:36.992Z</time></trkpt><trkpt lat="42.971749" lon="12.116883"><ele>302.0</ele><time>2026-04-09T14:33:37.992Z</time></trkpt><trkpt lat="42.9718244" lon="12.1168371"><ele>302.0</ele><time>2026-04-09T14:33:38.993Z</time></trkpt><trkpt lat="42.97192" lon="12.116767"><ele>302.0</ele><time>2026-04-09T14:33:39.992Z</time></trkpt><trkpt lat="42.9720209" lon="12.1167139"><ele>301.2</ele><time>2026-04-09T14:33:40.992Z</time></trkpt><trkpt lat="42.9721255" lon="12.1166672"><ele>300.4</ele><time>2026-04-09T14:33:41.992Z</time></trkpt><trkpt lat="42.9722154" lon="12.1166138"><ele>299.6</ele><time>2026-04-09T14:33:42.992Z</time></trkpt><trkpt lat="42.9722871" lon="12.1165211"><ele>298.8</ele><time>2026-04-09T14:33:43.993Z</time></trkpt><trkpt lat="42.9723308" lon="12.1164112"><ele>298.0</ele><time>2026-04-09T14:33:44.992Z</time></trkpt><trkpt lat="42.9723536" lon="12.116287"><ele>297.6</ele><time>2026-04-09T14:33:45.993Z</time></trkpt><trkpt lat="42.9723782" lon="12.1161844"><ele>297.20000000000005</ele><time>2026-04-09T14:33:46.991Z</time></trkpt><trkpt lat="42.9724096" lon="12.1160879"><ele>296.8</ele><time>2026-04-09T14:33:47.992Z</time></trkpt><trkpt lat="42.9725307" lon="12.1160209"><ele>296.40000000000003</ele><time>2026-04-09T14:33:48.992Z</time></trkpt><trkpt lat="42.9726273" lon="12.1159442"><ele>296.0</ele><time>2026-04-09T14:33:49.992Z</time></trkpt><trkpt lat="42.9727549" lon="12.1158911"><ele>296.0</ele><time>2026-04-09T14:33:50.993Z</time></trkpt><trkpt lat="42.9728596" lon="12.1157702"><ele>296.0</ele><time>2026-04-09T14:33:51.992Z</time></trkpt><trkpt lat="42.9729676" lon="12.1156601"><ele>296.0</ele><time>2026-04-09T14:33:52.992Z</time></trkpt><trkpt lat="42.9730453" lon="12.1154577"><ele>296.0</ele><time>2026-04-09T14:33:53.994Z</time></trkpt><trkpt lat="42.9731293" lon="12.1152795"><ele>295.33333333333337</ele><time>2026-04-09T14:33:54.993Z</time></trkpt><trkpt lat="42.9732044" lon="12.1150718"><ele>294.6666666666667</ele><time>2026-04-09T14:33:55.992Z</time></trkpt><trkpt lat="42.9732798" lon="12.1148593"><ele>294.0</ele><time>2026-04-09T14:33:56.993Z</time></trkpt><trkpt lat="42.9733514" lon="12.1146513"><ele>293.6666666666667</ele><time>2026-04-09T14:33:57.992Z</time></trkpt><trkpt lat="42.973431" lon="12.1144474"><ele>293.33333333333337</ele><time>2026-04-09T14:33:58.992Z</time></trkpt><trkpt lat="42.9735215" lon="12.1142376"><ele>293.0</ele><time>2026-04-09T14:33:59.992Z</time></trkpt><trkpt lat="42.9736125" lon="12.1140216"><ele>293.0</ele><time>2026-04-09T14:34:00.992Z</time></trkpt><trkpt lat="42.9736943" lon="12.113824"><ele>293.0</ele><time>2026-04-09T14:34:01.993Z</time></trkpt><trkpt lat="42.9737817" lon="12.1136339"><ele>293.0</ele><time>2026-04-09T14:34:02.992Z</time></trkpt><trkpt lat="42.9738661" lon="12.1134348"><ele>294.6666666666667</ele><time>2026-04-09T14:34:03.992Z</time></trkpt><trkpt lat="42.9739247" lon="12.1132385"><ele>296.3333333333333</ele><time>2026-04-09T14:34:04.993Z</time></trkpt><trkpt lat="42.9740188" lon="12.1130706"><ele>298.0</ele><time>2026-04-09T14:34:05.991Z</time></trkpt><trkpt lat="42.9741295" lon="12.1129331"><ele>294.3333333333333</ele><time>2026-04-09T14:34:06.992Z</time></trkpt><trkpt lat="42.9742626" lon="12.1128092"><ele>290.6666666666667</ele><time>2026-04-09T14:34:07.992Z</time></trkpt><trkpt lat="42.9743822" lon="12.1127232"><ele>287.0</ele><time>2026-04-09T14:34:08.992Z</time></trkpt><trkpt lat="42.9745283" lon="12.1126232"><ele>287.0</ele><time>2026-04-09T14:34:09.993Z</time></trkpt><trkpt lat="42.9746717" lon="12.1125129"><ele>287.0</ele><time>2026-04-09T14:34:10.992Z</time></trkpt><trkpt lat="42.9747823" lon="12.1123776"><ele>287.0</ele><time>2026-04-09T14:34:11.992Z</time></trkpt><trkpt lat="42.9748937" lon="12.1122159"><ele>286.33333333333337</ele><time>2026-04-09T14:34:12.992Z</time></trkpt><trkpt lat="42.9749844" lon="12.1120314"><ele>285.6666666666667</ele><time>2026-04-09T14:34:13.992Z</time></trkpt><trkpt lat="42.9750726" lon="12.1118251"><ele>285.0</ele><time>2026-04-09T14:34:14.992Z</time></trkpt><trkpt lat="42.9751526" lon="12.111616"><ele>284.0</ele><time>2026-04-09T14:34:15.992Z</time></trkpt><trkpt lat="42.9752203" lon="12.1114122"><ele>283.0</ele><time>2026-04-09T14:34:16.992Z</time></trkpt><trkpt lat="42.9752799" lon="12.1112226"><ele>282.0</ele><time>2026-04-09T14:34:17.992Z</time></trkpt><trkpt lat="42.9753334" lon="12.1110399"><ele>282.0</ele><time>2026-04-09T14:34:18.992Z</time></trkpt><trkpt lat="42.9753834" lon="12.1108647"><ele>282.0</ele><time>2026-04-09T14:34:19.992Z</time></trkpt><trkpt lat="42.9754262" lon="12.1106928"><ele>282.0</ele><time>2026-04-09T14:34:20.992Z</time></trkpt><trkpt lat="42.9754671" lon="12.1105166"><ele>282.0</ele><time>2026-04-09T14:34:21.992Z</time></trkpt><trkpt lat="42.9755165" lon="12.110363"><ele>281.75</ele><time>2026-04-09T14:34:22.992Z</time></trkpt><trkpt lat="42.975583" lon="12.1102325"><ele>281.5</ele><time>2026-04-09T14:34:23.992Z</time></trkpt><trkpt lat="42.9756726" lon="12.1101252"><ele>281.25</ele><time>2026-04-09T14:34:24.991Z</time></trkpt><trkpt lat="42.9757703" lon="12.1100333"><ele>281.0</ele><time>2026-04-09T14:34:25.992Z</time></trkpt><trkpt lat="42.9758664" lon="12.1099356"><ele>282.25</ele><time>2026-04-09T14:34:26.992Z</time></trkpt><trkpt lat="42.9759652" lon="12.109845"><ele>283.5</ele><time>2026-04-09T14:34:27.992Z</time></trkpt><trkpt lat="42.9760612" lon="12.1097167"><ele>284.75</ele><time>2026-04-09T14:34:28.991Z</time></trkpt><trkpt lat="42.9761381" lon="12.1095943"><ele>286.0</ele><time>2026-04-09T14:34:29.993Z</time></trkpt><trkpt lat="42.9762202" lon="12.109475"><ele>286.0</ele><time>2026-04-09T14:34:30.992Z</time></trkpt><trkpt lat="42.9763183" lon="12.109385"><ele>286.0</ele><time>2026-04-09T14:34:31.992Z</time></trkpt><trkpt lat="42.9764254" lon="12.1093621"><ele>286.0</ele><time>2026-04-09T14:34:32.992Z</time></trkpt><trkpt lat="42.9765555" lon="12.1093656"><ele>286.0</ele><time>2026-04-09T14:34:33.992Z</time></trkpt><trkpt lat="42.9766804" lon="12.1093774"><ele>284.3333333333333</ele><time>2026-04-09T14:34:34.992Z</time></trkpt><trkpt lat="42.9768233" lon="12.1093748"><ele>282.6666666666667</ele><time>2026-04-09T14:34:35.992Z</time></trkpt><trkpt lat="42.9769784" lon="12.109377"><ele>281.0</ele><time>2026-04-09T14:34:36.992Z</time></trkpt><trkpt lat="42.9771405" lon="12.1093635"><ele>281.0</ele><time>2026-04-09T14:34:37.993Z</time></trkpt><trkpt lat="42.9773054" lon="12.1093548"><ele>281.0</ele><time>2026-04-09T14:34:38.992Z</time></trkpt><trkpt lat="42.9774383" lon="12.1093623"><ele>281.0</ele><time>2026-04-09T14:34:39.993Z</time></trkpt><trkpt lat="42.9775922" lon="12.1093535"><ele>279.75</ele><time>2026-04-09T14:34:40.992Z</time></trkpt><trkpt lat="42.977713" lon="12.1093353"><ele>278.5</ele><time>2026-04-09T14:34:41.993Z</time></trkpt><trkpt lat="42.9778545" lon="12.1093111"><ele>277.25</ele><time>2026-04-09T14:34:42.992Z</time></trkpt><trkpt lat="42.9779735" lon="12.1092115"><ele>276.0</ele><time>2026-04-09T14:34:43.993Z</time></trkpt><trkpt lat="42.9781088" lon="12.1090628"><ele>276.0</ele><time>2026-04-09T14:34:44.992Z</time></trkpt><trkpt lat="42.9782455" lon="12.1089257"><ele>276.0</ele><time>2026-04-09T14:34:45.992Z</time></trkpt><trkpt lat="42.9783671" lon="12.1087607"><ele>276.0</ele><time>2026-04-09T14:34:46.993Z</time></trkpt><trkpt lat="42.9784895" lon="12.1086086"><ele>275.6666666666667</ele><time>2026-04-09T14:34:47.992Z</time></trkpt><trkpt lat="42.9785972" lon="12.1084078"><ele>275.33333333333337</ele><time>2026-04-09T14:34:48.992Z</time></trkpt><trkpt lat="42.9786964" lon="12.1082208"><ele>275.0</ele><time>2026-04-09T14:34:49.993Z</time></trkpt><trkpt lat="42.9787746" lon="12.1080534"><ele>274.5</ele><time>2026-04-09T14:34:50.992Z</time></trkpt><trkpt lat="42.978844" lon="12.1078888"><ele>274.0</ele><time>2026-04-09T14:34:51.992Z</time></trkpt><trkpt lat="42.978908" lon="12.1077303"><ele>273.5</ele><time>2026-04-09T14:34:52.991Z</time></trkpt><trkpt lat="42.9789384" lon="12.1075376"><ele>273.0</ele><time>2026-04-09T14:34:53.992Z</time></trkpt><trkpt lat="42.9789879" lon="12.10737"><ele>273.25</ele><time>2026-04-09T14:34:54.992Z</time></trkpt><trkpt lat="42.9790487" lon="12.1072212"><ele>273.5</ele><time>2026-04-09T14:34:55.991Z</time></trkpt><trkpt lat="42.979167" lon="12.1071207"><ele>273.75</ele><time>2026-04-09T14:34:56.991Z</time></trkpt><trkpt lat="42.9792936" lon="12.1070381"><ele>274.0</ele><time>2026-04-09T14:34:57.992Z</time></trkpt><trkpt lat="42.9794349" lon="12.1069494"><ele>274.0</ele><time>2026-04-09T14:34:58.991Z</time></trkpt><trkpt lat="42.9795823" lon="12.1068606"><ele>274.0</ele><time>2026-04-09T14:34:59.992Z</time></trkpt><trkpt lat="42.9797311" lon="12.1067503"><ele>274.0</ele><time>2026-04-09T14:35:00.992Z</time></trkpt><trkpt lat="42.979872" lon="12.1066417"><ele>280.3333333333333</ele><time>2026-04-09T14:35:01.992Z</time></trkpt><trkpt lat="42.9800124" lon="12.1065389"><ele>286.6666666666667</ele><time>2026-04-09T14:35:02.992Z</time></trkpt><trkpt lat="42.9801583" lon="12.1064422"><ele>293.0</ele><time>2026-04-09T14:35:03.992Z</time></trkpt><trkpt lat="42.9802943" lon="12.1063881"><ele>293.0</ele><time>2026-04-09T14:35:04.992Z</time></trkpt><trkpt lat="42.9804321" lon="12.1063899"><ele>293.0</ele><time>2026-04-09T14:35:05.992Z</time></trkpt><trkpt lat="42.9805693" lon="12.1064366"><ele>293.0</ele><time>2026-04-09T14:35:06.992Z</time></trkpt><trkpt lat="42.9807045" lon="12.106507"><ele>293.0</ele><time>2026-04-09T14:35:07.992Z</time></trkpt><trkpt lat="42.9808378" lon="12.1065958"><ele>291.5</ele><time>2026-04-09T14:35:08.992Z</time></trkpt><trkpt lat="42.9809608" lon="12.1066968"><ele>290.0</ele><time>2026-04-09T14:35:09.992Z</time></trkpt><trkpt lat="42.9810874" lon="12.1068162"><ele>288.5</ele><time>2026-04-09T14:35:10.992Z</time></trkpt><trkpt lat="42.9812126" lon="12.1069338"><ele>287.0</ele><time>2026-04-09T14:35:11.992Z</time></trkpt><trkpt lat="42.9813437" lon="12.1070347"><ele>287.0</ele><time>2026-04-09T14:35:12.992Z</time></trkpt><trkpt lat="42.981474" lon="12.107118"><ele>287.0</ele><time>2026-04-09T14:35:13.993Z</time></trkpt><trkpt lat="42.9815978" lon="12.1071765"><ele>287.0</ele><time>2026-04-09T14:35:14.992Z</time></trkpt><trkpt lat="42.9817191" lon="12.1071705"><ele>287.0</ele><time>2026-04-09T14:35:15.992Z</time></trkpt><trkpt lat="42.9818499" lon="12.107141"><ele>286.25</ele><time>2026-04-09T14:35:16.993Z</time></trkpt><trkpt lat="42.9819718" lon="12.1070478"><ele>285.5</ele><time>2026-04-09T14:35:17.992Z</time></trkpt><trkpt lat="42.9821078" lon="12.1069632"><ele>284.75</ele><time>2026-04-09T14:35:18.992Z</time></trkpt><trkpt lat="42.9822356" lon="12.1068657"><ele>284.0</ele><time>2026-04-09T14:35:19.992Z</time></trkpt><trkpt lat="42.9823583" lon="12.1067517"><ele>284.0</ele><time>2026-04-09T14:35:20.992Z</time></trkpt><trkpt lat="42.9824631" lon="12.106618"><ele>284.0</ele><time>2026-04-09T14:35:21.992Z</time></trkpt><trkpt lat="42.9825562" lon="12.1064747"><ele>284.0</ele><time>2026-04-09T14:35:22.992Z</time></trkpt><trkpt lat="42.9826364" lon="12.106319"><ele>284.0</ele><time>2026-04-09T14:35:23.992Z</time></trkpt><trkpt lat="42.9827004" lon="12.1061282"><ele>280.33333333333337</ele><time>2026-04-09T14:35:24.992Z</time></trkpt><trkpt lat="42.9827415" lon="12.1059143"><ele>276.6666666666667</ele><time>2026-04-09T14:35:25.992Z</time></trkpt><trkpt lat="42.9827867" lon="12.1056933"><ele>273.0</ele><time>2026-04-09T14:35:26.992Z</time></trkpt><trkpt lat="42.9828646" lon="12.1054597"><ele>273.0</ele><time>2026-04-09T14:35:27.991Z</time></trkpt><trkpt lat="42.9829395" lon="12.1052301"><ele>273.0</ele><time>2026-04-09T14:35:28.992Z</time></trkpt><trkpt lat="42.983031" lon="12.1050178"><ele>273.0</ele><time>2026-04-09T14:35:29.993Z</time></trkpt><trkpt lat="42.9831459" lon="12.1048103"><ele>271.3333333333333</ele><time>2026-04-09T14:35:30.992Z</time></trkpt><trkpt lat="42.9832735" lon="12.1046216"><ele>269.66666666666663</ele><time>2026-04-09T14:35:31.992Z</time></trkpt><trkpt lat="42.9833903" lon="12.1044478"><ele>268.0</ele><time>2026-04-09T14:35:32.992Z</time></trkpt><trkpt lat="42.983511" lon="12.1042907"><ele>268.0</ele><time>2026-04-09T14:35:33.992Z</time></trkpt><trkpt lat="42.9836411" lon="12.1041673"><ele>268.0</ele><time>2026-04-09T14:35:34.992Z</time></trkpt><trkpt lat="42.9837718" lon="12.1040798"><ele>268.0</ele><time>2026-04-09T14:35:35.992Z</time></trkpt><trkpt lat="42.9839316" lon="12.1040126"><ele>266.0</ele><time>2026-04-09T14:35:36.992Z</time></trkpt><trkpt lat="42.9840184" lon="12.1039691"><ele>264.0</ele><time>2026-04-09T14:35:37.992Z</time></trkpt><trkpt lat="42.9841185" lon="12.1038868"><ele>262.0</ele><time>2026-04-09T14:35:38.992Z</time></trkpt><trkpt lat="42.9841877" lon="12.1037714"><ele>260.0</ele><time>2026-04-09T14:35:39.992Z</time></trkpt><trkpt lat="42.9842603" lon="12.1036318"><ele>258.0</ele><time>2026-04-09T14:35:40.992Z</time></trkpt><trkpt lat="42.9843227" lon="12.1034942"><ele>258.0</ele><time>2026-04-09T14:35:41.993Z</time></trkpt><trkpt lat="42.9844023" lon="12.1033655"><ele>258.0</ele><time>2026-04-09T14:35:42.992Z</time></trkpt><trkpt lat="42.9844869" lon="12.1032485"><ele>258.0</ele><time>2026-04-09T14:35:43.992Z</time></trkpt><trkpt lat="42.9845663" lon="12.1031292"><ele>258.0</ele><time>2026-04-09T14:35:44.992Z</time></trkpt><trkpt lat="42.9846251" lon="12.1030096"><ele>258.2</ele><time>2026-04-09T14:35:45.992Z</time></trkpt><trkpt lat="42.9846609" lon="12.1028803"><ele>258.4</ele><time>2026-04-09T14:35:46.992Z</time></trkpt><trkpt lat="42.9846952" lon="12.1027543"><ele>258.59999999999997</ele><time>2026-04-09T14:35:47.992Z</time></trkpt><trkpt lat="42.98466" lon="12.1026209"><ele>258.8</ele><time>2026-04-09T14:35:48.993Z</time></trkpt><trkpt lat="42.984632" lon="12.1024946"><ele>259.0</ele><time>2026-04-09T14:35:49.992Z</time></trkpt><trkpt lat="42.984589" lon="12.1023705"><ele>258.0</ele><time>2026-04-09T14:35:50.992Z</time></trkpt><trkpt lat="42.9845452" lon="12.1022376"><ele>257.0</ele><time>2026-04-09T14:35:51.991Z</time></trkpt><trkpt lat="42.9844996" lon="12.1020815"><ele>256.0</ele><time>2026-04-09T14:35:52.992Z</time></trkpt><trkpt lat="42.9844501" lon="12.1019318"><ele>255.0</ele><time>2026-04-09T14:35:53.992Z</time></trkpt><trkpt lat="42.9844089" lon="12.1017937"><ele>255.0</ele><time>2026-04-09T14:35:54.992Z</time></trkpt><trkpt lat="42.9843747" lon="12.1016559"><ele>255.0</ele><time>2026-04-09T14:35:55.992Z</time></trkpt><trkpt lat="42.9843523" lon="12.1015221"><ele>255.0</ele><time>2026-04-09T14:35:56.992Z</time></trkpt><trkpt lat="42.9843659" lon="12.1013994"><ele>255.0</ele><time>2026-04-09T14:35:57.992Z</time></trkpt><trkpt lat="42.9843978" lon="12.10128"><ele>255.0</ele><time>2026-04-09T14:35:58.992Z</time></trkpt><trkpt lat="42.9844705" lon="12.1011853"><ele>255.25</ele><time>2026-04-09T14:35:59.991Z</time></trkpt><trkpt lat="42.9845666" lon="12.1011136"><ele>255.5</ele><time>2026-04-09T14:36:00.992Z</time></trkpt><trkpt lat="42.9847028" lon="12.101064"><ele>255.75</ele><time>2026-04-09T14:36:01.992Z</time></trkpt><trkpt lat="42.9848417" lon="12.1010042"><ele>256.0</ele><time>2026-04-09T14:36:02.991Z</time></trkpt><trkpt lat="42.9849879" lon="12.100951"><ele>255.75</ele><time>2026-04-09T14:36:03.992Z</time></trkpt><trkpt lat="42.9851293" lon="12.1008965"><ele>255.5</ele><time>2026-04-09T14:36:04.992Z</time></trkpt><trkpt lat="42.9852637" lon="12.1008514"><ele>255.25</ele><time>2026-04-09T14:36:05.992Z</time></trkpt><trkpt lat="42.9853855" lon="12.1007997"><ele>255.0</ele><time>2026-04-09T14:36:06.992Z</time></trkpt><trkpt lat="42.9854885" lon="12.100775"><ele>256.0</ele><time>2026-04-09T14:36:07.992Z</time></trkpt><trkpt lat="42.9855872" lon="12.1007164"><ele>257.0</ele><time>2026-04-09T14:36:08.992Z</time></trkpt><trkpt lat="42.985677" lon="12.1006315"><ele>258.0</ele><time>2026-04-09T14:36:09.992Z</time></trkpt><trkpt lat="42.9857588" lon="12.1005197"><ele>259.0</ele><time>2026-04-09T14:36:10.992Z</time></trkpt><trkpt lat="42.9858318" lon="12.1003885"><ele>259.5</ele><time>2026-04-09T14:36:11.992Z</time></trkpt><trkpt lat="42.9858856" lon="12.1002553"><ele>260.0</ele><time>2026-04-09T14:36:12.992Z</time></trkpt><trkpt lat="42.9859384" lon="12.1001406"><ele>260.5</ele><time>2026-04-09T14:36:13.992Z</time></trkpt><trkpt lat="42.9859774" lon="12.1000411"><ele>261.0</ele><time>2026-04-09T14:36:14.992Z</time></trkpt><trkpt lat="42.9860164" lon="12.0999712"><ele>261.5</ele><time>2026-04-09T14:36:15.992Z</time></trkpt><trkpt lat="42.9860709" lon="12.0998925"><ele>262.0</ele><time>2026-04-09T14:36:17.992Z</time></trkpt><trkpt lat="42.986082" lon="12.099749"><ele>262.2</ele><time>2026-04-09T14:36:24.992Z</time></trkpt><trkpt lat="42.9859817" lon="12.0996279"><ele>262.4</ele><time>2026-04-09T14:36:26.993Z</time></trkpt><trkpt lat="42.9859231" lon="12.0995294"><ele>262.6</ele><time>2026-04-09T14:36:27.993Z</time></trkpt><trkpt lat="42.9858598" lon="12.0994201"><ele>262.8</ele><time>2026-04-09T14:36:28.991Z</time></trkpt><trkpt lat="42.9857921" lon="12.0992955"><ele>263.0</ele><time>2026-04-09T14:36:29.992Z</time></trkpt><trkpt lat="42.9857213" lon="12.0991494"><ele>264.0</ele><time>2026-04-09T14:36:30.992Z</time></trkpt><trkpt lat="42.9856412" lon="12.0989962"><ele>265.0</ele><time>2026-04-09T14:36:31.992Z</time></trkpt><trkpt lat="42.9855592" lon="12.0988493"><ele>266.0</ele><time>2026-04-09T14:36:32.992Z</time></trkpt><trkpt lat="42.9854776" lon="12.098708"><ele>267.0</ele><time>2026-04-09T14:36:33.992Z</time></trkpt><trkpt lat="42.9853804" lon="12.0985653"><ele>267.0</ele><time>2026-04-09T14:36:34.992Z</time></trkpt><trkpt lat="42.9852643" lon="12.0984161"><ele>267.0</ele><time>2026-04-09T14:36:35.992Z</time></trkpt><trkpt lat="42.9851407" lon="12.0982717"><ele>267.0</ele><time>2026-04-09T14:36:36.992Z</time></trkpt><trkpt lat="42.9850033" lon="12.0981236"><ele>268.3333333333333</ele><time>2026-04-09T14:36:37.992Z</time></trkpt><trkpt lat="42.9848466" lon="12.0979671"><ele>269.66666666666663</ele><time>2026-04-09T14:36:38.992Z</time></trkpt><trkpt lat="42.9846686" lon="12.0978192"><ele>271.0</ele><time>2026-04-09T14:36:39.992Z</time></trkpt><trkpt lat="42.9844826" lon="12.0976433"><ele>271.0</ele><time>2026-04-09T14:36:40.992Z</time></trkpt><trkpt lat="42.9843042" lon="12.0974366"><ele>271.0</ele><time>2026-04-09T14:36:41.991Z</time></trkpt><trkpt lat="42.9841471" lon="12.0972043"><ele>269.5</ele><time>2026-04-09T14:36:42.992Z</time></trkpt><trkpt lat="42.984041" lon="12.0969116"><ele>268.0</ele><time>2026-04-09T14:36:43.992Z</time></trkpt><trkpt lat="42.9839251" lon="12.0966461"><ele>275.5</ele><time>2026-04-09T14:36:44.992Z</time></trkpt><trkpt lat="42.9837815" lon="12.0963951"><ele>283.0</ele><time>2026-04-09T14:36:45.991Z</time></trkpt><trkpt lat="42.9836133" lon="12.096129"><ele>283.0</ele><time>2026-04-09T14:36:46.992Z</time></trkpt><trkpt lat="42.9834294" lon="12.0959303"><ele>283.0</ele><time>2026-04-09T14:36:47.992Z</time></trkpt><trkpt lat="42.9832373" lon="12.095752"><ele>283.0</ele><time>2026-04-09T14:36:48.991Z</time></trkpt><trkpt lat="42.9830334" lon="12.095587"><ele>283.0</ele><time>2026-04-09T14:36:49.992Z</time></trkpt><trkpt lat="42.9828253" lon="12.0954247"><ele>283.0</ele><time>2026-04-09T14:36:50.992Z</time></trkpt><trkpt lat="42.9826265" lon="12.0952632"><ele>283.0</ele><time>2026-04-09T14:36:51.992Z</time></trkpt><trkpt lat="42.9824211" lon="12.0951028"><ele>280.3333333333333</ele><time>2026-04-09T14:36:52.992Z</time></trkpt><trkpt lat="42.9822282" lon="12.0949516"><ele>277.6666666666667</ele><time>2026-04-09T14:36:53.992Z</time></trkpt><trkpt lat="42.9820388" lon="12.0947879"><ele>275.0</ele><time>2026-04-09T14:36:54.992Z</time></trkpt><trkpt lat="42.9818475" lon="12.0946355"><ele>272.33333333333337</ele><time>2026-04-09T14:36:55.992Z</time></trkpt><trkpt lat="42.9816597" lon="12.0944817"><ele>269.6666666666667</ele><time>2026-04-09T14:36:56.992Z</time></trkpt><trkpt lat="42.981471" lon="12.0943314"><ele>267.0</ele><time>2026-04-09T14:36:57.992Z</time></trkpt><trkpt lat="42.9812854" lon="12.0941785"><ele>268.3333333333333</ele><time>2026-04-09T14:36:58.992Z</time></trkpt><trkpt lat="42.9810878" lon="12.0940304"><ele>269.66666666666663</ele><time>2026-04-09T14:36:59.992Z</time></trkpt><trkpt lat="42.9808883" lon="12.0938917"><ele>271.0</ele><time>2026-04-09T14:37:00.992Z</time></trkpt><trkpt lat="42.9806784" lon="12.0937664"><ele>273.5</ele><time>2026-04-09T14:37:01.992Z</time></trkpt><trkpt lat="42.9804615" lon="12.0936583"><ele>276.0</ele><time>2026-04-09T14:37:02.992Z</time></trkpt><trkpt lat="42.9802377" lon="12.093563"><ele>277.5</ele><time>2026-04-09T14:37:03.992Z</time></trkpt><trkpt lat="42.9800102" lon="12.0934643"><ele>279.0</ele><time>2026-04-09T14:37:04.992Z</time></trkpt><trkpt lat="42.9797803" lon="12.0933674"><ele>279.0</ele><time>2026-04-09T14:37:05.992Z</time></trkpt><trkpt lat="42.979563" lon="12.0932738"><ele>279.0</ele><time>2026-04-09T14:37:06.992Z</time></trkpt><trkpt lat="42.9793384" lon="12.093182"><ele>281.5</ele><time>2026-04-09T14:37:07.992Z</time></trkpt><trkpt lat="42.9791178" lon="12.0930821"><ele>284.0</ele><time>2026-04-09T14:37:08.992Z</time></trkpt><trkpt lat="42.9789052" lon="12.0929836"><ele>284.0</ele><time>2026-04-09T14:37:09.992Z</time></trkpt><trkpt lat="42.9787027" lon="12.0928644"><ele>284.0</ele><time>2026-04-09T14:37:10.991Z</time></trkpt><trkpt lat="42.9785043" lon="12.0927125"><ele>284.0</ele><time>2026-04-09T14:37:11.992Z</time></trkpt><trkpt lat="42.9783157" lon="12.0925452"><ele>282.0</ele><time>2026-04-09T14:37:12.992Z</time></trkpt><trkpt lat="42.9781323" lon="12.0923451"><ele>280.0</ele><time>2026-04-09T14:37:13.991Z</time></trkpt><trkpt lat="42.9779725" lon="12.0921392"><ele>280.0</ele><time>2026-04-09T14:37:14.992Z</time></trkpt><trkpt lat="42.977817" lon="12.0919295"><ele>280.0</ele><time>2026-04-09T14:37:15.992Z</time></trkpt><trkpt lat="42.9776582" lon="12.0917252"><ele>280.0</ele><time>2026-04-09T14:37:16.992Z</time></trkpt><trkpt lat="42.977504" lon="12.0915177"><ele>280.66666666666663</ele><time>2026-04-09T14:37:17.992Z</time></trkpt><trkpt lat="42.9773548" lon="12.0913371"><ele>281.3333333333333</ele><time>2026-04-09T14:37:18.992Z</time></trkpt><trkpt lat="42.9772126" lon="12.0911749"><ele>282.0</ele><time>2026-04-09T14:37:19.992Z</time></trkpt><trkpt lat="42.9770701" lon="12.0910286"><ele>282.0</ele><time>2026-04-09T14:37:20.992Z</time></trkpt><trkpt lat="42.9769297" lon="12.090903"><ele>282.0</ele><time>2026-04-09T14:37:21.992Z</time></trkpt><trkpt lat="42.9767822" lon="12.0907822"><ele>282.0</ele><time>2026-04-09T14:37:22.99Z</time></trkpt><trkpt lat="42.9766317" lon="12.0906584"><ele>282.0</ele><time>2026-04-09T14:37:23.992Z</time></trkpt><trkpt lat="42.9764753" lon="12.0905316"><ele>282.0</ele><time>2026-04-09T14:37:24.992Z</time></trkpt><trkpt lat="42.976309" lon="12.0903941"><ele>282.0</ele><time>2026-04-09T14:37:25.992Z</time></trkpt><trkpt lat="42.9761324" lon="12.0902715"><ele>282.0</ele><time>2026-04-09T14:37:26.992Z</time></trkpt><trkpt lat="42.9759361" lon="12.0901356"><ele>282.0</ele><time>2026-04-09T14:37:27.992Z</time></trkpt><trkpt lat="42.9757325" lon="12.0899808"><ele>282.0</ele><time>2026-04-09T14:37:28.992Z</time></trkpt><trkpt lat="42.9755305" lon="12.0898248"><ele>282.0</ele><time>2026-04-09T14:37:29.991Z</time></trkpt><trkpt lat="42.9753451" lon="12.0896729"><ele>282.0</ele><time>2026-04-09T14:37:30.992Z</time></trkpt><trkpt lat="42.9751719" lon="12.0895126"><ele>282.0</ele><time>2026-04-09T14:37:31.992Z</time></trkpt><trkpt lat="42.9750166" lon="12.0893262"><ele>282.0</ele><time>2026-04-09T14:37:32.992Z</time></trkpt><trkpt lat="42.9748873" lon="12.0891048"><ele>282.0</ele><time>2026-04-09T14:37:33.992Z</time></trkpt><trkpt lat="42.9748004" lon="12.08883"><ele>282.0</ele><time>2026-04-09T14:37:34.992Z</time></trkpt><trkpt lat="42.9747294" lon="12.088524"><ele>282.0</ele><time>2026-04-09T14:37:35.992Z</time></trkpt><trkpt lat="42.9746913" lon="12.0882207"><ele>283.0</ele><time>2026-04-09T14:37:36.992Z</time></trkpt><trkpt lat="42.9746863" lon="12.0879313"><ele>284.0</ele><time>2026-04-09T14:37:37.992Z</time></trkpt><trkpt lat="42.9746899" lon="12.0876531"><ele>285.0</ele><time>2026-04-09T14:37:38.992Z</time></trkpt><trkpt lat="42.9746938" lon="12.0873869"><ele>285.3333333333333</ele><time>2026-04-09T14:37:39.992Z</time></trkpt><trkpt lat="42.9746788" lon="12.0871218"><ele>285.66666666666663</ele><time>2026-04-09T14:37:40.992Z</time></trkpt><trkpt lat="42.9746406" lon="12.0868707"><ele>286.0</ele><time>2026-04-09T14:37:41.992Z</time></trkpt><trkpt lat="42.9745521" lon="12.0866486"><ele>285.66666666666663</ele><time>2026-04-09T14:37:42.992Z</time></trkpt><trkpt lat="42.9744373" lon="12.0864265"><ele>285.3333333333333</ele><time>2026-04-09T14:37:43.992Z</time></trkpt><trkpt lat="42.9742961" lon="12.0862119"><ele>285.0</ele><time>2026-04-09T14:37:44.992Z</time></trkpt><trkpt lat="42.9741351" lon="12.086003"><ele>285.0</ele><time>2026-04-09T14:37:45.992Z</time></trkpt><trkpt lat="42.9739856" lon="12.0857977"><ele>285.0</ele><time>2026-04-09T14:37:46.992Z</time></trkpt><trkpt lat="42.9738463" lon="12.0856062"><ele>285.0</ele><time>2026-04-09T14:37:47.992Z</time></trkpt><trkpt lat="42.9737069" lon="12.0854103"><ele>287.0</ele><time>2026-04-09T14:37:48.992Z</time></trkpt><trkpt lat="42.9735825" lon="12.0852357"><ele>289.0</ele><time>2026-04-09T14:37:49.992Z</time></trkpt><trkpt lat="42.9734606" lon="12.0850664"><ele>291.0</ele><time>2026-04-09T14:37:50.992Z</time></trkpt><trkpt lat="42.9733475" lon="12.0849165"><ele>291.0</ele><time>2026-04-09T14:37:51.992Z</time></trkpt><trkpt lat="42.9732453" lon="12.0847815"><ele>291.0</ele><time>2026-04-09T14:37:52.992Z</time></trkpt><trkpt lat="42.9731647" lon="12.084663"><ele>291.0</ele><time>2026-04-09T14:37:53.992Z</time></trkpt><trkpt lat="42.9730937" lon="12.084555"><ele>291.0</ele><time>2026-04-09T14:37:54.992Z</time></trkpt><trkpt lat="42.9730315" lon="12.0844589"><ele>291.0</ele><time>2026-04-09T14:37:55.992Z</time></trkpt><trkpt lat="42.9729672" lon="12.0843824"><ele>291.0</ele><time>2026-04-09T14:37:56.992Z</time></trkpt><trkpt lat="42.972902" lon="12.084343"><ele>291.0</ele><time>2026-04-09T14:37:57.992Z</time></trkpt><trkpt lat="42.9728069" lon="12.0844108"><ele>291.0</ele><time>2026-04-09T14:37:59.992Z</time></trkpt><trkpt lat="42.9727724" lon="12.0845015"><ele>291.0</ele><time>2026-04-09T14:38:00.992Z</time></trkpt><trkpt lat="42.9727197" lon="12.0846183"><ele>291.0</ele><time>2026-04-09T14:38:01.992Z</time></trkpt><trkpt lat="42.9726741" lon="12.0847326"><ele>291.0</ele><time>2026-04-09T14:38:02.992Z</time></trkpt><trkpt lat="42.9726218" lon="12.0848568"><ele>291.0</ele><time>2026-04-09T14:38:03.992Z</time></trkpt><trkpt lat="42.9725717" lon="12.0849909"><ele>291.0</ele><time>2026-04-09T14:38:04.992Z</time></trkpt><trkpt lat="42.9725319" lon="12.0851168"><ele>291.0</ele><time>2026-04-09T14:38:05.992Z</time></trkpt><trkpt lat="42.9724888" lon="12.085234"><ele>291.0</ele><time>2026-04-09T14:38:06.992Z</time></trkpt><trkpt lat="42.9724498" lon="12.0853326"><ele>289.8333333333333</ele><time>2026-04-09T14:38:07.992Z</time></trkpt><trkpt lat="42.9724078" lon="12.0854333"><ele>288.6666666666667</ele><time>2026-04-09T14:38:08.992Z</time></trkpt><trkpt lat="42.9723694" lon="12.0855426"><ele>287.5</ele><time>2026-04-09T14:38:09.992Z</time></trkpt><trkpt lat="42.9723404" lon="12.0856596"><ele>286.33333333333337</ele><time>2026-04-09T14:38:10.992Z</time></trkpt><trkpt lat="42.9723167" lon="12.0857741"><ele>285.1666666666667</ele><time>2026-04-09T14:38:11.992Z</time></trkpt><trkpt lat="42.9722928" lon="12.0858937"><ele>284.0</ele><time>2026-04-09T14:38:12.991Z</time></trkpt><trkpt lat="42.9722681" lon="12.0860082"><ele>283.8</ele><time>2026-04-09T14:38:13.992Z</time></trkpt><trkpt lat="42.9722464" lon="12.0861492"><ele>283.59999999999997</ele><time>2026-04-09T14:38:14.992Z</time></trkpt><trkpt lat="42.9722344" lon="12.0862865"><ele>283.4</ele><time>2026-04-09T14:38:15.991Z</time></trkpt><trkpt lat="42.9722524" lon="12.0864297"><ele>283.2</ele><time>2026-04-09T14:38:16.99Z</time></trkpt><trkpt lat="42.9722864" lon="12.0865878"><ele>283.0</ele><time>2026-04-09T14:38:17.992Z</time></trkpt><trkpt lat="42.9723411" lon="12.0867561"><ele>285.66666666666663</ele><time>2026-04-09T14:38:18.992Z</time></trkpt><trkpt lat="42.9723937" lon="12.0869385"><ele>288.3333333333333</ele><time>2026-04-09T14:38:19.992Z</time></trkpt><trkpt lat="42.9724205" lon="12.0871479"><ele>291.0</ele><time>2026-04-09T14:38:20.992Z</time></trkpt><trkpt lat="42.9723993" lon="12.0873693"><ele>292.0</ele><time>2026-04-09T14:38:21.992Z</time></trkpt><trkpt lat="42.9723435" lon="12.087577"><ele>293.0</ele><time>2026-04-09T14:38:22.992Z</time></trkpt><trkpt lat="42.9722546" lon="12.0877486"><ele>294.0</ele><time>2026-04-09T14:38:23.992Z</time></trkpt><trkpt lat="42.9721591" lon="12.0878553"><ele>295.0</ele><time>2026-04-09T14:38:24.992Z</time></trkpt><trkpt lat="42.972075" lon="12.0879105"><ele>295.0</ele><time>2026-04-09T14:38:25.992Z</time></trkpt><trkpt lat="42.9720077" lon="12.0879062"><ele>295.0</ele><time>2026-04-09T14:38:26.992Z</time></trkpt><trkpt lat="42.9719119" lon="12.0878989"><ele>295.0</ele><time>2026-04-09T14:38:28.991Z</time></trkpt><trkpt lat="42.9718622" lon="12.0879606"><ele>295.0</ele><time>2026-04-09T14:38:31.992Z</time></trkpt><trkpt lat="42.9717933" lon="12.0879984"><ele>295.0</ele><time>2026-04-09T14:38:34.992Z</time></trkpt><trkpt lat="42.9716873" lon="12.0879939"><ele>295.0</ele><time>2026-04-09T14:38:36.992Z</time></trkpt><trkpt lat="42.9715964" lon="12.0880361"><ele>301.0</ele><time>2026-04-09T14:38:37.99Z</time></trkpt><trkpt lat="42.9714999" lon="12.0880901"><ele>307.0</ele><time>2026-04-09T14:38:38.992Z</time></trkpt><trkpt lat="42.9713855" lon="12.0881168"><ele>313.0</ele><time>2026-04-09T14:38:39.991Z</time></trkpt><trkpt lat="42.9712605" lon="12.0881463"><ele>319.0</ele><time>2026-04-09T14:38:40.992Z</time></trkpt><trkpt lat="42.9711293" lon="12.088177"><ele>319.0</ele><time>2026-04-09T14:38:41.992Z</time></trkpt><trkpt lat="42.9709898" lon="12.0882092"><ele>319.0</ele><time>2026-04-09T14:38:42.992Z</time></trkpt><trkpt lat="42.9708549" lon="12.0882408"><ele>319.0</ele><time>2026-04-09T14:38:43.992Z</time></trkpt><trkpt lat="42.9707169" lon="12.0882581"><ele>319.0</ele><time>2026-04-09T14:38:44.992Z</time></trkpt><trkpt lat="42.9705819" lon="12.0882918"><ele>314.25</ele><time>2026-04-09T14:38:45.992Z</time></trkpt><trkpt lat="42.9704607" lon="12.0883481"><ele>309.5</ele><time>2026-04-09T14:38:46.992Z</time></trkpt><trkpt lat="42.9703497" lon="12.0884234"><ele>304.75</ele><time>2026-04-09T14:38:47.992Z</time></trkpt><trkpt lat="42.9702664" lon="12.0885311"><ele>300.0</ele><time>2026-04-09T14:38:48.991Z</time></trkpt><trkpt lat="42.970207" lon="12.0886727"><ele>300.0</ele><time>2026-04-09T14:38:49.992Z</time></trkpt><trkpt lat="42.9701766" lon="12.0888354"><ele>300.0</ele><time>2026-04-09T14:38:50.992Z</time></trkpt><trkpt lat="42.9702006" lon="12.0890147"><ele>300.0</ele><time>2026-04-09T14:38:51.992Z</time></trkpt><trkpt lat="42.9702517" lon="12.0891744"><ele>300.0</ele><time>2026-04-09T14:38:52.992Z</time></trkpt><trkpt lat="42.9703124" lon="12.0893126"><ele>297.0</ele><time>2026-04-09T14:38:53.992Z</time></trkpt><trkpt lat="42.97036" lon="12.0894548"><ele>294.0</ele><time>2026-04-09T14:38:54.992Z</time></trkpt><trkpt lat="42.9704127" lon="12.0895729"><ele>291.0</ele><time>2026-04-09T14:38:55.992Z</time></trkpt><trkpt lat="42.9705032" lon="12.089662"><ele>288.0</ele><time>2026-04-09T14:38:56.992Z</time></trkpt><trkpt lat="42.9705843" lon="12.0897388"><ele>285.0</ele><time>2026-04-09T14:38:57.991Z</time></trkpt><trkpt lat="42.970659" lon="12.0898299"><ele>286.4</ele><time>2026-04-09T14:38:58.992Z</time></trkpt><trkpt lat="42.9707315" lon="12.0899451"><ele>287.8</ele><time>2026-04-09T14:38:59.992Z</time></trkpt><trkpt lat="42.9707427" lon="12.0901106"><ele>289.2</ele><time>2026-04-09T14:39:00.992Z</time></trkpt><trkpt lat="42.9707325" lon="12.0902535"><ele>290.6</ele><time>2026-04-09T14:39:01.991Z</time></trkpt><trkpt lat="42.9707333" lon="12.0903774"><ele>292.0</ele><time>2026-04-09T14:39:02.992Z</time></trkpt><trkpt lat="42.9707562" lon="12.0904863"><ele>292.0</ele><time>2026-04-09T14:39:03.992Z</time></trkpt><trkpt lat="42.9707832" lon="12.0905741"><ele>292.0</ele><time>2026-04-09T14:39:04.991Z</time></trkpt><trkpt lat="42.9709187" lon="12.0905984"><ele>292.0</ele><time>2026-04-09T14:39:06.992Z</time></trkpt><trkpt lat="42.9709971" lon="12.090558"><ele>292.0</ele><time>2026-04-09T14:39:07.992Z</time></trkpt><trkpt lat="42.9710593" lon="12.0905798"><ele>292.0</ele><time>2026-04-09T14:39:08.992Z</time></trkpt><trkpt lat="42.9711201" lon="12.0906325"><ele>292.0</ele><time>2026-04-09T14:39:09.992Z</time></trkpt><trkpt lat="42.9711512" lon="12.0907372"><ele>294.6</ele><time>2026-04-09T14:39:10.992Z</time></trkpt><trkpt lat="42.9711418" lon="12.0908526"><ele>297.2</ele><time>2026-04-09T14:39:11.992Z</time></trkpt><trkpt lat="42.971052" lon="12.0909394"><ele>299.8</ele><time>2026-04-09T14:39:12.992Z</time></trkpt><trkpt lat="42.9709742" lon="12.0910124"><ele>302.4</ele><time>2026-04-09T14:39:13.992Z</time></trkpt><trkpt lat="42.9708874" lon="12.0910836"><ele>305.0</ele><time>2026-04-09T14:39:14.992Z</time></trkpt><trkpt lat="42.970811" lon="12.0911879"><ele>305.0</ele><time>2026-04-09T14:39:15.992Z</time></trkpt><trkpt lat="42.9707413" lon="12.0913425"><ele>305.0</ele><time>2026-04-09T14:39:16.991Z</time></trkpt><trkpt lat="42.9706754" lon="12.0915256"><ele>305.0</ele><time>2026-04-09T14:39:17.992Z</time></trkpt><trkpt lat="42.9705892" lon="12.0916945"><ele>305.0</ele><time>2026-04-09T14:39:18.992Z</time></trkpt><trkpt lat="42.970493" lon="12.0918323"><ele>307.75</ele><time>2026-04-09T14:39:19.992Z</time></trkpt><trkpt lat="42.9703829" lon="12.0919358"><ele>310.5</ele><time>2026-04-09T14:39:20.992Z</time></trkpt><trkpt lat="42.9702799" lon="12.0919761"><ele>313.25</ele><time>2026-04-09T14:39:21.992Z</time></trkpt><trkpt lat="42.9701641" lon="12.0920027"><ele>316.0</ele><time>2026-04-09T14:39:22.992Z</time></trkpt><trkpt lat="42.9700633" lon="12.0920152"><ele>314.66666666666663</ele><time>2026-04-09T14:39:23.992Z</time></trkpt><trkpt lat="42.96998" lon="12.0920445"><ele>313.3333333333333</ele><time>2026-04-09T14:39:24.992Z</time></trkpt><trkpt lat="42.9698964" lon="12.0920976"><ele>312.0</ele><time>2026-04-09T14:39:25.992Z</time></trkpt><trkpt lat="42.9699054" lon="12.0922074"><ele>310.6666666666667</ele><time>2026-04-09T14:39:26.992Z</time></trkpt><trkpt lat="42.9698893" lon="12.0923192"><ele>309.33333333333337</ele><time>2026-04-09T14:39:27.992Z</time></trkpt><trkpt lat="42.969866" lon="12.092419"><ele>308.0</ele><time>2026-04-09T14:39:28.992Z</time></trkpt><trkpt lat="42.9697784" lon="12.0924006"><ele>308.0</ele><time>2026-04-09T14:39:29.992Z</time></trkpt><trkpt lat="42.9697115" lon="12.0923818"><ele>308.0</ele><time>2026-04-09T14:39:30.991Z</time></trkpt><trkpt lat="42.96961" lon="12.0922033"><ele>308.0</ele><time>2026-04-09T14:39:32.992Z</time></trkpt><trkpt lat="42.9694603" lon="12.0921342"><ele>308.0</ele><time>2026-04-09T14:39:33.992Z</time></trkpt><trkpt lat="42.9693392" lon="12.0920715"><ele>308.0</ele><time>2026-04-09T14:39:34.992Z</time></trkpt><trkpt lat="42.9692088" lon="12.092028"><ele>308.0</ele><time>2026-04-09T14:39:35.992Z</time></trkpt><trkpt lat="42.9690701" lon="12.0921283"><ele>308.0</ele><time>2026-04-09T14:39:36.993Z</time></trkpt><trkpt lat="42.968945" lon="12.0921928"><ele>308.0</ele><time>2026-04-09T14:39:37.992Z</time></trkpt><trkpt lat="42.9688022" lon="12.0923141"><ele>311.0</ele><time>2026-04-09T14:39:38.992Z</time></trkpt><trkpt lat="42.9686934" lon="12.0924134"><ele>314.0</ele><time>2026-04-09T14:39:39.992Z</time></trkpt><trkpt lat="42.9685995" lon="12.0925754"><ele>317.0</ele><time>2026-04-09T14:39:40.992Z</time></trkpt><trkpt lat="42.9685303" lon="12.0927601"><ele>320.0</ele><time>2026-04-09T14:39:41.992Z</time></trkpt><trkpt lat="42.9684823" lon="12.0929706"><ele>323.5</ele><time>2026-04-09T14:39:42.992Z</time></trkpt><trkpt lat="42.9684282" lon="12.0931647"><ele>327.0</ele><time>2026-04-09T14:39:43.992Z</time></trkpt><trkpt lat="42.9683127" lon="12.0932359"><ele>330.5</ele><time>2026-04-09T14:39:44.992Z</time></trkpt><trkpt lat="42.9682079" lon="12.0933004"><ele>334.0</ele><time>2026-04-09T14:39:45.992Z</time></trkpt><trkpt lat="42.9681061" lon="12.0931885"><ele>335.5</ele><time>2026-04-09T14:39:46.992Z</time></trkpt><trkpt lat="42.9680186" lon="12.0930455"><ele>337.0</ele><time>2026-04-09T14:39:47.992Z</time></trkpt><trkpt lat="42.9679172" lon="12.0928971"><ele>338.5</ele><time>2026-04-09T14:39:48.992Z</time></trkpt><trkpt lat="42.9678129" lon="12.0927756"><ele>340.0</ele><time>2026-04-09T14:39:49.992Z</time></trkpt><trkpt lat="42.9676996" lon="12.0927265"><ele>340.0</ele><time>2026-04-09T14:39:50.992Z</time></trkpt><trkpt lat="42.967581" lon="12.0927071"><ele>340.0</ele><time>2026-04-09T14:39:51.992Z</time></trkpt><trkpt lat="42.96751" lon="12.0928628"><ele>340.0</ele><time>2026-04-09T14:39:52.992Z</time></trkpt><trkpt lat="42.9674248" lon="12.0929851"><ele>340.0</ele><time>2026-04-09T14:39:53.992Z</time></trkpt><trkpt lat="42.9673911" lon="12.093177"><ele>347.0</ele><time>2026-04-09T14:39:54.992Z</time></trkpt><trkpt lat="42.9673687" lon="12.0934183"><ele>354.0</ele><time>2026-04-09T14:39:55.992Z</time></trkpt><trkpt lat="42.967304" lon="12.0936031"><ele>361.0</ele><time>2026-04-09T14:39:56.992Z</time></trkpt><trkpt lat="42.9672131" lon="12.0937619"><ele>361.0</ele><time>2026-04-09T14:39:57.992Z</time></trkpt><trkpt lat="42.9671143" lon="12.0938978"><ele>361.0</ele><time>2026-04-09T14:39:58.992Z</time></trkpt><trkpt lat="42.9669879" lon="12.0939972"><ele>361.0</ele><time>2026-04-09T14:39:59.992Z</time></trkpt><trkpt lat="42.9668665" lon="12.0941068"><ele>361.0</ele><time>2026-04-09T14:40:00.992Z</time></trkpt><trkpt lat="42.9667462" lon="12.0942126"><ele>364.75</ele><time>2026-04-09T14:40:01.991Z</time></trkpt><trkpt lat="42.9666342" lon="12.0943212"><ele>368.5</ele><time>2026-04-09T14:40:02.992Z</time></trkpt><trkpt lat="42.9665232" lon="12.0944481"><ele>372.25</ele><time>2026-04-09T14:40:03.992Z</time></trkpt><trkpt lat="42.9664441" lon="12.0945897"><ele>376.0</ele><time>2026-04-09T14:40:04.992Z</time></trkpt><trkpt lat="42.9663691" lon="12.0947544"><ele>376.0</ele><time>2026-04-09T14:40:05.992Z</time></trkpt><trkpt lat="42.9662995" lon="12.0948958"><ele>376.0</ele><time>2026-04-09T14:40:06.992Z</time></trkpt><trkpt lat="42.9662427" lon="12.0950381"><ele>376.0</ele><time>2026-04-09T14:40:07.992Z</time></trkpt><trkpt lat="42.9661938" lon="12.0951625"><ele>376.0</ele><time>2026-04-09T14:40:08.992Z</time></trkpt><trkpt lat="42.9661301" lon="12.0952735"><ele>377.0</ele><time>2026-04-09T14:40:09.992Z</time></trkpt><trkpt lat="42.966063" lon="12.0953496"><ele>378.0</ele><time>2026-04-09T14:40:10.992Z</time></trkpt><trkpt lat="42.9659928" lon="12.0954006"><ele>379.0</ele><time>2026-04-09T14:40:11.992Z</time></trkpt><trkpt lat="42.9659238" lon="12.0954284"><ele>380.0</ele><time>2026-04-09T14:40:12.992Z</time></trkpt><trkpt lat="42.9658576" lon="12.0954518"><ele>381.0</ele><time>2026-04-09T14:40:13.992Z</time></trkpt><trkpt lat="42.9657921" lon="12.0954727"><ele>382.0</ele><time>2026-04-09T14:40:14.992Z</time></trkpt><trkpt lat="42.9656735" lon="12.0954913"><ele>385.0</ele><time>2026-04-09T14:40:16.992Z</time></trkpt><trkpt lat="42.9656106" lon="12.0955011"><ele>388.0</ele><time>2026-04-09T14:40:17.989Z</time></trkpt><trkpt lat="42.9654952" lon="12.0955464"><ele>391.0</ele><time>2026-04-09T14:40:19.992Z</time></trkpt><trkpt lat="42.965384" lon="12.0956115"><ele>394.0</ele><time>2026-04-09T14:40:21.991Z</time></trkpt><trkpt lat="42.9652648" lon="12.0956677"><ele>397.0</ele><time>2026-04-09T14:40:23.992Z</time></trkpt><trkpt lat="42.9651875" lon="12.0957106"><ele>397.00000000000006</ele><time>2026-04-09T14:40:24.992Z</time></trkpt><trkpt lat="42.9651165" lon="12.0957518"><ele>397.0</ele><time>2026-04-09T14:40:25.992Z</time></trkpt><trkpt lat="42.965041" lon="12.0957886"><ele>397.0</ele><time>2026-04-09T14:40:26.992Z</time></trkpt><trkpt lat="42.964969" lon="12.0958223"><ele>397.0</ele><time>2026-04-09T14:40:27.991Z</time></trkpt><trkpt lat="42.9648995" lon="12.0958611"><ele>397.00000000000006</ele><time>2026-04-09T14:40:28.992Z</time></trkpt><trkpt lat="42.9648305" lon="12.095902"><ele>397.0</ele><time>2026-04-09T14:40:29.992Z</time></trkpt><trkpt lat="42.964763" lon="12.0959463"><ele>398.1666666666667</ele><time>2026-04-09T14:40:30.992Z</time></trkpt><trkpt lat="42.9646981" lon="12.095987"><ele>399.33333333333337</ele><time>2026-04-09T14:40:31.99Z</time></trkpt><trkpt lat="42.9646387" lon="12.0960413"><ele>400.5</ele><time>2026-04-09T14:40:32.992Z</time></trkpt><trkpt lat="42.9645799" lon="12.0961017"><ele>401.66666666666663</ele><time>2026-04-09T14:40:33.992Z</time></trkpt><trkpt lat="42.9645228" lon="12.0961744"><ele>402.8333333333333</ele><time>2026-04-09T14:40:34.992Z</time></trkpt><trkpt lat="42.9644543" lon="12.0962711"><ele>404.0</ele><time>2026-04-09T14:40:35.992Z</time></trkpt><trkpt lat="42.9643705" lon="12.096383"><ele>404.0</ele><time>2026-04-09T14:40:36.992Z</time></trkpt><trkpt lat="42.9642921" lon="12.0965074"><ele>404.0</ele><time>2026-04-09T14:40:37.992Z</time></trkpt><trkpt lat="42.9641948" lon="12.0966472"><ele>404.0</ele><time>2026-04-09T14:40:38.992Z</time></trkpt><trkpt lat="42.9640918" lon="12.0967996"><ele>404.0</ele><time>2026-04-09T14:40:39.992Z</time></trkpt><trkpt lat="42.9639782" lon="12.0969652"><ele>405.0</ele><time>2026-04-09T14:40:40.992Z</time></trkpt><trkpt lat="42.9638562" lon="12.0971637"><ele>406.0</ele><time>2026-04-09T14:40:41.991Z</time></trkpt><trkpt lat="42.9637238" lon="12.097361"><ele>407.0</ele><time>2026-04-09T14:40:42.992Z</time></trkpt><trkpt lat="42.9635824" lon="12.0975767"><ele>407.0</ele><time>2026-04-09T14:40:43.992Z</time></trkpt><trkpt lat="42.9634403" lon="12.097795"><ele>407.0</ele><time>2026-04-09T14:40:44.992Z</time></trkpt><trkpt lat="42.9632947" lon="12.0980212"><ele>407.0</ele><time>2026-04-09T14:40:45.992Z</time></trkpt><trkpt lat="42.9631431" lon="12.0982522"><ele>411.0</ele><time>2026-04-09T14:40:46.992Z</time></trkpt><trkpt lat="42.9629913" lon="12.0984814"><ele>415.0</ele><time>2026-04-09T14:40:47.992Z</time></trkpt><trkpt lat="42.9628283" lon="12.098712"><ele>415.0</ele><time>2026-04-09T14:40:48.992Z</time></trkpt><trkpt lat="42.9626632" lon="12.0989463"><ele>415.0</ele><time>2026-04-09T14:40:49.992Z</time></trkpt><trkpt lat="42.9624903" lon="12.0991713"><ele>418.0</ele><time>2026-04-09T14:40:50.992Z</time></trkpt><trkpt lat="42.9623354" lon="12.0993904"><ele>421.0</ele><time>2026-04-09T14:40:51.992Z</time></trkpt><trkpt lat="42.9621758" lon="12.0996097"><ele>424.0</ele><time>2026-04-09T14:40:52.992Z</time></trkpt><trkpt lat="42.9620407" lon="12.0998612"><ele>425.5</ele><time>2026-04-09T14:40:53.992Z</time></trkpt><trkpt lat="42.9619301" lon="12.1001392"><ele>427.0</ele><time>2026-04-09T14:40:54.992Z</time></trkpt><trkpt lat="42.9618194" lon="12.1004309"><ele>427.0</ele><time>2026-04-09T14:40:55.992Z</time></trkpt><trkpt lat="42.9617188" lon="12.1007274"><ele>427.0</ele><time>2026-04-09T14:40:56.991Z</time></trkpt><trkpt lat="42.9616176" lon="12.1010342"><ele>432.5</ele><time>2026-04-09T14:40:57.991Z</time></trkpt><trkpt lat="42.9615164" lon="12.1013346"><ele>438.0</ele><time>2026-04-09T14:40:58.991Z</time></trkpt><trkpt lat="42.9614125" lon="12.1016182"><ele>440.33333333333337</ele><time>2026-04-09T14:40:59.992Z</time></trkpt><trkpt lat="42.9613183" lon="12.1018873"><ele>442.6666666666667</ele><time>2026-04-09T14:41:00.991Z</time></trkpt><trkpt lat="42.9612331" lon="12.102158"><ele>445.0</ele><time>2026-04-09T14:41:01.992Z</time></trkpt><trkpt lat="42.9612076" lon="12.102404"><ele>448.0</ele><time>2026-04-09T14:41:02.992Z</time></trkpt><trkpt lat="42.961181" lon="12.1026508"><ele>451.0</ele><time>2026-04-09T14:41:03.991Z</time></trkpt><trkpt lat="42.9611931" lon="12.1028958"><ele>454.0</ele><time>2026-04-09T14:41:04.99Z</time></trkpt><trkpt lat="42.9612353" lon="12.1031442"><ele>457.33333333333337</ele><time>2026-04-09T14:41:05.992Z</time></trkpt><trkpt lat="42.9613049" lon="12.1033924"><ele>460.66666666666663</ele><time>2026-04-09T14:41:06.992Z</time></trkpt><trkpt lat="42.9613678" lon="12.1036364"><ele>464.0</ele><time>2026-04-09T14:41:07.992Z</time></trkpt><trkpt lat="42.9614231" lon="12.1038406"><ele>464.0</ele><time>2026-04-09T14:41:08.992Z</time></trkpt><trkpt lat="42.9614418" lon="12.1040436"><ele>464.0</ele><time>2026-04-09T14:41:09.992Z</time></trkpt><trkpt lat="42.9614294" lon="12.1042687"><ele>464.0</ele><time>2026-04-09T14:41:10.992Z</time></trkpt><trkpt lat="42.9613998" lon="12.104496"><ele>467.3333333333333</ele><time>2026-04-09T14:41:11.992Z</time></trkpt><trkpt lat="42.9613565" lon="12.1047277"><ele>470.66666666666663</ele><time>2026-04-09T14:41:12.992Z</time></trkpt><trkpt lat="42.9613294" lon="12.104975"><ele>474.0</ele><time>2026-04-09T14:41:13.992Z</time></trkpt><trkpt lat="42.961295" lon="12.1052023"><ele>476.33333333333337</ele><time>2026-04-09T14:41:14.992Z</time></trkpt><trkpt lat="42.9612712" lon="12.1054201"><ele>478.6666666666667</ele><time>2026-04-09T14:41:15.992Z</time></trkpt><trkpt lat="42.9612522" lon="12.1056429"><ele>481.0</ele><time>2026-04-09T14:41:16.991Z</time></trkpt><trkpt lat="42.9612393" lon="12.1058505"><ele>484.6666666666667</ele><time>2026-04-09T14:41:17.992Z</time></trkpt><trkpt lat="42.9612241" lon="12.1060641"><ele>488.33333333333337</ele><time>2026-04-09T14:41:18.991Z</time></trkpt><trkpt lat="42.9612072" lon="12.1062863"><ele>492.0</ele><time>2026-04-09T14:41:19.992Z</time></trkpt><trkpt lat="42.9611857" lon="12.1064921"><ele>495.0</ele><time>2026-04-09T14:41:20.992Z</time></trkpt><trkpt lat="42.9611653" lon="12.1066949"><ele>498.0</ele><time>2026-04-09T14:41:21.992Z</time></trkpt><trkpt lat="42.9611497" lon="12.1068985"><ele>501.0</ele><time>2026-04-09T14:41:22.991Z</time></trkpt><trkpt lat="42.9611327" lon="12.1070995"><ele>504.0</ele><time>2026-04-09T14:41:23.992Z</time></trkpt><trkpt lat="42.961129" lon="12.1072967"><ele>506.25</ele><time>2026-04-09T14:41:24.992Z</time></trkpt><trkpt lat="42.9611363" lon="12.1074972"><ele>508.5</ele><time>2026-04-09T14:41:25.991Z</time></trkpt><trkpt lat="42.9611559" lon="12.1076965"><ele>510.75</ele><time>2026-04-09T14:41:26.992Z</time></trkpt><trkpt lat="42.9611886" lon="12.1078984"><ele>513.0</ele><time>2026-04-09T14:41:27.992Z</time></trkpt><trkpt lat="42.9612241" lon="12.1081063"><ele>511.66666666666663</ele><time>2026-04-09T14:41:28.992Z</time></trkpt><trkpt lat="42.9612608" lon="12.1083192"><ele>510.3333333333333</ele><time>2026-04-09T14:41:29.992Z</time></trkpt><trkpt lat="42.9612986" lon="12.1085353"><ele>509.0</ele><time>2026-04-09T14:41:30.992Z</time></trkpt><trkpt lat="42.9613287" lon="12.1087506"><ele>509.0</ele><time>2026-04-09T14:41:31.992Z</time></trkpt><trkpt lat="42.9613477" lon="12.1089708"><ele>509.0</ele><time>2026-04-09T14:41:32.992Z</time></trkpt><trkpt lat="42.9613471" lon="12.1091957"><ele>509.0</ele><time>2026-04-09T14:41:33.992Z</time></trkpt><trkpt lat="42.9613534" lon="12.1094087"><ele>509.0</ele><time>2026-04-09T14:41:34.992Z</time></trkpt><trkpt lat="42.9613514" lon="12.1096253"><ele>509.0</ele><time>2026-04-09T14:41:35.992Z</time></trkpt><trkpt lat="42.9613421" lon="12.1098514"><ele>509.0</ele><time>2026-04-09T14:41:36.992Z</time></trkpt><trkpt lat="42.9613107" lon="12.1100517"><ele>510.0</ele><time>2026-04-09T14:41:37.992Z</time></trkpt><trkpt lat="42.9612641" lon="12.1102186"><ele>511.0</ele><time>2026-04-09T14:41:38.992Z</time></trkpt><trkpt lat="42.9611847" lon="12.1103263"><ele>512.0</ele><time>2026-04-09T14:41:39.992Z</time></trkpt><trkpt lat="42.961086" lon="12.1103757"><ele>513.0</ele><time>2026-04-09T14:41:40.992Z</time></trkpt><trkpt lat="42.9609758" lon="12.1103805"><ele>520.3333333333334</ele><time>2026-04-09T14:41:41.992Z</time></trkpt><trkpt lat="42.9608195" lon="12.1102983"><ele>527.6666666666667</ele><time>2026-04-09T14:41:42.992Z</time></trkpt><trkpt lat="42.96066" lon="12.1102323"><ele>535.0</ele><time>2026-04-09T14:41:43.992Z</time></trkpt><trkpt lat="42.9604921" lon="12.1101702"><ele>535.0</ele><time>2026-04-09T14:41:44.992Z</time></trkpt><trkpt lat="42.9603098" lon="12.1101165"><ele>535.0</ele><time>2026-04-09T14:41:45.991Z</time></trkpt><trkpt lat="42.9601229" lon="12.1100735"><ele>535.0</ele><time>2026-04-09T14:41:46.992Z</time></trkpt><trkpt lat="42.9599379" lon="12.1100376"><ele>539.0</ele><time>2026-04-09T14:41:47.992Z</time></trkpt><trkpt lat="42.959766" lon="12.1100148"><ele>543.0</ele><time>2026-04-09T14:41:48.992Z</time></trkpt><trkpt lat="42.9596095" lon="12.1099952"><ele>547.0</ele><time>2026-04-09T14:41:49.992Z</time></trkpt><trkpt lat="42.9594607" lon="12.109991"><ele>547.0</ele><time>2026-04-09T14:41:50.991Z</time></trkpt><trkpt lat="42.9593121" lon="12.1099867"><ele>547.0</ele><time>2026-04-09T14:41:51.992Z</time></trkpt><trkpt lat="42.9591792" lon="12.1099949"><ele>547.0</ele><time>2026-04-09T14:41:52.992Z</time></trkpt><trkpt lat="42.9590384" lon="12.1099988"><ele>547.0</ele><time>2026-04-09T14:41:53.992Z</time></trkpt><trkpt lat="42.9588967" lon="12.1099858"><ele>551.0</ele><time>2026-04-09T14:41:54.992Z</time></trkpt><trkpt lat="42.958757" lon="12.1099791"><ele>555.0</ele><time>2026-04-09T14:41:55.992Z</time></trkpt><trkpt lat="42.9585972" lon="12.1099705"><ele>559.0</ele><time>2026-04-09T14:41:56.992Z</time></trkpt><trkpt lat="42.9584376" lon="12.1099661"><ele>560.75</ele><time>2026-04-09T14:41:57.992Z</time></trkpt><trkpt lat="42.9582861" lon="12.1099625"><ele>562.5</ele><time>2026-04-09T14:41:58.992Z</time></trkpt><trkpt lat="42.9581408" lon="12.1099614"><ele>564.25</ele><time>2026-04-09T14:41:59.992Z</time></trkpt><trkpt lat="42.958017" lon="12.10997"><ele>566.0</ele><time>2026-04-09T14:42:00.991Z</time></trkpt><trkpt lat="42.957909" lon="12.1100064"><ele>566.0</ele><time>2026-04-09T14:42:01.992Z</time></trkpt><trkpt lat="42.9578126" lon="12.1100515"><ele>566.0</ele><time>2026-04-09T14:42:02.992Z</time></trkpt><trkpt lat="42.9577737" lon="12.1101509"><ele>566.0</ele><time>2026-04-09T14:42:03.991Z</time></trkpt><trkpt lat="42.9577617" lon="12.1102519"><ele>566.0</ele><time>2026-04-09T14:42:04.992Z</time></trkpt><trkpt lat="42.9577697" lon="12.1103875"><ele>566.0</ele><time>2026-04-09T14:42:05.992Z</time></trkpt><trkpt lat="42.9577824" lon="12.1105364"><ele>566.0</ele><time>2026-04-09T14:42:06.992Z</time></trkpt><trkpt lat="42.9578116" lon="12.1107345"><ele>566.0</ele><time>2026-04-09T14:42:07.992Z</time></trkpt><trkpt lat="42.9578368" lon="12.1109345"><ele>566.0</ele><time>2026-04-09T14:42:08.992Z</time></trkpt><trkpt lat="42.9578588" lon="12.1111343"><ele>566.0</ele><time>2026-04-09T14:42:09.992Z</time></trkpt><trkpt lat="42.9578901" lon="12.1113494"><ele>563.25</ele><time>2026-04-09T14:42:10.993Z</time></trkpt><trkpt lat="42.9579182" lon="12.11156"><ele>560.5</ele><time>2026-04-09T14:42:11.991Z</time></trkpt><trkpt lat="42.9579393" lon="12.1117347"><ele>557.75</ele><time>2026-04-09T14:42:12.991Z</time></trkpt><trkpt lat="42.9579342" lon="12.1119244"><ele>555.0</ele><time>2026-04-09T14:42:13.991Z</time></trkpt><trkpt lat="42.9579253" lon="12.1121245"><ele>555.0</ele><time>2026-04-09T14:42:14.992Z</time></trkpt><trkpt lat="42.9579136" lon="12.112345"><ele>555.0</ele><time>2026-04-09T14:42:15.992Z</time></trkpt><trkpt lat="42.9579137" lon="12.1125665"><ele>555.0</ele><time>2026-04-09T14:42:16.992Z</time></trkpt><trkpt lat="42.9579211" lon="12.1127759"><ele>556.3333333333334</ele><time>2026-04-09T14:42:17.992Z</time></trkpt><trkpt lat="42.9579419" lon="12.113001"><ele>557.6666666666667</ele><time>2026-04-09T14:42:18.992Z</time></trkpt><trkpt lat="42.9580201" lon="12.1131947"><ele>559.0</ele><time>2026-04-09T14:42:19.992Z</time></trkpt><trkpt lat="42.958084" lon="12.1133805"><ele>559.75</ele><time>2026-04-09T14:42:20.992Z</time></trkpt><trkpt lat="42.9581463" lon="12.1135641"><ele>560.5</ele><time>2026-04-09T14:42:21.992Z</time></trkpt><trkpt lat="42.9581962" lon="12.1137506"><ele>561.25</ele><time>2026-04-09T14:42:22.992Z</time></trkpt><trkpt lat="42.9582071" lon="12.1139354"><ele>562.0</ele><time>2026-04-09T14:42:23.992Z</time></trkpt><trkpt lat="42.9582204" lon="12.1141266"><ele>563.75</ele><time>2026-04-09T14:42:24.992Z</time></trkpt><trkpt lat="42.9582053" lon="12.1143259"><ele>565.5</ele><time>2026-04-09T14:42:25.992Z</time></trkpt><trkpt lat="42.9581882" lon="12.1145261"><ele>567.25</ele><time>2026-04-09T14:42:26.99Z</time></trkpt><trkpt lat="42.958146" lon="12.1146847"><ele>569.0</ele><time>2026-04-09T14:42:27.993Z</time></trkpt><trkpt lat="42.9580269" lon="12.1147778"><ele>567.5</ele><time>2026-04-09T14:42:28.991Z</time></trkpt><trkpt lat="42.9579156" lon="12.1149089"><ele>566.0</ele><time>2026-04-09T14:42:29.992Z</time></trkpt><trkpt lat="42.9578014" lon="12.1150118"><ele>564.5</ele><time>2026-04-09T14:42:30.992Z</time></trkpt><trkpt lat="42.9576844" lon="12.1150989"><ele>563.0</ele><time>2026-04-09T14:42:31.992Z</time></trkpt><trkpt lat="42.957567" lon="12.1151855"><ele>567.1999999999999</ele><time>2026-04-09T14:42:32.992Z</time></trkpt><trkpt lat="42.9574641" lon="12.1152764"><ele>571.4</ele><time>2026-04-09T14:42:33.992Z</time></trkpt><trkpt lat="42.9573822" lon="12.1153563"><ele>575.5999999999999</ele><time>2026-04-09T14:42:34.992Z</time></trkpt><trkpt lat="42.9573138" lon="12.1154353"><ele>579.8</ele><time>2026-04-09T14:42:35.992Z</time></trkpt><trkpt lat="42.957268" lon="12.1155"><ele>584.0</ele><time>2026-04-09T14:42:36.991Z</time></trkpt><trkpt lat="42.9572093" lon="12.1156379"><ele>582.3333333333333</ele><time>2026-04-09T14:42:38.991Z</time></trkpt><trkpt lat="42.9571895" lon="12.1157421"><ele>580.6666666666666</ele><time>2026-04-09T14:42:40.992Z</time></trkpt><trkpt lat="42.9571818" lon="12.1158467"><ele>579.0</ele><time>2026-04-09T14:42:43.992Z</time></trkpt><trkpt lat="42.9571231" lon="12.1158863"><ele>577.3333333333334</ele><time>2026-04-09T14:42:45.992Z</time></trkpt><trkpt lat="42.9570283" lon="12.1158991"><ele>575.6666666666667</ele><time>2026-04-09T14:42:47.992Z</time></trkpt><trkpt lat="42.956897" lon="12.1158956"><ele>574.0</ele><time>2026-04-09T14:42:49.992Z</time></trkpt><trkpt lat="42.9568139" lon="12.1158905"><ele>574.0</ele><time>2026-04-09T14:42:50.992Z</time></trkpt><trkpt lat="42.9567299" lon="12.1158783"><ele>574.0</ele><time>2026-04-09T14:42:51.991Z</time></trkpt><trkpt lat="42.9566412" lon="12.1158685"><ele>574.0</ele><time>2026-04-09T14:42:52.992Z</time></trkpt><trkpt lat="42.9565491" lon="12.1158489"><ele>574.0</ele><time>2026-04-09T14:42:53.992Z</time></trkpt><trkpt lat="42.9564484" lon="12.1158169"><ele>574.0</ele><time>2026-04-09T14:42:54.991Z</time></trkpt><trkpt lat="42.9563442" lon="12.1157567"><ele>577.6666666666667</ele><time>2026-04-09T14:42:55.991Z</time></trkpt><trkpt lat="42.9562688" lon="12.1156908"><ele>581.3333333333334</ele><time>2026-04-09T14:42:56.991Z</time></trkpt><trkpt lat="42.9561942" lon="12.1156197"><ele>585.0</ele><time>2026-04-09T14:42:57.992Z</time></trkpt><trkpt lat="42.956132" lon="12.1155457"><ele>588.6666666666666</ele><time>2026-04-09T14:42:58.992Z</time></trkpt><trkpt lat="42.9560985" lon="12.1154567"><ele>592.3333333333333</ele><time>2026-04-09T14:42:59.992Z</time></trkpt><trkpt lat="42.9560851" lon="12.1153268"><ele>596.0</ele><time>2026-04-09T14:43:00.992Z</time></trkpt><trkpt lat="42.9560934" lon="12.1151966"><ele>596.0</ele><time>2026-04-09T14:43:01.992Z</time></trkpt><trkpt lat="42.9560455" lon="12.1150751"><ele>596.0</ele><time>2026-04-09T14:43:02.992Z</time></trkpt><trkpt lat="42.9560082" lon="12.1149941"><ele>596.0</ele><time>2026-04-09T14:43:03.992Z</time></trkpt><trkpt lat="42.9559481" lon="12.1149241"><ele>596.0</ele><time>2026-04-09T14:43:04.991Z</time></trkpt><trkpt lat="42.9558616" lon="12.1148594"><ele>596.0</ele><time>2026-04-09T14:43:05.992Z</time></trkpt><trkpt lat="42.9557841" lon="12.1147698"><ele>599.2</ele><time>2026-04-09T14:43:06.992Z</time></trkpt><trkpt lat="42.9557131" lon="12.1146622"><ele>602.4000000000001</ele><time>2026-04-09T14:43:07.992Z</time></trkpt><trkpt lat="42.95564" lon="12.1145604"><ele>605.6</ele><time>2026-04-09T14:43:08.991Z</time></trkpt><trkpt lat="42.9555911" lon="12.1144653"><ele>608.8000000000001</ele><time>2026-04-09T14:43:09.993Z</time></trkpt><trkpt lat="42.9555382" lon="12.1143872"><ele>612.0</ele><time>2026-04-09T14:43:10.992Z</time></trkpt><trkpt lat="42.9554579" lon="12.1142672"><ele>612.0</ele><time>2026-04-09T14:43:12.992Z</time></trkpt><trkpt lat="42.9554116" lon="12.1142052"><ele>612.0</ele><time>2026-04-09T14:43:13.992Z</time></trkpt><trkpt lat="42.9553103" lon="12.1141222"><ele>612.0</ele><time>2026-04-09T14:43:15.992Z</time></trkpt><trkpt lat="42.9552486" lon="12.1140977"><ele>612.0</ele><time>2026-04-09T14:43:16.991Z</time></trkpt><trkpt lat="42.9551518" lon="12.114058"><ele>612.0</ele><time>2026-04-09T14:43:17.992Z</time></trkpt><trkpt lat="42.9550333" lon="12.1139829"><ele>613.0</ele><time>2026-04-09T14:43:18.992Z</time></trkpt><trkpt lat="42.9549145" lon="12.1138993"><ele>614.0</ele><time>2026-04-09T14:43:19.991Z</time></trkpt><trkpt lat="42.9547787" lon="12.1138022"><ele>615.0</ele><time>2026-04-09T14:43:20.992Z</time></trkpt><trkpt lat="42.9546458" lon="12.1137157"><ele>616.0</ele><time>2026-04-09T14:43:21.991Z</time></trkpt><trkpt lat="42.9545105" lon="12.1136337"><ele>616.0</ele><time>2026-04-09T14:43:22.99Z</time></trkpt><trkpt lat="42.9543641" lon="12.1135579"><ele>616.0</ele><time>2026-04-09T14:43:23.991Z</time></trkpt><trkpt lat="42.9542297" lon="12.1134804"><ele>616.0</ele><time>2026-04-09T14:43:24.992Z</time></trkpt><trkpt lat="42.9540926" lon="12.1134152"><ele>616.0</ele><time>2026-04-09T14:43:25.992Z</time></trkpt><trkpt lat="42.9539603" lon="12.1133419"><ele>617.6</ele><time>2026-04-09T14:43:26.992Z</time></trkpt><trkpt lat="42.9538846" lon="12.1133029"><ele>619.2</ele><time>2026-04-09T14:43:27.991Z</time></trkpt><trkpt lat="42.9537771" lon="12.1132666"><ele>620.8</ele><time>2026-04-09T14:43:28.992Z</time></trkpt><trkpt lat="42.9536904" lon="12.1132605"><ele>622.4</ele><time>2026-04-09T14:43:29.992Z</time></trkpt><trkpt lat="42.953605" lon="12.1133764"><ele>624.0</ele><time>2026-04-09T14:43:31.991Z</time></trkpt><trkpt lat="42.9535683" lon="12.1134733"><ele>624.0</ele><time>2026-04-09T14:43:32.992Z</time></trkpt><trkpt lat="42.9535404" lon="12.1135621"><ele>624.0</ele><time>2026-04-09T14:43:33.992Z</time></trkpt><trkpt lat="42.9535384" lon="12.1136605"><ele>624.0</ele><time>2026-04-09T14:43:34.992Z</time></trkpt><trkpt lat="42.9535534" lon="12.1137544"><ele>624.0</ele><time>2026-04-09T14:43:35.991Z</time></trkpt><trkpt lat="42.9536196" lon="12.1138269"><ele>624.0</ele><time>2026-04-09T14:43:36.992Z</time></trkpt><trkpt lat="42.9537061" lon="12.113947"><ele>624.0</ele><time>2026-04-09T14:43:37.992Z</time></trkpt><trkpt lat="42.9537388" lon="12.114044"><ele>623.0</ele><time>2026-04-09T14:43:38.992Z</time></trkpt><trkpt lat="42.9537911" lon="12.1141209"><ele>622.0</ele><time>2026-04-09T14:43:39.992Z</time></trkpt><trkpt lat="42.9538126" lon="12.1142018"><ele>621.0</ele><time>2026-04-09T14:43:40.992Z</time></trkpt><trkpt lat="42.9537854" lon="12.114298"><ele>620.0</ele><time>2026-04-09T14:43:41.993Z</time></trkpt><trkpt lat="42.9536957" lon="12.1144259"><ele>619.0</ele><time>2026-04-09T14:43:42.992Z</time></trkpt><trkpt lat="42.9536041" lon="12.1145226"><ele>619.0</ele><time>2026-04-09T14:43:43.991Z</time></trkpt><trkpt lat="42.9535064" lon="12.1146152"><ele>619.0</ele><time>2026-04-09T14:43:44.991Z</time></trkpt><trkpt lat="42.9534218" lon="12.114689"><ele>619.0</ele><time>2026-04-09T14:43:45.992Z</time></trkpt><trkpt lat="42.9532969" lon="12.1147979"><ele>619.0</ele><time>2026-04-09T14:43:46.992Z</time></trkpt><trkpt lat="42.9532127" lon="12.1149008"><ele>622.8</ele><time>2026-04-09T14:43:47.992Z</time></trkpt><trkpt lat="42.953148" lon="12.1149724"><ele>626.5999999999999</ele><time>2026-04-09T14:43:48.993Z</time></trkpt><trkpt lat="42.9530765" lon="12.1150144"><ele>630.4</ele><time>2026-04-09T14:43:49.992Z</time></trkpt><trkpt lat="42.9530007" lon="12.1150398"><ele>634.1999999999999</ele><time>2026-04-09T14:43:50.991Z</time></trkpt><trkpt lat="42.9529227" lon="12.1150616"><ele>638.0</ele><time>2026-04-09T14:43:51.992Z</time></trkpt><trkpt lat="42.9529925" lon="12.1148271"><ele>638.6666666666666</ele><time>2026-04-09T14:43:52.993Z</time></trkpt><trkpt lat="42.9529805" lon="12.1146526"><ele>639.3333333333333</ele><time>2026-04-09T14:43:54.992Z</time></trkpt><trkpt lat="42.9529763" lon="12.1145504"><ele>640.0</ele><time>2026-04-09T14:43:55.992Z</time></trkpt><trkpt lat="42.9529818" lon="12.1144596"><ele>640.6666666666666</ele><time>2026-04-09T14:43:56.992Z</time></trkpt><trkpt lat="42.9529797" lon="12.1143552"><ele>641.3333333333334</ele><time>2026-04-09T14:43:57.992Z</time></trkpt><trkpt lat="42.9529733" lon="12.1142621"><ele>642.0</ele><time>2026-04-09T14:43:58.992Z</time></trkpt><trkpt lat="42.9529689" lon="12.1141457"><ele>641.5</ele><time>2026-04-09T14:43:59.993Z</time></trkpt><trkpt lat="42.9529417" lon="12.1139352"><ele>641.0</ele><time>2026-04-09T14:44:01.99Z</time></trkpt><trkpt lat="42.9529013" lon="12.1138277"><ele>640.5</ele><time>2026-04-09T14:44:02.991Z</time></trkpt><trkpt lat="42.9528492" lon="12.1137001"><ele>640.0</ele><time>2026-04-09T14:44:03.991Z</time></trkpt><trkpt lat="42.9527751" lon="12.1135943"><ele>640.0</ele><time>2026-04-09T14:44:04.991Z</time></trkpt><trkpt lat="42.9527071" lon="12.1134643"><ele>640.0</ele><time>2026-04-09T14:44:05.991Z</time></trkpt><trkpt lat="42.9526138" lon="12.1133517"><ele>640.0</ele><time>2026-04-09T14:44:06.991Z</time></trkpt><trkpt lat="42.95253" lon="12.1132391"><ele>640.0</ele><time>2026-04-09T14:44:07.991Z</time></trkpt><trkpt lat="42.9524786" lon="12.1131104"><ele>644.6</ele><time>2026-04-09T14:44:08.99Z</time></trkpt><trkpt lat="42.9524475" lon="12.112978"><ele>649.2</ele><time>2026-04-09T14:44:09.991Z</time></trkpt><trkpt lat="42.952418" lon="12.1128417"><ele>653.8</ele><time>2026-04-09T14:44:10.991Z</time></trkpt><trkpt lat="42.9524512" lon="12.1126972"><ele>658.4</ele><time>2026-04-09T14:44:11.991Z</time></trkpt><trkpt lat="42.9524748" lon="12.1125238"><ele>663.0</ele><time>2026-04-09T14:44:12.992Z</time></trkpt><trkpt lat="42.9525228" lon="12.1123697"><ele>661.0</ele><time>2026-04-09T14:44:13.992Z</time></trkpt><trkpt lat="42.9525659" lon="12.112209"><ele>659.0</ele><time>2026-04-09T14:44:14.992Z</time></trkpt><trkpt lat="42.952606" lon="12.1120474"><ele>657.0</ele><time>2026-04-09T14:44:15.993Z</time></trkpt><trkpt lat="42.952635" lon="12.1118997"><ele>655.0</ele><time>2026-04-09T14:44:16.992Z</time></trkpt><trkpt lat="42.9526329" lon="12.1117932"><ele>653.0</ele><time>2026-04-09T14:44:17.992Z</time></trkpt><trkpt lat="42.9526387" lon="12.1116728"><ele>653.0</ele><time>2026-04-09T14:44:18.992Z</time></trkpt><trkpt lat="42.9526156" lon="12.111575"><ele>653.0</ele><time>2026-04-09T14:44:19.992Z</time></trkpt><trkpt lat="42.9525613" lon="12.1115161"><ele>653.0</ele><time>2026-04-09T14:44:20.992Z</time></trkpt><trkpt lat="42.95249" lon="12.1115151"><ele>653.0</ele><time>2026-04-09T14:44:21.992Z</time></trkpt><trkpt lat="42.9524271" lon="12.1115679"><ele>653.0</ele><time>2026-04-09T14:44:22.992Z</time></trkpt><trkpt lat="42.9523708" lon="12.1116718"><ele>653.0</ele><time>2026-04-09T14:44:23.992Z</time></trkpt><trkpt lat="42.9523013" lon="12.1117658"><ele>655.2</ele><time>2026-04-09T14:44:24.991Z</time></trkpt><trkpt lat="42.9522299" lon="12.1118401"><ele>657.4</ele><time>2026-04-09T14:44:25.991Z</time></trkpt><trkpt lat="42.952109" lon="12.1118063"><ele>659.6</ele><time>2026-04-09T14:44:26.992Z</time></trkpt><trkpt lat="42.9520151" lon="12.1117503"><ele>661.8000000000001</ele><time>2026-04-09T14:44:27.992Z</time></trkpt><trkpt lat="42.951918" lon="12.1117105"><ele>664.0</ele><time>2026-04-09T14:44:28.992Z</time></trkpt><trkpt lat="42.9518409" lon="12.1117235"><ele>664.0</ele><time>2026-04-09T14:44:29.992Z</time></trkpt><trkpt lat="42.951777" lon="12.1117758"><ele>664.0</ele><time>2026-04-09T14:44:30.991Z</time></trkpt><trkpt lat="42.9517622" lon="12.1118864"><ele>664.0</ele><time>2026-04-09T14:44:31.992Z</time></trkpt><trkpt lat="42.951768" lon="12.1119991"><ele>664.0</ele><time>2026-04-09T14:44:32.991Z</time></trkpt><trkpt lat="42.9517686" lon="12.1121755"><ele>664.0</ele><time>2026-04-09T14:44:33.992Z</time></trkpt><trkpt lat="42.9517395" lon="12.112336"><ele>669.5</ele><time>2026-04-09T14:44:34.991Z</time></trkpt><trkpt lat="42.9516936" lon="12.112484"><ele>675.0</ele><time>2026-04-09T14:44:35.991Z</time></trkpt><trkpt lat="42.9516262" lon="12.1126401"><ele>680.5</ele><time>2026-04-09T14:44:36.991Z</time></trkpt><trkpt lat="42.9515492" lon="12.1127497"><ele>686.0</ele><time>2026-04-09T14:44:37.992Z</time></trkpt><trkpt lat="42.9514577" lon="12.1128272"><ele>686.0</ele><time>2026-04-09T14:44:38.992Z</time></trkpt><trkpt lat="42.9513579" lon="12.1128864"><ele>686.0</ele><time>2026-04-09T14:44:39.992Z</time></trkpt><trkpt lat="42.9512566" lon="12.112941"><ele>686.0</ele><time>2026-04-09T14:44:40.992Z</time></trkpt><trkpt lat="42.951152" lon="12.1129704"><ele>686.0</ele><time>2026-04-09T14:44:41.991Z</time></trkpt><trkpt lat="42.9510471" lon="12.1129862"><ele>686.0</ele><time>2026-04-09T14:44:42.992Z</time></trkpt><trkpt lat="42.9509354" lon="12.1129635"><ele>688.4</ele><time>2026-04-09T14:44:43.991Z</time></trkpt><trkpt lat="42.950833" lon="12.1129633"><ele>690.8</ele><time>2026-04-09T14:44:44.991Z</time></trkpt><trkpt lat="42.9507262" lon="12.112968"><ele>693.1999999999999</ele><time>2026-04-09T14:44:45.992Z</time></trkpt><trkpt lat="42.9506254" lon="12.1129857"><ele>695.5999999999999</ele><time>2026-04-09T14:44:46.992Z</time></trkpt><trkpt lat="42.9505218" lon="12.1130195"><ele>698.0</ele><time>2026-04-09T14:44:47.992Z</time></trkpt><trkpt lat="42.9504372" lon="12.1130541"><ele>698.0</ele><time>2026-04-09T14:44:48.992Z</time></trkpt><trkpt lat="42.9503442" lon="12.113085"><ele>698.0</ele><time>2026-04-09T14:44:49.992Z</time></trkpt><trkpt lat="42.9502588" lon="12.1131324"><ele>698.0</ele><time>2026-04-09T14:44:50.991Z</time></trkpt><trkpt lat="42.9501801" lon="12.1131949"><ele>698.0</ele><time>2026-04-09T14:44:51.992Z</time></trkpt><trkpt lat="42.9501059" lon="12.113258"><ele>698.0</ele><time>2026-04-09T14:44:52.992Z</time></trkpt><trkpt lat="42.9500445" lon="12.1133275"><ele>698.0</ele><time>2026-04-09T14:44:53.992Z</time></trkpt><trkpt lat="42.9499764" lon="12.1133938"><ele>699.8333333333333</ele><time>2026-04-09T14:44:54.991Z</time></trkpt><trkpt lat="42.9499125" lon="12.113466"><ele>701.6666666666666</ele><time>2026-04-09T14:44:55.992Z</time></trkpt><trkpt lat="42.9498459" lon="12.1135435"><ele>703.5</ele><time>2026-04-09T14:44:56.992Z</time></trkpt><trkpt lat="42.9497813" lon="12.1136205"><ele>705.3333333333334</ele><time>2026-04-09T14:44:57.991Z</time></trkpt><trkpt lat="42.9497214" lon="12.1136908"><ele>707.1666666666667</ele><time>2026-04-09T14:44:58.992Z</time></trkpt><trkpt lat="42.9496556" lon="12.1137542"><ele>709.0</ele><time>2026-04-09T14:44:59.992Z</time></trkpt><trkpt lat="42.9495825" lon="12.1138192"><ele>709.0</ele><time>2026-04-09T14:45:00.991Z</time></trkpt><trkpt lat="42.9495028" lon="12.113886"><ele>709.0</ele><time>2026-04-09T14:45:01.991Z</time></trkpt><trkpt lat="42.9494229" lon="12.1139589"><ele>709.0</ele><time>2026-04-09T14:45:02.991Z</time></trkpt><trkpt lat="42.9493315" lon="12.1140256"><ele>709.0</ele><time>2026-04-09T14:45:03.991Z</time></trkpt><trkpt lat="42.9492397" lon="12.1140737"><ele>709.0</ele><time>2026-04-09T14:45:04.992Z</time></trkpt><trkpt lat="42.9491463" lon="12.1141243"><ele>712.2</ele><time>2026-04-09T14:45:05.992Z</time></trkpt><trkpt lat="42.9490428" lon="12.1141893"><ele>715.4000000000001</ele><time>2026-04-09T14:45:06.991Z</time></trkpt><trkpt lat="42.9489661" lon="12.1142375"><ele>718.6</ele><time>2026-04-09T14:45:07.991Z</time></trkpt><trkpt lat="42.9488759" lon="12.1143007"><ele>721.8</ele><time>2026-04-09T14:45:08.991Z</time></trkpt><trkpt lat="42.9487806" lon="12.1142837"><ele>725.0</ele><time>2026-04-09T14:45:09.991Z</time></trkpt><trkpt lat="42.9486727" lon="12.1142262"><ele>725.0</ele><time>2026-04-09T14:45:10.991Z</time></trkpt><trkpt lat="42.9485955" lon="12.114129"><ele>725.0</ele><time>2026-04-09T14:45:11.992Z</time></trkpt><trkpt lat="42.9484961" lon="12.1140569"><ele>725.0</ele><time>2026-04-09T14:45:12.992Z</time></trkpt><trkpt lat="42.9483904" lon="12.1140429"><ele>725.0</ele><time>2026-04-09T14:45:13.992Z</time></trkpt><trkpt lat="42.9482601" lon="12.1140797"><ele>728.5</ele><time>2026-04-09T14:45:14.992Z</time></trkpt><trkpt lat="42.9481504" lon="12.114165"><ele>732.0</ele><time>2026-04-09T14:45:15.992Z</time></trkpt><trkpt lat="42.948033" lon="12.114288"><ele>735.5</ele><time>2026-04-09T14:45:16.992Z</time></trkpt><trkpt lat="42.9479164" lon="12.114438"><ele>739.0</ele><time>2026-04-09T14:45:17.99Z</time></trkpt><trkpt lat="42.9477996" lon="12.1146024"><ele>739.0</ele><time>2026-04-09T14:45:18.992Z</time></trkpt><trkpt lat="42.947678" lon="12.1147264"><ele>739.0</ele><time>2026-04-09T14:45:19.991Z</time></trkpt><trkpt lat="42.9475567" lon="12.1148204"><ele>739.0</ele><time>2026-04-09T14:45:20.992Z</time></trkpt><trkpt lat="42.9474406" lon="12.1148784"><ele>739.0</ele><time>2026-04-09T14:45:21.992Z</time></trkpt><trkpt lat="42.9473253" lon="12.1149187"><ele>743.75</ele><time>2026-04-09T14:45:22.991Z</time></trkpt><trkpt lat="42.9472041" lon="12.1149373"><ele>748.5</ele><time>2026-04-09T14:45:23.991Z</time></trkpt><trkpt lat="42.9470748" lon="12.1149347"><ele>753.25</ele><time>2026-04-09T14:45:24.991Z</time></trkpt><trkpt lat="42.9469208" lon="12.1149498"><ele>758.0</ele><time>2026-04-09T14:45:25.992Z</time></trkpt><trkpt lat="42.9468385" lon="12.1150218"><ele>758.0</ele><time>2026-04-09T14:45:26.991Z</time></trkpt><trkpt lat="42.9467508" lon="12.1150859"><ele>758.0</ele><time>2026-04-09T14:45:27.992Z</time></trkpt><trkpt lat="42.9467433" lon="12.115235"><ele>758.0</ele><time>2026-04-09T14:45:28.993Z</time></trkpt><trkpt lat="42.9467223" lon="12.1153904"><ele>758.0</ele><time>2026-04-09T14:45:29.991Z</time></trkpt><trkpt lat="42.9466884" lon="12.1155158"><ele>758.0</ele><time>2026-04-09T14:45:30.992Z</time></trkpt><trkpt lat="42.9466483" lon="12.1156392"><ele>760.4</ele><time>2026-04-09T14:45:31.992Z</time></trkpt><trkpt lat="42.9465955" lon="12.1157564"><ele>762.8</ele><time>2026-04-09T14:45:32.992Z</time></trkpt><trkpt lat="42.9465201" lon="12.1158234"><ele>765.2</ele><time>2026-04-09T14:45:33.992Z</time></trkpt><trkpt lat="42.9464195" lon="12.1156942"><ele>767.6</ele><time>2026-04-09T14:45:34.992Z</time></trkpt><trkpt lat="42.9463433" lon="12.1156977"><ele>770.0</ele><time>2026-04-09T14:45:35.991Z</time></trkpt><trkpt lat="42.9462995" lon="12.1158442"><ele>770.8</ele><time>2026-04-09T14:45:37.992Z</time></trkpt><trkpt lat="42.9463001" lon="12.1159748"><ele>771.6</ele><time>2026-04-09T14:45:38.99Z</time></trkpt><trkpt lat="42.9462956" lon="12.1161098"><ele>772.4000000000001</ele><time>2026-04-09T14:45:39.991Z</time></trkpt><trkpt lat="42.9462628" lon="12.116225"><ele>773.2</ele><time>2026-04-09T14:45:40.992Z</time></trkpt><trkpt lat="42.9462021" lon="12.1162945"><ele>774.0</ele><time>2026-04-09T14:45:41.992Z</time></trkpt><trkpt lat="42.9461234" lon="12.1163486"><ele>774.0</ele><time>2026-04-09T14:45:42.991Z</time></trkpt><trkpt lat="42.9460457" lon="12.1162992"><ele>774.0</ele><time>2026-04-09T14:45:43.991Z</time></trkpt><trkpt lat="42.9459627" lon="12.1162429"><ele>774.0</ele><time>2026-04-09T14:45:44.991Z</time></trkpt><trkpt lat="42.9458722" lon="12.1162214"><ele>774.0</ele><time>2026-04-09T14:45:45.991Z</time></trkpt><trkpt lat="42.9458029" lon="12.1162487"><ele>774.0</ele><time>2026-04-09T14:45:46.992Z</time></trkpt><trkpt lat="42.9457754" lon="12.1163902"><ele>774.0</ele><time>2026-04-09T14:45:48.992Z</time></trkpt><trkpt lat="42.9457935" lon="12.1164756"><ele>776.4285714285714</ele><time>2026-04-09T14:45:49.992Z</time></trkpt><trkpt lat="42.9457874" lon="12.1165723"><ele>778.8571428571429</ele><time>2026-04-09T14:45:50.991Z</time></trkpt><trkpt lat="42.9457512" lon="12.1166447"><ele>781.2857142857142</ele><time>2026-04-09T14:45:51.991Z</time></trkpt><trkpt lat="42.9457019" lon="12.1167005"><ele>783.7142857142858</ele><time>2026-04-09T14:45:52.992Z</time></trkpt><trkpt lat="42.9456431" lon="12.11663"><ele>786.1428571428571</ele><time>2026-04-09T14:45:53.992Z</time></trkpt><trkpt lat="42.9455885" lon="12.1165796"><ele>788.5714285714286</ele><time>2026-04-09T14:45:54.992Z</time></trkpt><trkpt lat="42.9455245" lon="12.116543"><ele>791.0</ele><time>2026-04-09T14:45:55.992Z</time></trkpt><trkpt lat="42.945457" lon="12.1165098"><ele>791.0000000000001</ele><time>2026-04-09T14:45:56.991Z</time></trkpt><trkpt lat="42.9453507" lon="12.1164906"><ele>791.0</ele><time>2026-04-09T14:45:58.992Z</time></trkpt><trkpt lat="42.9452735" lon="12.1164961"><ele>791.0</ele><time>2026-04-09T14:46:00.992Z</time></trkpt><trkpt lat="42.9452014" lon="12.1164779"><ele>791.0</ele><time>2026-04-09T14:46:03.991Z</time></trkpt><trkpt lat="42.9451388" lon="12.1164154"><ele>791.0000000000001</ele><time>2026-04-09T14:46:05.992Z</time></trkpt><trkpt lat="42.9450969" lon="12.1163016"><ele>791.0</ele><time>2026-04-09T14:46:07.992Z</time></trkpt><trkpt lat="42.9450603" lon="12.1161425"><ele>794.0</ele><time>2026-04-09T14:46:09.992Z</time></trkpt><trkpt lat="42.9449943" lon="12.1159545"><ele>797.0</ele><time>2026-04-09T14:46:11.99Z</time></trkpt><trkpt lat="42.9449212" lon="12.1158377"><ele>800.0</ele><time>2026-04-09T14:46:12.992Z</time></trkpt><trkpt lat="42.9448387" lon="12.1157204"><ele>803.0</ele><time>2026-04-09T14:46:13.991Z</time></trkpt><trkpt lat="42.9447371" lon="12.1156139"><ele>803.0</ele><time>2026-04-09T14:46:14.991Z</time></trkpt><trkpt lat="42.9446523" lon="12.1156154"><ele>803.0</ele><time>2026-04-09T14:46:15.991Z</time></trkpt><trkpt lat="42.944583" lon="12.1156238"><ele>803.0</ele><time>2026-04-09T14:46:16.992Z</time></trkpt><trkpt lat="42.9445018" lon="12.115612"><ele>803.0</ele><time>2026-04-09T14:46:17.991Z</time></trkpt><trkpt lat="42.9444355" lon="12.1156407"><ele>803.0</ele><time>2026-04-09T14:46:18.992Z</time></trkpt><trkpt lat="42.9443367" lon="12.1158257"><ele>805.4</ele><time>2026-04-09T14:46:20.993Z</time></trkpt><trkpt lat="42.9443135" lon="12.1159065"><ele>807.8</ele><time>2026-04-09T14:46:21.992Z</time></trkpt><trkpt lat="42.9443139" lon="12.1160654"><ele>810.2</ele><time>2026-04-09T14:46:22.993Z</time></trkpt><trkpt lat="42.9443199" lon="12.1161958"><ele>812.6</ele><time>2026-04-09T14:46:23.992Z</time></trkpt><trkpt lat="42.9443055" lon="12.1163776"><ele>815.0</ele><time>2026-04-09T14:46:24.992Z</time></trkpt><trkpt lat="42.9443246" lon="12.1165584"><ele>816.8</ele><time>2026-04-09T14:46:25.992Z</time></trkpt><trkpt lat="42.9442936" lon="12.1166886"><ele>818.6</ele><time>2026-04-09T14:46:27.99Z</time></trkpt><trkpt lat="42.9441997" lon="12.1167237"><ele>820.4000000000001</ele><time>2026-04-09T14:46:29.992Z</time></trkpt><trkpt lat="42.9440948" lon="12.1166952"><ele>822.2</ele><time>2026-04-09T14:46:31.992Z</time></trkpt><trkpt lat="42.9439812" lon="12.1166651"><ele>824.0</ele><time>2026-04-09T14:46:32.991Z</time></trkpt><trkpt lat="42.9439077" lon="12.1166608"><ele>827.0</ele><time>2026-04-09T14:46:33.992Z</time></trkpt><trkpt lat="42.943834" lon="12.116655"><ele>830.0</ele><time>2026-04-09T14:46:34.99Z</time></trkpt><trkpt lat="42.9436613" lon="12.1167224"><ele>833.0</ele><time>2026-04-09T14:46:35.993Z</time></trkpt><trkpt lat="42.9435681" lon="12.1167414"><ele>836.0</ele><time>2026-04-09T14:46:36.992Z</time></trkpt><trkpt lat="42.943431" lon="12.1168144"><ele>836.1666666666667</ele><time>2026-04-09T14:46:37.993Z</time></trkpt><trkpt lat="42.9433497" lon="12.1168424"><ele>836.3333333333334</ele><time>2026-04-09T14:46:38.992Z</time></trkpt><trkpt lat="42.9432809" lon="12.1168835"><ele>836.5</ele><time>2026-04-09T14:46:39.992Z</time></trkpt><trkpt lat="42.9431993" lon="12.1169179"><ele>836.6666666666667</ele><time>2026-04-09T14:46:40.992Z</time></trkpt><trkpt lat="42.9430887" lon="12.1170027"><ele>836.8333333333334</ele><time>2026-04-09T14:46:41.992Z</time></trkpt><trkpt lat="42.9430288" lon="12.1170328"><ele>837.0</ele><time>2026-04-09T14:46:42.991Z</time></trkpt><trkpt lat="42.9429635" lon="12.1170851"><ele>837.0</ele><time>2026-04-09T14:46:43.991Z</time></trkpt><trkpt lat="42.9429061" lon="12.1172156"><ele>837.0</ele><time>2026-04-09T14:46:45.99Z</time></trkpt><trkpt lat="42.9428681" lon="12.1173623"><ele>837.0</ele><time>2026-04-09T14:46:47.992Z</time></trkpt><trkpt lat="42.9428442" lon="12.1174473"><ele>837.0</ele><time>2026-04-09T14:46:48.992Z</time></trkpt><trkpt lat="42.9428228" lon="12.117539"><ele>837.0</ele><time>2026-04-09T14:46:49.991Z</time></trkpt><trkpt lat="42.9427588" lon="12.1176849"><ele>838.8333333333334</ele><time>2026-04-09T14:46:51.991Z</time></trkpt><trkpt lat="42.9427163" lon="12.1178135"><ele>840.6666666666667</ele><time>2026-04-09T14:46:53.992Z</time></trkpt><trkpt lat="42.9427354" lon="12.1178964"><ele>842.5</ele><time>2026-04-09T14:46:55.991Z</time></trkpt><trkpt lat="42.9427907" lon="12.117946"><ele>844.3333333333334</ele><time>2026-04-09T14:46:57.991Z</time></trkpt><trkpt lat="42.9428687" lon="12.1179439"><ele>846.1666666666667</ele><time>2026-04-09T14:46:59.991Z</time></trkpt><trkpt lat="42.9429559" lon="12.1179229"><ele>848.0</ele><time>2026-04-09T14:47:01.992Z</time></trkpt><trkpt lat="42.9430411" lon="12.1178932"><ele>848.0</ele><time>2026-04-09T14:47:03.991Z</time></trkpt><trkpt lat="42.9431501" lon="12.1178848"><ele>848.0</ele><time>2026-04-09T14:47:05.992Z</time></trkpt><trkpt lat="42.9432603" lon="12.1178591"><ele>848.0</ele><time>2026-04-09T14:47:07.992Z</time></trkpt><trkpt lat="42.9433868" lon="12.1178497"><ele>848.0</ele><time>2026-04-09T14:47:09.991Z</time></trkpt><trkpt lat="42.9435065" lon="12.1178451"><ele>847.8</ele><time>2026-04-09T14:47:11.992Z</time></trkpt><trkpt lat="42.94361" lon="12.1178361"><ele>847.5999999999999</ele><time>2026-04-09T14:47:13.992Z</time></trkpt><trkpt lat="42.9437178" lon="12.1178474"><ele>847.4000000000001</ele><time>2026-04-09T14:47:15.991Z</time></trkpt><trkpt lat="42.943805" lon="12.1178805"><ele>847.2</ele><time>2026-04-09T14:47:17.992Z</time></trkpt><trkpt lat="42.9439145" lon="12.1179379"><ele>847.0</ele><time>2026-04-09T14:47:19.992Z</time></trkpt><trkpt lat="42.9440233" lon="12.1180036"><ele>847.0</ele><time>2026-04-09T14:47:21.99Z</time></trkpt><trkpt lat="42.9440775" lon="12.1180529"><ele>847.0</ele><time>2026-04-09T14:47:22.991Z</time></trkpt><trkpt lat="42.9441737" lon="12.1181089"><ele>847.0</ele><time>2026-04-09T14:47:24.992Z</time></trkpt><trkpt lat="42.9442564" lon="12.1181897"><ele>847.0</ele><time>2026-04-09T14:47:26.993Z</time></trkpt><trkpt lat="42.9443478" lon="12.1182777"><ele>847.0</ele><time>2026-04-09T14:47:28.992Z</time></trkpt><trkpt lat="42.9444306" lon="12.1183442"><ele>846.7142857142857</ele><time>2026-04-09T14:47:30.992Z</time></trkpt><trkpt lat="42.944482" lon="12.118414"><ele>846.4285714285714</ele><time>2026-04-09T14:47:32.991Z</time></trkpt><trkpt lat="42.9445474" lon="12.1184907"><ele>846.1428571428571</ele><time>2026-04-09T14:47:35.991Z</time></trkpt><trkpt lat="42.9445083" lon="12.1184001"><ele>845.8571428571429</ele><time>2026-04-09T14:49:54.991Z</time></trkpt><trkpt lat="42.9444793" lon="12.1184892"><ele>845.5714285714286</ele><time>2026-04-09T14:51:44.991Z</time></trkpt><trkpt lat="42.944525" lon="12.1185502"><ele>845.2857142857142</ele><time>2026-04-09T14:51:59.992Z</time></trkpt><trkpt lat="42.9445806" lon="12.1186029"><ele>845.0</ele><time>2026-04-09T14:52:06.99Z</time></trkpt><trkpt lat="42.9446175" lon="12.118676"><ele>844.9999999999999</ele><time>2026-04-09T14:52:14.992Z</time></trkpt><trkpt lat="42.944659" lon="12.1187488"><ele>845.0</ele><time>2026-04-09T14:52:22.992Z</time></trkpt><trkpt lat="42.9447086" lon="12.1188121"><ele>845.0</ele><time>2026-04-09T14:52:27.992Z</time></trkpt><trkpt lat="42.9447594" lon="12.1188756"><ele>845.0</ele><time>2026-04-09T14:52:32.991Z</time></trkpt><trkpt lat="42.944809" lon="12.1189375"><ele>845.0</ele><time>2026-04-09T14:52:37.962Z</time></trkpt><trkpt lat="42.9448615" lon="12.1189924"><ele>844.9999999999999</ele><time>2026-04-09T14:52:42.968Z</time></trkpt><trkpt lat="42.9449077" lon="12.1190579"><ele>845.0</ele><time>2026-04-09T14:52:47.991Z</time></trkpt><trkpt lat="42.9449444" lon="12.1191315"><ele>845.2857142857142</ele><time>2026-04-09T14:52:53.991Z</time></trkpt><trkpt lat="42.9449925" lon="12.1191995"><ele>845.5714285714286</ele><time>2026-04-09T14:52:59.991Z</time></trkpt><trkpt lat="42.9450504" lon="12.1192341"><ele>845.8571428571429</ele><time>2026-04-09T14:53:06.991Z</time></trkpt><trkpt lat="42.9450986" lon="12.1192992"><ele>846.1428571428571</ele><time>2026-04-09T14:53:15.991Z</time></trkpt><trkpt lat="42.945118" lon="12.1193862"><ele>846.4285714285714</ele><time>2026-04-09T14:53:23.99Z</time></trkpt><trkpt lat="42.9451024" lon="12.1192947"><ele>846.7142857142857</ele><time>2026-04-09T14:53:46.991Z</time></trkpt><trkpt lat="42.9450795" lon="12.1193814"><ele>847.0</ele><time>2026-04-09T15:45:52.991Z</time></trkpt><trkpt lat="42.9450784" lon="12.1192816"><ele>847.0</ele><time>2026-04-09T15:49:10.011Z</time></trkpt><trkpt lat="42.945017" lon="12.1192367"><ele>847.0</ele><time>2026-04-09T15:49:17.943Z</time></trkpt><trkpt lat="42.9449596" lon="12.1191808"><ele>847.0</ele><time>2026-04-09T15:49:26.014Z</time></trkpt><trkpt lat="42.9449132" lon="12.1191203"><ele>847.0</ele><time>2026-04-09T15:49:33.011Z</time></trkpt><trkpt lat="42.9448842" lon="12.1190389"><ele>847.0</ele><time>2026-04-09T15:49:40.011Z</time></trkpt><trkpt lat="42.9448369" lon="12.1189683"><ele>847.0</ele><time>2026-04-09T15:49:47.991Z</time></trkpt><trkpt lat="42.9447904" lon="12.1189101"><ele>847.0</ele><time>2026-04-09T15:49:53.998Z</time></trkpt><trkpt lat="42.9447625" lon="12.1188263"><ele>846.7142857142857</ele><time>2026-04-09T15:50:01.995Z</time></trkpt><trkpt lat="42.9447005" lon="12.118782"><ele>846.4285714285714</ele><time>2026-04-09T15:50:30.991Z</time></trkpt><trkpt lat="42.9446362" lon="12.1187436"><ele>846.1428571428571</ele><time>2026-04-09T15:50:36.919Z</time></trkpt><trkpt lat="42.9445918" lon="12.1186748"><ele>845.8571428571429</ele><time>2026-04-09T15:50:41.99Z</time></trkpt><trkpt lat="42.944537" lon="12.1186247"><ele>845.5714285714286</ele><time>2026-04-09T15:50:46.991Z</time></trkpt><trkpt lat="42.9444889" lon="12.118565"><ele>845.2857142857142</ele><time>2026-04-09T15:50:51.915Z</time></trkpt><trkpt lat="42.9444508" lon="12.1184805"><ele>845.0</ele><time>2026-04-09T15:50:58.017Z</time></trkpt><trkpt lat="42.9444406" lon="12.1183904"><ele>845.0000000000001</ele><time>2026-04-09T15:51:06.991Z</time></trkpt><trkpt lat="42.9443683" lon="12.1183824"><ele>845.0</ele><time>2026-04-09T15:55:11.991Z</time></trkpt><trkpt lat="42.9443147" lon="12.1183356"><ele>845.0</ele><time>2026-04-09T15:55:13.991Z</time></trkpt><trkpt lat="42.9442281" lon="12.1182477"><ele>845.0</ele><time>2026-04-09T15:55:15.99Z</time></trkpt><trkpt lat="42.9441416" lon="12.1181571"><ele>845.0000000000001</ele><time>2026-04-09T15:55:17.991Z</time></trkpt><trkpt lat="42.9440902" lon="12.1180847"><ele>845.0</ele><time>2026-04-09T15:55:18.991Z</time></trkpt><trkpt lat="42.9439886" lon="12.1180322"><ele>845.4</ele><time>2026-04-09T15:55:20.991Z</time></trkpt><trkpt lat="42.9438821" lon="12.1179579"><ele>845.8</ele><time>2026-04-09T15:55:22.991Z</time></trkpt><trkpt lat="42.9437731" lon="12.1179067"><ele>846.2</ele><time>2026-04-09T15:55:24.991Z</time></trkpt><trkpt lat="42.9437057" lon="12.1178908"><ele>846.6</ele><time>2026-04-09T15:55:25.991Z</time></trkpt><trkpt lat="42.943582" lon="12.1178682"><ele>847.0</ele><time>2026-04-09T15:55:27.991Z</time></trkpt><trkpt lat="42.9434739" lon="12.1178358"><ele>847.2</ele><time>2026-04-09T15:55:29.991Z</time></trkpt><trkpt lat="42.943372" lon="12.1178461"><ele>847.4000000000001</ele><time>2026-04-09T15:55:31.991Z</time></trkpt><trkpt lat="42.9432807" lon="12.1178608"><ele>847.5999999999999</ele><time>2026-04-09T15:55:33.991Z</time></trkpt><trkpt lat="42.9431648" lon="12.1178854"><ele>847.8</ele><time>2026-04-09T15:55:35.991Z</time></trkpt><trkpt lat="42.9430481" lon="12.1179065"><ele>848.0</ele><time>2026-04-09T15:55:37.991Z</time></trkpt><trkpt lat="42.942948" lon="12.1179259"><ele>848.0000000000001</ele><time>2026-04-09T15:55:39.99Z</time></trkpt><trkpt lat="42.9428617" lon="12.1179375"><ele>848.0</ele><time>2026-04-09T15:55:41.99Z</time></trkpt><trkpt lat="42.9427861" lon="12.1179458"><ele>848.0</ele><time>2026-04-09T15:55:43.991Z</time></trkpt><trkpt lat="42.9427322" lon="12.1178666"><ele>848.0</ele><time>2026-04-09T15:55:46.991Z</time></trkpt><trkpt lat="42.9427592" lon="12.1177696"><ele>848.0000000000001</ele><time>2026-04-09T15:55:48.991Z</time></trkpt><trkpt lat="42.9428093" lon="12.1176737"><ele>848.0</ele><time>2026-04-09T15:55:50.991Z</time></trkpt><trkpt lat="42.942845" lon="12.1175559"><ele>848.0</ele><time>2026-04-09T15:55:52.991Z</time></trkpt><trkpt lat="42.9428702" lon="12.1174207"><ele>848.0</ele><time>2026-04-09T15:55:54.991Z</time></trkpt><trkpt lat="42.9429078" lon="12.1172804"><ele>848.0</ele><time>2026-04-09T15:55:56.991Z</time></trkpt><trkpt lat="42.9429641" lon="12.1171597"><ele>848.0</ele><time>2026-04-09T15:55:58.991Z</time></trkpt><trkpt lat="42.9430465" lon="12.1170694"><ele>848.0</ele><time>2026-04-09T15:56:00.991Z</time></trkpt><trkpt lat="42.943153" lon="12.117001"><ele>846.1666666666667</ele><time>2026-04-09T15:56:02.991Z</time></trkpt><trkpt lat="42.9432691" lon="12.1169349"><ele>844.3333333333334</ele><time>2026-04-09T15:56:04.991Z</time></trkpt><trkpt lat="42.943333" lon="12.1169073"><ele>842.5</ele><time>2026-04-09T15:56:05.991Z</time></trkpt><trkpt lat="42.9433962" lon="12.1168789"><ele>840.6666666666667</ele><time>2026-04-09T15:56:06.991Z</time></trkpt><trkpt lat="42.9434769" lon="12.1168345"><ele>838.8333333333334</ele><time>2026-04-09T15:56:07.991Z</time></trkpt><trkpt lat="42.9435518" lon="12.1167887"><ele>837.0</ele><time>2026-04-09T15:56:08.991Z</time></trkpt><trkpt lat="42.9436287" lon="12.1167487"><ele>836.8</ele><time>2026-04-09T15:56:09.991Z</time></trkpt><trkpt lat="42.9437013" lon="12.116716"><ele>836.6</ele><time>2026-04-09T15:56:10.991Z</time></trkpt><trkpt lat="42.9437805" lon="12.1167026"><ele>836.4</ele><time>2026-04-09T15:56:11.991Z</time></trkpt><trkpt lat="42.943898" lon="12.1166789"><ele>836.1999999999999</ele><time>2026-04-09T15:56:12.991Z</time></trkpt><trkpt lat="42.9439886" lon="12.1166591"><ele>836.0</ele><time>2026-04-09T15:56:13.991Z</time></trkpt><trkpt lat="42.9441097" lon="12.1166843"><ele>836.0000000000001</ele><time>2026-04-09T15:56:14.992Z</time></trkpt><trkpt lat="42.9441677" lon="12.1167185"><ele>836.0</ele><time>2026-04-09T15:56:15.992Z</time></trkpt><trkpt lat="42.9442297" lon="12.1167014"><ele>836.0</ele><time>2026-04-09T15:56:16.992Z</time></trkpt><trkpt lat="42.9443147" lon="12.1167021"><ele>836.0</ele><time>2026-04-09T15:56:18.992Z</time></trkpt><trkpt lat="42.9443569" lon="12.1165967"><ele>836.0000000000001</ele><time>2026-04-09T15:56:20.991Z</time></trkpt><trkpt lat="42.9443369" lon="12.1164995"><ele>836.0</ele><time>2026-04-09T15:56:21.99Z</time></trkpt><trkpt lat="42.944343" lon="12.1163865"><ele>832.5000000000001</ele><time>2026-04-09T15:56:22.992Z</time></trkpt><trkpt lat="42.9443353" lon="12.1162914"><ele>829.0</ele><time>2026-04-09T15:56:23.992Z</time></trkpt><trkpt lat="42.9443258" lon="12.1161797"><ele>825.5</ele><time>2026-04-09T15:56:24.992Z</time></trkpt><trkpt lat="42.944308" lon="12.116056"><ele>822.0</ele><time>2026-04-09T15:56:25.992Z</time></trkpt><trkpt lat="42.9442934" lon="12.1159417"><ele>818.5000000000001</ele><time>2026-04-09T15:56:26.992Z</time></trkpt><trkpt lat="42.9442905" lon="12.1158356"><ele>815.0</ele><time>2026-04-09T15:56:27.992Z</time></trkpt><trkpt lat="42.9443296" lon="12.1156673"><ele>813.0000000000001</ele><time>2026-04-09T15:56:29.992Z</time></trkpt><trkpt lat="42.9443901" lon="12.1156112"><ele>811.0</ele><time>2026-04-09T15:56:30.992Z</time></trkpt><trkpt lat="42.9444451" lon="12.1155684"><ele>809.0</ele><time>2026-04-09T15:56:31.992Z</time></trkpt><trkpt lat="42.9445331" lon="12.1155533"><ele>807.0</ele><time>2026-04-09T15:56:32.992Z</time></trkpt><trkpt lat="42.9446236" lon="12.1155499"><ele>805.0000000000001</ele><time>2026-04-09T15:56:33.992Z</time></trkpt><trkpt lat="42.944718" lon="12.1156173"><ele>803.0</ele><time>2026-04-09T15:56:34.992Z</time></trkpt><trkpt lat="42.9447862" lon="12.1156909"><ele>805.4</ele><time>2026-04-09T15:56:35.991Z</time></trkpt><trkpt lat="42.9448583" lon="12.1157651"><ele>807.8</ele><time>2026-04-09T15:56:36.992Z</time></trkpt><trkpt lat="42.944928" lon="12.1158557"><ele>810.2</ele><time>2026-04-09T15:56:37.991Z</time></trkpt><trkpt lat="42.9449874" lon="12.1159909"><ele>812.6</ele><time>2026-04-09T15:56:38.992Z</time></trkpt><trkpt lat="42.9450159" lon="12.1161176"><ele>815.0</ele><time>2026-04-09T15:56:39.992Z</time></trkpt><trkpt lat="42.9450633" lon="12.1162462"><ele>810.2</ele><time>2026-04-09T15:56:40.991Z</time></trkpt><trkpt lat="42.9451252" lon="12.1163548"><ele>805.4</ele><time>2026-04-09T15:56:41.991Z</time></trkpt><trkpt lat="42.9451922" lon="12.1164426"><ele>800.5999999999999</ele><time>2026-04-09T15:56:42.991Z</time></trkpt><trkpt lat="42.9453159" lon="12.1164575"><ele>795.8</ele><time>2026-04-09T15:56:43.992Z</time></trkpt><trkpt lat="42.9454028" lon="12.1164634"><ele>791.0</ele><time>2026-04-09T15:56:44.991Z</time></trkpt><trkpt lat="42.9455133" lon="12.1164969"><ele>791.0</ele><time>2026-04-09T15:56:45.992Z</time></trkpt><trkpt lat="42.9455815" lon="12.1165319"><ele>791.0</ele><time>2026-04-09T15:56:46.992Z</time></trkpt><trkpt lat="42.9456502" lon="12.1165941"><ele>791.0</ele><time>2026-04-09T15:56:47.991Z</time></trkpt><trkpt lat="42.9457471" lon="12.1166395"><ele>791.0</ele><time>2026-04-09T15:56:49.991Z</time></trkpt><trkpt lat="42.9458083" lon="12.1165342"><ele>791.0</ele><time>2026-04-09T15:56:51.992Z</time></trkpt><trkpt lat="42.9457931" lon="12.1163813"><ele>791.0000000000001</ele><time>2026-04-09T15:56:53.991Z</time></trkpt><trkpt lat="42.9458444" lon="12.1162395"><ele>791.0</ele><time>2026-04-09T15:56:55.992Z</time></trkpt><trkpt lat="42.9459035" lon="12.1162089"><ele>791.0</ele><time>2026-04-09T15:56:56.991Z</time></trkpt><trkpt lat="42.9459726" lon="12.1162227"><ele>791.0</ele><time>2026-04-09T15:56:57.992Z</time></trkpt><trkpt lat="42.9460379" lon="12.1162636"><ele>791.0000000000001</ele><time>2026-04-09T15:56:58.991Z</time></trkpt><trkpt lat="42.9460954" lon="12.1163007"><ele>791.0</ele><time>2026-04-09T15:56:59.991Z</time></trkpt><trkpt lat="42.9462132" lon="12.1163244"><ele>788.1666666666667</ele><time>2026-04-09T15:57:01.991Z</time></trkpt><trkpt lat="42.9463002" lon="12.1162046"><ele>785.3333333333334</ele><time>2026-04-09T15:57:03.992Z</time></trkpt><trkpt lat="42.946315" lon="12.1161196"><ele>782.5</ele><time>2026-04-09T15:57:04.992Z</time></trkpt><trkpt lat="42.9463187" lon="12.1160267"><ele>779.6666666666667</ele><time>2026-04-09T15:57:05.991Z</time></trkpt><trkpt lat="42.946326" lon="12.1159344"><ele>776.8333333333334</ele><time>2026-04-09T15:57:06.991Z</time></trkpt><trkpt lat="42.9463279" lon="12.1158477"><ele>774.0</ele><time>2026-04-09T15:57:07.991Z</time></trkpt><trkpt lat="42.9463567" lon="12.1157172"><ele>773.2</ele><time>2026-04-09T15:57:09.991Z</time></trkpt><trkpt lat="42.9464651" lon="12.1157117"><ele>772.4000000000001</ele><time>2026-04-09T15:57:11.991Z</time></trkpt><trkpt lat="42.9465804" lon="12.1157308"><ele>771.6</ele><time>2026-04-09T15:57:13.991Z</time></trkpt><trkpt lat="42.9466833" lon="12.1156156"><ele>770.8</ele><time>2026-04-09T15:57:15.992Z</time></trkpt><trkpt lat="42.9467233" lon="12.1155416"><ele>770.0</ele><time>2026-04-09T15:57:16.991Z</time></trkpt><trkpt lat="42.9467536" lon="12.1154312"><ele>768.0000000000001</ele><time>2026-04-09T15:57:17.991Z</time></trkpt><trkpt lat="42.9467673" lon="12.1153365"><ele>766.0</ele><time>2026-04-09T15:57:18.992Z</time></trkpt><trkpt lat="42.9467782" lon="12.1152372"><ele>764.0</ele><time>2026-04-09T15:57:19.991Z</time></trkpt><trkpt lat="42.9468" lon="12.1151287"><ele>762.0</ele><time>2026-04-09T15:57:20.991Z</time></trkpt><trkpt lat="42.9468564" lon="12.1150649"><ele>760.0</ele><time>2026-04-09T15:57:21.991Z</time></trkpt><trkpt lat="42.9469108" lon="12.1149961"><ele>758.0</ele><time>2026-04-09T15:57:22.991Z</time></trkpt><trkpt lat="42.9469992" lon="12.1149694"><ele>758.0</ele><time>2026-04-09T15:57:23.993Z</time></trkpt><trkpt lat="42.9470687" lon="12.1149736"><ele>758.0</ele><time>2026-04-09T15:57:24.992Z</time></trkpt><trkpt lat="42.9471475" lon="12.1149698"><ele>758.0</ele><time>2026-04-09T15:57:25.991Z</time></trkpt><trkpt lat="42.9472306" lon="12.1149648"><ele>758.0</ele><time>2026-04-09T15:57:26.991Z</time></trkpt><trkpt lat="42.9473047" lon="12.114969"><ele>758.0</ele><time>2026-04-09T15:57:27.992Z</time></trkpt><trkpt lat="42.9473767" lon="12.1149318"><ele>758.0</ele><time>2026-04-09T15:57:28.991Z</time></trkpt><trkpt lat="42.947446" lon="12.1149143"><ele>757.1666666666666</ele><time>2026-04-09T15:57:29.991Z</time></trkpt><trkpt lat="42.9475101" lon="12.1148659"><ele>756.3333333333333</ele><time>2026-04-09T15:57:30.993Z</time></trkpt><trkpt lat="42.9475813" lon="12.1148158"><ele>755.5</ele><time>2026-04-09T15:57:31.991Z</time></trkpt><trkpt lat="42.9476438" lon="12.1147546"><ele>754.6666666666666</ele><time>2026-04-09T15:57:32.992Z</time></trkpt><trkpt lat="42.947711" lon="12.114692"><ele>753.8333333333334</ele><time>2026-04-09T15:57:33.992Z</time></trkpt><trkpt lat="42.9477786" lon="12.114622"><ele>753.0</ele><time>2026-04-09T15:57:34.99Z</time></trkpt><trkpt lat="42.947841" lon="12.1145507"><ele>750.6666666666666</ele><time>2026-04-09T15:57:35.991Z</time></trkpt><trkpt lat="42.9478967" lon="12.1144959"><ele>748.3333333333334</ele><time>2026-04-09T15:57:36.992Z</time></trkpt><trkpt lat="42.9479436" lon="12.1144131"><ele>746.0</ele><time>2026-04-09T15:57:38.992Z</time></trkpt><trkpt lat="42.9480168" lon="12.1143005"><ele>743.6666666666667</ele><time>2026-04-09T15:57:42.992Z</time></trkpt><trkpt lat="42.9480848" lon="12.1142059"><ele>741.3333333333334</ele><time>2026-04-09T15:57:44.991Z</time></trkpt><trkpt lat="42.9481434" lon="12.1141647"><ele>739.0</ele><time>2026-04-09T15:57:45.991Z</time></trkpt><trkpt lat="42.9482107" lon="12.1141139"><ele>738.8333333333334</ele><time>2026-04-09T15:57:46.991Z</time></trkpt><trkpt lat="42.9482763" lon="12.114061"><ele>738.6666666666667</ele><time>2026-04-09T15:57:47.992Z</time></trkpt><trkpt lat="42.9483617" lon="12.1140337"><ele>738.5</ele><time>2026-04-09T15:57:48.992Z</time></trkpt><trkpt lat="42.9484493" lon="12.1140512"><ele>738.3333333333334</ele><time>2026-04-09T15:57:49.991Z</time></trkpt><trkpt lat="42.9485301" lon="12.11409"><ele>738.1666666666666</ele><time>2026-04-09T15:57:50.992Z</time></trkpt><trkpt lat="42.9486034" lon="12.114157"><ele>738.0</ele><time>2026-04-09T15:57:51.992Z</time></trkpt><trkpt lat="42.9486742" lon="12.1142131"><ele>735.8333333333334</ele><time>2026-04-09T15:57:52.991Z</time></trkpt><trkpt lat="42.9487389" lon="12.1142768"><ele>733.6666666666666</ele><time>2026-04-09T15:57:53.991Z</time></trkpt><trkpt lat="42.9488134" lon="12.1143169"><ele>731.5</ele><time>2026-04-09T15:57:54.992Z</time></trkpt><trkpt lat="42.9488782" lon="12.1143166"><ele>729.3333333333333</ele><time>2026-04-09T15:57:55.991Z</time></trkpt><trkpt lat="42.9489496" lon="12.1142816"><ele>727.1666666666666</ele><time>2026-04-09T15:57:56.991Z</time></trkpt><trkpt lat="42.9490189" lon="12.1142274"><ele>725.0</ele><time>2026-04-09T15:57:57.991Z</time></trkpt><trkpt lat="42.9490913" lon="12.1141809"><ele>725.0</ele><time>2026-04-09T15:57:58.992Z</time></trkpt><trkpt lat="42.9491718" lon="12.1141395"><ele>725.0</ele><time>2026-04-09T15:57:59.99Z</time></trkpt><trkpt lat="42.9492641" lon="12.1141005"><ele>725.0</ele><time>2026-04-09T15:58:00.99Z</time></trkpt><trkpt lat="42.9493554" lon="12.114048"><ele>725.0</ele><time>2026-04-09T15:58:01.991Z</time></trkpt><trkpt lat="42.949449" lon="12.1139876"><ele>725.0</ele><time>2026-04-09T15:58:02.992Z</time></trkpt><trkpt lat="42.9495358" lon="12.1139144"><ele>721.8</ele><time>2026-04-09T15:58:03.991Z</time></trkpt><trkpt lat="42.949616" lon="12.1138295"><ele>718.6</ele><time>2026-04-09T15:58:04.992Z</time></trkpt><trkpt lat="42.949707" lon="12.1137515"><ele>715.4000000000001</ele><time>2026-04-09T15:58:05.992Z</time></trkpt><trkpt lat="42.9497963" lon="12.1136606"><ele>712.2</ele><time>2026-04-09T15:58:06.992Z</time></trkpt><trkpt lat="42.9498858" lon="12.11356"><ele>709.0</ele><time>2026-04-09T15:58:07.991Z</time></trkpt><trkpt lat="42.9499596" lon="12.113469"><ele>709.0</ele><time>2026-04-09T15:58:08.992Z</time></trkpt><trkpt lat="42.9500396" lon="12.1133818"><ele>709.0</ele><time>2026-04-09T15:58:09.992Z</time></trkpt><trkpt lat="42.9501075" lon="12.1133091"><ele>709.0</ele><time>2026-04-09T15:58:10.992Z</time></trkpt><trkpt lat="42.9501868" lon="12.1132484"><ele>709.0</ele><time>2026-04-09T15:58:11.992Z</time></trkpt><trkpt lat="42.9502738" lon="12.1132049"><ele>709.0</ele><time>2026-04-09T15:58:12.991Z</time></trkpt><trkpt lat="42.9503576" lon="12.1131548"><ele>706.8000000000001</ele><time>2026-04-09T15:58:13.991Z</time></trkpt><trkpt lat="42.9504473" lon="12.1131143"><ele>704.6</ele><time>2026-04-09T15:58:14.991Z</time></trkpt><trkpt lat="42.9505406" lon="12.1130821"><ele>702.4</ele><time>2026-04-09T15:58:15.992Z</time></trkpt><trkpt lat="42.9506447" lon="12.1130575"><ele>700.2</ele><time>2026-04-09T15:58:16.991Z</time></trkpt><trkpt lat="42.9507514" lon="12.1130428"><ele>698.0</ele><time>2026-04-09T15:58:17.992Z</time></trkpt><trkpt lat="42.9508564" lon="12.1130342"><ele>695.5999999999999</ele><time>2026-04-09T15:58:18.992Z</time></trkpt><trkpt lat="42.950961" lon="12.1130286"><ele>693.1999999999999</ele><time>2026-04-09T15:58:19.991Z</time></trkpt><trkpt lat="42.9510735" lon="12.1130241"><ele>690.8</ele><time>2026-04-09T15:58:20.992Z</time></trkpt><trkpt lat="42.9511816" lon="12.1130188"><ele>688.4</ele><time>2026-04-09T15:58:21.992Z</time></trkpt><trkpt lat="42.9512833" lon="12.1129881"><ele>686.0</ele><time>2026-04-09T15:58:22.991Z</time></trkpt><trkpt lat="42.9513814" lon="12.112949"><ele>686.0</ele><time>2026-04-09T15:58:23.991Z</time></trkpt><trkpt lat="42.9514657" lon="12.1128919"><ele>686.0</ele><time>2026-04-09T15:58:24.992Z</time></trkpt><trkpt lat="42.9515567" lon="12.1128299"><ele>686.0</ele><time>2026-04-09T15:58:25.991Z</time></trkpt><trkpt lat="42.951637" lon="12.112752"><ele>686.0</ele><time>2026-04-09T15:58:26.992Z</time></trkpt><trkpt lat="42.9517073" lon="12.1126612"><ele>686.0</ele><time>2026-04-09T15:58:27.992Z</time></trkpt><trkpt lat="42.9517533" lon="12.1125661"><ele>682.3333333333333</ele><time>2026-04-09T15:58:28.991Z</time></trkpt><trkpt lat="42.9517917" lon="12.1124794"><ele>678.6666666666666</ele><time>2026-04-09T15:58:29.991Z</time></trkpt><trkpt lat="42.9518238" lon="12.1123662"><ele>675.0</ele><time>2026-04-09T15:58:30.991Z</time></trkpt><trkpt lat="42.9518523" lon="12.1122544"><ele>671.3333333333334</ele><time>2026-04-09T15:58:31.991Z</time></trkpt><trkpt lat="42.9518576" lon="12.1121479"><ele>667.6666666666667</ele><time>2026-04-09T15:58:32.992Z</time></trkpt><trkpt lat="42.9518348" lon="12.1120507"><ele>664.0</ele><time>2026-04-09T15:58:33.991Z</time></trkpt><trkpt lat="42.9518086" lon="12.1119684"><ele>664.0</ele><time>2026-04-09T15:58:34.992Z</time></trkpt><trkpt lat="42.9517969" lon="12.1118242"><ele>664.0</ele><time>2026-04-09T15:58:36.992Z</time></trkpt><trkpt lat="42.9519002" lon="12.1117409"><ele>664.0</ele><time>2026-04-09T15:58:38.991Z</time></trkpt><trkpt lat="42.9520129" lon="12.1117805"><ele>664.0</ele><time>2026-04-09T15:58:40.992Z</time></trkpt><trkpt lat="42.952071" lon="12.1118289"><ele>664.0</ele><time>2026-04-09T15:58:41.991Z</time></trkpt><trkpt lat="42.9521443" lon="12.1118618"><ele>664.0</ele><time>2026-04-09T15:58:42.991Z</time></trkpt><trkpt lat="42.9522171" lon="12.1118617"><ele>664.0</ele><time>2026-04-09T15:58:43.991Z</time></trkpt><trkpt lat="42.9522835" lon="12.1118273"><ele>664.0</ele><time>2026-04-09T15:58:44.991Z</time></trkpt><trkpt lat="42.9523295" lon="12.1117559"><ele>664.0</ele><time>2026-04-09T15:58:45.992Z</time></trkpt><trkpt lat="42.9523775" lon="12.1116751"><ele>664.0</ele><time>2026-04-09T15:58:46.992Z</time></trkpt><trkpt lat="42.9524337" lon="12.1116006"><ele>664.0</ele><time>2026-04-09T15:58:47.992Z</time></trkpt><trkpt lat="42.9524939" lon="12.1115699"><ele>664.0</ele><time>2026-04-09T15:58:48.992Z</time></trkpt><trkpt lat="42.9525752" lon="12.1115654"><ele>661.8000000000001</ele><time>2026-04-09T15:58:49.992Z</time></trkpt><trkpt lat="42.9526274" lon="12.1117012"><ele>659.6</ele><time>2026-04-09T15:58:51.992Z</time></trkpt><trkpt lat="42.9526328" lon="12.1118646"><ele>657.4</ele><time>2026-04-09T15:58:53.991Z</time></trkpt><trkpt lat="42.9526134" lon="12.1119545"><ele>655.2</ele><time>2026-04-09T15:58:54.992Z</time></trkpt><trkpt lat="42.952598" lon="12.1120491"><ele>653.0</ele><time>2026-04-09T15:58:55.991Z</time></trkpt><trkpt lat="42.9525729" lon="12.1121606"><ele>653.0</ele><time>2026-04-09T15:58:56.991Z</time></trkpt><trkpt lat="42.9525448" lon="12.1122914"><ele>653.0</ele><time>2026-04-09T15:58:57.992Z</time></trkpt><trkpt lat="42.9524961" lon="12.1124187"><ele>653.0</ele><time>2026-04-09T15:58:58.992Z</time></trkpt><trkpt lat="42.9524624" lon="12.1125469"><ele>653.0</ele><time>2026-04-09T15:58:59.992Z</time></trkpt><trkpt lat="42.9524445" lon="12.1126809"><ele>653.0</ele><time>2026-04-09T15:59:00.991Z</time></trkpt><trkpt lat="42.9524196" lon="12.1128124"><ele>653.5</ele><time>2026-04-09T15:59:01.992Z</time></trkpt><trkpt lat="42.9524212" lon="12.1129353"><ele>654.0</ele><time>2026-04-09T15:59:02.992Z</time></trkpt><trkpt lat="42.952426" lon="12.1130541"><ele>654.5</ele><time>2026-04-09T15:59:03.992Z</time></trkpt><trkpt lat="42.9524533" lon="12.1131696"><ele>655.0</ele><time>2026-04-09T15:59:04.992Z</time></trkpt><trkpt lat="42.9525002" lon="12.1132584"><ele>655.5</ele><time>2026-04-09T15:59:05.991Z</time></trkpt><trkpt lat="42.9525743" lon="12.1133376"><ele>656.0</ele><time>2026-04-09T15:59:06.992Z</time></trkpt><trkpt lat="42.9526398" lon="12.1134157"><ele>653.3333333333333</ele><time>2026-04-09T15:59:07.991Z</time></trkpt><trkpt lat="42.9526942" lon="12.1135076"><ele>650.6666666666666</ele><time>2026-04-09T15:59:08.992Z</time></trkpt><trkpt lat="42.9527484" lon="12.1135981"><ele>648.0</ele><time>2026-04-09T15:59:09.991Z</time></trkpt><trkpt lat="42.9528021" lon="12.1136956"><ele>645.3333333333334</ele><time>2026-04-09T15:59:10.992Z</time></trkpt><trkpt lat="42.952856" lon="12.1137779"><ele>642.6666666666667</ele><time>2026-04-09T15:59:11.992Z</time></trkpt><trkpt lat="42.9528992" lon="12.1138545"><ele>640.0</ele><time>2026-04-09T15:59:12.991Z</time></trkpt><trkpt lat="42.9529308" lon="12.1139326"><ele>640.0</ele><time>2026-04-09T15:59:13.991Z</time></trkpt><trkpt lat="42.9529601" lon="12.1140166"><ele>640.0</ele><time>2026-04-09T15:59:14.991Z</time></trkpt><trkpt lat="42.9529788" lon="12.1141213"><ele>640.0</ele><time>2026-04-09T15:59:15.991Z</time></trkpt><trkpt lat="42.9529937" lon="12.1142366"><ele>640.0</ele><time>2026-04-09T15:59:16.992Z</time></trkpt><trkpt lat="42.9529939" lon="12.1143885"><ele>640.0</ele><time>2026-04-09T15:59:17.992Z</time></trkpt><trkpt lat="42.9529979" lon="12.1145034"><ele>640.0</ele><time>2026-04-09T15:59:18.992Z</time></trkpt><trkpt lat="42.9530043" lon="12.1146161"><ele>640.4</ele><time>2026-04-09T15:59:19.992Z</time></trkpt><trkpt lat="42.9529961" lon="12.1147228"><ele>640.8</ele><time>2026-04-09T15:59:20.993Z</time></trkpt><trkpt lat="42.9530064" lon="12.1148191"><ele>641.2</ele><time>2026-04-09T15:59:21.992Z</time></trkpt><trkpt lat="42.9530119" lon="12.1149221"><ele>641.6</ele><time>2026-04-09T15:59:22.99Z</time></trkpt><trkpt lat="42.9530223" lon="12.1150439"><ele>642.0</ele><time>2026-04-09T15:59:23.992Z</time></trkpt><trkpt lat="42.9531719" lon="12.1150567"><ele>642.0</ele><time>2026-04-09T15:59:26.992Z</time></trkpt><trkpt lat="42.9532449" lon="12.1150121"><ele>642.0</ele><time>2026-04-09T15:59:27.992Z</time></trkpt><trkpt lat="42.9533083" lon="12.1149757"><ele>642.0</ele><time>2026-04-09T15:59:28.992Z</time></trkpt><trkpt lat="42.9533712" lon="12.1148321"><ele>642.0</ele><time>2026-04-09T15:59:29.992Z</time></trkpt><trkpt lat="42.9534254" lon="12.1147656"><ele>642.0</ele><time>2026-04-09T15:59:30.991Z</time></trkpt><trkpt lat="42.9535046" lon="12.114709"><ele>642.0</ele><time>2026-04-09T15:59:31.992Z</time></trkpt><trkpt lat="42.9535996" lon="12.1146431"><ele>638.1666666666666</ele><time>2026-04-09T15:59:32.992Z</time></trkpt><trkpt lat="42.9536505" lon="12.1145569"><ele>634.3333333333334</ele><time>2026-04-09T15:59:33.992Z</time></trkpt><trkpt lat="42.9537236" lon="12.1144942"><ele>630.5</ele><time>2026-04-09T15:59:34.991Z</time></trkpt><trkpt lat="42.9537768" lon="12.1144278"><ele>626.6666666666667</ele><time>2026-04-09T15:59:35.992Z</time></trkpt><trkpt lat="42.9537791" lon="12.1143163"><ele>622.8333333333334</ele><time>2026-04-09T15:59:36.992Z</time></trkpt><trkpt lat="42.9537856" lon="12.1141756"><ele>619.0</ele><time>2026-04-09T15:59:37.992Z</time></trkpt><trkpt lat="42.9537631" lon="12.114081"><ele>619.8333333333334</ele><time>2026-04-09T15:59:38.992Z</time></trkpt><trkpt lat="42.9537231" lon="12.1139726"><ele>620.6666666666667</ele><time>2026-04-09T15:59:39.991Z</time></trkpt><trkpt lat="42.9536647" lon="12.1138807"><ele>621.5</ele><time>2026-04-09T15:59:40.992Z</time></trkpt><trkpt lat="42.953596" lon="12.1138165"><ele>622.3333333333334</ele><time>2026-04-09T15:59:41.991Z</time></trkpt><trkpt lat="42.9535776" lon="12.1137316"><ele>623.1666666666666</ele><time>2026-04-09T15:59:42.991Z</time></trkpt><trkpt lat="42.953542" lon="12.1136378"><ele>624.0</ele><time>2026-04-09T15:59:43.992Z</time></trkpt><trkpt lat="42.9535486" lon="12.1135463"><ele>624.0</ele><time>2026-04-09T15:59:44.993Z</time></trkpt><trkpt lat="42.9536293" lon="12.1134637"><ele>624.0</ele><time>2026-04-09T15:59:45.992Z</time></trkpt><trkpt lat="42.9536862" lon="12.1134017"><ele>624.0</ele><time>2026-04-09T15:59:46.991Z</time></trkpt><trkpt lat="42.9537528" lon="12.1133536"><ele>624.0</ele><time>2026-04-09T15:59:47.992Z</time></trkpt><trkpt lat="42.9538423" lon="12.1133338"><ele>624.0</ele><time>2026-04-09T15:59:48.992Z</time></trkpt><trkpt lat="42.9539226" lon="12.1133587"><ele>624.0</ele><time>2026-04-09T15:59:49.992Z</time></trkpt><trkpt lat="42.9540026" lon="12.1134046"><ele>624.0</ele><time>2026-04-09T15:59:50.991Z</time></trkpt><trkpt lat="42.954071" lon="12.1134589"><ele>624.0</ele><time>2026-04-09T15:59:51.992Z</time></trkpt><trkpt lat="42.9541524" lon="12.1135148"><ele>624.0</ele><time>2026-04-09T15:59:52.992Z</time></trkpt><trkpt lat="42.9542394" lon="12.1135679"><ele>624.0</ele><time>2026-04-09T15:59:53.992Z</time></trkpt><trkpt lat="42.9543506" lon="12.1136405"><ele>624.0</ele><time>2026-04-09T15:59:54.991Z</time></trkpt><trkpt lat="42.9544392" lon="12.1137087"><ele>622.6666666666666</ele><time>2026-04-09T15:59:55.992Z</time></trkpt><trkpt lat="42.9545236" lon="12.1137388"><ele>621.3333333333334</ele><time>2026-04-09T15:59:56.991Z</time></trkpt><trkpt lat="42.9546086" lon="12.1137847"><ele>620.0</ele><time>2026-04-09T15:59:57.991Z</time></trkpt><trkpt lat="42.9546825" lon="12.1138276"><ele>618.6666666666667</ele><time>2026-04-09T15:59:58.993Z</time></trkpt><trkpt lat="42.954767" lon="12.1138704"><ele>617.3333333333334</ele><time>2026-04-09T15:59:59.991Z</time></trkpt><trkpt lat="42.9548504" lon="12.1139136"><ele>616.0</ele><time>2026-04-09T16:00:00.991Z</time></trkpt><trkpt lat="42.9549516" lon="12.1139851"><ele>615.4</ele><time>2026-04-09T16:00:01.992Z</time></trkpt><trkpt lat="42.9550608" lon="12.1140538"><ele>614.8</ele><time>2026-04-09T16:00:02.99Z</time></trkpt><trkpt lat="42.9551684" lon="12.1141081"><ele>614.1999999999999</ele><time>2026-04-09T16:00:03.992Z</time></trkpt><trkpt lat="42.9552585" lon="12.1141458"><ele>613.6</ele><time>2026-04-09T16:00:04.991Z</time></trkpt><trkpt lat="42.9553313" lon="12.1141662"><ele>613.0</ele><time>2026-04-09T16:00:05.992Z</time></trkpt><trkpt lat="42.9553978" lon="12.1141775"><ele>612.8</ele><time>2026-04-09T16:00:06.991Z</time></trkpt><trkpt lat="42.955482" lon="12.1141918"><ele>612.5999999999999</ele><time>2026-04-09T16:00:07.991Z</time></trkpt><trkpt lat="42.9555784" lon="12.1142041"><ele>612.4000000000001</ele><time>2026-04-09T16:00:08.992Z</time></trkpt><trkpt lat="42.9556813" lon="12.1142149"><ele>612.2</ele><time>2026-04-09T16:00:09.991Z</time></trkpt><trkpt lat="42.9557935" lon="12.1142267"><ele>612.0</ele><time>2026-04-09T16:00:10.991Z</time></trkpt><trkpt lat="42.9558917" lon="12.1142368"><ele>611.1666666666666</ele><time>2026-04-09T16:00:11.992Z</time></trkpt><trkpt lat="42.9559863" lon="12.1142547"><ele>610.3333333333334</ele><time>2026-04-09T16:00:12.992Z</time></trkpt><trkpt lat="42.9560764" lon="12.1142706"><ele>609.5</ele><time>2026-04-09T16:00:13.991Z</time></trkpt><trkpt lat="42.9561609" lon="12.1142746"><ele>608.6666666666667</ele><time>2026-04-09T16:00:14.99Z</time></trkpt><trkpt lat="42.9562411" lon="12.1142893"><ele>607.8333333333334</ele><time>2026-04-09T16:00:15.991Z</time></trkpt><trkpt lat="42.9563171" lon="12.1142745"><ele>607.0</ele><time>2026-04-09T16:00:16.991Z</time></trkpt><trkpt lat="42.9563959" lon="12.1142369"><ele>606.9999999999999</ele><time>2026-04-09T16:00:17.992Z</time></trkpt><trkpt lat="42.9564469" lon="12.114185"><ele>607.0</ele><time>2026-04-09T16:00:18.991Z</time></trkpt><trkpt lat="42.9565116" lon="12.1141335"><ele>607.0</ele><time>2026-04-09T16:00:19.991Z</time></trkpt><trkpt lat="42.9565688" lon="12.1140779"><ele>607.0</ele><time>2026-04-09T16:00:20.991Z</time></trkpt><trkpt lat="42.9566364" lon="12.1140159"><ele>607.0</ele><time>2026-04-09T16:00:21.992Z</time></trkpt><trkpt lat="42.9567011" lon="12.1139709"><ele>606.9999999999999</ele><time>2026-04-09T16:00:22.992Z</time></trkpt><trkpt lat="42.956766" lon="12.1139163"><ele>607.0</ele><time>2026-04-09T16:00:23.992Z</time></trkpt><trkpt lat="42.9568345" lon="12.1138453"><ele>604.8000000000001</ele><time>2026-04-09T16:00:24.993Z</time></trkpt><trkpt lat="42.9569019" lon="12.1137823"><ele>602.6</ele><time>2026-04-09T16:00:25.992Z</time></trkpt><trkpt lat="42.9569902" lon="12.1137116"><ele>600.4000000000001</ele><time>2026-04-09T16:00:27.992Z</time></trkpt><trkpt lat="42.9570955" lon="12.1135897"><ele>598.2</ele><time>2026-04-09T16:00:29.991Z</time></trkpt><trkpt lat="42.9571786" lon="12.1135459"><ele>596.0</ele><time>2026-04-09T16:00:30.992Z</time></trkpt><trkpt lat="42.9572526" lon="12.1135052"><ele>596.0</ele><time>2026-04-09T16:00:31.991Z</time></trkpt><trkpt lat="42.9573383" lon="12.1134684"><ele>596.0</ele><time>2026-04-09T16:00:32.992Z</time></trkpt><trkpt lat="42.9574013" lon="12.1134257"><ele>596.0</ele><time>2026-04-09T16:00:33.992Z</time></trkpt><trkpt lat="42.957457" lon="12.1133327"><ele>596.0</ele><time>2026-04-09T16:00:34.992Z</time></trkpt><trkpt lat="42.9574632" lon="12.1131381"><ele>596.0</ele><time>2026-04-09T16:00:36.991Z</time></trkpt><trkpt lat="42.9574649" lon="12.1130157"><ele>595.1666666666666</ele><time>2026-04-09T16:00:37.992Z</time></trkpt><trkpt lat="42.9574852" lon="12.1128806"><ele>594.3333333333333</ele><time>2026-04-09T16:00:38.992Z</time></trkpt><trkpt lat="42.9574983" lon="12.1127578"><ele>593.5</ele><time>2026-04-09T16:00:39.992Z</time></trkpt><trkpt lat="42.9575082" lon="12.1126421"><ele>592.6666666666666</ele><time>2026-04-09T16:00:40.992Z</time></trkpt><trkpt lat="42.9575099" lon="12.1125266"><ele>591.8333333333334</ele><time>2026-04-09T16:00:41.991Z</time></trkpt><trkpt lat="42.9575115" lon="12.1124111"><ele>591.0</ele><time>2026-04-09T16:00:42.992Z</time></trkpt><trkpt lat="42.9574978" lon="12.1123053"><ele>589.0</ele><time>2026-04-09T16:00:43.992Z</time></trkpt><trkpt lat="42.9574919" lon="12.1121944"><ele>587.0</ele><time>2026-04-09T16:00:44.992Z</time></trkpt><trkpt lat="42.9574914" lon="12.1120763"><ele>585.0</ele><time>2026-04-09T16:00:45.992Z</time></trkpt><trkpt lat="42.9574988" lon="12.1119149"><ele>583.0</ele><time>2026-04-09T16:00:46.991Z</time></trkpt><trkpt lat="42.9575139" lon="12.1117498"><ele>581.0</ele><time>2026-04-09T16:00:47.992Z</time></trkpt><trkpt lat="42.9575153" lon="12.1115946"><ele>578.6</ele><time>2026-04-09T16:00:48.991Z</time></trkpt><trkpt lat="42.9575114" lon="12.1114363"><ele>576.2</ele><time>2026-04-09T16:00:49.992Z</time></trkpt><trkpt lat="42.9574999" lon="12.111292"><ele>573.8</ele><time>2026-04-09T16:00:50.992Z</time></trkpt><trkpt lat="42.9574995" lon="12.1111542"><ele>571.4</ele><time>2026-04-09T16:00:51.992Z</time></trkpt><trkpt lat="42.9575042" lon="12.1110083"><ele>569.0</ele><time>2026-04-09T16:00:52.992Z</time></trkpt><trkpt lat="42.9575171" lon="12.1108493"><ele>568.4</ele><time>2026-04-09T16:00:53.991Z</time></trkpt><trkpt lat="42.9575298" lon="12.1106949"><ele>567.8</ele><time>2026-04-09T16:00:54.992Z</time></trkpt><trkpt lat="42.957555" lon="12.1105454"><ele>567.2</ele><time>2026-04-09T16:00:55.992Z</time></trkpt><trkpt lat="42.9575805" lon="12.1104069"><ele>566.6</ele><time>2026-04-09T16:00:56.991Z</time></trkpt><trkpt lat="42.9576278" lon="12.1102981"><ele>566.0</ele><time>2026-04-09T16:00:57.992Z</time></trkpt><trkpt lat="42.957677" lon="12.1102159"><ele>566.0</ele><time>2026-04-09T16:00:58.992Z</time></trkpt><trkpt lat="42.957739" lon="12.1101648"><ele>566.0</ele><time>2026-04-09T16:00:59.992Z</time></trkpt><trkpt lat="42.9578051" lon="12.1101174"><ele>566.0</ele><time>2026-04-09T16:01:00.992Z</time></trkpt><trkpt lat="42.9578879" lon="12.1100786"><ele>566.0</ele><time>2026-04-09T16:01:01.991Z</time></trkpt><trkpt lat="42.9579837" lon="12.1100636"><ele>566.0</ele><time>2026-04-09T16:01:02.992Z</time></trkpt><trkpt lat="42.9580869" lon="12.1100549"><ele>566.0</ele><time>2026-04-09T16:01:03.992Z</time></trkpt><trkpt lat="42.9582036" lon="12.1100557"><ele>566.0</ele><time>2026-04-09T16:01:04.992Z</time></trkpt><trkpt lat="42.9583238" lon="12.110055"><ele>566.0</ele><time>2026-04-09T16:01:05.992Z</time></trkpt><trkpt lat="42.9584539" lon="12.1100545"><ele>566.0</ele><time>2026-04-09T16:01:06.992Z</time></trkpt><trkpt lat="42.9585829" lon="12.1100424"><ele>566.0</ele><time>2026-04-09T16:01:07.991Z</time></trkpt><trkpt lat="42.9587174" lon="12.1100425"><ele>563.6666666666666</ele><time>2026-04-09T16:01:08.991Z</time></trkpt><trkpt lat="42.9588703" lon="12.110045"><ele>561.3333333333334</ele><time>2026-04-09T16:01:09.992Z</time></trkpt><trkpt lat="42.9590241" lon="12.1100467"><ele>559.0</ele><time>2026-04-09T16:01:10.992Z</time></trkpt><trkpt lat="42.9591785" lon="12.1100528"><ele>556.0</ele><time>2026-04-09T16:01:11.991Z</time></trkpt><trkpt lat="42.9593173" lon="12.1100553"><ele>553.0</ele><time>2026-04-09T16:01:12.991Z</time></trkpt><trkpt lat="42.9594556" lon="12.1100494"><ele>550.0</ele><time>2026-04-09T16:01:13.992Z</time></trkpt><trkpt lat="42.959588" lon="12.1100543"><ele>547.0</ele><time>2026-04-09T16:01:14.991Z</time></trkpt><trkpt lat="42.9597146" lon="12.1100662"><ele>547.0</ele><time>2026-04-09T16:01:15.992Z</time></trkpt><trkpt lat="42.9598362" lon="12.1100856"><ele>547.0</ele><time>2026-04-09T16:01:16.992Z</time></trkpt><trkpt lat="42.9599517" lon="12.110101"><ele>547.0</ele><time>2026-04-09T16:01:17.992Z</time></trkpt><trkpt lat="42.9600717" lon="12.1101122"><ele>547.0</ele><time>2026-04-09T16:01:18.992Z</time></trkpt><trkpt lat="42.9602088" lon="12.1101381"><ele>544.0</ele><time>2026-04-09T16:01:19.992Z</time></trkpt><trkpt lat="42.960347" lon="12.110168"><ele>541.0</ele><time>2026-04-09T16:01:20.992Z</time></trkpt><trkpt lat="42.9604795" lon="12.1102069"><ele>538.0</ele><time>2026-04-09T16:01:21.992Z</time></trkpt><trkpt lat="42.9606147" lon="12.1102602"><ele>535.0</ele><time>2026-04-09T16:01:22.992Z</time></trkpt><trkpt lat="42.9607411" lon="12.110321"><ele>529.5</ele><time>2026-04-09T16:01:23.991Z</time></trkpt><trkpt lat="42.9608661" lon="12.1103777"><ele>524.0</ele><time>2026-04-09T16:01:24.991Z</time></trkpt><trkpt lat="42.9609804" lon="12.1104109"><ele>518.5</ele><time>2026-04-09T16:01:25.99Z</time></trkpt><trkpt lat="42.9610879" lon="12.1104174"><ele>513.0</ele><time>2026-04-09T16:01:26.992Z</time></trkpt><trkpt lat="42.9611915" lon="12.1103779"><ele>513.0</ele><time>2026-04-09T16:01:27.991Z</time></trkpt><trkpt lat="42.9612456" lon="12.1102372"><ele>513.0</ele><time>2026-04-09T16:01:28.992Z</time></trkpt><trkpt lat="42.9612973" lon="12.1100776"><ele>513.0</ele><time>2026-04-09T16:01:29.992Z</time></trkpt><trkpt lat="42.9613297" lon="12.1098827"><ele>513.0</ele><time>2026-04-09T16:01:30.992Z</time></trkpt><trkpt lat="42.961347" lon="12.1096513"><ele>511.66666666666663</ele><time>2026-04-09T16:01:31.992Z</time></trkpt><trkpt lat="42.9613452" lon="12.1094055"><ele>510.3333333333333</ele><time>2026-04-09T16:01:32.991Z</time></trkpt><trkpt lat="42.9613327" lon="12.1091475"><ele>509.0</ele><time>2026-04-09T16:01:33.992Z</time></trkpt><trkpt lat="42.9613108" lon="12.1088771"><ele>509.0</ele><time>2026-04-09T16:01:34.991Z</time></trkpt><trkpt lat="42.9612843" lon="12.1086152"><ele>509.0</ele><time>2026-04-09T16:01:35.992Z</time></trkpt><trkpt lat="42.9612565" lon="12.1083713"><ele>509.0</ele><time>2026-04-09T16:01:36.992Z</time></trkpt><trkpt lat="42.9612138" lon="12.108137"><ele>510.3333333333333</ele><time>2026-04-09T16:01:37.992Z</time></trkpt><trkpt lat="42.9611748" lon="12.1079117"><ele>511.66666666666663</ele><time>2026-04-09T16:01:38.992Z</time></trkpt><trkpt lat="42.9611435" lon="12.1076945"><ele>513.0</ele><time>2026-04-09T16:01:39.992Z</time></trkpt><trkpt lat="42.961115" lon="12.1074707"><ele>510.0</ele><time>2026-04-09T16:01:40.992Z</time></trkpt><trkpt lat="42.961124" lon="12.1072512"><ele>507.0</ele><time>2026-04-09T16:01:41.992Z</time></trkpt><trkpt lat="42.9611442" lon="12.1070434"><ele>504.0</ele><time>2026-04-09T16:01:42.991Z</time></trkpt><trkpt lat="42.9611616" lon="12.1068139"><ele>504.0</ele><time>2026-04-09T16:01:43.992Z</time></trkpt><trkpt lat="42.9611739" lon="12.1065786"><ele>504.0</ele><time>2026-04-09T16:01:44.99Z</time></trkpt><trkpt lat="42.9611908" lon="12.1063307"><ele>504.0</ele><time>2026-04-09T16:01:45.992Z</time></trkpt><trkpt lat="42.9612016" lon="12.1060752"><ele>500.0</ele><time>2026-04-09T16:01:46.992Z</time></trkpt><trkpt lat="42.9612175" lon="12.1058142"><ele>496.0</ele><time>2026-04-09T16:01:47.992Z</time></trkpt><trkpt lat="42.9612458" lon="12.105552"><ele>492.0</ele><time>2026-04-09T16:01:48.991Z</time></trkpt><trkpt lat="42.9612882" lon="12.1053088"><ele>488.33333333333337</ele><time>2026-04-09T16:01:49.992Z</time></trkpt><trkpt lat="42.9613222" lon="12.1050562"><ele>484.6666666666667</ele><time>2026-04-09T16:01:50.991Z</time></trkpt><trkpt lat="42.9613645" lon="12.1048128"><ele>481.0</ele><time>2026-04-09T16:01:51.991Z</time></trkpt><trkpt lat="42.9614103" lon="12.1045813"><ele>479.25</ele><time>2026-04-09T16:01:52.992Z</time></trkpt><trkpt lat="42.9614763" lon="12.1044274"><ele>477.5</ele><time>2026-04-09T16:01:53.992Z</time></trkpt><trkpt lat="42.961492" lon="12.1042239"><ele>475.75</ele><time>2026-04-09T16:01:54.991Z</time></trkpt><trkpt lat="42.9614688" lon="12.1040155"><ele>474.0</ele><time>2026-04-09T16:01:55.992Z</time></trkpt><trkpt lat="42.9614205" lon="12.1038163"><ele>470.66666666666663</ele><time>2026-04-09T16:01:56.991Z</time></trkpt><trkpt lat="42.9613613" lon="12.1036088"><ele>467.3333333333333</ele><time>2026-04-09T16:01:57.991Z</time></trkpt><trkpt lat="42.9613151" lon="12.1033296"><ele>464.0</ele><time>2026-04-09T16:01:58.992Z</time></trkpt><trkpt lat="42.9612782" lon="12.1031044"><ele>460.66666666666663</ele><time>2026-04-09T16:01:59.992Z</time></trkpt><trkpt lat="42.9612525" lon="12.102865"><ele>457.33333333333337</ele><time>2026-04-09T16:02:00.991Z</time></trkpt><trkpt lat="42.9612488" lon="12.1026272"><ele>454.0</ele><time>2026-04-09T16:02:01.992Z</time></trkpt><trkpt lat="42.9612644" lon="12.1024065"><ele>451.0</ele><time>2026-04-09T16:02:02.992Z</time></trkpt><trkpt lat="42.9612985" lon="12.102195"><ele>448.0</ele><time>2026-04-09T16:02:03.992Z</time></trkpt><trkpt lat="42.9613408" lon="12.1019793"><ele>445.0</ele><time>2026-04-09T16:02:04.992Z</time></trkpt><trkpt lat="42.9614079" lon="12.1017707"><ele>442.6666666666667</ele><time>2026-04-09T16:02:05.992Z</time></trkpt><trkpt lat="42.9614829" lon="12.1015449"><ele>440.33333333333337</ele><time>2026-04-09T16:02:06.991Z</time></trkpt><trkpt lat="42.9615803" lon="12.1012788"><ele>438.0</ele><time>2026-04-09T16:02:07.992Z</time></trkpt><trkpt lat="42.961657" lon="12.1010493"><ele>435.66666666666663</ele><time>2026-04-09T16:02:08.992Z</time></trkpt><trkpt lat="42.9617316" lon="12.1008293"><ele>433.3333333333333</ele><time>2026-04-09T16:02:09.991Z</time></trkpt><trkpt lat="42.9618043" lon="12.1005984"><ele>431.0</ele><time>2026-04-09T16:02:10.991Z</time></trkpt><trkpt lat="42.961876" lon="12.1003878"><ele>429.66666666666663</ele><time>2026-04-09T16:02:11.992Z</time></trkpt><trkpt lat="42.9619514" lon="12.1001806"><ele>428.33333333333337</ele><time>2026-04-09T16:02:12.992Z</time></trkpt><trkpt lat="42.9620306" lon="12.0999806"><ele>427.0</ele><time>2026-04-09T16:02:13.992Z</time></trkpt><trkpt lat="42.9621264" lon="12.0997835"><ele>426.0</ele><time>2026-04-09T16:02:14.992Z</time></trkpt><trkpt lat="42.9622414" lon="12.0995801"><ele>425.0</ele><time>2026-04-09T16:02:15.991Z</time></trkpt><trkpt lat="42.9623774" lon="12.099376"><ele>424.0</ele><time>2026-04-09T16:02:16.992Z</time></trkpt><trkpt lat="42.9625158" lon="12.0991607"><ele>421.0</ele><time>2026-04-09T16:02:17.992Z</time></trkpt><trkpt lat="42.9626521" lon="12.0989586"><ele>418.0</ele><time>2026-04-09T16:02:18.992Z</time></trkpt><trkpt lat="42.9627946" lon="12.0987479"><ele>415.0</ele><time>2026-04-09T16:02:19.992Z</time></trkpt><trkpt lat="42.9629335" lon="12.0985417"><ele>415.0</ele><time>2026-04-09T16:02:20.992Z</time></trkpt><trkpt lat="42.9630695" lon="12.0983387"><ele>415.0</ele><time>2026-04-09T16:02:21.992Z</time></trkpt><trkpt lat="42.9632054" lon="12.0981393"><ele>415.0</ele><time>2026-04-09T16:02:22.991Z</time></trkpt><trkpt lat="42.9633373" lon="12.0979474"><ele>412.33333333333337</ele><time>2026-04-09T16:02:23.992Z</time></trkpt><trkpt lat="42.9634639" lon="12.0977577"><ele>409.66666666666663</ele><time>2026-04-09T16:02:24.992Z</time></trkpt><trkpt lat="42.9635886" lon="12.0975735"><ele>407.0</ele><time>2026-04-09T16:02:25.992Z</time></trkpt><trkpt lat="42.9637021" lon="12.097395"><ele>407.0</ele><time>2026-04-09T16:02:26.992Z</time></trkpt><trkpt lat="42.9638214" lon="12.0972234"><ele>407.0</ele><time>2026-04-09T16:02:27.992Z</time></trkpt><trkpt lat="42.9639406" lon="12.0970563"><ele>407.0</ele><time>2026-04-09T16:02:28.992Z</time></trkpt><trkpt lat="42.9640611" lon="12.0968838"><ele>407.0</ele><time>2026-04-09T16:02:29.992Z</time></trkpt><trkpt lat="42.9641855" lon="12.0967211"><ele>407.0</ele><time>2026-04-09T16:02:30.992Z</time></trkpt><trkpt lat="42.9642884" lon="12.0965576"><ele>407.0</ele><time>2026-04-09T16:02:31.992Z</time></trkpt><trkpt lat="42.9644036" lon="12.096411"><ele>406.25</ele><time>2026-04-09T16:02:32.992Z</time></trkpt><trkpt lat="42.9644975" lon="12.0962573"><ele>405.5</ele><time>2026-04-09T16:02:33.992Z</time></trkpt><trkpt lat="42.9646072" lon="12.0961291"><ele>404.75</ele><time>2026-04-09T16:02:34.992Z</time></trkpt><trkpt lat="42.9647241" lon="12.0960151"><ele>404.0</ele><time>2026-04-09T16:02:35.991Z</time></trkpt><trkpt lat="42.9648654" lon="12.0959123"><ele>404.0</ele><time>2026-04-09T16:02:36.992Z</time></trkpt><trkpt lat="42.9650165" lon="12.0958219"><ele>404.0</ele><time>2026-04-09T16:02:37.991Z</time></trkpt><trkpt lat="42.9651554" lon="12.0957473"><ele>404.0</ele><time>2026-04-09T16:02:38.992Z</time></trkpt><trkpt lat="42.9652888" lon="12.0956768"><ele>402.25</ele><time>2026-04-09T16:02:39.992Z</time></trkpt><trkpt lat="42.9654126" lon="12.0956151"><ele>400.5</ele><time>2026-04-09T16:02:40.992Z</time></trkpt><trkpt lat="42.9655352" lon="12.095563"><ele>398.75</ele><time>2026-04-09T16:02:41.991Z</time></trkpt><trkpt lat="42.9656622" lon="12.0955117"><ele>397.0</ele><time>2026-04-09T16:02:42.992Z</time></trkpt><trkpt lat="42.9657821" lon="12.0954848"><ele>393.25</ele><time>2026-04-09T16:02:43.992Z</time></trkpt><trkpt lat="42.9658988" lon="12.0954517"><ele>389.5</ele><time>2026-04-09T16:02:44.992Z</time></trkpt><trkpt lat="42.9660122" lon="12.0954073"><ele>385.75</ele><time>2026-04-09T16:02:45.991Z</time></trkpt><trkpt lat="42.9661093" lon="12.0953294"><ele>382.0</ele><time>2026-04-09T16:02:46.991Z</time></trkpt><trkpt lat="42.9662029" lon="12.0952173"><ele>382.0</ele><time>2026-04-09T16:02:47.992Z</time></trkpt><trkpt lat="42.9662639" lon="12.0950643"><ele>382.0</ele><time>2026-04-09T16:02:48.992Z</time></trkpt><trkpt lat="42.9663169" lon="12.094889"><ele>382.0</ele><time>2026-04-09T16:02:49.992Z</time></trkpt><trkpt lat="42.9663919" lon="12.0947183"><ele>382.0</ele><time>2026-04-09T16:02:50.992Z</time></trkpt><trkpt lat="42.9665" lon="12.0945606"><ele>380.0</ele><time>2026-04-09T16:02:51.992Z</time></trkpt><trkpt lat="42.9666213" lon="12.0944181"><ele>378.0</ele><time>2026-04-09T16:02:52.992Z</time></trkpt><trkpt lat="42.9667551" lon="12.0942946"><ele>376.0</ele><time>2026-04-09T16:02:53.992Z</time></trkpt><trkpt lat="42.9668907" lon="12.0941873"><ele>372.25</ele><time>2026-04-09T16:02:54.992Z</time></trkpt><trkpt lat="42.9670209" lon="12.0940865"><ele>368.5</ele><time>2026-04-09T16:02:55.992Z</time></trkpt><trkpt lat="42.9671534" lon="12.093985"><ele>364.75</ele><time>2026-04-09T16:02:56.992Z</time></trkpt><trkpt lat="42.9672717" lon="12.0938761"><ele>361.0</ele><time>2026-04-09T16:02:57.992Z</time></trkpt><trkpt lat="42.9673634" lon="12.0937248"><ele>361.0</ele><time>2026-04-09T16:02:58.992Z</time></trkpt><trkpt lat="42.9674169" lon="12.0935451"><ele>361.0</ele><time>2026-04-09T16:02:59.992Z</time></trkpt><trkpt lat="42.9674515" lon="12.0933728"><ele>361.0</ele><time>2026-04-09T16:03:00.992Z</time></trkpt><trkpt lat="42.967468" lon="12.0931886"><ele>361.0</ele><time>2026-04-09T16:03:01.991Z</time></trkpt><trkpt lat="42.967499" lon="12.0930181"><ele>355.75</ele><time>2026-04-09T16:03:02.992Z</time></trkpt><trkpt lat="42.9675502" lon="12.092863"><ele>350.5</ele><time>2026-04-09T16:03:03.991Z</time></trkpt><trkpt lat="42.9676131" lon="12.0927268"><ele>345.25</ele><time>2026-04-09T16:03:04.992Z</time></trkpt><trkpt lat="42.9677504" lon="12.0927607"><ele>340.0</ele><time>2026-04-09T16:03:05.992Z</time></trkpt><trkpt lat="42.9678471" lon="12.0928422"><ele>340.0</ele><time>2026-04-09T16:03:06.991Z</time></trkpt><trkpt lat="42.9679391" lon="12.0929345"><ele>340.0</ele><time>2026-04-09T16:03:07.992Z</time></trkpt><trkpt lat="42.9680243" lon="12.0930739"><ele>340.0</ele><time>2026-04-09T16:03:08.992Z</time></trkpt><trkpt lat="42.9681078" lon="12.0932194"><ele>340.0</ele><time>2026-04-09T16:03:09.992Z</time></trkpt><trkpt lat="42.9681884" lon="12.0933266"><ele>338.5</ele><time>2026-04-09T16:03:10.992Z</time></trkpt><trkpt lat="42.9682722" lon="12.0934214"><ele>337.0</ele><time>2026-04-09T16:03:11.992Z</time></trkpt><trkpt lat="42.9683543" lon="12.0932873"><ele>335.5</ele><time>2026-04-09T16:03:12.993Z</time></trkpt><trkpt lat="42.9684249" lon="12.0931634"><ele>334.0</ele><time>2026-04-09T16:03:13.991Z</time></trkpt><trkpt lat="42.9684889" lon="12.0929976"><ele>334.0</ele><time>2026-04-09T16:03:14.992Z</time></trkpt><trkpt lat="42.9685447" lon="12.0928372"><ele>334.0</ele><time>2026-04-09T16:03:15.991Z</time></trkpt><trkpt lat="42.9686015" lon="12.0926876"><ele>334.0</ele><time>2026-04-09T16:03:16.992Z</time></trkpt><trkpt lat="42.9686679" lon="12.0925619"><ele>334.0</ele><time>2026-04-09T16:03:17.992Z</time></trkpt><trkpt lat="42.9687373" lon="12.0924549"><ele>331.2</ele><time>2026-04-09T16:03:18.992Z</time></trkpt><trkpt lat="42.9688217" lon="12.0923625"><ele>328.4</ele><time>2026-04-09T16:03:19.992Z</time></trkpt><trkpt lat="42.968912" lon="12.092266"><ele>325.6</ele><time>2026-04-09T16:03:20.992Z</time></trkpt><trkpt lat="42.9690052" lon="12.0921782"><ele>322.8</ele><time>2026-04-09T16:03:21.991Z</time></trkpt><trkpt lat="42.9690973" lon="12.0921041"><ele>320.0</ele><time>2026-04-09T16:03:22.991Z</time></trkpt><trkpt lat="42.969197" lon="12.0920579"><ele>317.6</ele><time>2026-04-09T16:03:23.991Z</time></trkpt><trkpt lat="42.9693009" lon="12.092023"><ele>315.2</ele><time>2026-04-09T16:03:24.992Z</time></trkpt><trkpt lat="42.9694114" lon="12.0920263"><ele>312.8</ele><time>2026-04-09T16:03:25.992Z</time></trkpt><trkpt lat="42.9694959" lon="12.0920978"><ele>310.4</ele><time>2026-04-09T16:03:26.992Z</time></trkpt><trkpt lat="42.9695797" lon="12.0921874"><ele>308.0</ele><time>2026-04-09T16:03:27.992Z</time></trkpt><trkpt lat="42.9696541" lon="12.0922696"><ele>308.0</ele><time>2026-04-09T16:03:28.991Z</time></trkpt><trkpt lat="42.9697186" lon="12.0923752"><ele>308.0</ele><time>2026-04-09T16:03:29.991Z</time></trkpt><trkpt lat="42.9697625" lon="12.0924497"><ele>308.0</ele><time>2026-04-09T16:03:30.992Z</time></trkpt><trkpt lat="42.9698398" lon="12.0924353"><ele>308.0</ele><time>2026-04-09T16:03:31.992Z</time></trkpt><trkpt lat="42.9699092" lon="12.09233"><ele>308.0</ele><time>2026-04-09T16:03:33.992Z</time></trkpt><trkpt lat="42.9699581" lon="12.0922524"><ele>308.0</ele><time>2026-04-09T16:03:34.992Z</time></trkpt><trkpt lat="42.9699629" lon="12.0921326"><ele>308.0</ele><time>2026-04-09T16:03:35.993Z</time></trkpt><trkpt lat="42.9700238" lon="12.0920421"><ele>308.0</ele><time>2026-04-09T16:03:36.992Z</time></trkpt><trkpt lat="42.9700926" lon="12.0920356"><ele>308.0</ele><time>2026-04-09T16:03:37.991Z</time></trkpt><trkpt lat="42.9701855" lon="12.0920005"><ele>308.0</ele><time>2026-04-09T16:03:38.992Z</time></trkpt><trkpt lat="42.970281" lon="12.0919642"><ele>308.0</ele><time>2026-04-09T16:03:39.992Z</time></trkpt><trkpt lat="42.9703898" lon="12.0919263"><ele>307.25</ele><time>2026-04-09T16:03:40.992Z</time></trkpt><trkpt lat="42.970482" lon="12.091884"><ele>306.5</ele><time>2026-04-09T16:03:41.992Z</time></trkpt><trkpt lat="42.9705719" lon="12.0917635"><ele>305.75</ele><time>2026-04-09T16:03:42.992Z</time></trkpt><trkpt lat="42.970653" lon="12.0915941"><ele>305.0</ele><time>2026-04-09T16:03:43.992Z</time></trkpt><trkpt lat="42.9707031" lon="12.0914251"><ele>305.0</ele><time>2026-04-09T16:03:44.992Z</time></trkpt><trkpt lat="42.9707599" lon="12.0912547"><ele>305.0</ele><time>2026-04-09T16:03:45.992Z</time></trkpt><trkpt lat="42.9708336" lon="12.0911437"><ele>305.0</ele><time>2026-04-09T16:03:46.992Z</time></trkpt><trkpt lat="42.970936" lon="12.0910549"><ele>305.0</ele><time>2026-04-09T16:03:47.992Z</time></trkpt><trkpt lat="42.9710242" lon="12.0909867"><ele>304.8</ele><time>2026-04-09T16:03:48.991Z</time></trkpt><trkpt lat="42.9710987" lon="12.0908801"><ele>304.6</ele><time>2026-04-09T16:03:49.992Z</time></trkpt><trkpt lat="42.9711596" lon="12.0907717"><ele>304.4</ele><time>2026-04-09T16:03:50.991Z</time></trkpt><trkpt lat="42.9712101" lon="12.090649"><ele>304.2</ele><time>2026-04-09T16:03:51.992Z</time></trkpt><trkpt lat="42.9712299" lon="12.0904942"><ele>304.0</ele><time>2026-04-09T16:03:52.993Z</time></trkpt><trkpt lat="42.9710775" lon="12.0905196"><ele>304.0</ele><time>2026-04-09T16:03:53.992Z</time></trkpt><trkpt lat="42.9709458" lon="12.0905493"><ele>304.0</ele><time>2026-04-09T16:03:55.992Z</time></trkpt><trkpt lat="42.9708475" lon="12.0905758"><ele>304.0</ele><time>2026-04-09T16:03:56.992Z</time></trkpt><trkpt lat="42.9707849" lon="12.090501"><ele>304.0</ele><time>2026-04-09T16:03:57.992Z</time></trkpt><trkpt lat="42.9707361" lon="12.0903972"><ele>304.0</ele><time>2026-04-09T16:03:58.992Z</time></trkpt><trkpt lat="42.9707004" lon="12.0902914"><ele>301.59999999999997</ele><time>2026-04-09T16:03:59.992Z</time></trkpt><trkpt lat="42.9707314" lon="12.0901707"><ele>299.2</ele><time>2026-04-09T16:04:00.993Z</time></trkpt><trkpt lat="42.9707273" lon="12.0900608"><ele>296.79999999999995</ele><time>2026-04-09T16:04:01.992Z</time></trkpt><trkpt lat="42.9707228" lon="12.0899511"><ele>294.4</ele><time>2026-04-09T16:04:02.992Z</time></trkpt><trkpt lat="42.9706692" lon="12.089843"><ele>292.0</ele><time>2026-04-09T16:04:03.992Z</time></trkpt><trkpt lat="42.9705832" lon="12.0896999"><ele>290.8333333333333</ele><time>2026-04-09T16:04:05.992Z</time></trkpt><trkpt lat="42.9705316" lon="12.0896447"><ele>289.66666666666663</ele><time>2026-04-09T16:04:06.992Z</time></trkpt><trkpt lat="42.9704648" lon="12.0895959"><ele>288.5</ele><time>2026-04-09T16:04:07.992Z</time></trkpt><trkpt lat="42.9704035" lon="12.0895381"><ele>287.3333333333333</ele><time>2026-04-09T16:04:08.992Z</time></trkpt><trkpt lat="42.9703572" lon="12.0894351"><ele>286.1666666666667</ele><time>2026-04-09T16:04:09.992Z</time></trkpt><trkpt lat="42.9703175" lon="12.089328"><ele>285.0</ele><time>2026-04-09T16:04:10.992Z</time></trkpt><trkpt lat="42.9702715" lon="12.0892112"><ele>288.0</ele><time>2026-04-09T16:04:11.992Z</time></trkpt><trkpt lat="42.9702335" lon="12.0890665"><ele>291.0</ele><time>2026-04-09T16:04:12.992Z</time></trkpt><trkpt lat="42.9701976" lon="12.0889105"><ele>294.0</ele><time>2026-04-09T16:04:13.992Z</time></trkpt><trkpt lat="42.9701897" lon="12.0887513"><ele>297.0</ele><time>2026-04-09T16:04:14.992Z</time></trkpt><trkpt lat="42.9702124" lon="12.0886186"><ele>300.0</ele><time>2026-04-09T16:04:15.992Z</time></trkpt><trkpt lat="42.970266" lon="12.0885031"><ele>300.0</ele><time>2026-04-09T16:04:16.992Z</time></trkpt><trkpt lat="42.9703516" lon="12.0884182"><ele>300.0</ele><time>2026-04-09T16:04:17.992Z</time></trkpt><trkpt lat="42.9704412" lon="12.0883358"><ele>300.0</ele><time>2026-04-09T16:04:18.992Z</time></trkpt><trkpt lat="42.9705602" lon="12.0883056"><ele>300.0</ele><time>2026-04-09T16:04:19.993Z</time></trkpt><trkpt lat="42.9706798" lon="12.0882782"><ele>300.0</ele><time>2026-04-09T16:04:20.992Z</time></trkpt><trkpt lat="42.9708088" lon="12.0882639"><ele>300.0</ele><time>2026-04-09T16:04:21.992Z</time></trkpt><trkpt lat="42.9709439" lon="12.0882389"><ele>300.0</ele><time>2026-04-09T16:04:22.991Z</time></trkpt><trkpt lat="42.9710897" lon="12.0882141"><ele>300.0</ele><time>2026-04-09T16:04:23.992Z</time></trkpt><trkpt lat="42.9712515" lon="12.0881695"><ele>298.75</ele><time>2026-04-09T16:04:24.992Z</time></trkpt><trkpt lat="42.9714034" lon="12.0881035"><ele>297.5</ele><time>2026-04-09T16:04:25.992Z</time></trkpt><trkpt lat="42.9715336" lon="12.0880571"><ele>296.25</ele><time>2026-04-09T16:04:26.992Z</time></trkpt><trkpt lat="42.9716508" lon="12.0880164"><ele>295.0</ele><time>2026-04-09T16:04:27.992Z</time></trkpt><trkpt lat="42.9717545" lon="12.0879932"><ele>295.0</ele><time>2026-04-09T16:04:28.991Z</time></trkpt><trkpt lat="42.9718485" lon="12.087998"><ele>295.0</ele><time>2026-04-09T16:04:29.992Z</time></trkpt><trkpt lat="42.9719243" lon="12.0879958"><ele>295.0</ele><time>2026-04-09T16:04:30.991Z</time></trkpt><trkpt lat="42.9719935" lon="12.0879847"><ele>295.0</ele><time>2026-04-09T16:04:31.991Z</time></trkpt><trkpt lat="42.9720809" lon="12.0879638"><ele>295.0</ele><time>2026-04-09T16:04:32.992Z</time></trkpt><trkpt lat="42.9721494" lon="12.0879128"><ele>295.0</ele><time>2026-04-09T16:04:33.991Z</time></trkpt><trkpt lat="42.9722097" lon="12.0878412"><ele>295.0</ele><time>2026-04-09T16:04:34.992Z</time></trkpt><trkpt lat="42.9722647" lon="12.0877715"><ele>295.0</ele><time>2026-04-09T16:04:35.992Z</time></trkpt><trkpt lat="42.9722849" lon="12.0876675"><ele>295.0</ele><time>2026-04-09T16:04:36.992Z</time></trkpt><trkpt lat="42.9723417" lon="12.0875756"><ele>295.0</ele><time>2026-04-09T16:04:37.992Z</time></trkpt><trkpt lat="42.9723769" lon="12.0874942"><ele>295.0</ele><time>2026-04-09T16:04:38.992Z</time></trkpt><trkpt lat="42.9723977" lon="12.0874026"><ele>295.0</ele><time>2026-04-09T16:04:39.992Z</time></trkpt><trkpt lat="42.9724222" lon="12.0873085"><ele>294.3333333333333</ele><time>2026-04-09T16:04:40.993Z</time></trkpt><trkpt lat="42.9724437" lon="12.0872029"><ele>293.66666666666663</ele><time>2026-04-09T16:04:41.992Z</time></trkpt><trkpt lat="42.9724455" lon="12.0870939"><ele>293.0</ele><time>2026-04-09T16:04:42.992Z</time></trkpt><trkpt lat="42.9724264" lon="12.0869871"><ele>292.3333333333333</ele><time>2026-04-09T16:04:43.992Z</time></trkpt><trkpt lat="42.9724038" lon="12.0868683"><ele>291.6666666666667</ele><time>2026-04-09T16:04:44.992Z</time></trkpt><trkpt lat="42.9723809" lon="12.0867528"><ele>291.0</ele><time>2026-04-09T16:04:45.992Z</time></trkpt><trkpt lat="42.972346" lon="12.0866333"><ele>289.40000000000003</ele><time>2026-04-09T16:04:46.992Z</time></trkpt><trkpt lat="42.9723022" lon="12.0865121"><ele>287.8</ele><time>2026-04-09T16:04:47.991Z</time></trkpt><trkpt lat="42.9722645" lon="12.0863847"><ele>286.20000000000005</ele><time>2026-04-09T16:04:48.992Z</time></trkpt><trkpt lat="42.9722288" lon="12.0862434"><ele>284.6</ele><time>2026-04-09T16:04:49.992Z</time></trkpt><trkpt lat="42.9722688" lon="12.0860763"><ele>283.0</ele><time>2026-04-09T16:04:50.992Z</time></trkpt><trkpt lat="42.9723058" lon="12.0858932"><ele>283.3333333333333</ele><time>2026-04-09T16:04:51.993Z</time></trkpt><trkpt lat="42.9723493" lon="12.0857066"><ele>283.6666666666667</ele><time>2026-04-09T16:04:52.992Z</time></trkpt><trkpt lat="42.9724018" lon="12.0855112"><ele>284.0</ele><time>2026-04-09T16:04:53.992Z</time></trkpt><trkpt lat="42.9724634" lon="12.0853102"><ele>284.75</ele><time>2026-04-09T16:04:54.992Z</time></trkpt><trkpt lat="42.9725354" lon="12.0851176"><ele>285.5</ele><time>2026-04-09T16:04:55.992Z</time></trkpt><trkpt lat="42.9726127" lon="12.0849462"><ele>286.25</ele><time>2026-04-09T16:04:56.992Z</time></trkpt><trkpt lat="42.9726713" lon="12.0847929"><ele>287.0</ele><time>2026-04-09T16:04:57.992Z</time></trkpt><trkpt lat="42.9727395" lon="12.0846596"><ele>287.6666666666667</ele><time>2026-04-09T16:04:58.992Z</time></trkpt><trkpt lat="42.9728143" lon="12.0845613"><ele>288.33333333333337</ele><time>2026-04-09T16:04:59.992Z</time></trkpt><trkpt lat="42.9728985" lon="12.0845067"><ele>289.0</ele><time>2026-04-09T16:05:00.992Z</time></trkpt><trkpt lat="42.9729747" lon="12.0845035"><ele>289.6666666666667</ele><time>2026-04-09T16:05:01.992Z</time></trkpt><trkpt lat="42.9730444" lon="12.0845468"><ele>290.3333333333333</ele><time>2026-04-09T16:05:02.992Z</time></trkpt><trkpt lat="42.9731029" lon="12.0846114"><ele>291.0</ele><time>2026-04-09T16:05:03.992Z</time></trkpt><trkpt lat="42.9731684" lon="12.0847085"><ele>291.0</ele><time>2026-04-09T16:05:04.992Z</time></trkpt><trkpt lat="42.9732487" lon="12.0848181"><ele>291.0</ele><time>2026-04-09T16:05:05.992Z</time></trkpt><trkpt lat="42.9733404" lon="12.0849415"><ele>291.0</ele><time>2026-04-09T16:05:06.99Z</time></trkpt><trkpt lat="42.9734463" lon="12.0850763"><ele>291.0</ele><time>2026-04-09T16:05:07.993Z</time></trkpt><trkpt lat="42.9735694" lon="12.0852252"><ele>291.3333333333333</ele><time>2026-04-09T16:05:08.992Z</time></trkpt><trkpt lat="42.9736897" lon="12.0853966"><ele>291.66666666666663</ele><time>2026-04-09T16:05:09.991Z</time></trkpt><trkpt lat="42.9738175" lon="12.0855755"><ele>292.0</ele><time>2026-04-09T16:05:10.992Z</time></trkpt><trkpt lat="42.973944" lon="12.0857757"><ele>290.66666666666663</ele><time>2026-04-09T16:05:11.992Z</time></trkpt><trkpt lat="42.9740857" lon="12.0859619"><ele>289.3333333333333</ele><time>2026-04-09T16:05:12.992Z</time></trkpt><trkpt lat="42.9742194" lon="12.0861359"><ele>288.0</ele><time>2026-04-09T16:05:13.992Z</time></trkpt><trkpt lat="42.9743357" lon="12.0863045"><ele>288.0</ele><time>2026-04-09T16:05:14.992Z</time></trkpt><trkpt lat="42.9744492" lon="12.0864747"><ele>288.0</ele><time>2026-04-09T16:05:15.992Z</time></trkpt><trkpt lat="42.9745381" lon="12.0866689"><ele>288.0</ele><time>2026-04-09T16:05:16.992Z</time></trkpt><trkpt lat="42.9745997" lon="12.0868715"><ele>287.5</ele><time>2026-04-09T16:05:17.992Z</time></trkpt><trkpt lat="42.9746374" lon="12.0870763"><ele>287.0</ele><time>2026-04-09T16:05:18.992Z</time></trkpt><trkpt lat="42.9746515" lon="12.0872635"><ele>286.5</ele><time>2026-04-09T16:05:19.992Z</time></trkpt><trkpt lat="42.9746698" lon="12.0874625"><ele>286.0</ele><time>2026-04-09T16:05:20.991Z</time></trkpt><trkpt lat="42.9746798" lon="12.0876571"><ele>285.66666666666663</ele><time>2026-04-09T16:05:21.992Z</time></trkpt><trkpt lat="42.9746752" lon="12.0878614"><ele>285.3333333333333</ele><time>2026-04-09T16:05:22.992Z</time></trkpt><trkpt lat="42.9746742" lon="12.0880754"><ele>285.0</ele><time>2026-04-09T16:05:23.992Z</time></trkpt><trkpt lat="42.9746819" lon="12.0882837"><ele>284.0</ele><time>2026-04-09T16:05:24.992Z</time></trkpt><trkpt lat="42.9747116" lon="12.0885226"><ele>283.0</ele><time>2026-04-09T16:05:25.992Z</time></trkpt><trkpt lat="42.9747519" lon="12.0887501"><ele>282.0</ele><time>2026-04-09T16:05:26.992Z</time></trkpt><trkpt lat="42.9748304" lon="12.0889798"><ele>282.0</ele><time>2026-04-09T16:05:27.992Z</time></trkpt><trkpt lat="42.9749326" lon="12.0891999"><ele>282.0</ele><time>2026-04-09T16:05:28.992Z</time></trkpt><trkpt lat="42.9750538" lon="12.0893878"><ele>282.0</ele><time>2026-04-09T16:05:29.992Z</time></trkpt><trkpt lat="42.9751975" lon="12.0895416"><ele>282.0</ele><time>2026-04-09T16:05:30.992Z</time></trkpt><trkpt lat="42.9753494" lon="12.0896763"><ele>282.0</ele><time>2026-04-09T16:05:31.992Z</time></trkpt><trkpt lat="42.9755211" lon="12.0898213"><ele>282.0</ele><time>2026-04-09T16:05:32.992Z</time></trkpt><trkpt lat="42.9756875" lon="12.089956"><ele>282.0</ele><time>2026-04-09T16:05:33.991Z</time></trkpt><trkpt lat="42.9758602" lon="12.0900894"><ele>282.0</ele><time>2026-04-09T16:05:34.992Z</time></trkpt><trkpt lat="42.9760335" lon="12.0902252"><ele>282.0</ele><time>2026-04-09T16:05:35.993Z</time></trkpt><trkpt lat="42.9762263" lon="12.0903778"><ele>282.0</ele><time>2026-04-09T16:05:36.992Z</time></trkpt><trkpt lat="42.9764121" lon="12.0905273"><ele>282.0</ele><time>2026-04-09T16:05:37.992Z</time></trkpt><trkpt lat="42.9766012" lon="12.0906734"><ele>282.0</ele><time>2026-04-09T16:05:38.992Z</time></trkpt><trkpt lat="42.976783" lon="12.0908183"><ele>282.0</ele><time>2026-04-09T16:05:39.992Z</time></trkpt><trkpt lat="42.9769597" lon="12.0909707"><ele>282.0</ele><time>2026-04-09T16:05:40.992Z</time></trkpt><trkpt lat="42.9771252" lon="12.0911314"><ele>282.0</ele><time>2026-04-09T16:05:41.993Z</time></trkpt><trkpt lat="42.9772962" lon="12.0913119"><ele>282.0</ele><time>2026-04-09T16:05:42.992Z</time></trkpt><trkpt lat="42.9774571" lon="12.0915027"><ele>282.0</ele><time>2026-04-09T16:05:43.992Z</time></trkpt><trkpt lat="42.9776077" lon="12.0916911"><ele>282.0</ele><time>2026-04-09T16:05:44.992Z</time></trkpt><trkpt lat="42.9777589" lon="12.091892"><ele>281.3333333333333</ele><time>2026-04-09T16:05:45.992Z</time></trkpt><trkpt lat="42.9779033" lon="12.0921065"><ele>280.66666666666663</ele><time>2026-04-09T16:05:46.992Z</time></trkpt><trkpt lat="42.9780431" lon="12.0923157"><ele>280.0</ele><time>2026-04-09T16:05:47.992Z</time></trkpt><trkpt lat="42.9782054" lon="12.0925215"><ele>281.3333333333333</ele><time>2026-04-09T16:05:48.992Z</time></trkpt><trkpt lat="42.978356" lon="12.0926885"><ele>282.6666666666667</ele><time>2026-04-09T16:05:49.992Z</time></trkpt><trkpt lat="42.9785385" lon="12.0928317"><ele>284.0</ele><time>2026-04-09T16:05:50.992Z</time></trkpt><trkpt lat="42.9787365" lon="12.0929557"><ele>284.0</ele><time>2026-04-09T16:05:51.992Z</time></trkpt><trkpt lat="42.9789371" lon="12.093076"><ele>284.0</ele><time>2026-04-09T16:05:52.992Z</time></trkpt><trkpt lat="42.979139" lon="12.0931614"><ele>284.0</ele><time>2026-04-09T16:05:53.992Z</time></trkpt><trkpt lat="42.9793482" lon="12.0932495"><ele>282.33333333333337</ele><time>2026-04-09T16:05:54.992Z</time></trkpt><trkpt lat="42.9795546" lon="12.0933396"><ele>280.6666666666667</ele><time>2026-04-09T16:05:55.992Z</time></trkpt><trkpt lat="42.9797555" lon="12.0934197"><ele>279.0</ele><time>2026-04-09T16:05:56.992Z</time></trkpt><trkpt lat="42.9799547" lon="12.093506"><ele>278.0</ele><time>2026-04-09T16:05:57.992Z</time></trkpt><trkpt lat="42.980153" lon="12.0935854"><ele>277.0</ele><time>2026-04-09T16:05:58.992Z</time></trkpt><trkpt lat="42.980351" lon="12.0936753"><ele>276.0</ele><time>2026-04-09T16:05:59.992Z</time></trkpt><trkpt lat="42.9805501" lon="12.0937762"><ele>276.0</ele><time>2026-04-09T16:06:00.992Z</time></trkpt><trkpt lat="42.9807474" lon="12.0938811"><ele>276.0</ele><time>2026-04-09T16:06:01.991Z</time></trkpt><trkpt lat="42.9809446" lon="12.0940035"><ele>276.0</ele><time>2026-04-09T16:06:02.992Z</time></trkpt><trkpt lat="42.9811243" lon="12.0941304"><ele>273.0</ele><time>2026-04-09T16:06:03.992Z</time></trkpt><trkpt lat="42.9813094" lon="12.094253"><ele>270.0</ele><time>2026-04-09T16:06:04.992Z</time></trkpt><trkpt lat="42.9814893" lon="12.0943962"><ele>267.0</ele><time>2026-04-09T16:06:05.992Z</time></trkpt><trkpt lat="42.9816707" lon="12.0945458"><ele>267.0</ele><time>2026-04-09T16:06:06.992Z</time></trkpt><trkpt lat="42.9818456" lon="12.0947004"><ele>267.0</ele><time>2026-04-09T16:06:07.992Z</time></trkpt><trkpt lat="42.9820172" lon="12.0948535"><ele>267.0</ele><time>2026-04-09T16:06:08.992Z</time></trkpt><trkpt lat="42.9822028" lon="12.095002"><ele>267.0</ele><time>2026-04-09T16:06:09.993Z</time></trkpt><trkpt lat="42.982382" lon="12.0951489"><ele>267.0</ele><time>2026-04-09T16:06:10.992Z</time></trkpt><trkpt lat="42.9825701" lon="12.0952948"><ele>267.0</ele><time>2026-04-09T16:06:11.992Z</time></trkpt><trkpt lat="42.9827533" lon="12.0954462"><ele>267.6666666666667</ele><time>2026-04-09T16:06:12.992Z</time></trkpt><trkpt lat="42.982938" lon="12.095598"><ele>268.33333333333337</ele><time>2026-04-09T16:06:13.992Z</time></trkpt><trkpt lat="42.9831133" lon="12.0957641"><ele>269.0</ele><time>2026-04-09T16:06:14.992Z</time></trkpt><trkpt lat="42.9832862" lon="12.0959228"><ele>273.6666666666667</ele><time>2026-04-09T16:06:15.991Z</time></trkpt><trkpt lat="42.9834694" lon="12.0961022"><ele>278.3333333333333</ele><time>2026-04-09T16:06:16.992Z</time></trkpt><trkpt lat="42.9836273" lon="12.0962985"><ele>283.0</ele><time>2026-04-09T16:06:17.992Z</time></trkpt><trkpt lat="42.9837761" lon="12.0965256"><ele>278.0</ele><time>2026-04-09T16:06:18.992Z</time></trkpt><trkpt lat="42.9838948" lon="12.0967659"><ele>273.0</ele><time>2026-04-09T16:06:19.992Z</time></trkpt><trkpt lat="42.9840133" lon="12.0970156"><ele>268.0</ele><time>2026-04-09T16:06:20.992Z</time></trkpt><trkpt lat="42.9841202" lon="12.0972604"><ele>269.0</ele><time>2026-04-09T16:06:21.993Z</time></trkpt><trkpt lat="42.9842587" lon="12.0974807"><ele>270.0</ele><time>2026-04-09T16:06:22.991Z</time></trkpt><trkpt lat="42.9844194" lon="12.0976848"><ele>271.0</ele><time>2026-04-09T16:06:23.993Z</time></trkpt><trkpt lat="42.9845936" lon="12.0978733"><ele>271.0</ele><time>2026-04-09T16:06:24.992Z</time></trkpt><trkpt lat="42.9847762" lon="12.0980362"><ele>271.0</ele><time>2026-04-09T16:06:25.993Z</time></trkpt><trkpt lat="42.9849522" lon="12.0981913"><ele>271.0</ele><time>2026-04-09T16:06:26.993Z</time></trkpt><trkpt lat="42.9851234" lon="12.0983601"><ele>269.66666666666663</ele><time>2026-04-09T16:06:27.992Z</time></trkpt><trkpt lat="42.9852865" lon="12.0985589"><ele>268.3333333333333</ele><time>2026-04-09T16:06:28.992Z</time></trkpt><trkpt lat="42.9854336" lon="12.0987694"><ele>267.0</ele><time>2026-04-09T16:06:29.992Z</time></trkpt><trkpt lat="42.985566" lon="12.0989901"><ele>267.0</ele><time>2026-04-09T16:06:30.992Z</time></trkpt><trkpt lat="42.9856923" lon="12.0992165"><ele>267.0</ele><time>2026-04-09T16:06:31.992Z</time></trkpt><trkpt lat="42.9858244" lon="12.0994508"><ele>267.0</ele><time>2026-04-09T16:06:32.993Z</time></trkpt><trkpt lat="42.9859585" lon="12.0996707"><ele>267.0</ele><time>2026-04-09T16:06:33.992Z</time></trkpt><trkpt lat="42.9861115" lon="12.0998759"><ele>267.0</ele><time>2026-04-09T16:06:34.992Z</time></trkpt><trkpt lat="42.9862725" lon="12.1000586"><ele>267.0</ele><time>2026-04-09T16:06:35.992Z</time></trkpt><trkpt lat="42.9864493" lon="12.1002172"><ele>265.3333333333333</ele><time>2026-04-09T16:06:36.992Z</time></trkpt><trkpt lat="42.98663" lon="12.1003619"><ele>263.66666666666663</ele><time>2026-04-09T16:06:37.993Z</time></trkpt><trkpt lat="42.9868234" lon="12.1005028"><ele>262.0</ele><time>2026-04-09T16:06:38.992Z</time></trkpt><trkpt lat="42.9870121" lon="12.1006548"><ele>260.3333333333333</ele><time>2026-04-09T16:06:39.992Z</time></trkpt><trkpt lat="42.9871972" lon="12.1007921"><ele>258.6666666666667</ele><time>2026-04-09T16:06:40.992Z</time></trkpt><trkpt lat="42.9873685" lon="12.1009195"><ele>257.0</ele><time>2026-04-09T16:06:41.993Z</time></trkpt><trkpt lat="42.9875441" lon="12.1010724"><ele>257.0</ele><time>2026-04-09T16:06:42.992Z</time></trkpt><trkpt lat="42.9877317" lon="12.1012207"><ele>257.0</ele><time>2026-04-09T16:06:43.992Z</time></trkpt><trkpt lat="42.9879011" lon="12.1014001"><ele>257.0</ele><time>2026-04-09T16:06:44.992Z</time></trkpt><trkpt lat="42.9880639" lon="12.1015894"><ele>256.33333333333337</ele><time>2026-04-09T16:06:45.992Z</time></trkpt><trkpt lat="42.9882026" lon="12.1017962"><ele>255.66666666666669</ele><time>2026-04-09T16:06:46.992Z</time></trkpt><trkpt lat="42.9883256" lon="12.1020306"><ele>255.0</ele><time>2026-04-09T16:06:47.992Z</time></trkpt><trkpt lat="42.9884278" lon="12.1022785"><ele>255.66666666666669</ele><time>2026-04-09T16:06:48.992Z</time></trkpt><trkpt lat="42.9885244" lon="12.1025323"><ele>256.33333333333337</ele><time>2026-04-09T16:06:49.992Z</time></trkpt><trkpt lat="42.9886154" lon="12.1027925"><ele>257.0</ele><time>2026-04-09T16:06:50.992Z</time></trkpt><trkpt lat="42.9887041" lon="12.1030489"><ele>256.0</ele><time>2026-04-09T16:06:51.992Z</time></trkpt><trkpt lat="42.9887957" lon="12.1033054"><ele>255.0</ele><time>2026-04-09T16:06:52.992Z</time></trkpt><trkpt lat="42.9888895" lon="12.1035586"><ele>254.0</ele><time>2026-04-09T16:06:53.992Z</time></trkpt><trkpt lat="42.9889815" lon="12.1038217"><ele>254.0</ele><time>2026-04-09T16:06:54.992Z</time></trkpt><trkpt lat="42.9890803" lon="12.1040799"><ele>254.0</ele><time>2026-04-09T16:06:55.993Z</time></trkpt><trkpt lat="42.9891803" lon="12.104348"><ele>254.0</ele><time>2026-04-09T16:06:56.992Z</time></trkpt><trkpt lat="42.9892798" lon="12.1046107"><ele>254.0</ele><time>2026-04-09T16:06:57.991Z</time></trkpt><trkpt lat="42.98937" lon="12.1048749"><ele>254.0</ele><time>2026-04-09T16:06:58.992Z</time></trkpt><trkpt lat="42.9894593" lon="12.1051376"><ele>254.0</ele><time>2026-04-09T16:06:59.992Z</time></trkpt><trkpt lat="42.989541" lon="12.1054001"><ele>254.0</ele><time>2026-04-09T16:07:00.992Z</time></trkpt><trkpt lat="42.9896364" lon="12.1056583"><ele>254.0</ele><time>2026-04-09T16:07:01.992Z</time></trkpt><trkpt lat="42.9897248" lon="12.1059309"><ele>254.0</ele><time>2026-04-09T16:07:02.992Z</time></trkpt><trkpt lat="42.9898174" lon="12.106194"><ele>254.0</ele><time>2026-04-09T16:07:03.992Z</time></trkpt><trkpt lat="42.9899136" lon="12.1064543"><ele>254.0</ele><time>2026-04-09T16:07:04.992Z</time></trkpt><trkpt lat="42.9899988" lon="12.1067172"><ele>254.0</ele><time>2026-04-09T16:07:05.992Z</time></trkpt><trkpt lat="42.9901003" lon="12.1069785"><ele>254.0</ele><time>2026-04-09T16:07:06.992Z</time></trkpt><trkpt lat="42.9901965" lon="12.1072398"><ele>254.0</ele><time>2026-04-09T16:07:07.991Z</time></trkpt><trkpt lat="42.990297" lon="12.1075027"><ele>254.0</ele><time>2026-04-09T16:07:08.993Z</time></trkpt><trkpt lat="42.9904005" lon="12.1077498"><ele>253.0</ele><time>2026-04-09T16:07:09.991Z</time></trkpt><trkpt lat="42.9904916" lon="12.1080055"><ele>252.0</ele><time>2026-04-09T16:07:10.993Z</time></trkpt><trkpt lat="42.9905918" lon="12.1082715"><ele>251.0</ele><time>2026-04-09T16:07:11.992Z</time></trkpt><trkpt lat="42.9906858" lon="12.108531"><ele>251.0</ele><time>2026-04-09T16:07:12.992Z</time></trkpt><trkpt lat="42.9907777" lon="12.1087915"><ele>251.0</ele><time>2026-04-09T16:07:13.993Z</time></trkpt><trkpt lat="42.9908717" lon="12.1090584"><ele>251.0</ele><time>2026-04-09T16:07:14.993Z</time></trkpt><trkpt lat="42.9909622" lon="12.1093245"><ele>250.0</ele><time>2026-04-09T16:07:15.992Z</time></trkpt><trkpt lat="42.9910529" lon="12.1095895"><ele>249.0</ele><time>2026-04-09T16:07:16.992Z</time></trkpt><trkpt lat="42.9911367" lon="12.1098543"><ele>248.0</ele><time>2026-04-09T16:07:17.992Z</time></trkpt><trkpt lat="42.9912332" lon="12.1101297"><ele>247.33333333333334</ele><time>2026-04-09T16:07:18.993Z</time></trkpt><trkpt lat="42.9913242" lon="12.1103911"><ele>246.66666666666669</ele><time>2026-04-09T16:07:19.993Z</time></trkpt><trkpt lat="42.9914131" lon="12.1106611"><ele>246.0</ele><time>2026-04-09T16:07:20.993Z</time></trkpt><trkpt lat="42.9914839" lon="12.1109302"><ele>245.33333333333331</ele><time>2026-04-09T16:07:21.992Z</time></trkpt><trkpt lat="42.9915507" lon="12.1112016"><ele>244.66666666666666</ele><time>2026-04-09T16:07:22.993Z</time></trkpt><trkpt lat="42.9915985" lon="12.1114854"><ele>244.0</ele><time>2026-04-09T16:07:23.993Z</time></trkpt><trkpt lat="42.9916333" lon="12.1117623"><ele>244.0</ele><time>2026-04-09T16:07:24.991Z</time></trkpt><trkpt lat="42.9916557" lon="12.1120237"><ele>244.0</ele><time>2026-04-09T16:07:25.992Z</time></trkpt><trkpt lat="42.9916815" lon="12.112271"><ele>244.0</ele><time>2026-04-09T16:07:26.992Z</time></trkpt><trkpt lat="42.9917123" lon="12.1125162"><ele>244.0</ele><time>2026-04-09T16:07:27.993Z</time></trkpt><trkpt lat="42.9917295" lon="12.1127355"><ele>244.0</ele><time>2026-04-09T16:07:28.992Z</time></trkpt><trkpt lat="42.9917305" lon="12.1129384"><ele>244.0</ele><time>2026-04-09T16:07:29.992Z</time></trkpt><trkpt lat="42.9917044" lon="12.1131428"><ele>244.0</ele><time>2026-04-09T16:07:30.992Z</time></trkpt><trkpt lat="42.9916505" lon="12.1133253"><ele>244.0</ele><time>2026-04-09T16:07:31.993Z</time></trkpt><trkpt lat="42.99159" lon="12.1134865"><ele>244.0</ele><time>2026-04-09T16:07:32.993Z</time></trkpt><trkpt lat="42.9915451" lon="12.1136573"><ele>244.0</ele><time>2026-04-09T16:07:33.992Z</time></trkpt><trkpt lat="42.9915401" lon="12.1138261"><ele>244.0</ele><time>2026-04-09T16:07:34.993Z</time></trkpt><trkpt lat="42.991579" lon="12.1139882"><ele>244.0</ele><time>2026-04-09T16:07:35.992Z</time></trkpt><trkpt lat="42.9916495" lon="12.1141157"><ele>244.0</ele><time>2026-04-09T16:07:36.992Z</time></trkpt><trkpt lat="42.9917466" lon="12.1142239"><ele>244.0</ele><time>2026-04-09T16:07:37.992Z</time></trkpt><trkpt lat="42.9918461" lon="12.1143331"><ele>243.75</ele><time>2026-04-09T16:07:38.992Z</time></trkpt><trkpt lat="42.991948" lon="12.1144548"><ele>243.5</ele><time>2026-04-09T16:07:39.992Z</time></trkpt><trkpt lat="42.9920256" lon="12.1146219"><ele>243.25</ele><time>2026-04-09T16:07:40.993Z</time></trkpt><trkpt lat="42.9921033" lon="12.1148191"><ele>243.0</ele><time>2026-04-09T16:07:41.992Z</time></trkpt><trkpt lat="42.9921658" lon="12.11502"><ele>243.0</ele><time>2026-04-09T16:07:42.992Z</time></trkpt><trkpt lat="42.9922218" lon="12.1152245"><ele>243.0</ele><time>2026-04-09T16:07:43.992Z</time></trkpt><trkpt lat="42.9922734" lon="12.115448"><ele>243.0</ele><time>2026-04-09T16:07:44.992Z</time></trkpt><trkpt lat="42.9923364" lon="12.115665"><ele>243.66666666666669</ele><time>2026-04-09T16:07:45.993Z</time></trkpt><trkpt lat="42.9924114" lon="12.1158906"><ele>244.33333333333334</ele><time>2026-04-09T16:07:46.993Z</time></trkpt><trkpt lat="42.9924746" lon="12.1161166"><ele>245.0</ele><time>2026-04-09T16:07:47.993Z</time></trkpt><trkpt lat="42.9925407" lon="12.116341"><ele>245.33333333333334</ele><time>2026-04-09T16:07:48.993Z</time></trkpt><trkpt lat="42.9926009" lon="12.1165617"><ele>245.66666666666669</ele><time>2026-04-09T16:07:49.992Z</time></trkpt><trkpt lat="42.9926701" lon="12.1167869"><ele>246.0</ele><time>2026-04-09T16:07:50.992Z</time></trkpt><trkpt lat="42.9927398" lon="12.1170088"><ele>246.0</ele><time>2026-04-09T16:07:51.993Z</time></trkpt><trkpt lat="42.9928132" lon="12.1172393"><ele>246.0</ele><time>2026-04-09T16:07:52.992Z</time></trkpt><trkpt lat="42.9928989" lon="12.1174778"><ele>246.0</ele><time>2026-04-09T16:07:53.992Z</time></trkpt><trkpt lat="42.9930006" lon="12.117712"><ele>245.33333333333331</ele><time>2026-04-09T16:07:54.992Z</time></trkpt><trkpt lat="42.9931188" lon="12.1179469"><ele>244.66666666666666</ele><time>2026-04-09T16:07:55.993Z</time></trkpt><trkpt lat="42.9932412" lon="12.1181693"><ele>244.0</ele><time>2026-04-09T16:07:56.992Z</time></trkpt><trkpt lat="42.9933667" lon="12.1183927"><ele>243.66666666666666</ele><time>2026-04-09T16:07:57.993Z</time></trkpt><trkpt lat="42.993505" lon="12.1186226"><ele>243.33333333333331</ele><time>2026-04-09T16:07:58.992Z</time></trkpt><trkpt lat="42.9936402" lon="12.1188566"><ele>243.0</ele><time>2026-04-09T16:07:59.991Z</time></trkpt><trkpt lat="42.9937786" lon="12.1190978"><ele>243.0</ele><time>2026-04-09T16:08:00.992Z</time></trkpt><trkpt lat="42.9939152" lon="12.1193437"><ele>243.0</ele><time>2026-04-09T16:08:01.992Z</time></trkpt><trkpt lat="42.9940593" lon="12.1195969"><ele>243.0</ele><time>2026-04-09T16:08:02.991Z</time></trkpt><trkpt lat="42.9942155" lon="12.11986"><ele>243.0</ele><time>2026-04-09T16:08:03.993Z</time></trkpt><trkpt lat="42.9943739" lon="12.1201186"><ele>242.5</ele><time>2026-04-09T16:08:04.992Z</time></trkpt><trkpt lat="42.9945311" lon="12.120391"><ele>242.0</ele><time>2026-04-09T16:08:05.993Z</time></trkpt><trkpt lat="42.9946915" lon="12.1206654"><ele>240.5</ele><time>2026-04-09T16:08:06.993Z</time></trkpt><trkpt lat="42.9948511" lon="12.120947"><ele>239.0</ele><time>2026-04-09T16:08:07.993Z</time></trkpt><trkpt lat="42.9950004" lon="12.121237"><ele>239.5</ele><time>2026-04-09T16:08:08.991Z</time></trkpt><trkpt lat="42.9951394" lon="12.1215293"><ele>240.0</ele><time>2026-04-09T16:08:09.992Z</time></trkpt><trkpt lat="42.9952579" lon="12.1218218"><ele>240.0</ele><time>2026-04-09T16:08:10.992Z</time></trkpt><trkpt lat="42.995368" lon="12.1221264"><ele>240.0</ele><time>2026-04-09T16:08:11.993Z</time></trkpt><trkpt lat="42.9954524" lon="12.1224287"><ele>240.0</ele><time>2026-04-09T16:08:12.992Z</time></trkpt><trkpt lat="42.9955157" lon="12.1227291"><ele>240.0</ele><time>2026-04-09T16:08:13.992Z</time></trkpt><trkpt lat="42.9955687" lon="12.1230305"><ele>240.33333333333331</ele><time>2026-04-09T16:08:14.992Z</time></trkpt><trkpt lat="42.995622" lon="12.1233258"><ele>240.66666666666666</ele><time>2026-04-09T16:08:15.992Z</time></trkpt><trkpt lat="42.9956813" lon="12.1236211"><ele>241.0</ele><time>2026-04-09T16:08:16.993Z</time></trkpt><trkpt lat="42.995737" lon="12.123949"><ele>241.5</ele><time>2026-04-09T16:08:17.993Z</time></trkpt><trkpt lat="42.9957952" lon="12.1243033"><ele>242.0</ele><time>2026-04-09T16:08:18.993Z</time></trkpt><trkpt lat="42.9958456" lon="12.1246737"><ele>239.0</ele><time>2026-04-09T16:08:19.992Z</time></trkpt><trkpt lat="42.9959032" lon="12.125065"><ele>236.0</ele><time>2026-04-09T16:08:20.993Z</time></trkpt><trkpt lat="42.9959647" lon="12.1254728"><ele>236.0</ele><time>2026-04-09T16:08:21.992Z</time></trkpt><trkpt lat="42.9960234" lon="12.1258807"><ele>236.0</ele><time>2026-04-09T16:08:22.993Z</time></trkpt><trkpt lat="42.9960817" lon="12.1262785"><ele>236.5</ele><time>2026-04-09T16:08:23.992Z</time></trkpt><trkpt lat="42.996126" lon="12.1266776"><ele>237.0</ele><time>2026-04-09T16:08:24.993Z</time></trkpt><trkpt lat="42.9961688" lon="12.1270458"><ele>237.5</ele><time>2026-04-09T16:08:25.992Z</time></trkpt><trkpt lat="42.9962161" lon="12.1274075"><ele>238.0</ele><time>2026-04-09T16:08:26.992Z</time></trkpt><trkpt lat="42.9962639" lon="12.1277592"><ele>238.0</ele><time>2026-04-09T16:08:27.992Z</time></trkpt><trkpt lat="42.9963189" lon="12.1281071"><ele>238.0</ele><time>2026-04-09T16:08:28.993Z</time></trkpt><trkpt lat="42.9963729" lon="12.1284485"><ele>237.5</ele><time>2026-04-09T16:08:29.993Z</time></trkpt><trkpt lat="42.9964257" lon="12.1287997"><ele>237.0</ele><time>2026-04-09T16:08:30.992Z</time></trkpt><trkpt lat="42.9964801" lon="12.1291457"><ele>236.5</ele><time>2026-04-09T16:08:31.993Z</time></trkpt><trkpt lat="42.9965383" lon="12.1294878"><ele>236.0</ele><time>2026-04-09T16:08:32.992Z</time></trkpt><trkpt lat="42.9965924" lon="12.1298349"><ele>236.0</ele><time>2026-04-09T16:08:33.993Z</time></trkpt><trkpt lat="42.9966457" lon="12.1301796"><ele>236.0</ele><time>2026-04-09T16:08:34.992Z</time></trkpt><trkpt lat="42.9966979" lon="12.1305327"><ele>235.5</ele><time>2026-04-09T16:08:35.991Z</time></trkpt><trkpt lat="42.9967523" lon="12.1308774"><ele>235.0</ele><time>2026-04-09T16:08:36.993Z</time></trkpt><trkpt lat="42.9967952" lon="12.1312254"><ele>235.5</ele><time>2026-04-09T16:08:37.992Z</time></trkpt><trkpt lat="42.9968477" lon="12.131573"><ele>236.0</ele><time>2026-04-09T16:08:38.993Z</time></trkpt><trkpt lat="42.996901" lon="12.1319173"><ele>236.0</ele><time>2026-04-09T16:08:39.991Z</time></trkpt><trkpt lat="42.996943" lon="12.132267"><ele>236.0</ele><time>2026-04-09T16:08:40.992Z</time></trkpt><trkpt lat="42.9970032" lon="12.1326121"><ele>235.5</ele><time>2026-04-09T16:08:41.992Z</time></trkpt><trkpt lat="42.9970611" lon="12.1329571"><ele>235.0</ele><time>2026-04-09T16:08:42.993Z</time></trkpt><trkpt lat="42.9971134" lon="12.133303"><ele>235.0</ele><time>2026-04-09T16:08:43.992Z</time></trkpt><trkpt lat="42.9971666" lon="12.1336474"><ele>235.0</ele><time>2026-04-09T16:08:44.993Z</time></trkpt><trkpt lat="42.9972136" lon="12.1339963"><ele>234.5</ele><time>2026-04-09T16:08:45.993Z</time></trkpt><trkpt lat="42.9972544" lon="12.1343482"><ele>234.0</ele><time>2026-04-09T16:08:46.993Z</time></trkpt><trkpt lat="42.9973048" lon="12.134694"><ele>234.0</ele><time>2026-04-09T16:08:47.992Z</time></trkpt><trkpt lat="42.9973582" lon="12.1350441"><ele>234.0</ele><time>2026-04-09T16:08:48.992Z</time></trkpt><trkpt lat="42.9974099" lon="12.1353873"><ele>234.0</ele><time>2026-04-09T16:08:49.992Z</time></trkpt><trkpt lat="42.997462" lon="12.1357259"><ele>234.0</ele><time>2026-04-09T16:08:50.992Z</time></trkpt><trkpt lat="42.9975204" lon="12.1360704"><ele>234.0</ele><time>2026-04-09T16:08:51.992Z</time></trkpt><trkpt lat="42.9975783" lon="12.1364314"><ele>234.0</ele><time>2026-04-09T16:08:52.992Z</time></trkpt><trkpt lat="42.9976282" lon="12.1367751"><ele>234.0</ele><time>2026-04-09T16:08:53.992Z</time></trkpt><trkpt lat="42.9976797" lon="12.1371156"><ele>234.0</ele><time>2026-04-09T16:08:54.993Z</time></trkpt><trkpt lat="42.9977397" lon="12.1374738"><ele>234.5</ele><time>2026-04-09T16:08:55.992Z</time></trkpt><trkpt lat="42.9977902" lon="12.137819"><ele>235.0</ele><time>2026-04-09T16:08:56.992Z</time></trkpt><trkpt lat="42.9978422" lon="12.1381648"><ele>234.5</ele><time>2026-04-09T16:08:57.992Z</time></trkpt><trkpt lat="42.9978921" lon="12.1385151"><ele>234.0</ele><time>2026-04-09T16:08:58.992Z</time></trkpt><trkpt lat="42.9979435" lon="12.1388578"><ele>233.5</ele><time>2026-04-09T16:08:59.992Z</time></trkpt><trkpt lat="42.9979976" lon="12.1392099"><ele>233.0</ele><time>2026-04-09T16:09:00.993Z</time></trkpt><trkpt lat="42.9980361" lon="12.1395466"><ele>233.0</ele><time>2026-04-09T16:09:01.993Z</time></trkpt><trkpt lat="42.9980731" lon="12.1398714"><ele>233.0</ele><time>2026-04-09T16:09:02.993Z</time></trkpt><trkpt lat="42.9980913" lon="12.1401708"><ele>233.33333333333334</ele><time>2026-04-09T16:09:03.992Z</time></trkpt><trkpt lat="42.9981022" lon="12.140454"><ele>233.66666666666669</ele><time>2026-04-09T16:09:04.993Z</time></trkpt><trkpt lat="42.9981248" lon="12.1407106"><ele>234.0</ele><time>2026-04-09T16:09:05.992Z</time></trkpt><trkpt lat="42.9981388" lon="12.1409586"><ele>234.0</ele><time>2026-04-09T16:09:06.993Z</time></trkpt><trkpt lat="42.9981501" lon="12.1411855"><ele>234.0</ele><time>2026-04-09T16:09:07.992Z</time></trkpt><trkpt lat="42.9981478" lon="12.1414229"><ele>234.0</ele><time>2026-04-09T16:09:08.993Z</time></trkpt><trkpt lat="42.9981226" lon="12.1416492"><ele>234.0</ele><time>2026-04-09T16:09:09.992Z</time></trkpt><trkpt lat="42.9980744" lon="12.1418656"><ele>234.0</ele><time>2026-04-09T16:09:10.992Z</time></trkpt><trkpt lat="42.9980115" lon="12.1420798"><ele>234.0</ele><time>2026-04-09T16:09:11.992Z</time></trkpt><trkpt lat="42.9979196" lon="12.1422666"><ele>233.75</ele><time>2026-04-09T16:09:12.993Z</time></trkpt><trkpt lat="42.997827" lon="12.1424348"><ele>233.5</ele><time>2026-04-09T16:09:13.992Z</time></trkpt><trkpt lat="42.9977161" lon="12.1425598"><ele>233.25</ele><time>2026-04-09T16:09:14.992Z</time></trkpt><trkpt lat="42.9976334" lon="12.1426938"><ele>233.0</ele><time>2026-04-09T16:09:15.993Z</time></trkpt><trkpt lat="42.9975845" lon="12.1428537"><ele>233.0</ele><time>2026-04-09T16:09:16.992Z</time></trkpt><trkpt lat="42.9975516" lon="12.1430169"><ele>233.0</ele><time>2026-04-09T16:09:17.993Z</time></trkpt><trkpt lat="42.9976083" lon="12.1432008"><ele>233.0</ele><time>2026-04-09T16:09:18.992Z</time></trkpt><trkpt lat="42.9976903" lon="12.1433769"><ele>233.0</ele><time>2026-04-09T16:09:19.992Z</time></trkpt><trkpt lat="42.9977673" lon="12.1435331"><ele>233.0</ele><time>2026-04-09T16:09:20.993Z</time></trkpt><trkpt lat="42.9978354" lon="12.1437136"><ele>233.0</ele><time>2026-04-09T16:09:21.992Z</time></trkpt><trkpt lat="42.9978681" lon="12.1438981"><ele>233.0</ele><time>2026-04-09T16:09:22.992Z</time></trkpt><trkpt lat="42.9979125" lon="12.144085"><ele>233.0</ele><time>2026-04-09T16:09:23.993Z</time></trkpt><trkpt lat="42.9979371" lon="12.1442543"><ele>233.0</ele><time>2026-04-09T16:09:24.993Z</time></trkpt><trkpt lat="42.997973" lon="12.1444058"><ele>233.0</ele><time>2026-04-09T16:09:25.993Z</time></trkpt><trkpt lat="42.9980326" lon="12.1445475"><ele>233.0</ele><time>2026-04-09T16:09:26.992Z</time></trkpt><trkpt lat="42.9981241" lon="12.1446583"><ele>233.0</ele><time>2026-04-09T16:09:27.993Z</time></trkpt><trkpt lat="42.9982367" lon="12.1447294"><ele>233.33333333333334</ele><time>2026-04-09T16:09:28.993Z</time></trkpt><trkpt lat="42.9983584" lon="12.1448061"><ele>233.66666666666669</ele><time>2026-04-09T16:09:29.992Z</time></trkpt><trkpt lat="42.9984811" lon="12.1448776"><ele>234.0</ele><time>2026-04-09T16:09:30.994Z</time></trkpt><trkpt lat="42.9986824" lon="12.1449136"><ele>233.0</ele><time>2026-04-09T16:09:31.993Z</time></trkpt><trkpt lat="42.9988372" lon="12.1449626"><ele>232.0</ele><time>2026-04-09T16:09:32.992Z</time></trkpt><trkpt lat="42.9989786" lon="12.1450182"><ele>231.0</ele><time>2026-04-09T16:09:33.992Z</time></trkpt><trkpt lat="42.9991256" lon="12.1450817"><ele>231.33333333333331</ele><time>2026-04-09T16:09:34.992Z</time></trkpt><trkpt lat="42.9992665" lon="12.1451506"><ele>231.66666666666666</ele><time>2026-04-09T16:09:35.992Z</time></trkpt><trkpt lat="42.9994033" lon="12.1452331"><ele>232.0</ele><time>2026-04-09T16:09:36.992Z</time></trkpt><trkpt lat="42.9995384" lon="12.1453451"><ele>232.0</ele><time>2026-04-09T16:09:37.993Z</time></trkpt><trkpt lat="42.999655" lon="12.1454557"><ele>232.0</ele><time>2026-04-09T16:09:38.993Z</time></trkpt><trkpt lat="42.9997742" lon="12.1455645"><ele>232.0</ele><time>2026-04-09T16:09:39.992Z</time></trkpt><trkpt lat="42.9998719" lon="12.1456978"><ele>232.0</ele><time>2026-04-09T16:09:40.992Z</time></trkpt><trkpt lat="43.0000139" lon="12.1457066"><ele>232.0</ele><time>2026-04-09T16:09:41.993Z</time></trkpt><trkpt lat="43.0001605" lon="12.145724"><ele>232.0</ele><time>2026-04-09T16:09:42.993Z</time></trkpt><trkpt lat="43.0003056" lon="12.1457102"><ele>232.0</ele><time>2026-04-09T16:09:43.993Z</time></trkpt><trkpt lat="43.0004546" lon="12.1457114"><ele>232.0</ele><time>2026-04-09T16:09:44.992Z</time></trkpt><trkpt lat="43.0005848" lon="12.1457378"><ele>231.8</ele><time>2026-04-09T16:09:45.993Z</time></trkpt><trkpt lat="43.0007063" lon="12.1457698"><ele>231.6</ele><time>2026-04-09T16:09:46.993Z</time></trkpt><trkpt lat="43.0008138" lon="12.145813"><ele>231.40000000000003</ele><time>2026-04-09T16:09:47.992Z</time></trkpt><trkpt lat="43.0008991" lon="12.1458745"><ele>231.20000000000002</ele><time>2026-04-09T16:09:48.991Z</time></trkpt><trkpt lat="43.0009637" lon="12.1459557"><ele>231.0</ele><time>2026-04-09T16:09:49.992Z</time></trkpt><trkpt lat="43.001" lon="12.146033"><ele>231.8</ele><time>2026-04-09T16:09:50.992Z</time></trkpt><trkpt lat="43.0010508" lon="12.1461535"><ele>232.60000000000002</ele><time>2026-04-09T16:09:52.992Z</time></trkpt><trkpt lat="43.0011028" lon="12.146229"><ele>233.4</ele><time>2026-04-09T16:09:54.993Z</time></trkpt><trkpt lat="43.0011979" lon="12.1462236"><ele>234.2</ele><time>2026-04-09T16:09:57.992Z</time></trkpt><trkpt lat="43.0012577" lon="12.1461375"><ele>235.0</ele><time>2026-04-09T16:09:59.992Z</time></trkpt><trkpt lat="43.0012881" lon="12.1459935"><ele>234.99999999999997</ele><time>2026-04-09T16:10:01.993Z</time></trkpt><trkpt lat="43.0013033" lon="12.1458275"><ele>235.0</ele><time>2026-04-09T16:10:03.992Z</time></trkpt><trkpt lat="43.0012977" lon="12.1457364"><ele>235.0</ele><time>2026-04-09T16:10:04.993Z</time></trkpt><trkpt lat="43.0013045" lon="12.1456414"><ele>235.0</ele><time>2026-04-09T16:10:05.992Z</time></trkpt><trkpt lat="43.001309" lon="12.1455355"><ele>234.99999999999997</ele><time>2026-04-09T16:10:06.993Z</time></trkpt><trkpt lat="43.0013095" lon="12.145428"><ele>235.0</ele><time>2026-04-09T16:10:07.992Z</time></trkpt><trkpt lat="43.0012998" lon="12.1453294"><ele>234.99999999999997</ele><time>2026-04-09T16:10:08.993Z</time></trkpt><trkpt lat="43.001292" lon="12.1452129"><ele>235.0</ele><time>2026-04-09T16:10:09.993Z</time></trkpt><trkpt lat="43.0012908" lon="12.1450941"><ele>235.0</ele><time>2026-04-09T16:10:10.992Z</time></trkpt><trkpt lat="43.0012828" lon="12.1449795"><ele>235.0</ele><time>2026-04-09T16:10:11.993Z</time></trkpt><trkpt lat="43.0012829" lon="12.1448532"><ele>234.99999999999997</ele><time>2026-04-09T16:10:12.993Z</time></trkpt><trkpt lat="43.001287" lon="12.144738"><ele>235.0</ele><time>2026-04-09T16:10:13.993Z</time></trkpt><trkpt lat="43.0012839" lon="12.1446251"><ele>234.99999999999997</ele><time>2026-04-09T16:10:14.992Z</time></trkpt><trkpt lat="43.0012771" lon="12.1445189"><ele>235.0</ele><time>2026-04-09T16:10:15.992Z</time></trkpt><trkpt lat="43.0012702" lon="12.1444096"><ele>235.0</ele><time>2026-04-09T16:10:16.992Z</time></trkpt><trkpt lat="43.0012659" lon="12.144292"><ele>235.0</ele><time>2026-04-09T16:10:17.992Z</time></trkpt><trkpt lat="43.0012594" lon="12.1441665"><ele>234.99999999999997</ele><time>2026-04-09T16:10:18.992Z</time></trkpt><trkpt lat="43.0012526" lon="12.1440463"><ele>235.0</ele><time>2026-04-09T16:10:19.993Z</time></trkpt><trkpt lat="43.0012431" lon="12.1439255"><ele>234.8</ele><time>2026-04-09T16:10:20.993Z</time></trkpt><trkpt lat="43.0012341" lon="12.1438041"><ele>234.6</ele><time>2026-04-09T16:10:21.992Z</time></trkpt><trkpt lat="43.0012343" lon="12.1436731"><ele>234.39999999999998</ele><time>2026-04-09T16:10:22.992Z</time></trkpt><trkpt lat="43.0012314" lon="12.1435454"><ele>234.2</ele><time>2026-04-09T16:10:23.993Z</time></trkpt><trkpt lat="43.0012289" lon="12.1434049"><ele>234.0</ele><time>2026-04-09T16:10:24.992Z</time></trkpt><trkpt lat="43.0012215" lon="12.1432626"><ele>233.79999999999998</ele><time>2026-04-09T16:10:25.992Z</time></trkpt><trkpt lat="43.0012136" lon="12.1431274"><ele>233.59999999999997</ele><time>2026-04-09T16:10:26.992Z</time></trkpt><trkpt lat="43.0012037" lon="12.1429761"><ele>233.4</ele><time>2026-04-09T16:10:27.993Z</time></trkpt><trkpt lat="43.001201" lon="12.1428229"><ele>233.2</ele><time>2026-04-09T16:10:28.992Z</time></trkpt><trkpt lat="43.0011987" lon="12.1426626"><ele>233.0</ele><time>2026-04-09T16:10:29.992Z</time></trkpt><trkpt lat="43.00119" lon="12.1424983"><ele>232.75</ele><time>2026-04-09T16:10:30.992Z</time></trkpt><trkpt lat="43.0011781" lon="12.1423341"><ele>232.5</ele><time>2026-04-09T16:10:31.992Z</time></trkpt><trkpt lat="43.0011664" lon="12.142167"><ele>232.25</ele><time>2026-04-09T16:10:32.992Z</time></trkpt><trkpt lat="43.0011634" lon="12.1419979"><ele>232.0</ele><time>2026-04-09T16:10:33.992Z</time></trkpt><trkpt lat="43.0011515" lon="12.1418278"><ele>232.0</ele><time>2026-04-09T16:10:34.992Z</time></trkpt><trkpt lat="43.0011481" lon="12.1416574"><ele>232.0</ele><time>2026-04-09T16:10:35.992Z</time></trkpt><trkpt lat="43.0011387" lon="12.1414812"><ele>232.0</ele><time>2026-04-09T16:10:36.992Z</time></trkpt><trkpt lat="43.0011302" lon="12.1413034"><ele>232.0</ele><time>2026-04-09T16:10:37.992Z</time></trkpt><trkpt lat="43.001125" lon="12.1411277"><ele>232.25</ele><time>2026-04-09T16:10:38.993Z</time></trkpt><trkpt lat="43.0011162" lon="12.1409561"><ele>232.5</ele><time>2026-04-09T16:10:39.992Z</time></trkpt><trkpt lat="43.0011059" lon="12.1407749"><ele>232.75</ele><time>2026-04-09T16:10:40.993Z</time></trkpt><trkpt lat="43.0010996" lon="12.1405803"><ele>233.0</ele><time>2026-04-09T16:10:41.992Z</time></trkpt><trkpt lat="43.0010886" lon="12.1403812"><ele>233.25</ele><time>2026-04-09T16:10:42.993Z</time></trkpt><trkpt lat="43.0010769" lon="12.1401901"><ele>233.5</ele><time>2026-04-09T16:10:43.992Z</time></trkpt><trkpt lat="43.0010686" lon="12.1399979"><ele>233.75</ele><time>2026-04-09T16:10:44.993Z</time></trkpt><trkpt lat="43.0010597" lon="12.1397919"><ele>234.0</ele><time>2026-04-09T16:10:45.992Z</time></trkpt><trkpt lat="43.001056" lon="12.1395917"><ele>234.33333333333331</ele><time>2026-04-09T16:10:46.992Z</time></trkpt><trkpt lat="43.0010473" lon="12.1393912"><ele>234.66666666666666</ele><time>2026-04-09T16:10:47.992Z</time></trkpt><trkpt lat="43.0010374" lon="12.1391808"><ele>235.0</ele><time>2026-04-09T16:10:48.992Z</time></trkpt><trkpt lat="43.0010234" lon="12.1389772"><ele>235.25</ele><time>2026-04-09T16:10:49.992Z</time></trkpt><trkpt lat="43.0010124" lon="12.1387708"><ele>235.5</ele><time>2026-04-09T16:10:50.993Z</time></trkpt><trkpt lat="43.001011" lon="12.1385623"><ele>235.75</ele><time>2026-04-09T16:10:51.993Z</time></trkpt><trkpt lat="43.0010013" lon="12.1383701"><ele>236.0</ele><time>2026-04-09T16:10:52.992Z</time></trkpt><trkpt lat="43.0009895" lon="12.1381712"><ele>236.25</ele><time>2026-04-09T16:10:53.991Z</time></trkpt><trkpt lat="43.0009799" lon="12.137979"><ele>236.5</ele><time>2026-04-09T16:10:54.993Z</time></trkpt><trkpt lat="43.0009859" lon="12.1377893"><ele>236.75</ele><time>2026-04-09T16:10:55.992Z</time></trkpt><trkpt lat="43.0010166" lon="12.137616"><ele>237.0</ele><time>2026-04-09T16:10:56.991Z</time></trkpt><trkpt lat="43.0010593" lon="12.1374589"><ele>237.25</ele><time>2026-04-09T16:10:57.992Z</time></trkpt><trkpt lat="43.0011261" lon="12.1373155"><ele>237.5</ele><time>2026-04-09T16:10:58.993Z</time></trkpt><trkpt lat="43.0012102" lon="12.1371847"><ele>237.75</ele><time>2026-04-09T16:10:59.992Z</time></trkpt><trkpt lat="43.0012839" lon="12.1370613"><ele>238.0</ele><time>2026-04-09T16:11:00.993Z</time></trkpt><trkpt lat="43.0013638" lon="12.1369517"><ele>237.99999999999997</ele><time>2026-04-09T16:11:01.992Z</time></trkpt><trkpt lat="43.0014397" lon="12.1368491"><ele>238.0</ele><time>2026-04-09T16:11:02.993Z</time></trkpt><trkpt lat="43.0015108" lon="12.1367631"><ele>238.0</ele><time>2026-04-09T16:11:03.993Z</time></trkpt><trkpt lat="43.0015799" lon="12.1366972"><ele>238.0</ele><time>2026-04-09T16:11:04.992Z</time></trkpt><trkpt lat="43.0016349" lon="12.1366435"><ele>237.99999999999997</ele><time>2026-04-09T16:11:05.992Z</time></trkpt><trkpt lat="43.0017002" lon="12.1365872"><ele>238.0</ele><time>2026-04-09T16:11:07.992Z</time></trkpt><trkpt lat="43.0017874" lon="12.1365376"><ele>238.16666666666666</ele><time>2026-04-09T16:11:10.993Z</time></trkpt><trkpt lat="43.0018621" lon="12.1364982"><ele>238.33333333333331</ele><time>2026-04-09T16:11:13.992Z</time></trkpt><trkpt lat="43.0018644" lon="12.1363801"><ele>238.5</ele><time>2026-04-09T16:11:16.993Z</time></trkpt><trkpt lat="43.001775" lon="12.1363745"><ele>238.66666666666669</ele><time>2026-04-09T16:11:19.992Z</time></trkpt><trkpt lat="43.0017448" lon="12.1364628"><ele>238.83333333333334</ele><time>2026-04-09T16:11:21.993Z</time></trkpt><trkpt lat="43.0018137" lon="12.1365933"><ele>239.0</ele><time>2026-04-09T16:11:23.992Z</time></trkpt><trkpt lat="43.0018454" lon="12.1366719"><ele>239.0</ele><time>2026-04-09T16:11:24.992Z</time></trkpt><trkpt lat="43.0018745" lon="12.1367957"><ele>238.99999999999997</ele><time>2026-04-09T16:11:25.992Z</time></trkpt><trkpt lat="43.0018999" lon="12.1369513"><ele>238.99999999999997</ele><time>2026-04-09T16:11:26.993Z</time></trkpt><trkpt lat="43.0019053" lon="12.1371058"><ele>239.0</ele><time>2026-04-09T16:11:27.992Z</time></trkpt><trkpt lat="43.0019178" lon="12.1372597"><ele>239.0</ele><time>2026-04-09T16:11:28.992Z</time></trkpt><trkpt lat="43.0019338" lon="12.1375107"><ele>237.33333333333334</ele><time>2026-04-09T16:11:29.992Z</time></trkpt><trkpt lat="43.0019449" lon="12.1377248"><ele>235.66666666666669</ele><time>2026-04-09T16:11:30.993Z</time></trkpt><trkpt lat="43.001964" lon="12.1379464"><ele>234.0</ele><time>2026-04-09T16:11:31.992Z</time></trkpt><trkpt lat="43.001977" lon="12.1381467"><ele>234.33333333333331</ele><time>2026-04-09T16:11:32.993Z</time></trkpt><trkpt lat="43.0019917" lon="12.138347"><ele>234.66666666666666</ele><time>2026-04-09T16:11:33.992Z</time></trkpt><trkpt lat="43.0020221" lon="12.1385606"><ele>235.0</ele><time>2026-04-09T16:11:34.993Z</time></trkpt><trkpt lat="43.0020477" lon="12.1387557"><ele>235.0</ele><time>2026-04-09T16:11:35.992Z</time></trkpt><trkpt lat="43.0020684" lon="12.1389313"><ele>235.0</ele><time>2026-04-09T16:11:36.993Z</time></trkpt><trkpt lat="43.0020991" lon="12.1390944"><ele>235.0</ele><time>2026-04-09T16:11:37.992Z</time></trkpt><trkpt lat="43.0021384" lon="12.1392616"><ele>235.0</ele><time>2026-04-09T16:11:38.992Z</time></trkpt><trkpt lat="43.002174" lon="12.1394076"><ele>235.0</ele><time>2026-04-09T16:11:39.992Z</time></trkpt><trkpt lat="43.0022201" lon="12.1395506"><ele>235.0</ele><time>2026-04-09T16:11:40.993Z</time></trkpt><trkpt lat="43.0022505" lon="12.1396933"><ele>235.0</ele><time>2026-04-09T16:11:41.992Z</time></trkpt><trkpt lat="43.0022691" lon="12.1398142"><ele>235.0</ele><time>2026-04-09T16:11:42.992Z</time></trkpt><trkpt lat="43.0022939" lon="12.1399345"><ele>235.0</ele><time>2026-04-09T16:11:43.993Z</time></trkpt><trkpt lat="43.0023205" lon="12.1400352"><ele>235.0</ele><time>2026-04-09T16:11:44.992Z</time></trkpt><trkpt lat="43.0023576" lon="12.1401569"><ele>235.0</ele><time>2026-04-09T16:11:45.992Z</time></trkpt><trkpt lat="43.0023958" lon="12.1402885"><ele>235.0</ele><time>2026-04-09T16:11:46.992Z</time></trkpt><trkpt lat="43.0024413" lon="12.1404425"><ele>235.0</ele><time>2026-04-09T16:11:47.992Z</time></trkpt><trkpt lat="43.0024892" lon="12.1405979"><ele>235.0</ele><time>2026-04-09T16:11:48.993Z</time></trkpt><trkpt lat="43.0025397" lon="12.1407624"><ele>235.4</ele><time>2026-04-09T16:11:49.993Z</time></trkpt><trkpt lat="43.0025967" lon="12.1409218"><ele>235.8</ele><time>2026-04-09T16:11:50.992Z</time></trkpt><trkpt lat="43.0026357" lon="12.1410539"><ele>236.2</ele><time>2026-04-09T16:11:51.992Z</time></trkpt><trkpt lat="43.0026682" lon="12.1411839"><ele>236.6</ele><time>2026-04-09T16:11:52.993Z</time></trkpt><trkpt lat="43.0027041" lon="12.1412941"><ele>237.0</ele><time>2026-04-09T16:11:53.992Z</time></trkpt><trkpt lat="43.0027377" lon="12.1413858"><ele>237.0</ele><time>2026-04-09T16:11:54.993Z</time></trkpt><trkpt lat="43.0027844" lon="12.1415189"><ele>237.0</ele><time>2026-04-09T16:11:56.993Z</time></trkpt><trkpt lat="43.0028122" lon="12.1416014"><ele>237.0</ele><time>2026-04-09T16:11:58.992Z</time></trkpt><trkpt lat="43.0028332" lon="12.1417443"><ele>237.0</ele><time>2026-04-09T16:12:09.992Z</time></trkpt><trkpt lat="43.0028446" lon="12.1418415"><ele>237.0</ele><time>2026-04-09T16:12:10.993Z</time></trkpt><trkpt lat="43.0028714" lon="12.1419409"><ele>237.0</ele><time>2026-04-09T16:12:11.992Z</time></trkpt><trkpt lat="43.0029093" lon="12.142078"><ele>237.0</ele><time>2026-04-09T16:12:12.992Z</time></trkpt><trkpt lat="43.0029473" lon="12.1422489"><ele>237.0</ele><time>2026-04-09T16:12:13.993Z</time></trkpt><trkpt lat="43.0030016" lon="12.142431"><ele>237.0</ele><time>2026-04-09T16:12:14.992Z</time></trkpt><trkpt lat="43.0030572" lon="12.1425964"><ele>237.0</ele><time>2026-04-09T16:12:15.992Z</time></trkpt><trkpt lat="43.0031051" lon="12.1427413"><ele>237.0</ele><time>2026-04-09T16:12:16.993Z</time></trkpt><trkpt lat="43.0031546" lon="12.1428767"><ele>237.0</ele><time>2026-04-09T16:12:17.992Z</time></trkpt><trkpt lat="43.0032066" lon="12.1430136"><ele>237.0</ele><time>2026-04-09T16:12:18.992Z</time></trkpt><trkpt lat="43.0032425" lon="12.1431353"><ele>237.0</ele><time>2026-04-09T16:12:19.993Z</time></trkpt><trkpt lat="43.0032762" lon="12.1432454"><ele>237.0</ele><time>2026-04-09T16:12:20.993Z</time></trkpt><trkpt lat="43.0033007" lon="12.1433669"><ele>237.0</ele><time>2026-04-09T16:12:21.992Z</time></trkpt><trkpt lat="43.0033225" lon="12.1434515"><ele>237.0</ele><time>2026-04-09T16:12:22.992Z</time></trkpt><trkpt lat="43.0033453" lon="12.1435403"><ele>237.0</ele><time>2026-04-09T16:12:23.993Z</time></trkpt><trkpt lat="43.0033569" lon="12.1436844"><ele>237.0</ele><time>2026-04-09T16:12:25.992Z</time></trkpt><trkpt lat="43.0033423" lon="12.1438337"><ele>237.0</ele><time>2026-04-09T16:12:27.992Z</time></trkpt><trkpt lat="43.0033377" lon="12.1439236"><ele>237.0</ele><time>2026-04-09T16:12:28.992Z</time></trkpt><trkpt lat="43.0032948" lon="12.1440153"><ele>236.8</ele><time>2026-04-09T16:12:29.992Z</time></trkpt><trkpt lat="43.0032579" lon="12.1441233"><ele>236.6</ele><time>2026-04-09T16:12:30.992Z</time></trkpt><trkpt lat="43.0031754" lon="12.144255"><ele>236.40000000000003</ele><time>2026-04-09T16:12:31.993Z</time></trkpt><trkpt lat="43.0031159" lon="12.1443825"><ele>236.20000000000002</ele><time>2026-04-09T16:12:32.993Z</time></trkpt><trkpt lat="43.0030603" lon="12.1444955"><ele>236.0</ele><time>2026-04-09T16:12:33.993Z</time></trkpt><trkpt lat="43.003029" lon="12.1445882"><ele>236.00000000000003</ele><time>2026-04-09T16:12:34.992Z</time></trkpt><trkpt lat="43.0030035" lon="12.1446788"><ele>236.0</ele><time>2026-04-09T16:12:35.993Z</time></trkpt><trkpt lat="43.0029603" lon="12.1447877"><ele>236.0</ele><time>2026-04-09T16:12:37.992Z</time></trkpt><trkpt lat="43.0029083" lon="12.1448661"><ele>236.0</ele><time>2026-04-09T16:12:41.991Z</time></trkpt><trkpt lat="43.0028855" lon="12.1449539"><ele>236.00000000000003</ele><time>2026-04-09T16:14:05.993Z</time></trkpt><trkpt lat="43.0028475" lon="12.1450246"><ele>236.0</ele><time>2026-04-09T16:18:53.993Z</time></trkpt><trkpt lat="43.0028852" lon="12.145147"><ele>235.8</ele><time>2026-04-09T16:18:55.992Z</time></trkpt><trkpt lat="43.0029136" lon="12.1453281"><ele>235.60000000000002</ele><time>2026-04-09T16:18:57.993Z</time></trkpt><trkpt lat="43.0029164" lon="12.1454539"><ele>235.4</ele><time>2026-04-09T16:18:59.993Z</time></trkpt><trkpt lat="43.0029102" lon="12.1455472"><ele>235.2</ele><time>2026-04-09T16:19:01.992Z</time></trkpt><trkpt lat="43.0029013" lon="12.1456541"><ele>235.0</ele><time>2026-04-09T16:19:44.993Z</time></trkpt><trkpt lat="43.002865" lon="12.1458249"><ele>235.0</ele><time>2026-04-09T16:19:46.993Z</time></trkpt><trkpt lat="43.0028522" lon="12.1459133"><ele>235.0</ele><time>2026-04-09T16:19:47.992Z</time></trkpt><trkpt lat="43.0028527" lon="12.1460212"><ele>235.0</ele><time>2026-04-09T16:19:48.993Z</time></trkpt><trkpt lat="43.0028471" lon="12.1461423"><ele>235.0</ele><time>2026-04-09T16:19:49.991Z</time></trkpt><trkpt lat="43.002847" lon="12.1462818"><ele>235.0</ele><time>2026-04-09T16:19:50.994Z</time></trkpt><trkpt lat="43.0028426" lon="12.1464438"><ele>234.75</ele><time>2026-04-09T16:19:51.993Z</time></trkpt><trkpt lat="43.0028382" lon="12.1466031"><ele>234.5</ele><time>2026-04-09T16:19:52.992Z</time></trkpt><trkpt lat="43.0028323" lon="12.1467936"><ele>234.25</ele><time>2026-04-09T16:19:53.994Z</time></trkpt><trkpt lat="43.0028338" lon="12.1469736"><ele>234.0</ele><time>2026-04-09T16:19:54.992Z</time></trkpt><trkpt lat="43.0028576" lon="12.1471515"><ele>234.0</ele><time>2026-04-09T16:19:55.993Z</time></trkpt><trkpt lat="43.0028677" lon="12.1473322"><ele>233.99999999999997</ele><time>2026-04-09T16:19:56.993Z</time></trkpt><trkpt lat="43.0028844" lon="12.1474927"><ele>233.99999999999997</ele><time>2026-04-09T16:19:57.993Z</time></trkpt><trkpt lat="43.0029096" lon="12.1476208"><ele>234.0</ele><time>2026-04-09T16:19:58.991Z</time></trkpt><trkpt lat="43.0029358" lon="12.1477215"><ele>234.0</ele><time>2026-04-09T16:19:59.992Z</time></trkpt><trkpt lat="43.0029534" lon="12.1478069"><ele>234.16666666666666</ele><time>2026-04-09T16:20:00.993Z</time></trkpt><trkpt lat="43.0029713" lon="12.1479012"><ele>234.33333333333331</ele><time>2026-04-09T16:20:01.993Z</time></trkpt><trkpt lat="43.0029896" lon="12.1479882"><ele>234.5</ele><time>2026-04-09T16:20:02.991Z</time></trkpt><trkpt lat="43.0030008" lon="12.1480795"><ele>234.66666666666666</ele><time>2026-04-09T16:20:03.993Z</time></trkpt><trkpt lat="43.0030008" lon="12.148184"><ele>234.83333333333331</ele><time>2026-04-09T16:20:04.992Z</time></trkpt><trkpt lat="43.0029817" lon="12.1482879"><ele>235.0</ele><time>2026-04-09T16:20:05.993Z</time></trkpt><trkpt lat="43.0029494" lon="12.1484093"><ele>235.25</ele><time>2026-04-09T16:20:06.992Z</time></trkpt><trkpt lat="43.0029127" lon="12.1485448"><ele>235.5</ele><time>2026-04-09T16:20:07.993Z</time></trkpt><trkpt lat="43.0028591" lon="12.1486863"><ele>235.75</ele><time>2026-04-09T16:20:08.992Z</time></trkpt><trkpt lat="43.0028044" lon="12.1488499"><ele>236.0</ele><time>2026-04-09T16:20:09.992Z</time></trkpt><trkpt lat="43.002756" lon="12.1490133"><ele>236.0</ele><time>2026-04-09T16:20:10.993Z</time></trkpt><trkpt lat="43.0027075" lon="12.1491771"><ele>236.0</ele><time>2026-04-09T16:20:11.993Z</time></trkpt><trkpt lat="43.0026644" lon="12.1493603"><ele>236.0</ele><time>2026-04-09T16:20:12.993Z</time></trkpt><trkpt lat="43.0026309" lon="12.1495477"><ele>236.0</ele><time>2026-04-09T16:20:13.992Z</time></trkpt><trkpt lat="43.0026036" lon="12.1497417"><ele>236.0</ele><time>2026-04-09T16:20:14.993Z</time></trkpt><trkpt lat="43.0025922" lon="12.1499234"><ele>236.0</ele><time>2026-04-09T16:20:15.992Z</time></trkpt><trkpt lat="43.002576" lon="12.1501111"><ele>236.0</ele><time>2026-04-09T16:20:16.993Z</time></trkpt><trkpt lat="43.0025589" lon="12.1502993"><ele>236.0</ele><time>2026-04-09T16:20:17.992Z</time></trkpt><trkpt lat="43.0025367" lon="12.1504916"><ele>236.0</ele><time>2026-04-09T16:20:18.993Z</time></trkpt><trkpt lat="43.0025066" lon="12.1506823"><ele>236.0</ele><time>2026-04-09T16:20:19.993Z</time></trkpt><trkpt lat="43.0024692" lon="12.1508662"><ele>236.0</ele><time>2026-04-09T16:20:20.993Z</time></trkpt><trkpt lat="43.0024165" lon="12.1510477"><ele>236.0</ele><time>2026-04-09T16:20:21.993Z</time></trkpt><trkpt lat="43.0023696" lon="12.1512211"><ele>236.0</ele><time>2026-04-09T16:20:22.992Z</time></trkpt><trkpt lat="43.0023235" lon="12.1513854"><ele>236.0</ele><time>2026-04-09T16:20:23.991Z</time></trkpt><trkpt lat="43.0022611" lon="12.1515319"><ele>236.0</ele><time>2026-04-09T16:20:24.991Z</time></trkpt><trkpt lat="43.0022284" lon="12.1516849"><ele>236.0</ele><time>2026-04-09T16:20:25.993Z</time></trkpt><trkpt lat="43.0022097" lon="12.1518362"><ele>236.0</ele><time>2026-04-09T16:20:26.993Z</time></trkpt><trkpt lat="43.0021918" lon="12.1520029"><ele>236.0</ele><time>2026-04-09T16:20:27.993Z</time></trkpt><trkpt lat="43.0022001" lon="12.1521742"><ele>236.0</ele><time>2026-04-09T16:20:28.993Z</time></trkpt><trkpt lat="43.0022164" lon="12.1523523"><ele>236.0</ele><time>2026-04-09T16:20:29.992Z</time></trkpt><trkpt lat="43.0022363" lon="12.1525292"><ele>236.0</ele><time>2026-04-09T16:20:30.993Z</time></trkpt><trkpt lat="43.0022516" lon="12.1526888"><ele>236.00000000000003</ele><time>2026-04-09T16:20:31.993Z</time></trkpt><trkpt lat="43.0022689" lon="12.1528499"><ele>236.00000000000003</ele><time>2026-04-09T16:20:32.992Z</time></trkpt><trkpt lat="43.0022848" lon="12.152997"><ele>236.0</ele><time>2026-04-09T16:20:33.993Z</time></trkpt><trkpt lat="43.0023066" lon="12.1531136"><ele>236.0</ele><time>2026-04-09T16:20:34.993Z</time></trkpt><trkpt lat="43.0023253" lon="12.1532404"><ele>236.20000000000002</ele><time>2026-04-09T16:20:35.993Z</time></trkpt><trkpt lat="43.0023403" lon="12.1533608"><ele>236.40000000000003</ele><time>2026-04-09T16:20:36.993Z</time></trkpt><trkpt lat="43.0023593" lon="12.1534871"><ele>236.6</ele><time>2026-04-09T16:20:37.992Z</time></trkpt><trkpt lat="43.0023802" lon="12.153629"><ele>236.8</ele><time>2026-04-09T16:20:38.992Z</time></trkpt><trkpt lat="43.0024029" lon="12.1538053"><ele>237.0</ele><time>2026-04-09T16:20:39.993Z</time></trkpt><trkpt lat="43.002422" lon="12.1539959"><ele>236.66666666666669</ele><time>2026-04-09T16:20:40.992Z</time></trkpt><trkpt lat="43.0024363" lon="12.1542056"><ele>236.33333333333334</ele><time>2026-04-09T16:20:41.993Z</time></trkpt><trkpt lat="43.0024619" lon="12.1544468"><ele>236.0</ele><time>2026-04-09T16:20:42.993Z</time></trkpt><trkpt lat="43.0024908" lon="12.1546738"><ele>237.0</ele><time>2026-04-09T16:20:43.993Z</time></trkpt><trkpt lat="43.0025057" lon="12.1548966"><ele>238.0</ele><time>2026-04-09T16:20:44.992Z</time></trkpt><trkpt lat="43.0025344" lon="12.155106"><ele>239.0</ele><time>2026-04-09T16:20:45.992Z</time></trkpt><trkpt lat="43.0025614" lon="12.1553105"><ele>239.0</ele><time>2026-04-09T16:20:46.993Z</time></trkpt><trkpt lat="43.0026038" lon="12.1555311"><ele>239.0</ele><time>2026-04-09T16:20:47.993Z</time></trkpt><trkpt lat="43.0026395" lon="12.1557344"><ele>239.0</ele><time>2026-04-09T16:20:48.992Z</time></trkpt><trkpt lat="43.0026878" lon="12.1559362"><ele>238.79999999999998</ele><time>2026-04-09T16:20:49.992Z</time></trkpt><trkpt lat="43.0027277" lon="12.1561076"><ele>238.59999999999997</ele><time>2026-04-09T16:20:50.992Z</time></trkpt><trkpt lat="43.0027529" lon="12.1562463"><ele>238.4</ele><time>2026-04-09T16:20:51.992Z</time></trkpt><trkpt lat="43.0027642" lon="12.1563593"><ele>238.2</ele><time>2026-04-09T16:20:52.992Z</time></trkpt><trkpt lat="43.0027838" lon="12.156465"><ele>238.0</ele><time>2026-04-09T16:20:54.993Z</time></trkpt><trkpt lat="43.0028164" lon="12.1565753"><ele>237.99999999999997</ele><time>2026-04-09T16:20:57.993Z</time></trkpt><trkpt lat="43.0029114" lon="12.1565644"><ele>238.0</ele><time>2026-04-09T16:21:00.992Z</time></trkpt><trkpt lat="43.0029871" lon="12.1564741"><ele>238.0</ele><time>2026-04-09T16:21:02.993Z</time></trkpt><trkpt lat="43.0030388" lon="12.1564229"><ele>238.0</ele><time>2026-04-09T16:21:03.992Z</time></trkpt><trkpt lat="43.0030967" lon="12.1563528"><ele>237.99999999999997</ele><time>2026-04-09T16:21:04.993Z</time></trkpt><trkpt lat="43.0031655" lon="12.1562723"><ele>238.0</ele><time>2026-04-09T16:21:05.992Z</time></trkpt><trkpt lat="43.0032411" lon="12.1561907"><ele>238.0</ele><time>2026-04-09T16:21:06.993Z</time></trkpt><trkpt lat="43.0033221" lon="12.1560917"><ele>238.0</ele><time>2026-04-09T16:21:07.993Z</time></trkpt><trkpt lat="43.0034134" lon="12.1559689"><ele>238.0</ele><time>2026-04-09T16:21:08.993Z</time></trkpt><trkpt lat="43.0034971" lon="12.1558532"><ele>238.0</ele><time>2026-04-09T16:21:09.992Z</time></trkpt><trkpt lat="43.0035923" lon="12.1557665"><ele>238.5</ele><time>2026-04-09T16:21:10.992Z</time></trkpt><trkpt lat="43.0036997" lon="12.1557117"><ele>239.0</ele><time>2026-04-09T16:21:11.993Z</time></trkpt><trkpt lat="43.0038223" lon="12.1557064"><ele>239.5</ele><time>2026-04-09T16:21:12.993Z</time></trkpt><trkpt lat="43.0039548" lon="12.1557069"><ele>240.0</ele><time>2026-04-09T16:21:13.992Z</time></trkpt><trkpt lat="43.0040847" lon="12.1557187"><ele>241.75</ele><time>2026-04-09T16:21:14.993Z</time></trkpt><trkpt lat="43.0042089" lon="12.1557288"><ele>243.5</ele><time>2026-04-09T16:21:15.993Z</time></trkpt><trkpt lat="43.0043264" lon="12.1557418"><ele>245.25</ele><time>2026-04-09T16:21:16.992Z</time></trkpt><trkpt lat="43.0044376" lon="12.1557446"><ele>247.0</ele><time>2026-04-09T16:21:17.992Z</time></trkpt><trkpt lat="43.0045481" lon="12.1557567"><ele>247.0</ele><time>2026-04-09T16:21:18.993Z</time></trkpt><trkpt lat="43.0046654" lon="12.1557614"><ele>247.0</ele><time>2026-04-09T16:21:19.993Z</time></trkpt><trkpt lat="43.0047757" lon="12.1557655"><ele>247.0</ele><time>2026-04-09T16:21:20.993Z</time></trkpt><trkpt lat="43.0048889" lon="12.1557378"><ele>247.0</ele><time>2026-04-09T16:21:21.993Z</time></trkpt><trkpt lat="43.0050084" lon="12.1556952"><ele>248.75</ele><time>2026-04-09T16:21:22.992Z</time></trkpt><trkpt lat="43.0051204" lon="12.1556289"><ele>250.5</ele><time>2026-04-09T16:21:23.992Z</time></trkpt><trkpt lat="43.0052211" lon="12.1555"><ele>252.25</ele><time>2026-04-09T16:21:24.992Z</time></trkpt><trkpt lat="43.005325" lon="12.1553788"><ele>254.0</ele><time>2026-04-09T16:21:25.993Z</time></trkpt><trkpt lat="43.0054321" lon="12.1552274"><ele>254.0</ele><time>2026-04-09T16:21:26.993Z</time></trkpt><trkpt lat="43.0055527" lon="12.1550652"><ele>254.0</ele><time>2026-04-09T16:21:27.993Z</time></trkpt><trkpt lat="43.0056748" lon="12.1549022"><ele>254.0</ele><time>2026-04-09T16:21:28.992Z</time></trkpt><trkpt lat="43.0057919" lon="12.1547173"><ele>254.33333333333334</ele><time>2026-04-09T16:21:29.993Z</time></trkpt><trkpt lat="43.0059058" lon="12.154531"><ele>254.66666666666669</ele><time>2026-04-09T16:21:30.992Z</time></trkpt><trkpt lat="43.0060295" lon="12.1543429"><ele>255.0</ele><time>2026-04-09T16:21:31.993Z</time></trkpt><trkpt lat="43.006164" lon="12.1541525"><ele>254.33333333333331</ele><time>2026-04-09T16:21:32.992Z</time></trkpt><trkpt lat="43.0062977" lon="12.1539733"><ele>253.66666666666666</ele><time>2026-04-09T16:21:33.992Z</time></trkpt><trkpt lat="43.0064153" lon="12.1538062"><ele>253.0</ele><time>2026-04-09T16:21:34.993Z</time></trkpt><trkpt lat="43.0065277" lon="12.1536293"><ele>253.0</ele><time>2026-04-09T16:21:35.992Z</time></trkpt><trkpt lat="43.0066182" lon="12.1534209"><ele>253.0</ele><time>2026-04-09T16:21:36.993Z</time></trkpt><trkpt lat="43.0067106" lon="12.1532058"><ele>253.0</ele><time>2026-04-09T16:21:37.993Z</time></trkpt><trkpt lat="43.0067975" lon="12.152987"><ele>257.3333333333333</ele><time>2026-04-09T16:21:38.993Z</time></trkpt><trkpt lat="43.0068791" lon="12.1527667"><ele>261.6666666666667</ele><time>2026-04-09T16:21:39.992Z</time></trkpt><trkpt lat="43.0069594" lon="12.1525722"><ele>266.0</ele><time>2026-04-09T16:21:40.993Z</time></trkpt><trkpt lat="43.0070322" lon="12.1523769"><ele>268.5</ele><time>2026-04-09T16:21:41.992Z</time></trkpt><trkpt lat="43.0070888" lon="12.1521833"><ele>271.0</ele><time>2026-04-09T16:21:42.992Z</time></trkpt><trkpt lat="43.0071145" lon="12.1520007"><ele>273.5</ele><time>2026-04-09T16:21:43.992Z</time></trkpt><trkpt lat="43.0071091" lon="12.1518449"><ele>276.0</ele><time>2026-04-09T16:21:44.992Z</time></trkpt><trkpt lat="43.0070758" lon="12.1516898"><ele>277.6</ele><time>2026-04-09T16:21:45.993Z</time></trkpt><trkpt lat="43.0070485" lon="12.1515403"><ele>279.20000000000005</ele><time>2026-04-09T16:21:46.993Z</time></trkpt><trkpt lat="43.0070164" lon="12.1513976"><ele>280.79999999999995</ele><time>2026-04-09T16:21:47.992Z</time></trkpt><trkpt lat="43.0069954" lon="12.1512755"><ele>282.4</ele><time>2026-04-09T16:21:48.992Z</time></trkpt><trkpt lat="43.0069721" lon="12.1511726"><ele>284.0</ele><time>2026-04-09T16:21:49.993Z</time></trkpt><trkpt lat="43.0069659" lon="12.1510678"><ele>284.0</ele><time>2026-04-09T16:21:50.993Z</time></trkpt><trkpt lat="43.0069966" lon="12.1509816"><ele>284.0</ele><time>2026-04-09T16:21:51.992Z</time></trkpt><trkpt lat="43.007034" lon="12.1508981"><ele>284.0</ele><time>2026-04-09T16:21:52.993Z</time></trkpt><trkpt lat="43.007076" lon="12.1508125"><ele>284.0</ele><time>2026-04-09T16:21:53.993Z</time></trkpt><trkpt lat="43.0071179" lon="12.1507368"><ele>284.0</ele><time>2026-04-09T16:21:54.993Z</time></trkpt><trkpt lat="43.0071577" lon="12.1506653"><ele>284.0</ele><time>2026-04-09T16:21:55.993Z</time></trkpt><trkpt lat="43.0071878" lon="12.1505872"><ele>284.0</ele><time>2026-04-09T16:21:57.993Z</time></trkpt><trkpt lat="43.0071184" lon="12.1505326"><ele>284.59999999999997</ele><time>2026-04-09T16:22:00.992Z</time></trkpt><trkpt lat="43.0070248" lon="12.1504551"><ele>285.2</ele><time>2026-04-09T16:22:02.993Z</time></trkpt><trkpt lat="43.0069723" lon="12.1503803"><ele>285.79999999999995</ele><time>2026-04-09T16:22:03.993Z</time></trkpt><trkpt lat="43.0069246" lon="12.1503005"><ele>286.4</ele><time>2026-04-09T16:22:04.992Z</time></trkpt><trkpt lat="43.0068658" lon="12.150205"><ele>287.0</ele><time>2026-04-09T16:22:05.993Z</time></trkpt><trkpt lat="43.0067974" lon="12.1500948"><ele>287.0</ele><time>2026-04-09T16:22:06.993Z</time></trkpt><trkpt lat="43.0067334" lon="12.149984"><ele>287.0</ele><time>2026-04-09T16:22:07.992Z</time></trkpt><trkpt lat="43.0066698" lon="12.1498597"><ele>287.0</ele><time>2026-04-09T16:22:08.993Z</time></trkpt><trkpt lat="43.0066143" lon="12.1497486"><ele>287.0</ele><time>2026-04-09T16:22:09.992Z</time></trkpt><trkpt lat="43.0065658" lon="12.1496405"><ele>287.0</ele><time>2026-04-09T16:22:10.993Z</time></trkpt><trkpt lat="43.0065248" lon="12.1495338"><ele>284.5</ele><time>2026-04-09T16:22:11.993Z</time></trkpt><trkpt lat="43.0065092" lon="12.1494398"><ele>282.0</ele><time>2026-04-09T16:22:12.993Z</time></trkpt><trkpt lat="43.006487" lon="12.1493403"><ele>279.5</ele><time>2026-04-09T16:22:13.993Z</time></trkpt><trkpt lat="43.0064773" lon="12.149247"><ele>277.0</ele><time>2026-04-09T16:22:14.993Z</time></trkpt><trkpt lat="43.0064743" lon="12.149156"><ele>274.5</ele><time>2026-04-09T16:22:15.992Z</time></trkpt><trkpt lat="43.0065004" lon="12.148997"><ele>272.0</ele><time>2026-04-09T16:22:17.993Z</time></trkpt><trkpt lat="43.0065226" lon="12.1488383"><ele>271.8</ele><time>2026-04-09T16:22:19.992Z</time></trkpt><trkpt lat="43.006535" lon="12.1486847"><ele>271.6</ele><time>2026-04-09T16:22:21.994Z</time></trkpt><trkpt lat="43.006534" lon="12.1485551"><ele>271.40000000000003</ele><time>2026-04-09T16:22:23.991Z</time></trkpt><trkpt lat="43.0065198" lon="12.1484135"><ele>271.2</ele><time>2026-04-09T16:22:25.992Z</time></trkpt><trkpt lat="43.0064948" lon="12.1482846"><ele>271.0</ele><time>2026-04-09T16:22:27.993Z</time></trkpt><trkpt lat="43.0064596" lon="12.148145"><ele>269.6</ele><time>2026-04-09T16:22:29.993Z</time></trkpt><trkpt lat="43.0064206" lon="12.1479854"><ele>268.20000000000005</ele><time>2026-04-09T16:22:31.993Z</time></trkpt><trkpt lat="43.0063704" lon="12.1478136"><ele>266.79999999999995</ele><time>2026-04-09T16:22:33.991Z</time></trkpt><trkpt lat="43.0063477" lon="12.1477287"><ele>265.4</ele><time>2026-04-09T16:22:34.993Z</time></trkpt><trkpt lat="43.0063622" lon="12.1475685"><ele>264.0</ele><time>2026-04-09T16:22:36.992Z</time></trkpt><trkpt lat="43.0063916" lon="12.147483"><ele>264.0</ele><time>2026-04-09T16:22:37.992Z</time></trkpt><trkpt lat="43.0064353" lon="12.1473876"><ele>264.0</ele><time>2026-04-09T16:22:38.993Z</time></trkpt><trkpt lat="43.0064933" lon="12.1472965"><ele>264.0</ele><time>2026-04-09T16:22:39.993Z</time></trkpt><trkpt lat="43.006554" lon="12.1472036"><ele>264.0</ele><time>2026-04-09T16:22:40.992Z</time></trkpt><trkpt lat="43.0066091" lon="12.1471253"><ele>264.0</ele><time>2026-04-09T16:22:41.993Z</time></trkpt><trkpt lat="43.0066761" lon="12.1470095"><ele>264.0</ele><time>2026-04-09T16:22:43.993Z</time></trkpt><trkpt lat="43.006658" lon="12.1468991"><ele>262.3333333333333</ele><time>2026-04-09T16:22:46.993Z</time></trkpt><trkpt lat="43.0065643" lon="12.1469043"><ele>260.6666666666667</ele><time>2026-04-09T16:22:48.992Z</time></trkpt><trkpt lat="43.006453" lon="12.146952"><ele>259.0</ele><time>2026-04-09T16:22:50.993Z</time></trkpt><trkpt lat="43.0063885" lon="12.1469782"><ele>257.33333333333337</ele><time>2026-04-09T16:22:51.993Z</time></trkpt><trkpt lat="43.0063169" lon="12.1470141"><ele>255.66666666666669</ele><time>2026-04-09T16:22:52.994Z</time></trkpt><trkpt lat="43.0062476" lon="12.1470415"><ele>254.0</ele><time>2026-04-09T16:22:53.993Z</time></trkpt><trkpt lat="43.0061667" lon="12.1470698"><ele>254.0</ele><time>2026-04-09T16:22:54.993Z</time></trkpt><trkpt lat="43.0060759" lon="12.1471083"><ele>253.99999999999997</ele><time>2026-04-09T16:22:55.993Z</time></trkpt><trkpt lat="43.005979" lon="12.1471282"><ele>253.99999999999997</ele><time>2026-04-09T16:22:56.993Z</time></trkpt><trkpt lat="43.0058738" lon="12.1471271"><ele>254.0</ele><time>2026-04-09T16:22:57.993Z</time></trkpt><trkpt lat="43.0057603" lon="12.1470911"><ele>254.0</ele><time>2026-04-09T16:22:58.992Z</time></trkpt><trkpt lat="43.0056706" lon="12.1470471"><ele>252.6</ele><time>2026-04-09T16:22:59.993Z</time></trkpt><trkpt lat="43.0055769" lon="12.1470123"><ele>251.2</ele><time>2026-04-09T16:23:00.993Z</time></trkpt><trkpt lat="43.0054804" lon="12.146963"><ele>249.79999999999998</ele><time>2026-04-09T16:23:01.993Z</time></trkpt><trkpt lat="43.0053884" lon="12.146927"><ele>248.39999999999998</ele><time>2026-04-09T16:23:02.993Z</time></trkpt><trkpt lat="43.0053014" lon="12.1468942"><ele>247.0</ele><time>2026-04-09T16:23:03.992Z</time></trkpt><trkpt lat="43.0052039" lon="12.1468521"><ele>247.0</ele><time>2026-04-09T16:23:04.992Z</time></trkpt><trkpt lat="43.0051148" lon="12.1468146"><ele>247.0</ele><time>2026-04-09T16:23:05.994Z</time></trkpt><trkpt lat="43.0050259" lon="12.1467634"><ele>247.0</ele><time>2026-04-09T16:23:06.993Z</time></trkpt><trkpt lat="43.0049187" lon="12.1467276"><ele>247.0</ele><time>2026-04-09T16:23:07.992Z</time></trkpt><trkpt lat="43.0048301" lon="12.1466863"><ele>247.0</ele><time>2026-04-09T16:23:08.993Z</time></trkpt><trkpt lat="43.004741" lon="12.1466436"><ele>246.49999999999997</ele><time>2026-04-09T16:23:09.993Z</time></trkpt><trkpt lat="43.0046591" lon="12.1466065"><ele>246.0</ele><time>2026-04-09T16:23:10.993Z</time></trkpt><trkpt lat="43.0045768" lon="12.1465659"><ele>245.5</ele><time>2026-04-09T16:23:11.993Z</time></trkpt><trkpt lat="43.0044948" lon="12.1465261"><ele>245.0</ele><time>2026-04-09T16:23:12.993Z</time></trkpt><trkpt lat="43.0043979" lon="12.1464905"><ele>244.49999999999997</ele><time>2026-04-09T16:23:13.994Z</time></trkpt><trkpt lat="43.0043277" lon="12.1464555"><ele>244.0</ele><time>2026-04-09T16:23:14.991Z</time></trkpt><trkpt lat="43.004264" lon="12.1464229"><ele>243.85714285714283</ele><time>2026-04-09T16:23:15.993Z</time></trkpt><trkpt lat="43.0041976" lon="12.1463888"><ele>243.71428571428572</ele><time>2026-04-09T16:23:16.993Z</time></trkpt><trkpt lat="43.0041348" lon="12.1463566"><ele>243.57142857142856</ele><time>2026-04-09T16:23:17.994Z</time></trkpt><trkpt lat="43.0040676" lon="12.1463189"><ele>243.42857142857142</ele><time>2026-04-09T16:23:20.993Z</time></trkpt><trkpt lat="43.0039978" lon="12.1462926"><ele>243.28571428571428</ele><time>2026-04-09T16:23:40.992Z</time></trkpt><trkpt lat="43.0039285" lon="12.1462528"><ele>243.14285714285714</ele><time>2026-04-09T16:23:43.992Z</time></trkpt><trkpt lat="43.0038534" lon="12.1462439"><ele>243.0</ele><time>2026-04-09T16:23:45.993Z</time></trkpt><trkpt lat="43.0037739" lon="12.1462151"><ele>242.33333333333334</ele><time>2026-04-09T16:23:47.993Z</time></trkpt><trkpt lat="43.0037015" lon="12.1462044"><ele>241.66666666666669</ele><time>2026-04-09T16:23:49.993Z</time></trkpt><trkpt lat="43.0036703" lon="12.1462854"><ele>241.0</ele><time>2026-04-09T16:23:50.993Z</time></trkpt><trkpt lat="43.0036559" lon="12.1464002"><ele>240.33333333333334</ele><time>2026-04-09T16:23:52.992Z</time></trkpt><trkpt lat="43.0036439" lon="12.1465145"><ele>239.66666666666669</ele><time>2026-04-09T16:23:54.993Z</time></trkpt><trkpt lat="43.0036094" lon="12.1466417"><ele>239.0</ele><time>2026-04-09T16:23:56.993Z</time></trkpt><trkpt lat="43.0036031" lon="12.1467536"><ele>239.0</ele><time>2026-04-09T16:23:58.993Z</time></trkpt><trkpt lat="43.0035816" lon="12.1469064"><ele>238.99999999999997</ele><time>2026-04-09T16:24:00.993Z</time></trkpt><trkpt lat="43.0035621" lon="12.1470409"><ele>238.99999999999997</ele><time>2026-04-09T16:24:02.993Z</time></trkpt><trkpt lat="43.0035437" lon="12.147196"><ele>239.0</ele><time>2026-04-09T16:24:04.993Z</time></trkpt><trkpt lat="43.0035063" lon="12.1472768"><ele>239.0</ele><time>2026-04-09T16:24:05.993Z</time></trkpt><trkpt lat="43.0034757" lon="12.1473583"><ele>238.79999999999998</ele><time>2026-04-09T16:24:06.993Z</time></trkpt><trkpt lat="43.0034393" lon="12.1475063"><ele>238.59999999999997</ele><time>2026-04-09T16:24:08.993Z</time></trkpt><trkpt lat="43.0033982" lon="12.1476301"><ele>238.4</ele><time>2026-04-09T16:24:10.992Z</time></trkpt><trkpt lat="43.0033413" lon="12.147752"><ele>238.2</ele><time>2026-04-09T16:24:12.993Z</time></trkpt><trkpt lat="43.0032657" lon="12.1478461"><ele>238.0</ele><time>2026-04-09T16:24:14.992Z</time></trkpt><trkpt lat="43.003183" lon="12.1479431"><ele>237.49999999999997</ele><time>2026-04-09T16:24:16.993Z</time></trkpt><trkpt lat="43.0031255" lon="12.1479835"><ele>237.0</ele><time>2026-04-09T16:24:17.992Z</time></trkpt><trkpt lat="43.0030523" lon="12.1479813"><ele>236.5</ele><time>2026-04-09T16:24:20.993Z</time></trkpt><trkpt lat="43.0029876" lon="12.147894"><ele>236.0</ele><time>2026-04-09T16:24:23.993Z</time></trkpt><trkpt lat="43.0029606" lon="12.1477477"><ele>235.49999999999997</ele><time>2026-04-09T16:24:25.993Z</time></trkpt><trkpt lat="43.0029352" lon="12.147637"><ele>235.0</ele><time>2026-04-09T16:24:26.992Z</time></trkpt><trkpt lat="43.0029175" lon="12.1475106"><ele>234.75</ele><time>2026-04-09T16:24:27.993Z</time></trkpt><trkpt lat="43.0028812" lon="12.1473594"><ele>234.5</ele><time>2026-04-09T16:24:28.991Z</time></trkpt><trkpt lat="43.0028639" lon="12.1472082"><ele>234.25</ele><time>2026-04-09T16:24:29.993Z</time></trkpt><trkpt lat="43.0028511" lon="12.1470371"><ele>234.0</ele><time>2026-04-09T16:24:30.993Z</time></trkpt><trkpt lat="43.002847" lon="12.1468808"><ele>234.0</ele><time>2026-04-09T16:24:31.993Z</time></trkpt><trkpt lat="43.0028532" lon="12.1467803"><ele>233.99999999999997</ele><time>2026-04-09T16:24:32.993Z</time></trkpt><trkpt lat="43.0028573" lon="12.1466589"><ele>233.99999999999997</ele><time>2026-04-09T16:24:33.992Z</time></trkpt><trkpt lat="43.0028701" lon="12.1465744"><ele>234.0</ele><time>2026-04-09T16:24:34.994Z</time></trkpt><trkpt lat="43.0028875" lon="12.1464174"><ele>234.0</ele><time>2026-04-09T16:24:36.993Z</time></trkpt><trkpt lat="43.0028869" lon="12.146268"><ele>234.16666666666666</ele><time>2026-04-09T16:24:38.993Z</time></trkpt><trkpt lat="43.002877" lon="12.1461443"><ele>234.33333333333331</ele><time>2026-04-09T16:24:40.993Z</time></trkpt><trkpt lat="43.0028828" lon="12.1460482"><ele>234.5</ele><time>2026-04-09T16:24:42.992Z</time></trkpt><trkpt lat="43.0028666" lon="12.1459483"><ele>234.66666666666666</ele><time>2026-04-09T16:24:46.992Z</time></trkpt><trkpt lat="43.0028643" lon="12.1458037"><ele>234.83333333333331</ele><time>2026-04-09T16:24:50.993Z</time></trkpt><trkpt lat="43.0028553" lon="12.1456946"><ele>235.0</ele><time>2026-04-09T16:24:51.993Z</time></trkpt><trkpt lat="43.002854" lon="12.1455926"><ele>235.0</ele><time>2026-04-09T16:24:52.993Z</time></trkpt><trkpt lat="43.0028743" lon="12.1453974"><ele>235.0</ele><time>2026-04-09T16:24:53.993Z</time></trkpt><trkpt lat="43.0028897" lon="12.1452349"><ele>235.0</ele><time>2026-04-09T16:24:54.993Z</time></trkpt><trkpt lat="43.0029297" lon="12.145091"><ele>235.0</ele><time>2026-04-09T16:24:55.993Z</time></trkpt><trkpt lat="43.0029558" lon="12.144926"><ele>235.25</ele><time>2026-04-09T16:24:56.992Z</time></trkpt><trkpt lat="43.0029868" lon="12.1447531"><ele>235.5</ele><time>2026-04-09T16:24:57.992Z</time></trkpt><trkpt lat="43.0030271" lon="12.1445798"><ele>235.75</ele><time>2026-04-09T16:24:58.993Z</time></trkpt><trkpt lat="43.003084" lon="12.1444245"><ele>236.0</ele><time>2026-04-09T16:24:59.992Z</time></trkpt><trkpt lat="43.0031366" lon="12.1442961"><ele>236.00000000000003</ele><time>2026-04-09T16:25:00.993Z</time></trkpt><trkpt lat="43.0031837" lon="12.1441862"><ele>236.0</ele><time>2026-04-09T16:25:01.993Z</time></trkpt><trkpt lat="43.0032368" lon="12.1440866"><ele>236.0</ele><time>2026-04-09T16:25:02.993Z</time></trkpt><trkpt lat="43.0032876" lon="12.1439934"><ele>236.0</ele><time>2026-04-09T16:25:03.993Z</time></trkpt><trkpt lat="43.003335" lon="12.143901"><ele>236.00000000000003</ele><time>2026-04-09T16:25:04.993Z</time></trkpt><trkpt lat="43.0033602" lon="12.1437835"><ele>236.0</ele><time>2026-04-09T16:25:05.992Z</time></trkpt><trkpt lat="43.0033671" lon="12.143681"><ele>236.25</ele><time>2026-04-09T16:25:06.993Z</time></trkpt><trkpt lat="43.0033664" lon="12.1435853"><ele>236.5</ele><time>2026-04-09T16:25:07.993Z</time></trkpt><trkpt lat="43.0033444" lon="12.1433814"><ele>236.75</ele><time>2026-04-09T16:25:09.993Z</time></trkpt><trkpt lat="43.0033214" lon="12.1432675"><ele>237.0</ele><time>2026-04-09T16:25:10.992Z</time></trkpt><trkpt lat="43.003276" lon="12.143073"><ele>237.0</ele><time>2026-04-09T16:25:11.994Z</time></trkpt><trkpt lat="43.0032171" lon="12.1428947"><ele>237.0</ele><time>2026-04-09T16:25:12.993Z</time></trkpt><trkpt lat="43.0031579" lon="12.1427096"><ele>237.0</ele><time>2026-04-09T16:25:13.992Z</time></trkpt><trkpt lat="43.0030914" lon="12.1425284"><ele>237.0</ele><time>2026-04-09T16:25:14.993Z</time></trkpt><trkpt lat="43.0030151" lon="12.142347"><ele>237.0</ele><time>2026-04-09T16:25:15.993Z</time></trkpt><trkpt lat="43.0029456" lon="12.1421366"><ele>237.0</ele><time>2026-04-09T16:25:16.993Z</time></trkpt><trkpt lat="43.0028933" lon="12.1419281"><ele>237.0</ele><time>2026-04-09T16:25:17.992Z</time></trkpt><trkpt lat="43.0028347" lon="12.1417023"><ele>237.0</ele><time>2026-04-09T16:25:18.992Z</time></trkpt><trkpt lat="43.0027691" lon="12.1414681"><ele>237.0</ele><time>2026-04-09T16:25:19.993Z</time></trkpt><trkpt lat="43.0027022" lon="12.1411985"><ele>237.0</ele><time>2026-04-09T16:25:20.993Z</time></trkpt><trkpt lat="43.0026285" lon="12.1409589"><ele>237.66666666666669</ele><time>2026-04-09T16:25:21.993Z</time></trkpt><trkpt lat="43.0025546" lon="12.1407134"><ele>238.33333333333334</ele><time>2026-04-09T16:25:22.993Z</time></trkpt><trkpt lat="43.002485" lon="12.1404843"><ele>239.0</ele><time>2026-04-09T16:25:23.993Z</time></trkpt><trkpt lat="43.0024173" lon="12.1402382"><ele>238.0</ele><time>2026-04-09T16:25:24.993Z</time></trkpt><trkpt lat="43.0023551" lon="12.1399866"><ele>237.0</ele><time>2026-04-09T16:25:25.993Z</time></trkpt><trkpt lat="43.0022892" lon="12.139724"><ele>236.0</ele><time>2026-04-09T16:25:26.993Z</time></trkpt><trkpt lat="43.002226" lon="12.1394525"><ele>236.0</ele><time>2026-04-09T16:25:27.993Z</time></trkpt><trkpt lat="43.0021761" lon="12.1391789"><ele>236.0</ele><time>2026-04-09T16:25:28.992Z</time></trkpt><trkpt lat="43.0021246" lon="12.1388853"><ele>236.0</ele><time>2026-04-09T16:25:29.993Z</time></trkpt><trkpt lat="43.0020705" lon="12.1385875"><ele>235.66666666666669</ele><time>2026-04-09T16:25:30.993Z</time></trkpt><trkpt lat="43.0020301" lon="12.1383003"><ele>235.33333333333331</ele><time>2026-04-09T16:25:31.993Z</time></trkpt><trkpt lat="43.0019953" lon="12.1380352"><ele>235.0</ele><time>2026-04-09T16:25:32.992Z</time></trkpt><trkpt lat="43.0019691" lon="12.1377888"><ele>234.66666666666666</ele><time>2026-04-09T16:25:33.993Z</time></trkpt><trkpt lat="43.0019479" lon="12.1375644"><ele>234.33333333333331</ele><time>2026-04-09T16:25:34.992Z</time></trkpt><trkpt lat="43.0019292" lon="12.1373562"><ele>234.0</ele><time>2026-04-09T16:25:35.993Z</time></trkpt><trkpt lat="43.0019157" lon="12.1371754"><ele>235.25</ele><time>2026-04-09T16:25:36.993Z</time></trkpt><trkpt lat="43.0019055" lon="12.1369934"><ele>236.5</ele><time>2026-04-09T16:25:37.993Z</time></trkpt><trkpt lat="43.0018954" lon="12.1368229"><ele>237.75</ele><time>2026-04-09T16:25:38.992Z</time></trkpt><trkpt lat="43.0018826" lon="12.1366556"><ele>239.0</ele><time>2026-04-09T16:25:39.993Z</time></trkpt><trkpt lat="43.0018718" lon="12.1364988"><ele>239.25</ele><time>2026-04-09T16:25:40.993Z</time></trkpt><trkpt lat="43.0018643" lon="12.1363396"><ele>239.5</ele><time>2026-04-09T16:25:41.992Z</time></trkpt><trkpt lat="43.0018578" lon="12.1361569"><ele>239.75</ele><time>2026-04-09T16:25:42.993Z</time></trkpt><trkpt lat="43.0018511" lon="12.1359538"><ele>240.0</ele><time>2026-04-09T16:25:43.993Z</time></trkpt><trkpt lat="43.0018459" lon="12.1357191"><ele>240.33333333333331</ele><time>2026-04-09T16:25:44.993Z</time></trkpt><trkpt lat="43.001835" lon="12.1354856"><ele>240.66666666666666</ele><time>2026-04-09T16:25:45.993Z</time></trkpt><trkpt lat="43.0018199" lon="12.1352499"><ele>241.0</ele><time>2026-04-09T16:25:46.993Z</time></trkpt><trkpt lat="43.0018203" lon="12.1350068"><ele>241.0</ele><time>2026-04-09T16:25:47.994Z</time></trkpt><trkpt lat="43.0017954" lon="12.1347384"><ele>241.0</ele><time>2026-04-09T16:25:48.992Z</time></trkpt><trkpt lat="43.0017694" lon="12.1344518"><ele>241.0</ele><time>2026-04-09T16:25:49.992Z</time></trkpt><trkpt lat="43.0017461" lon="12.1341657"><ele>241.33333333333331</ele><time>2026-04-09T16:25:50.993Z</time></trkpt><trkpt lat="43.001726" lon="12.1338717"><ele>241.66666666666669</ele><time>2026-04-09T16:25:51.993Z</time></trkpt><trkpt lat="43.0017055" lon="12.133575"><ele>242.0</ele><time>2026-04-09T16:25:52.993Z</time></trkpt><trkpt lat="43.0016843" lon="12.1332763"><ele>241.0</ele><time>2026-04-09T16:25:53.993Z</time></trkpt><trkpt lat="43.0016644" lon="12.1329821"><ele>240.0</ele><time>2026-04-09T16:25:54.993Z</time></trkpt><trkpt lat="43.0016455" lon="12.1326827"><ele>239.0</ele><time>2026-04-09T16:25:55.993Z</time></trkpt><trkpt lat="43.0016255" lon="12.1323939"><ele>239.33333333333334</ele><time>2026-04-09T16:25:56.993Z</time></trkpt><trkpt lat="43.0016033" lon="12.1321155"><ele>239.66666666666669</ele><time>2026-04-09T16:25:57.993Z</time></trkpt><trkpt lat="43.0015678" lon="12.1318325"><ele>240.0</ele><time>2026-04-09T16:25:58.993Z</time></trkpt><trkpt lat="43.0015382" lon="12.1315493"><ele>240.0</ele><time>2026-04-09T16:25:59.992Z</time></trkpt><trkpt lat="43.0014895" lon="12.1312674"><ele>240.0</ele><time>2026-04-09T16:26:00.993Z</time></trkpt><trkpt lat="43.0014312" lon="12.1309762"><ele>240.0</ele><time>2026-04-09T16:26:01.992Z</time></trkpt><trkpt lat="43.0013583" lon="12.1306879"><ele>240.5</ele><time>2026-04-09T16:26:02.992Z</time></trkpt><trkpt lat="43.0012666" lon="12.1303931"><ele>241.0</ele><time>2026-04-09T16:26:03.993Z</time></trkpt><trkpt lat="43.0011541" lon="12.1300966"><ele>240.0</ele><time>2026-04-09T16:26:04.993Z</time></trkpt><trkpt lat="43.0010324" lon="12.1298045"><ele>239.0</ele><time>2026-04-09T16:26:05.992Z</time></trkpt><trkpt lat="43.0009134" lon="12.1295558"><ele>239.0</ele><time>2026-04-09T16:26:06.993Z</time></trkpt><trkpt lat="43.0008049" lon="12.1293422"><ele>239.0</ele><time>2026-04-09T16:26:07.993Z</time></trkpt><trkpt lat="43.0007328" lon="12.1292065"><ele>239.0</ele><time>2026-04-09T16:26:08.992Z</time></trkpt><trkpt lat="43.0006544" lon="12.1290542"><ele>239.0</ele><time>2026-04-09T16:26:09.993Z</time></trkpt><trkpt lat="43.0005906" lon="12.128932"><ele>239.0</ele><time>2026-04-09T16:26:10.994Z</time></trkpt><trkpt lat="43.0005204" lon="12.1288019"><ele>238.99999999999997</ele><time>2026-04-09T16:26:11.993Z</time></trkpt><trkpt lat="43.000465" lon="12.1286982"><ele>238.99999999999997</ele><time>2026-04-09T16:26:12.994Z</time></trkpt><trkpt lat="43.0004042" lon="12.1285886"><ele>239.0</ele><time>2026-04-09T16:26:13.993Z</time></trkpt><trkpt lat="43.0003382" lon="12.1284772"><ele>239.0</ele><time>2026-04-09T16:26:14.994Z</time></trkpt><trkpt lat="43.0002855" lon="12.128374"><ele>239.0</ele><time>2026-04-09T16:26:15.992Z</time></trkpt><trkpt lat="43.0002234" lon="12.128262"><ele>239.0</ele><time>2026-04-09T16:26:16.992Z</time></trkpt><trkpt lat="43.0001568" lon="12.1281298"><ele>239.0</ele><time>2026-04-09T16:26:17.992Z</time></trkpt><trkpt lat="43.0000845" lon="12.1280015"><ele>239.0</ele><time>2026-04-09T16:26:18.993Z</time></trkpt><trkpt lat="43.0000043" lon="12.1278479"><ele>239.0</ele><time>2026-04-09T16:26:19.992Z</time></trkpt><trkpt lat="42.9999088" lon="12.1276801"><ele>239.0</ele><time>2026-04-09T16:26:20.993Z</time></trkpt><trkpt lat="42.9998057" lon="12.1275093"><ele>239.0</ele><time>2026-04-09T16:26:21.992Z</time></trkpt><trkpt lat="42.9997212" lon="12.1273495"><ele>239.66666666666669</ele><time>2026-04-09T16:26:22.993Z</time></trkpt><trkpt lat="42.9996305" lon="12.1271815"><ele>240.33333333333331</ele><time>2026-04-09T16:26:23.993Z</time></trkpt><trkpt lat="42.9995405" lon="12.127009"><ele>241.0</ele><time>2026-04-09T16:26:24.993Z</time></trkpt><trkpt lat="42.9994542" lon="12.1268273"><ele>241.0</ele><time>2026-04-09T16:26:25.993Z</time></trkpt><trkpt lat="42.9993612" lon="12.1266282"><ele>241.0</ele><time>2026-04-09T16:26:26.993Z</time></trkpt><trkpt lat="42.9992795" lon="12.1264225"><ele>241.0</ele><time>2026-04-09T16:26:27.993Z</time></trkpt><trkpt lat="42.9992201" lon="12.1262213"><ele>240.66666666666666</ele><time>2026-04-09T16:26:28.992Z</time></trkpt><trkpt lat="42.9991419" lon="12.1260003"><ele>240.33333333333331</ele><time>2026-04-09T16:26:29.993Z</time></trkpt><trkpt lat="42.9990853" lon="12.1257767"><ele>240.0</ele><time>2026-04-09T16:26:30.993Z</time></trkpt><trkpt lat="42.9990303" lon="12.1255672"><ele>240.75</ele><time>2026-04-09T16:26:31.993Z</time></trkpt><trkpt lat="42.998975" lon="12.1253753"><ele>241.5</ele><time>2026-04-09T16:26:32.993Z</time></trkpt><trkpt lat="42.9989259" lon="12.1252028"><ele>242.25</ele><time>2026-04-09T16:26:33.993Z</time></trkpt><trkpt lat="42.9988679" lon="12.1250377"><ele>243.0</ele><time>2026-04-09T16:26:34.993Z</time></trkpt><trkpt lat="42.9988125" lon="12.1248934"><ele>243.33333333333334</ele><time>2026-04-09T16:26:35.993Z</time></trkpt><trkpt lat="42.9987751" lon="12.1247738"><ele>243.66666666666669</ele><time>2026-04-09T16:26:36.992Z</time></trkpt><trkpt lat="42.9987521" lon="12.1246752"><ele>244.0</ele><time>2026-04-09T16:26:37.993Z</time></trkpt><trkpt lat="42.9987456" lon="12.1245595"><ele>244.33333333333334</ele><time>2026-04-09T16:26:38.993Z</time></trkpt><trkpt lat="42.9987631" lon="12.1244361"><ele>244.66666666666669</ele><time>2026-04-09T16:26:39.993Z</time></trkpt><trkpt lat="42.9988176" lon="12.1243309"><ele>245.0</ele><time>2026-04-09T16:26:40.993Z</time></trkpt><trkpt lat="42.9988893" lon="12.1242571"><ele>245.0</ele><time>2026-04-09T16:26:41.992Z</time></trkpt><trkpt lat="42.9989879" lon="12.1242019"><ele>245.0</ele><time>2026-04-09T16:26:42.993Z</time></trkpt><trkpt lat="42.9990875" lon="12.1241358"><ele>245.0</ele><time>2026-04-09T16:26:43.992Z</time></trkpt><trkpt lat="42.9991677" lon="12.1240581"><ele>245.0</ele><time>2026-04-09T16:26:44.992Z</time></trkpt><trkpt lat="42.9992325" lon="12.123952"><ele>245.0</ele><time>2026-04-09T16:26:45.991Z</time></trkpt><trkpt lat="42.9992576" lon="12.123819"><ele>250.0</ele><time>2026-04-09T16:26:46.992Z</time></trkpt><trkpt lat="42.9992645" lon="12.1235922"><ele>255.0</ele><time>2026-04-09T16:26:47.993Z</time></trkpt><trkpt lat="42.9992597" lon="12.1233735"><ele>260.0</ele><time>2026-04-09T16:26:48.992Z</time></trkpt><trkpt lat="42.9992541" lon="12.123145"><ele>261.33333333333337</ele><time>2026-04-09T16:26:49.993Z</time></trkpt><trkpt lat="42.9992416" lon="12.1229136"><ele>262.6666666666667</ele><time>2026-04-09T16:26:50.993Z</time></trkpt><trkpt lat="42.9992252" lon="12.1226765"><ele>264.0</ele><time>2026-04-09T16:26:51.993Z</time></trkpt><trkpt lat="42.9992074" lon="12.1224337"><ele>266.3333333333333</ele><time>2026-04-09T16:26:52.993Z</time></trkpt><trkpt lat="42.9991896" lon="12.1221802"><ele>268.66666666666663</ele><time>2026-04-09T16:26:53.993Z</time></trkpt><trkpt lat="42.9991771" lon="12.1219199"><ele>271.0</ele><time>2026-04-09T16:26:54.993Z</time></trkpt><trkpt lat="42.9991569" lon="12.1216829"><ele>264.3333333333333</ele><time>2026-04-09T16:26:55.993Z</time></trkpt><trkpt lat="42.9991403" lon="12.1214479"><ele>257.6666666666667</ele><time>2026-04-09T16:26:56.993Z</time></trkpt><trkpt lat="42.9991263" lon="12.1212354"><ele>251.0</ele><time>2026-04-09T16:26:57.993Z</time></trkpt><trkpt lat="42.9991248" lon="12.1210087"><ele>251.0</ele><time>2026-04-09T16:26:58.993Z</time></trkpt><trkpt lat="42.9991354" lon="12.12079"><ele>251.0</ele><time>2026-04-09T16:26:59.993Z</time></trkpt><trkpt lat="42.9991521" lon="12.1205572"><ele>251.0</ele><time>2026-04-09T16:27:00.993Z</time></trkpt><trkpt lat="42.9991777" lon="12.1203179"><ele>254.33333333333334</ele><time>2026-04-09T16:27:01.993Z</time></trkpt><trkpt lat="42.9992118" lon="12.1200744"><ele>257.6666666666667</ele><time>2026-04-09T16:27:02.993Z</time></trkpt><trkpt lat="42.9992591" lon="12.1198337"><ele>261.0</ele><time>2026-04-09T16:27:03.993Z</time></trkpt><trkpt lat="42.9993108" lon="12.1195749"><ele>261.0</ele><time>2026-04-09T16:27:04.993Z</time></trkpt><trkpt lat="42.9993496" lon="12.1193184"><ele>261.0</ele><time>2026-04-09T16:27:05.993Z</time></trkpt><trkpt lat="42.9993821" lon="12.1190586"><ele>261.0</ele><time>2026-04-09T16:27:06.991Z</time></trkpt><trkpt lat="42.9993924" lon="12.1187959"><ele>260.3333333333333</ele><time>2026-04-09T16:27:07.993Z</time></trkpt><trkpt lat="42.9993997" lon="12.118531"><ele>259.66666666666663</ele><time>2026-04-09T16:27:08.993Z</time></trkpt><trkpt lat="42.9993967" lon="12.1182516"><ele>259.0</ele><time>2026-04-09T16:27:09.993Z</time></trkpt><trkpt lat="42.9993937" lon="12.1179636"><ele>259.0</ele><time>2026-04-09T16:27:10.993Z</time></trkpt><trkpt lat="42.9993913" lon="12.1176759"><ele>259.0</ele><time>2026-04-09T16:27:11.993Z</time></trkpt><trkpt lat="42.999387" lon="12.1173856"><ele>259.0</ele><time>2026-04-09T16:27:12.993Z</time></trkpt><trkpt lat="42.9993898" lon="12.1170941"><ele>260.3333333333333</ele><time>2026-04-09T16:27:13.992Z</time></trkpt><trkpt lat="42.99939" lon="12.116808"><ele>261.6666666666667</ele><time>2026-04-09T16:27:14.993Z</time></trkpt><trkpt lat="42.9993923" lon="12.1165288"><ele>263.0</ele><time>2026-04-09T16:27:15.993Z</time></trkpt><trkpt lat="42.9993897" lon="12.1162816"><ele>263.0</ele><time>2026-04-09T16:27:16.993Z</time></trkpt><trkpt lat="42.9993807" lon="12.1160565"><ele>263.0</ele><time>2026-04-09T16:27:17.993Z</time></trkpt><trkpt lat="42.9993881" lon="12.1158455"><ele>263.0</ele><time>2026-04-09T16:27:18.993Z</time></trkpt><trkpt lat="42.9993987" lon="12.1156319"><ele>260.6666666666667</ele><time>2026-04-09T16:27:19.993Z</time></trkpt><trkpt lat="42.9994116" lon="12.1154168"><ele>258.3333333333333</ele><time>2026-04-09T16:27:20.993Z</time></trkpt><trkpt lat="42.9994302" lon="12.1151925"><ele>256.0</ele><time>2026-04-09T16:27:21.993Z</time></trkpt><trkpt lat="42.9994513" lon="12.1149592"><ele>255.33333333333331</ele><time>2026-04-09T16:27:22.993Z</time></trkpt><trkpt lat="42.9994782" lon="12.1147202"><ele>254.66666666666669</ele><time>2026-04-09T16:27:23.993Z</time></trkpt><trkpt lat="42.9995079" lon="12.1144798"><ele>254.0</ele><time>2026-04-09T16:27:24.993Z</time></trkpt><trkpt lat="42.9995501" lon="12.1142494"><ele>254.66666666666669</ele><time>2026-04-09T16:27:25.993Z</time></trkpt><trkpt lat="42.9995842" lon="12.114016"><ele>255.33333333333331</ele><time>2026-04-09T16:27:26.993Z</time></trkpt><trkpt lat="42.9996225" lon="12.1138087"><ele>256.0</ele><time>2026-04-09T16:27:27.993Z</time></trkpt><trkpt lat="42.9996713" lon="12.1136262"><ele>256.0</ele><time>2026-04-09T16:27:28.993Z</time></trkpt><trkpt lat="42.9997442" lon="12.1134681"><ele>256.0</ele><time>2026-04-09T16:27:29.993Z</time></trkpt><trkpt lat="42.9998419" lon="12.113333"><ele>256.0</ele><time>2026-04-09T16:27:30.993Z</time></trkpt><trkpt lat="42.9999657" lon="12.1132191"><ele>256.0</ele><time>2026-04-09T16:27:31.993Z</time></trkpt><trkpt lat="43.0001004" lon="12.1131147"><ele>255.5</ele><time>2026-04-09T16:27:32.992Z</time></trkpt><trkpt lat="43.000231" lon="12.1130252"><ele>255.0</ele><time>2026-04-09T16:27:33.993Z</time></trkpt><trkpt lat="43.0003437" lon="12.1129366"><ele>254.5</ele><time>2026-04-09T16:27:34.993Z</time></trkpt><trkpt lat="43.0004376" lon="12.1128664"><ele>254.0</ele><time>2026-04-09T16:27:35.993Z</time></trkpt><trkpt lat="43.0005267" lon="12.1128561"><ele>254.00000000000003</ele><time>2026-04-09T16:27:36.992Z</time></trkpt><trkpt lat="43.0005861" lon="12.1129282"><ele>254.0</ele><time>2026-04-09T16:27:37.993Z</time></trkpt><trkpt lat="43.0006199" lon="12.1130187"><ele>254.0</ele><time>2026-04-09T16:27:38.992Z</time></trkpt><trkpt lat="43.0006377" lon="12.1131348"><ele>254.0</ele><time>2026-04-09T16:27:39.992Z</time></trkpt><trkpt lat="43.0006503" lon="12.1132708"><ele>254.00000000000003</ele><time>2026-04-09T16:27:40.992Z</time></trkpt><trkpt lat="43.0006781" lon="12.1133868"><ele>254.0</ele><time>2026-04-09T16:27:41.993Z</time></trkpt><trkpt lat="43.0007215" lon="12.1135065"><ele>254.33333333333334</ele><time>2026-04-09T16:27:42.993Z</time></trkpt><trkpt lat="43.0007848" lon="12.1136045"><ele>254.66666666666669</ele><time>2026-04-09T16:27:43.993Z</time></trkpt><trkpt lat="43.0008618" lon="12.1136496"><ele>255.0</ele><time>2026-04-09T16:27:44.993Z</time></trkpt><trkpt lat="43.0009427" lon="12.1136368"><ele>255.33333333333331</ele><time>2026-04-09T16:27:45.992Z</time></trkpt><trkpt lat="43.0010139" lon="12.1135659"><ele>255.66666666666666</ele><time>2026-04-09T16:27:46.991Z</time></trkpt><trkpt lat="43.0010622" lon="12.1134636"><ele>256.0</ele><time>2026-04-09T16:27:47.993Z</time></trkpt><trkpt lat="43.0011049" lon="12.1133011"><ele>259.25</ele><time>2026-04-09T16:27:48.993Z</time></trkpt><trkpt lat="43.0011557" lon="12.1131165"><ele>262.5</ele><time>2026-04-09T16:27:49.993Z</time></trkpt><trkpt lat="43.0012018" lon="12.1129413"><ele>265.75</ele><time>2026-04-09T16:27:50.993Z</time></trkpt><trkpt lat="43.0012593" lon="12.1127761"><ele>269.0</ele><time>2026-04-09T16:27:51.993Z</time></trkpt><trkpt lat="43.0012928" lon="12.1126026"><ele>269.0</ele><time>2026-04-09T16:27:52.993Z</time></trkpt><trkpt lat="43.001296" lon="12.1124287"><ele>269.0</ele><time>2026-04-09T16:27:53.993Z</time></trkpt><trkpt lat="43.0012858" lon="12.1122618"><ele>269.0</ele><time>2026-04-09T16:27:54.993Z</time></trkpt><trkpt lat="43.0013046" lon="12.1121019"><ele>269.0</ele><time>2026-04-09T16:27:55.993Z</time></trkpt><trkpt lat="43.0013626" lon="12.1119659"><ele>268.75</ele><time>2026-04-09T16:27:56.993Z</time></trkpt><trkpt lat="43.0014611" lon="12.1118454"><ele>268.5</ele><time>2026-04-09T16:27:57.993Z</time></trkpt><trkpt lat="43.0015859" lon="12.1117372"><ele>268.25</ele><time>2026-04-09T16:27:58.992Z</time></trkpt><trkpt lat="43.0017215" lon="12.1116335"><ele>268.0</ele><time>2026-04-09T16:27:59.992Z</time></trkpt><trkpt lat="43.0018628" lon="12.1115255"><ele>271.0</ele><time>2026-04-09T16:28:00.993Z</time></trkpt><trkpt lat="43.001989" lon="12.1113985"><ele>274.0</ele><time>2026-04-09T16:28:01.993Z</time></trkpt><trkpt lat="43.0020824" lon="12.1112494"><ele>277.0</ele><time>2026-04-09T16:28:02.993Z</time></trkpt><trkpt lat="43.0021639" lon="12.1110875"><ele>280.0</ele><time>2026-04-09T16:28:03.993Z</time></trkpt><trkpt lat="43.0022363" lon="12.1109247"><ele>280.0</ele><time>2026-04-09T16:28:04.993Z</time></trkpt><trkpt lat="43.0023252" lon="12.1107999"><ele>280.0</ele><time>2026-04-09T16:28:05.992Z</time></trkpt><trkpt lat="43.0024415" lon="12.1107086"><ele>280.0</ele><time>2026-04-09T16:28:06.993Z</time></trkpt><trkpt lat="43.0025801" lon="12.1106907"><ele>280.0</ele><time>2026-04-09T16:28:07.993Z</time></trkpt><trkpt lat="43.0027278" lon="12.1106579"><ele>281.0</ele><time>2026-04-09T16:28:08.993Z</time></trkpt><trkpt lat="43.0028747" lon="12.1106066"><ele>282.0</ele><time>2026-04-09T16:28:09.993Z</time></trkpt><trkpt lat="43.0030261" lon="12.11052"><ele>283.0</ele><time>2026-04-09T16:28:10.993Z</time></trkpt><trkpt lat="43.0031774" lon="12.1103929"><ele>283.0</ele><time>2026-04-09T16:28:11.993Z</time></trkpt><trkpt lat="43.0032978" lon="12.1102615"><ele>283.0</ele><time>2026-04-09T16:28:12.993Z</time></trkpt><trkpt lat="43.0033945" lon="12.1101235"><ele>283.0</ele><time>2026-04-09T16:28:13.991Z</time></trkpt><trkpt lat="43.0034812" lon="12.1099826"><ele>283.0</ele><time>2026-04-09T16:28:14.993Z</time></trkpt><trkpt lat="43.0035563" lon="12.1098519"><ele>285.4</ele><time>2026-04-09T16:28:15.992Z</time></trkpt><trkpt lat="43.0036299" lon="12.109731"><ele>287.8</ele><time>2026-04-09T16:28:16.993Z</time></trkpt><trkpt lat="43.0037034" lon="12.1096372"><ele>290.2</ele><time>2026-04-09T16:28:17.993Z</time></trkpt><trkpt lat="43.0037698" lon="12.1095533"><ele>292.6</ele><time>2026-04-09T16:28:18.993Z</time></trkpt><trkpt lat="43.0038304" lon="12.1094748"><ele>295.0</ele><time>2026-04-09T16:28:19.992Z</time></trkpt><trkpt lat="43.0038902" lon="12.1094151"><ele>295.0</ele><time>2026-04-09T16:28:20.993Z</time></trkpt><trkpt lat="43.0039508" lon="12.1093488"><ele>295.0</ele><time>2026-04-09T16:28:21.993Z</time></trkpt><trkpt lat="43.0040137" lon="12.1092743"><ele>295.0</ele><time>2026-04-09T16:28:22.992Z</time></trkpt><trkpt lat="43.004083" lon="12.1091942"><ele>295.0</ele><time>2026-04-09T16:28:23.993Z</time></trkpt><trkpt lat="43.0041625" lon="12.1091055"><ele>295.0</ele><time>2026-04-09T16:28:24.993Z</time></trkpt><trkpt lat="43.0042488" lon="12.1089988"><ele>295.25</ele><time>2026-04-09T16:28:25.993Z</time></trkpt><trkpt lat="43.0043505" lon="12.1088767"><ele>295.5</ele><time>2026-04-09T16:28:26.992Z</time></trkpt><trkpt lat="43.004458" lon="12.1087623"><ele>295.75</ele><time>2026-04-09T16:28:27.993Z</time></trkpt><trkpt lat="43.0045717" lon="12.1086381"><ele>296.0</ele><time>2026-04-09T16:28:28.993Z</time></trkpt><trkpt lat="43.0046924" lon="12.1085163"><ele>296.0</ele><time>2026-04-09T16:28:29.993Z</time></trkpt><trkpt lat="43.0048254" lon="12.1083864"><ele>296.0</ele><time>2026-04-09T16:28:30.993Z</time></trkpt><trkpt lat="43.0049574" lon="12.1082633"><ele>296.0</ele><time>2026-04-09T16:28:31.992Z</time></trkpt><trkpt lat="43.0050695" lon="12.1081414"><ele>298.0</ele><time>2026-04-09T16:28:32.993Z</time></trkpt><trkpt lat="43.0051643" lon="12.1079908"><ele>300.0</ele><time>2026-04-09T16:28:33.992Z</time></trkpt><trkpt lat="43.0052384" lon="12.1078023"><ele>302.0</ele><time>2026-04-09T16:28:34.993Z</time></trkpt><trkpt lat="43.0052961" lon="12.1075951"><ele>302.0</ele><time>2026-04-09T16:28:35.993Z</time></trkpt><trkpt lat="43.0052906" lon="12.107374"><ele>302.0</ele><time>2026-04-09T16:28:36.993Z</time></trkpt><trkpt lat="43.0052885" lon="12.107151"><ele>302.0</ele><time>2026-04-09T16:28:37.993Z</time></trkpt><trkpt lat="43.0052666" lon="12.1069091"><ele>302.0</ele><time>2026-04-09T16:28:38.993Z</time></trkpt><trkpt lat="43.0052582" lon="12.1066642"><ele>302.0</ele><time>2026-04-09T16:28:39.992Z</time></trkpt><trkpt lat="43.0052676" lon="12.1064218"><ele>302.0</ele><time>2026-04-09T16:28:40.993Z</time></trkpt><trkpt lat="43.0052782" lon="12.1061757"><ele>302.33333333333337</ele><time>2026-04-09T16:28:41.993Z</time></trkpt><trkpt lat="43.0052888" lon="12.1059351"><ele>302.6666666666667</ele><time>2026-04-09T16:28:42.993Z</time></trkpt><trkpt lat="43.0052861" lon="12.1056722"><ele>303.0</ele><time>2026-04-09T16:28:43.993Z</time></trkpt><trkpt lat="43.0052746" lon="12.105392"><ele>303.3333333333333</ele><time>2026-04-09T16:28:44.991Z</time></trkpt><trkpt lat="43.0052685" lon="12.1051167"><ele>303.66666666666663</ele><time>2026-04-09T16:28:45.993Z</time></trkpt><trkpt lat="43.0052812" lon="12.1048456"><ele>304.0</ele><time>2026-04-09T16:28:46.993Z</time></trkpt><trkpt lat="43.0053027" lon="12.1045955"><ele>304.0</ele><time>2026-04-09T16:28:47.993Z</time></trkpt><trkpt lat="43.005342" lon="12.1043514"><ele>304.0</ele><time>2026-04-09T16:28:48.993Z</time></trkpt><trkpt lat="43.0053906" lon="12.1041131"><ele>304.0</ele><time>2026-04-09T16:28:49.993Z</time></trkpt><trkpt lat="43.0054275" lon="12.1038664"><ele>303.66666666666663</ele><time>2026-04-09T16:28:50.993Z</time></trkpt><trkpt lat="43.0054499" lon="12.1036279"><ele>303.3333333333333</ele><time>2026-04-09T16:28:51.993Z</time></trkpt><trkpt lat="43.0054572" lon="12.103402"><ele>303.0</ele><time>2026-04-09T16:28:52.993Z</time></trkpt><trkpt lat="43.0054615" lon="12.1031644"><ele>305.6666666666667</ele><time>2026-04-09T16:28:53.991Z</time></trkpt><trkpt lat="43.0054556" lon="12.1029388"><ele>308.33333333333337</ele><time>2026-04-09T16:28:54.993Z</time></trkpt><trkpt lat="43.0054387" lon="12.1027117"><ele>311.0</ele><time>2026-04-09T16:28:55.993Z</time></trkpt><trkpt lat="43.0054174" lon="12.1025108"><ele>313.25</ele><time>2026-04-09T16:28:56.993Z</time></trkpt><trkpt lat="43.0053954" lon="12.1023105"><ele>315.5</ele><time>2026-04-09T16:28:57.993Z</time></trkpt><trkpt lat="43.0053777" lon="12.1021204"><ele>317.75</ele><time>2026-04-09T16:28:58.993Z</time></trkpt><trkpt lat="43.0053732" lon="12.1019378"><ele>320.0</ele><time>2026-04-09T16:28:59.993Z</time></trkpt><trkpt lat="43.0053693" lon="12.1017552"><ele>322.0</ele><time>2026-04-09T16:29:00.992Z</time></trkpt><trkpt lat="43.0053525" lon="12.1015606"><ele>324.0</ele><time>2026-04-09T16:29:01.993Z</time></trkpt><trkpt lat="43.005326" lon="12.1013646"><ele>326.0</ele><time>2026-04-09T16:29:02.993Z</time></trkpt><trkpt lat="43.0052963" lon="12.1011717"><ele>328.0</ele><time>2026-04-09T16:29:03.993Z</time></trkpt><trkpt lat="43.0052619" lon="12.1009909"><ele>328.0</ele><time>2026-04-09T16:29:04.993Z</time></trkpt><trkpt lat="43.0052336" lon="12.1008087"><ele>328.0</ele><time>2026-04-09T16:29:05.993Z</time></trkpt><trkpt lat="43.0052133" lon="12.1006338"><ele>328.0</ele><time>2026-04-09T16:29:06.993Z</time></trkpt><trkpt lat="43.005203" lon="12.1004627"><ele>328.0</ele><time>2026-04-09T16:29:07.993Z</time></trkpt><trkpt lat="43.0051998" lon="12.1003398"><ele>329.57142857142856</ele><time>2026-04-09T16:29:08.993Z</time></trkpt><trkpt lat="43.0052018" lon="12.1002306"><ele>331.1428571428571</ele><time>2026-04-09T16:29:09.992Z</time></trkpt><trkpt lat="43.0051977" lon="12.1001175"><ele>332.71428571428567</ele><time>2026-04-09T16:29:10.993Z</time></trkpt><trkpt lat="43.0052024" lon="12.1000074"><ele>334.2857142857143</ele><time>2026-04-09T16:29:11.993Z</time></trkpt><trkpt lat="43.0052104" lon="12.099913"><ele>335.8571428571429</ele><time>2026-04-09T16:29:12.993Z</time></trkpt><trkpt lat="43.005225" lon="12.0998272"><ele>337.4285714285714</ele><time>2026-04-09T16:29:13.993Z</time></trkpt><trkpt lat="43.0052514" lon="12.0997443"><ele>339.0</ele><time>2026-04-09T16:29:14.993Z</time></trkpt><trkpt lat="43.0052809" lon="12.0996672"><ele>339.0</ele><time>2026-04-09T16:29:15.993Z</time></trkpt><trkpt lat="43.0053438" lon="12.0995683"><ele>339.0</ele><time>2026-04-09T16:29:16.993Z</time></trkpt><trkpt lat="43.0053975" lon="12.0994687"><ele>339.0</ele><time>2026-04-09T16:29:17.993Z</time></trkpt><trkpt lat="43.0054332" lon="12.099353"><ele>339.0</ele><time>2026-04-09T16:29:18.993Z</time></trkpt><trkpt lat="43.0054674" lon="12.099242"><ele>339.0</ele><time>2026-04-09T16:29:19.993Z</time></trkpt><trkpt lat="43.0055084" lon="12.0991267"><ele>337.1666666666667</ele><time>2026-04-09T16:29:20.993Z</time></trkpt><trkpt lat="43.0055526" lon="12.0990224"><ele>335.3333333333333</ele><time>2026-04-09T16:29:21.992Z</time></trkpt><trkpt lat="43.0055988" lon="12.0989192"><ele>333.5</ele><time>2026-04-09T16:29:22.992Z</time></trkpt><trkpt lat="43.0056418" lon="12.0988153"><ele>331.66666666666663</ele><time>2026-04-09T16:29:23.993Z</time></trkpt><trkpt lat="43.0056854" lon="12.0987323"><ele>329.8333333333333</ele><time>2026-04-09T16:29:24.994Z</time></trkpt><trkpt lat="43.0057429" lon="12.0986489"><ele>328.0</ele><time>2026-04-09T16:29:25.993Z</time></trkpt><trkpt lat="43.0058177" lon="12.0985703"><ele>331.75</ele><time>2026-04-09T16:29:26.993Z</time></trkpt><trkpt lat="43.0059015" lon="12.0985134"><ele>335.5</ele><time>2026-04-09T16:29:27.993Z</time></trkpt><trkpt lat="43.0060341" lon="12.0984228"><ele>339.25</ele><time>2026-04-09T16:29:28.993Z</time></trkpt><trkpt lat="43.0061752" lon="12.098348"><ele>343.0</ele><time>2026-04-09T16:29:29.993Z</time></trkpt><trkpt lat="43.0063358" lon="12.0982735"><ele>344.66666666666663</ele><time>2026-04-09T16:29:30.993Z</time></trkpt><trkpt lat="43.0064898" lon="12.0981845"><ele>346.3333333333333</ele><time>2026-04-09T16:29:31.993Z</time></trkpt><trkpt lat="43.0066328" lon="12.0980612"><ele>348.0</ele><time>2026-04-09T16:29:32.993Z</time></trkpt><trkpt lat="43.0067704" lon="12.0979335"><ele>348.0</ele><time>2026-04-09T16:29:33.993Z</time></trkpt><trkpt lat="43.0068822" lon="12.0977876"><ele>348.0</ele><time>2026-04-09T16:29:34.992Z</time></trkpt><trkpt lat="43.0069751" lon="12.0976516"><ele>348.0</ele><time>2026-04-09T16:29:35.993Z</time></trkpt><trkpt lat="43.0070639" lon="12.09752"><ele>348.0</ele><time>2026-04-09T16:29:36.993Z</time></trkpt><trkpt lat="43.007162" lon="12.0973929"><ele>348.0</ele><time>2026-04-09T16:29:37.993Z</time></trkpt><trkpt lat="43.007277" lon="12.0972911"><ele>348.0</ele><time>2026-04-09T16:29:38.993Z</time></trkpt><trkpt lat="43.0073914" lon="12.0971884"><ele>348.0</ele><time>2026-04-09T16:29:39.993Z</time></trkpt><trkpt lat="43.0075634" lon="12.0971482"><ele>348.0</ele><time>2026-04-09T16:29:40.994Z</time></trkpt><trkpt lat="43.0077234" lon="12.097131"><ele>351.3333333333333</ele><time>2026-04-09T16:29:41.993Z</time></trkpt><trkpt lat="43.007877" lon="12.0971063"><ele>354.66666666666663</ele><time>2026-04-09T16:29:42.993Z</time></trkpt><trkpt lat="43.0080242" lon="12.0970798"><ele>358.0</ele><time>2026-04-09T16:29:43.993Z</time></trkpt><trkpt lat="43.0081714" lon="12.0970247"><ele>358.0</ele><time>2026-04-09T16:29:44.993Z</time></trkpt><trkpt lat="43.0083045" lon="12.0969253"><ele>358.0</ele><time>2026-04-09T16:29:45.993Z</time></trkpt><trkpt lat="43.0084364" lon="12.0967979"><ele>358.0</ele><time>2026-04-09T16:29:46.993Z</time></trkpt><trkpt lat="43.0085872" lon="12.0966814"><ele>357.0</ele><time>2026-04-09T16:29:47.993Z</time></trkpt><trkpt lat="43.0087655" lon="12.0965865"><ele>356.0</ele><time>2026-04-09T16:29:48.993Z</time></trkpt><trkpt lat="43.008926" lon="12.0965276"><ele>355.0</ele><time>2026-04-09T16:29:49.993Z</time></trkpt><trkpt lat="43.0091091" lon="12.0964856"><ele>358.66666666666663</ele><time>2026-04-09T16:29:50.993Z</time></trkpt><trkpt lat="43.0092738" lon="12.0964147"><ele>362.3333333333333</ele><time>2026-04-09T16:29:51.993Z</time></trkpt><trkpt lat="43.009433" lon="12.0963381"><ele>366.0</ele><time>2026-04-09T16:29:52.993Z</time></trkpt><trkpt lat="43.0095083" lon="12.0962141"><ele>366.0</ele><time>2026-04-09T16:29:53.993Z</time></trkpt><trkpt lat="43.0095952" lon="12.0960942"><ele>366.0</ele><time>2026-04-09T16:29:54.992Z</time></trkpt><trkpt lat="43.0097013" lon="12.0959698"><ele>366.0</ele><time>2026-04-09T16:29:55.994Z</time></trkpt><trkpt lat="43.0097188" lon="12.0958577"><ele>366.0</ele><time>2026-04-09T16:29:56.992Z</time></trkpt><trkpt lat="43.0097729" lon="12.0957422"><ele>366.0</ele><time>2026-04-09T16:29:57.993Z</time></trkpt><trkpt lat="43.0098499" lon="12.0956832"><ele>366.1666666666667</ele><time>2026-04-09T16:29:58.993Z</time></trkpt><trkpt lat="43.0099368" lon="12.0956623"><ele>366.3333333333333</ele><time>2026-04-09T16:29:59.993Z</time></trkpt><trkpt lat="43.0099843" lon="12.0957294"><ele>366.5</ele><time>2026-04-09T16:30:00.993Z</time></trkpt><trkpt lat="43.0100681" lon="12.0957616"><ele>366.66666666666663</ele><time>2026-04-09T16:30:01.993Z</time></trkpt><trkpt lat="43.0101544" lon="12.0957649"><ele>366.8333333333333</ele><time>2026-04-09T16:30:02.993Z</time></trkpt><trkpt lat="43.0102526" lon="12.095742"><ele>367.0</ele><time>2026-04-09T16:30:03.993Z</time></trkpt><trkpt lat="43.0103815" lon="12.0956914"><ele>369.0</ele><time>2026-04-09T16:30:04.993Z</time></trkpt><trkpt lat="43.0105019" lon="12.0956453"><ele>371.0</ele><time>2026-04-09T16:30:05.993Z</time></trkpt><trkpt lat="43.0106115" lon="12.0956965"><ele>373.0</ele><time>2026-04-09T16:30:06.993Z</time></trkpt><trkpt lat="43.0107508" lon="12.0957298"><ele>375.0</ele><time>2026-04-09T16:30:07.993Z</time></trkpt><trkpt lat="43.0108743" lon="12.0957978"><ele>375.0</ele><time>2026-04-09T16:30:08.993Z</time></trkpt><trkpt lat="43.0109902" lon="12.095846"><ele>375.0</ele><time>2026-04-09T16:30:09.993Z</time></trkpt><trkpt lat="43.0111106" lon="12.0958465"><ele>375.0</ele><time>2026-04-09T16:30:10.993Z</time></trkpt><trkpt lat="43.0112314" lon="12.0957468"><ele>375.0</ele><time>2026-04-09T16:30:11.993Z</time></trkpt><trkpt lat="43.0113561" lon="12.0956478"><ele>378.5</ele><time>2026-04-09T16:30:12.993Z</time></trkpt><trkpt lat="43.0114911" lon="12.0955456"><ele>382.0</ele><time>2026-04-09T16:30:13.993Z</time></trkpt><trkpt lat="43.0116213" lon="12.0954812"><ele>385.5</ele><time>2026-04-09T16:30:14.993Z</time></trkpt><trkpt lat="43.0117517" lon="12.0954224"><ele>389.0</ele><time>2026-04-09T16:30:15.993Z</time></trkpt><trkpt lat="43.0118512" lon="12.09536"><ele>390.25</ele><time>2026-04-09T16:30:16.993Z</time></trkpt><trkpt lat="43.0119778" lon="12.0952842"><ele>391.5</ele><time>2026-04-09T16:30:17.993Z</time></trkpt><trkpt lat="43.0120949" lon="12.0951802"><ele>392.75</ele><time>2026-04-09T16:30:18.993Z</time></trkpt><trkpt lat="43.0121997" lon="12.0950521"><ele>394.0</ele><time>2026-04-09T16:30:19.993Z</time></trkpt><trkpt lat="43.0122883" lon="12.0949029"><ele>398.75</ele><time>2026-04-09T16:30:20.993Z</time></trkpt><trkpt lat="43.0123532" lon="12.0947344"><ele>403.5</ele><time>2026-04-09T16:30:21.993Z</time></trkpt><trkpt lat="43.0123902" lon="12.094584"><ele>408.25</ele><time>2026-04-09T16:30:22.993Z</time></trkpt><trkpt lat="43.0124895" lon="12.0944739"><ele>413.0</ele><time>2026-04-09T16:30:23.992Z</time></trkpt><trkpt lat="43.0124752" lon="12.0942273"><ele>410.25</ele><time>2026-04-09T16:30:24.993Z</time></trkpt><trkpt lat="43.0125171" lon="12.0940442"><ele>407.5</ele><time>2026-04-09T16:30:25.993Z</time></trkpt><trkpt lat="43.0125222" lon="12.0938981"><ele>404.75</ele><time>2026-04-09T16:30:26.994Z</time></trkpt><trkpt lat="43.0125808" lon="12.0937486"><ele>402.0</ele><time>2026-04-09T16:30:27.993Z</time></trkpt><trkpt lat="43.012662" lon="12.0936299"><ele>402.0</ele><time>2026-04-09T16:30:28.993Z</time></trkpt><trkpt lat="43.0127549" lon="12.0935325"><ele>402.0</ele><time>2026-04-09T16:30:29.993Z</time></trkpt><trkpt lat="43.0128627" lon="12.0934348"><ele>402.0</ele><time>2026-04-09T16:30:30.993Z</time></trkpt><trkpt lat="43.0129703" lon="12.0933433"><ele>402.0</ele><time>2026-04-09T16:30:31.993Z</time></trkpt><trkpt lat="43.0130708" lon="12.0932733"><ele>402.0</ele><time>2026-04-09T16:30:32.993Z</time></trkpt><trkpt lat="43.0131574" lon="12.0932077"><ele>402.0</ele><time>2026-04-09T16:30:33.993Z</time></trkpt><trkpt lat="43.0132594" lon="12.093251"><ele>402.0</ele><time>2026-04-09T16:30:34.993Z</time></trkpt><trkpt lat="43.013341" lon="12.0932541"><ele>402.0</ele><time>2026-04-09T16:30:35.993Z</time></trkpt><trkpt lat="43.0134077" lon="12.0932859"><ele>402.0</ele><time>2026-04-09T16:30:36.993Z</time></trkpt><trkpt lat="43.013338" lon="12.0934374"><ele>402.0</ele><time>2026-04-09T16:30:37.993Z</time></trkpt><trkpt lat="43.0133395" lon="12.0935247"><ele>402.0</ele><time>2026-04-09T16:30:38.993Z</time></trkpt><trkpt lat="43.0132627" lon="12.0936861"><ele>402.0</ele><time>2026-04-09T16:30:40.992Z</time></trkpt><trkpt lat="43.0132202" lon="12.0937723"><ele>402.0</ele><time>2026-04-09T16:30:41.993Z</time></trkpt><trkpt lat="43.0132148" lon="12.0938775"><ele>402.0</ele><time>2026-04-09T16:30:42.993Z</time></trkpt><trkpt lat="43.013226" lon="12.0939763"><ele>402.0</ele><time>2026-04-09T16:30:43.993Z</time></trkpt><trkpt lat="43.0132542" lon="12.0940692"><ele>400.1666666666667</ele><time>2026-04-09T16:30:44.993Z</time></trkpt><trkpt lat="43.0133123" lon="12.0941344"><ele>398.33333333333337</ele><time>2026-04-09T16:30:45.992Z</time></trkpt><trkpt lat="43.0133821" lon="12.0941694"><ele>396.5</ele><time>2026-04-09T16:30:46.993Z</time></trkpt><trkpt lat="43.0134658" lon="12.0941768"><ele>394.6666666666667</ele><time>2026-04-09T16:30:47.993Z</time></trkpt><trkpt lat="43.0135427" lon="12.0941483"><ele>392.83333333333337</ele><time>2026-04-09T16:30:48.992Z</time></trkpt><trkpt lat="43.013624" lon="12.0941199"><ele>391.0</ele><time>2026-04-09T16:30:49.993Z</time></trkpt><trkpt lat="43.0137052" lon="12.094078"><ele>391.00000000000006</ele><time>2026-04-09T16:30:50.994Z</time></trkpt><trkpt lat="43.013785" lon="12.0940572"><ele>391.0</ele><time>2026-04-09T16:30:51.993Z</time></trkpt><trkpt lat="43.0138602" lon="12.09412"><ele>391.0</ele><time>2026-04-09T16:30:52.994Z</time></trkpt><trkpt lat="43.0139267" lon="12.094192"><ele>391.0</ele><time>2026-04-09T16:30:53.993Z</time></trkpt><trkpt lat="43.01397" lon="12.0942985"><ele>391.00000000000006</ele><time>2026-04-09T16:30:54.992Z</time></trkpt><trkpt lat="43.0140137" lon="12.0943985"><ele>391.0</ele><time>2026-04-09T16:30:55.993Z</time></trkpt><trkpt lat="43.0140713" lon="12.0944921"><ele>391.33333333333337</ele><time>2026-04-09T16:30:56.993Z</time></trkpt><trkpt lat="43.0141567" lon="12.0945707"><ele>391.6666666666667</ele><time>2026-04-09T16:30:57.993Z</time></trkpt><trkpt lat="43.0142402" lon="12.0946427"><ele>392.0</ele><time>2026-04-09T16:30:58.993Z</time></trkpt><trkpt lat="43.0143105" lon="12.0946837"><ele>392.33333333333337</ele><time>2026-04-09T16:30:59.993Z</time></trkpt><trkpt lat="43.0143752" lon="12.0947111"><ele>392.6666666666667</ele><time>2026-04-09T16:31:00.993Z</time></trkpt><trkpt lat="43.0144399" lon="12.0947438"><ele>393.0</ele><time>2026-04-09T16:31:01.992Z</time></trkpt><trkpt lat="43.0145091" lon="12.0947823"><ele>393.0</ele><time>2026-04-09T16:31:02.993Z</time></trkpt><trkpt lat="43.0145719" lon="12.0948292"><ele>393.0</ele><time>2026-04-09T16:31:03.993Z</time></trkpt><trkpt lat="43.0146876" lon="12.0949103"><ele>393.0</ele><time>2026-04-09T16:31:05.993Z</time></trkpt><trkpt lat="43.0147819" lon="12.0949488"><ele>393.0</ele><time>2026-04-09T16:31:06.993Z</time></trkpt><trkpt lat="43.014896" lon="12.0950102"><ele>393.0</ele><time>2026-04-09T16:31:07.993Z</time></trkpt><trkpt lat="43.0150332" lon="12.0950407"><ele>391.0</ele><time>2026-04-09T16:31:08.993Z</time></trkpt><trkpt lat="43.0151537" lon="12.0950633"><ele>389.0</ele><time>2026-04-09T16:31:09.993Z</time></trkpt><trkpt lat="43.0152557" lon="12.0951132"><ele>387.0</ele><time>2026-04-09T16:31:10.992Z</time></trkpt><trkpt lat="43.0153448" lon="12.0951824"><ele>385.0</ele><time>2026-04-09T16:31:11.992Z</time></trkpt><trkpt lat="43.0153663" lon="12.0953186"><ele>383.0</ele><time>2026-04-09T16:31:12.993Z</time></trkpt><trkpt lat="43.0153904" lon="12.0954537"><ele>383.0</ele><time>2026-04-09T16:31:13.993Z</time></trkpt><trkpt lat="43.0154141" lon="12.0955854"><ele>383.0</ele><time>2026-04-09T16:31:14.993Z</time></trkpt><trkpt lat="43.0154526" lon="12.0956812"><ele>383.0</ele><time>2026-04-09T16:31:15.993Z</time></trkpt><trkpt lat="43.0155075" lon="12.0957549"><ele>383.0</ele><time>2026-04-09T16:31:16.993Z</time></trkpt><trkpt lat="43.0155761" lon="12.0958237"><ele>383.0</ele><time>2026-04-09T16:31:17.993Z</time></trkpt><trkpt lat="43.0156509" lon="12.0958893"><ele>383.0</ele><time>2026-04-09T16:31:18.993Z</time></trkpt><trkpt lat="43.0157414" lon="12.095958"><ele>382.59999999999997</ele><time>2026-04-09T16:31:19.993Z</time></trkpt><trkpt lat="43.0158369" lon="12.0960214"><ele>382.2</ele><time>2026-04-09T16:31:20.993Z</time></trkpt><trkpt lat="43.0159188" lon="12.0960822"><ele>381.8</ele><time>2026-04-09T16:31:21.993Z</time></trkpt><trkpt lat="43.0160017" lon="12.0961298"><ele>381.4</ele><time>2026-04-09T16:31:22.993Z</time></trkpt><trkpt lat="43.0160875" lon="12.0961577"><ele>381.0</ele><time>2026-04-09T16:31:23.993Z</time></trkpt><trkpt lat="43.0161941" lon="12.0961488"><ele>381.0</ele><time>2026-04-09T16:31:24.993Z</time></trkpt><trkpt lat="43.016294" lon="12.0961488"><ele>381.0</ele><time>2026-04-09T16:31:25.993Z</time></trkpt><trkpt lat="43.0164006" lon="12.0961637"><ele>381.0</ele><time>2026-04-09T16:31:26.993Z</time></trkpt><trkpt lat="43.0165121" lon="12.096204"><ele>381.0</ele><time>2026-04-09T16:31:27.993Z</time></trkpt><trkpt lat="43.0166167" lon="12.0962348"><ele>381.0</ele><time>2026-04-09T16:31:28.993Z</time></trkpt><trkpt lat="43.0167161" lon="12.0962564"><ele>382.4</ele><time>2026-04-09T16:31:29.994Z</time></trkpt><trkpt lat="43.0168324" lon="12.0962623"><ele>383.8</ele><time>2026-04-09T16:31:30.993Z</time></trkpt><trkpt lat="43.0169336" lon="12.0962551"><ele>385.2</ele><time>2026-04-09T16:31:31.992Z</time></trkpt><trkpt lat="43.0170489" lon="12.0962532"><ele>386.59999999999997</ele><time>2026-04-09T16:31:32.992Z</time></trkpt><trkpt lat="43.0171637" lon="12.0962371"><ele>388.0</ele><time>2026-04-09T16:31:33.993Z</time></trkpt><trkpt lat="43.01728" lon="12.0962253"><ele>388.0</ele><time>2026-04-09T16:31:34.993Z</time></trkpt><trkpt lat="43.0173823" lon="12.0961491"><ele>388.0</ele><time>2026-04-09T16:31:35.993Z</time></trkpt><trkpt lat="43.0174839" lon="12.0960832"><ele>388.0</ele><time>2026-04-09T16:31:36.993Z</time></trkpt><trkpt lat="43.017576" lon="12.0960296"><ele>388.0</ele><time>2026-04-09T16:31:37.992Z</time></trkpt><trkpt lat="43.0176833" lon="12.0960112"><ele>388.0</ele><time>2026-04-09T16:31:38.993Z</time></trkpt><trkpt lat="43.0177697" lon="12.0960364"><ele>388.2</ele><time>2026-04-09T16:31:39.993Z</time></trkpt><trkpt lat="43.0178514" lon="12.0961152"><ele>388.4</ele><time>2026-04-09T16:31:40.993Z</time></trkpt><trkpt lat="43.0179334" lon="12.0962343"><ele>388.59999999999997</ele><time>2026-04-09T16:31:41.993Z</time></trkpt><trkpt lat="43.018008" lon="12.0963492"><ele>388.79999999999995</ele><time>2026-04-09T16:31:42.993Z</time></trkpt><trkpt lat="43.0180992" lon="12.0964329"><ele>389.0</ele><time>2026-04-09T16:31:43.993Z</time></trkpt><trkpt lat="43.0182039" lon="12.0964554"><ele>390.0</ele><time>2026-04-09T16:31:44.993Z</time></trkpt><trkpt lat="43.0183296" lon="12.0964387"><ele>391.0</ele><time>2026-04-09T16:31:45.993Z</time></trkpt><trkpt lat="43.0184352" lon="12.0963835"><ele>392.0</ele><time>2026-04-09T16:31:46.993Z</time></trkpt><trkpt lat="43.0185304" lon="12.0963018"><ele>393.0</ele><time>2026-04-09T16:31:47.993Z</time></trkpt><trkpt lat="43.0186204" lon="12.0961869"><ele>393.0</ele><time>2026-04-09T16:31:48.994Z</time></trkpt><trkpt lat="43.0187203" lon="12.0960846"><ele>393.0</ele><time>2026-04-09T16:31:49.992Z</time></trkpt><trkpt lat="43.0188234" lon="12.0960275"><ele>393.0</ele><time>2026-04-09T16:31:50.992Z</time></trkpt><trkpt lat="43.0189262" lon="12.0959735"><ele>393.0</ele><time>2026-04-09T16:31:51.993Z</time></trkpt><trkpt lat="43.0190343" lon="12.0959853"><ele>393.0</ele><time>2026-04-09T16:31:52.992Z</time></trkpt><trkpt lat="43.0191473" lon="12.0959783"><ele>393.0</ele><time>2026-04-09T16:31:53.993Z</time></trkpt><trkpt lat="43.019233" lon="12.0959471"><ele>393.0</ele><time>2026-04-09T16:31:54.993Z</time></trkpt><trkpt lat="43.0193595" lon="12.0958848"><ele>393.0</ele><time>2026-04-09T16:31:55.993Z</time></trkpt><trkpt lat="43.0194836" lon="12.0958051"><ele>398.33333333333337</ele><time>2026-04-09T16:31:56.993Z</time></trkpt><trkpt lat="43.0196257" lon="12.0957498"><ele>403.6666666666667</ele><time>2026-04-09T16:31:57.993Z</time></trkpt><trkpt lat="43.0197612" lon="12.0956401"><ele>409.0</ele><time>2026-04-09T16:31:58.993Z</time></trkpt><trkpt lat="43.019892" lon="12.0955098"><ele>404.5</ele><time>2026-04-09T16:31:59.994Z</time></trkpt><trkpt lat="43.0199973" lon="12.0953908"><ele>400.0</ele><time>2026-04-09T16:32:00.993Z</time></trkpt><trkpt lat="43.0200932" lon="12.0952774"><ele>395.5</ele><time>2026-04-09T16:32:01.994Z</time></trkpt><trkpt lat="43.0201779" lon="12.0951955"><ele>391.0</ele><time>2026-04-09T16:32:02.993Z</time></trkpt><trkpt lat="43.0202675" lon="12.0951455"><ele>391.0</ele><time>2026-04-09T16:32:03.993Z</time></trkpt><trkpt lat="43.0203501" lon="12.0950893"><ele>391.0</ele><time>2026-04-09T16:32:04.993Z</time></trkpt><trkpt lat="43.0203615" lon="12.0952975"><ele>391.0</ele><time>2026-04-09T16:32:05.994Z</time></trkpt><trkpt lat="43.020394" lon="12.0953803"><ele>391.0</ele><time>2026-04-09T16:32:06.993Z</time></trkpt><trkpt lat="43.020433" lon="12.0954815"><ele>391.0</ele><time>2026-04-09T16:32:07.993Z</time></trkpt><trkpt lat="43.0204931" lon="12.0956212"><ele>391.0</ele><time>2026-04-09T16:32:08.993Z</time></trkpt><trkpt lat="43.0205556" lon="12.0957521"><ele>391.0</ele><time>2026-04-09T16:32:09.993Z</time></trkpt><trkpt lat="43.0206412" lon="12.0958826"><ele>391.0</ele><time>2026-04-09T16:32:10.993Z</time></trkpt><trkpt lat="43.0207231" lon="12.0960103"><ele>391.0</ele><time>2026-04-09T16:32:11.993Z</time></trkpt><trkpt lat="43.0207877" lon="12.0961207"><ele>389.0</ele><time>2026-04-09T16:32:12.994Z</time></trkpt><trkpt lat="43.0208748" lon="12.0962184"><ele>387.0</ele><time>2026-04-09T16:32:13.993Z</time></trkpt><trkpt lat="43.0209583" lon="12.0962855"><ele>385.0</ele><time>2026-04-09T16:32:14.993Z</time></trkpt><trkpt lat="43.0210555" lon="12.0963044"><ele>383.0</ele><time>2026-04-09T16:32:15.993Z</time></trkpt><trkpt lat="43.0211594" lon="12.0962994"><ele>381.0</ele><time>2026-04-09T16:32:16.993Z</time></trkpt><trkpt lat="43.0212596" lon="12.0961973"><ele>381.0</ele><time>2026-04-09T16:32:17.994Z</time></trkpt><trkpt lat="43.0213609" lon="12.0961041"><ele>381.0</ele><time>2026-04-09T16:32:18.993Z</time></trkpt><trkpt lat="43.021445" lon="12.0960176"><ele>381.0</ele><time>2026-04-09T16:32:19.993Z</time></trkpt><trkpt lat="43.0215325" lon="12.0959465"><ele>381.0</ele><time>2026-04-09T16:32:20.993Z</time></trkpt><trkpt lat="43.0216428" lon="12.0959259"><ele>381.0</ele><time>2026-04-09T16:32:21.993Z</time></trkpt><trkpt lat="43.0217182" lon="12.0960119"><ele>380.5</ele><time>2026-04-09T16:32:22.993Z</time></trkpt><trkpt lat="43.0217766" lon="12.0961004"><ele>380.0</ele><time>2026-04-09T16:32:23.994Z</time></trkpt><trkpt lat="43.0218001" lon="12.0961918"><ele>379.5</ele><time>2026-04-09T16:32:24.994Z</time></trkpt><trkpt lat="43.021809" lon="12.0963062"><ele>379.0</ele><time>2026-04-09T16:32:25.993Z</time></trkpt><trkpt lat="43.0218055" lon="12.0964211"><ele>378.5</ele><time>2026-04-09T16:32:26.993Z</time></trkpt><trkpt lat="43.0218036" lon="12.0965308"><ele>378.0</ele><time>2026-04-09T16:32:27.993Z</time></trkpt><trkpt lat="43.0218196" lon="12.0966377"><ele>377.1666666666667</ele><time>2026-04-09T16:32:28.994Z</time></trkpt><trkpt lat="43.0218271" lon="12.0967578"><ele>376.3333333333333</ele><time>2026-04-09T16:32:29.993Z</time></trkpt><trkpt lat="43.0218395" lon="12.0968659"><ele>375.5</ele><time>2026-04-09T16:32:30.993Z</time></trkpt><trkpt lat="43.0218505" lon="12.0969715"><ele>374.66666666666663</ele><time>2026-04-09T16:32:31.994Z</time></trkpt><trkpt lat="43.021873" lon="12.0970753"><ele>373.8333333333333</ele><time>2026-04-09T16:32:32.993Z</time></trkpt><trkpt lat="43.0218998" lon="12.097175"><ele>373.0</ele><time>2026-04-09T16:32:33.993Z</time></trkpt><trkpt lat="43.0219547" lon="12.0972604"><ele>373.0</ele><time>2026-04-09T16:32:34.993Z</time></trkpt><trkpt lat="43.0220247" lon="12.0973322"><ele>373.0</ele><time>2026-04-09T16:32:35.993Z</time></trkpt><trkpt lat="43.0221039" lon="12.0973873"><ele>373.0</ele><time>2026-04-09T16:32:36.993Z</time></trkpt><trkpt lat="43.022196" lon="12.0974479"><ele>373.0</ele><time>2026-04-09T16:32:37.993Z</time></trkpt><trkpt lat="43.0222916" lon="12.0975036"><ele>373.0</ele><time>2026-04-09T16:32:38.994Z</time></trkpt><trkpt lat="43.0223902" lon="12.097551"><ele>376.5</ele><time>2026-04-09T16:32:39.993Z</time></trkpt><trkpt lat="43.0225014" lon="12.097612"><ele>380.0</ele><time>2026-04-09T16:32:40.993Z</time></trkpt><trkpt lat="43.0226035" lon="12.0976721"><ele>383.5</ele><time>2026-04-09T16:32:41.993Z</time></trkpt><trkpt lat="43.0227133" lon="12.0977357"><ele>387.0</ele><time>2026-04-09T16:32:42.994Z</time></trkpt><trkpt lat="43.0228192" lon="12.0977877"><ele>387.0</ele><time>2026-04-09T16:32:43.993Z</time></trkpt><trkpt lat="43.022927" lon="12.0978335"><ele>387.0</ele><time>2026-04-09T16:32:44.993Z</time></trkpt><trkpt lat="43.0230419" lon="12.0978771"><ele>387.0</ele><time>2026-04-09T16:32:45.993Z</time></trkpt><trkpt lat="43.023165" lon="12.0979147"><ele>387.0</ele><time>2026-04-09T16:32:46.992Z</time></trkpt><trkpt lat="43.0232898" lon="12.0979539"><ele>390.0</ele><time>2026-04-09T16:32:47.993Z</time></trkpt><trkpt lat="43.0234257" lon="12.0979984"><ele>393.0</ele><time>2026-04-09T16:32:48.992Z</time></trkpt><trkpt lat="43.0235595" lon="12.098065"><ele>396.0</ele><time>2026-04-09T16:32:49.994Z</time></trkpt><trkpt lat="43.0236904" lon="12.0981139"><ele>399.0</ele><time>2026-04-09T16:32:50.993Z</time></trkpt><trkpt lat="43.0238362" lon="12.0981304"><ele>399.0</ele><time>2026-04-09T16:32:51.993Z</time></trkpt><trkpt lat="43.0239762" lon="12.0981491"><ele>399.0</ele><time>2026-04-09T16:32:52.993Z</time></trkpt><trkpt lat="43.0241124" lon="12.0981374"><ele>399.0</ele><time>2026-04-09T16:32:53.993Z</time></trkpt><trkpt lat="43.0242482" lon="12.0981448"><ele>399.0</ele><time>2026-04-09T16:32:54.992Z</time></trkpt><trkpt lat="43.0243854" lon="12.0981321"><ele>401.25</ele><time>2026-04-09T16:32:55.993Z</time></trkpt><trkpt lat="43.0245086" lon="12.0981212"><ele>403.5</ele><time>2026-04-09T16:32:56.993Z</time></trkpt><trkpt lat="43.024629" lon="12.0980907"><ele>405.75</ele><time>2026-04-09T16:32:57.993Z</time></trkpt><trkpt lat="43.0247291" lon="12.0980355"><ele>408.0</ele><time>2026-04-09T16:32:58.993Z</time></trkpt><trkpt lat="43.0248364" lon="12.0979487"><ele>408.0</ele><time>2026-04-09T16:32:59.994Z</time></trkpt><trkpt lat="43.0249353" lon="12.0978469"><ele>408.0</ele><time>2026-04-09T16:33:00.993Z</time></trkpt><trkpt lat="43.025042" lon="12.0977407"><ele>408.0</ele><time>2026-04-09T16:33:01.994Z</time></trkpt><trkpt lat="43.0251301" lon="12.0976435"><ele>408.0</ele><time>2026-04-09T16:33:02.993Z</time></trkpt><trkpt lat="43.0252217" lon="12.0975631"><ele>407.59999999999997</ele><time>2026-04-09T16:33:03.993Z</time></trkpt><trkpt lat="43.025307" lon="12.097527"><ele>407.2</ele><time>2026-04-09T16:33:04.993Z</time></trkpt><trkpt lat="43.0253836" lon="12.0975877"><ele>406.8</ele><time>2026-04-09T16:33:05.993Z</time></trkpt><trkpt lat="43.0254665" lon="12.0976547"><ele>406.4</ele><time>2026-04-09T16:33:06.993Z</time></trkpt><trkpt lat="43.0255241" lon="12.097756"><ele>406.0</ele><time>2026-04-09T16:33:07.993Z</time></trkpt><trkpt lat="43.0255809" lon="12.0978599"><ele>406.0</ele><time>2026-04-09T16:33:08.993Z</time></trkpt><trkpt lat="43.0256509" lon="12.0979446"><ele>406.0</ele><time>2026-04-09T16:33:09.993Z</time></trkpt><trkpt lat="43.0257302" lon="12.0980062"><ele>406.0</ele><time>2026-04-09T16:33:10.993Z</time></trkpt><trkpt lat="43.0258222" lon="12.0980244"><ele>406.0</ele><time>2026-04-09T16:33:11.993Z</time></trkpt><trkpt lat="43.025908" lon="12.0980263"><ele>406.0</ele><time>2026-04-09T16:33:12.993Z</time></trkpt><trkpt lat="43.0259729" lon="12.0979299"><ele>407.5</ele><time>2026-04-09T16:33:13.993Z</time></trkpt><trkpt lat="43.0260625" lon="12.0978552"><ele>409.0</ele><time>2026-04-09T16:33:14.992Z</time></trkpt><trkpt lat="43.0261621" lon="12.0977814"><ele>410.5</ele><time>2026-04-09T16:33:15.993Z</time></trkpt><trkpt lat="43.0263081" lon="12.097773"><ele>412.0</ele><time>2026-04-09T16:33:16.994Z</time></trkpt><trkpt lat="43.0264294" lon="12.0977282"><ele>412.0</ele><time>2026-04-09T16:33:17.993Z</time></trkpt><trkpt lat="43.0265619" lon="12.0976583"><ele>412.0</ele><time>2026-04-09T16:33:18.994Z</time></trkpt><trkpt lat="43.0267115" lon="12.0976116"><ele>412.0</ele><time>2026-04-09T16:33:19.993Z</time></trkpt><trkpt lat="43.0268564" lon="12.0975513"><ele>412.0</ele><time>2026-04-09T16:33:20.993Z</time></trkpt><trkpt lat="43.0269738" lon="12.0974836"><ele>413.75</ele><time>2026-04-09T16:33:21.993Z</time></trkpt><trkpt lat="43.0271001" lon="12.0974268"><ele>415.5</ele><time>2026-04-09T16:33:22.993Z</time></trkpt><trkpt lat="43.027183" lon="12.0973903"><ele>417.25</ele><time>2026-04-09T16:33:23.994Z</time></trkpt><trkpt lat="43.0272694" lon="12.0973248"><ele>419.0</ele><time>2026-04-09T16:33:29.994Z</time></trkpt><trkpt lat="43.0274073" lon="12.0972836"><ele>422.6</ele><time>2026-04-09T16:33:31.994Z</time></trkpt><trkpt lat="43.0274844" lon="12.0972701"><ele>426.2</ele><time>2026-04-09T16:33:32.994Z</time></trkpt><trkpt lat="43.0276065" lon="12.0972871"><ele>429.80000000000007</ele><time>2026-04-09T16:33:33.993Z</time></trkpt><trkpt lat="43.027703" lon="12.0972914"><ele>433.40000000000003</ele><time>2026-04-09T16:33:34.993Z</time></trkpt><trkpt lat="43.0278002" lon="12.0973078"><ele>437.0</ele><time>2026-04-09T16:33:35.993Z</time></trkpt><trkpt lat="43.0279154" lon="12.0973224"><ele>436.99999999999994</ele><time>2026-04-09T16:33:36.993Z</time></trkpt><trkpt lat="43.0280291" lon="12.0973379"><ele>437.0</ele><time>2026-04-09T16:33:37.993Z</time></trkpt><trkpt lat="43.0280975" lon="12.0973198"><ele>437.0</ele><time>2026-04-09T16:33:38.994Z</time></trkpt><trkpt lat="43.0281737" lon="12.0973088"><ele>437.0</ele><time>2026-04-09T16:33:39.993Z</time></trkpt><trkpt lat="43.0282579" lon="12.0973148"><ele>436.99999999999994</ele><time>2026-04-09T16:33:40.993Z</time></trkpt><trkpt lat="43.0283377" lon="12.0973213"><ele>437.0</ele><time>2026-04-09T16:33:41.993Z</time></trkpt><trkpt lat="43.0284495" lon="12.0973551"><ele>434.6</ele><time>2026-04-09T16:33:43.993Z</time></trkpt><trkpt lat="43.0284734" lon="12.09747"><ele>432.20000000000005</ele><time>2026-04-09T16:33:45.993Z</time></trkpt><trkpt lat="43.028481" lon="12.0975823"><ele>429.8</ele><time>2026-04-09T16:33:47.993Z</time></trkpt><trkpt lat="43.0284289" lon="12.0977118"><ele>427.4</ele><time>2026-04-09T16:33:49.994Z</time></trkpt><trkpt lat="43.0283828" lon="12.0978776"><ele>425.0</ele><time>2026-04-09T16:33:51.993Z</time></trkpt><trkpt lat="43.028354" lon="12.0979608"><ele>425.0</ele><time>2026-04-09T16:33:52.994Z</time></trkpt><trkpt lat="43.0283306" lon="12.0980446"><ele>425.0</ele><time>2026-04-09T16:33:53.992Z</time></trkpt><trkpt lat="43.0282862" lon="12.0981803"><ele>425.0</ele><time>2026-04-09T16:33:55.993Z</time></trkpt><trkpt lat="43.0282669" lon="12.0983154"><ele>425.0</ele><time>2026-04-09T16:33:57.993Z</time></trkpt><trkpt lat="43.0282511" lon="12.0984813"><ele>425.0</ele><time>2026-04-09T16:33:59.992Z</time></trkpt><trkpt lat="43.0282178" lon="12.0985899"><ele>424.66666666666663</ele><time>2026-04-09T16:34:00.994Z</time></trkpt><trkpt lat="43.0282238" lon="12.0986895"><ele>424.3333333333333</ele><time>2026-04-09T16:34:01.993Z</time></trkpt><trkpt lat="43.028224" lon="12.0987868"><ele>424.0</ele><time>2026-04-09T16:34:02.993Z</time></trkpt><trkpt lat="43.0282449" lon="12.0988727"><ele>423.66666666666663</ele><time>2026-04-09T16:34:03.993Z</time></trkpt><trkpt lat="43.0282751" lon="12.0989608"><ele>423.3333333333333</ele><time>2026-04-09T16:34:04.993Z</time></trkpt><trkpt lat="43.0283195" lon="12.0990618"><ele>423.0</ele><time>2026-04-09T16:34:05.994Z</time></trkpt><trkpt lat="43.0283817" lon="12.0991429"><ele>423.0</ele><time>2026-04-09T16:34:06.993Z</time></trkpt><trkpt lat="43.0284507" lon="12.0992073"><ele>423.0</ele><time>2026-04-09T16:34:07.994Z</time></trkpt><trkpt lat="43.0285181" lon="12.0992616"><ele>423.0</ele><time>2026-04-09T16:34:08.993Z</time></trkpt><trkpt lat="43.0285937" lon="12.0993261"><ele>423.0</ele><time>2026-04-09T16:34:09.994Z</time></trkpt><trkpt lat="43.0286704" lon="12.0993917"><ele>423.0</ele><time>2026-04-09T16:34:10.994Z</time></trkpt><trkpt lat="43.0287464" lon="12.0994582"><ele>423.0</ele><time>2026-04-09T16:34:11.993Z</time></trkpt><trkpt lat="43.0288357" lon="12.0995409"><ele>423.0</ele><time>2026-04-09T16:34:12.995Z</time></trkpt><trkpt lat="43.0289182" lon="12.0996143"><ele>423.0</ele><time>2026-04-09T16:34:13.994Z</time></trkpt><trkpt lat="43.0289877" lon="12.0996867"><ele>423.0</ele><time>2026-04-09T16:34:14.994Z</time></trkpt><trkpt lat="43.0290522" lon="12.0997402"><ele>423.0</ele><time>2026-04-09T16:34:15.994Z</time></trkpt><trkpt lat="43.0291176" lon="12.0998085"><ele>423.0</ele><time>2026-04-09T16:34:16.993Z</time></trkpt><trkpt lat="43.0291382" lon="12.0999423"><ele>423.0</ele><time>2026-04-09T16:34:18.995Z</time></trkpt><trkpt lat="43.0291248" lon="12.1000539"><ele>420.6666666666667</ele><time>2026-04-09T16:34:19.994Z</time></trkpt><trkpt lat="43.0291229" lon="12.1001632"><ele>418.33333333333337</ele><time>2026-04-09T16:34:20.994Z</time></trkpt><trkpt lat="43.0291138" lon="12.1002507"><ele>416.0</ele><time>2026-04-09T16:34:21.994Z</time></trkpt><trkpt lat="43.02909" lon="12.1003331"><ele>413.6666666666667</ele><time>2026-04-09T16:34:22.994Z</time></trkpt><trkpt lat="43.0290447" lon="12.1004394"><ele>411.33333333333337</ele><time>2026-04-09T16:34:23.994Z</time></trkpt><trkpt lat="43.0290096" lon="12.1006239"><ele>409.0</ele><time>2026-04-09T16:34:26.647Z</time></trkpt><trkpt lat="43.0289614" lon="12.1007231"><ele>407.6666666666667</ele><time>2026-04-09T16:34:27.994Z</time></trkpt><trkpt lat="43.0289239" lon="12.1008222"><ele>406.33333333333337</ele><time>2026-04-09T16:34:28.993Z</time></trkpt><trkpt lat="43.0288854" lon="12.1009171"><ele>405.0</ele><time>2026-04-09T16:34:29.992Z</time></trkpt><trkpt lat="43.0288711" lon="12.1010116"><ele>403.66666666666663</ele><time>2026-04-09T16:34:30.993Z</time></trkpt><trkpt lat="43.0288716" lon="12.1011303"><ele>402.3333333333333</ele><time>2026-04-09T16:34:31.992Z</time></trkpt><trkpt lat="43.0288878" lon="12.1012625"><ele>401.0</ele><time>2026-04-09T16:34:32.993Z</time></trkpt><trkpt lat="43.0289161" lon="12.1014024"><ele>401.0</ele><time>2026-04-09T16:34:33.993Z</time></trkpt><trkpt lat="43.0289405" lon="12.1015536"><ele>401.0</ele><time>2026-04-09T16:34:34.993Z</time></trkpt><trkpt lat="43.0289735" lon="12.1017085"><ele>401.0</ele><time>2026-04-09T16:34:35.993Z</time></trkpt><trkpt lat="43.028999" lon="12.1018475"><ele>401.0</ele><time>2026-04-09T16:34:36.993Z</time></trkpt><trkpt lat="43.0290124" lon="12.1019787"><ele>401.0</ele><time>2026-04-09T16:34:37.993Z</time></trkpt><trkpt lat="43.0290142" lon="12.102113"><ele>400.6</ele><time>2026-04-09T16:34:38.993Z</time></trkpt><trkpt lat="43.0289595" lon="12.1022353"><ele>400.20000000000005</ele><time>2026-04-09T16:34:39.993Z</time></trkpt><trkpt lat="43.0289114" lon="12.1023127"><ele>399.79999999999995</ele><time>2026-04-09T16:34:40.993Z</time></trkpt><trkpt lat="43.0288522" lon="12.1024059"><ele>399.4</ele><time>2026-04-09T16:34:41.993Z</time></trkpt><trkpt lat="43.0287132" lon="12.1023742"><ele>399.0</ele><time>2026-04-09T16:34:42.992Z</time></trkpt><trkpt lat="43.0285789" lon="12.1023371"><ele>399.0</ele><time>2026-04-09T16:34:43.993Z</time></trkpt><trkpt lat="43.0284836" lon="12.1023243"><ele>399.0</ele><time>2026-04-09T16:34:44.993Z</time></trkpt><trkpt lat="43.0283776" lon="12.1023056"><ele>399.0</ele><time>2026-04-09T16:34:45.993Z</time></trkpt><trkpt lat="43.0282802" lon="12.102302"><ele>399.0</ele><time>2026-04-09T16:34:46.992Z</time></trkpt><trkpt lat="43.0281766" lon="12.1023055"><ele>399.0</ele><time>2026-04-09T16:34:47.993Z</time></trkpt><trkpt lat="43.0280817" lon="12.102338"><ele>397.4</ele><time>2026-04-09T16:34:48.993Z</time></trkpt><trkpt lat="43.0280227" lon="12.1024108"><ele>395.79999999999995</ele><time>2026-04-09T16:34:49.993Z</time></trkpt><trkpt lat="43.0280039" lon="12.1025311"><ele>394.20000000000005</ele><time>2026-04-09T16:34:50.993Z</time></trkpt><trkpt lat="43.0279816" lon="12.1026638"><ele>392.6</ele><time>2026-04-09T16:34:51.993Z</time></trkpt><trkpt lat="43.0280216" lon="12.102833"><ele>391.0</ele><time>2026-04-09T16:34:52.993Z</time></trkpt><trkpt lat="43.0280301" lon="12.1029857"><ele>391.00000000000006</ele><time>2026-04-09T16:34:53.993Z</time></trkpt><trkpt lat="43.0280188" lon="12.1031323"><ele>391.0</ele><time>2026-04-09T16:34:54.993Z</time></trkpt><trkpt lat="43.0279875" lon="12.1032404"><ele>391.0</ele><time>2026-04-09T16:34:55.993Z</time></trkpt><trkpt lat="43.0279087" lon="12.1032907"><ele>391.0</ele><time>2026-04-09T16:34:56.993Z</time></trkpt><trkpt lat="43.0278328" lon="12.1032693"><ele>391.00000000000006</ele><time>2026-04-09T16:34:57.993Z</time></trkpt><trkpt lat="43.0277649" lon="12.1031874"><ele>391.0</ele><time>2026-04-09T16:34:58.993Z</time></trkpt><trkpt lat="43.0277146" lon="12.1030983"><ele>391.0</ele><time>2026-04-09T16:34:59.993Z</time></trkpt><trkpt lat="43.0277094" lon="12.1029266"><ele>391.0</ele><time>2026-04-09T16:35:00.993Z</time></trkpt><trkpt lat="43.0276997" lon="12.1027707"><ele>391.0</ele><time>2026-04-09T16:35:01.993Z</time></trkpt><trkpt lat="43.0276946" lon="12.1026065"><ele>391.0</ele><time>2026-04-09T16:35:02.993Z</time></trkpt><trkpt lat="43.027684" lon="12.1024425"><ele>389.4</ele><time>2026-04-09T16:35:03.993Z</time></trkpt><trkpt lat="43.0276695" lon="12.1022938"><ele>387.8</ele><time>2026-04-09T16:35:04.993Z</time></trkpt><trkpt lat="43.0276695" lon="12.1021618"><ele>386.2</ele><time>2026-04-09T16:35:05.993Z</time></trkpt><trkpt lat="43.0276532" lon="12.1020332"><ele>384.59999999999997</ele><time>2026-04-09T16:35:06.993Z</time></trkpt><trkpt lat="43.0275875" lon="12.1019488"><ele>383.0</ele><time>2026-04-09T16:35:07.993Z</time></trkpt><trkpt lat="43.0274962" lon="12.1019101"><ele>381.4</ele><time>2026-04-09T16:35:08.993Z</time></trkpt><trkpt lat="43.0274172" lon="12.1019265"><ele>379.79999999999995</ele><time>2026-04-09T16:35:09.993Z</time></trkpt><trkpt lat="43.0273524" lon="12.1020007"><ele>378.2</ele><time>2026-04-09T16:35:10.993Z</time></trkpt><trkpt lat="43.0273211" lon="12.1021272"><ele>376.6</ele><time>2026-04-09T16:35:11.993Z</time></trkpt><trkpt lat="43.0272909" lon="12.1022547"><ele>375.0</ele><time>2026-04-09T16:35:12.993Z</time></trkpt><trkpt lat="43.0273039" lon="12.1024238"><ele>375.0</ele><time>2026-04-09T16:35:13.993Z</time></trkpt><trkpt lat="43.0272612" lon="12.1025458"><ele>375.0</ele><time>2026-04-09T16:35:14.993Z</time></trkpt><trkpt lat="43.0272271" lon="12.1026289"><ele>375.0</ele><time>2026-04-09T16:35:15.993Z</time></trkpt><trkpt lat="43.0271846" lon="12.1027271"><ele>375.0</ele><time>2026-04-09T16:35:18.993Z</time></trkpt><trkpt lat="43.0271748" lon="12.1028133"><ele>375.0</ele><time>2026-04-09T16:35:20.993Z</time></trkpt><trkpt lat="43.0271345" lon="12.1028803"><ele>375.0</ele><time>2026-04-09T16:35:22.993Z</time></trkpt><trkpt lat="43.0270264" lon="12.1029479"><ele>375.0</ele><time>2026-04-09T16:35:24.992Z</time></trkpt><trkpt lat="43.0269613" lon="12.102976"><ele>375.0</ele><time>2026-04-09T16:35:25.992Z</time></trkpt><trkpt lat="43.0268867" lon="12.1030172"><ele>375.0</ele><time>2026-04-09T16:35:26.993Z</time></trkpt><trkpt lat="43.0267947" lon="12.103066"><ele>375.0</ele><time>2026-04-09T16:35:27.993Z</time></trkpt><trkpt lat="43.0267118" lon="12.103135"><ele>375.0</ele><time>2026-04-09T16:35:28.994Z</time></trkpt><trkpt lat="43.0266451" lon="12.1032172"><ele>375.0</ele><time>2026-04-09T16:35:29.993Z</time></trkpt><trkpt lat="43.0266122" lon="12.1033167"><ele>376.4</ele><time>2026-04-09T16:35:30.993Z</time></trkpt><trkpt lat="43.0266102" lon="12.1034467"><ele>377.8</ele><time>2026-04-09T16:35:31.993Z</time></trkpt><trkpt lat="43.0266307" lon="12.1035845"><ele>379.20000000000005</ele><time>2026-04-09T16:35:32.993Z</time></trkpt><trkpt lat="43.0266654" lon="12.1037315"><ele>380.6</ele><time>2026-04-09T16:35:33.993Z</time></trkpt><trkpt lat="43.0267055" lon="12.103884"><ele>382.0</ele><time>2026-04-09T16:35:34.993Z</time></trkpt><trkpt lat="43.0267505" lon="12.1040251"><ele>382.25</ele><time>2026-04-09T16:35:35.993Z</time></trkpt><trkpt lat="43.0268063" lon="12.1041596"><ele>382.5</ele><time>2026-04-09T16:35:36.993Z</time></trkpt><trkpt lat="43.0268872" lon="12.1042735"><ele>382.75</ele><time>2026-04-09T16:35:37.993Z</time></trkpt><trkpt lat="43.0269728" lon="12.1043731"><ele>383.0</ele><time>2026-04-09T16:35:38.993Z</time></trkpt><trkpt lat="43.0270765" lon="12.1044379"><ele>383.0</ele><time>2026-04-09T16:35:39.992Z</time></trkpt><trkpt lat="43.027202" lon="12.1044663"><ele>383.0</ele><time>2026-04-09T16:35:40.993Z</time></trkpt><trkpt lat="43.0273208" lon="12.1044404"><ele>383.0</ele><time>2026-04-09T16:35:41.993Z</time></trkpt><trkpt lat="43.0274317" lon="12.1044427"><ele>383.0</ele><time>2026-04-09T16:35:42.993Z</time></trkpt><trkpt lat="43.0275549" lon="12.1044421"><ele>386.0</ele><time>2026-04-09T16:35:43.993Z</time></trkpt><trkpt lat="43.027674" lon="12.1044424"><ele>389.0</ele><time>2026-04-09T16:35:44.993Z</time></trkpt><trkpt lat="43.0277873" lon="12.1044606"><ele>392.0</ele><time>2026-04-09T16:35:45.993Z</time></trkpt><trkpt lat="43.0279032" lon="12.1044573"><ele>395.0</ele><time>2026-04-09T16:35:46.993Z</time></trkpt><trkpt lat="43.0280166" lon="12.1044711"><ele>395.0</ele><time>2026-04-09T16:35:47.994Z</time></trkpt><trkpt lat="43.0281258" lon="12.1044987"><ele>395.0</ele><time>2026-04-09T16:35:48.994Z</time></trkpt><trkpt lat="43.0282319" lon="12.104512"><ele>395.0</ele><time>2026-04-09T16:35:49.994Z</time></trkpt><trkpt lat="43.0283349" lon="12.1045205"><ele>395.0</ele><time>2026-04-09T16:35:50.993Z</time></trkpt><trkpt lat="43.0284235" lon="12.1045454"><ele>395.0</ele><time>2026-04-09T16:35:51.994Z</time></trkpt><trkpt lat="43.0285066" lon="12.1045809"><ele>394.2</ele><time>2026-04-09T16:35:52.993Z</time></trkpt><trkpt lat="43.0285795" lon="12.1046763"><ele>393.4</ele><time>2026-04-09T16:35:53.993Z</time></trkpt><trkpt lat="43.0286584" lon="12.1047687"><ele>392.6</ele><time>2026-04-09T16:35:54.993Z</time></trkpt><trkpt lat="43.0287386" lon="12.1048601"><ele>391.8</ele><time>2026-04-09T16:35:55.993Z</time></trkpt><trkpt lat="43.0288282" lon="12.1049529"><ele>391.0</ele><time>2026-04-09T16:35:56.993Z</time></trkpt><trkpt lat="43.0289069" lon="12.105036"><ele>391.0</ele><time>2026-04-09T16:35:57.993Z</time></trkpt><trkpt lat="43.0289933" lon="12.1051108"><ele>391.0</ele><time>2026-04-09T16:35:58.993Z</time></trkpt><trkpt lat="43.0290736" lon="12.1051883"><ele>391.0</ele><time>2026-04-09T16:35:59.994Z</time></trkpt><trkpt lat="43.0291441" lon="12.1052609"><ele>391.0</ele><time>2026-04-09T16:36:00.994Z</time></trkpt><trkpt lat="43.0292248" lon="12.1053522"><ele>391.0</ele><time>2026-04-09T16:36:01.993Z</time></trkpt><trkpt lat="43.0293025" lon="12.1054393"><ele>391.0</ele><time>2026-04-09T16:36:02.993Z</time></trkpt><trkpt lat="43.0293802" lon="12.1055304"><ele>391.0</ele><time>2026-04-09T16:36:03.994Z</time></trkpt><trkpt lat="43.029464" lon="12.105623"><ele>391.0</ele><time>2026-04-09T16:36:04.993Z</time></trkpt><trkpt lat="43.0295325" lon="12.1057165"><ele>391.0</ele><time>2026-04-09T16:36:05.994Z</time></trkpt><trkpt lat="43.0295895" lon="12.1057757"><ele>391.0</ele><time>2026-04-09T16:36:06.994Z</time></trkpt><trkpt lat="43.0296729" lon="12.1058684"><ele>388.0</ele><time>2026-04-09T16:36:08.993Z</time></trkpt><trkpt lat="43.02972" lon="12.1059652"><ele>385.0</ele><time>2026-04-09T16:36:10.994Z</time></trkpt><trkpt lat="43.0297028" lon="12.1061282"><ele>382.0</ele><time>2026-04-09T16:36:12.994Z</time></trkpt><trkpt lat="43.0296625" lon="12.1062183"><ele>379.0</ele><time>2026-04-09T16:36:13.994Z</time></trkpt><trkpt lat="43.0296412" lon="12.106345"><ele>376.0</ele><time>2026-04-09T16:36:14.993Z</time></trkpt><trkpt lat="43.0296339" lon="12.1064819"><ele>373.25</ele><time>2026-04-09T16:36:15.993Z</time></trkpt><trkpt lat="43.0296443" lon="12.1066389"><ele>370.5</ele><time>2026-04-09T16:36:16.994Z</time></trkpt><trkpt lat="43.0296767" lon="12.1067933"><ele>367.75</ele><time>2026-04-09T16:36:17.993Z</time></trkpt><trkpt lat="43.0297242" lon="12.1069411"><ele>365.0</ele><time>2026-04-09T16:36:18.993Z</time></trkpt><trkpt lat="43.0297568" lon="12.1070867"><ele>365.0</ele><time>2026-04-09T16:36:19.993Z</time></trkpt><trkpt lat="43.0297826" lon="12.1072238"><ele>365.0</ele><time>2026-04-09T16:36:20.993Z</time></trkpt><trkpt lat="43.0298154" lon="12.1073351"><ele>365.0</ele><time>2026-04-09T16:36:21.994Z</time></trkpt><trkpt lat="43.0298525" lon="12.1074194"><ele>365.0</ele><time>2026-04-09T16:36:22.993Z</time></trkpt><trkpt lat="43.0298941" lon="12.1074988"><ele>365.0</ele><time>2026-04-09T16:36:24.994Z</time></trkpt><trkpt lat="43.0299729" lon="12.1075497"><ele>365.0</ele><time>2026-04-09T16:36:27.993Z</time></trkpt><trkpt lat="43.0300735" lon="12.1074752"><ele>364.6666666666667</ele><time>2026-04-09T16:36:29.992Z</time></trkpt><trkpt lat="43.030122" lon="12.1074167"><ele>364.33333333333337</ele><time>2026-04-09T16:36:30.993Z</time></trkpt><trkpt lat="43.0301794" lon="12.1073437"><ele>364.0</ele><time>2026-04-09T16:36:31.993Z</time></trkpt><trkpt lat="43.0302421" lon="12.1072617"><ele>363.6666666666667</ele><time>2026-04-09T16:36:32.994Z</time></trkpt><trkpt lat="43.0303071" lon="12.1071755"><ele>363.3333333333333</ele><time>2026-04-09T16:36:33.994Z</time></trkpt><trkpt lat="43.0303773" lon="12.1070856"><ele>363.0</ele><time>2026-04-09T16:36:34.993Z</time></trkpt><trkpt lat="43.0304401" lon="12.1069807"><ele>363.0</ele><time>2026-04-09T16:36:35.994Z</time></trkpt><trkpt lat="43.0305194" lon="12.1068689"><ele>363.0</ele><time>2026-04-09T16:36:36.994Z</time></trkpt><trkpt lat="43.0306013" lon="12.1067606"><ele>363.0</ele><time>2026-04-09T16:36:37.993Z</time></trkpt><trkpt lat="43.0306753" lon="12.1066499"><ele>363.0</ele><time>2026-04-09T16:36:38.993Z</time></trkpt><trkpt lat="43.0307555" lon="12.1065417"><ele>361.4</ele><time>2026-04-09T16:36:39.994Z</time></trkpt><trkpt lat="43.0308297" lon="12.1064471"><ele>359.79999999999995</ele><time>2026-04-09T16:36:40.993Z</time></trkpt><trkpt lat="43.0309097" lon="12.1063452"><ele>358.2</ele><time>2026-04-09T16:36:41.994Z</time></trkpt><trkpt lat="43.0310024" lon="12.1062603"><ele>356.6</ele><time>2026-04-09T16:36:42.994Z</time></trkpt><trkpt lat="43.0310648" lon="12.1061597"><ele>355.0</ele><time>2026-04-09T16:36:43.994Z</time></trkpt><trkpt lat="43.0311388" lon="12.1060558"><ele>355.0</ele><time>2026-04-09T16:36:44.994Z</time></trkpt><trkpt lat="43.0312333" lon="12.1059197"><ele>355.0</ele><time>2026-04-09T16:36:45.992Z</time></trkpt><trkpt lat="43.0313165" lon="12.1058073"><ele>355.0</ele><time>2026-04-09T16:36:46.994Z</time></trkpt><trkpt lat="43.0313937" lon="12.1056954"><ele>355.0</ele><time>2026-04-09T16:36:47.993Z</time></trkpt><trkpt lat="43.0314725" lon="12.1055787"><ele>357.75</ele><time>2026-04-09T16:36:48.994Z</time></trkpt><trkpt lat="43.0315445" lon="12.1054672"><ele>360.5</ele><time>2026-04-09T16:36:49.993Z</time></trkpt><trkpt lat="43.03162" lon="12.105353"><ele>363.25</ele><time>2026-04-09T16:36:50.994Z</time></trkpt><trkpt lat="43.0316921" lon="12.1052311"><ele>366.0</ele><time>2026-04-09T16:36:51.993Z</time></trkpt><trkpt lat="43.031769" lon="12.1051068"><ele>362.5</ele><time>2026-04-09T16:36:52.993Z</time></trkpt><trkpt lat="43.0318523" lon="12.1049715"><ele>359.0</ele><time>2026-04-09T16:36:53.993Z</time></trkpt><trkpt lat="43.0319429" lon="12.1048284"><ele>355.5</ele><time>2026-04-09T16:36:54.994Z</time></trkpt><trkpt lat="43.0320431" lon="12.1046687"><ele>352.0</ele><time>2026-04-09T16:36:55.994Z</time></trkpt><trkpt lat="43.0321521" lon="12.1045279"><ele>352.0</ele><time>2026-04-09T16:36:56.993Z</time></trkpt><trkpt lat="43.0322575" lon="12.1043838"><ele>352.0</ele><time>2026-04-09T16:36:57.994Z</time></trkpt><trkpt lat="43.0323841" lon="12.1042527"><ele>352.0</ele><time>2026-04-09T16:36:58.994Z</time></trkpt><trkpt lat="43.0325" lon="12.1041211"><ele>348.3333333333333</ele><time>2026-04-09T16:36:59.994Z</time></trkpt><trkpt lat="43.0326231" lon="12.1039761"><ele>344.6666666666667</ele><time>2026-04-09T16:37:00.993Z</time></trkpt><trkpt lat="43.0327349" lon="12.1038366"><ele>341.0</ele><time>2026-04-09T16:37:01.993Z</time></trkpt><trkpt lat="43.0328493" lon="12.1036775"><ele>341.0</ele><time>2026-04-09T16:37:02.994Z</time></trkpt><trkpt lat="43.0329761" lon="12.1035155"><ele>341.0</ele><time>2026-04-09T16:37:03.993Z</time></trkpt><trkpt lat="43.0330981" lon="12.1033654"><ele>341.0</ele><time>2026-04-09T16:37:04.993Z</time></trkpt><trkpt lat="43.0332198" lon="12.1032142"><ele>337.6666666666667</ele><time>2026-04-09T16:37:05.994Z</time></trkpt><trkpt lat="43.0333527" lon="12.1030689"><ele>334.3333333333333</ele><time>2026-04-09T16:37:06.993Z</time></trkpt><trkpt lat="43.0334835" lon="12.1028953"><ele>331.0</ele><time>2026-04-09T16:37:07.993Z</time></trkpt><trkpt lat="43.0336069" lon="12.1027405"><ele>331.0</ele><time>2026-04-09T16:37:08.993Z</time></trkpt><trkpt lat="43.0337442" lon="12.1026038"><ele>331.0</ele><time>2026-04-09T16:37:09.993Z</time></trkpt><trkpt lat="43.0338677" lon="12.1024436"><ele>331.0</ele><time>2026-04-09T16:37:10.993Z</time></trkpt><trkpt lat="43.033979" lon="12.1022633"><ele>331.3333333333333</ele><time>2026-04-09T16:37:11.994Z</time></trkpt><trkpt lat="43.0340807" lon="12.1020635"><ele>331.6666666666667</ele><time>2026-04-09T16:37:12.994Z</time></trkpt><trkpt lat="43.0341853" lon="12.1018532"><ele>332.0</ele><time>2026-04-09T16:37:13.993Z</time></trkpt><trkpt lat="43.0342772" lon="12.1016487"><ele>327.0</ele><time>2026-04-09T16:37:14.994Z</time></trkpt><trkpt lat="43.0343696" lon="12.1014477"><ele>322.0</ele><time>2026-04-09T16:37:15.993Z</time></trkpt><trkpt lat="43.0344699" lon="12.1012509"><ele>317.0</ele><time>2026-04-09T16:37:16.994Z</time></trkpt><trkpt lat="43.0345702" lon="12.1010758"><ele>317.0</ele><time>2026-04-09T16:37:17.993Z</time></trkpt><trkpt lat="43.0346736" lon="12.1009062"><ele>317.0</ele><time>2026-04-09T16:37:18.993Z</time></trkpt><trkpt lat="43.0347813" lon="12.1007599"><ele>317.0</ele><time>2026-04-09T16:37:19.993Z</time></trkpt><trkpt lat="43.0348864" lon="12.1006196"><ele>314.25</ele><time>2026-04-09T16:37:20.993Z</time></trkpt><trkpt lat="43.0349901" lon="12.1004823"><ele>311.5</ele><time>2026-04-09T16:37:21.994Z</time></trkpt><trkpt lat="43.0350808" lon="12.100357"><ele>308.75</ele><time>2026-04-09T16:37:22.994Z</time></trkpt><trkpt lat="43.0351521" lon="12.1002374"><ele>306.0</ele><time>2026-04-09T16:37:23.994Z</time></trkpt><trkpt lat="43.0352178" lon="12.100115"><ele>306.0</ele><time>2026-04-09T16:37:24.994Z</time></trkpt><trkpt lat="43.0352474" lon="12.0999741"><ele>306.0</ele><time>2026-04-09T16:37:25.993Z</time></trkpt><trkpt lat="43.035253" lon="12.0998262"><ele>306.0</ele><time>2026-04-09T16:37:26.993Z</time></trkpt><trkpt lat="43.0352384" lon="12.0996666"><ele>306.0</ele><time>2026-04-09T16:37:27.993Z</time></trkpt><trkpt lat="43.0352121" lon="12.0995099"><ele>305.25</ele><time>2026-04-09T16:37:28.994Z</time></trkpt><trkpt lat="43.0351805" lon="12.0993524"><ele>304.5</ele><time>2026-04-09T16:37:29.994Z</time></trkpt><trkpt lat="43.0351482" lon="12.0991922"><ele>303.75</ele><time>2026-04-09T16:37:30.993Z</time></trkpt><trkpt lat="43.0351181" lon="12.0990302"><ele>303.0</ele><time>2026-04-09T16:37:31.994Z</time></trkpt><trkpt lat="43.0350906" lon="12.0988784"><ele>302.25</ele><time>2026-04-09T16:37:32.993Z</time></trkpt><trkpt lat="43.0350644" lon="12.0987208"><ele>301.5</ele><time>2026-04-09T16:37:33.993Z</time></trkpt><trkpt lat="43.0350398" lon="12.0985591"><ele>300.75</ele><time>2026-04-09T16:37:34.993Z</time></trkpt><trkpt lat="43.035019" lon="12.0983906"><ele>300.0</ele><time>2026-04-09T16:37:35.994Z</time></trkpt><trkpt lat="43.0350101" lon="12.0982232"><ele>300.0</ele><time>2026-04-09T16:37:36.994Z</time></trkpt><trkpt lat="43.0349991" lon="12.0980464"><ele>300.0</ele><time>2026-04-09T16:37:37.993Z</time></trkpt><trkpt lat="43.0350015" lon="12.097873"><ele>300.0</ele><time>2026-04-09T16:37:38.994Z</time></trkpt><trkpt lat="43.0350162" lon="12.0977181"><ele>300.0</ele><time>2026-04-09T16:37:39.994Z</time></trkpt><trkpt lat="43.0350332" lon="12.0975862"><ele>300.0</ele><time>2026-04-09T16:37:40.994Z</time></trkpt><trkpt lat="43.0350492" lon="12.0974757"><ele>300.0</ele><time>2026-04-09T16:37:41.994Z</time></trkpt><trkpt lat="43.0350759" lon="12.0973291"><ele>300.0</ele><time>2026-04-09T16:37:43.994Z</time></trkpt><trkpt lat="43.0350993" lon="12.0972489"><ele>300.0</ele><time>2026-04-09T16:37:45.994Z</time></trkpt><trkpt lat="43.0351048" lon="12.0971419"><ele>300.0</ele><time>2026-04-09T16:38:05.993Z</time></trkpt><trkpt lat="43.0351354" lon="12.0969676"><ele>300.0</ele><time>2026-04-09T16:38:07.994Z</time></trkpt><trkpt lat="43.035155" lon="12.0968575"><ele>300.0</ele><time>2026-04-09T16:38:08.994Z</time></trkpt><trkpt lat="43.0351806" lon="12.0967172"><ele>300.0</ele><time>2026-04-09T16:38:09.994Z</time></trkpt><trkpt lat="43.0352025" lon="12.0965648"><ele>300.0</ele><time>2026-04-09T16:38:10.994Z</time></trkpt><trkpt lat="43.0352409" lon="12.0964251"><ele>300.0</ele><time>2026-04-09T16:38:11.994Z</time></trkpt><trkpt lat="43.0352672" lon="12.0962549"><ele>300.0</ele><time>2026-04-09T16:38:12.993Z</time></trkpt><trkpt lat="43.0352947" lon="12.0960809"><ele>300.0</ele><time>2026-04-09T16:38:13.994Z</time></trkpt><trkpt lat="43.0353196" lon="12.0958976"><ele>300.0</ele><time>2026-04-09T16:38:14.993Z</time></trkpt><trkpt lat="43.0353385" lon="12.0957207"><ele>300.0</ele><time>2026-04-09T16:38:15.993Z</time></trkpt><trkpt lat="43.0353624" lon="12.0955315"><ele>299.25</ele><time>2026-04-09T16:38:16.994Z</time></trkpt><trkpt lat="43.0353888" lon="12.0953366"><ele>298.5</ele><time>2026-04-09T16:38:17.994Z</time></trkpt><trkpt lat="43.0354244" lon="12.0951303"><ele>297.75</ele><time>2026-04-09T16:38:18.994Z</time></trkpt><trkpt lat="43.0354646" lon="12.0949468"><ele>297.0</ele><time>2026-04-09T16:38:19.994Z</time></trkpt><trkpt lat="43.0355048" lon="12.0947747"><ele>296.25</ele><time>2026-04-09T16:38:20.993Z</time></trkpt><trkpt lat="43.0355566" lon="12.0946429"><ele>295.5</ele><time>2026-04-09T16:38:21.994Z</time></trkpt><trkpt lat="43.0355943" lon="12.0944972"><ele>294.75</ele><time>2026-04-09T16:38:22.992Z</time></trkpt><trkpt lat="43.0356398" lon="12.0943548"><ele>294.0</ele><time>2026-04-09T16:38:23.993Z</time></trkpt><trkpt lat="43.0356979" lon="12.0942069"><ele>294.0</ele><time>2026-04-09T16:38:24.994Z</time></trkpt><trkpt lat="43.0357631" lon="12.0940645"><ele>294.0</ele><time>2026-04-09T16:38:25.993Z</time></trkpt><trkpt lat="43.0358331" lon="12.093898"><ele>294.0</ele><time>2026-04-09T16:38:26.994Z</time></trkpt><trkpt lat="43.0359131" lon="12.0937086"><ele>294.0</ele><time>2026-04-09T16:38:27.994Z</time></trkpt><trkpt lat="43.0359999" lon="12.0934921"><ele>293.3333333333333</ele><time>2026-04-09T16:38:28.991Z</time></trkpt><trkpt lat="43.0361011" lon="12.0932665"><ele>292.66666666666663</ele><time>2026-04-09T16:38:29.994Z</time></trkpt><trkpt lat="43.0362063" lon="12.0930166"><ele>292.0</ele><time>2026-04-09T16:38:30.993Z</time></trkpt><trkpt lat="43.036309" lon="12.0927691"><ele>290.66666666666663</ele><time>2026-04-09T16:38:31.993Z</time></trkpt><trkpt lat="43.0364084" lon="12.0925292"><ele>289.3333333333333</ele><time>2026-04-09T16:38:32.994Z</time></trkpt><trkpt lat="43.0364988" lon="12.0923013"><ele>288.0</ele><time>2026-04-09T16:38:33.993Z</time></trkpt><trkpt lat="43.0365897" lon="12.0920789"><ele>286.6666666666667</ele><time>2026-04-09T16:38:34.992Z</time></trkpt><trkpt lat="43.0366898" lon="12.0918587"><ele>285.33333333333337</ele><time>2026-04-09T16:38:35.993Z</time></trkpt><trkpt lat="43.0368023" lon="12.0916551"><ele>284.0</ele><time>2026-04-09T16:38:36.994Z</time></trkpt><trkpt lat="43.0369413" lon="12.0914869"><ele>284.0</ele><time>2026-04-09T16:38:37.993Z</time></trkpt><trkpt lat="43.0371074" lon="12.0913632"><ele>284.0</ele><time>2026-04-09T16:38:38.993Z</time></trkpt><trkpt lat="43.0372982" lon="12.0912738"><ele>284.0</ele><time>2026-04-09T16:38:39.993Z</time></trkpt><trkpt lat="43.0375002" lon="12.0912392"><ele>283.33333333333337</ele><time>2026-04-09T16:38:40.994Z</time></trkpt><trkpt lat="43.037705" lon="12.0912234"><ele>282.6666666666667</ele><time>2026-04-09T16:38:41.994Z</time></trkpt><trkpt lat="43.037909" lon="12.0912214"><ele>282.0</ele><time>2026-04-09T16:38:42.994Z</time></trkpt><trkpt lat="43.0381227" lon="12.0912373"><ele>282.0</ele><time>2026-04-09T16:38:43.993Z</time></trkpt><trkpt lat="43.0383487" lon="12.0912425"><ele>282.0</ele><time>2026-04-09T16:38:44.994Z</time></trkpt><trkpt lat="43.0385689" lon="12.0912509"><ele>282.0</ele><time>2026-04-09T16:38:45.994Z</time></trkpt><trkpt lat="43.0387728" lon="12.0912535"><ele>282.0</ele><time>2026-04-09T16:38:46.994Z</time></trkpt><trkpt lat="43.0389792" lon="12.0912468"><ele>282.0</ele><time>2026-04-09T16:38:47.993Z</time></trkpt><trkpt lat="43.0391785" lon="12.0912184"><ele>282.0</ele><time>2026-04-09T16:38:48.994Z</time></trkpt><trkpt lat="43.0393735" lon="12.0911727"><ele>282.0</ele><time>2026-04-09T16:38:49.993Z</time></trkpt><trkpt lat="43.0395603" lon="12.0911084"><ele>282.0</ele><time>2026-04-09T16:38:50.994Z</time></trkpt><trkpt lat="43.0397416" lon="12.091019"><ele>282.0</ele><time>2026-04-09T16:38:51.993Z</time></trkpt><trkpt lat="43.0399188" lon="12.0909273"><ele>282.3333333333333</ele><time>2026-04-09T16:38:52.993Z</time></trkpt><trkpt lat="43.0401052" lon="12.0908412"><ele>282.66666666666663</ele><time>2026-04-09T16:38:53.993Z</time></trkpt><trkpt lat="43.0402753" lon="12.0907523"><ele>283.0</ele><time>2026-04-09T16:38:54.994Z</time></trkpt><trkpt lat="43.0404456" lon="12.0906651"><ele>283.0</ele><time>2026-04-09T16:38:55.993Z</time></trkpt><trkpt lat="43.0406095" lon="12.0905847"><ele>283.0</ele><time>2026-04-09T16:38:56.994Z</time></trkpt><trkpt lat="43.040771" lon="12.0904949"><ele>283.0</ele><time>2026-04-09T16:38:57.993Z</time></trkpt><trkpt lat="43.0409401" lon="12.0903754"><ele>282.3333333333333</ele><time>2026-04-09T16:38:58.994Z</time></trkpt><trkpt lat="43.0411098" lon="12.0902449"><ele>281.6666666666667</ele><time>2026-04-09T16:38:59.994Z</time></trkpt><trkpt lat="43.0412684" lon="12.0901154"><ele>281.0</ele><time>2026-04-09T16:39:00.993Z</time></trkpt><trkpt lat="43.0414204" lon="12.0899866"><ele>280.33333333333337</ele><time>2026-04-09T16:39:01.993Z</time></trkpt><trkpt lat="43.0415741" lon="12.0898696"><ele>279.6666666666667</ele><time>2026-04-09T16:39:02.993Z</time></trkpt><trkpt lat="43.0417288" lon="12.0897476"><ele>279.0</ele><time>2026-04-09T16:39:03.994Z</time></trkpt><trkpt lat="43.0418875" lon="12.0896377"><ele>278.6666666666667</ele><time>2026-04-09T16:39:04.994Z</time></trkpt><trkpt lat="43.0420536" lon="12.0894997"><ele>278.33333333333337</ele><time>2026-04-09T16:39:05.993Z</time></trkpt><trkpt lat="43.0422127" lon="12.0893725"><ele>278.0</ele><time>2026-04-09T16:39:06.993Z</time></trkpt><trkpt lat="43.0423635" lon="12.0892456"><ele>277.0</ele><time>2026-04-09T16:39:07.993Z</time></trkpt><trkpt lat="43.0425158" lon="12.0891218"><ele>276.0</ele><time>2026-04-09T16:39:08.994Z</time></trkpt><trkpt lat="43.0426672" lon="12.089003"><ele>275.0</ele><time>2026-04-09T16:39:09.994Z</time></trkpt><trkpt lat="43.0428133" lon="12.0888762"><ele>275.0</ele><time>2026-04-09T16:39:10.994Z</time></trkpt><trkpt lat="43.042959" lon="12.0887545"><ele>275.0</ele><time>2026-04-09T16:39:11.993Z</time></trkpt><trkpt lat="43.0430894" lon="12.0886402"><ele>275.0</ele><time>2026-04-09T16:39:12.994Z</time></trkpt><trkpt lat="43.0432207" lon="12.0885312"><ele>275.25</ele><time>2026-04-09T16:39:13.994Z</time></trkpt><trkpt lat="43.0433362" lon="12.0884395"><ele>275.5</ele><time>2026-04-09T16:39:14.994Z</time></trkpt><trkpt lat="43.0434577" lon="12.088346"><ele>275.75</ele><time>2026-04-09T16:39:15.994Z</time></trkpt><trkpt lat="43.0435699" lon="12.08826"><ele>276.0</ele><time>2026-04-09T16:39:16.994Z</time></trkpt><trkpt lat="43.0436991" lon="12.0881569"><ele>276.0</ele><time>2026-04-09T16:39:17.994Z</time></trkpt><trkpt lat="43.043831" lon="12.0880428"><ele>276.0</ele><time>2026-04-09T16:39:18.993Z</time></trkpt><trkpt lat="43.0439716" lon="12.087914"><ele>276.0</ele><time>2026-04-09T16:39:19.993Z</time></trkpt><trkpt lat="43.044124" lon="12.0877709"><ele>276.3333333333333</ele><time>2026-04-09T16:39:20.994Z</time></trkpt><trkpt lat="43.0442777" lon="12.08761"><ele>276.66666666666663</ele><time>2026-04-09T16:39:21.994Z</time></trkpt><trkpt lat="43.0444357" lon="12.087443"><ele>277.0</ele><time>2026-04-09T16:39:22.993Z</time></trkpt><trkpt lat="43.0446007" lon="12.0872743"><ele>277.0</ele><time>2026-04-09T16:39:23.993Z</time></trkpt><trkpt lat="43.0447809" lon="12.0871028"><ele>277.0</ele><time>2026-04-09T16:39:24.994Z</time></trkpt><trkpt lat="43.0449589" lon="12.086916"><ele>277.0</ele><time>2026-04-09T16:39:25.994Z</time></trkpt><trkpt lat="43.0451257" lon="12.0867227"><ele>275.5</ele><time>2026-04-09T16:39:26.993Z</time></trkpt><trkpt lat="43.0453075" lon="12.0865382"><ele>274.0</ele><time>2026-04-09T16:39:27.994Z</time></trkpt><trkpt lat="43.0454951" lon="12.086342"><ele>274.0</ele><time>2026-04-09T16:39:28.993Z</time></trkpt><trkpt lat="43.0456856" lon="12.0861527"><ele>274.0</ele><time>2026-04-09T16:39:29.994Z</time></trkpt><trkpt lat="43.0458834" lon="12.0859654"><ele>272.0</ele><time>2026-04-09T16:39:30.993Z</time></trkpt><trkpt lat="43.0460859" lon="12.0857676"><ele>270.0</ele><time>2026-04-09T16:39:31.993Z</time></trkpt><trkpt lat="43.0462836" lon="12.0855564"><ele>269.5</ele><time>2026-04-09T16:39:32.994Z</time></trkpt><trkpt lat="43.0464766" lon="12.0853428"><ele>269.0</ele><time>2026-04-09T16:39:33.994Z</time></trkpt><trkpt lat="43.0466569" lon="12.085137"><ele>269.0</ele><time>2026-04-09T16:39:34.993Z</time></trkpt><trkpt lat="43.0468434" lon="12.0849324"><ele>269.0</ele><time>2026-04-09T16:39:35.993Z</time></trkpt><trkpt lat="43.0470364" lon="12.0847365"><ele>269.5</ele><time>2026-04-09T16:39:36.994Z</time></trkpt><trkpt lat="43.0472291" lon="12.0845381"><ele>270.0</ele><time>2026-04-09T16:39:37.994Z</time></trkpt><trkpt lat="43.0474142" lon="12.0843473"><ele>269.5</ele><time>2026-04-09T16:39:38.993Z</time></trkpt><trkpt lat="43.0475998" lon="12.0841523"><ele>269.0</ele><time>2026-04-09T16:39:39.994Z</time></trkpt><trkpt lat="43.0477787" lon="12.0839626"><ele>269.0</ele><time>2026-04-09T16:39:40.993Z</time></trkpt><trkpt lat="43.0479442" lon="12.0838038"><ele>269.0</ele><time>2026-04-09T16:39:41.993Z</time></trkpt><trkpt lat="43.0481066" lon="12.0836724"><ele>269.0</ele><time>2026-04-09T16:39:42.993Z</time></trkpt><trkpt lat="43.048271" lon="12.0835652"><ele>268.33333333333337</ele><time>2026-04-09T16:39:43.993Z</time></trkpt><trkpt lat="43.0484439" lon="12.083479"><ele>267.6666666666667</ele><time>2026-04-09T16:39:44.994Z</time></trkpt><trkpt lat="43.0486174" lon="12.0834256"><ele>267.0</ele><time>2026-04-09T16:39:45.994Z</time></trkpt><trkpt lat="43.0488043" lon="12.0834091"><ele>267.0</ele><time>2026-04-09T16:39:46.994Z</time></trkpt><trkpt lat="43.0489899" lon="12.0834221"><ele>267.0</ele><time>2026-04-09T16:39:47.993Z</time></trkpt><trkpt lat="43.0491727" lon="12.0834392"><ele>267.0</ele><time>2026-04-09T16:39:48.993Z</time></trkpt><trkpt lat="43.0493651" lon="12.0834623"><ele>267.3333333333333</ele><time>2026-04-09T16:39:49.994Z</time></trkpt><trkpt lat="43.0495596" lon="12.0834844"><ele>267.66666666666663</ele><time>2026-04-09T16:39:50.993Z</time></trkpt><trkpt lat="43.049737" lon="12.0835086"><ele>268.0</ele><time>2026-04-09T16:39:51.993Z</time></trkpt><trkpt lat="43.0499093" lon="12.0835333"><ele>268.66666666666663</ele><time>2026-04-09T16:39:52.994Z</time></trkpt><trkpt lat="43.0500747" lon="12.0835602"><ele>269.3333333333333</ele><time>2026-04-09T16:39:53.994Z</time></trkpt><trkpt lat="43.050243" lon="12.0835729"><ele>270.0</ele><time>2026-04-09T16:39:54.994Z</time></trkpt><trkpt lat="43.0504029" lon="12.0835297"><ele>270.0</ele><time>2026-04-09T16:39:55.994Z</time></trkpt><trkpt lat="43.0505614" lon="12.0834525"><ele>270.0</ele><time>2026-04-09T16:39:56.993Z</time></trkpt><trkpt lat="43.0507132" lon="12.0833514"><ele>270.0</ele><time>2026-04-09T16:39:57.993Z</time></trkpt><trkpt lat="43.0508695" lon="12.0832142"><ele>270.3333333333333</ele><time>2026-04-09T16:39:58.993Z</time></trkpt><trkpt lat="43.0509468" lon="12.0829981"><ele>270.66666666666663</ele><time>2026-04-09T16:39:59.994Z</time></trkpt><trkpt lat="43.0510542" lon="12.0828321"><ele>271.0</ele><time>2026-04-09T16:40:00.993Z</time></trkpt><trkpt lat="43.0511687" lon="12.0826694"><ele>271.0</ele><time>2026-04-09T16:40:01.994Z</time></trkpt><trkpt lat="43.0512423" lon="12.0824918"><ele>271.0</ele><time>2026-04-09T16:40:02.994Z</time></trkpt><trkpt lat="43.0513496" lon="12.0822961"><ele>271.0</ele><time>2026-04-09T16:40:03.994Z</time></trkpt><trkpt lat="43.0514375" lon="12.0820977"><ele>271.0</ele><time>2026-04-09T16:40:04.992Z</time></trkpt><trkpt lat="43.0515156" lon="12.0818876"><ele>271.0</ele><time>2026-04-09T16:40:05.994Z</time></trkpt><trkpt lat="43.0515698" lon="12.0816679"><ele>271.0</ele><time>2026-04-09T16:40:06.994Z</time></trkpt><trkpt lat="43.0516144" lon="12.0814383"><ele>271.3333333333333</ele><time>2026-04-09T16:40:07.994Z</time></trkpt><trkpt lat="43.0516419" lon="12.0811961"><ele>271.6666666666667</ele><time>2026-04-09T16:40:08.994Z</time></trkpt><trkpt lat="43.0516718" lon="12.080944"><ele>272.0</ele><time>2026-04-09T16:40:09.993Z</time></trkpt><trkpt lat="43.0516984" lon="12.0806943"><ele>272.0</ele><time>2026-04-09T16:40:10.994Z</time></trkpt><trkpt lat="43.0517272" lon="12.0804557"><ele>272.0</ele><time>2026-04-09T16:40:11.994Z</time></trkpt><trkpt lat="43.0517538" lon="12.0802251"><ele>272.0</ele><time>2026-04-09T16:40:12.994Z</time></trkpt><trkpt lat="43.0517835" lon="12.0800009"><ele>271.6666666666667</ele><time>2026-04-09T16:40:13.993Z</time></trkpt><trkpt lat="43.0518128" lon="12.0797618"><ele>271.3333333333333</ele><time>2026-04-09T16:40:14.993Z</time></trkpt><trkpt lat="43.0518469" lon="12.0795361"><ele>271.0</ele><time>2026-04-09T16:40:15.994Z</time></trkpt><trkpt lat="43.0518936" lon="12.0793162"><ele>271.0</ele><time>2026-04-09T16:40:16.993Z</time></trkpt><trkpt lat="43.0519464" lon="12.0791025"><ele>271.0</ele><time>2026-04-09T16:40:17.994Z</time></trkpt><trkpt lat="43.0520128" lon="12.0788944"><ele>271.0</ele><time>2026-04-09T16:40:18.994Z</time></trkpt><trkpt lat="43.0520827" lon="12.0786864"><ele>271.0</ele><time>2026-04-09T16:40:19.994Z</time></trkpt><trkpt lat="43.0521556" lon="12.0784746"><ele>271.0</ele><time>2026-04-09T16:40:20.994Z</time></trkpt><trkpt lat="43.0522225" lon="12.0782641"><ele>271.0</ele><time>2026-04-09T16:40:21.994Z</time></trkpt><trkpt lat="43.0522937" lon="12.0780708"><ele>270.3333333333333</ele><time>2026-04-09T16:40:22.993Z</time></trkpt><trkpt lat="43.0523755" lon="12.0778867"><ele>269.6666666666667</ele><time>2026-04-09T16:40:23.994Z</time></trkpt><trkpt lat="43.0524782" lon="12.0777114"><ele>269.0</ele><time>2026-04-09T16:40:24.994Z</time></trkpt><trkpt lat="43.052597" lon="12.0775608"><ele>270.0</ele><time>2026-04-09T16:40:25.994Z</time></trkpt><trkpt lat="43.0527346" lon="12.0774123"><ele>271.0</ele><time>2026-04-09T16:40:26.992Z</time></trkpt><trkpt lat="43.0528631" lon="12.077279"><ele>272.0</ele><time>2026-04-09T16:40:27.994Z</time></trkpt><trkpt lat="43.05299" lon="12.0771616"><ele>272.0</ele><time>2026-04-09T16:40:28.993Z</time></trkpt><trkpt lat="43.0531153" lon="12.0770657"><ele>272.0</ele><time>2026-04-09T16:40:29.994Z</time></trkpt><trkpt lat="43.0532513" lon="12.0769973"><ele>272.0</ele><time>2026-04-09T16:40:30.993Z</time></trkpt><trkpt lat="43.0533969" lon="12.0769549"><ele>272.0</ele><time>2026-04-09T16:40:31.994Z</time></trkpt><trkpt lat="43.0535457" lon="12.0769326"><ele>272.0</ele><time>2026-04-09T16:40:32.993Z</time></trkpt><trkpt lat="43.0536853" lon="12.0769282"><ele>272.0</ele><time>2026-04-09T16:40:33.994Z</time></trkpt><trkpt lat="43.0537981" lon="12.0769205"><ele>272.0</ele><time>2026-04-09T16:40:34.994Z</time></trkpt><trkpt lat="43.0539133" lon="12.0769077"><ele>272.0</ele><time>2026-04-09T16:40:35.994Z</time></trkpt><trkpt lat="43.0540328" lon="12.076901"><ele>272.25</ele><time>2026-04-09T16:40:36.994Z</time></trkpt><trkpt lat="43.0541598" lon="12.0769029"><ele>272.5</ele><time>2026-04-09T16:40:37.993Z</time></trkpt><trkpt lat="43.0542936" lon="12.0769237"><ele>272.75</ele><time>2026-04-09T16:40:38.993Z</time></trkpt><trkpt lat="43.054428" lon="12.0769792"><ele>273.0</ele><time>2026-04-09T16:40:39.994Z</time></trkpt><trkpt lat="43.0545648" lon="12.0770385"><ele>273.0</ele><time>2026-04-09T16:40:40.994Z</time></trkpt><trkpt lat="43.0547039" lon="12.0770913"><ele>273.0</ele><time>2026-04-09T16:40:41.993Z</time></trkpt><trkpt lat="43.0548108" lon="12.077132"><ele>273.0</ele><time>2026-04-09T16:40:42.994Z</time></trkpt><trkpt lat="43.0549202" lon="12.0771642"><ele>273.0</ele><time>2026-04-09T16:40:43.994Z</time></trkpt><trkpt lat="43.0550248" lon="12.077196"><ele>273.0</ele><time>2026-04-09T16:40:44.993Z</time></trkpt><trkpt lat="43.0551235" lon="12.0772314"><ele>273.0</ele><time>2026-04-09T16:40:45.994Z</time></trkpt><trkpt lat="43.0552261" lon="12.0772602"><ele>273.0</ele><time>2026-04-09T16:40:46.993Z</time></trkpt><trkpt lat="43.0553341" lon="12.0772338"><ele>273.0</ele><time>2026-04-09T16:40:47.995Z</time></trkpt><trkpt lat="43.0554492" lon="12.0771852"><ele>273.0</ele><time>2026-04-09T16:40:48.994Z</time></trkpt><trkpt lat="43.0555565" lon="12.0771177"><ele>273.0</ele><time>2026-04-09T16:40:49.994Z</time></trkpt><trkpt lat="43.0556713" lon="12.0769959"><ele>273.0</ele><time>2026-04-09T16:40:50.993Z</time></trkpt><trkpt lat="43.0557748" lon="12.0768535"><ele>273.0</ele><time>2026-04-09T16:40:51.993Z</time></trkpt><trkpt lat="43.0558793" lon="12.0766932"><ele>273.0</ele><time>2026-04-09T16:40:52.993Z</time></trkpt><trkpt lat="43.0559909" lon="12.0765163"><ele>271.6666666666667</ele><time>2026-04-09T16:40:53.994Z</time></trkpt><trkpt lat="43.0561253" lon="12.0763305"><ele>270.33333333333337</ele><time>2026-04-09T16:40:54.994Z</time></trkpt><trkpt lat="43.0562416" lon="12.076132"><ele>269.0</ele><time>2026-04-09T16:40:55.993Z</time></trkpt><trkpt lat="43.0563505" lon="12.0759519"><ele>269.0</ele><time>2026-04-09T16:40:56.993Z</time></trkpt><trkpt lat="43.0564553" lon="12.0757851"><ele>269.0</ele><time>2026-04-09T16:40:57.993Z</time></trkpt><trkpt lat="43.0565639" lon="12.0756343"><ele>269.0</ele><time>2026-04-09T16:40:58.993Z</time></trkpt><trkpt lat="43.0567048" lon="12.0755078"><ele>268.33333333333337</ele><time>2026-04-09T16:40:59.994Z</time></trkpt><trkpt lat="43.0568416" lon="12.0753483"><ele>267.6666666666667</ele><time>2026-04-09T16:41:00.993Z</time></trkpt><trkpt lat="43.0569743" lon="12.0751978"><ele>267.0</ele><time>2026-04-09T16:41:01.994Z</time></trkpt><trkpt lat="43.0571086" lon="12.0750502"><ele>266.3333333333333</ele><time>2026-04-09T16:41:02.994Z</time></trkpt><trkpt lat="43.057251" lon="12.0749285"><ele>265.66666666666663</ele><time>2026-04-09T16:41:03.994Z</time></trkpt><trkpt lat="43.057396" lon="12.0747995"><ele>265.0</ele><time>2026-04-09T16:41:04.994Z</time></trkpt><trkpt lat="43.0575483" lon="12.0746811"><ele>265.0</ele><time>2026-04-09T16:41:05.994Z</time></trkpt><trkpt lat="43.0577054" lon="12.0745827"><ele>265.0</ele><time>2026-04-09T16:41:06.993Z</time></trkpt><trkpt lat="43.0578556" lon="12.0744772"><ele>265.0</ele><time>2026-04-09T16:41:07.994Z</time></trkpt><trkpt lat="43.0580218" lon="12.0743844"><ele>265.0</ele><time>2026-04-09T16:41:08.994Z</time></trkpt><trkpt lat="43.0581917" lon="12.0742908"><ele>265.0</ele><time>2026-04-09T16:41:09.993Z</time></trkpt><trkpt lat="43.0583506" lon="12.0741982"><ele>265.0</ele><time>2026-04-09T16:41:10.994Z</time></trkpt><trkpt lat="43.0585143" lon="12.0741054"><ele>264.3333333333333</ele><time>2026-04-09T16:41:11.994Z</time></trkpt><trkpt lat="43.0586845" lon="12.07399"><ele>263.6666666666667</ele><time>2026-04-09T16:41:12.994Z</time></trkpt><trkpt lat="43.0588536" lon="12.0738968"><ele>263.0</ele><time>2026-04-09T16:41:13.994Z</time></trkpt><trkpt lat="43.0590196" lon="12.0738035"><ele>263.6666666666667</ele><time>2026-04-09T16:41:14.994Z</time></trkpt><trkpt lat="43.0591809" lon="12.0736767"><ele>264.3333333333333</ele><time>2026-04-09T16:41:15.993Z</time></trkpt><trkpt lat="43.0593196" lon="12.0735306"><ele>265.0</ele><time>2026-04-09T16:41:16.993Z</time></trkpt><trkpt lat="43.059432" lon="12.0733279"><ele>264.3333333333333</ele><time>2026-04-09T16:41:17.994Z</time></trkpt><trkpt lat="43.0595436" lon="12.0731313"><ele>263.6666666666667</ele><time>2026-04-09T16:41:18.994Z</time></trkpt><trkpt lat="43.0596499" lon="12.0729216"><ele>263.0</ele><time>2026-04-09T16:41:19.993Z</time></trkpt><trkpt lat="43.059758" lon="12.0727188"><ele>263.0</ele><time>2026-04-09T16:41:20.994Z</time></trkpt><trkpt lat="43.0598725" lon="12.0725125"><ele>263.0</ele><time>2026-04-09T16:41:21.994Z</time></trkpt><trkpt lat="43.0599854" lon="12.0723023"><ele>263.0</ele><time>2026-04-09T16:41:22.994Z</time></trkpt><trkpt lat="43.0601227" lon="12.0721111"><ele>263.33333333333337</ele><time>2026-04-09T16:41:23.995Z</time></trkpt><trkpt lat="43.0602702" lon="12.0719409"><ele>263.6666666666667</ele><time>2026-04-09T16:41:24.994Z</time></trkpt><trkpt lat="43.0604454" lon="12.0717855"><ele>264.0</ele><time>2026-04-09T16:41:25.994Z</time></trkpt><trkpt lat="43.0606176" lon="12.0716242"><ele>263.3333333333333</ele><time>2026-04-09T16:41:26.994Z</time></trkpt><trkpt lat="43.0607924" lon="12.0714742"><ele>262.66666666666663</ele><time>2026-04-09T16:41:27.994Z</time></trkpt><trkpt lat="43.0609916" lon="12.0713487"><ele>262.0</ele><time>2026-04-09T16:41:28.993Z</time></trkpt><trkpt lat="43.0611927" lon="12.07122"><ele>262.0</ele><time>2026-04-09T16:41:29.994Z</time></trkpt><trkpt lat="43.0613949" lon="12.071078"><ele>262.0</ele><time>2026-04-09T16:41:30.994Z</time></trkpt><trkpt lat="43.0616062" lon="12.0709278"><ele>262.0</ele><time>2026-04-09T16:41:31.994Z</time></trkpt><trkpt lat="43.0618219" lon="12.0707882"><ele>262.0</ele><time>2026-04-09T16:41:32.994Z</time></trkpt><trkpt lat="43.0620389" lon="12.0706423"><ele>262.0</ele><time>2026-04-09T16:41:33.994Z</time></trkpt><trkpt lat="43.0622417" lon="12.070503"><ele>262.0</ele><time>2026-04-09T16:41:34.992Z</time></trkpt><trkpt lat="43.0624367" lon="12.0703474"><ele>262.0</ele><time>2026-04-09T16:41:35.994Z</time></trkpt><trkpt lat="43.0626309" lon="12.0702123"><ele>262.0</ele><time>2026-04-09T16:41:36.994Z</time></trkpt><trkpt lat="43.0628238" lon="12.0700757"><ele>262.0</ele><time>2026-04-09T16:41:37.994Z</time></trkpt><trkpt lat="43.0630119" lon="12.0699595"><ele>261.66666666666663</ele><time>2026-04-09T16:41:38.994Z</time></trkpt><trkpt lat="43.0631877" lon="12.0698665"><ele>261.3333333333333</ele><time>2026-04-09T16:41:39.994Z</time></trkpt><trkpt lat="43.0633626" lon="12.0697476"><ele>261.0</ele><time>2026-04-09T16:41:40.993Z</time></trkpt><trkpt lat="43.0635323" lon="12.0696314"><ele>261.0</ele><time>2026-04-09T16:41:41.993Z</time></trkpt><trkpt lat="43.0636933" lon="12.0695146"><ele>261.0</ele><time>2026-04-09T16:41:42.994Z</time></trkpt><trkpt lat="43.063841" lon="12.0694173"><ele>261.0</ele><time>2026-04-09T16:41:43.994Z</time></trkpt><trkpt lat="43.0639712" lon="12.069321"><ele>261.0</ele><time>2026-04-09T16:41:44.993Z</time></trkpt><trkpt lat="43.0641062" lon="12.0692404"><ele>261.0</ele><time>2026-04-09T16:41:45.994Z</time></trkpt><trkpt lat="43.0642391" lon="12.0691626"><ele>261.0</ele><time>2026-04-09T16:41:46.993Z</time></trkpt><trkpt lat="43.0643698" lon="12.0691149"><ele>261.0</ele><time>2026-04-09T16:41:47.994Z</time></trkpt><trkpt lat="43.0645024" lon="12.0690888"><ele>261.40000000000003</ele><time>2026-04-09T16:41:48.994Z</time></trkpt><trkpt lat="43.0646204" lon="12.0690741"><ele>261.8</ele><time>2026-04-09T16:41:49.994Z</time></trkpt><trkpt lat="43.0647273" lon="12.0690788"><ele>262.20000000000005</ele><time>2026-04-09T16:41:50.994Z</time></trkpt><trkpt lat="43.0648286" lon="12.0690751"><ele>262.6</ele><time>2026-04-09T16:41:51.994Z</time></trkpt><trkpt lat="43.064912" lon="12.0690844"><ele>263.0</ele><time>2026-04-09T16:41:52.994Z</time></trkpt><trkpt lat="43.0649784" lon="12.0690919"><ele>263.0</ele><time>2026-04-09T16:41:53.993Z</time></trkpt><trkpt lat="43.0650675" lon="12.0691013"><ele>263.0</ele><time>2026-04-09T16:41:55.994Z</time></trkpt><trkpt lat="43.0651579" lon="12.0691636"><ele>263.0</ele><time>2026-04-09T16:41:57.994Z</time></trkpt><trkpt lat="43.0652032" lon="12.0692298"><ele>263.0</ele><time>2026-04-09T16:41:58.993Z</time></trkpt><trkpt lat="43.0652537" lon="12.069322"><ele>263.0</ele><time>2026-04-09T16:41:59.994Z</time></trkpt><trkpt lat="43.0653104" lon="12.0694518"><ele>263.0</ele><time>2026-04-09T16:42:00.994Z</time></trkpt><trkpt lat="43.0653545" lon="12.0695903"><ele>263.0</ele><time>2026-04-09T16:42:01.994Z</time></trkpt><trkpt lat="43.06539" lon="12.0697404"><ele>263.0</ele><time>2026-04-09T16:42:02.994Z</time></trkpt><trkpt lat="43.0654334" lon="12.0699086"><ele>263.0</ele><time>2026-04-09T16:42:03.993Z</time></trkpt><trkpt lat="43.0654783" lon="12.0700889"><ele>263.0</ele><time>2026-04-09T16:42:04.994Z</time></trkpt><trkpt lat="43.0655286" lon="12.0702716"><ele>263.0</ele><time>2026-04-09T16:42:05.994Z</time></trkpt><trkpt lat="43.0655661" lon="12.0704346"><ele>263.0</ele><time>2026-04-09T16:42:06.994Z</time></trkpt><trkpt lat="43.0656278" lon="12.0706197"><ele>263.0</ele><time>2026-04-09T16:42:07.994Z</time></trkpt><trkpt lat="43.0656805" lon="12.0708368"><ele>263.0</ele><time>2026-04-09T16:42:08.993Z</time></trkpt><trkpt lat="43.0657356" lon="12.0710867"><ele>263.0</ele><time>2026-04-09T16:42:09.994Z</time></trkpt><trkpt lat="43.0657912" lon="12.071345"><ele>263.0</ele><time>2026-04-09T16:42:10.994Z</time></trkpt><trkpt lat="43.0658534" lon="12.0716073"><ele>262.33333333333337</ele><time>2026-04-09T16:42:11.994Z</time></trkpt><trkpt lat="43.0659334" lon="12.0718874"><ele>261.6666666666667</ele><time>2026-04-09T16:42:12.994Z</time></trkpt><trkpt lat="43.0660012" lon="12.0721634"><ele>261.0</ele><time>2026-04-09T16:42:13.994Z</time></trkpt><trkpt lat="43.0660699" lon="12.0724264"><ele>260.3333333333333</ele><time>2026-04-09T16:42:14.994Z</time></trkpt><trkpt lat="43.0661317" lon="12.0726896"><ele>259.66666666666663</ele><time>2026-04-09T16:42:15.994Z</time></trkpt><trkpt lat="43.0661924" lon="12.0729435"><ele>259.0</ele><time>2026-04-09T16:42:16.994Z</time></trkpt><trkpt lat="43.066254" lon="12.0731994"><ele>259.3333333333333</ele><time>2026-04-09T16:42:17.993Z</time></trkpt><trkpt lat="43.0663221" lon="12.0734537"><ele>259.6666666666667</ele><time>2026-04-09T16:42:18.994Z</time></trkpt><trkpt lat="43.0663875" lon="12.0737161"><ele>260.0</ele><time>2026-04-09T16:42:19.993Z</time></trkpt><trkpt lat="43.0664527" lon="12.0739797"><ele>259.6666666666667</ele><time>2026-04-09T16:42:20.993Z</time></trkpt><trkpt lat="43.0665216" lon="12.0742373"><ele>259.3333333333333</ele><time>2026-04-09T16:42:21.994Z</time></trkpt><trkpt lat="43.0665858" lon="12.074492"><ele>259.0</ele><time>2026-04-09T16:42:22.994Z</time></trkpt><trkpt lat="43.0666552" lon="12.074742"><ele>259.3333333333333</ele><time>2026-04-09T16:42:23.994Z</time></trkpt><trkpt lat="43.0667208" lon="12.0750045"><ele>259.6666666666667</ele><time>2026-04-09T16:42:24.993Z</time></trkpt><trkpt lat="43.066783" lon="12.0752521"><ele>260.0</ele><time>2026-04-09T16:42:25.993Z</time></trkpt><trkpt lat="43.0668448" lon="12.0755137"><ele>260.0</ele><time>2026-04-09T16:42:26.994Z</time></trkpt><trkpt lat="43.0669068" lon="12.0757611"><ele>260.0</ele><time>2026-04-09T16:42:27.993Z</time></trkpt><trkpt lat="43.0669683" lon="12.0760125"><ele>260.0</ele><time>2026-04-09T16:42:28.994Z</time></trkpt><trkpt lat="43.0670366" lon="12.076268"><ele>260.0</ele><time>2026-04-09T16:42:29.994Z</time></trkpt><trkpt lat="43.0671013" lon="12.0765171"><ele>260.0</ele><time>2026-04-09T16:42:30.994Z</time></trkpt><trkpt lat="43.0671667" lon="12.076781"><ele>260.0</ele><time>2026-04-09T16:42:31.994Z</time></trkpt><trkpt lat="43.067237" lon="12.0770426"><ele>260.6666666666667</ele><time>2026-04-09T16:42:32.994Z</time></trkpt><trkpt lat="43.0673043" lon="12.0773073"><ele>261.3333333333333</ele><time>2026-04-09T16:42:33.994Z</time></trkpt><trkpt lat="43.0673675" lon="12.0775724"><ele>262.0</ele><time>2026-04-09T16:42:34.994Z</time></trkpt><trkpt lat="43.0674354" lon="12.0778426"><ele>261.66666666666663</ele><time>2026-04-09T16:42:35.994Z</time></trkpt><trkpt lat="43.0675026" lon="12.0781143"><ele>261.3333333333333</ele><time>2026-04-09T16:42:36.994Z</time></trkpt><trkpt lat="43.067576" lon="12.0783748"><ele>261.0</ele><time>2026-04-09T16:42:37.994Z</time></trkpt><trkpt lat="43.0676382" lon="12.0786252"><ele>261.0</ele><time>2026-04-09T16:42:38.994Z</time></trkpt><trkpt lat="43.0676985" lon="12.0788782"><ele>261.0</ele><time>2026-04-09T16:42:39.994Z</time></trkpt><trkpt lat="43.0677519" lon="12.0791285"><ele>261.0</ele><time>2026-04-09T16:42:40.994Z</time></trkpt><trkpt lat="43.0678156" lon="12.0793831"><ele>261.6666666666667</ele><time>2026-04-09T16:42:41.993Z</time></trkpt><trkpt lat="43.0678788" lon="12.0796433"><ele>262.33333333333337</ele><time>2026-04-09T16:42:42.994Z</time></trkpt><trkpt lat="43.0679427" lon="12.0799086"><ele>263.0</ele><time>2026-04-09T16:42:43.993Z</time></trkpt><trkpt lat="43.0680085" lon="12.0801773"><ele>263.0</ele><time>2026-04-09T16:42:44.994Z</time></trkpt><trkpt lat="43.0680832" lon="12.0804688"><ele>263.0</ele><time>2026-04-09T16:42:45.994Z</time></trkpt><trkpt lat="43.0681494" lon="12.0807308"><ele>263.0</ele><time>2026-04-09T16:42:46.994Z</time></trkpt><trkpt lat="43.0682161" lon="12.0809939"><ele>262.6666666666667</ele><time>2026-04-09T16:42:47.994Z</time></trkpt><trkpt lat="43.0682773" lon="12.0812656"><ele>262.3333333333333</ele><time>2026-04-09T16:42:48.994Z</time></trkpt><trkpt lat="43.0683341" lon="12.0814961"><ele>262.0</ele><time>2026-04-09T16:42:49.994Z</time></trkpt><trkpt lat="43.0683718" lon="12.0816605"><ele>262.0</ele><time>2026-04-09T16:42:50.994Z</time></trkpt><trkpt lat="43.0684034" lon="12.0817911"><ele>262.0</ele><time>2026-04-09T16:42:51.994Z</time></trkpt><trkpt lat="43.0684351" lon="12.0819129"><ele>262.0</ele><time>2026-04-09T16:42:52.993Z</time></trkpt><trkpt lat="43.0684652" lon="12.0820372"><ele>262.0</ele><time>2026-04-09T16:42:53.994Z</time></trkpt><trkpt lat="43.0685023" lon="12.0821762"><ele>262.0</ele><time>2026-04-09T16:42:54.994Z</time></trkpt><trkpt lat="43.0685468" lon="12.0823511"><ele>262.25</ele><time>2026-04-09T16:42:55.993Z</time></trkpt><trkpt lat="43.068591" lon="12.0825308"><ele>262.5</ele><time>2026-04-09T16:42:56.994Z</time></trkpt><trkpt lat="43.0686395" lon="12.0827176"><ele>262.75</ele><time>2026-04-09T16:42:57.994Z</time></trkpt><trkpt lat="43.068692" lon="12.0829225"><ele>263.0</ele><time>2026-04-09T16:42:58.994Z</time></trkpt><trkpt lat="43.068751" lon="12.083151"><ele>263.33333333333337</ele><time>2026-04-09T16:42:59.993Z</time></trkpt><trkpt lat="43.0688081" lon="12.083383"><ele>263.6666666666667</ele><time>2026-04-09T16:43:00.994Z</time></trkpt><trkpt lat="43.068861" lon="12.0836048"><ele>264.0</ele><time>2026-04-09T16:43:01.993Z</time></trkpt><trkpt lat="43.0689151" lon="12.0838251"><ele>264.0</ele><time>2026-04-09T16:43:02.994Z</time></trkpt><trkpt lat="43.0689689" lon="12.0840457"><ele>264.0</ele><time>2026-04-09T16:43:03.994Z</time></trkpt><trkpt lat="43.0690157" lon="12.0842915"><ele>264.0</ele><time>2026-04-09T16:43:04.994Z</time></trkpt><trkpt lat="43.0690518" lon="12.0845388"><ele>264.6666666666667</ele><time>2026-04-09T16:43:05.994Z</time></trkpt><trkpt lat="43.0690772" lon="12.0847721"><ele>265.33333333333337</ele><time>2026-04-09T16:43:06.994Z</time></trkpt><trkpt lat="43.0690911" lon="12.0849898"><ele>266.0</ele><time>2026-04-09T16:43:07.994Z</time></trkpt><trkpt lat="43.06911" lon="12.0851966"><ele>266.25</ele><time>2026-04-09T16:43:08.994Z</time></trkpt><trkpt lat="43.0691263" lon="12.0853806"><ele>266.5</ele><time>2026-04-09T16:43:09.993Z</time></trkpt><trkpt lat="43.0691365" lon="12.0855643"><ele>266.75</ele><time>2026-04-09T16:43:10.994Z</time></trkpt><trkpt lat="43.0691486" lon="12.0857561"><ele>267.0</ele><time>2026-04-09T16:43:11.994Z</time></trkpt><trkpt lat="43.0691614" lon="12.0859572"><ele>267.3333333333333</ele><time>2026-04-09T16:43:12.994Z</time></trkpt><trkpt lat="43.0691796" lon="12.0861708"><ele>267.66666666666663</ele><time>2026-04-09T16:43:13.994Z</time></trkpt><trkpt lat="43.0691961" lon="12.0863847"><ele>268.0</ele><time>2026-04-09T16:43:14.994Z</time></trkpt><trkpt lat="43.0692119" lon="12.0865891"><ele>268.5</ele><time>2026-04-09T16:43:15.994Z</time></trkpt><trkpt lat="43.0692222" lon="12.0867879"><ele>269.0</ele><time>2026-04-09T16:43:16.994Z</time></trkpt><trkpt lat="43.0692338" lon="12.0869728"><ele>269.5</ele><time>2026-04-09T16:43:17.993Z</time></trkpt><trkpt lat="43.069245" lon="12.0871599"><ele>270.0</ele><time>2026-04-09T16:43:18.994Z</time></trkpt><trkpt lat="43.0692648" lon="12.0873164"><ele>269.5</ele><time>2026-04-09T16:43:19.995Z</time></trkpt><trkpt lat="43.0693037" lon="12.0874936"><ele>269.0</ele><time>2026-04-09T16:43:20.993Z</time></trkpt><trkpt lat="43.0693426" lon="12.0876733"><ele>268.5</ele><time>2026-04-09T16:43:21.994Z</time></trkpt><trkpt lat="43.0694351" lon="12.0878577"><ele>268.0</ele><time>2026-04-09T16:43:22.993Z</time></trkpt><trkpt lat="43.0695185" lon="12.0880457"><ele>268.0</ele><time>2026-04-09T16:43:23.994Z</time></trkpt><trkpt lat="43.0696119" lon="12.0882229"><ele>268.0</ele><time>2026-04-09T16:43:24.995Z</time></trkpt><trkpt lat="43.0696929" lon="12.0883789"><ele>268.0</ele><time>2026-04-09T16:43:25.994Z</time></trkpt><trkpt lat="43.0697579" lon="12.0885338"><ele>268.0</ele><time>2026-04-09T16:43:26.994Z</time></trkpt><trkpt lat="43.0698235" lon="12.0886993"><ele>267.5</ele><time>2026-04-09T16:43:27.993Z</time></trkpt><trkpt lat="43.0698978" lon="12.0888575"><ele>267.0</ele><time>2026-04-09T16:43:28.994Z</time></trkpt><trkpt lat="43.0699653" lon="12.0890107"><ele>266.5</ele><time>2026-04-09T16:43:29.994Z</time></trkpt><trkpt lat="43.070034" lon="12.0891581"><ele>266.0</ele><time>2026-04-09T16:43:30.994Z</time></trkpt><trkpt lat="43.0700962" lon="12.0893163"><ele>266.0</ele><time>2026-04-09T16:43:31.994Z</time></trkpt><trkpt lat="43.0701568" lon="12.089457"><ele>266.0</ele><time>2026-04-09T16:43:32.993Z</time></trkpt><trkpt lat="43.0702203" lon="12.0896049"><ele>266.0</ele><time>2026-04-09T16:43:33.994Z</time></trkpt><trkpt lat="43.0702873" lon="12.0897535"><ele>266.0</ele><time>2026-04-09T16:43:34.994Z</time></trkpt><trkpt lat="43.0703632" lon="12.0899308"><ele>266.0</ele><time>2026-04-09T16:43:35.994Z</time></trkpt><trkpt lat="43.0704469" lon="12.0901196"><ele>266.0</ele><time>2026-04-09T16:43:36.994Z</time></trkpt><trkpt lat="43.0705395" lon="12.0903127"><ele>266.0</ele><time>2026-04-09T16:43:37.994Z</time></trkpt><trkpt lat="43.0706313" lon="12.0905065"><ele>266.0</ele><time>2026-04-09T16:43:38.994Z</time></trkpt><trkpt lat="43.070714" lon="12.0906818"><ele>266.0</ele><time>2026-04-09T16:43:39.994Z</time></trkpt><trkpt lat="43.0707913" lon="12.0908586"><ele>266.0</ele><time>2026-04-09T16:43:40.994Z</time></trkpt><trkpt lat="43.0708773" lon="12.0910402"><ele>265.6666666666667</ele><time>2026-04-09T16:43:41.994Z</time></trkpt><trkpt lat="43.0709625" lon="12.0912307"><ele>265.3333333333333</ele><time>2026-04-09T16:43:42.994Z</time></trkpt><trkpt lat="43.0710527" lon="12.0914321"><ele>265.0</ele><time>2026-04-09T16:43:43.994Z</time></trkpt><trkpt lat="43.0711452" lon="12.0916417"><ele>264.66666666666663</ele><time>2026-04-09T16:43:44.994Z</time></trkpt><trkpt lat="43.0712478" lon="12.0918622"><ele>264.3333333333333</ele><time>2026-04-09T16:43:45.994Z</time></trkpt><trkpt lat="43.0713394" lon="12.0920821"><ele>264.0</ele><time>2026-04-09T16:43:46.993Z</time></trkpt><trkpt lat="43.0714425" lon="12.0923022"><ele>264.0</ele><time>2026-04-09T16:43:47.994Z</time></trkpt><trkpt lat="43.0715423" lon="12.0925307"><ele>264.0</ele><time>2026-04-09T16:43:48.993Z</time></trkpt><trkpt lat="43.0716476" lon="12.0927633"><ele>264.0</ele><time>2026-04-09T16:43:49.994Z</time></trkpt><trkpt lat="43.0717572" lon="12.0930052"><ele>264.3333333333333</ele><time>2026-04-09T16:43:50.994Z</time></trkpt><trkpt lat="43.0718692" lon="12.0932598"><ele>264.66666666666663</ele><time>2026-04-09T16:43:51.994Z</time></trkpt><trkpt lat="43.0719848" lon="12.0935085"><ele>265.0</ele><time>2026-04-09T16:43:52.994Z</time></trkpt><trkpt lat="43.0720972" lon="12.0937601"><ele>265.0</ele><time>2026-04-09T16:43:53.994Z</time></trkpt><trkpt lat="43.0722023" lon="12.0940043"><ele>265.0</ele><time>2026-04-09T16:43:54.994Z</time></trkpt><trkpt lat="43.0723023" lon="12.0942402"><ele>265.0</ele><time>2026-04-09T16:43:55.994Z</time></trkpt><trkpt lat="43.0723977" lon="12.0944559"><ele>265.0</ele><time>2026-04-09T16:43:56.994Z</time></trkpt><trkpt lat="43.0724933" lon="12.0946726"><ele>265.0</ele><time>2026-04-09T16:43:57.994Z</time></trkpt><trkpt lat="43.0725922" lon="12.0948767"><ele>265.0</ele><time>2026-04-09T16:43:58.993Z</time></trkpt><trkpt lat="43.0727003" lon="12.0950907"><ele>265.66666666666663</ele><time>2026-04-09T16:43:59.994Z</time></trkpt><trkpt lat="43.0728079" lon="12.0952997"><ele>266.3333333333333</ele><time>2026-04-09T16:44:00.994Z</time></trkpt><trkpt lat="43.0729171" lon="12.09551"><ele>267.0</ele><time>2026-04-09T16:44:01.994Z</time></trkpt><trkpt lat="43.0730316" lon="12.0957217"><ele>266.6666666666667</ele><time>2026-04-09T16:44:02.994Z</time></trkpt><trkpt lat="43.0731388" lon="12.0959351"><ele>266.33333333333337</ele><time>2026-04-09T16:44:03.994Z</time></trkpt><trkpt lat="43.0732595" lon="12.0961657"><ele>266.0</ele><time>2026-04-09T16:44:04.994Z</time></trkpt><trkpt lat="43.0733776" lon="12.0963937"><ele>264.6666666666667</ele><time>2026-04-09T16:44:05.994Z</time></trkpt><trkpt lat="43.0734954" lon="12.096632"><ele>263.3333333333333</ele><time>2026-04-09T16:44:06.993Z</time></trkpt><trkpt lat="43.073615" lon="12.0968639"><ele>262.0</ele><time>2026-04-09T16:44:07.994Z</time></trkpt><trkpt lat="43.0737364" lon="12.0970942"><ele>262.0</ele><time>2026-04-09T16:44:08.993Z</time></trkpt><trkpt lat="43.0738575" lon="12.097321"><ele>262.0</ele><time>2026-04-09T16:44:09.994Z</time></trkpt><trkpt lat="43.0739881" lon="12.0975512"><ele>262.0</ele><time>2026-04-09T16:44:10.994Z</time></trkpt><trkpt lat="43.0741127" lon="12.0977832"><ele>261.66666666666663</ele><time>2026-04-09T16:44:11.994Z</time></trkpt><trkpt lat="43.0742424" lon="12.0980273"><ele>261.3333333333333</ele><time>2026-04-09T16:44:12.994Z</time></trkpt><trkpt lat="43.0743651" lon="12.098263"><ele>261.0</ele><time>2026-04-09T16:44:13.994Z</time></trkpt><trkpt lat="43.0744833" lon="12.0985037"><ele>261.0</ele><time>2026-04-09T16:44:14.994Z</time></trkpt><trkpt lat="43.0745987" lon="12.0987435"><ele>261.0</ele><time>2026-04-09T16:44:15.993Z</time></trkpt><trkpt lat="43.0747068" lon="12.0989964"><ele>261.0</ele><time>2026-04-09T16:44:16.993Z</time></trkpt><trkpt lat="43.0747989" lon="12.0992675"><ele>261.0</ele><time>2026-04-09T16:44:17.994Z</time></trkpt><trkpt lat="43.0748752" lon="12.099534"><ele>261.0</ele><time>2026-04-09T16:44:18.994Z</time></trkpt><trkpt lat="43.0749269" lon="12.0998148"><ele>261.0</ele><time>2026-04-09T16:44:19.994Z</time></trkpt><trkpt lat="43.0749776" lon="12.1000937"><ele>261.0</ele><time>2026-04-09T16:44:20.994Z</time></trkpt><trkpt lat="43.0750272" lon="12.1003779"><ele>261.0</ele><time>2026-04-09T16:44:21.994Z</time></trkpt><trkpt lat="43.0750752" lon="12.1006595"><ele>261.0</ele><time>2026-04-09T16:44:22.993Z</time></trkpt><trkpt lat="43.0751275" lon="12.1009413"><ele>260.6666666666667</ele><time>2026-04-09T16:44:23.994Z</time></trkpt><trkpt lat="43.0751689" lon="12.1012184"><ele>260.33333333333337</ele><time>2026-04-09T16:44:24.994Z</time></trkpt><trkpt lat="43.0752147" lon="12.1014941"><ele>260.0</ele><time>2026-04-09T16:44:25.994Z</time></trkpt><trkpt lat="43.0752623" lon="12.1017498"><ele>260.0</ele><time>2026-04-09T16:44:26.994Z</time></trkpt><trkpt lat="43.0753091" lon="12.1019937"><ele>260.0</ele><time>2026-04-09T16:44:27.994Z</time></trkpt><trkpt lat="43.0753543" lon="12.1022125"><ele>260.0</ele><time>2026-04-09T16:44:28.994Z</time></trkpt><trkpt lat="43.0753927" lon="12.1024137"><ele>260.25</ele><time>2026-04-09T16:44:29.994Z</time></trkpt><trkpt lat="43.07543" lon="12.1026002"><ele>260.5</ele><time>2026-04-09T16:44:30.994Z</time></trkpt><trkpt lat="43.0754642" lon="12.1027722"><ele>260.75</ele><time>2026-04-09T16:44:31.994Z</time></trkpt><trkpt lat="43.075494" lon="12.1029414"><ele>261.0</ele><time>2026-04-09T16:44:32.994Z</time></trkpt><trkpt lat="43.0755283" lon="12.1031156"><ele>260.75</ele><time>2026-04-09T16:44:33.994Z</time></trkpt><trkpt lat="43.0755522" lon="12.1032953"><ele>260.5</ele><time>2026-04-09T16:44:34.993Z</time></trkpt><trkpt lat="43.0755857" lon="12.1034798"><ele>260.25</ele><time>2026-04-09T16:44:35.994Z</time></trkpt><trkpt lat="43.0756126" lon="12.1036733"><ele>260.0</ele><time>2026-04-09T16:44:36.994Z</time></trkpt><trkpt lat="43.0756528" lon="12.1038714"><ele>260.0</ele><time>2026-04-09T16:44:37.994Z</time></trkpt><trkpt lat="43.0756886" lon="12.1040683"><ele>260.0</ele><time>2026-04-09T16:44:38.994Z</time></trkpt><trkpt lat="43.0757294" lon="12.1042788"><ele>260.0</ele><time>2026-04-09T16:44:39.994Z</time></trkpt><trkpt lat="43.0757733" lon="12.1044939"><ele>260.0</ele><time>2026-04-09T16:44:40.994Z</time></trkpt><trkpt lat="43.0758121" lon="12.1047195"><ele>260.0</ele><time>2026-04-09T16:44:41.994Z</time></trkpt><trkpt lat="43.075852" lon="12.1049487"><ele>260.0</ele><time>2026-04-09T16:44:42.994Z</time></trkpt><trkpt lat="43.0758909" lon="12.105192"><ele>259.6666666666667</ele><time>2026-04-09T16:44:43.994Z</time></trkpt><trkpt lat="43.0759311" lon="12.1054289"><ele>259.3333333333333</ele><time>2026-04-09T16:44:44.995Z</time></trkpt><trkpt lat="43.0759768" lon="12.1056555"><ele>259.0</ele><time>2026-04-09T16:44:45.994Z</time></trkpt><trkpt lat="43.0760202" lon="12.1058862"><ele>259.0</ele><time>2026-04-09T16:44:46.994Z</time></trkpt><trkpt lat="43.0760649" lon="12.1061148"><ele>259.0</ele><time>2026-04-09T16:44:47.994Z</time></trkpt><trkpt lat="43.0761129" lon="12.1063521"><ele>259.0</ele><time>2026-04-09T16:44:48.994Z</time></trkpt><trkpt lat="43.0761568" lon="12.1065999"><ele>258.66666666666663</ele><time>2026-04-09T16:44:49.994Z</time></trkpt><trkpt lat="43.0762014" lon="12.1068441"><ele>258.3333333333333</ele><time>2026-04-09T16:44:50.994Z</time></trkpt><trkpt lat="43.0762475" lon="12.1070961"><ele>258.0</ele><time>2026-04-09T16:44:51.994Z</time></trkpt><trkpt lat="43.0762897" lon="12.1073517"><ele>258.3333333333333</ele><time>2026-04-09T16:44:52.994Z</time></trkpt><trkpt lat="43.0763373" lon="12.1076112"><ele>258.66666666666663</ele><time>2026-04-09T16:44:53.994Z</time></trkpt><trkpt lat="43.0763837" lon="12.1078708"><ele>259.0</ele><time>2026-04-09T16:44:54.994Z</time></trkpt><trkpt lat="43.0764251" lon="12.1081363"><ele>259.66666666666663</ele><time>2026-04-09T16:44:55.994Z</time></trkpt><trkpt lat="43.0764547" lon="12.1084169"><ele>260.3333333333333</ele><time>2026-04-09T16:44:56.994Z</time></trkpt><trkpt lat="43.0764639" lon="12.1087084"><ele>261.0</ele><time>2026-04-09T16:44:57.994Z</time></trkpt><trkpt lat="43.0764587" lon="12.1090127"><ele>260.0</ele><time>2026-04-09T16:44:58.994Z</time></trkpt><trkpt lat="43.0764405" lon="12.109325"><ele>259.0</ele><time>2026-04-09T16:44:59.994Z</time></trkpt><trkpt lat="43.0764077" lon="12.1096505"><ele>259.5</ele><time>2026-04-09T16:45:00.994Z</time></trkpt><trkpt lat="43.0763839" lon="12.109965"><ele>260.0</ele><time>2026-04-09T16:45:01.994Z</time></trkpt><trkpt lat="43.0763579" lon="12.1102703"><ele>260.0</ele><time>2026-04-09T16:45:02.994Z</time></trkpt><trkpt lat="43.0763385" lon="12.1105777"><ele>260.0</ele><time>2026-04-09T16:45:03.994Z</time></trkpt><trkpt lat="43.0763174" lon="12.1108628"><ele>260.0</ele><time>2026-04-09T16:45:04.994Z</time></trkpt><trkpt lat="43.0762908" lon="12.1111258"><ele>260.0</ele><time>2026-04-09T16:45:05.994Z</time></trkpt><trkpt lat="43.0762711" lon="12.1113743"><ele>260.0</ele><time>2026-04-09T16:45:06.994Z</time></trkpt><trkpt lat="43.0762465" lon="12.1116271"><ele>260.0</ele><time>2026-04-09T16:45:07.994Z</time></trkpt><trkpt lat="43.07622" lon="12.1118789"><ele>260.0</ele><time>2026-04-09T16:45:08.994Z</time></trkpt><trkpt lat="43.0762043" lon="12.1121142"><ele>260.0</ele><time>2026-04-09T16:45:09.994Z</time></trkpt><trkpt lat="43.0761898" lon="12.1123321"><ele>260.0</ele><time>2026-04-09T16:45:10.995Z</time></trkpt><trkpt lat="43.076187" lon="12.112535"><ele>260.0</ele><time>2026-04-09T16:45:11.995Z</time></trkpt><trkpt lat="43.0761785" lon="12.1127409"><ele>260.0</ele><time>2026-04-09T16:45:12.994Z</time></trkpt><trkpt lat="43.0761745" lon="12.1129477"><ele>260.0</ele><time>2026-04-09T16:45:13.994Z</time></trkpt><trkpt lat="43.0761733" lon="12.1131508"><ele>260.0</ele><time>2026-04-09T16:45:14.995Z</time></trkpt><trkpt lat="43.0761742" lon="12.1133373"><ele>260.0</ele><time>2026-04-09T16:45:15.994Z</time></trkpt><trkpt lat="43.0761792" lon="12.1135074"><ele>260.0</ele><time>2026-04-09T16:45:16.994Z</time></trkpt><trkpt lat="43.0761835" lon="12.1136638"><ele>260.0</ele><time>2026-04-09T16:45:17.994Z</time></trkpt><trkpt lat="43.0761922" lon="12.1138106"><ele>260.0</ele><time>2026-04-09T16:45:18.994Z</time></trkpt><trkpt lat="43.0762077" lon="12.1139697"><ele>260.0</ele><time>2026-04-09T16:45:19.994Z</time></trkpt><trkpt lat="43.0762216" lon="12.1141394"><ele>260.0</ele><time>2026-04-09T16:45:20.995Z</time></trkpt><trkpt lat="43.0762316" lon="12.1143297"><ele>260.0</ele><time>2026-04-09T16:45:21.994Z</time></trkpt><trkpt lat="43.076245" lon="12.1145325"><ele>260.0</ele><time>2026-04-09T16:45:22.994Z</time></trkpt><trkpt lat="43.0762565" lon="12.1147403"><ele>260.0</ele><time>2026-04-09T16:45:23.994Z</time></trkpt><trkpt lat="43.0762695" lon="12.1149595"><ele>260.0</ele><time>2026-04-09T16:45:24.994Z</time></trkpt><trkpt lat="43.0762788" lon="12.1151694"><ele>260.0</ele><time>2026-04-09T16:45:25.994Z</time></trkpt><trkpt lat="43.0762959" lon="12.1153838"><ele>260.0</ele><time>2026-04-09T16:45:26.995Z</time></trkpt><trkpt lat="43.076316" lon="12.115622"><ele>260.0</ele><time>2026-04-09T16:45:27.995Z</time></trkpt><trkpt lat="43.0763312" lon="12.1158776"><ele>260.0</ele><time>2026-04-09T16:45:28.994Z</time></trkpt><trkpt lat="43.0763368" lon="12.1161491"><ele>260.0</ele><time>2026-04-09T16:45:29.995Z</time></trkpt><trkpt lat="43.0763467" lon="12.1164261"><ele>260.0</ele><time>2026-04-09T16:45:30.995Z</time></trkpt><trkpt lat="43.0763664" lon="12.1166963"><ele>259.6666666666667</ele><time>2026-04-09T16:45:31.995Z</time></trkpt><trkpt lat="43.076377" lon="12.1169618"><ele>259.3333333333333</ele><time>2026-04-09T16:45:32.994Z</time></trkpt><trkpt lat="43.0763933" lon="12.1172238"><ele>259.0</ele><time>2026-04-09T16:45:33.994Z</time></trkpt><trkpt lat="43.0764037" lon="12.1174977"><ele>259.0</ele><time>2026-04-09T16:45:34.994Z</time></trkpt><trkpt lat="43.0764133" lon="12.1177812"><ele>259.0</ele><time>2026-04-09T16:45:35.995Z</time></trkpt><trkpt lat="43.0764204" lon="12.1180652"><ele>259.0</ele><time>2026-04-09T16:45:36.994Z</time></trkpt><trkpt lat="43.0764257" lon="12.1183435"><ele>259.0</ele><time>2026-04-09T16:45:37.995Z</time></trkpt><trkpt lat="43.0764232" lon="12.1186356"><ele>259.0</ele><time>2026-04-09T16:45:38.994Z</time></trkpt><trkpt lat="43.0764129" lon="12.1189327"><ele>259.0</ele><time>2026-04-09T16:45:39.994Z</time></trkpt><trkpt lat="43.0764102" lon="12.119233"><ele>259.0</ele><time>2026-04-09T16:45:40.995Z</time></trkpt><trkpt lat="43.0764045" lon="12.1195369"><ele>259.0</ele><time>2026-04-09T16:45:41.994Z</time></trkpt><trkpt lat="43.0764026" lon="12.1198473"><ele>259.0</ele><time>2026-04-09T16:45:42.994Z</time></trkpt><trkpt lat="43.0764052" lon="12.1201549"><ele>259.0</ele><time>2026-04-09T16:45:43.994Z</time></trkpt><trkpt lat="43.0764019" lon="12.1204559"><ele>259.0</ele><time>2026-04-09T16:45:44.994Z</time></trkpt><trkpt lat="43.0763985" lon="12.1207446"><ele>259.0</ele><time>2026-04-09T16:45:45.994Z</time></trkpt><trkpt lat="43.0763984" lon="12.1210266"><ele>259.0</ele><time>2026-04-09T16:45:46.994Z</time></trkpt><trkpt lat="43.0763966" lon="12.1213053"><ele>259.0</ele><time>2026-04-09T16:45:47.994Z</time></trkpt><trkpt lat="43.0764003" lon="12.1215877"><ele>259.0</ele><time>2026-04-09T16:45:48.994Z</time></trkpt><trkpt lat="43.0764222" lon="12.121868"><ele>259.0</ele><time>2026-04-09T16:45:49.994Z</time></trkpt><trkpt lat="43.0764853" lon="12.1221374"><ele>259.0</ele><time>2026-04-09T16:45:50.994Z</time></trkpt><trkpt lat="43.0765442" lon="12.1224066"><ele>259.0</ele><time>2026-04-09T16:45:51.994Z</time></trkpt><trkpt lat="43.0765954" lon="12.1226657"><ele>258.66666666666663</ele><time>2026-04-09T16:45:52.993Z</time></trkpt><trkpt lat="43.0766502" lon="12.1229357"><ele>258.3333333333333</ele><time>2026-04-09T16:45:53.994Z</time></trkpt><trkpt lat="43.0767081" lon="12.1232025"><ele>258.0</ele><time>2026-04-09T16:45:54.994Z</time></trkpt><trkpt lat="43.0767635" lon="12.1234687"><ele>258.0</ele><time>2026-04-09T16:45:55.995Z</time></trkpt><trkpt lat="43.0768231" lon="12.1237333"><ele>258.0</ele><time>2026-04-09T16:45:56.994Z</time></trkpt><trkpt lat="43.0768808" lon="12.1240088"><ele>258.0</ele><time>2026-04-09T16:45:57.993Z</time></trkpt><trkpt lat="43.0769432" lon="12.1242757"><ele>258.3333333333333</ele><time>2026-04-09T16:45:58.994Z</time></trkpt><trkpt lat="43.0770044" lon="12.1245604"><ele>258.66666666666663</ele><time>2026-04-09T16:45:59.993Z</time></trkpt><trkpt lat="43.0770584" lon="12.1248436"><ele>259.0</ele><time>2026-04-09T16:46:00.994Z</time></trkpt><trkpt lat="43.0771154" lon="12.1251289"><ele>259.0</ele><time>2026-04-09T16:46:01.994Z</time></trkpt><trkpt lat="43.0771734" lon="12.1254097"><ele>259.0</ele><time>2026-04-09T16:46:02.994Z</time></trkpt><trkpt lat="43.0772343" lon="12.1256901"><ele>259.0</ele><time>2026-04-09T16:46:03.993Z</time></trkpt><trkpt lat="43.0773034" lon="12.125971"><ele>259.0</ele><time>2026-04-09T16:46:04.995Z</time></trkpt><trkpt lat="43.0773682" lon="12.1262468"><ele>259.0</ele><time>2026-04-09T16:46:05.994Z</time></trkpt><trkpt lat="43.0774374" lon="12.1265243"><ele>259.0</ele><time>2026-04-09T16:46:06.994Z</time></trkpt><trkpt lat="43.0774996" lon="12.1268108"><ele>258.66666666666663</ele><time>2026-04-09T16:46:07.994Z</time></trkpt><trkpt lat="43.0775629" lon="12.1270921"><ele>258.3333333333333</ele><time>2026-04-09T16:46:08.994Z</time></trkpt><trkpt lat="43.0776202" lon="12.1273727"><ele>258.0</ele><time>2026-04-09T16:46:09.994Z</time></trkpt><trkpt lat="43.0776748" lon="12.1276563"><ele>258.3333333333333</ele><time>2026-04-09T16:46:10.994Z</time></trkpt><trkpt lat="43.0777422" lon="12.1279429"><ele>258.66666666666663</ele><time>2026-04-09T16:46:11.994Z</time></trkpt><trkpt lat="43.077806" lon="12.128224"><ele>259.0</ele><time>2026-04-09T16:46:12.994Z</time></trkpt><trkpt lat="43.0778718" lon="12.1285066"><ele>259.0</ele><time>2026-04-09T16:46:13.994Z</time></trkpt><trkpt lat="43.077932" lon="12.1287793"><ele>259.0</ele><time>2026-04-09T16:46:14.994Z</time></trkpt><trkpt lat="43.0779958" lon="12.1290562"><ele>259.0</ele><time>2026-04-09T16:46:15.994Z</time></trkpt><trkpt lat="43.0780561" lon="12.1293357"><ele>259.3333333333333</ele><time>2026-04-09T16:46:16.994Z</time></trkpt><trkpt lat="43.0781209" lon="12.1296151"><ele>259.6666666666667</ele><time>2026-04-09T16:46:17.994Z</time></trkpt><trkpt lat="43.0781851" lon="12.1298872"><ele>260.0</ele><time>2026-04-09T16:46:18.994Z</time></trkpt><trkpt lat="43.0782435" lon="12.13017"><ele>260.0</ele><time>2026-04-09T16:46:19.994Z</time></trkpt><trkpt lat="43.07831" lon="12.1304472"><ele>260.0</ele><time>2026-04-09T16:46:20.993Z</time></trkpt><trkpt lat="43.0783753" lon="12.1307242"><ele>260.0</ele><time>2026-04-09T16:46:21.994Z</time></trkpt><trkpt lat="43.0784371" lon="12.1310007"><ele>260.0</ele><time>2026-04-09T16:46:22.994Z</time></trkpt><trkpt lat="43.0784958" lon="12.1312859"><ele>260.0</ele><time>2026-04-09T16:46:23.994Z</time></trkpt><trkpt lat="43.0785538" lon="12.1315636"><ele>260.0</ele><time>2026-04-09T16:46:24.995Z</time></trkpt><trkpt lat="43.0786148" lon="12.13185"><ele>260.0</ele><time>2026-04-09T16:46:25.993Z</time></trkpt><trkpt lat="43.0786701" lon="12.1321273"><ele>260.0</ele><time>2026-04-09T16:46:26.994Z</time></trkpt><trkpt lat="43.0787268" lon="12.1324089"><ele>260.0</ele><time>2026-04-09T16:46:27.994Z</time></trkpt><trkpt lat="43.078789" lon="12.132683"><ele>260.0</ele><time>2026-04-09T16:46:28.994Z</time></trkpt><trkpt lat="43.0788548" lon="12.1329661"><ele>260.0</ele><time>2026-04-09T16:46:29.993Z</time></trkpt><trkpt lat="43.078919" lon="12.1332416"><ele>260.0</ele><time>2026-04-09T16:46:30.992Z</time></trkpt><trkpt lat="43.0789838" lon="12.1335191"><ele>260.0</ele><time>2026-04-09T16:46:31.994Z</time></trkpt><trkpt lat="43.0790543" lon="12.1337829"><ele>260.0</ele><time>2026-04-09T16:46:32.995Z</time></trkpt><trkpt lat="43.0791361" lon="12.1340123"><ele>260.0</ele><time>2026-04-09T16:46:33.995Z</time></trkpt><trkpt lat="43.0792452" lon="12.1342158"><ele>261.6666666666667</ele><time>2026-04-09T16:46:34.992Z</time></trkpt><trkpt lat="43.0793788" lon="12.1343905"><ele>263.3333333333333</ele><time>2026-04-09T16:46:35.995Z</time></trkpt><trkpt lat="43.0795347" lon="12.134517"><ele>265.0</ele><time>2026-04-09T16:46:36.994Z</time></trkpt><trkpt lat="43.0797129" lon="12.1345977"><ele>265.0</ele><time>2026-04-09T16:46:37.993Z</time></trkpt><trkpt lat="43.0799175" lon="12.1346223"><ele>265.0</ele><time>2026-04-09T16:46:38.994Z</time></trkpt><trkpt lat="43.0801145" lon="12.1346312"><ele>265.0</ele><time>2026-04-09T16:46:39.994Z</time></trkpt><trkpt lat="43.0803368" lon="12.1346542"><ele>264.3333333333333</ele><time>2026-04-09T16:46:40.994Z</time></trkpt><trkpt lat="43.0805441" lon="12.1346761"><ele>263.6666666666667</ele><time>2026-04-09T16:46:41.995Z</time></trkpt><trkpt lat="43.0807573" lon="12.1347365"><ele>263.0</ele><time>2026-04-09T16:46:42.994Z</time></trkpt><trkpt lat="43.0809583" lon="12.1348073"><ele>267.6666666666667</ele><time>2026-04-09T16:46:43.994Z</time></trkpt><trkpt lat="43.0811304" lon="12.1349199"><ele>272.3333333333333</ele><time>2026-04-09T16:46:44.994Z</time></trkpt><trkpt lat="43.0812873" lon="12.1350407"><ele>277.0</ele><time>2026-04-09T16:46:45.995Z</time></trkpt><trkpt lat="43.0814262" lon="12.1351971"><ele>277.0</ele><time>2026-04-09T16:46:46.994Z</time></trkpt><trkpt lat="43.0815267" lon="12.1353761"><ele>277.0</ele><time>2026-04-09T16:46:47.994Z</time></trkpt><trkpt lat="43.0815923" lon="12.1355907"><ele>277.0</ele><time>2026-04-09T16:46:48.993Z</time></trkpt><trkpt lat="43.0816121" lon="12.1358248"><ele>282.0</ele><time>2026-04-09T16:46:49.994Z</time></trkpt><trkpt lat="43.0815877" lon="12.1360569"><ele>287.0</ele><time>2026-04-09T16:46:50.994Z</time></trkpt><trkpt lat="43.081521" lon="12.1362706"><ele>292.0</ele><time>2026-04-09T16:46:51.994Z</time></trkpt><trkpt lat="43.0814225" lon="12.1364926"><ele>293.0</ele><time>2026-04-09T16:46:52.994Z</time></trkpt><trkpt lat="43.0813195" lon="12.1366914"><ele>294.0</ele><time>2026-04-09T16:46:53.993Z</time></trkpt><trkpt lat="43.0812213" lon="12.136868"><ele>295.0</ele><time>2026-04-09T16:46:54.994Z</time></trkpt><trkpt lat="43.081127" lon="12.1370364"><ele>295.0</ele><time>2026-04-09T16:46:55.994Z</time></trkpt><trkpt lat="43.0810423" lon="12.1372033"><ele>295.0</ele><time>2026-04-09T16:46:56.993Z</time></trkpt><trkpt lat="43.0809604" lon="12.1373685"><ele>295.0</ele><time>2026-04-09T16:46:57.994Z</time></trkpt><trkpt lat="43.0808782" lon="12.1375134"><ele>295.0</ele><time>2026-04-09T16:46:58.994Z</time></trkpt><trkpt lat="43.0808029" lon="12.1376713"><ele>297.0</ele><time>2026-04-09T16:46:59.994Z</time></trkpt><trkpt lat="43.0807208" lon="12.1378167"><ele>299.0</ele><time>2026-04-09T16:47:00.994Z</time></trkpt><trkpt lat="43.0806444" lon="12.1379536"><ele>301.0</ele><time>2026-04-09T16:47:01.994Z</time></trkpt><trkpt lat="43.0805737" lon="12.1380783"><ele>303.0</ele><time>2026-04-09T16:47:02.994Z</time></trkpt><trkpt lat="43.0804949" lon="12.1382073"><ele>299.75</ele><time>2026-04-09T16:47:03.995Z</time></trkpt><trkpt lat="43.0804109" lon="12.1383374"><ele>296.5</ele><time>2026-04-09T16:47:04.994Z</time></trkpt><trkpt lat="43.0803236" lon="12.1384713"><ele>293.25</ele><time>2026-04-09T16:47:05.995Z</time></trkpt><trkpt lat="43.0802359" lon="12.1386158"><ele>290.0</ele><time>2026-04-09T16:47:06.993Z</time></trkpt><trkpt lat="43.0801729" lon="12.1387697"><ele>290.0</ele><time>2026-04-09T16:47:07.994Z</time></trkpt><trkpt lat="43.0801112" lon="12.138939"><ele>290.0</ele><time>2026-04-09T16:47:08.993Z</time></trkpt><trkpt lat="43.0800605" lon="12.1391143"><ele>290.0</ele><time>2026-04-09T16:47:09.995Z</time></trkpt><trkpt lat="43.0800131" lon="12.1392978"><ele>290.0</ele><time>2026-04-09T16:47:10.995Z</time></trkpt><trkpt lat="43.0799672" lon="12.1394841"><ele>288.0</ele><time>2026-04-09T16:47:11.994Z</time></trkpt><trkpt lat="43.0799236" lon="12.139675"><ele>286.0</ele><time>2026-04-09T16:47:12.995Z</time></trkpt><trkpt lat="43.0799299" lon="12.1398872"><ele>284.0</ele><time>2026-04-09T16:47:13.995Z</time></trkpt><trkpt lat="43.0799393" lon="12.1401041"><ele>280.0</ele><time>2026-04-09T16:47:14.993Z</time></trkpt><trkpt lat="43.0799643" lon="12.1403276"><ele>276.0</ele><time>2026-04-09T16:47:15.995Z</time></trkpt><trkpt lat="43.0800032" lon="12.1405332"><ele>272.0</ele><time>2026-04-09T16:47:16.994Z</time></trkpt><trkpt lat="43.0800506" lon="12.1407293"><ele>271.0</ele><time>2026-04-09T16:47:17.994Z</time></trkpt><trkpt lat="43.0801097" lon="12.1409133"><ele>270.0</ele><time>2026-04-09T16:47:18.994Z</time></trkpt><trkpt lat="43.0801701" lon="12.1410675"><ele>269.0</ele><time>2026-04-09T16:47:19.994Z</time></trkpt><trkpt lat="43.0802508" lon="12.1412127"><ele>268.0</ele><time>2026-04-09T16:47:20.994Z</time></trkpt><trkpt lat="43.0803333" lon="12.1413509"><ele>268.0</ele><time>2026-04-09T16:47:21.993Z</time></trkpt><trkpt lat="43.0804138" lon="12.1414717"><ele>268.0</ele><time>2026-04-09T16:47:22.994Z</time></trkpt><trkpt lat="43.0804998" lon="12.1415702"><ele>268.0</ele><time>2026-04-09T16:47:23.994Z</time></trkpt><trkpt lat="43.0805844" lon="12.1416832"><ele>268.0</ele><time>2026-04-09T16:47:24.994Z</time></trkpt><trkpt lat="43.0806681" lon="12.1417949"><ele>267.25</ele><time>2026-04-09T16:47:25.995Z</time></trkpt><trkpt lat="43.0807595" lon="12.1419148"><ele>266.5</ele><time>2026-04-09T16:47:26.994Z</time></trkpt><trkpt lat="43.080845" lon="12.1420311"><ele>265.75</ele><time>2026-04-09T16:47:27.994Z</time></trkpt><trkpt lat="43.0809198" lon="12.1421605"><ele>265.0</ele><time>2026-04-09T16:47:28.994Z</time></trkpt><trkpt lat="43.0809808" lon="12.1422957"><ele>264.2</ele><time>2026-04-09T16:47:29.994Z</time></trkpt><trkpt lat="43.0810307" lon="12.1424364"><ele>263.4</ele><time>2026-04-09T16:47:30.995Z</time></trkpt><trkpt lat="43.0810738" lon="12.1425806"><ele>262.6</ele><time>2026-04-09T16:47:31.993Z</time></trkpt><trkpt lat="43.0811163" lon="12.1427239"><ele>261.8</ele><time>2026-04-09T16:47:32.994Z</time></trkpt><trkpt lat="43.0811499" lon="12.1428646"><ele>261.0</ele><time>2026-04-09T16:47:33.995Z</time></trkpt><trkpt lat="43.0811812" lon="12.1429998"><ele>261.0</ele><time>2026-04-09T16:47:34.995Z</time></trkpt><trkpt lat="43.0812159" lon="12.1431386"><ele>261.0</ele><time>2026-04-09T16:47:35.994Z</time></trkpt><trkpt lat="43.0812356" lon="12.1432634"><ele>261.0</ele><time>2026-04-09T16:47:36.994Z</time></trkpt><trkpt lat="43.0812611" lon="12.1433991"><ele>261.0</ele><time>2026-04-09T16:47:37.994Z</time></trkpt><trkpt lat="43.0812922" lon="12.1435378"><ele>261.0</ele><time>2026-04-09T16:47:38.994Z</time></trkpt><trkpt lat="43.0813341" lon="12.1436947"><ele>261.0</ele><time>2026-04-09T16:47:39.994Z</time></trkpt><trkpt lat="43.0813722" lon="12.1438544"><ele>261.0</ele><time>2026-04-09T16:47:40.994Z</time></trkpt><trkpt lat="43.0814079" lon="12.1440364"><ele>261.0</ele><time>2026-04-09T16:47:41.994Z</time></trkpt><trkpt lat="43.0814549" lon="12.1442529"><ele>261.0</ele><time>2026-04-09T16:47:42.994Z</time></trkpt><trkpt lat="43.0815059" lon="12.1444888"><ele>261.3333333333333</ele><time>2026-04-09T16:47:43.994Z</time></trkpt><trkpt lat="43.081561" lon="12.1447292"><ele>261.66666666666663</ele><time>2026-04-09T16:47:44.994Z</time></trkpt><trkpt lat="43.0816201" lon="12.1449752"><ele>262.0</ele><time>2026-04-09T16:47:45.994Z</time></trkpt><trkpt lat="43.0816824" lon="12.1452394"><ele>261.66666666666663</ele><time>2026-04-09T16:47:46.994Z</time></trkpt><trkpt lat="43.0817423" lon="12.1454872"><ele>261.3333333333333</ele><time>2026-04-09T16:47:47.995Z</time></trkpt><trkpt lat="43.081798" lon="12.1457393"><ele>261.0</ele><time>2026-04-09T16:47:48.995Z</time></trkpt><trkpt lat="43.0818525" lon="12.1459886"><ele>261.0</ele><time>2026-04-09T16:47:49.995Z</time></trkpt><trkpt lat="43.0819005" lon="12.1462291"><ele>261.0</ele><time>2026-04-09T16:47:50.994Z</time></trkpt><trkpt lat="43.0819428" lon="12.1464639"><ele>261.0</ele><time>2026-04-09T16:47:51.994Z</time></trkpt><trkpt lat="43.0819836" lon="12.1466897"><ele>261.6666666666667</ele><time>2026-04-09T16:47:52.995Z</time></trkpt><trkpt lat="43.0820148" lon="12.1469297"><ele>262.33333333333337</ele><time>2026-04-09T16:47:53.994Z</time></trkpt><trkpt lat="43.0820294" lon="12.1471812"><ele>263.0</ele><time>2026-04-09T16:47:54.994Z</time></trkpt><trkpt lat="43.0820328" lon="12.1474477"><ele>263.0</ele><time>2026-04-09T16:47:55.994Z</time></trkpt><trkpt lat="43.0820225" lon="12.1477077"><ele>263.0</ele><time>2026-04-09T16:47:56.994Z</time></trkpt><trkpt lat="43.0820055" lon="12.147964"><ele>263.0</ele><time>2026-04-09T16:47:57.994Z</time></trkpt><trkpt lat="43.0819918" lon="12.1482107"><ele>263.6666666666667</ele><time>2026-04-09T16:47:58.994Z</time></trkpt><trkpt lat="43.0819808" lon="12.1484432"><ele>264.3333333333333</ele><time>2026-04-09T16:47:59.994Z</time></trkpt><trkpt lat="43.0819755" lon="12.1486838"><ele>265.0</ele><time>2026-04-09T16:48:00.995Z</time></trkpt><trkpt lat="43.0819632" lon="12.148911"><ele>265.0</ele><time>2026-04-09T16:48:01.995Z</time></trkpt><trkpt lat="43.0819477" lon="12.149135"><ele>265.0</ele><time>2026-04-09T16:48:02.995Z</time></trkpt><trkpt lat="43.0819286" lon="12.1493567"><ele>265.0</ele><time>2026-04-09T16:48:03.994Z</time></trkpt><trkpt lat="43.0819122" lon="12.1495953"><ele>265.0</ele><time>2026-04-09T16:48:04.994Z</time></trkpt><trkpt lat="43.0818975" lon="12.1498469"><ele>265.0</ele><time>2026-04-09T16:48:05.994Z</time></trkpt><trkpt lat="43.0818825" lon="12.1501289"><ele>265.0</ele><time>2026-04-09T16:48:06.994Z</time></trkpt><trkpt lat="43.0818651" lon="12.1504319"><ele>265.3333333333333</ele><time>2026-04-09T16:48:07.995Z</time></trkpt><trkpt lat="43.0818474" lon="12.1507309"><ele>265.6666666666667</ele><time>2026-04-09T16:48:08.995Z</time></trkpt><trkpt lat="43.0818259" lon="12.1510233"><ele>266.0</ele><time>2026-04-09T16:48:09.995Z</time></trkpt><trkpt lat="43.0818056" lon="12.1513144"><ele>265.6666666666667</ele><time>2026-04-09T16:48:10.995Z</time></trkpt><trkpt lat="43.0817928" lon="12.1516008"><ele>265.3333333333333</ele><time>2026-04-09T16:48:11.995Z</time></trkpt><trkpt lat="43.0817802" lon="12.1518826"><ele>265.0</ele><time>2026-04-09T16:48:12.994Z</time></trkpt><trkpt lat="43.0817608" lon="12.1521576"><ele>265.66666666666663</ele><time>2026-04-09T16:48:13.994Z</time></trkpt><trkpt lat="43.0817502" lon="12.15243"><ele>266.3333333333333</ele><time>2026-04-09T16:48:14.994Z</time></trkpt><trkpt lat="43.0817504" lon="12.1526858"><ele>267.0</ele><time>2026-04-09T16:48:15.994Z</time></trkpt><trkpt lat="43.0817624" lon="12.1529446"><ele>267.0</ele><time>2026-04-09T16:48:16.995Z</time></trkpt><trkpt lat="43.0818037" lon="12.1531949"><ele>267.0</ele><time>2026-04-09T16:48:17.994Z</time></trkpt><trkpt lat="43.0818512" lon="12.1534238"><ele>267.0</ele><time>2026-04-09T16:48:18.995Z</time></trkpt><trkpt lat="43.0819055" lon="12.1536439"><ele>267.3333333333333</ele><time>2026-04-09T16:48:19.994Z</time></trkpt><trkpt lat="43.0819673" lon="12.1538497"><ele>267.66666666666663</ele><time>2026-04-09T16:48:20.994Z</time></trkpt><trkpt lat="43.0820323" lon="12.1540538"><ele>268.0</ele><time>2026-04-09T16:48:21.994Z</time></trkpt><trkpt lat="43.0820963" lon="12.1542622"><ele>268.66666666666663</ele><time>2026-04-09T16:48:22.994Z</time></trkpt><trkpt lat="43.0821568" lon="12.1544819"><ele>269.3333333333333</ele><time>2026-04-09T16:48:23.995Z</time></trkpt><trkpt lat="43.0822262" lon="12.1547152"><ele>270.0</ele><time>2026-04-09T16:48:24.994Z</time></trkpt><trkpt lat="43.0822967" lon="12.1549427"><ele>270.0</ele><time>2026-04-09T16:48:25.994Z</time></trkpt><trkpt lat="43.0823696" lon="12.1551773"><ele>270.0</ele><time>2026-04-09T16:48:26.994Z</time></trkpt><trkpt lat="43.082435" lon="12.1553983"><ele>270.0</ele><time>2026-04-09T16:48:27.994Z</time></trkpt><trkpt lat="43.0825059" lon="12.1556299"><ele>269.3333333333333</ele><time>2026-04-09T16:48:28.994Z</time></trkpt><trkpt lat="43.08257" lon="12.1558571"><ele>268.66666666666663</ele><time>2026-04-09T16:48:29.994Z</time></trkpt><trkpt lat="43.0826379" lon="12.1560904"><ele>268.0</ele><time>2026-04-09T16:48:30.994Z</time></trkpt><trkpt lat="43.0827046" lon="12.1563185"><ele>268.3333333333333</ele><time>2026-04-09T16:48:31.995Z</time></trkpt><trkpt lat="43.0827715" lon="12.1565557"><ele>268.6666666666667</ele><time>2026-04-09T16:48:32.995Z</time></trkpt><trkpt lat="43.0828361" lon="12.1567751"><ele>269.0</ele><time>2026-04-09T16:48:33.994Z</time></trkpt><trkpt lat="43.0828972" lon="12.1570044"><ele>269.0</ele><time>2026-04-09T16:48:34.994Z</time></trkpt><trkpt lat="43.0829632" lon="12.1572222"><ele>269.0</ele><time>2026-04-09T16:48:35.995Z</time></trkpt><trkpt lat="43.0830288" lon="12.1574373"><ele>269.0</ele><time>2026-04-09T16:48:36.994Z</time></trkpt><trkpt lat="43.083094" lon="12.1576448"><ele>270.0</ele><time>2026-04-09T16:48:37.995Z</time></trkpt><trkpt lat="43.0831423" lon="12.1578571"><ele>271.0</ele><time>2026-04-09T16:48:38.994Z</time></trkpt><trkpt lat="43.083193" lon="12.1580749"><ele>272.0</ele><time>2026-04-09T16:48:39.995Z</time></trkpt><trkpt lat="43.0832531" lon="12.1582797"><ele>271.75</ele><time>2026-04-09T16:48:40.995Z</time></trkpt><trkpt lat="43.083325" lon="12.158461"><ele>271.5</ele><time>2026-04-09T16:48:41.994Z</time></trkpt><trkpt lat="43.0834186" lon="12.1586219"><ele>271.25</ele><time>2026-04-09T16:48:42.994Z</time></trkpt><trkpt lat="43.0835113" lon="12.1587547"><ele>271.0</ele><time>2026-04-09T16:48:43.995Z</time></trkpt><trkpt lat="43.0835974" lon="12.1588704"><ele>271.0</ele><time>2026-04-09T16:48:44.994Z</time></trkpt><trkpt lat="43.0836712" lon="12.1589667"><ele>271.0</ele><time>2026-04-09T16:48:45.995Z</time></trkpt><trkpt lat="43.0837386" lon="12.1590418"><ele>271.0</ele><time>2026-04-09T16:48:46.994Z</time></trkpt><trkpt lat="43.0837993" lon="12.1591066"><ele>271.0</ele><time>2026-04-09T16:48:47.995Z</time></trkpt><trkpt lat="43.0838533" lon="12.159169"><ele>271.0</ele><time>2026-04-09T16:48:48.994Z</time></trkpt><trkpt lat="43.0839136" lon="12.1592282"><ele>271.0</ele><time>2026-04-09T16:48:49.994Z</time></trkpt><trkpt lat="43.0839862" lon="12.1593435"><ele>271.2</ele><time>2026-04-09T16:48:51.995Z</time></trkpt><trkpt lat="43.0840796" lon="12.1594607"><ele>271.40000000000003</ele><time>2026-04-09T16:48:53.994Z</time></trkpt><trkpt lat="43.0841743" lon="12.1595609"><ele>271.6</ele><time>2026-04-09T16:48:55.994Z</time></trkpt><trkpt lat="43.0842269" lon="12.1596288"><ele>271.8</ele><time>2026-04-09T16:48:56.994Z</time></trkpt><trkpt lat="43.0842846" lon="12.1596856"><ele>272.0</ele><time>2026-04-09T16:48:57.994Z</time></trkpt><trkpt lat="43.0843507" lon="12.1597584"><ele>272.0</ele><time>2026-04-09T16:48:58.993Z</time></trkpt><trkpt lat="43.0844207" lon="12.1598329"><ele>272.0</ele><time>2026-04-09T16:48:59.995Z</time></trkpt><trkpt lat="43.0844967" lon="12.1599253"><ele>272.0</ele><time>2026-04-09T16:49:00.995Z</time></trkpt><trkpt lat="43.0845767" lon="12.1600196"><ele>272.0</ele><time>2026-04-09T16:49:01.994Z</time></trkpt><trkpt lat="43.0846574" lon="12.1601178"><ele>272.0</ele><time>2026-04-09T16:49:02.994Z</time></trkpt><trkpt lat="43.0847345" lon="12.1602035"><ele>272.4</ele><time>2026-04-09T16:49:03.995Z</time></trkpt><trkpt lat="43.0848074" lon="12.1602667"><ele>272.79999999999995</ele><time>2026-04-09T16:49:04.994Z</time></trkpt><trkpt lat="43.0848863" lon="12.1603197"><ele>273.2</ele><time>2026-04-09T16:49:05.994Z</time></trkpt><trkpt lat="43.0849745" lon="12.1603614"><ele>273.59999999999997</ele><time>2026-04-09T16:49:06.994Z</time></trkpt><trkpt lat="43.0850721" lon="12.1603856"><ele>274.0</ele><time>2026-04-09T16:49:07.994Z</time></trkpt><trkpt lat="43.0852093" lon="12.1603902"><ele>272.3333333333333</ele><time>2026-04-09T16:49:08.994Z</time></trkpt><trkpt lat="43.0853492" lon="12.1603632"><ele>270.6666666666667</ele><time>2026-04-09T16:49:09.993Z</time></trkpt><trkpt lat="43.0854869" lon="12.1603194"><ele>269.0</ele><time>2026-04-09T16:49:10.994Z</time></trkpt><trkpt lat="43.0856487" lon="12.1602561"><ele>268.6666666666667</ele><time>2026-04-09T16:49:11.994Z</time></trkpt><trkpt lat="43.0858516" lon="12.1601931"><ele>268.3333333333333</ele><time>2026-04-09T16:49:12.995Z</time></trkpt><trkpt lat="43.0860318" lon="12.1601222"><ele>268.0</ele><time>2026-04-09T16:49:13.995Z</time></trkpt><trkpt lat="43.0862257" lon="12.1600635"><ele>268.0</ele><time>2026-04-09T16:49:14.992Z</time></trkpt><trkpt lat="43.0863868" lon="12.1600575"><ele>268.0</ele><time>2026-04-09T16:49:15.995Z</time></trkpt><trkpt lat="43.0865589" lon="12.1600478"><ele>268.0</ele><time>2026-04-09T16:49:16.994Z</time></trkpt><trkpt lat="43.086718" lon="12.1601707"><ele>267.3333333333333</ele><time>2026-04-09T16:49:17.994Z</time></trkpt><trkpt lat="43.0868766" lon="12.1603075"><ele>266.6666666666667</ele><time>2026-04-09T16:49:18.993Z</time></trkpt><trkpt lat="43.0870251" lon="12.1604502"><ele>266.0</ele><time>2026-04-09T16:49:19.994Z</time></trkpt><trkpt lat="43.0871642" lon="12.1605839"><ele>266.33333333333337</ele><time>2026-04-09T16:49:20.995Z</time></trkpt><trkpt lat="43.0872937" lon="12.1607091"><ele>266.6666666666667</ele><time>2026-04-09T16:49:21.994Z</time></trkpt><trkpt lat="43.0874175" lon="12.1608264"><ele>267.0</ele><time>2026-04-09T16:49:22.994Z</time></trkpt><trkpt lat="43.0875284" lon="12.1609574"><ele>267.0</ele><time>2026-04-09T16:49:23.995Z</time></trkpt><trkpt lat="43.0876502" lon="12.1610793"><ele>267.0</ele><time>2026-04-09T16:49:24.995Z</time></trkpt><trkpt lat="43.0877803" lon="12.1612102"><ele>267.0</ele><time>2026-04-09T16:49:25.995Z</time></trkpt><trkpt lat="43.0879122" lon="12.1613477"><ele>267.0</ele><time>2026-04-09T16:49:26.994Z</time></trkpt><trkpt lat="43.0880557" lon="12.1614832"><ele>267.0</ele><time>2026-04-09T16:49:27.995Z</time></trkpt><trkpt lat="43.0882242" lon="12.161609"><ele>267.0</ele><time>2026-04-09T16:49:28.993Z</time></trkpt><trkpt lat="43.088392" lon="12.161762"><ele>268.3333333333333</ele><time>2026-04-09T16:49:29.994Z</time></trkpt><trkpt lat="43.0885612" lon="12.1619296"><ele>269.66666666666663</ele><time>2026-04-09T16:49:30.995Z</time></trkpt><trkpt lat="43.0887261" lon="12.1620974"><ele>271.0</ele><time>2026-04-09T16:49:31.994Z</time></trkpt><trkpt lat="43.0888985" lon="12.1622708"><ele>270.0</ele><time>2026-04-09T16:49:32.994Z</time></trkpt><trkpt lat="43.0890603" lon="12.1624451"><ele>269.0</ele><time>2026-04-09T16:49:33.995Z</time></trkpt><trkpt lat="43.0892221" lon="12.1626158"><ele>268.0</ele><time>2026-04-09T16:49:34.994Z</time></trkpt><trkpt lat="43.0893805" lon="12.1627664"><ele>268.0</ele><time>2026-04-09T16:49:35.994Z</time></trkpt><trkpt lat="43.0895387" lon="12.1629135"><ele>268.0</ele><time>2026-04-09T16:49:36.994Z</time></trkpt><trkpt lat="43.0896987" lon="12.1630632"><ele>268.0</ele><time>2026-04-09T16:49:37.994Z</time></trkpt><trkpt lat="43.0898378" lon="12.1632003"><ele>268.3333333333333</ele><time>2026-04-09T16:49:38.995Z</time></trkpt><trkpt lat="43.08997" lon="12.1633422"><ele>268.6666666666667</ele><time>2026-04-09T16:49:39.994Z</time></trkpt><trkpt lat="43.0900888" lon="12.1634942"><ele>269.0</ele><time>2026-04-09T16:49:40.994Z</time></trkpt><trkpt lat="43.0901943" lon="12.1636797"><ele>269.0</ele><time>2026-04-09T16:49:41.994Z</time></trkpt><trkpt lat="43.090286" lon="12.163887"><ele>269.0</ele><time>2026-04-09T16:49:42.993Z</time></trkpt><trkpt lat="43.0903515" lon="12.164115"><ele>269.0</ele><time>2026-04-09T16:49:43.994Z</time></trkpt><trkpt lat="43.090416" lon="12.1643487"><ele>274.0</ele><time>2026-04-09T16:49:44.995Z</time></trkpt><trkpt lat="43.0904899" lon="12.1645819"><ele>279.0</ele><time>2026-04-09T16:49:45.994Z</time></trkpt><trkpt lat="43.0905686" lon="12.1648022"><ele>284.0</ele><time>2026-04-09T16:49:46.995Z</time></trkpt><trkpt lat="43.0906473" lon="12.1650336"><ele>285.75</ele><time>2026-04-09T16:49:47.995Z</time></trkpt><trkpt lat="43.0907106" lon="12.1652287"><ele>287.5</ele><time>2026-04-09T16:49:48.994Z</time></trkpt><trkpt lat="43.0907524" lon="12.1653968"><ele>289.25</ele><time>2026-04-09T16:49:49.994Z</time></trkpt><trkpt lat="43.0907906" lon="12.1655889"><ele>291.0</ele><time>2026-04-09T16:49:50.995Z</time></trkpt><trkpt lat="43.0908051" lon="12.1657814"><ele>291.6666666666667</ele><time>2026-04-09T16:49:51.995Z</time></trkpt><trkpt lat="43.0908025" lon="12.1659811"><ele>292.33333333333337</ele><time>2026-04-09T16:49:52.994Z</time></trkpt><trkpt lat="43.0907839" lon="12.166187"><ele>293.0</ele><time>2026-04-09T16:49:53.994Z</time></trkpt><trkpt lat="43.0907403" lon="12.1663899"><ele>289.33333333333337</ele><time>2026-04-09T16:49:54.994Z</time></trkpt><trkpt lat="43.0907078" lon="12.1666009"><ele>285.6666666666667</ele><time>2026-04-09T16:49:55.994Z</time></trkpt><trkpt lat="43.0906751" lon="12.1668134"><ele>282.0</ele><time>2026-04-09T16:49:56.994Z</time></trkpt><trkpt lat="43.0906465" lon="12.1670236"><ele>282.0</ele><time>2026-04-09T16:49:57.995Z</time></trkpt><trkpt lat="43.0906038" lon="12.1672338"><ele>282.0</ele><time>2026-04-09T16:49:58.994Z</time></trkpt><trkpt lat="43.0905767" lon="12.1674462"><ele>282.0</ele><time>2026-04-09T16:49:59.994Z</time></trkpt><trkpt lat="43.0905462" lon="12.1676343"><ele>281.0</ele><time>2026-04-09T16:50:00.994Z</time></trkpt><trkpt lat="43.0905179" lon="12.1678124"><ele>280.0</ele><time>2026-04-09T16:50:01.994Z</time></trkpt><trkpt lat="43.0904913" lon="12.1679974"><ele>279.0</ele><time>2026-04-09T16:50:02.995Z</time></trkpt><trkpt lat="43.0904638" lon="12.1681746"><ele>278.0</ele><time>2026-04-09T16:50:03.994Z</time></trkpt><trkpt lat="43.0904323" lon="12.1683536"><ele>278.0</ele><time>2026-04-09T16:50:04.994Z</time></trkpt><trkpt lat="43.0903867" lon="12.1685249"><ele>278.0</ele><time>2026-04-09T16:50:05.995Z</time></trkpt><trkpt lat="43.0903199" lon="12.1686823"><ele>278.0</ele><time>2026-04-09T16:50:06.994Z</time></trkpt><trkpt lat="43.0902532" lon="12.1688463"><ele>278.0</ele><time>2026-04-09T16:50:07.994Z</time></trkpt><trkpt lat="43.0901756" lon="12.1690165"><ele>275.0</ele><time>2026-04-09T16:50:08.994Z</time></trkpt><trkpt lat="43.0900925" lon="12.1691782"><ele>272.0</ele><time>2026-04-09T16:50:09.994Z</time></trkpt><trkpt lat="43.0900024" lon="12.1693505"><ele>269.0</ele><time>2026-04-09T16:50:10.994Z</time></trkpt><trkpt lat="43.089909" lon="12.1695192"><ele>269.6666666666667</ele><time>2026-04-09T16:50:11.995Z</time></trkpt><trkpt lat="43.089804" lon="12.1696918"><ele>270.3333333333333</ele><time>2026-04-09T16:50:12.994Z</time></trkpt><trkpt lat="43.089704" lon="12.1698762"><ele>271.0</ele><time>2026-04-09T16:50:13.994Z</time></trkpt><trkpt lat="43.0896056" lon="12.170069"><ele>271.0</ele><time>2026-04-09T16:50:14.994Z</time></trkpt><trkpt lat="43.0895104" lon="12.1702541"><ele>271.0</ele><time>2026-04-09T16:50:15.995Z</time></trkpt><trkpt lat="43.0894133" lon="12.1704466"><ele>271.0</ele><time>2026-04-09T16:50:16.994Z</time></trkpt><trkpt lat="43.0893051" lon="12.1706464"><ele>267.3333333333333</ele><time>2026-04-09T16:50:17.994Z</time></trkpt><trkpt lat="43.0892059" lon="12.1708411"><ele>263.6666666666667</ele><time>2026-04-09T16:50:18.995Z</time></trkpt><trkpt lat="43.0890988" lon="12.1710339"><ele>260.0</ele><time>2026-04-09T16:50:19.994Z</time></trkpt><trkpt lat="43.0889907" lon="12.171226"><ele>263.6666666666667</ele><time>2026-04-09T16:50:20.995Z</time></trkpt><trkpt lat="43.0888833" lon="12.1714344"><ele>267.3333333333333</ele><time>2026-04-09T16:50:21.995Z</time></trkpt><trkpt lat="43.0887691" lon="12.1716433"><ele>271.0</ele><time>2026-04-09T16:50:22.995Z</time></trkpt><trkpt lat="43.0886576" lon="12.1718499"><ele>271.0</ele><time>2026-04-09T16:50:23.995Z</time></trkpt><trkpt lat="43.0885517" lon="12.172056"><ele>271.0</ele><time>2026-04-09T16:50:24.995Z</time></trkpt><trkpt lat="43.0884584" lon="12.1722593"><ele>271.0</ele><time>2026-04-09T16:50:25.994Z</time></trkpt><trkpt lat="43.0883709" lon="12.1724881"><ele>270.3333333333333</ele><time>2026-04-09T16:50:26.994Z</time></trkpt><trkpt lat="43.0883102" lon="12.1727439"><ele>269.6666666666667</ele><time>2026-04-09T16:50:27.993Z</time></trkpt><trkpt lat="43.0882778" lon="12.1730747"><ele>269.0</ele><time>2026-04-09T16:50:28.995Z</time></trkpt><trkpt lat="43.0882415" lon="12.1734161"><ele>269.0</ele><time>2026-04-09T16:50:29.995Z</time></trkpt><trkpt lat="43.0882095" lon="12.1738515"><ele>269.0</ele><time>2026-04-09T16:50:30.995Z</time></trkpt><trkpt lat="43.0881635" lon="12.1743079"><ele>268.0</ele><time>2026-04-09T16:50:31.994Z</time></trkpt><trkpt lat="43.0881288" lon="12.1747559"><ele>267.0</ele><time>2026-04-09T16:50:32.995Z</time></trkpt><trkpt lat="43.0880993" lon="12.1751722"><ele>267.0</ele><time>2026-04-09T16:50:33.994Z</time></trkpt><trkpt lat="43.088066" lon="12.1755367"><ele>267.0</ele><time>2026-04-09T16:50:34.994Z</time></trkpt><trkpt lat="43.0880398" lon="12.1758849"><ele>267.0</ele><time>2026-04-09T16:50:35.995Z</time></trkpt><trkpt lat="43.0880133" lon="12.1762235"><ele>267.0</ele><time>2026-04-09T16:50:36.995Z</time></trkpt><trkpt lat="43.0879895" lon="12.1765665"><ele>267.0</ele><time>2026-04-09T16:50:37.994Z</time></trkpt><trkpt lat="43.0879621" lon="12.1769251"><ele>267.0</ele><time>2026-04-09T16:50:38.994Z</time></trkpt><trkpt lat="43.0879319" lon="12.177305"><ele>267.5</ele><time>2026-04-09T16:50:39.994Z</time></trkpt><trkpt lat="43.0879002" lon="12.1777273"><ele>268.0</ele><time>2026-04-09T16:50:40.994Z</time></trkpt><trkpt lat="43.0878617" lon="12.1781863"><ele>268.0</ele><time>2026-04-09T16:50:41.995Z</time></trkpt><trkpt lat="43.0878169" lon="12.1787091"><ele>268.0</ele><time>2026-04-09T16:50:42.995Z</time></trkpt><trkpt lat="43.0877707" lon="12.1792406"><ele>268.5</ele><time>2026-04-09T16:50:43.993Z</time></trkpt><trkpt lat="43.0877238" lon="12.179749"><ele>269.0</ele><time>2026-04-09T16:50:44.994Z</time></trkpt><trkpt lat="43.0876789" lon="12.1802188"><ele>266.5</ele><time>2026-04-09T16:50:45.994Z</time></trkpt><trkpt lat="43.0876438" lon="12.1806572"><ele>264.0</ele><time>2026-04-09T16:50:46.993Z</time></trkpt><trkpt lat="43.087611" lon="12.1810584"><ele>264.0</ele><time>2026-04-09T16:50:47.995Z</time></trkpt><trkpt lat="43.0875771" lon="12.1814373"><ele>264.0</ele><time>2026-04-09T16:50:48.994Z</time></trkpt><trkpt lat="43.0875505" lon="12.1817912"><ele>262.0</ele><time>2026-04-09T16:50:49.993Z</time></trkpt><trkpt lat="43.087524" lon="12.1821226"><ele>260.0</ele><time>2026-04-09T16:50:50.994Z</time></trkpt><trkpt lat="43.0875004" lon="12.1824395"><ele>260.0</ele><time>2026-04-09T16:50:51.994Z</time></trkpt><trkpt lat="43.0874703" lon="12.1827408"><ele>260.0</ele><time>2026-04-09T16:50:52.995Z</time></trkpt><trkpt lat="43.0874457" lon="12.1830281"><ele>260.0</ele><time>2026-04-09T16:50:53.995Z</time></trkpt><trkpt lat="43.0874235" lon="12.1832979"><ele>262.6666666666667</ele><time>2026-04-09T16:50:54.995Z</time></trkpt><trkpt lat="43.0874083" lon="12.1835594"><ele>265.3333333333333</ele><time>2026-04-09T16:50:55.995Z</time></trkpt><trkpt lat="43.0873854" lon="12.1838142"><ele>268.0</ele><time>2026-04-09T16:50:56.994Z</time></trkpt><trkpt lat="43.0873629" lon="12.1840612"><ele>268.0</ele><time>2026-04-09T16:50:57.995Z</time></trkpt><trkpt lat="43.087339" lon="12.1842996"><ele>268.0</ele><time>2026-04-09T16:50:58.994Z</time></trkpt><trkpt lat="43.0873192" lon="12.1845378"><ele>268.0</ele><time>2026-04-09T16:50:59.995Z</time></trkpt><trkpt lat="43.0872931" lon="12.1847465"><ele>267.75</ele><time>2026-04-09T16:51:00.995Z</time></trkpt><trkpt lat="43.0872772" lon="12.1849378"><ele>267.5</ele><time>2026-04-09T16:51:01.995Z</time></trkpt><trkpt lat="43.0872658" lon="12.1851179"><ele>267.25</ele><time>2026-04-09T16:51:02.995Z</time></trkpt><trkpt lat="43.0872621" lon="12.1852773"><ele>267.0</ele><time>2026-04-09T16:51:03.995Z</time></trkpt><trkpt lat="43.0872695" lon="12.1854348"><ele>267.0</ele><time>2026-04-09T16:51:04.995Z</time></trkpt><trkpt lat="43.0872721" lon="12.1855744"><ele>267.0</ele><time>2026-04-09T16:51:05.994Z</time></trkpt><trkpt lat="43.0872783" lon="12.1856953"><ele>267.0</ele><time>2026-04-09T16:51:06.994Z</time></trkpt><trkpt lat="43.0872864" lon="12.185787"><ele>267.0</ele><time>2026-04-09T16:51:07.994Z</time></trkpt><trkpt lat="43.087307" lon="12.1859073"><ele>267.0</ele><time>2026-04-09T16:51:09.995Z</time></trkpt><trkpt lat="43.0873034" lon="12.1860039"><ele>267.0</ele><time>2026-04-09T16:51:12.994Z</time></trkpt><trkpt lat="43.087236" lon="12.1860505"><ele>267.8571428571429</ele><time>2026-04-09T16:51:38.994Z</time></trkpt><trkpt lat="43.0871759" lon="12.186008"><ele>268.7142857142857</ele><time>2026-04-09T16:53:57.006Z</time></trkpt><trkpt lat="43.0871534" lon="12.185923"><ele>269.57142857142856</ele><time>2026-04-09T16:54:03.894Z</time></trkpt><trkpt lat="43.0871327" lon="12.1860144"><ele>270.42857142857144</ele><time>2026-04-09T16:54:27.601Z</time></trkpt><trkpt lat="43.0871431" lon="12.1861013"><ele>271.2857142857143</ele><time>2026-04-09T16:54:34.163Z</time></trkpt><trkpt lat="43.0871286" lon="12.1860151"><ele>272.14285714285717</ele><time>2026-04-09T16:54:41.981Z</time></trkpt><trkpt lat="43.0871258" lon="12.1859152"><ele>273.0</ele><time>2026-04-09T16:54:49.937Z</time></trkpt><trkpt lat="43.0871702" lon="12.1860369"><ele>273.0</ele><time>2026-04-09T17:01:05.993Z</time></trkpt><trkpt lat="43.0872242" lon="12.1860947"><ele>273.0</ele><time>2026-04-09T17:01:13.039Z</time></trkpt><trkpt lat="43.0872142" lon="12.1861871"><ele>273.0</ele><time>2026-04-09T17:01:15.995Z</time></trkpt><trkpt lat="43.0872168" lon="12.1861007"><ele>273.0</ele><time>2026-04-09T17:01:55.994Z</time></trkpt><trkpt lat="43.0872055" lon="12.1861972"><ele>273.0</ele><time>2026-04-09T17:02:01.994Z</time></trkpt><trkpt lat="43.0871803" lon="12.1862972"><ele>273.0</ele><time>2026-04-09T17:02:05.994Z</time></trkpt><trkpt lat="43.0872255" lon="12.1861913"><ele>273.0</ele><time>2026-04-09T17:36:34.998Z</time></trkpt><trkpt lat="43.0872633" lon="12.1861139"><ele>273.0</ele><time>2026-04-09T17:36:42.998Z</time></trkpt><trkpt lat="43.0873024" lon="12.1861858"><ele>273.0</ele><time>2026-04-09T17:39:59.998Z</time></trkpt><trkpt lat="43.0873825" lon="12.1863161"><ele>273.0</ele><time>2026-04-09T17:40:01.998Z</time></trkpt><trkpt lat="43.0874495" lon="12.186459"><ele>273.0</ele><time>2026-04-09T17:40:03.998Z</time></trkpt><trkpt lat="43.0874778" lon="12.186542"><ele>273.0</ele><time>2026-04-09T17:40:04.998Z</time></trkpt><trkpt lat="43.0875029" lon="12.186639"><ele>272.4</ele><time>2026-04-09T17:40:05.998Z</time></trkpt><trkpt lat="43.0875338" lon="12.1867399"><ele>271.8</ele><time>2026-04-09T17:40:06.998Z</time></trkpt><trkpt lat="43.0875583" lon="12.1868495"><ele>271.2</ele><time>2026-04-09T17:40:07.998Z</time></trkpt><trkpt lat="43.0875858" lon="12.1869628"><ele>270.6</ele><time>2026-04-09T17:40:08.998Z</time></trkpt><trkpt lat="43.0876127" lon="12.187078"><ele>270.0</ele><time>2026-04-09T17:40:09.998Z</time></trkpt><trkpt lat="43.0876551" lon="12.1873408"><ele>271.25</ele><time>2026-04-09T17:40:11.998Z</time></trkpt><trkpt lat="43.0876611" lon="12.1874935"><ele>272.5</ele><time>2026-04-09T17:40:12.998Z</time></trkpt><trkpt lat="43.0876611" lon="12.1876612"><ele>273.75</ele><time>2026-04-09T17:40:13.998Z</time></trkpt><trkpt lat="43.0876436" lon="12.1878362"><ele>275.0</ele><time>2026-04-09T17:40:14.998Z</time></trkpt><trkpt lat="43.0876106" lon="12.1880072"><ele>275.25</ele><time>2026-04-09T17:40:15.998Z</time></trkpt><trkpt lat="43.0875694" lon="12.1881829"><ele>275.5</ele><time>2026-04-09T17:40:16.998Z</time></trkpt><trkpt lat="43.0875315" lon="12.1883614"><ele>275.75</ele><time>2026-04-09T17:40:17.998Z</time></trkpt><trkpt lat="43.087483" lon="12.1885521"><ele>276.0</ele><time>2026-04-09T17:40:18.998Z</time></trkpt><trkpt lat="43.0874317" lon="12.1887545"><ele>282.3333333333333</ele><time>2026-04-09T17:40:19.998Z</time></trkpt><trkpt lat="43.0873757" lon="12.1889656"><ele>288.66666666666663</ele><time>2026-04-09T17:40:20.998Z</time></trkpt><trkpt lat="43.087324" lon="12.189181"><ele>295.0</ele><time>2026-04-09T17:40:21.998Z</time></trkpt><trkpt lat="43.0872277" lon="12.1895696"><ele>295.3333333333333</ele><time>2026-04-09T17:40:23.998Z</time></trkpt><trkpt lat="43.0871854" lon="12.1897364"><ele>295.6666666666667</ele><time>2026-04-09T17:40:24.998Z</time></trkpt><trkpt lat="43.0871181" lon="12.1900545"><ele>296.0</ele><time>2026-04-09T17:40:26.998Z</time></trkpt><trkpt lat="43.0870949" lon="12.1902108"><ele>295.0</ele><time>2026-04-09T17:40:27.998Z</time></trkpt><trkpt lat="43.0870775" lon="12.1903574"><ele>294.0</ele><time>2026-04-09T17:40:28.999Z</time></trkpt><trkpt lat="43.0870886" lon="12.1904815"><ele>293.0</ele><time>2026-04-09T17:40:29.998Z</time></trkpt><trkpt lat="43.0871237" lon="12.1906309"><ele>292.0</ele><time>2026-04-09T17:40:30.998Z</time></trkpt><trkpt lat="43.0871648" lon="12.1907839"><ele>291.0</ele><time>2026-04-09T17:40:31.999Z</time></trkpt><trkpt lat="43.0872269" lon="12.1909491"><ele>291.0</ele><time>2026-04-09T17:40:32.998Z</time></trkpt><trkpt lat="43.0872944" lon="12.1911122"><ele>291.0</ele><time>2026-04-09T17:40:33.999Z</time></trkpt><trkpt lat="43.0873669" lon="12.1912776"><ele>291.0</ele><time>2026-04-09T17:40:34.998Z</time></trkpt><trkpt lat="43.0874352" lon="12.1914272"><ele>291.0</ele><time>2026-04-09T17:40:35.998Z</time></trkpt><trkpt lat="43.0874966" lon="12.1915664"><ele>288.75</ele><time>2026-04-09T17:40:36.998Z</time></trkpt><trkpt lat="43.0875536" lon="12.1917166"><ele>286.5</ele><time>2026-04-09T17:40:37.997Z</time></trkpt><trkpt lat="43.0876089" lon="12.1918778"><ele>284.25</ele><time>2026-04-09T17:40:38.997Z</time></trkpt><trkpt lat="43.0876431" lon="12.1920617"><ele>282.0</ele><time>2026-04-09T17:40:39.999Z</time></trkpt><trkpt lat="43.0876586" lon="12.192259"><ele>283.6666666666667</ele><time>2026-04-09T17:40:40.998Z</time></trkpt><trkpt lat="43.0876581" lon="12.1924708"><ele>285.33333333333337</ele><time>2026-04-09T17:40:41.998Z</time></trkpt><trkpt lat="43.0876464" lon="12.1926913"><ele>287.0</ele><time>2026-04-09T17:40:42.998Z</time></trkpt><trkpt lat="43.0876317" lon="12.1929198"><ele>287.0</ele><time>2026-04-09T17:40:43.998Z</time></trkpt><trkpt lat="43.0876098" lon="12.1931556"><ele>287.0</ele><time>2026-04-09T17:40:44.997Z</time></trkpt><trkpt lat="43.08759" lon="12.1933852"><ele>287.0</ele><time>2026-04-09T17:40:45.998Z</time></trkpt><trkpt lat="43.0875733" lon="12.1936041"><ele>286.0</ele><time>2026-04-09T17:40:46.997Z</time></trkpt><trkpt lat="43.0875403" lon="12.1940325"><ele>285.0</ele><time>2026-04-09T17:40:48.999Z</time></trkpt><trkpt lat="43.0875264" lon="12.1942382"><ele>285.0</ele><time>2026-04-09T17:40:49.998Z</time></trkpt><trkpt lat="43.0875091" lon="12.1944391"><ele>285.0</ele><time>2026-04-09T17:40:50.998Z</time></trkpt><trkpt lat="43.0874938" lon="12.1946322"><ele>285.0</ele><time>2026-04-09T17:40:51.998Z</time></trkpt><trkpt lat="43.0874865" lon="12.1948226"><ele>285.0</ele><time>2026-04-09T17:40:52.999Z</time></trkpt><trkpt lat="43.0875023" lon="12.1950181"><ele>286.5</ele><time>2026-04-09T17:40:53.998Z</time></trkpt><trkpt lat="43.0875514" lon="12.1951994"><ele>288.0</ele><time>2026-04-09T17:40:54.999Z</time></trkpt><trkpt lat="43.0877489" lon="12.1955237"><ele>288.0</ele><time>2026-04-09T17:40:56.998Z</time></trkpt><trkpt lat="43.0878882" lon="12.1956271"><ele>288.0</ele><time>2026-04-09T17:40:57.998Z</time></trkpt><trkpt lat="43.0880467" lon="12.1957311"><ele>288.0</ele><time>2026-04-09T17:40:58.999Z</time></trkpt><trkpt lat="43.0882144" lon="12.1958279"><ele>289.3333333333333</ele><time>2026-04-09T17:40:59.998Z</time></trkpt><trkpt lat="43.0883802" lon="12.1959259"><ele>290.66666666666663</ele><time>2026-04-09T17:41:00.998Z</time></trkpt><trkpt lat="43.088549" lon="12.1960202"><ele>292.0</ele><time>2026-04-09T17:41:01.998Z</time></trkpt><trkpt lat="43.088859" lon="12.1962014"><ele>292.0</ele><time>2026-04-09T17:41:03.998Z</time></trkpt><trkpt lat="43.0890055" lon="12.1962859"><ele>292.0</ele><time>2026-04-09T17:41:04.998Z</time></trkpt><trkpt lat="43.0891354" lon="12.1963858"><ele>292.0</ele><time>2026-04-09T17:41:05.998Z</time></trkpt><trkpt lat="43.089249" lon="12.1964805"><ele>292.0</ele><time>2026-04-09T17:41:06.997Z</time></trkpt><trkpt lat="43.0893382" lon="12.1965781"><ele>293.0</ele><time>2026-04-09T17:41:07.998Z</time></trkpt><trkpt lat="43.0894033" lon="12.196711"><ele>294.0</ele><time>2026-04-09T17:41:08.998Z</time></trkpt><trkpt lat="43.0894653" lon="12.1968453"><ele>295.0</ele><time>2026-04-09T17:41:09.998Z</time></trkpt><trkpt lat="43.0895228" lon="12.1969881"><ele>296.0</ele><time>2026-04-09T17:41:10.998Z</time></trkpt><trkpt lat="43.0895696" lon="12.1971284"><ele>296.0</ele><time>2026-04-09T17:41:11.998Z</time></trkpt><trkpt lat="43.0896168" lon="12.1972638"><ele>296.0</ele><time>2026-04-09T17:41:12.998Z</time></trkpt><trkpt lat="43.0897615" lon="12.1974784"><ele>296.0</ele><time>2026-04-09T17:41:14.997Z</time></trkpt><trkpt lat="43.0898495" lon="12.1975513"><ele>296.0</ele><time>2026-04-09T17:41:15.998Z</time></trkpt><trkpt lat="43.089949" lon="12.1975995"><ele>294.40000000000003</ele><time>2026-04-09T17:41:16.999Z</time></trkpt><trkpt lat="43.0900481" lon="12.1976107"><ele>292.8</ele><time>2026-04-09T17:41:17.999Z</time></trkpt><trkpt lat="43.0901516" lon="12.1976045"><ele>291.20000000000005</ele><time>2026-04-09T17:41:18.999Z</time></trkpt><trkpt lat="43.0902579" lon="12.1975804"><ele>289.6</ele><time>2026-04-09T17:41:19.998Z</time></trkpt><trkpt lat="43.0903723" lon="12.1975495"><ele>288.0</ele><time>2026-04-09T17:41:20.999Z</time></trkpt><trkpt lat="43.0904942" lon="12.1975246"><ele>288.0</ele><time>2026-04-09T17:41:21.998Z</time></trkpt><trkpt lat="43.0906204" lon="12.1974937"><ele>288.0</ele><time>2026-04-09T17:41:22.999Z</time></trkpt><trkpt lat="43.0907519" lon="12.1974567"><ele>288.0</ele><time>2026-04-09T17:41:23.998Z</time></trkpt><trkpt lat="43.0908888" lon="12.1974257"><ele>288.0</ele><time>2026-04-09T17:41:24.998Z</time></trkpt><trkpt lat="43.0910216" lon="12.1973948"><ele>287.75</ele><time>2026-04-09T17:41:25.998Z</time></trkpt><trkpt lat="43.0911561" lon="12.1973665"><ele>287.5</ele><time>2026-04-09T17:41:26.998Z</time></trkpt><trkpt lat="43.0912937" lon="12.1973417"><ele>287.25</ele><time>2026-04-09T17:41:27.997Z</time></trkpt><trkpt lat="43.0914229" lon="12.1973504"><ele>287.0</ele><time>2026-04-09T17:41:28.998Z</time></trkpt><trkpt lat="43.0915592" lon="12.1973862"><ele>286.33333333333337</ele><time>2026-04-09T17:41:29.998Z</time></trkpt><trkpt lat="43.0916752" lon="12.1974603"><ele>285.6666666666667</ele><time>2026-04-09T17:41:30.998Z</time></trkpt><trkpt lat="43.0918786" lon="12.1977474"><ele>285.0</ele><time>2026-04-09T17:41:32.998Z</time></trkpt><trkpt lat="43.0919628" lon="12.1979226"><ele>285.0</ele><time>2026-04-09T17:41:33.998Z</time></trkpt><trkpt lat="43.0920434" lon="12.1981002"><ele>285.0</ele><time>2026-04-09T17:41:34.999Z</time></trkpt><trkpt lat="43.0922691" lon="12.1983875"><ele>284.5</ele><time>2026-04-09T17:41:36.998Z</time></trkpt><trkpt lat="43.0925799" lon="12.198515"><ele>284.0</ele><time>2026-04-09T17:41:38.998Z</time></trkpt><trkpt lat="43.0927477" lon="12.1985532"><ele>284.0</ele><time>2026-04-09T17:41:39.998Z</time></trkpt><trkpt lat="43.092902" lon="12.1985799"><ele>284.0</ele><time>2026-04-09T17:41:40.998Z</time></trkpt><trkpt lat="43.0930547" lon="12.1986196"><ele>284.0</ele><time>2026-04-09T17:41:41.998Z</time></trkpt><trkpt lat="43.0931963" lon="12.1986705"><ele>284.5</ele><time>2026-04-09T17:41:42.997Z</time></trkpt><trkpt lat="43.0934969" lon="12.1988469"><ele>285.0</ele><time>2026-04-09T17:41:44.998Z</time></trkpt><trkpt lat="43.0936494" lon="12.1989605"><ele>286.6666666666667</ele><time>2026-04-09T17:41:45.998Z</time></trkpt><trkpt lat="43.0938086" lon="12.1990721"><ele>288.33333333333337</ele><time>2026-04-09T17:41:46.999Z</time></trkpt><trkpt lat="43.0939713" lon="12.1991845"><ele>290.0</ele><time>2026-04-09T17:41:47.998Z</time></trkpt><trkpt lat="43.0941304" lon="12.1992936"><ele>290.0</ele><time>2026-04-09T17:41:48.999Z</time></trkpt><trkpt lat="43.094294" lon="12.1994021"><ele>290.0</ele><time>2026-04-09T17:41:49.998Z</time></trkpt><trkpt lat="43.0946463" lon="12.1995635"><ele>290.5</ele><time>2026-04-09T17:41:51.998Z</time></trkpt><trkpt lat="43.0949961" lon="12.1996669"><ele>291.0</ele><time>2026-04-09T17:41:53.999Z</time></trkpt><trkpt lat="43.0953326" lon="12.1997573"><ele>289.0</ele><time>2026-04-09T17:41:55.998Z</time></trkpt><trkpt lat="43.0956643" lon="12.199939"><ele>287.0</ele><time>2026-04-09T17:41:57.998Z</time></trkpt><trkpt lat="43.0958238" lon="12.200047"><ele>287.0</ele><time>2026-04-09T17:41:58.998Z</time></trkpt><trkpt lat="43.095977" lon="12.2001582"><ele>287.0</ele><time>2026-04-09T17:41:59.998Z</time></trkpt><trkpt lat="43.0961258" lon="12.2002724"><ele>287.0</ele><time>2026-04-09T17:42:00.998Z</time></trkpt><trkpt lat="43.096268" lon="12.2003881"><ele>287.0</ele><time>2026-04-09T17:42:01.999Z</time></trkpt><trkpt lat="43.0964159" lon="12.2004915"><ele>287.0</ele><time>2026-04-09T17:42:02.999Z</time></trkpt><trkpt lat="43.0965676" lon="12.2005566"><ele>287.0</ele><time>2026-04-09T17:42:03.998Z</time></trkpt><trkpt lat="43.0967404" lon="12.200563"><ele>285.6666666666667</ele><time>2026-04-09T17:42:04.998Z</time></trkpt><trkpt lat="43.096909" lon="12.2005012"><ele>284.3333333333333</ele><time>2026-04-09T17:42:05.998Z</time></trkpt><trkpt lat="43.0970833" lon="12.2003961"><ele>283.0</ele><time>2026-04-09T17:42:06.998Z</time></trkpt><trkpt lat="43.0972461" lon="12.2002576"><ele>283.0</ele><time>2026-04-09T17:42:07.998Z</time></trkpt><trkpt lat="43.0974026" lon="12.2001298"><ele>283.0</ele><time>2026-04-09T17:42:08.998Z</time></trkpt><trkpt lat="43.0975467" lon="12.1999864"><ele>283.0</ele><time>2026-04-09T17:42:09.997Z</time></trkpt><trkpt lat="43.0976968" lon="12.1998621"><ele>281.0</ele><time>2026-04-09T17:42:10.998Z</time></trkpt><trkpt lat="43.0978715" lon="12.1997903"><ele>279.0</ele><time>2026-04-09T17:42:11.998Z</time></trkpt><trkpt lat="43.0980598" lon="12.1997532"><ele>277.0</ele><time>2026-04-09T17:42:12.998Z</time></trkpt><trkpt lat="43.0982531" lon="12.1997615"><ele>276.3333333333333</ele><time>2026-04-09T17:42:13.998Z</time></trkpt><trkpt lat="43.0984617" lon="12.1998053"><ele>275.6666666666667</ele><time>2026-04-09T17:42:14.998Z</time></trkpt><trkpt lat="43.098667" lon="12.1998565"><ele>275.0</ele><time>2026-04-09T17:42:15.999Z</time></trkpt><trkpt lat="43.098871" lon="12.1999098"><ele>276.6666666666667</ele><time>2026-04-09T17:42:16.998Z</time></trkpt><trkpt lat="43.0990732" lon="12.1999235"><ele>278.3333333333333</ele><time>2026-04-09T17:42:17.998Z</time></trkpt><trkpt lat="43.0992721" lon="12.1999038"><ele>280.0</ele><time>2026-04-09T17:42:18.999Z</time></trkpt><trkpt lat="43.0994453" lon="12.1998556"><ele>279.66666666666663</ele><time>2026-04-09T17:42:19.998Z</time></trkpt><trkpt lat="43.0996101" lon="12.1997968"><ele>279.3333333333333</ele><time>2026-04-09T17:42:20.998Z</time></trkpt><trkpt lat="43.0997703" lon="12.1997322"><ele>279.0</ele><time>2026-04-09T17:42:21.998Z</time></trkpt><trkpt lat="43.0999176" lon="12.1996696"><ele>279.0</ele><time>2026-04-09T17:42:22.998Z</time></trkpt><trkpt lat="43.1000673" lon="12.1995993"><ele>279.0</ele><time>2026-04-09T17:42:23.998Z</time></trkpt><trkpt lat="43.1002198" lon="12.1995293"><ele>279.0</ele><time>2026-04-09T17:42:24.999Z</time></trkpt><trkpt lat="43.1003864" lon="12.199464"><ele>279.0</ele><time>2026-04-09T17:42:25.998Z</time></trkpt><trkpt lat="43.1005539" lon="12.1993977"><ele>279.0</ele><time>2026-04-09T17:42:26.998Z</time></trkpt><trkpt lat="43.1007205" lon="12.1993378"><ele>279.0</ele><time>2026-04-09T17:42:27.999Z</time></trkpt><trkpt lat="43.1008944" lon="12.1992909"><ele>279.3333333333333</ele><time>2026-04-09T17:42:28.998Z</time></trkpt><trkpt lat="43.1010863" lon="12.1992479"><ele>279.66666666666663</ele><time>2026-04-09T17:42:29.998Z</time></trkpt><trkpt lat="43.1013" lon="12.1991981"><ele>280.0</ele><time>2026-04-09T17:42:30.998Z</time></trkpt><trkpt lat="43.1015398" lon="12.1991552"><ele>279.5</ele><time>2026-04-09T17:42:31.999Z</time></trkpt><trkpt lat="43.1017935" lon="12.1991334"><ele>279.0</ele><time>2026-04-09T17:42:32.998Z</time></trkpt><trkpt lat="43.1020314" lon="12.1991164"><ele>279.0</ele><time>2026-04-09T17:42:33.998Z</time></trkpt><trkpt lat="43.1022514" lon="12.199089"><ele>279.0</ele><time>2026-04-09T17:42:34.998Z</time></trkpt><trkpt lat="43.1024728" lon="12.1990564"><ele>279.0</ele><time>2026-04-09T17:42:35.999Z</time></trkpt><trkpt lat="43.102681" lon="12.1990264"><ele>280.3333333333333</ele><time>2026-04-09T17:42:36.999Z</time></trkpt><trkpt lat="43.1028799" lon="12.199011"><ele>281.66666666666663</ele><time>2026-04-09T17:42:37.998Z</time></trkpt><trkpt lat="43.1030712" lon="12.1990238"><ele>283.0</ele><time>2026-04-09T17:42:38.998Z</time></trkpt><trkpt lat="43.1032585" lon="12.1990403"><ele>283.66666666666663</ele><time>2026-04-09T17:42:39.997Z</time></trkpt><trkpt lat="43.1034555" lon="12.1990693"><ele>284.3333333333333</ele><time>2026-04-09T17:42:40.999Z</time></trkpt><trkpt lat="43.1036507" lon="12.1991116"><ele>285.0</ele><time>2026-04-09T17:42:41.998Z</time></trkpt><trkpt lat="43.1038403" lon="12.1991488"><ele>285.0</ele><time>2026-04-09T17:42:42.999Z</time></trkpt><trkpt lat="43.1040232" lon="12.1991846"><ele>285.0</ele><time>2026-04-09T17:42:43.998Z</time></trkpt><trkpt lat="43.1042148" lon="12.1992183"><ele>285.0</ele><time>2026-04-09T17:42:44.999Z</time></trkpt><trkpt lat="43.1044065" lon="12.199257"><ele>284.6666666666667</ele><time>2026-04-09T17:42:45.998Z</time></trkpt><trkpt lat="43.104596" lon="12.1992936"><ele>284.33333333333337</ele><time>2026-04-09T17:42:46.999Z</time></trkpt><trkpt lat="43.1047828" lon="12.1993316"><ele>284.0</ele><time>2026-04-09T17:42:47.997Z</time></trkpt><trkpt lat="43.1049704" lon="12.199374"><ele>283.33333333333337</ele><time>2026-04-09T17:42:48.998Z</time></trkpt><trkpt lat="43.105166" lon="12.1994057"><ele>282.6666666666667</ele><time>2026-04-09T17:42:49.998Z</time></trkpt><trkpt lat="43.105357" lon="12.1994431"><ele>282.0</ele><time>2026-04-09T17:42:50.998Z</time></trkpt><trkpt lat="43.1055466" lon="12.199473"><ele>282.0</ele><time>2026-04-09T17:42:51.998Z</time></trkpt><trkpt lat="43.1057369" lon="12.1994994"><ele>282.0</ele><time>2026-04-09T17:42:52.999Z</time></trkpt><trkpt lat="43.1059254" lon="12.1995245"><ele>282.0</ele><time>2026-04-09T17:42:53.998Z</time></trkpt><trkpt lat="43.1061154" lon="12.1995435"><ele>282.3333333333333</ele><time>2026-04-09T17:42:54.999Z</time></trkpt><trkpt lat="43.1063084" lon="12.1995533"><ele>282.66666666666663</ele><time>2026-04-09T17:42:55.998Z</time></trkpt><trkpt lat="43.1064998" lon="12.1995574"><ele>283.0</ele><time>2026-04-09T17:42:56.998Z</time></trkpt><trkpt lat="43.1066925" lon="12.1995509"><ele>283.3333333333333</ele><time>2026-04-09T17:42:57.999Z</time></trkpt><trkpt lat="43.1068838" lon="12.1995365"><ele>283.6666666666667</ele><time>2026-04-09T17:42:58.999Z</time></trkpt><trkpt lat="43.1070694" lon="12.199509"><ele>284.0</ele><time>2026-04-09T17:42:59.997Z</time></trkpt><trkpt lat="43.1072573" lon="12.1994769"><ele>284.33333333333337</ele><time>2026-04-09T17:43:00.998Z</time></trkpt><trkpt lat="43.1074458" lon="12.199436"><ele>284.6666666666667</ele><time>2026-04-09T17:43:01.999Z</time></trkpt><trkpt lat="43.1076303" lon="12.1993948"><ele>285.0</ele><time>2026-04-09T17:43:02.998Z</time></trkpt><trkpt lat="43.107819" lon="12.1993612"><ele>285.0</ele><time>2026-04-09T17:43:03.998Z</time></trkpt><trkpt lat="43.1080099" lon="12.1993236"><ele>285.0</ele><time>2026-04-09T17:43:04.998Z</time></trkpt><trkpt lat="43.1081976" lon="12.1992848"><ele>285.0</ele><time>2026-04-09T17:43:05.998Z</time></trkpt><trkpt lat="43.1083861" lon="12.1992444"><ele>282.6666666666667</ele><time>2026-04-09T17:43:06.999Z</time></trkpt><trkpt lat="43.1085775" lon="12.1992079"><ele>280.33333333333337</ele><time>2026-04-09T17:43:07.999Z</time></trkpt><trkpt lat="43.1087739" lon="12.1991786"><ele>278.0</ele><time>2026-04-09T17:43:08.999Z</time></trkpt><trkpt lat="43.1089568" lon="12.1991205"><ele>279.33333333333337</ele><time>2026-04-09T17:43:09.999Z</time></trkpt><trkpt lat="43.1091304" lon="12.1990437"><ele>280.6666666666667</ele><time>2026-04-09T17:43:10.999Z</time></trkpt><trkpt lat="43.1093015" lon="12.1989426"><ele>282.0</ele><time>2026-04-09T17:43:11.999Z</time></trkpt><trkpt lat="43.1094695" lon="12.1988272"><ele>282.0</ele><time>2026-04-09T17:43:12.999Z</time></trkpt><trkpt lat="43.1096318" lon="12.1986974"><ele>282.0</ele><time>2026-04-09T17:43:13.999Z</time></trkpt><trkpt lat="43.109784" lon="12.1985478"><ele>282.0</ele><time>2026-04-09T17:43:14.998Z</time></trkpt><trkpt lat="43.1099269" lon="12.1983824"><ele>279.6666666666667</ele><time>2026-04-09T17:43:15.999Z</time></trkpt><trkpt lat="43.1100621" lon="12.1982065"><ele>277.33333333333337</ele><time>2026-04-09T17:43:16.998Z</time></trkpt><trkpt lat="43.1101795" lon="12.198013"><ele>275.0</ele><time>2026-04-09T17:43:17.999Z</time></trkpt><trkpt lat="43.1102849" lon="12.1978011"><ele>275.0</ele><time>2026-04-09T17:43:18.998Z</time></trkpt><trkpt lat="43.1103885" lon="12.1975846"><ele>275.0</ele><time>2026-04-09T17:43:19.999Z</time></trkpt><trkpt lat="43.1105144" lon="12.1973899"><ele>275.0</ele><time>2026-04-09T17:43:20.998Z</time></trkpt><trkpt lat="43.1106406" lon="12.1972041"><ele>273.5</ele><time>2026-04-09T17:43:21.999Z</time></trkpt><trkpt lat="43.1109449" lon="12.196959"><ele>272.0</ele><time>2026-04-09T17:43:23.998Z</time></trkpt><trkpt lat="43.111291" lon="12.1968914"><ele>272.0</ele><time>2026-04-09T17:43:25.998Z</time></trkpt><trkpt lat="43.11145" lon="12.1969144"><ele>272.0</ele><time>2026-04-09T17:43:26.998Z</time></trkpt><trkpt lat="43.1116" lon="12.1969611"><ele>272.0</ele><time>2026-04-09T17:43:27.999Z</time></trkpt><trkpt lat="43.1117456" lon="12.1970505"><ele>271.6666666666667</ele><time>2026-04-09T17:43:28.999Z</time></trkpt><trkpt lat="43.1118839" lon="12.1971581"><ele>271.3333333333333</ele><time>2026-04-09T17:43:29.999Z</time></trkpt><trkpt lat="43.1120234" lon="12.1973005"><ele>271.0</ele><time>2026-04-09T17:43:30.999Z</time></trkpt><trkpt lat="43.1122996" lon="12.1975822"><ele>269.3333333333333</ele><time>2026-04-09T17:43:32.998Z</time></trkpt><trkpt lat="43.1124399" lon="12.1977123"><ele>267.6666666666667</ele><time>2026-04-09T17:43:33.999Z</time></trkpt><trkpt lat="43.1125771" lon="12.1978563"><ele>266.0</ele><time>2026-04-09T17:43:34.998Z</time></trkpt><trkpt lat="43.1127177" lon="12.1979898"><ele>266.0</ele><time>2026-04-09T17:43:35.998Z</time></trkpt><trkpt lat="43.1128667" lon="12.1981302"><ele>266.0</ele><time>2026-04-09T17:43:36.998Z</time></trkpt><trkpt lat="43.1130099" lon="12.1982741"><ele>266.0</ele><time>2026-04-09T17:43:37.999Z</time></trkpt><trkpt lat="43.1133138" lon="12.1985672"><ele>264.33333333333337</ele><time>2026-04-09T17:43:39.999Z</time></trkpt><trkpt lat="43.1134621" lon="12.198719"><ele>262.6666666666667</ele><time>2026-04-09T17:43:40.999Z</time></trkpt><trkpt lat="43.1136163" lon="12.1988651"><ele>261.0</ele><time>2026-04-09T17:43:41.998Z</time></trkpt><trkpt lat="43.113768" lon="12.1990125"><ele>259.6666666666667</ele><time>2026-04-09T17:43:42.998Z</time></trkpt><trkpt lat="43.1139224" lon="12.1991646"><ele>258.33333333333337</ele><time>2026-04-09T17:43:43.998Z</time></trkpt><trkpt lat="43.1140757" lon="12.1993202"><ele>257.0</ele><time>2026-04-09T17:43:44.999Z</time></trkpt><trkpt lat="43.1142329" lon="12.1994649"><ele>256.6666666666667</ele><time>2026-04-09T17:43:45.999Z</time></trkpt><trkpt lat="43.1143818" lon="12.1995954"><ele>256.3333333333333</ele><time>2026-04-09T17:43:46.999Z</time></trkpt><trkpt lat="43.1145531" lon="12.1996959"><ele>256.0</ele><time>2026-04-09T17:43:47.999Z</time></trkpt><trkpt lat="43.114736" lon="12.1997652"><ele>256.0</ele><time>2026-04-09T17:43:48.998Z</time></trkpt><trkpt lat="43.114922" lon="12.1998268"><ele>256.0</ele><time>2026-04-09T17:43:49.999Z</time></trkpt><trkpt lat="43.1151062" lon="12.1998764"><ele>256.0</ele><time>2026-04-09T17:43:50.998Z</time></trkpt><trkpt lat="43.1152959" lon="12.1999161"><ele>253.5</ele><time>2026-04-09T17:43:51.998Z</time></trkpt><trkpt lat="43.1156955" lon="12.1999744"><ele>251.0</ele><time>2026-04-09T17:43:53.999Z</time></trkpt><trkpt lat="43.115898" lon="12.2000045"><ele>250.5</ele><time>2026-04-09T17:43:54.997Z</time></trkpt><trkpt lat="43.1161049" lon="12.2000334"><ele>250.0</ele><time>2026-04-09T17:43:55.998Z</time></trkpt><trkpt lat="43.1165241" lon="12.2001345"><ele>249.66666666666666</ele><time>2026-04-09T17:43:57.999Z</time></trkpt><trkpt lat="43.1167372" lon="12.2001937"><ele>249.33333333333331</ele><time>2026-04-09T17:43:58.998Z</time></trkpt><trkpt lat="43.1169471" lon="12.2002541"><ele>249.0</ele><time>2026-04-09T17:43:59.998Z</time></trkpt><trkpt lat="43.1171607" lon="12.2003144"><ele>249.0</ele><time>2026-04-09T17:44:00.999Z</time></trkpt><trkpt lat="43.1173686" lon="12.2003878"><ele>249.0</ele><time>2026-04-09T17:44:01.998Z</time></trkpt><trkpt lat="43.1175766" lon="12.2004537"><ele>249.0</ele><time>2026-04-09T17:44:02.999Z</time></trkpt><trkpt lat="43.1177792" lon="12.2005234"><ele>247.0</ele><time>2026-04-09T17:44:03.997Z</time></trkpt><trkpt lat="43.1181921" lon="12.2006807"><ele>245.0</ele><time>2026-04-09T17:44:05.999Z</time></trkpt><trkpt lat="43.118605" lon="12.2008515"><ele>245.0</ele><time>2026-04-09T17:44:07.999Z</time></trkpt><trkpt lat="43.1188107" lon="12.2009417"><ele>245.0</ele><time>2026-04-09T17:44:08.999Z</time></trkpt><trkpt lat="43.1190133" lon="12.2010303"><ele>245.0</ele><time>2026-04-09T17:44:09.998Z</time></trkpt><trkpt lat="43.1192194" lon="12.2011146"><ele>245.0</ele><time>2026-04-09T17:44:10.998Z</time></trkpt><trkpt lat="43.1194231" lon="12.2011946"><ele>245.0</ele><time>2026-04-09T17:44:11.999Z</time></trkpt><trkpt lat="43.1196269" lon="12.2012643"><ele>245.0</ele><time>2026-04-09T17:44:12.999Z</time></trkpt><trkpt lat="43.1198207" lon="12.2013159"><ele>245.33333333333334</ele><time>2026-04-09T17:44:13.999Z</time></trkpt><trkpt lat="43.1200179" lon="12.2013552"><ele>245.66666666666669</ele><time>2026-04-09T17:44:14.999Z</time></trkpt><trkpt lat="43.1202112" lon="12.2013961"><ele>246.0</ele><time>2026-04-09T17:44:15.999Z</time></trkpt><trkpt lat="43.1204124" lon="12.2014326"><ele>246.0</ele><time>2026-04-09T17:44:16.998Z</time></trkpt><trkpt lat="43.1206114" lon="12.2014661"><ele>246.0</ele><time>2026-04-09T17:44:17.999Z</time></trkpt><trkpt lat="43.1209968" lon="12.2015197"><ele>245.66666666666669</ele><time>2026-04-09T17:44:19.998Z</time></trkpt><trkpt lat="43.1211846" lon="12.2015464"><ele>245.33333333333334</ele><time>2026-04-09T17:44:20.997Z</time></trkpt><trkpt lat="43.1213729" lon="12.2015915"><ele>245.0</ele><time>2026-04-09T17:44:21.999Z</time></trkpt><trkpt lat="43.1215529" lon="12.2016312"><ele>245.0</ele><time>2026-04-09T17:44:22.999Z</time></trkpt><trkpt lat="43.121744" lon="12.2016842"><ele>245.0</ele><time>2026-04-09T17:44:23.999Z</time></trkpt><trkpt lat="43.1219234" lon="12.2017298"><ele>245.0</ele><time>2026-04-09T17:44:24.998Z</time></trkpt><trkpt lat="43.1222793" lon="12.2018336"><ele>245.0</ele><time>2026-04-09T17:44:26.998Z</time></trkpt><trkpt lat="43.1226482" lon="12.2019468"><ele>245.0</ele><time>2026-04-09T17:44:28.998Z</time></trkpt><trkpt lat="43.1228266" lon="12.202"><ele>245.0</ele><time>2026-04-09T17:44:29.998Z</time></trkpt><trkpt lat="43.1229979" lon="12.2020537"><ele>245.0</ele><time>2026-04-09T17:44:30.999Z</time></trkpt><trkpt lat="43.1231709" lon="12.2021067"><ele>245.0</ele><time>2026-04-09T17:44:31.999Z</time></trkpt><trkpt lat="43.1233349" lon="12.2021579"><ele>244.0</ele><time>2026-04-09T17:44:32.999Z</time></trkpt><trkpt lat="43.1235008" lon="12.2022025"><ele>243.0</ele><time>2026-04-09T17:44:33.998Z</time></trkpt><trkpt lat="43.1236554" lon="12.2022471"><ele>242.0</ele><time>2026-04-09T17:44:34.999Z</time></trkpt><trkpt lat="43.1238142" lon="12.202292"><ele>242.0</ele><time>2026-04-09T17:44:35.999Z</time></trkpt><trkpt lat="43.123975" lon="12.2023253"><ele>242.0</ele><time>2026-04-09T17:44:36.998Z</time></trkpt><trkpt lat="43.1241295" lon="12.2023408"><ele>242.0</ele><time>2026-04-09T17:44:37.998Z</time></trkpt><trkpt lat="43.1242884" lon="12.2023617"><ele>241.33333333333334</ele><time>2026-04-09T17:44:38.999Z</time></trkpt><trkpt lat="43.1244388" lon="12.2023755"><ele>240.66666666666669</ele><time>2026-04-09T17:44:39.999Z</time></trkpt><trkpt lat="43.1246032" lon="12.2023881"><ele>240.0</ele><time>2026-04-09T17:44:40.999Z</time></trkpt><trkpt lat="43.124775" lon="12.202399"><ele>239.66666666666669</ele><time>2026-04-09T17:44:41.998Z</time></trkpt><trkpt lat="43.1249476" lon="12.2024259"><ele>239.33333333333334</ele><time>2026-04-09T17:44:42.998Z</time></trkpt><trkpt lat="43.125132" lon="12.2024579"><ele>239.0</ele><time>2026-04-09T17:44:43.999Z</time></trkpt><trkpt lat="43.125323" lon="12.2024847"><ele>239.0</ele><time>2026-04-09T17:44:44.998Z</time></trkpt><trkpt lat="43.1255123" lon="12.2025236"><ele>239.0</ele><time>2026-04-09T17:44:45.999Z</time></trkpt><trkpt lat="43.1257011" lon="12.2025624"><ele>239.0</ele><time>2026-04-09T17:44:46.999Z</time></trkpt><trkpt lat="43.1258951" lon="12.2025836"><ele>238.66666666666669</ele><time>2026-04-09T17:44:47.998Z</time></trkpt><trkpt lat="43.1260947" lon="12.2025966"><ele>238.33333333333331</ele><time>2026-04-09T17:44:48.999Z</time></trkpt><trkpt lat="43.1263114" lon="12.2026017"><ele>238.0</ele><time>2026-04-09T17:44:49.999Z</time></trkpt><trkpt lat="43.1265302" lon="12.2026056"><ele>238.33333333333331</ele><time>2026-04-09T17:44:50.999Z</time></trkpt><trkpt lat="43.1267396" lon="12.2026398"><ele>238.66666666666669</ele><time>2026-04-09T17:44:51.998Z</time></trkpt><trkpt lat="43.1269412" lon="12.2027047"><ele>239.0</ele><time>2026-04-09T17:44:52.999Z</time></trkpt><trkpt lat="43.1271258" lon="12.2027865"><ele>239.0</ele><time>2026-04-09T17:44:53.998Z</time></trkpt><trkpt lat="43.1273041" lon="12.2028792"><ele>239.0</ele><time>2026-04-09T17:44:54.999Z</time></trkpt><trkpt lat="43.1274724" lon="12.2029698"><ele>239.0</ele><time>2026-04-09T17:44:55.999Z</time></trkpt><trkpt lat="43.1276324" lon="12.2030614"><ele>239.0</ele><time>2026-04-09T17:44:56.999Z</time></trkpt><trkpt lat="43.127779" lon="12.2031366"><ele>239.0</ele><time>2026-04-09T17:44:57.999Z</time></trkpt><trkpt lat="43.1279162" lon="12.2032052"><ele>239.0</ele><time>2026-04-09T17:44:58.999Z</time></trkpt><trkpt lat="43.1280549" lon="12.2032627"><ele>239.0</ele><time>2026-04-09T17:44:59.998Z</time></trkpt><trkpt lat="43.128328" lon="12.2033707"><ele>239.0</ele><time>2026-04-09T17:45:01.999Z</time></trkpt><trkpt lat="43.1284687" lon="12.2034264"><ele>239.0</ele><time>2026-04-09T17:45:02.998Z</time></trkpt><trkpt lat="43.1286148" lon="12.2034783"><ele>239.0</ele><time>2026-04-09T17:45:03.998Z</time></trkpt><trkpt lat="43.1287729" lon="12.2035363"><ele>239.0</ele><time>2026-04-09T17:45:04.998Z</time></trkpt><trkpt lat="43.1289463" lon="12.2036003"><ele>239.0</ele><time>2026-04-09T17:45:05.998Z</time></trkpt><trkpt lat="43.1291194" lon="12.2036786"><ele>239.0</ele><time>2026-04-09T17:45:06.999Z</time></trkpt><trkpt lat="43.1293114" lon="12.2037503"><ele>239.33333333333334</ele><time>2026-04-09T17:45:07.998Z</time></trkpt><trkpt lat="43.12951" lon="12.2038217"><ele>239.66666666666669</ele><time>2026-04-09T17:45:08.998Z</time></trkpt><trkpt lat="43.1297118" lon="12.203882"><ele>240.0</ele><time>2026-04-09T17:45:09.999Z</time></trkpt><trkpt lat="43.1299179" lon="12.2039353"><ele>240.33333333333331</ele><time>2026-04-09T17:45:10.999Z</time></trkpt><trkpt lat="43.1301215" lon="12.2040181"><ele>240.66666666666666</ele><time>2026-04-09T17:45:11.999Z</time></trkpt><trkpt lat="43.1303293" lon="12.2040997"><ele>241.0</ele><time>2026-04-09T17:45:12.998Z</time></trkpt><trkpt lat="43.1305333" lon="12.2041785"><ele>241.0</ele><time>2026-04-09T17:45:13.999Z</time></trkpt><trkpt lat="43.1307399" lon="12.2042677"><ele>241.0</ele><time>2026-04-09T17:45:14.998Z</time></trkpt><trkpt lat="43.1309489" lon="12.2043424"><ele>241.0</ele><time>2026-04-09T17:45:15.999Z</time></trkpt><trkpt lat="43.1311599" lon="12.2044208"><ele>241.0</ele><time>2026-04-09T17:45:16.999Z</time></trkpt><trkpt lat="43.131355" lon="12.2045108"><ele>241.0</ele><time>2026-04-09T17:45:17.999Z</time></trkpt><trkpt lat="43.1317012" lon="12.2047208"><ele>241.0</ele><time>2026-04-09T17:45:19.999Z</time></trkpt><trkpt lat="43.1318419" lon="12.204834"><ele>241.0</ele><time>2026-04-09T17:45:20.999Z</time></trkpt><trkpt lat="43.1319697" lon="12.2049444"><ele>241.0</ele><time>2026-04-09T17:45:21.999Z</time></trkpt><trkpt lat="43.1320923" lon="12.205064"><ele>241.0</ele><time>2026-04-09T17:45:22.999Z</time></trkpt><trkpt lat="43.1322057" lon="12.2052014"><ele>241.0</ele><time>2026-04-09T17:45:23.999Z</time></trkpt><trkpt lat="43.1323135" lon="12.2053355"><ele>241.0</ele><time>2026-04-09T17:45:24.999Z</time></trkpt><trkpt lat="43.132423" lon="12.2054768"><ele>241.0</ele><time>2026-04-09T17:45:25.999Z</time></trkpt><trkpt lat="43.1325193" lon="12.2056328"><ele>240.0</ele><time>2026-04-09T17:45:26.998Z</time></trkpt><trkpt lat="43.1325851" lon="12.2058045"><ele>239.0</ele><time>2026-04-09T17:45:27.998Z</time></trkpt><trkpt lat="43.1326443" lon="12.2059662"><ele>238.0</ele><time>2026-04-09T17:45:28.999Z</time></trkpt><trkpt lat="43.1327113" lon="12.2061029"><ele>237.0</ele><time>2026-04-09T17:45:29.999Z</time></trkpt><trkpt lat="43.1328034" lon="12.2062107"><ele>237.0</ele><time>2026-04-09T17:45:30.999Z</time></trkpt><trkpt lat="43.1328883" lon="12.2063244"><ele>237.0</ele><time>2026-04-09T17:45:31.998Z</time></trkpt><trkpt lat="43.1329476" lon="12.2064599"><ele>237.0</ele><time>2026-04-09T17:45:32.998Z</time></trkpt><trkpt lat="43.1330028" lon="12.2066045"><ele>237.0</ele><time>2026-04-09T17:45:33.999Z</time></trkpt><trkpt lat="43.1330593" lon="12.2067567"><ele>236.75</ele><time>2026-04-09T17:45:34.999Z</time></trkpt><trkpt lat="43.1331213" lon="12.2069129"><ele>236.5</ele><time>2026-04-09T17:45:35.999Z</time></trkpt><trkpt lat="43.1331883" lon="12.2070686"><ele>236.25</ele><time>2026-04-09T17:45:36.999Z</time></trkpt><trkpt lat="43.1332693" lon="12.2072307"><ele>236.0</ele><time>2026-04-09T17:45:37.999Z</time></trkpt><trkpt lat="43.133346" lon="12.2073928"><ele>236.66666666666669</ele><time>2026-04-09T17:45:38.998Z</time></trkpt><trkpt lat="43.1334346" lon="12.2075584"><ele>237.33333333333331</ele><time>2026-04-09T17:45:39.998Z</time></trkpt><trkpt lat="43.1335222" lon="12.2077301"><ele>238.0</ele><time>2026-04-09T17:45:40.999Z</time></trkpt><trkpt lat="43.1336145" lon="12.2079111"><ele>238.0</ele><time>2026-04-09T17:45:41.999Z</time></trkpt><trkpt lat="43.1337101" lon="12.2080911"><ele>238.0</ele><time>2026-04-09T17:45:42.998Z</time></trkpt><trkpt lat="43.1338102" lon="12.2082734"><ele>238.0</ele><time>2026-04-09T17:45:43.998Z</time></trkpt><trkpt lat="43.1339096" lon="12.2084573"><ele>238.0</ele><time>2026-04-09T17:45:44.998Z</time></trkpt><trkpt lat="43.1340217" lon="12.2086313"><ele>238.0</ele><time>2026-04-09T17:45:45.999Z</time></trkpt><trkpt lat="43.1341418" lon="12.2087939"><ele>238.0</ele><time>2026-04-09T17:45:46.999Z</time></trkpt><trkpt lat="43.1342733" lon="12.2089372"><ele>237.33333333333331</ele><time>2026-04-09T17:45:47.999Z</time></trkpt><trkpt lat="43.1344087" lon="12.2090568"><ele>236.66666666666669</ele><time>2026-04-09T17:45:48.999Z</time></trkpt><trkpt lat="43.1345487" lon="12.2091562"><ele>236.0</ele><time>2026-04-09T17:45:49.998Z</time></trkpt><trkpt lat="43.1346872" lon="12.2092429"><ele>236.0</ele><time>2026-04-09T17:45:50.999Z</time></trkpt><trkpt lat="43.1348189" lon="12.2093201"><ele>236.0</ele><time>2026-04-09T17:45:51.999Z</time></trkpt><trkpt lat="43.1349527" lon="12.209399"><ele>236.0</ele><time>2026-04-09T17:45:52.999Z</time></trkpt><trkpt lat="43.1350827" lon="12.2094748"><ele>236.0</ele><time>2026-04-09T17:45:53.999Z</time></trkpt><trkpt lat="43.1351906" lon="12.2095549"><ele>237.33333333333334</ele><time>2026-04-09T17:45:55Z</time></trkpt><trkpt lat="43.1353122" lon="12.2096376"><ele>238.66666666666669</ele><time>2026-04-09T17:45:55.998Z</time></trkpt><trkpt lat="43.1354273" lon="12.2097139"><ele>240.0</ele><time>2026-04-09T17:45:56.999Z</time></trkpt><trkpt lat="43.1356594" lon="12.2098484"><ele>239.6</ele><time>2026-04-09T17:45:58.999Z</time></trkpt><trkpt lat="43.1357672" lon="12.2099141"><ele>239.2</ele><time>2026-04-09T17:45:59.999Z</time></trkpt><trkpt lat="43.135872" lon="12.2099722"><ele>238.8</ele><time>2026-04-09T17:46:00.999Z</time></trkpt><trkpt lat="43.135971" lon="12.2100299"><ele>238.4</ele><time>2026-04-09T17:46:01.998Z</time></trkpt><trkpt lat="43.1360559" lon="12.2100823"><ele>238.0</ele><time>2026-04-09T17:46:02.998Z</time></trkpt><trkpt lat="43.1362092" lon="12.210172"><ele>238.0</ele><time>2026-04-09T17:46:04.999Z</time></trkpt><trkpt lat="43.1363979" lon="12.2102949"><ele>238.0</ele><time>2026-04-09T17:46:06.999Z</time></trkpt><trkpt lat="43.1365095" lon="12.2103683"><ele>238.0</ele><time>2026-04-09T17:46:07.998Z</time></trkpt><trkpt lat="43.1367801" lon="12.210532"><ele>238.0</ele><time>2026-04-09T17:46:09.999Z</time></trkpt><trkpt lat="43.1369242" lon="12.2106146"><ele>238.0</ele><time>2026-04-09T17:46:10.998Z</time></trkpt><trkpt lat="43.1370779" lon="12.2106859"><ele>238.0</ele><time>2026-04-09T17:46:11.999Z</time></trkpt><trkpt lat="43.1373945" lon="12.2108006"><ele>237.66666666666666</ele><time>2026-04-09T17:46:13.998Z</time></trkpt><trkpt lat="43.1375578" lon="12.2108538"><ele>237.33333333333331</ele><time>2026-04-09T17:46:14.999Z</time></trkpt><trkpt lat="43.1377252" lon="12.2109006"><ele>237.0</ele><time>2026-04-09T17:46:15.999Z</time></trkpt><trkpt lat="43.1379021" lon="12.2109455"><ele>237.0</ele><time>2026-04-09T17:46:16.999Z</time></trkpt><trkpt lat="43.1380749" lon="12.2109986"><ele>237.0</ele><time>2026-04-09T17:46:17.999Z</time></trkpt><trkpt lat="43.138249" lon="12.2110382"><ele>237.0</ele><time>2026-04-09T17:46:18.998Z</time></trkpt><trkpt lat="43.138419" lon="12.211084"><ele>238.0</ele><time>2026-04-09T17:46:19.998Z</time></trkpt><trkpt lat="43.1387522" lon="12.2111519"><ele>239.0</ele><time>2026-04-09T17:46:21.999Z</time></trkpt><trkpt lat="43.1389107" lon="12.2111716"><ele>239.0</ele><time>2026-04-09T17:46:22.999Z</time></trkpt><trkpt lat="43.1392196" lon="12.2111756"><ele>239.0</ele><time>2026-04-09T17:46:24.999Z</time></trkpt><trkpt lat="43.1393503" lon="12.211157"><ele>239.0</ele><time>2026-04-09T17:46:25.998Z</time></trkpt><trkpt lat="43.1394867" lon="12.2111324"><ele>239.0</ele><time>2026-04-09T17:46:26.999Z</time></trkpt><trkpt lat="43.1396215" lon="12.2110996"><ele>239.0</ele><time>2026-04-09T17:46:27.999Z</time></trkpt><trkpt lat="43.1397511" lon="12.2110538"><ele>239.0</ele><time>2026-04-09T17:46:28.998Z</time></trkpt><trkpt lat="43.1400136" lon="12.2109936"><ele>238.5</ele><time>2026-04-09T17:46:30.999Z</time></trkpt><trkpt lat="43.1401414" lon="12.2109698"><ele>238.0</ele><time>2026-04-09T17:46:31.999Z</time></trkpt><trkpt lat="43.140273" lon="12.2109519"><ele>237.5</ele><time>2026-04-09T17:46:32.999Z</time></trkpt><trkpt lat="43.1404141" lon="12.2109464"><ele>237.0</ele><time>2026-04-09T17:46:33.998Z</time></trkpt><trkpt lat="43.1405569" lon="12.2109518"><ele>237.0</ele><time>2026-04-09T17:46:34.999Z</time></trkpt><trkpt lat="43.1406955" lon="12.2109579"><ele>237.0</ele><time>2026-04-09T17:46:35.999Z</time></trkpt><trkpt lat="43.1408369" lon="12.2109845"><ele>237.0</ele><time>2026-04-09T17:46:36.999Z</time></trkpt><trkpt lat="43.1409604" lon="12.2110265"><ele>237.0</ele><time>2026-04-09T17:46:37.999Z</time></trkpt><trkpt lat="43.1412752" lon="12.2111138"><ele>237.66666666666669</ele><time>2026-04-09T17:46:39.998Z</time></trkpt><trkpt lat="43.141427" lon="12.2111716"><ele>238.33333333333334</ele><time>2026-04-09T17:46:40.999Z</time></trkpt><trkpt lat="43.1415759" lon="12.2112244"><ele>239.0</ele><time>2026-04-09T17:46:41.998Z</time></trkpt><trkpt lat="43.1418686" lon="12.2113138"><ele>240.0</ele><time>2026-04-09T17:46:43.998Z</time></trkpt><trkpt lat="43.1420089" lon="12.2113721"><ele>241.0</ele><time>2026-04-09T17:46:44.999Z</time></trkpt><trkpt lat="43.1421396" lon="12.2114241"><ele>242.0</ele><time>2026-04-09T17:46:45.998Z</time></trkpt><trkpt lat="43.1422682" lon="12.2114691"><ele>243.0</ele><time>2026-04-09T17:46:46.998Z</time></trkpt><trkpt lat="43.1423955" lon="12.2115056"><ele>243.0</ele><time>2026-04-09T17:46:47.999Z</time></trkpt><trkpt lat="43.1425175" lon="12.211555"><ele>243.0</ele><time>2026-04-09T17:46:48.999Z</time></trkpt><trkpt lat="43.1426366" lon="12.211595"><ele>243.0</ele><time>2026-04-09T17:46:49.999Z</time></trkpt><trkpt lat="43.1427563" lon="12.2116431"><ele>243.0</ele><time>2026-04-09T17:46:50.998Z</time></trkpt><trkpt lat="43.1428781" lon="12.2116983"><ele>243.0</ele><time>2026-04-09T17:46:51.999Z</time></trkpt><trkpt lat="43.1429926" lon="12.2117649"><ele>243.0</ele><time>2026-04-09T17:46:52.999Z</time></trkpt><trkpt lat="43.1431009" lon="12.2118415"><ele>243.0</ele><time>2026-04-09T17:46:53.999Z</time></trkpt><trkpt lat="43.1432061" lon="12.2119333"><ele>243.0</ele><time>2026-04-09T17:46:54.999Z</time></trkpt><trkpt lat="43.143303" lon="12.2120361"><ele>243.0</ele><time>2026-04-09T17:46:55.999Z</time></trkpt><trkpt lat="43.1434025" lon="12.2121475"><ele>243.0</ele><time>2026-04-09T17:46:56.999Z</time></trkpt><trkpt lat="43.1434994" lon="12.2122587"><ele>243.0</ele><time>2026-04-09T17:46:57.998Z</time></trkpt><trkpt lat="43.1435961" lon="12.2123706"><ele>243.0</ele><time>2026-04-09T17:46:58.998Z</time></trkpt><trkpt lat="43.1436893" lon="12.212485"><ele>242.75</ele><time>2026-04-09T17:46:59.999Z</time></trkpt><trkpt lat="43.1437876" lon="12.212599"><ele>242.5</ele><time>2026-04-09T17:47:00.999Z</time></trkpt><trkpt lat="43.1438831" lon="12.2127166"><ele>242.25</ele><time>2026-04-09T17:47:01.998Z</time></trkpt><trkpt lat="43.1439711" lon="12.2128283"><ele>242.0</ele><time>2026-04-09T17:47:02.999Z</time></trkpt><trkpt lat="43.1440478" lon="12.2129506"><ele>241.39999999999998</ele><time>2026-04-09T17:47:03.999Z</time></trkpt><trkpt lat="43.1441553" lon="12.2131783"><ele>240.79999999999998</ele><time>2026-04-09T17:47:05.999Z</time></trkpt><trkpt lat="43.1441807" lon="12.2132721"><ele>240.2</ele><time>2026-04-09T17:47:06.998Z</time></trkpt><trkpt lat="43.1441982" lon="12.2133746"><ele>239.6</ele><time>2026-04-09T17:47:07.999Z</time></trkpt><trkpt lat="43.1441883" lon="12.2134818"><ele>239.0</ele><time>2026-04-09T17:47:08.999Z</time></trkpt><trkpt lat="43.1441743" lon="12.2135872"><ele>239.0</ele><time>2026-04-09T17:47:09.999Z</time></trkpt><trkpt lat="43.1441734" lon="12.2137119"><ele>239.0</ele><time>2026-04-09T17:47:10.999Z</time></trkpt><trkpt lat="43.1441922" lon="12.2138352"><ele>239.0</ele><time>2026-04-09T17:47:11.999Z</time></trkpt><trkpt lat="43.1442532" lon="12.2139645"><ele>239.0</ele><time>2026-04-09T17:47:12.999Z</time></trkpt><trkpt lat="43.1444063" lon="12.2142151"><ele>238.75</ele><time>2026-04-09T17:47:14.999Z</time></trkpt><trkpt lat="43.1444522" lon="12.2143644"><ele>238.5</ele><time>2026-04-09T17:47:15.999Z</time></trkpt><trkpt lat="43.1444671" lon="12.214533"><ele>238.25</ele><time>2026-04-09T17:47:16.999Z</time></trkpt><trkpt lat="43.1444549" lon="12.2147203"><ele>238.0</ele><time>2026-04-09T17:47:17.997Z</time></trkpt><trkpt lat="43.14442" lon="12.2149151"><ele>238.0</ele><time>2026-04-09T17:47:18.998Z</time></trkpt><trkpt lat="43.1443705" lon="12.2151267"><ele>238.0</ele><time>2026-04-09T17:47:19.999Z</time></trkpt><trkpt lat="43.1443029" lon="12.2153551"><ele>238.0</ele><time>2026-04-09T17:47:20.998Z</time></trkpt><trkpt lat="43.1442367" lon="12.2155836"><ele>238.0</ele><time>2026-04-09T17:47:21.999Z</time></trkpt><trkpt lat="43.1441687" lon="12.2158448"><ele>238.0</ele><time>2026-04-09T17:47:22.999Z</time></trkpt><trkpt lat="43.1440993" lon="12.2161123"><ele>238.0</ele><time>2026-04-09T17:47:23.999Z</time></trkpt><trkpt lat="43.1440259" lon="12.2163894"><ele>237.66666666666666</ele><time>2026-04-09T17:47:24.999Z</time></trkpt><trkpt lat="43.1439618" lon="12.2166696"><ele>237.33333333333331</ele><time>2026-04-09T17:47:25.999Z</time></trkpt><trkpt lat="43.1438868" lon="12.2169477"><ele>237.0</ele><time>2026-04-09T17:47:26.999Z</time></trkpt><trkpt lat="43.1438172" lon="12.2172203"><ele>237.66666666666669</ele><time>2026-04-09T17:47:27.999Z</time></trkpt><trkpt lat="43.1437509" lon="12.2174777"><ele>238.33333333333334</ele><time>2026-04-09T17:47:28.999Z</time></trkpt><trkpt lat="43.1436882" lon="12.2177238"><ele>239.0</ele><time>2026-04-09T17:47:29.999Z</time></trkpt><trkpt lat="43.1436219" lon="12.2179821"><ele>239.33333333333334</ele><time>2026-04-09T17:47:30.999Z</time></trkpt><trkpt lat="43.143556" lon="12.2182394"><ele>239.66666666666669</ele><time>2026-04-09T17:47:31.999Z</time></trkpt><trkpt lat="43.1434824" lon="12.2185162"><ele>240.0</ele><time>2026-04-09T17:47:32.999Z</time></trkpt><trkpt lat="43.1434122" lon="12.2187949"><ele>240.33333333333331</ele><time>2026-04-09T17:47:33.999Z</time></trkpt><trkpt lat="43.1433494" lon="12.2190749"><ele>240.66666666666666</ele><time>2026-04-09T17:47:34.999Z</time></trkpt><trkpt lat="43.1432819" lon="12.2193661"><ele>241.0</ele><time>2026-04-09T17:47:35.999Z</time></trkpt><trkpt lat="43.1432109" lon="12.2196591"><ele>240.0</ele><time>2026-04-09T17:47:36.999Z</time></trkpt><trkpt lat="43.1431393" lon="12.2199567"><ele>239.0</ele><time>2026-04-09T17:47:37.998Z</time></trkpt><trkpt lat="43.1430637" lon="12.2202569"><ele>239.0</ele><time>2026-04-09T17:47:38.998Z</time></trkpt><trkpt lat="43.1429944" lon="12.2205561"><ele>239.0</ele><time>2026-04-09T17:47:39.999Z</time></trkpt><trkpt lat="43.1429203" lon="12.2208585"><ele>240.0</ele><time>2026-04-09T17:47:40.999Z</time></trkpt><trkpt lat="43.1428442" lon="12.2211586"><ele>241.0</ele><time>2026-04-09T17:47:41.999Z</time></trkpt><trkpt lat="43.1427675" lon="12.2214683"><ele>240.0</ele><time>2026-04-09T17:47:42.999Z</time></trkpt><trkpt lat="43.1426801" lon="12.2218096"><ele>239.0</ele><time>2026-04-09T17:47:43.999Z</time></trkpt><trkpt lat="43.1425961" lon="12.2221452"><ele>240.0</ele><time>2026-04-09T17:47:44.999Z</time></trkpt><trkpt lat="43.1425201" lon="12.2224567"><ele>241.0</ele><time>2026-04-09T17:47:45.999Z</time></trkpt><trkpt lat="43.1424546" lon="12.2227629"><ele>240.0</ele><time>2026-04-09T17:47:46.999Z</time></trkpt><trkpt lat="43.1423813" lon="12.2230499"><ele>239.0</ele><time>2026-04-09T17:47:47.999Z</time></trkpt><trkpt lat="43.1423132" lon="12.2233351"><ele>238.0</ele><time>2026-04-09T17:47:48.999Z</time></trkpt><trkpt lat="43.1422439" lon="12.2236073"><ele>237.33333333333331</ele><time>2026-04-09T17:47:49.999Z</time></trkpt><trkpt lat="43.1421785" lon="12.2238751"><ele>236.66666666666669</ele><time>2026-04-09T17:47:50.999Z</time></trkpt><trkpt lat="43.1421159" lon="12.22414"><ele>236.0</ele><time>2026-04-09T17:47:51.998Z</time></trkpt><trkpt lat="43.1420555" lon="12.2243885"><ele>235.66666666666669</ele><time>2026-04-09T17:47:52.998Z</time></trkpt><trkpt lat="43.141988" lon="12.2246445"><ele>235.33333333333331</ele><time>2026-04-09T17:47:53.998Z</time></trkpt><trkpt lat="43.1419204" lon="12.2248896"><ele>235.0</ele><time>2026-04-09T17:47:54.998Z</time></trkpt><trkpt lat="43.1418542" lon="12.2251289"><ele>235.66666666666666</ele><time>2026-04-09T17:47:55.999Z</time></trkpt><trkpt lat="43.1417945" lon="12.2253571"><ele>236.33333333333331</ele><time>2026-04-09T17:47:56.999Z</time></trkpt><trkpt lat="43.1417394" lon="12.2255725"><ele>237.0</ele><time>2026-04-09T17:47:57.999Z</time></trkpt><trkpt lat="43.1416928" lon="12.2257825"><ele>237.25</ele><time>2026-04-09T17:47:58.999Z</time></trkpt><trkpt lat="43.1416426" lon="12.2259725"><ele>237.5</ele><time>2026-04-09T17:47:59.998Z</time></trkpt><trkpt lat="43.1415841" lon="12.2261259"><ele>237.75</ele><time>2026-04-09T17:48:00.999Z</time></trkpt><trkpt lat="43.1415219" lon="12.2262625"><ele>238.0</ele><time>2026-04-09T17:48:01.999Z</time></trkpt><trkpt lat="43.1414553" lon="12.2263898"><ele>237.5</ele><time>2026-04-09T17:48:02.999Z</time></trkpt><trkpt lat="43.1414069" lon="12.2265259"><ele>237.0</ele><time>2026-04-09T17:48:03.999Z</time></trkpt><trkpt lat="43.1413813" lon="12.2266834"><ele>236.5</ele><time>2026-04-09T17:48:04.998Z</time></trkpt><trkpt lat="43.1413818" lon="12.2268556"><ele>236.0</ele><time>2026-04-09T17:48:05.999Z</time></trkpt><trkpt lat="43.141371" lon="12.227035"><ele>236.0</ele><time>2026-04-09T17:48:06.999Z</time></trkpt><trkpt lat="43.1413382" lon="12.2272211"><ele>236.0</ele><time>2026-04-09T17:48:07.999Z</time></trkpt><trkpt lat="43.1412988" lon="12.2273906"><ele>236.0</ele><time>2026-04-09T17:48:08.999Z</time></trkpt><trkpt lat="43.1412594" lon="12.2275582"><ele>236.0</ele><time>2026-04-09T17:48:09.999Z</time></trkpt><trkpt lat="43.1412208" lon="12.2277105"><ele>236.0</ele><time>2026-04-09T17:48:10.999Z</time></trkpt><trkpt lat="43.1411905" lon="12.2278378"><ele>236.00000000000003</ele><time>2026-04-09T17:48:11.999Z</time></trkpt><trkpt lat="43.141166" lon="12.2279555"><ele>236.00000000000003</ele><time>2026-04-09T17:48:12.999Z</time></trkpt><trkpt lat="43.1411877" lon="12.2281665"><ele>236.0</ele><time>2026-04-09T17:48:14.999Z</time></trkpt><trkpt lat="43.1412422" lon="12.2282456"><ele>236.0</ele><time>2026-04-09T17:48:15.999Z</time></trkpt><trkpt lat="43.1413186" lon="12.2283056"><ele>236.0</ele><time>2026-04-09T17:48:16.999Z</time></trkpt><trkpt lat="43.1414066" lon="12.2283716"><ele>236.00000000000003</ele><time>2026-04-09T17:48:17.999Z</time></trkpt><trkpt lat="43.1414891" lon="12.2284508"><ele>236.00000000000003</ele><time>2026-04-09T17:48:18.999Z</time></trkpt><trkpt lat="43.1415514" lon="12.2285516"><ele>236.0</ele><time>2026-04-09T17:48:19.999Z</time></trkpt><trkpt lat="43.1415892" lon="12.2286793"><ele>236.0</ele><time>2026-04-09T17:48:20.999Z</time></trkpt><trkpt lat="43.1416066" lon="12.2288233"><ele>236.33333333333334</ele><time>2026-04-09T17:48:21.999Z</time></trkpt><trkpt lat="43.1415669" lon="12.229141"><ele>236.66666666666669</ele><time>2026-04-09T17:48:23.999Z</time></trkpt><trkpt lat="43.1415422" lon="12.2293065"><ele>237.0</ele><time>2026-04-09T17:48:24.999Z</time></trkpt><trkpt lat="43.141512" lon="12.2294797"><ele>236.25</ele><time>2026-04-09T17:48:25.999Z</time></trkpt><trkpt lat="43.1414861" lon="12.2296591"><ele>235.5</ele><time>2026-04-09T17:48:26.999Z</time></trkpt><trkpt lat="43.1414537" lon="12.229853"><ele>234.75</ele><time>2026-04-09T17:48:27.999Z</time></trkpt><trkpt lat="43.1414161" lon="12.2300518"><ele>234.0</ele><time>2026-04-09T17:48:28.999Z</time></trkpt><trkpt lat="43.1413795" lon="12.2302547"><ele>235.0</ele><time>2026-04-09T17:48:29.999Z</time></trkpt><trkpt lat="43.141308" lon="12.2306941"><ele>236.0</ele><time>2026-04-09T17:48:31.999Z</time></trkpt><trkpt lat="43.1412684" lon="12.2309264"><ele>236.0</ele><time>2026-04-09T17:48:32.999Z</time></trkpt><trkpt lat="43.1412323" lon="12.2311633"><ele>236.0</ele><time>2026-04-09T17:48:33.999Z</time></trkpt><trkpt lat="43.1411903" lon="12.2314079"><ele>236.0</ele><time>2026-04-09T17:48:34.999Z</time></trkpt><trkpt lat="43.1411491" lon="12.231663"><ele>236.66666666666669</ele><time>2026-04-09T17:48:35.999Z</time></trkpt><trkpt lat="43.1411058" lon="12.2319274"><ele>237.33333333333331</ele><time>2026-04-09T17:48:36.999Z</time></trkpt><trkpt lat="43.1410513" lon="12.2322009"><ele>238.0</ele><time>2026-04-09T17:48:37.999Z</time></trkpt><trkpt lat="43.1409938" lon="12.2324776"><ele>238.0</ele><time>2026-04-09T17:48:39Z</time></trkpt><trkpt lat="43.1408774" lon="12.2330573"><ele>238.0</ele><time>2026-04-09T17:48:40.999Z</time></trkpt><trkpt lat="43.140741" lon="12.2336636"><ele>237.5</ele><time>2026-04-09T17:48:42.999Z</time></trkpt><trkpt lat="43.1406744" lon="12.2339843"><ele>237.0</ele><time>2026-04-09T17:48:43.999Z</time></trkpt><trkpt lat="43.1405996" lon="12.234302"><ele>237.0</ele><time>2026-04-09T17:48:44.999Z</time></trkpt><trkpt lat="43.1405237" lon="12.2346285"><ele>237.0</ele><time>2026-04-09T17:48:45.999Z</time></trkpt><trkpt lat="43.1403729" lon="12.2352969"><ele>237.0</ele><time>2026-04-09T17:48:47.999Z</time></trkpt><trkpt lat="43.1402964" lon="12.2356292"><ele>237.0</ele><time>2026-04-09T17:48:48.999Z</time></trkpt><trkpt lat="43.140214" lon="12.2359624"><ele>235.0</ele><time>2026-04-09T17:48:49.999Z</time></trkpt><trkpt lat="43.1400452" lon="12.2366384"><ele>235.0</ele><time>2026-04-09T17:48:51.999Z</time></trkpt><trkpt lat="43.1399536" lon="12.2369713"><ele>235.0</ele><time>2026-04-09T17:48:53Z</time></trkpt><trkpt lat="43.1398658" lon="12.2372973"><ele>235.5</ele><time>2026-04-09T17:48:53.998Z</time></trkpt><trkpt lat="43.1397687" lon="12.2376256"><ele>236.0</ele><time>2026-04-09T17:48:54.999Z</time></trkpt><trkpt lat="43.1395924" lon="12.2382916"><ele>237.0</ele><time>2026-04-09T17:48:56.999Z</time></trkpt><trkpt lat="43.1394921" lon="12.2386243"><ele>238.0</ele><time>2026-04-09T17:48:57.999Z</time></trkpt><trkpt lat="43.1394028" lon="12.2389538"><ele>237.5</ele><time>2026-04-09T17:48:58.999Z</time></trkpt><trkpt lat="43.1393158" lon="12.2392907"><ele>237.0</ele><time>2026-04-09T17:48:59.999Z</time></trkpt><trkpt lat="43.1391318" lon="12.2399576"><ele>236.5</ele><time>2026-04-09T17:49:01.999Z</time></trkpt><trkpt lat="43.1390441" lon="12.2402951"><ele>236.0</ele><time>2026-04-09T17:49:02.999Z</time></trkpt><trkpt lat="43.1389535" lon="12.2406303"><ele>235.5</ele><time>2026-04-09T17:49:04Z</time></trkpt><trkpt lat="43.1388697" lon="12.2409664"><ele>235.0</ele><time>2026-04-09T17:49:04.999Z</time></trkpt><trkpt lat="43.1387848" lon="12.2412957"><ele>234.5</ele><time>2026-04-09T17:49:05.999Z</time></trkpt><trkpt lat="43.1386911" lon="12.2416238"><ele>234.0</ele><time>2026-04-09T17:49:06.999Z</time></trkpt><trkpt lat="43.1386084" lon="12.2419552"><ele>234.0</ele><time>2026-04-09T17:49:07.999Z</time></trkpt><trkpt lat="43.1385236" lon="12.2422934"><ele>234.0</ele><time>2026-04-09T17:49:08.999Z</time></trkpt><trkpt lat="43.1384342" lon="12.2426278"><ele>234.0</ele><time>2026-04-09T17:49:09.999Z</time></trkpt><trkpt lat="43.13834" lon="12.2429628"><ele>234.0</ele><time>2026-04-09T17:49:10.999Z</time></trkpt><trkpt lat="43.1382524" lon="12.2432993"><ele>234.0</ele><time>2026-04-09T17:49:11.999Z</time></trkpt><trkpt lat="43.1381597" lon="12.2436313"><ele>234.0</ele><time>2026-04-09T17:49:12.999Z</time></trkpt><trkpt lat="43.1380687" lon="12.243963"><ele>232.0</ele><time>2026-04-09T17:49:13.999Z</time></trkpt><trkpt lat="43.1378821" lon="12.2446252"><ele>232.0</ele><time>2026-04-09T17:49:15.999Z</time></trkpt><trkpt lat="43.1377838" lon="12.2449569"><ele>232.0</ele><time>2026-04-09T17:49:17Z</time></trkpt><trkpt lat="43.1376909" lon="12.2452862"><ele>232.0</ele><time>2026-04-09T17:49:17.999Z</time></trkpt><trkpt lat="43.1376024" lon="12.2456245"><ele>232.0</ele><time>2026-04-09T17:49:18.999Z</time></trkpt><trkpt lat="43.1375126" lon="12.2459623"><ele>232.0</ele><time>2026-04-09T17:49:20Z</time></trkpt><trkpt lat="43.1374266" lon="12.2462993"><ele>232.0</ele><time>2026-04-09T17:49:20.999Z</time></trkpt><trkpt lat="43.1373339" lon="12.2466323"><ele>232.0</ele><time>2026-04-09T17:49:21.999Z</time></trkpt><trkpt lat="43.1372424" lon="12.2469687"><ele>232.0</ele><time>2026-04-09T17:49:22.998Z</time></trkpt><trkpt lat="43.1371498" lon="12.2472981"><ele>231.5</ele><time>2026-04-09T17:49:23.999Z</time></trkpt><trkpt lat="43.137063" lon="12.2476352"><ele>231.0</ele><time>2026-04-09T17:49:24.999Z</time></trkpt><trkpt lat="43.1369724" lon="12.2479695"><ele>230.0</ele><time>2026-04-09T17:49:25.999Z</time></trkpt><trkpt lat="43.1368875" lon="12.2483073"><ele>229.0</ele><time>2026-04-09T17:49:27Z</time></trkpt><trkpt lat="43.136796" lon="12.248643"><ele>229.0</ele><time>2026-04-09T17:49:27.999Z</time></trkpt><trkpt lat="43.1367061" lon="12.2489771"><ele>229.0</ele><time>2026-04-09T17:49:28.998Z</time></trkpt><trkpt lat="43.1366137" lon="12.2493084"><ele>229.0</ele><time>2026-04-09T17:49:29.999Z</time></trkpt><trkpt lat="43.1365172" lon="12.2496294"><ele>229.0</ele><time>2026-04-09T17:49:30.999Z</time></trkpt><trkpt lat="43.1364247" lon="12.2499596"><ele>229.0</ele><time>2026-04-09T17:49:31.999Z</time></trkpt><trkpt lat="43.1363365" lon="12.2502924"><ele>229.0</ele><time>2026-04-09T17:49:32.999Z</time></trkpt><trkpt lat="43.1362424" lon="12.2506225"><ele>229.5</ele><time>2026-04-09T17:49:33.999Z</time></trkpt><trkpt lat="43.1361528" lon="12.250955"><ele>230.0</ele><time>2026-04-09T17:49:34.999Z</time></trkpt><trkpt lat="43.1360638" lon="12.2512868"><ele>230.0</ele><time>2026-04-09T17:49:35.999Z</time></trkpt><trkpt lat="43.1359735" lon="12.251622"><ele>230.0</ele><time>2026-04-09T17:49:36.999Z</time></trkpt><trkpt lat="43.1358856" lon="12.2519536"><ele>230.0</ele><time>2026-04-09T17:49:37.999Z</time></trkpt><trkpt lat="43.1357942" lon="12.2522824"><ele>230.0</ele><time>2026-04-09T17:49:38.999Z</time></trkpt><trkpt lat="43.1357085" lon="12.252619"><ele>231.0</ele><time>2026-04-09T17:49:39.999Z</time></trkpt><trkpt lat="43.1356208" lon="12.2529493"><ele>232.0</ele><time>2026-04-09T17:49:40.999Z</time></trkpt><trkpt lat="43.135528" lon="12.2532782"><ele>232.0</ele><time>2026-04-09T17:49:41.999Z</time></trkpt><trkpt lat="43.1353489" lon="12.2539462"><ele>232.5</ele><time>2026-04-09T17:49:43.999Z</time></trkpt><trkpt lat="43.1352503" lon="12.2542802"><ele>233.0</ele><time>2026-04-09T17:49:44.999Z</time></trkpt><trkpt lat="43.1351609" lon="12.2546122"><ele>233.0</ele><time>2026-04-09T17:49:45.999Z</time></trkpt><trkpt lat="43.1350672" lon="12.2549458"><ele>233.0</ele><time>2026-04-09T17:49:46.999Z</time></trkpt><trkpt lat="43.1348891" lon="12.2556169"><ele>235.0</ele><time>2026-04-09T17:49:48.999Z</time></trkpt><trkpt lat="43.1348017" lon="12.255943"><ele>237.0</ele><time>2026-04-09T17:49:49.999Z</time></trkpt><trkpt lat="43.1347126" lon="12.2562755"><ele>237.0</ele><time>2026-04-09T17:49:50.999Z</time></trkpt><trkpt lat="43.1345326" lon="12.2569426"><ele>237.0</ele><time>2026-04-09T17:49:53Z</time></trkpt><trkpt lat="43.1344426" lon="12.2572768"><ele>237.0</ele><time>2026-04-09T17:49:53.999Z</time></trkpt><trkpt lat="43.1343512" lon="12.2576073"><ele>235.5</ele><time>2026-04-09T17:49:54.999Z</time></trkpt><trkpt lat="43.134262" lon="12.2579394"><ele>234.0</ele><time>2026-04-09T17:49:55.999Z</time></trkpt><trkpt lat="43.1341715" lon="12.2582706"><ele>233.5</ele><time>2026-04-09T17:49:56.998Z</time></trkpt><trkpt lat="43.1340823" lon="12.2586061"><ele>233.0</ele><time>2026-04-09T17:49:57.999Z</time></trkpt><trkpt lat="43.1339875" lon="12.2589316"><ele>233.5</ele><time>2026-04-09T17:49:58.999Z</time></trkpt><trkpt lat="43.1338943" lon="12.2592604"><ele>234.0</ele><time>2026-04-09T17:49:59.998Z</time></trkpt><trkpt lat="43.133809" lon="12.2595933"><ele>233.5</ele><time>2026-04-09T17:50:00.999Z</time></trkpt><trkpt lat="43.1337119" lon="12.2599203"><ele>233.0</ele><time>2026-04-09T17:50:01.999Z</time></trkpt><trkpt lat="43.133607" lon="12.2602504"><ele>235.0</ele><time>2026-04-09T17:50:02.998Z</time></trkpt><trkpt lat="43.1333931" lon="12.260906"><ele>235.0</ele><time>2026-04-09T17:50:05Z</time></trkpt><trkpt lat="43.1332824" lon="12.2612254"><ele>235.0</ele><time>2026-04-09T17:50:05.999Z</time></trkpt><trkpt lat="43.1330723" lon="12.261866"><ele>234.5</ele><time>2026-04-09T17:50:08Z</time></trkpt><trkpt lat="43.1329546" lon="12.2621867"><ele>234.0</ele><time>2026-04-09T17:50:08.999Z</time></trkpt><trkpt lat="43.1327245" lon="12.2628124"><ele>235.0</ele><time>2026-04-09T17:50:10.999Z</time></trkpt><trkpt lat="43.1326062" lon="12.2631109"><ele>236.0</ele><time>2026-04-09T17:50:11.999Z</time></trkpt><trkpt lat="43.1324904" lon="12.2634106"><ele>238.0</ele><time>2026-04-09T17:50:12.999Z</time></trkpt><trkpt lat="43.1322558" lon="12.2639942"><ele>238.0</ele><time>2026-04-09T17:50:14.999Z</time></trkpt><trkpt lat="43.1321392" lon="12.264294"><ele>238.0</ele><time>2026-04-09T17:50:15.999Z</time></trkpt><trkpt lat="43.1320136" lon="12.264592"><ele>238.0</ele><time>2026-04-09T17:50:16.999Z</time></trkpt><trkpt lat="43.1317449" lon="12.2651809"><ele>238.0</ele><time>2026-04-09T17:50:19Z</time></trkpt><trkpt lat="43.1316014" lon="12.2654666"><ele>238.0</ele><time>2026-04-09T17:50:20Z</time></trkpt><trkpt lat="43.1314567" lon="12.2657672"><ele>240.5</ele><time>2026-04-09T17:50:20.998Z</time></trkpt><trkpt lat="43.1313128" lon="12.2660656"><ele>243.0</ele><time>2026-04-09T17:50:22Z</time></trkpt><trkpt lat="43.1311701" lon="12.2663597"><ele>240.0</ele><time>2026-04-09T17:50:22.999Z</time></trkpt><trkpt lat="43.1310196" lon="12.2666479"><ele>237.0</ele><time>2026-04-09T17:50:23.999Z</time></trkpt><trkpt lat="43.1308652" lon="12.2669343"><ele>238.0</ele><time>2026-04-09T17:50:24.999Z</time></trkpt><trkpt lat="43.1305548" lon="12.2674981"><ele>238.0</ele><time>2026-04-09T17:50:26.999Z</time></trkpt><trkpt lat="43.1302309" lon="12.2680617"><ele>235.5</ele><time>2026-04-09T17:50:29Z</time></trkpt><trkpt lat="43.1300653" lon="12.2683398"><ele>233.0</ele><time>2026-04-09T17:50:30Z</time></trkpt><trkpt lat="43.129901" lon="12.2686162"><ele>235.5</ele><time>2026-04-09T17:50:30.999Z</time></trkpt><trkpt lat="43.1297383" lon="12.2688932"><ele>238.0</ele><time>2026-04-09T17:50:31.998Z</time></trkpt><trkpt lat="43.1293971" lon="12.2694338"><ele>238.0</ele><time>2026-04-09T17:50:33.999Z</time></trkpt><trkpt lat="43.1292241" lon="12.2696959"><ele>238.0</ele><time>2026-04-09T17:50:35Z</time></trkpt><trkpt lat="43.1288747" lon="12.2702158"><ele>237.0</ele><time>2026-04-09T17:50:36.999Z</time></trkpt><trkpt lat="43.1285138" lon="12.27072"><ele>237.0</ele><time>2026-04-09T17:50:39Z</time></trkpt><trkpt lat="43.1283293" lon="12.2709717"><ele>237.0</ele><time>2026-04-09T17:50:39.999Z</time></trkpt><trkpt lat="43.1281434" lon="12.2712232"><ele>237.0</ele><time>2026-04-09T17:50:40.999Z</time></trkpt><trkpt lat="43.1279609" lon="12.2714681"><ele>237.0</ele><time>2026-04-09T17:50:41.999Z</time></trkpt><trkpt lat="43.1277723" lon="12.2717074"><ele>237.0</ele><time>2026-04-09T17:50:42.999Z</time></trkpt><trkpt lat="43.1275767" lon="12.2719443"><ele>237.0</ele><time>2026-04-09T17:50:43.999Z</time></trkpt><trkpt lat="43.1273829" lon="12.272181"><ele>236.0</ele><time>2026-04-09T17:50:44.998Z</time></trkpt><trkpt lat="43.1271849" lon="12.2724118"><ele>235.0</ele><time>2026-04-09T17:50:46Z</time></trkpt><trkpt lat="43.1267964" lon="12.2728794"><ele>234.5</ele><time>2026-04-09T17:50:47.999Z</time></trkpt><trkpt lat="43.1265947" lon="12.273109"><ele>234.0</ele><time>2026-04-09T17:50:48.999Z</time></trkpt><trkpt lat="43.1263917" lon="12.273335"><ele>235.0</ele><time>2026-04-09T17:50:49.999Z</time></trkpt><trkpt lat="43.1261888" lon="12.2735589"><ele>236.0</ele><time>2026-04-09T17:50:50.999Z</time></trkpt><trkpt lat="43.1259825" lon="12.2737822"><ele>236.0</ele><time>2026-04-09T17:50:52Z</time></trkpt><trkpt lat="43.1257676" lon="12.273996"><ele>236.0</ele><time>2026-04-09T17:50:52.999Z</time></trkpt><trkpt lat="43.1255569" lon="12.2742127"><ele>235.5</ele><time>2026-04-09T17:50:53.999Z</time></trkpt><trkpt lat="43.1253386" lon="12.2744212"><ele>235.0</ele><time>2026-04-09T17:50:54.999Z</time></trkpt><trkpt lat="43.1251181" lon="12.2746317"><ele>234.0</ele><time>2026-04-09T17:50:56Z</time></trkpt><trkpt lat="43.1248942" lon="12.274841"><ele>233.0</ele><time>2026-04-09T17:50:56.999Z</time></trkpt><trkpt lat="43.1246701" lon="12.2750465"><ele>233.0</ele><time>2026-04-09T17:50:57.999Z</time></trkpt><trkpt lat="43.1244483" lon="12.2752544"><ele>233.0</ele><time>2026-04-09T17:50:58.999Z</time></trkpt><trkpt lat="43.124221" lon="12.2754599"><ele>232.5</ele><time>2026-04-09T17:51:00Z</time></trkpt><trkpt lat="43.1239918" lon="12.2756644"><ele>232.0</ele><time>2026-04-09T17:51:01Z</time></trkpt><trkpt lat="43.1237552" lon="12.2758681"><ele>232.0</ele><time>2026-04-09T17:51:01.999Z</time></trkpt><trkpt lat="43.1232939" lon="12.2762615"><ele>232.0</ele><time>2026-04-09T17:51:04Z</time></trkpt><trkpt lat="43.1230431" lon="12.2764518"><ele>232.0</ele><time>2026-04-09T17:51:04.999Z</time></trkpt><trkpt lat="43.1225527" lon="12.2768148"><ele>233.0</ele><time>2026-04-09T17:51:06.999Z</time></trkpt><trkpt lat="43.1220541" lon="12.27717"><ele>233.0</ele><time>2026-04-09T17:51:08.999Z</time></trkpt><trkpt lat="43.1218187" lon="12.2773419"><ele>233.0</ele><time>2026-04-09T17:51:10Z</time></trkpt><trkpt lat="43.1215794" lon="12.2775014"><ele>233.0</ele><time>2026-04-09T17:51:11Z</time></trkpt><trkpt lat="43.1213522" lon="12.2776622"><ele>233.0</ele><time>2026-04-09T17:51:11.999Z</time></trkpt><trkpt lat="43.1211272" lon="12.27781"><ele>233.0</ele><time>2026-04-09T17:51:12.999Z</time></trkpt><trkpt lat="43.12067" lon="12.2781491"><ele>233.0</ele><time>2026-04-09T17:51:15Z</time></trkpt><trkpt lat="43.1204361" lon="12.2783168"><ele>233.0</ele><time>2026-04-09T17:51:15.999Z</time></trkpt><trkpt lat="43.1202029" lon="12.2784845"><ele>233.0</ele><time>2026-04-09T17:51:16.999Z</time></trkpt><trkpt lat="43.1199745" lon="12.2786428"><ele>233.0</ele><time>2026-04-09T17:51:18Z</time></trkpt><trkpt lat="43.1197448" lon="12.2788038"><ele>233.0</ele><time>2026-04-09T17:51:18.999Z</time></trkpt><trkpt lat="43.1195086" lon="12.278965"><ele>233.0</ele><time>2026-04-09T17:51:19.998Z</time></trkpt><trkpt lat="43.1190495" lon="12.2792894"><ele>233.5</ele><time>2026-04-09T17:51:21.999Z</time></trkpt><trkpt lat="43.118819" lon="12.2794521"><ele>234.0</ele><time>2026-04-09T17:51:22.999Z</time></trkpt><trkpt lat="43.1185874" lon="12.2796164"><ele>234.0</ele><time>2026-04-09T17:51:24Z</time></trkpt><trkpt lat="43.1183516" lon="12.2797799"><ele>234.0</ele><time>2026-04-09T17:51:25Z</time></trkpt><trkpt lat="43.1181176" lon="12.2799427"><ele>232.0</ele><time>2026-04-09T17:51:25.999Z</time></trkpt><trkpt lat="43.1176552" lon="12.2802852"><ele>231.0</ele><time>2026-04-09T17:51:27.999Z</time></trkpt><trkpt lat="43.1171944" lon="12.2806094"><ele>231.0</ele><time>2026-04-09T17:51:30Z</time></trkpt><trkpt lat="43.1169665" lon="12.2807754"><ele>231.0</ele><time>2026-04-09T17:51:31Z</time></trkpt><trkpt lat="43.1167329" lon="12.2809394"><ele>232.0</ele><time>2026-04-09T17:51:31.999Z</time></trkpt><trkpt lat="43.1162728" lon="12.281263"><ele>232.0</ele><time>2026-04-09T17:51:33.999Z</time></trkpt><trkpt lat="43.1160404" lon="12.2814237"><ele>232.0</ele><time>2026-04-09T17:51:35Z</time></trkpt><trkpt lat="43.1158176" lon="12.2815883"><ele>233.5</ele><time>2026-04-09T17:51:35.999Z</time></trkpt><trkpt lat="43.1155912" lon="12.2817605"><ele>235.0</ele><time>2026-04-09T17:51:37Z</time></trkpt><trkpt lat="43.1153661" lon="12.2819251"><ele>235.0</ele><time>2026-04-09T17:51:38Z</time></trkpt><trkpt lat="43.1151423" lon="12.282099"><ele>235.0</ele><time>2026-04-09T17:51:38.999Z</time></trkpt><trkpt lat="43.1149089" lon="12.2822646"><ele>235.0</ele><time>2026-04-09T17:51:40Z</time></trkpt><trkpt lat="43.1146779" lon="12.2824303"><ele>235.0</ele><time>2026-04-09T17:51:40.999Z</time></trkpt><trkpt lat="43.1144549" lon="12.2825919"><ele>235.0</ele><time>2026-04-09T17:51:41.999Z</time></trkpt><trkpt lat="43.1142302" lon="12.2827576"><ele>235.0</ele><time>2026-04-09T17:51:42.999Z</time></trkpt><trkpt lat="43.114001" lon="12.282922"><ele>235.0</ele><time>2026-04-09T17:51:44Z</time></trkpt><trkpt lat="43.1137692" lon="12.2830888"><ele>235.0</ele><time>2026-04-09T17:51:44.999Z</time></trkpt><trkpt lat="43.1135391" lon="12.2832523"><ele>236.0</ele><time>2026-04-09T17:51:45.998Z</time></trkpt><trkpt lat="43.1133054" lon="12.2834217"><ele>237.0</ele><time>2026-04-09T17:51:46.999Z</time></trkpt><trkpt lat="43.1130726" lon="12.2835852"><ele>237.0</ele><time>2026-04-09T17:51:47.999Z</time></trkpt><trkpt lat="43.1128509" lon="12.2837475"><ele>237.0</ele><time>2026-04-09T17:51:49Z</time></trkpt><trkpt lat="43.1126253" lon="12.2839146"><ele>239.0</ele><time>2026-04-09T17:51:50Z</time></trkpt><trkpt lat="43.1123961" lon="12.2840783"><ele>241.0</ele><time>2026-04-09T17:51:50.998Z</time></trkpt><trkpt lat="43.1121658" lon="12.2842382"><ele>241.0</ele><time>2026-04-09T17:51:52Z</time></trkpt><trkpt lat="43.1119326" lon="12.2844023"><ele>241.0</ele><time>2026-04-09T17:51:52.999Z</time></trkpt><trkpt lat="43.1116987" lon="12.2845696"><ele>241.0</ele><time>2026-04-09T17:51:53.999Z</time></trkpt><trkpt lat="43.1114748" lon="12.284732"><ele>241.0</ele><time>2026-04-09T17:51:54.999Z</time></trkpt><trkpt lat="43.1112433" lon="12.2848968"><ele>245.0</ele><time>2026-04-09T17:51:55.999Z</time></trkpt><trkpt lat="43.1110107" lon="12.2850603"><ele>249.0</ele><time>2026-04-09T17:51:56.999Z</time></trkpt><trkpt lat="43.1107765" lon="12.2852203"><ele>248.0</ele><time>2026-04-09T17:51:57.999Z</time></trkpt><trkpt lat="43.1105529" lon="12.2853751"><ele>247.0</ele><time>2026-04-09T17:51:58.999Z</time></trkpt><trkpt lat="43.1103221" lon="12.2855374"><ele>248.5</ele><time>2026-04-09T17:51:59.999Z</time></trkpt><trkpt lat="43.1100894" lon="12.2856937"><ele>250.0</ele><time>2026-04-09T17:52:00.999Z</time></trkpt><trkpt lat="43.1098531" lon="12.2858526"><ele>250.0</ele><time>2026-04-09T17:52:01.999Z</time></trkpt><trkpt lat="43.1096265" lon="12.2860129"><ele>250.0</ele><time>2026-04-09T17:52:03Z</time></trkpt><trkpt lat="43.109394" lon="12.2861747"><ele>250.0</ele><time>2026-04-09T17:52:03.999Z</time></trkpt><trkpt lat="43.1091598" lon="12.2863424"><ele>250.0</ele><time>2026-04-09T17:52:04.999Z</time></trkpt><trkpt lat="43.1089262" lon="12.2865072"><ele>250.5</ele><time>2026-04-09T17:52:05.999Z</time></trkpt><trkpt lat="43.1086939" lon="12.28667"><ele>251.0</ele><time>2026-04-09T17:52:06.999Z</time></trkpt><trkpt lat="43.1084622" lon="12.2868347"><ele>248.5</ele><time>2026-04-09T17:52:07.999Z</time></trkpt><trkpt lat="43.1082311" lon="12.2869879"><ele>246.0</ele><time>2026-04-09T17:52:09Z</time></trkpt><trkpt lat="43.1079981" lon="12.2871493"><ele>251.0</ele><time>2026-04-09T17:52:09.999Z</time></trkpt><trkpt lat="43.1077681" lon="12.2873126"><ele>256.0</ele><time>2026-04-09T17:52:11Z</time></trkpt><trkpt lat="43.1075402" lon="12.2874686"><ele>252.5</ele><time>2026-04-09T17:52:11.999Z</time></trkpt><trkpt lat="43.1073112" lon="12.2876354"><ele>249.0</ele><time>2026-04-09T17:52:12.999Z</time></trkpt><trkpt lat="43.1070848" lon="12.2877978"><ele>249.0</ele><time>2026-04-09T17:52:13.999Z</time></trkpt><trkpt lat="43.1068627" lon="12.2879745"><ele>249.0</ele><time>2026-04-09T17:52:14.999Z</time></trkpt><trkpt lat="43.1066381" lon="12.2881587"><ele>250.5</ele><time>2026-04-09T17:52:15.999Z</time></trkpt><trkpt lat="43.1064183" lon="12.2883466"><ele>252.0</ele><time>2026-04-09T17:52:17Z</time></trkpt><trkpt lat="43.1062013" lon="12.2885455"><ele>252.0</ele><time>2026-04-09T17:52:18Z</time></trkpt><trkpt lat="43.1059896" lon="12.2887496"><ele>252.0</ele><time>2026-04-09T17:52:19Z</time></trkpt><trkpt lat="43.1057765" lon="12.2889676"><ele>251.5</ele><time>2026-04-09T17:52:19.999Z</time></trkpt><trkpt lat="43.1055685" lon="12.2891935"><ele>251.0</ele><time>2026-04-09T17:52:20.999Z</time></trkpt><trkpt lat="43.1053699" lon="12.2894255"><ele>251.0</ele><time>2026-04-09T17:52:22Z</time></trkpt><trkpt lat="43.1051692" lon="12.2896583"><ele>251.0</ele><time>2026-04-09T17:52:22.999Z</time></trkpt><trkpt lat="43.1049772" lon="12.2899053"><ele>247.5</ele><time>2026-04-09T17:52:24Z</time></trkpt><trkpt lat="43.1047982" lon="12.290152"><ele>244.0</ele><time>2026-04-09T17:52:25Z</time></trkpt><trkpt lat="43.1046187" lon="12.2904122"><ele>245.5</ele><time>2026-04-09T17:52:25.999Z</time></trkpt><trkpt lat="43.1044476" lon="12.2906742"><ele>247.0</ele><time>2026-04-09T17:52:26.999Z</time></trkpt><trkpt lat="43.1042801" lon="12.2909469"><ele>247.0</ele><time>2026-04-09T17:52:27.998Z</time></trkpt><trkpt lat="43.1041318" lon="12.2912337"><ele>247.0</ele><time>2026-04-09T17:52:28.999Z</time></trkpt><trkpt lat="43.103983" lon="12.2915245"><ele>249.0</ele><time>2026-04-09T17:52:29.999Z</time></trkpt><trkpt lat="43.1038388" lon="12.2918228"><ele>251.0</ele><time>2026-04-09T17:52:31Z</time></trkpt><trkpt lat="43.1037032" lon="12.2921267"><ele>254.5</ele><time>2026-04-09T17:52:31.999Z</time></trkpt><trkpt lat="43.1035668" lon="12.2924308"><ele>258.0</ele><time>2026-04-09T17:52:32.999Z</time></trkpt><trkpt lat="43.103435" lon="12.2927363"><ele>258.0</ele><time>2026-04-09T17:52:33.999Z</time></trkpt><trkpt lat="43.1033127" lon="12.2930436"><ele>258.0</ele><time>2026-04-09T17:52:34.998Z</time></trkpt><trkpt lat="43.1030735" lon="12.2936714"><ele>256.0</ele><time>2026-04-09T17:52:36.999Z</time></trkpt><trkpt lat="43.1029647" lon="12.2939906"><ele>254.0</ele><time>2026-04-09T17:52:37.999Z</time></trkpt><trkpt lat="43.10273" lon="12.2946344"><ele>251.0</ele><time>2026-04-09T17:52:39.998Z</time></trkpt><trkpt lat="43.102615" lon="12.2949499"><ele>248.0</ele><time>2026-04-09T17:52:41Z</time></trkpt><trkpt lat="43.102501" lon="12.2952689"><ele>244.5</ele><time>2026-04-09T17:52:42Z</time></trkpt><trkpt lat="43.1023906" lon="12.2955875"><ele>241.0</ele><time>2026-04-09T17:52:42.999Z</time></trkpt><trkpt lat="43.1021743" lon="12.296227"><ele>241.0</ele><time>2026-04-09T17:52:44.999Z</time></trkpt><trkpt lat="43.1019502" lon="12.2968585"><ele>241.0</ele><time>2026-04-09T17:52:46.999Z</time></trkpt><trkpt lat="43.1018371" lon="12.2971878"><ele>241.0</ele><time>2026-04-09T17:52:47.999Z</time></trkpt><trkpt lat="43.1016522" lon="12.2978514"><ele>241.5</ele><time>2026-04-09T17:52:50Z</time></trkpt><trkpt lat="43.1015812" lon="12.2981875"><ele>242.0</ele><time>2026-04-09T17:52:50.999Z</time></trkpt><trkpt lat="43.1015228" lon="12.2985272"><ele>242.0</ele><time>2026-04-09T17:52:52Z</time></trkpt><trkpt lat="43.1014578" lon="12.2988754"><ele>242.0</ele><time>2026-04-09T17:52:53Z</time></trkpt><trkpt lat="43.1014182" lon="12.299217"><ele>242.5</ele><time>2026-04-09T17:52:54Z</time></trkpt><trkpt lat="43.1013697" lon="12.2995704"><ele>243.0</ele><time>2026-04-09T17:52:54.999Z</time></trkpt><trkpt lat="43.1013285" lon="12.299923"><ele>243.0</ele><time>2026-04-09T17:52:56Z</time></trkpt><trkpt lat="43.1012955" lon="12.3002736"><ele>243.0</ele><time>2026-04-09T17:52:56.999Z</time></trkpt><trkpt lat="43.1012665" lon="12.3006286"><ele>247.0</ele><time>2026-04-09T17:52:57.998Z</time></trkpt><trkpt lat="43.1012114" lon="12.3013356"><ele>249.0</ele><time>2026-04-09T17:53:00Z</time></trkpt><trkpt lat="43.1011562" lon="12.302052"><ele>248.0</ele><time>2026-04-09T17:53:02Z</time></trkpt><trkpt lat="43.1011349" lon="12.302393"><ele>247.0</ele><time>2026-04-09T17:53:02.999Z</time></trkpt><trkpt lat="43.1011047" lon="12.3027507"><ele>246.0</ele><time>2026-04-09T17:53:03.999Z</time></trkpt><trkpt lat="43.1010804" lon="12.3031032"><ele>245.0</ele><time>2026-04-09T17:53:05Z</time></trkpt><trkpt lat="43.10105" lon="12.3034563"><ele>245.0</ele><time>2026-04-09T17:53:05.998Z</time></trkpt><trkpt lat="43.1010213" lon="12.3038084"><ele>245.0</ele><time>2026-04-09T17:53:06.999Z</time></trkpt><trkpt lat="43.100993" lon="12.3041587"><ele>245.0</ele><time>2026-04-09T17:53:08Z</time></trkpt><trkpt lat="43.100967" lon="12.3045162"><ele>245.0</ele><time>2026-04-09T17:53:08.999Z</time></trkpt><trkpt lat="43.1009416" lon="12.3048735"><ele>245.5</ele><time>2026-04-09T17:53:09.999Z</time></trkpt><trkpt lat="43.1009163" lon="12.3052293"><ele>246.0</ele><time>2026-04-09T17:53:11Z</time></trkpt><trkpt lat="43.1008941" lon="12.3055771"><ele>248.0</ele><time>2026-04-09T17:53:11.999Z</time></trkpt><trkpt lat="43.1008862" lon="12.305899"><ele>250.0</ele><time>2026-04-09T17:53:13Z</time></trkpt><trkpt lat="43.1008903" lon="12.3065324"><ele>251.0</ele><time>2026-04-09T17:53:14.999Z</time></trkpt><trkpt lat="43.1008993" lon="12.3068634"><ele>252.0</ele><time>2026-04-09T17:53:16Z</time></trkpt><trkpt lat="43.1009197" lon="12.3072102"><ele>252.0</ele><time>2026-04-09T17:53:16.999Z</time></trkpt><trkpt lat="43.1009476" lon="12.3075561"><ele>252.0</ele><time>2026-04-09T17:53:18Z</time></trkpt><trkpt lat="43.1009839" lon="12.3078942"><ele>250.0</ele><time>2026-04-09T17:53:19Z</time></trkpt><trkpt lat="43.1010621" lon="12.3085993"><ele>252.0</ele><time>2026-04-09T17:53:20.999Z</time></trkpt><trkpt lat="43.1011205" lon="12.3089547"><ele>254.0</ele><time>2026-04-09T17:53:22Z</time></trkpt><trkpt lat="43.1011727" lon="12.3093029"><ele>254.0</ele><time>2026-04-09T17:53:23Z</time></trkpt><trkpt lat="43.101225" lon="12.309649"><ele>254.0</ele><time>2026-04-09T17:53:24Z</time></trkpt><trkpt lat="43.1012741" lon="12.3099976"><ele>253.5</ele><time>2026-04-09T17:53:24.999Z</time></trkpt><trkpt lat="43.1013185" lon="12.310349"><ele>253.0</ele><time>2026-04-09T17:53:26Z</time></trkpt><trkpt lat="43.1013664" lon="12.3106973"><ele>254.0</ele><time>2026-04-09T17:53:27Z</time></trkpt><trkpt lat="43.1014182" lon="12.3110527"><ele>255.0</ele><time>2026-04-09T17:53:28Z</time></trkpt><trkpt lat="43.1014729" lon="12.3114071"><ele>257.0</ele><time>2026-04-09T17:53:29Z</time></trkpt><trkpt lat="43.1015211" lon="12.3117557"><ele>259.0</ele><time>2026-04-09T17:53:30Z</time></trkpt><trkpt lat="43.1015716" lon="12.3121079"><ele>261.0</ele><time>2026-04-09T17:53:31Z</time></trkpt><trkpt lat="43.101622" lon="12.3124581"><ele>263.0</ele><time>2026-04-09T17:53:32Z</time></trkpt><trkpt lat="43.1016713" lon="12.312805"><ele>265.0</ele><time>2026-04-09T17:53:32.999Z</time></trkpt><trkpt lat="43.1017713" lon="12.3134984"><ele>265.0</ele><time>2026-04-09T17:53:34.999Z</time></trkpt><trkpt lat="43.1018274" lon="12.3138405"><ele>265.0</ele><time>2026-04-09T17:53:36Z</time></trkpt><trkpt lat="43.1019258" lon="12.3145344"><ele>266.0</ele><time>2026-04-09T17:53:38Z</time></trkpt><trkpt lat="43.1019761" lon="12.3148787"><ele>267.0</ele><time>2026-04-09T17:53:39Z</time></trkpt><trkpt lat="43.1020276" lon="12.315225"><ele>267.0</ele><time>2026-04-09T17:53:40Z</time></trkpt><trkpt lat="43.1020784" lon="12.3155692"><ele>267.0</ele><time>2026-04-09T17:53:41Z</time></trkpt><trkpt lat="43.1021868" lon="12.3162629"><ele>267.0</ele><time>2026-04-09T17:53:43Z</time></trkpt><trkpt lat="43.1023112" lon="12.3169484"><ele>274.0</ele><time>2026-04-09T17:53:44.999Z</time></trkpt><trkpt lat="43.1024482" lon="12.3176128"><ele>275.0</ele><time>2026-04-09T17:53:47Z</time></trkpt><trkpt lat="43.1026007" lon="12.3182863"><ele>276.0</ele><time>2026-04-09T17:53:49Z</time></trkpt><trkpt lat="43.1027778" lon="12.3189705"><ele>276.0</ele><time>2026-04-09T17:53:51Z</time></trkpt><trkpt lat="43.1028667" lon="12.3193012"><ele>276.0</ele><time>2026-04-09T17:53:51.999Z</time></trkpt><trkpt lat="43.1029559" lon="12.3196366"><ele>275.0</ele><time>2026-04-09T17:53:53Z</time></trkpt><trkpt lat="43.1030459" lon="12.3199685"><ele>274.0</ele><time>2026-04-09T17:53:54Z</time></trkpt><trkpt lat="43.1031438" lon="12.320302"><ele>274.5</ele><time>2026-04-09T17:53:54.999Z</time></trkpt><trkpt lat="43.1032465" lon="12.320629"><ele>275.0</ele><time>2026-04-09T17:53:56Z</time></trkpt><trkpt lat="43.1033511" lon="12.3209534"><ele>277.0</ele><time>2026-04-09T17:53:57Z</time></trkpt><trkpt lat="43.1034577" lon="12.3212769"><ele>279.0</ele><time>2026-04-09T17:53:57.999Z</time></trkpt><trkpt lat="43.1035665" lon="12.3215999"><ele>279.0</ele><time>2026-04-09T17:53:58.999Z</time></trkpt><trkpt lat="43.1036786" lon="12.3219149"><ele>279.0</ele><time>2026-04-09T17:54:00Z</time></trkpt><trkpt lat="43.1037914" lon="12.3222247"><ele>277.0</ele><time>2026-04-09T17:54:00.999Z</time></trkpt><trkpt lat="43.1039033" lon="12.3225409"><ele>275.0</ele><time>2026-04-09T17:54:02Z</time></trkpt><trkpt lat="43.1041343" lon="12.3231737"><ele>279.0</ele><time>2026-04-09T17:54:04Z</time></trkpt><trkpt lat="43.1042436" lon="12.3234845"><ele>283.0</ele><time>2026-04-09T17:54:05Z</time></trkpt><trkpt lat="43.1043563" lon="12.3238072"><ele>282.5</ele><time>2026-04-09T17:54:06Z</time></trkpt><trkpt lat="43.104472" lon="12.3241277"><ele>282.0</ele><time>2026-04-09T17:54:07Z</time></trkpt><trkpt lat="43.1045901" lon="12.3244487"><ele>283.0</ele><time>2026-04-09T17:54:07.999Z</time></trkpt><trkpt lat="43.1047041" lon="12.3247625"><ele>284.0</ele><time>2026-04-09T17:54:09Z</time></trkpt><trkpt lat="43.1049435" lon="12.3254006"><ele>287.0</ele><time>2026-04-09T17:54:10.999Z</time></trkpt><trkpt lat="43.1050566" lon="12.3257223"><ele>290.0</ele><time>2026-04-09T17:54:12Z</time></trkpt><trkpt lat="43.1051709" lon="12.3260359"><ele>290.0</ele><time>2026-04-09T17:54:12.999Z</time></trkpt><trkpt lat="43.105284" lon="12.3263589"><ele>290.0</ele><time>2026-04-09T17:54:14Z</time></trkpt><trkpt lat="43.1053971" lon="12.3266802"><ele>292.0</ele><time>2026-04-09T17:54:15Z</time></trkpt><trkpt lat="43.1055026" lon="12.3270035"><ele>294.0</ele><time>2026-04-09T17:54:16Z</time></trkpt><trkpt lat="43.1056111" lon="12.3273275"><ele>296.5</ele><time>2026-04-09T17:54:16.999Z</time></trkpt><trkpt lat="43.1057137" lon="12.327657"><ele>299.0</ele><time>2026-04-09T17:54:18Z</time></trkpt><trkpt lat="43.1058938" lon="12.3283107"><ele>299.0</ele><time>2026-04-09T17:54:19.999Z</time></trkpt><trkpt lat="43.1059641" lon="12.3286499"><ele>299.0</ele><time>2026-04-09T17:54:20.999Z</time></trkpt><trkpt lat="43.1060225" lon="12.3290013"><ele>305.0</ele><time>2026-04-09T17:54:21.999Z</time></trkpt><trkpt lat="43.1060947" lon="12.3297044"><ele>307.5</ele><time>2026-04-09T17:54:24Z</time></trkpt><trkpt lat="43.1061101" lon="12.330058"><ele>310.0</ele><time>2026-04-09T17:54:25Z</time></trkpt><trkpt lat="43.1061102" lon="12.3307572"><ele>310.0</ele><time>2026-04-09T17:54:27Z</time></trkpt><trkpt lat="43.1060875" lon="12.3311027"><ele>310.0</ele><time>2026-04-09T17:54:28Z</time></trkpt><trkpt lat="43.1060004" lon="12.3317909"><ele>308.0</ele><time>2026-04-09T17:54:30Z</time></trkpt><trkpt lat="43.1059399" lon="12.3321365"><ele>306.0</ele><time>2026-04-09T17:54:31Z</time></trkpt><trkpt lat="43.105877" lon="12.3324911"><ele>315.0</ele><time>2026-04-09T17:54:31.999Z</time></trkpt><trkpt lat="43.1057313" lon="12.3331738"><ele>315.0</ele><time>2026-04-09T17:54:34Z</time></trkpt><trkpt lat="43.1056596" lon="12.3335173"><ele>315.0</ele><time>2026-04-09T17:54:34.999Z</time></trkpt><trkpt lat="43.1055945" lon="12.3338613"><ele>315.0</ele><time>2026-04-09T17:54:36Z</time></trkpt><trkpt lat="43.1055191" lon="12.3342056"><ele>315.0</ele><time>2026-04-09T17:54:37Z</time></trkpt><trkpt lat="43.1054402" lon="12.3345489"><ele>314.0</ele><time>2026-04-09T17:54:38Z</time></trkpt><trkpt lat="43.1053719" lon="12.3348926"><ele>313.0</ele><time>2026-04-09T17:54:38.999Z</time></trkpt><trkpt lat="43.1052993" lon="12.3352382"><ele>309.5</ele><time>2026-04-09T17:54:40Z</time></trkpt><trkpt lat="43.1052269" lon="12.3355817"><ele>306.0</ele><time>2026-04-09T17:54:41Z</time></trkpt><trkpt lat="43.1051555" lon="12.3359209"><ele>306.0</ele><time>2026-04-09T17:54:42Z</time></trkpt><trkpt lat="43.1050832" lon="12.3362582"><ele>306.0</ele><time>2026-04-09T17:54:43Z</time></trkpt><trkpt lat="43.105016" lon="12.3365988"><ele>305.0</ele><time>2026-04-09T17:54:44Z</time></trkpt><trkpt lat="43.1049471" lon="12.3369426"><ele>304.0</ele><time>2026-04-09T17:54:44.999Z</time></trkpt><trkpt lat="43.1048696" lon="12.3372875"><ele>306.0</ele><time>2026-04-09T17:54:46Z</time></trkpt><trkpt lat="43.1047865" lon="12.3376196"><ele>308.0</ele><time>2026-04-09T17:54:47Z</time></trkpt><trkpt lat="43.1046981" lon="12.3379563"><ele>306.0</ele><time>2026-04-09T17:54:47.999Z</time></trkpt><trkpt lat="43.1046041" lon="12.3382932"><ele>304.0</ele><time>2026-04-09T17:54:49Z</time></trkpt><trkpt lat="43.1044982" lon="12.338621"><ele>303.5</ele><time>2026-04-09T17:54:49.998Z</time></trkpt><trkpt lat="43.1043883" lon="12.3389459"><ele>303.0</ele><time>2026-04-09T17:54:51Z</time></trkpt><trkpt lat="43.104272" lon="12.3392665"><ele>303.0</ele><time>2026-04-09T17:54:52Z</time></trkpt><trkpt lat="43.1041472" lon="12.3395788"><ele>303.0</ele><time>2026-04-09T17:54:53Z</time></trkpt><trkpt lat="43.1040148" lon="12.3398876"><ele>304.0</ele><time>2026-04-09T17:54:53.998Z</time></trkpt><trkpt lat="43.103874" lon="12.3401895"><ele>305.0</ele><time>2026-04-09T17:54:55Z</time></trkpt><trkpt lat="43.1037284" lon="12.3404896"><ele>303.5</ele><time>2026-04-09T17:54:56Z</time></trkpt><trkpt lat="43.1035824" lon="12.3407876"><ele>302.0</ele><time>2026-04-09T17:54:57Z</time></trkpt><trkpt lat="43.1034297" lon="12.3410745"><ele>302.0</ele><time>2026-04-09T17:54:58Z</time></trkpt><trkpt lat="43.1032826" lon="12.3413561"><ele>302.0</ele><time>2026-04-09T17:54:58.999Z</time></trkpt><trkpt lat="43.1031327" lon="12.3416461"><ele>303.0</ele><time>2026-04-09T17:55:00Z</time></trkpt><trkpt lat="43.1029839" lon="12.3419377"><ele>304.0</ele><time>2026-04-09T17:55:01Z</time></trkpt><trkpt lat="43.1028369" lon="12.3422338"><ele>300.5</ele><time>2026-04-09T17:55:02Z</time></trkpt><trkpt lat="43.102687" lon="12.3425248"><ele>297.0</ele><time>2026-04-09T17:55:03Z</time></trkpt><trkpt lat="43.1025328" lon="12.3428193"><ele>298.5</ele><time>2026-04-09T17:55:04Z</time></trkpt><trkpt lat="43.1023848" lon="12.3431107"><ele>300.0</ele><time>2026-04-09T17:55:04.999Z</time></trkpt><trkpt lat="43.1022343" lon="12.3433949"><ele>300.0</ele><time>2026-04-09T17:55:06Z</time></trkpt><trkpt lat="43.1020805" lon="12.3436819"><ele>300.0</ele><time>2026-04-09T17:55:07Z</time></trkpt><trkpt lat="43.1019227" lon="12.3439711"><ele>299.5</ele><time>2026-04-09T17:55:07.999Z</time></trkpt><trkpt lat="43.1017753" lon="12.3442631"><ele>299.0</ele><time>2026-04-09T17:55:09Z</time></trkpt><trkpt lat="43.1016311" lon="12.3445571"><ele>299.5</ele><time>2026-04-09T17:55:10Z</time></trkpt><trkpt lat="43.1015017" lon="12.3448608"><ele>300.0</ele><time>2026-04-09T17:55:11Z</time></trkpt><trkpt lat="43.1013908" lon="12.3451802"><ele>300.0</ele><time>2026-04-09T17:55:12Z</time></trkpt><trkpt lat="43.1013063" lon="12.3455083"><ele>300.0</ele><time>2026-04-09T17:55:13Z</time></trkpt><trkpt lat="43.1012187" lon="12.3458411"><ele>296.0</ele><time>2026-04-09T17:55:13.999Z</time></trkpt><trkpt lat="43.1011545" lon="12.3461819"><ele>292.0</ele><time>2026-04-09T17:55:14.999Z</time></trkpt><trkpt lat="43.10108" lon="12.3465159"><ele>290.5</ele><time>2026-04-09T17:55:16Z</time></trkpt><trkpt lat="43.1010058" lon="12.3468643"><ele>289.0</ele><time>2026-04-09T17:55:17Z</time></trkpt><trkpt lat="43.1009358" lon="12.3472041"><ele>288.0</ele><time>2026-04-09T17:55:18Z</time></trkpt><trkpt lat="43.1008611" lon="12.3475429"><ele>287.0</ele><time>2026-04-09T17:55:18.999Z</time></trkpt><trkpt lat="43.1007876" lon="12.347884"><ele>291.0</ele><time>2026-04-09T17:55:19.999Z</time></trkpt><trkpt lat="43.1007103" lon="12.3482173"><ele>295.0</ele><time>2026-04-09T17:55:21Z</time></trkpt><trkpt lat="43.1006364" lon="12.3485565"><ele>292.0</ele><time>2026-04-09T17:55:22Z</time></trkpt><trkpt lat="43.1005635" lon="12.3488915"><ele>289.0</ele><time>2026-04-09T17:55:23Z</time></trkpt><trkpt lat="43.1004828" lon="12.3492131"><ele>289.0</ele><time>2026-04-09T17:55:24Z</time></trkpt><trkpt lat="43.1003982" lon="12.349539"><ele>289.0</ele><time>2026-04-09T17:55:25Z</time></trkpt><trkpt lat="43.1003099" lon="12.3498611"><ele>283.5</ele><time>2026-04-09T17:55:25.998Z</time></trkpt><trkpt lat="43.1002117" lon="12.350173"><ele>278.0</ele><time>2026-04-09T17:55:27Z</time></trkpt><trkpt lat="43.1001185" lon="12.3504838"><ele>276.0</ele><time>2026-04-09T17:55:28Z</time></trkpt><trkpt lat="43.1000108" lon="12.350792"><ele>274.0</ele><time>2026-04-09T17:55:29Z</time></trkpt><trkpt lat="43.0998921" lon="12.3510945"><ele>273.0</ele><time>2026-04-09T17:55:30Z</time></trkpt><trkpt lat="43.0997784" lon="12.3513869"><ele>272.0</ele><time>2026-04-09T17:55:31Z</time></trkpt><trkpt lat="43.0996542" lon="12.3516793"><ele>272.0</ele><time>2026-04-09T17:55:32Z</time></trkpt><trkpt lat="43.0995219" lon="12.3519688"><ele>272.0</ele><time>2026-04-09T17:55:32.999Z</time></trkpt><trkpt lat="43.0992498" lon="12.3525278"><ele>271.0</ele><time>2026-04-09T17:55:35Z</time></trkpt><trkpt lat="43.0991068" lon="12.3528179"><ele>270.0</ele><time>2026-04-09T17:55:35.999Z</time></trkpt><trkpt lat="43.0989589" lon="12.3531076"><ele>269.0</ele><time>2026-04-09T17:55:37Z</time></trkpt><trkpt lat="43.0988106" lon="12.3533968"><ele>268.0</ele><time>2026-04-09T17:55:38Z</time></trkpt><trkpt lat="43.0986669" lon="12.3536868"><ele>266.5</ele><time>2026-04-09T17:55:39Z</time></trkpt><trkpt lat="43.0985249" lon="12.3539711"><ele>265.0</ele><time>2026-04-09T17:55:40Z</time></trkpt><trkpt lat="43.0983886" lon="12.3542508"><ele>265.0</ele><time>2026-04-09T17:55:41Z</time></trkpt><trkpt lat="43.0982609" lon="12.3545236"><ele>265.0</ele><time>2026-04-09T17:55:42Z</time></trkpt><trkpt lat="43.0980051" lon="12.3550476"><ele>263.0</ele><time>2026-04-09T17:55:43.998Z</time></trkpt><trkpt lat="43.0978775" lon="12.3553027"><ele>261.0</ele><time>2026-04-09T17:55:44.999Z</time></trkpt><trkpt lat="43.0977542" lon="12.3555597"><ele>261.0</ele><time>2026-04-09T17:55:46Z</time></trkpt><trkpt lat="43.0976284" lon="12.3558139"><ele>261.0</ele><time>2026-04-09T17:55:47Z</time></trkpt><trkpt lat="43.0975122" lon="12.3560643"><ele>261.0</ele><time>2026-04-09T17:55:47.999Z</time></trkpt><trkpt lat="43.0973935" lon="12.3562991"><ele>261.6666666666667</ele><time>2026-04-09T17:55:49Z</time></trkpt><trkpt lat="43.0972831" lon="12.356532"><ele>262.33333333333337</ele><time>2026-04-09T17:55:50Z</time></trkpt><trkpt lat="43.0971744" lon="12.3567533"><ele>263.0</ele><time>2026-04-09T17:55:51Z</time></trkpt><trkpt lat="43.0970693" lon="12.356963"><ele>263.0</ele><time>2026-04-09T17:55:52Z</time></trkpt><trkpt lat="43.0969683" lon="12.3571527"><ele>263.0</ele><time>2026-04-09T17:55:52.999Z</time></trkpt><trkpt lat="43.0968729" lon="12.3573171"><ele>263.0</ele><time>2026-04-09T17:55:54Z</time></trkpt><trkpt lat="43.0967836" lon="12.3574633"><ele>263.0</ele><time>2026-04-09T17:55:55Z</time></trkpt><trkpt lat="43.0967087" lon="12.357584"><ele>263.0</ele><time>2026-04-09T17:55:55.999Z</time></trkpt><trkpt lat="43.0966269" lon="12.3576865"><ele>263.0</ele><time>2026-04-09T17:55:57Z</time></trkpt><trkpt lat="43.0964495" lon="12.3577884"><ele>263.0</ele><time>2026-04-09T17:55:59Z</time></trkpt><trkpt lat="43.0963495" lon="12.3577962"><ele>263.0</ele><time>2026-04-09T17:55:59.999Z</time></trkpt><trkpt lat="43.0962565" lon="12.3577763"><ele>263.0</ele><time>2026-04-09T17:56:01Z</time></trkpt><trkpt lat="43.0961654" lon="12.3577309"><ele>263.0</ele><time>2026-04-09T17:56:02Z</time></trkpt><trkpt lat="43.0960871" lon="12.3576637"><ele>263.0</ele><time>2026-04-09T17:56:03Z</time></trkpt><trkpt lat="43.0960182" lon="12.357577"><ele>263.0</ele><time>2026-04-09T17:56:04Z</time></trkpt><trkpt lat="43.0959405" lon="12.3573484"><ele>263.0</ele><time>2026-04-09T17:56:06Z</time></trkpt><trkpt lat="43.0959225" lon="12.3572299"><ele>263.0</ele><time>2026-04-09T17:56:07Z</time></trkpt><trkpt lat="43.0959256" lon="12.35712"><ele>263.0</ele><time>2026-04-09T17:56:08Z</time></trkpt><trkpt lat="43.0959456" lon="12.3570238"><ele>263.0</ele><time>2026-04-09T17:56:09Z</time></trkpt><trkpt lat="43.0959765" lon="12.356942"><ele>263.0</ele><time>2026-04-09T17:56:10Z</time></trkpt><trkpt lat="43.0960245" lon="12.3568539"><ele>263.0</ele><time>2026-04-09T17:56:11Z</time></trkpt><trkpt lat="43.0960933" lon="12.35677"><ele>263.0</ele><time>2026-04-09T17:56:11.999Z</time></trkpt><trkpt lat="43.0961894" lon="12.3567094"><ele>263.0</ele><time>2026-04-09T17:56:12.999Z</time></trkpt><trkpt lat="43.0964641" lon="12.3566346"><ele>263.0</ele><time>2026-04-09T17:56:15Z</time></trkpt><trkpt lat="43.0966077" lon="12.3566072"><ele>263.0</ele><time>2026-04-09T17:56:16Z</time></trkpt><trkpt lat="43.096751" lon="12.3566023"><ele>263.0</ele><time>2026-04-09T17:56:17Z</time></trkpt><trkpt lat="43.0968817" lon="12.3565954"><ele>263.0</ele><time>2026-04-09T17:56:18Z</time></trkpt><trkpt lat="43.0970102" lon="12.3565893"><ele>263.0</ele><time>2026-04-09T17:56:19Z</time></trkpt><trkpt lat="43.0971286" lon="12.3565817"><ele>263.0</ele><time>2026-04-09T17:56:20Z</time></trkpt><trkpt lat="43.0972403" lon="12.3565648"><ele>263.0</ele><time>2026-04-09T17:56:21Z</time></trkpt><trkpt lat="43.0973435" lon="12.3565511"><ele>263.0</ele><time>2026-04-09T17:56:22Z</time></trkpt><trkpt lat="43.097432" lon="12.3565216"><ele>263.0</ele><time>2026-04-09T17:56:23.001Z</time></trkpt><trkpt lat="43.0975191" lon="12.3565189"><ele>263.0</ele><time>2026-04-09T17:56:24.001Z</time></trkpt><trkpt lat="43.0975975" lon="12.3565094"><ele>263.33333333333337</ele><time>2026-04-09T17:56:25Z</time></trkpt><trkpt lat="43.0976749" lon="12.3565281"><ele>263.6666666666667</ele><time>2026-04-09T17:56:26Z</time></trkpt><trkpt lat="43.0977763" lon="12.3566019"><ele>264.0</ele><time>2026-04-09T17:56:28Z</time></trkpt><trkpt lat="43.0978274" lon="12.3566544"><ele>264.3333333333333</ele><time>2026-04-09T17:56:29Z</time></trkpt><trkpt lat="43.0978845" lon="12.3567134"><ele>264.66666666666663</ele><time>2026-04-09T17:56:30Z</time></trkpt><trkpt lat="43.0979535" lon="12.3567619"><ele>265.0</ele><time>2026-04-09T17:56:31Z</time></trkpt><trkpt lat="43.0981223" lon="12.3567844"><ele>265.0</ele><time>2026-04-09T17:56:33Z</time></trkpt><trkpt lat="43.0982047" lon="12.3567432"><ele>265.0</ele><time>2026-04-09T17:56:34Z</time></trkpt><trkpt lat="43.098259" lon="12.3566742"><ele>265.0</ele><time>2026-04-09T17:56:35Z</time></trkpt><trkpt lat="43.09831" lon="12.3565949"><ele>265.0</ele><time>2026-04-09T17:56:36Z</time></trkpt><trkpt lat="43.0983804" lon="12.3565399"><ele>265.0</ele><time>2026-04-09T17:56:37Z</time></trkpt><trkpt lat="43.0984644" lon="12.356509"><ele>265.0</ele><time>2026-04-09T17:56:38Z</time></trkpt><trkpt lat="43.0985637" lon="12.3565026"><ele>264.0</ele><time>2026-04-09T17:56:38.999Z</time></trkpt><trkpt lat="43.0987801" lon="12.3565025"><ele>263.0</ele><time>2026-04-09T17:56:41Z</time></trkpt><trkpt lat="43.0990233" lon="12.3565454"><ele>262.33333333333337</ele><time>2026-04-09T17:56:42.999Z</time></trkpt><trkpt lat="43.0991455" lon="12.3565853"><ele>261.6666666666667</ele><time>2026-04-09T17:56:44Z</time></trkpt><trkpt lat="43.0993632" lon="12.3566726"><ele>261.0</ele><time>2026-04-09T17:56:46Z</time></trkpt><trkpt lat="43.0995657" lon="12.3567805"><ele>261.0</ele><time>2026-04-09T17:56:48Z</time></trkpt><trkpt lat="43.0996669" lon="12.3568339"><ele>261.0</ele><time>2026-04-09T17:56:49Z</time></trkpt><trkpt lat="43.0998519" lon="12.3569411"><ele>261.0</ele><time>2026-04-09T17:56:51Z</time></trkpt><trkpt lat="43.1000186" lon="12.3570341"><ele>261.0</ele><time>2026-04-09T17:56:53Z</time></trkpt><trkpt lat="43.1000964" lon="12.3570755"><ele>261.0</ele><time>2026-04-09T17:56:54Z</time></trkpt><trkpt lat="43.1001782" lon="12.3571074"><ele>261.0</ele><time>2026-04-09T17:56:55Z</time></trkpt><trkpt lat="43.1003283" lon="12.357178"><ele>261.0</ele><time>2026-04-09T17:56:56.999Z</time></trkpt><trkpt lat="43.1003979" lon="12.3572137"><ele>261.0</ele><time>2026-04-09T17:56:58Z</time></trkpt><trkpt lat="43.100492" lon="12.3573019"><ele>261.0</ele><time>2026-04-09T17:57:00Z</time></trkpt><trkpt lat="43.1005499" lon="12.3574126"><ele>261.0</ele><time>2026-04-09T17:57:01.999Z</time></trkpt><trkpt lat="43.1005491" lon="12.3575113"><ele>261.0</ele><time>2026-04-09T17:57:04Z</time></trkpt><trkpt lat="43.1005294" lon="12.3576331"><ele>261.0</ele><time>2026-04-09T17:57:05.999Z</time></trkpt><trkpt lat="43.1005587" lon="12.3577481"><ele>261.0</ele><time>2026-04-09T17:57:08Z</time></trkpt><trkpt lat="43.1006515" lon="12.3578286"><ele>261.0</ele><time>2026-04-09T17:57:10Z</time></trkpt><trkpt lat="43.1007156" lon="12.3578382"><ele>261.0</ele><time>2026-04-09T17:57:11Z</time></trkpt><trkpt lat="43.1007812" lon="12.3578242"><ele>261.0</ele><time>2026-04-09T17:57:11.999Z</time></trkpt><trkpt lat="43.1008447" lon="12.3578036"><ele>261.0</ele><time>2026-04-09T17:57:12.999Z</time></trkpt><trkpt lat="43.100907" lon="12.3577779"><ele>261.0</ele><time>2026-04-09T17:57:14Z</time></trkpt><trkpt lat="43.1009754" lon="12.3577745"><ele>261.0</ele><time>2026-04-09T17:57:15Z</time></trkpt><trkpt lat="43.1010581" lon="12.3578059"><ele>261.0</ele><time>2026-04-09T17:57:15.999Z</time></trkpt><trkpt lat="43.1011563" lon="12.3578657"><ele>262.0</ele><time>2026-04-09T17:57:17Z</time></trkpt><trkpt lat="43.1013198" lon="12.358006"><ele>263.0</ele><time>2026-04-09T17:57:19Z</time></trkpt><trkpt lat="43.1014021" lon="12.3580793"><ele>264.0</ele><time>2026-04-09T17:57:20Z</time></trkpt><trkpt lat="43.1014831" lon="12.3581562"><ele>265.0</ele><time>2026-04-09T17:57:21Z</time></trkpt><trkpt lat="43.1015684" lon="12.3582415"><ele>265.25</ele><time>2026-04-09T17:57:22Z</time></trkpt><trkpt lat="43.101665" lon="12.3583261"><ele>265.5</ele><time>2026-04-09T17:57:23Z</time></trkpt><trkpt lat="43.1017753" lon="12.3584197"><ele>265.75</ele><time>2026-04-09T17:57:24Z</time></trkpt><trkpt lat="43.1018882" lon="12.3585119"><ele>266.0</ele><time>2026-04-09T17:57:25Z</time></trkpt><trkpt lat="43.1020033" lon="12.3585922"><ele>266.0</ele><time>2026-04-09T17:57:26Z</time></trkpt><trkpt lat="43.1021995" lon="12.3587455"><ele>266.0</ele><time>2026-04-09T17:57:28Z</time></trkpt><trkpt lat="43.1024066" lon="12.3588967"><ele>266.0</ele><time>2026-04-09T17:57:30Z</time></trkpt><trkpt lat="43.1025119" lon="12.3589808"><ele>266.0</ele><time>2026-04-09T17:57:31Z</time></trkpt><trkpt lat="43.102627" lon="12.3590746"><ele>266.0</ele><time>2026-04-09T17:57:32Z</time></trkpt><trkpt lat="43.1027522" lon="12.3591692"><ele>266.0</ele><time>2026-04-09T17:57:33Z</time></trkpt><trkpt lat="43.1029788" lon="12.3593311"><ele>266.0</ele><time>2026-04-09T17:57:34.999Z</time></trkpt><trkpt lat="43.1030842" lon="12.3594155"><ele>266.0</ele><time>2026-04-09T17:57:36Z</time></trkpt><trkpt lat="43.1031969" lon="12.3594878"><ele>266.0</ele><time>2026-04-09T17:57:37Z</time></trkpt><trkpt lat="43.103313" lon="12.3595623"><ele>266.0</ele><time>2026-04-09T17:57:37.999Z</time></trkpt><trkpt lat="43.1034414" lon="12.3596359"><ele>265.75</ele><time>2026-04-09T17:57:39Z</time></trkpt><trkpt lat="43.1035701" lon="12.3597038"><ele>265.5</ele><time>2026-04-09T17:57:40Z</time></trkpt><trkpt lat="43.1037133" lon="12.3597699"><ele>265.25</ele><time>2026-04-09T17:57:41Z</time></trkpt><trkpt lat="43.1038604" lon="12.3598318"><ele>265.0</ele><time>2026-04-09T17:57:42Z</time></trkpt><trkpt lat="43.1040115" lon="12.3598743"><ele>265.5</ele><time>2026-04-09T17:57:43Z</time></trkpt><trkpt lat="43.1041591" lon="12.359906"><ele>266.0</ele><time>2026-04-09T17:57:44Z</time></trkpt><trkpt lat="43.1042862" lon="12.3599142"><ele>266.5</ele><time>2026-04-09T17:57:45Z</time></trkpt><trkpt lat="43.1044359" lon="12.3599123"><ele>267.0</ele><time>2026-04-09T17:57:46Z</time></trkpt><trkpt lat="43.1045723" lon="12.3598902"><ele>267.0</ele><time>2026-04-09T17:57:47Z</time></trkpt><trkpt lat="43.1047058" lon="12.3598663"><ele>267.0</ele><time>2026-04-09T17:57:48Z</time></trkpt><trkpt lat="43.1048292" lon="12.3598302"><ele>267.0</ele><time>2026-04-09T17:57:49Z</time></trkpt><trkpt lat="43.1049514" lon="12.3597934"><ele>267.0</ele><time>2026-04-09T17:57:50Z</time></trkpt><trkpt lat="43.1050819" lon="12.3597333"><ele>266.5</ele><time>2026-04-09T17:57:51Z</time></trkpt><trkpt lat="43.1053947" lon="12.3596062"><ele>266.0</ele><time>2026-04-09T17:57:53Z</time></trkpt><trkpt lat="43.1055724" lon="12.3595465"><ele>266.0</ele><time>2026-04-09T17:57:54Z</time></trkpt><trkpt lat="43.1057411" lon="12.3594835"><ele>266.0</ele><time>2026-04-09T17:57:55Z</time></trkpt><trkpt lat="43.1058947" lon="12.3594148"><ele>266.0</ele><time>2026-04-09T17:57:56Z</time></trkpt><trkpt lat="43.1060481" lon="12.35934"><ele>265.6666666666667</ele><time>2026-04-09T17:57:57Z</time></trkpt><trkpt lat="43.1062173" lon="12.3592679"><ele>265.3333333333333</ele><time>2026-04-09T17:57:58Z</time></trkpt><trkpt lat="43.1063846" lon="12.359195"><ele>265.0</ele><time>2026-04-09T17:57:59Z</time></trkpt><trkpt lat="43.1065376" lon="12.3591196"><ele>265.5</ele><time>2026-04-09T17:58:00Z</time></trkpt><trkpt lat="43.1068612" lon="12.3589587"><ele>266.0</ele><time>2026-04-09T17:58:02Z</time></trkpt><trkpt lat="43.1070148" lon="12.3588753"><ele>266.6666666666667</ele><time>2026-04-09T17:58:03Z</time></trkpt><trkpt lat="43.1071625" lon="12.3587894"><ele>267.3333333333333</ele><time>2026-04-09T17:58:04Z</time></trkpt><trkpt lat="43.1073075" lon="12.3586965"><ele>268.0</ele><time>2026-04-09T17:58:04.999Z</time></trkpt><trkpt lat="43.1075795" lon="12.3585429"><ele>268.0</ele><time>2026-04-09T17:58:07Z</time></trkpt><trkpt lat="43.1077036" lon="12.3584671"><ele>268.0</ele><time>2026-04-09T17:58:08Z</time></trkpt><trkpt lat="43.1079549" lon="12.3583094"><ele>268.0</ele><time>2026-04-09T17:58:09.999Z</time></trkpt><trkpt lat="43.1081936" lon="12.3581653"><ele>268.0</ele><time>2026-04-09T17:58:12.001Z</time></trkpt><trkpt lat="43.1084166" lon="12.358062"><ele>268.0</ele><time>2026-04-09T17:58:14Z</time></trkpt><trkpt lat="43.1085328" lon="12.3580225"><ele>268.0</ele><time>2026-04-09T17:58:15Z</time></trkpt><trkpt lat="43.1086335" lon="12.3580006"><ele>268.0</ele><time>2026-04-09T17:58:16Z</time></trkpt><trkpt lat="43.1087311" lon="12.3579965"><ele>268.0</ele><time>2026-04-09T17:58:17Z</time></trkpt><trkpt lat="43.1088302" lon="12.3580137"><ele>268.0</ele><time>2026-04-09T17:58:18Z</time></trkpt><trkpt lat="43.1089258" lon="12.3580467"><ele>268.0</ele><time>2026-04-09T17:58:19Z</time></trkpt><trkpt lat="43.1090203" lon="12.358098"><ele>268.0</ele><time>2026-04-09T17:58:20Z</time></trkpt><trkpt lat="43.1091079" lon="12.358162"><ele>270.5</ele><time>2026-04-09T17:58:21.001Z</time></trkpt><trkpt lat="43.1093464" lon="12.3583819"><ele>273.0</ele><time>2026-04-09T17:58:23.001Z</time></trkpt><trkpt lat="43.1094851" lon="12.3585542"><ele>272.5</ele><time>2026-04-09T17:58:24Z</time></trkpt><trkpt lat="43.1097234" lon="12.3589012"><ele>272.0</ele><time>2026-04-09T17:58:26.001Z</time></trkpt><trkpt lat="43.1098245" lon="12.3590524"><ele>272.4</ele><time>2026-04-09T17:58:27Z</time></trkpt><trkpt lat="43.1099127" lon="12.3591714"><ele>272.79999999999995</ele><time>2026-04-09T17:58:28Z</time></trkpt><trkpt lat="43.1099934" lon="12.3592779"><ele>273.2</ele><time>2026-04-09T17:58:29Z</time></trkpt><trkpt lat="43.1100743" lon="12.3593704"><ele>273.59999999999997</ele><time>2026-04-09T17:58:30Z</time></trkpt><trkpt lat="43.1101504" lon="12.3594595"><ele>274.0</ele><time>2026-04-09T17:58:31Z</time></trkpt><trkpt lat="43.1102283" lon="12.3595453"><ele>274.0</ele><time>2026-04-09T17:58:32Z</time></trkpt><trkpt lat="43.1103124" lon="12.3596285"><ele>274.0</ele><time>2026-04-09T17:58:32.999Z</time></trkpt><trkpt lat="43.1104076" lon="12.3597094"><ele>274.0</ele><time>2026-04-09T17:58:34Z</time></trkpt><trkpt lat="43.1104911" lon="12.3597841"><ele>274.0</ele><time>2026-04-09T17:58:35Z</time></trkpt><trkpt lat="43.1105659" lon="12.3598506"><ele>274.0</ele><time>2026-04-09T17:58:36.001Z</time></trkpt><trkpt lat="43.1106389" lon="12.3599185"><ele>274.0</ele><time>2026-04-09T17:58:37Z</time></trkpt><trkpt lat="43.1107102" lon="12.3599843"><ele>274.0</ele><time>2026-04-09T17:58:38Z</time></trkpt><trkpt lat="43.1107691" lon="12.3600385"><ele>274.0</ele><time>2026-04-09T17:58:39Z</time></trkpt><trkpt lat="43.1108241" lon="12.3600907"><ele>274.0</ele><time>2026-04-09T17:58:40Z</time></trkpt><trkpt lat="43.1108891" lon="12.360152"><ele>274.0</ele><time>2026-04-09T17:58:43Z</time></trkpt><trkpt lat="43.1109563" lon="12.3602115"><ele>274.0</ele><time>2026-04-09T17:58:46Z</time></trkpt><trkpt lat="43.1110031" lon="12.3603234"><ele>274.0</ele><time>2026-04-09T17:58:49Z</time></trkpt><trkpt lat="43.1110226" lon="12.3604207"><ele>274.0</ele><time>2026-04-09T17:58:51Z</time></trkpt><trkpt lat="43.1110837" lon="12.3605207"><ele>274.0</ele><time>2026-04-09T17:58:53Z</time></trkpt><trkpt lat="43.1111456" lon="12.360559"><ele>274.0</ele><time>2026-04-09T17:58:54Z</time></trkpt><trkpt lat="43.1112157" lon="12.3605731"><ele>274.0</ele><time>2026-04-09T17:58:55Z</time></trkpt><trkpt lat="43.1112842" lon="12.3605508"><ele>274.0</ele><time>2026-04-09T17:58:56Z</time></trkpt><trkpt lat="43.1113552" lon="12.3605112"><ele>274.0</ele><time>2026-04-09T17:58:57Z</time></trkpt><trkpt lat="43.1114257" lon="12.3604704"><ele>274.0</ele><time>2026-04-09T17:58:58Z</time></trkpt><trkpt lat="43.1114958" lon="12.3604312"><ele>274.0</ele><time>2026-04-09T17:58:59Z</time></trkpt><trkpt lat="43.1115787" lon="12.36043"><ele>274.0</ele><time>2026-04-09T17:58:59.999Z</time></trkpt><trkpt lat="43.1116654" lon="12.3604602"><ele>274.0</ele><time>2026-04-09T17:59:01Z</time></trkpt><trkpt lat="43.1117502" lon="12.3605288"><ele>274.0</ele><time>2026-04-09T17:59:02Z</time></trkpt><trkpt lat="43.1118363" lon="12.3606089"><ele>274.59999999999997</ele><time>2026-04-09T17:59:03Z</time></trkpt><trkpt lat="43.1119155" lon="12.3606854"><ele>275.2</ele><time>2026-04-09T17:59:04Z</time></trkpt><trkpt lat="43.1119834" lon="12.3607593"><ele>275.79999999999995</ele><time>2026-04-09T17:59:05Z</time></trkpt><trkpt lat="43.1120503" lon="12.3608347"><ele>276.4</ele><time>2026-04-09T17:59:06Z</time></trkpt><trkpt lat="43.112119" lon="12.3609146"><ele>277.0</ele><time>2026-04-09T17:59:07Z</time></trkpt><trkpt lat="43.1122009" lon="12.3610138"><ele>277.0</ele><time>2026-04-09T17:59:08Z</time></trkpt><trkpt lat="43.1122944" lon="12.3611364"><ele>277.0</ele><time>2026-04-09T17:59:09Z</time></trkpt><trkpt lat="43.1123796" lon="12.3612814"><ele>277.0</ele><time>2026-04-09T17:59:10Z</time></trkpt><trkpt lat="43.1124654" lon="12.3614061"><ele>277.0</ele><time>2026-04-09T17:59:11Z</time></trkpt><trkpt lat="43.1125449" lon="12.3614986"><ele>277.5</ele><time>2026-04-09T17:59:12.001Z</time></trkpt><trkpt lat="43.1126162" lon="12.3615596"><ele>278.0</ele><time>2026-04-09T17:59:13.001Z</time></trkpt><trkpt lat="43.1126762" lon="12.3616098"><ele>278.5</ele><time>2026-04-09T17:59:14Z</time></trkpt><trkpt lat="43.112753" lon="12.3616644"><ele>279.0</ele><time>2026-04-09T17:59:16.001Z</time></trkpt><trkpt lat="43.1128111" lon="12.3617304"><ele>279.5</ele><time>2026-04-09T17:59:18Z</time></trkpt><trkpt lat="43.1128673" lon="12.3617892"><ele>280.0</ele><time>2026-04-09T17:59:20Z</time></trkpt><trkpt lat="43.1129341" lon="12.3618488"><ele>280.0</ele><time>2026-04-09T17:59:24Z</time></trkpt><trkpt lat="43.1130108" lon="12.3617988"><ele>280.0</ele><time>2026-04-09T17:59:27Z</time></trkpt><trkpt lat="43.1130445" lon="12.3616438"><ele>280.0</ele><time>2026-04-09T17:59:29Z</time></trkpt><trkpt lat="43.1130507" lon="12.3615334"><ele>280.0</ele><time>2026-04-09T17:59:30Z</time></trkpt><trkpt lat="43.1130649" lon="12.3613923"><ele>280.0</ele><time>2026-04-09T17:59:30.999Z</time></trkpt><trkpt lat="43.1130855" lon="12.3612155"><ele>279.66666666666663</ele><time>2026-04-09T17:59:31.999Z</time></trkpt><trkpt lat="43.1131112" lon="12.3610035"><ele>279.3333333333333</ele><time>2026-04-09T17:59:33Z</time></trkpt><trkpt lat="43.1131532" lon="12.3607698"><ele>279.0</ele><time>2026-04-09T17:59:33.999Z</time></trkpt><trkpt lat="43.113208" lon="12.360496"><ele>281.0</ele><time>2026-04-09T17:59:34.999Z</time></trkpt><trkpt lat="43.1132673" lon="12.360172"><ele>283.0</ele><time>2026-04-09T17:59:36Z</time></trkpt><trkpt lat="43.1133375" lon="12.3598343"><ele>282.0</ele><time>2026-04-09T17:59:37Z</time></trkpt><trkpt lat="43.1134063" lon="12.359523"><ele>281.0</ele><time>2026-04-09T17:59:38.001Z</time></trkpt><trkpt lat="43.1134672" lon="12.3592413"><ele>281.0</ele><time>2026-04-09T17:59:39Z</time></trkpt><trkpt lat="43.1135221" lon="12.3590128"><ele>281.0</ele><time>2026-04-09T17:59:40Z</time></trkpt><trkpt lat="43.1135745" lon="12.3588163"><ele>281.0</ele><time>2026-04-09T17:59:40.999Z</time></trkpt><trkpt lat="43.1136181" lon="12.3586434"><ele>281.0</ele><time>2026-04-09T17:59:42Z</time></trkpt><trkpt lat="43.1136627" lon="12.3584946"><ele>281.0</ele><time>2026-04-09T17:59:43Z</time></trkpt><trkpt lat="43.113714" lon="12.35836"><ele>281.0</ele><time>2026-04-09T17:59:44Z</time></trkpt><trkpt lat="43.1137583" lon="12.3582222"><ele>281.0</ele><time>2026-04-09T17:59:45.001Z</time></trkpt><trkpt lat="43.1138038" lon="12.3580881"><ele>281.0</ele><time>2026-04-09T17:59:46Z</time></trkpt><trkpt lat="43.1138488" lon="12.357947"><ele>280.40000000000003</ele><time>2026-04-09T17:59:47.001Z</time></trkpt><trkpt lat="43.1138907" lon="12.357812"><ele>279.8</ele><time>2026-04-09T17:59:48Z</time></trkpt><trkpt lat="43.1139263" lon="12.3576782"><ele>279.20000000000005</ele><time>2026-04-09T17:59:49Z</time></trkpt><trkpt lat="43.1139607" lon="12.3575511"><ele>278.6</ele><time>2026-04-09T17:59:50Z</time></trkpt><trkpt lat="43.1140021" lon="12.3574274"><ele>278.0</ele><time>2026-04-09T17:59:51.001Z</time></trkpt><trkpt lat="43.1140411" lon="12.3572949"><ele>278.2</ele><time>2026-04-09T17:59:52Z</time></trkpt><trkpt lat="43.1140892" lon="12.3571772"><ele>278.4</ele><time>2026-04-09T17:59:53Z</time></trkpt><trkpt lat="43.1141332" lon="12.3570357"><ele>278.59999999999997</ele><time>2026-04-09T17:59:54.001Z</time></trkpt><trkpt lat="43.1141813" lon="12.356906"><ele>278.8</ele><time>2026-04-09T17:59:55.001Z</time></trkpt><trkpt lat="43.1142226" lon="12.3567631"><ele>279.0</ele><time>2026-04-09T17:59:56.001Z</time></trkpt><trkpt lat="43.1142609" lon="12.3566257"><ele>279.0</ele><time>2026-04-09T17:59:57.001Z</time></trkpt><trkpt lat="43.1143059" lon="12.3564818"><ele>279.0</ele><time>2026-04-09T17:59:58Z</time></trkpt><trkpt lat="43.1143457" lon="12.3563408"><ele>279.0</ele><time>2026-04-09T17:59:58.999Z</time></trkpt><trkpt lat="43.1143856" lon="12.3561939"><ele>279.0</ele><time>2026-04-09T18:00:00Z</time></trkpt><trkpt lat="43.1144217" lon="12.3560523"><ele>279.0</ele><time>2026-04-09T18:00:01Z</time></trkpt><trkpt lat="43.1144637" lon="12.3559112"><ele>279.0</ele><time>2026-04-09T18:00:02Z</time></trkpt><trkpt lat="43.1145238" lon="12.3557656"><ele>279.0</ele><time>2026-04-09T18:00:03.001Z</time></trkpt><trkpt lat="43.1145762" lon="12.3556149"><ele>279.0</ele><time>2026-04-09T18:00:04Z</time></trkpt><trkpt lat="43.1146331" lon="12.3554589"><ele>279.0</ele><time>2026-04-09T18:00:05Z</time></trkpt><trkpt lat="43.1147157" lon="12.3553353"><ele>278.75</ele><time>2026-04-09T18:00:06Z</time></trkpt><trkpt lat="43.1147999" lon="12.3551923"><ele>278.5</ele><time>2026-04-09T18:00:07.001Z</time></trkpt><trkpt lat="43.1148873" lon="12.3550295"><ele>278.25</ele><time>2026-04-09T18:00:08Z</time></trkpt><trkpt lat="43.1149693" lon="12.3548613"><ele>278.0</ele><time>2026-04-09T18:00:09Z</time></trkpt><trkpt lat="43.1150664" lon="12.3547287"><ele>278.5</ele><time>2026-04-09T18:00:10Z</time></trkpt><trkpt lat="43.1151564" lon="12.3545921"><ele>279.0</ele><time>2026-04-09T18:00:11Z</time></trkpt><trkpt lat="43.1152611" lon="12.3544697"><ele>279.5</ele><time>2026-04-09T18:00:12Z</time></trkpt><trkpt lat="43.1153873" lon="12.3543422"><ele>280.0</ele><time>2026-04-09T18:00:13.002Z</time></trkpt><trkpt lat="43.1154932" lon="12.3542428"><ele>280.0</ele><time>2026-04-09T18:00:14Z</time></trkpt><trkpt lat="43.1155919" lon="12.3541554"><ele>280.0</ele><time>2026-04-09T18:00:15.001Z</time></trkpt><trkpt lat="43.1157005" lon="12.3540718"><ele>280.0</ele><time>2026-04-09T18:00:16Z</time></trkpt><trkpt lat="43.1158023" lon="12.3539925"><ele>280.0</ele><time>2026-04-09T18:00:17Z</time></trkpt><trkpt lat="43.115905" lon="12.3538983"><ele>280.8</ele><time>2026-04-09T18:00:18Z</time></trkpt><trkpt lat="43.1160038" lon="12.3538274"><ele>281.6</ele><time>2026-04-09T18:00:19.001Z</time></trkpt><trkpt lat="43.1161021" lon="12.3537662"><ele>282.4</ele><time>2026-04-09T18:00:20Z</time></trkpt><trkpt lat="43.116201" lon="12.3536911"><ele>283.2</ele><time>2026-04-09T18:00:21Z</time></trkpt><trkpt lat="43.1162913" lon="12.353632"><ele>284.0</ele><time>2026-04-09T18:00:22Z</time></trkpt><trkpt lat="43.1163737" lon="12.3535601"><ele>284.0</ele><time>2026-04-09T18:00:22.999Z</time></trkpt><trkpt lat="43.116452" lon="12.3534913"><ele>284.0</ele><time>2026-04-09T18:00:24Z</time></trkpt><trkpt lat="43.1165198" lon="12.3534322"><ele>284.0</ele><time>2026-04-09T18:00:25Z</time></trkpt><trkpt lat="43.1165788" lon="12.3533942"><ele>284.0</ele><time>2026-04-09T18:00:26Z</time></trkpt><trkpt lat="43.1166865" lon="12.3533678"><ele>284.0</ele><time>2026-04-09T18:00:28Z</time></trkpt><trkpt lat="43.1167807" lon="12.3533327"><ele>284.0</ele><time>2026-04-09T18:00:30Z</time></trkpt><trkpt lat="43.1168535" lon="12.3532435"><ele>284.0</ele><time>2026-04-09T18:00:32Z</time></trkpt><trkpt lat="43.1169006" lon="12.3531622"><ele>284.0</ele><time>2026-04-09T18:00:33Z</time></trkpt><trkpt lat="43.1169874" lon="12.3530739"><ele>284.0</ele><time>2026-04-09T18:00:34.001Z</time></trkpt><trkpt lat="43.117091" lon="12.3529957"><ele>284.0</ele><time>2026-04-09T18:00:35.001Z</time></trkpt><trkpt lat="43.1172979" lon="12.3528907"><ele>282.5</ele><time>2026-04-09T18:00:35.999Z</time></trkpt><trkpt lat="43.1175387" lon="12.3527821"><ele>281.0</ele><time>2026-04-09T18:00:37Z</time></trkpt><trkpt lat="43.1178011" lon="12.352658"><ele>281.0</ele><time>2026-04-09T18:00:37.999Z</time></trkpt><trkpt lat="43.1180769" lon="12.3525297"><ele>281.0</ele><time>2026-04-09T18:00:39Z</time></trkpt><trkpt lat="43.1183405" lon="12.3524183"><ele>282.6666666666667</ele><time>2026-04-09T18:00:40Z</time></trkpt><trkpt lat="43.1185592" lon="12.3523389"><ele>284.3333333333333</ele><time>2026-04-09T18:00:41Z</time></trkpt><trkpt lat="43.1187542" lon="12.3522629"><ele>286.0</ele><time>2026-04-09T18:00:41.999Z</time></trkpt><trkpt lat="43.1189149" lon="12.3521889"><ele>286.3333333333333</ele><time>2026-04-09T18:00:42.999Z</time></trkpt><trkpt lat="43.119059" lon="12.3521122"><ele>286.6666666666667</ele><time>2026-04-09T18:00:44Z</time></trkpt><trkpt lat="43.1193141" lon="12.3519945"><ele>287.0</ele><time>2026-04-09T18:00:46Z</time></trkpt><trkpt lat="43.1195121" lon="12.3519021"><ele>287.1666666666667</ele><time>2026-04-09T18:00:48Z</time></trkpt><trkpt lat="43.1196009" lon="12.3518665"><ele>287.33333333333337</ele><time>2026-04-09T18:00:49Z</time></trkpt><trkpt lat="43.119685" lon="12.3518345"><ele>287.5</ele><time>2026-04-09T18:00:50Z</time></trkpt><trkpt lat="43.1197693" lon="12.3517946"><ele>287.6666666666667</ele><time>2026-04-09T18:00:51Z</time></trkpt><trkpt lat="43.1198509" lon="12.3517348"><ele>287.8333333333333</ele><time>2026-04-09T18:00:52Z</time></trkpt><trkpt lat="43.119917" lon="12.3516631"><ele>288.0</ele><time>2026-04-09T18:00:53Z</time></trkpt><trkpt lat="43.1199862" lon="12.351573"><ele>288.6</ele><time>2026-04-09T18:00:54Z</time></trkpt><trkpt lat="43.1200537" lon="12.3514782"><ele>289.20000000000005</ele><time>2026-04-09T18:00:55Z</time></trkpt><trkpt lat="43.1201093" lon="12.351382"><ele>289.8</ele><time>2026-04-09T18:00:55.999Z</time></trkpt><trkpt lat="43.1201585" lon="12.3512914"><ele>290.40000000000003</ele><time>2026-04-09T18:00:57.001Z</time></trkpt><trkpt lat="43.1202167" lon="12.3511869"><ele>291.0</ele><time>2026-04-09T18:00:58.001Z</time></trkpt><trkpt lat="43.1202894" lon="12.3510496"><ele>291.0</ele><time>2026-04-09T18:00:59.001Z</time></trkpt><trkpt lat="43.120394" lon="12.3508885"><ele>291.0</ele><time>2026-04-09T18:01:00Z</time></trkpt><trkpt lat="43.1205041" lon="12.350689"><ele>291.0</ele><time>2026-04-09T18:01:01Z</time></trkpt><trkpt lat="43.1207145" lon="12.3503213"><ele>292.3333333333333</ele><time>2026-04-09T18:01:03Z</time></trkpt><trkpt lat="43.120818" lon="12.3501561"><ele>293.66666666666663</ele><time>2026-04-09T18:01:04Z</time></trkpt><trkpt lat="43.1209155" lon="12.3500066"><ele>295.0</ele><time>2026-04-09T18:01:05Z</time></trkpt><trkpt lat="43.1210178" lon="12.3498554"><ele>296.66666666666663</ele><time>2026-04-09T18:01:06Z</time></trkpt><trkpt lat="43.1211216" lon="12.3497"><ele>298.3333333333333</ele><time>2026-04-09T18:01:07.001Z</time></trkpt><trkpt lat="43.1212877" lon="12.3494251"><ele>300.0</ele><time>2026-04-09T18:01:08.755Z</time></trkpt><trkpt lat="43.1214119" lon="12.3492243"><ele>300.0</ele><time>2026-04-09T18:01:10.001Z</time></trkpt><trkpt lat="43.1215173" lon="12.3490727"><ele>300.0</ele><time>2026-04-09T18:01:10.999Z</time></trkpt><trkpt lat="43.1216323" lon="12.3489224"><ele>300.0</ele><time>2026-04-09T18:01:12Z</time></trkpt><trkpt lat="43.121755" lon="12.3487861"><ele>301.25</ele><time>2026-04-09T18:01:13Z</time></trkpt><trkpt lat="43.1218738" lon="12.3486624"><ele>302.5</ele><time>2026-04-09T18:01:14Z</time></trkpt><trkpt lat="43.1219987" lon="12.3485469"><ele>303.75</ele><time>2026-04-09T18:01:15Z</time></trkpt><trkpt lat="43.1221282" lon="12.3484507"><ele>305.0</ele><time>2026-04-09T18:01:16Z</time></trkpt><trkpt lat="43.12226" lon="12.3483677"><ele>305.0</ele><time>2026-04-09T18:01:17Z</time></trkpt><trkpt lat="43.1223921" lon="12.3482998"><ele>305.0</ele><time>2026-04-09T18:01:18Z</time></trkpt><trkpt lat="43.1225275" lon="12.348234"><ele>305.0</ele><time>2026-04-09T18:01:19Z</time></trkpt><trkpt lat="43.1226538" lon="12.3481681"><ele>305.0</ele><time>2026-04-09T18:01:20Z</time></trkpt><trkpt lat="43.122785" lon="12.3481139"><ele>305.25</ele><time>2026-04-09T18:01:21Z</time></trkpt><trkpt lat="43.1229334" lon="12.3480784"><ele>305.5</ele><time>2026-04-09T18:01:22Z</time></trkpt><trkpt lat="43.1230728" lon="12.34805"><ele>305.75</ele><time>2026-04-09T18:01:22.999Z</time></trkpt><trkpt lat="43.1232214" lon="12.3480103"><ele>306.0</ele><time>2026-04-09T18:01:24Z</time></trkpt><trkpt lat="43.1233547" lon="12.3479641"><ele>307.0</ele><time>2026-04-09T18:01:25Z</time></trkpt><trkpt lat="43.1234886" lon="12.3479086"><ele>308.0</ele><time>2026-04-09T18:01:26Z</time></trkpt><trkpt lat="43.1236141" lon="12.3478196"><ele>309.0</ele><time>2026-04-09T18:01:27Z</time></trkpt><trkpt lat="43.1237171" lon="12.3477058"><ele>310.0</ele><time>2026-04-09T18:01:28.001Z</time></trkpt><trkpt lat="43.1240411" lon="12.3475053"><ele>310.3333333333333</ele><time>2026-04-09T18:01:29.999Z</time></trkpt><trkpt lat="43.1242086" lon="12.3474064"><ele>310.6666666666667</ele><time>2026-04-09T18:01:31.001Z</time></trkpt><trkpt lat="43.1243559" lon="12.3473161"><ele>311.0</ele><time>2026-04-09T18:01:32Z</time></trkpt><trkpt lat="43.1244939" lon="12.3472238"><ele>310.40000000000003</ele><time>2026-04-09T18:01:32.999Z</time></trkpt><trkpt lat="43.1245808" lon="12.3471371"><ele>309.8</ele><time>2026-04-09T18:01:34.002Z</time></trkpt><trkpt lat="43.1246562" lon="12.3470501"><ele>309.20000000000005</ele><time>2026-04-09T18:01:35Z</time></trkpt><trkpt lat="43.1247306" lon="12.3469312"><ele>308.6</ele><time>2026-04-09T18:01:36.001Z</time></trkpt><trkpt lat="43.1247963" lon="12.3468147"><ele>308.0</ele><time>2026-04-09T18:01:37Z</time></trkpt><trkpt lat="43.1248521" lon="12.346525"><ele>311.5</ele><time>2026-04-09T18:01:39.001Z</time></trkpt><trkpt lat="43.1249053" lon="12.3463718"><ele>315.0</ele><time>2026-04-09T18:01:40.001Z</time></trkpt><trkpt lat="43.1249457" lon="12.3462347"><ele>318.5</ele><time>2026-04-09T18:01:41.001Z</time></trkpt><trkpt lat="43.1250436" lon="12.3461292"><ele>322.0</ele><time>2026-04-09T18:01:42Z</time></trkpt><trkpt lat="43.1251036" lon="12.3460123"><ele>322.0</ele><time>2026-04-09T18:01:43Z</time></trkpt><trkpt lat="43.1251693" lon="12.3459019"><ele>322.0</ele><time>2026-04-09T18:01:44.001Z</time></trkpt><trkpt lat="43.1252458" lon="12.3457988"><ele>322.0</ele><time>2026-04-09T18:01:45Z</time></trkpt><trkpt lat="43.1253782" lon="12.3455784"><ele>322.0</ele><time>2026-04-09T18:01:46.999Z</time></trkpt><trkpt lat="43.1254728" lon="12.3453387"><ele>323.16666666666663</ele><time>2026-04-09T18:01:49.002Z</time></trkpt><trkpt lat="43.1254921" lon="12.3451972"><ele>324.3333333333333</ele><time>2026-04-09T18:01:50Z</time></trkpt><trkpt lat="43.1254792" lon="12.3450726"><ele>325.5</ele><time>2026-04-09T18:01:51Z</time></trkpt><trkpt lat="43.1254709" lon="12.3449666"><ele>326.6666666666667</ele><time>2026-04-09T18:01:52Z</time></trkpt><trkpt lat="43.1254644" lon="12.3448717"><ele>327.83333333333337</ele><time>2026-04-09T18:01:53.001Z</time></trkpt><trkpt lat="43.1254715" lon="12.3447858"><ele>329.0</ele><time>2026-04-09T18:01:54Z</time></trkpt><trkpt lat="43.1254988" lon="12.3446189"><ele>329.75</ele><time>2026-04-09T18:01:56Z</time></trkpt><trkpt lat="43.1255215" lon="12.3444836"><ele>330.5</ele><time>2026-04-09T18:01:57.001Z</time></trkpt><trkpt lat="43.1255404" lon="12.3443374"><ele>331.25</ele><time>2026-04-09T18:01:58Z</time></trkpt><trkpt lat="43.1255636" lon="12.3441619"><ele>332.0</ele><time>2026-04-09T18:01:59Z</time></trkpt><trkpt lat="43.1255911" lon="12.3440031"><ele>333.40000000000003</ele><time>2026-04-09T18:02:00Z</time></trkpt><trkpt lat="43.1256187" lon="12.3438634"><ele>334.8</ele><time>2026-04-09T18:02:01.001Z</time></trkpt><trkpt lat="43.1256892" lon="12.3436265"><ele>336.2</ele><time>2026-04-09T18:02:03Z</time></trkpt><trkpt lat="43.1257398" lon="12.3435469"><ele>337.6</ele><time>2026-04-09T18:02:04Z</time></trkpt><trkpt lat="43.1257942" lon="12.3434817"><ele>339.0</ele><time>2026-04-09T18:02:05Z</time></trkpt><trkpt lat="43.1258364" lon="12.3433982"><ele>339.0</ele><time>2026-04-09T18:02:06Z</time></trkpt><trkpt lat="43.1259071" lon="12.3433328"><ele>339.0</ele><time>2026-04-09T18:02:07.001Z</time></trkpt><trkpt lat="43.1259808" lon="12.3433089"><ele>339.0</ele><time>2026-04-09T18:02:08.001Z</time></trkpt><trkpt lat="43.1261451" lon="12.34332"><ele>339.0</ele><time>2026-04-09T18:02:10.001Z</time></trkpt><trkpt lat="43.1262251" lon="12.3433493"><ele>339.0</ele><time>2026-04-09T18:02:11.001Z</time></trkpt><trkpt lat="43.1263302" lon="12.3434258"><ele>339.0</ele><time>2026-04-09T18:02:12.002Z</time></trkpt><trkpt lat="43.1264142" lon="12.3434992"><ele>339.0</ele><time>2026-04-09T18:02:13.001Z</time></trkpt><trkpt lat="43.1265663" lon="12.3436653"><ele>339.0</ele><time>2026-04-09T18:02:15Z</time></trkpt><trkpt lat="43.1266437" lon="12.3437566"><ele>339.0</ele><time>2026-04-09T18:02:16.001Z</time></trkpt><trkpt lat="43.1267024" lon="12.3437987"><ele>340.0</ele><time>2026-04-09T18:02:16.999Z</time></trkpt><trkpt lat="43.1267747" lon="12.3438914"><ele>341.0</ele><time>2026-04-09T18:02:18Z</time></trkpt><trkpt lat="43.1268218" lon="12.3439546"><ele>342.0</ele><time>2026-04-09T18:02:19Z</time></trkpt><trkpt lat="43.1268696" lon="12.3441056"><ele>343.0</ele><time>2026-04-09T18:02:21Z</time></trkpt><trkpt lat="43.1268748" lon="12.344214"><ele>344.0</ele><time>2026-04-09T18:02:22.001Z</time></trkpt><trkpt lat="43.1268136" lon="12.3444509"><ele>344.0</ele><time>2026-04-09T18:02:24.001Z</time></trkpt><trkpt lat="43.1267736" lon="12.3445567"><ele>344.0</ele><time>2026-04-09T18:02:25Z</time></trkpt><trkpt lat="43.1267317" lon="12.3446577"><ele>344.0</ele><time>2026-04-09T18:02:26.001Z</time></trkpt><trkpt lat="43.126686" lon="12.3447547"><ele>344.0</ele><time>2026-04-09T18:02:27.001Z</time></trkpt><trkpt lat="43.1266119" lon="12.3449999"><ele>344.6</ele><time>2026-04-09T18:02:30.001Z</time></trkpt><trkpt lat="43.1265663" lon="12.3451311"><ele>345.2</ele><time>2026-04-09T18:02:32Z</time></trkpt><trkpt lat="43.1265583" lon="12.3452747"><ele>345.8</ele><time>2026-04-09T18:02:34.001Z</time></trkpt><trkpt lat="43.1266489" lon="12.3453124"><ele>346.40000000000003</ele><time>2026-04-09T18:02:36.001Z</time></trkpt><trkpt lat="43.1267468" lon="12.3452015"><ele>347.0</ele><time>2026-04-09T18:02:38Z</time></trkpt><trkpt lat="43.1268048" lon="12.34511"><ele>347.0</ele><time>2026-04-09T18:02:39.001Z</time></trkpt><trkpt lat="43.1268586" lon="12.3450235"><ele>347.0</ele><time>2026-04-09T18:02:40Z</time></trkpt><trkpt lat="43.1269533" lon="12.344998"><ele>347.0</ele><time>2026-04-09T18:02:42.001Z</time></trkpt><trkpt lat="43.1269594" lon="12.3451854"><ele>347.0</ele><time>2026-04-09T18:02:44Z</time></trkpt><trkpt lat="43.1269265" lon="12.3453313"><ele>347.0</ele><time>2026-04-09T18:02:45Z</time></trkpt><trkpt lat="43.126886" lon="12.3454894"><ele>348.0</ele><time>2026-04-09T18:02:46.001Z</time></trkpt><trkpt lat="43.1268426" lon="12.3456706"><ele>349.0</ele><time>2026-04-09T18:02:47Z</time></trkpt><trkpt lat="43.1267958" lon="12.3458768"><ele>350.0</ele><time>2026-04-09T18:02:48.001Z</time></trkpt><trkpt lat="43.1267432" lon="12.3461079"><ele>350.0</ele><time>2026-04-09T18:02:49Z</time></trkpt><trkpt lat="43.1266968" lon="12.3463392"><ele>350.0</ele><time>2026-04-09T18:02:50.001Z</time></trkpt><trkpt lat="43.1266722" lon="12.3465509"><ele>350.0</ele><time>2026-04-09T18:02:50.999Z</time></trkpt><trkpt lat="43.1266498" lon="12.3467685"><ele>350.6666666666667</ele><time>2026-04-09T18:02:52.001Z</time></trkpt><trkpt lat="43.1266319" lon="12.3469987"><ele>351.3333333333333</ele><time>2026-04-09T18:02:53Z</time></trkpt><trkpt lat="43.126614" lon="12.347222"><ele>352.0</ele><time>2026-04-09T18:02:54Z</time></trkpt><trkpt lat="43.1266026" lon="12.3474352"><ele>352.5</ele><time>2026-04-09T18:02:55.001Z</time></trkpt><trkpt lat="43.126574" lon="12.3476216"><ele>353.0</ele><time>2026-04-09T18:02:56.001Z</time></trkpt><trkpt lat="43.1265331" lon="12.347798"><ele>353.5</ele><time>2026-04-09T18:02:57.001Z</time></trkpt><trkpt lat="43.1264934" lon="12.3479583"><ele>354.0</ele><time>2026-04-09T18:02:58Z</time></trkpt><trkpt lat="43.126435" lon="12.348119"><ele>350.79999999999995</ele><time>2026-04-09T18:02:58.999Z</time></trkpt><trkpt lat="43.1263723" lon="12.3482688"><ele>347.59999999999997</ele><time>2026-04-09T18:03:00Z</time></trkpt><trkpt lat="43.1263063" lon="12.3483995"><ele>344.4</ele><time>2026-04-09T18:03:01Z</time></trkpt><trkpt lat="43.126248" lon="12.3485008"><ele>341.2</ele><time>2026-04-09T18:03:02.001Z</time></trkpt><trkpt lat="43.1261888" lon="12.3485898"><ele>338.0</ele><time>2026-04-09T18:03:03.001Z</time></trkpt><trkpt lat="43.1261616" lon="12.3487348"><ele>338.0</ele><time>2026-04-09T18:03:04.999Z</time></trkpt><trkpt lat="43.1262017" lon="12.3488024"><ele>338.0</ele><time>2026-04-09T18:03:05.999Z</time></trkpt><trkpt lat="43.1262803" lon="12.3488808"><ele>338.0</ele><time>2026-04-09T18:03:07.001Z</time></trkpt><trkpt lat="43.1263924" lon="12.3489644"><ele>338.0</ele><time>2026-04-09T18:03:08.001Z</time></trkpt><trkpt lat="43.1265321" lon="12.3490816"><ele>341.6666666666667</ele><time>2026-04-09T18:03:09Z</time></trkpt><trkpt lat="43.1266973" lon="12.3492129"><ele>345.3333333333333</ele><time>2026-04-09T18:03:10.001Z</time></trkpt><trkpt lat="43.1268885" lon="12.349372"><ele>349.0</ele><time>2026-04-09T18:03:11.001Z</time></trkpt><trkpt lat="43.1270658" lon="12.3495202"><ele>349.0</ele><time>2026-04-09T18:03:12.001Z</time></trkpt><trkpt lat="43.1272064" lon="12.3496354"><ele>349.0</ele><time>2026-04-09T18:03:13.001Z</time></trkpt><trkpt lat="43.1273102" lon="12.3497248"><ele>349.0</ele><time>2026-04-09T18:03:14Z</time></trkpt><trkpt lat="43.1274042" lon="12.3497992"><ele>349.0</ele><time>2026-04-09T18:03:15.001Z</time></trkpt><trkpt lat="43.1274596" lon="12.3498736"><ele>348.4</ele><time>2026-04-09T18:03:16.001Z</time></trkpt><trkpt lat="43.1274863" lon="12.3499666"><ele>347.79999999999995</ele><time>2026-04-09T18:03:17Z</time></trkpt><trkpt lat="43.1274671" lon="12.350077"><ele>347.20000000000005</ele><time>2026-04-09T18:03:18Z</time></trkpt><trkpt lat="43.1274183" lon="12.3502185"><ele>346.6</ele><time>2026-04-09T18:03:19Z</time></trkpt><trkpt lat="43.1273488" lon="12.3503664"><ele>346.0</ele><time>2026-04-09T18:03:20.001Z</time></trkpt><trkpt lat="43.1272783" lon="12.3505342"><ele>346.4</ele><time>2026-04-09T18:03:21Z</time></trkpt><trkpt lat="43.1272103" lon="12.3506857"><ele>346.8</ele><time>2026-04-09T18:03:22.001Z</time></trkpt><trkpt lat="43.1271487" lon="12.3508079"><ele>347.2</ele><time>2026-04-09T18:03:23.001Z</time></trkpt><trkpt lat="43.1270867" lon="12.3509041"><ele>347.59999999999997</ele><time>2026-04-09T18:03:24Z</time></trkpt><trkpt lat="43.1270155" lon="12.3509687"><ele>348.0</ele><time>2026-04-09T18:03:25Z</time></trkpt><trkpt lat="43.1269297" lon="12.3510065"><ele>348.0</ele><time>2026-04-09T18:03:26.001Z</time></trkpt><trkpt lat="43.126827" lon="12.3510105"><ele>348.0</ele><time>2026-04-09T18:03:27Z</time></trkpt><trkpt lat="43.1267075" lon="12.3509805"><ele>348.0</ele><time>2026-04-09T18:03:28Z</time></trkpt><trkpt lat="43.126563" lon="12.3509355"><ele>348.0</ele><time>2026-04-09T18:03:29.001Z</time></trkpt><trkpt lat="43.126391" lon="12.3508873"><ele>351.0</ele><time>2026-04-09T18:03:29.999Z</time></trkpt><trkpt lat="43.126079" lon="12.3507961"><ele>354.0</ele><time>2026-04-09T18:03:31.999Z</time></trkpt><trkpt lat="43.1258159" lon="12.3507601"><ele>353.79999999999995</ele><time>2026-04-09T18:03:34.001Z</time></trkpt><trkpt lat="43.1257063" lon="12.350766"><ele>353.59999999999997</ele><time>2026-04-09T18:03:35Z</time></trkpt><trkpt lat="43.1256139" lon="12.3507727"><ele>353.4</ele><time>2026-04-09T18:03:36Z</time></trkpt><trkpt lat="43.1255348" lon="12.3507908"><ele>353.2</ele><time>2026-04-09T18:03:37Z</time></trkpt><trkpt lat="43.1253875" lon="12.3508146"><ele>353.0</ele><time>2026-04-09T18:03:39Z</time></trkpt><trkpt lat="43.1252749" lon="12.3508443"><ele>353.0</ele><time>2026-04-09T18:03:41.001Z</time></trkpt><trkpt lat="43.125182" lon="12.3508718"><ele>353.0</ele><time>2026-04-09T18:03:43.001Z</time></trkpt><trkpt lat="43.1250941" lon="12.3509137"><ele>353.0</ele><time>2026-04-09T18:03:45Z</time></trkpt><trkpt lat="43.125019" lon="12.350939"><ele>353.0</ele><time>2026-04-09T18:03:47Z</time></trkpt><trkpt lat="43.1249594" lon="12.3510098"><ele>353.0</ele><time>2026-04-09T18:03:50.001Z</time></trkpt><trkpt lat="43.1249224" lon="12.3511502"><ele>352.0</ele><time>2026-04-09T18:04:06Z</time></trkpt><trkpt lat="43.1248869" lon="12.3513292"><ele>351.0</ele><time>2026-04-09T18:04:08.001Z</time></trkpt><trkpt lat="43.1248777" lon="12.3514357"><ele>350.0</ele><time>2026-04-09T18:04:09.001Z</time></trkpt><trkpt lat="43.124885" lon="12.3515687"><ele>349.0</ele><time>2026-04-09T18:04:10.001Z</time></trkpt><trkpt lat="43.1248933" lon="12.3517012"><ele>348.0</ele><time>2026-04-09T18:04:11Z</time></trkpt><trkpt lat="43.1249142" lon="12.3518146"><ele>350.1666666666667</ele><time>2026-04-09T18:04:12.001Z</time></trkpt><trkpt lat="43.1249624" lon="12.3518818"><ele>352.3333333333333</ele><time>2026-04-09T18:04:13.002Z</time></trkpt><trkpt lat="43.1250451" lon="12.3519674"><ele>354.5</ele><time>2026-04-09T18:04:15.001Z</time></trkpt><trkpt lat="43.1251529" lon="12.3519754"><ele>356.66666666666663</ele><time>2026-04-09T18:04:18Z</time></trkpt><trkpt lat="43.1252051" lon="12.351898"><ele>358.8333333333333</ele><time>2026-04-09T18:04:40Z</time></trkpt><trkpt lat="43.1252368" lon="12.3518078"><ele>361.0</ele><time>2026-04-09T18:05:24Z</time></trkpt><trkpt lat="43.1251693" lon="12.3517586"><ele>361.0</ele><time>2026-04-09T18:07:18.98Z</time></trkpt><trkpt lat="43.1252311" lon="12.3517105"><ele>361.0</ele><time>2026-04-09T18:09:35.172Z</time></trkpt><trkpt lat="43.1251593" lon="12.3516577"><ele>361.0</ele><time>2026-04-09T18:10:26.83Z</time></trkpt><trkpt lat="43.1252068" lon="12.3517174"><ele>361.0</ele><time>2026-04-09T18:11:36.001Z</time></trkpt><trkpt lat="43.1252353" lon="12.3518289"><ele>361.0</ele><time>2026-04-09T18:11:53.001Z</time></trkpt><trkpt lat="43.1251911" lon="12.3518932"><ele>361.0</ele><time>2026-04-09T18:11:59.001Z</time></trkpt><trkpt lat="43.1252056" lon="12.3518001"><ele>361.0</ele><time>2026-04-09T18:12:55.001Z</time></trkpt><trkpt lat="43.1251372" lon="12.3517894"><ele>361.0</ele><time>2026-04-09T18:13:21.001Z</time></trkpt><trkpt lat="43.1251261" lon="12.3518785"><ele>361.0</ele><time>2026-04-09T18:13:32.001Z</time></trkpt><trkpt lat="43.1252146" lon="12.3518596"><ele>361.0</ele><time>2026-04-09T18:14:56.001Z</time></trkpt><trkpt lat="43.1251715" lon="12.3517812"><ele>361.0</ele><time>2026-04-09T18:15:31.001Z</time></trkpt><trkpt lat="43.1252202" lon="12.3516907"><ele>361.0</ele><time>2026-04-09T18:15:56.001Z</time></trkpt><trkpt lat="43.1251661" lon="12.3519185"><ele>361.0</ele><time>2026-04-09T18:19:19.002Z</time></trkpt><trkpt lat="43.1251666" lon="12.3518167"><ele>361.0</ele><time>2026-04-09T18:19:35.002Z</time></trkpt><trkpt lat="43.1251229" lon="12.3516754"><ele>361.0</ele><time>2026-04-09T18:23:15.001Z</time></trkpt></trkseg></trk></gpx>